<?xml version='1.0' encoding='UTF-8'?><gpx version="1.1" creator="JPX - https://github.com/jenetics/jpx" xmlns="http://www.topografix.com/GPX/1/1"><trk><trkseg><trkpt lat="45.0543797294609" lon="9.658498082826194"><ele>57.99999999999999</ele><time>2026-05-01T10:24:03Z</time></trkpt><trkpt lat="45.05440386318434" lon="9.658615537250023"><ele>58.0</ele><time>2026-05-01T10:26:59.999Z</time></trkpt><trkpt lat="45.05441061065001" lon="9.658707717232325"><ele>58.0</ele><time>2026-05-01T10:27:12.999Z</time></trkpt><trkpt lat="45.054372098377144" lon="9.658796669085579"><ele>58.0</ele><time>2026-05-01T10:27:15.999Z</time></trkpt><trkpt lat="45.05429644364425" lon="9.658839923836885"><ele>57.99999999999999</ele><time>2026-05-01T10:27:16.999Z</time></trkpt><trkpt lat="45.05420788974232" lon="9.658902482064093"><ele>58.0</ele><time>2026-05-01T10:27:17.999Z</time></trkpt><trkpt lat="45.05411362253804" lon="9.658996453569245"><ele>58.33333333333333</ele><time>2026-05-01T10:27:18.999Z</time></trkpt><trkpt lat="45.05402828552413" lon="9.659077998961335"><ele>58.666666666666664</ele><time>2026-05-01T10:27:19.999Z</time></trkpt><trkpt lat="45.05397607008569" lon="9.659134125457287"><ele>59.0</ele><time>2026-05-01T10:27:20.999Z</time></trkpt><trkpt lat="45.054033235986054" lon="9.659205837963551"><ele>59.33333333333333</ele><time>2026-05-01T10:27:23.999Z</time></trkpt><trkpt lat="45.0541369718023" lon="9.659154563389643"><ele>59.666666666666664</ele><time>2026-05-01T10:27:25.999Z</time></trkpt><trkpt lat="45.05419671308186" lon="9.659071800226796"><ele>60.0</ele><time>2026-05-01T10:27:26.999Z</time></trkpt><trkpt lat="45.05426481496572" lon="9.658987876422493"><ele>59.333333333333336</ele><time>2026-05-01T10:27:27.999Z</time></trkpt><trkpt lat="45.05434571002429" lon="9.658919125429158"><ele>58.66666666666667</ele><time>2026-05-01T10:27:28.999Z</time></trkpt><trkpt lat="45.05443207948268" lon="9.65886910765152"><ele>58.0</ele><time>2026-05-01T10:27:29.999Z</time></trkpt><trkpt lat="45.0545208374748" lon="9.658844246169776"><ele>57.333333333333336</ele><time>2026-05-01T10:27:30.999Z</time></trkpt><trkpt lat="45.05458613774192" lon="9.658865895781528"><ele>56.66666666666667</ele><time>2026-05-01T10:27:31.999Z</time></trkpt><trkpt lat="45.05465861421598" lon="9.658888731025842"><ele>56.0</ele><time>2026-05-01T10:27:33.999Z</time></trkpt><trkpt lat="45.054784876661046" lon="9.658970962943968"><ele>56.0</ele><time>2026-05-01T10:27:35.999Z</time></trkpt><trkpt lat="45.05484550221385" lon="9.658941829583968"><ele>55.99999999999999</ele><time>2026-05-01T10:27:36.999Z</time></trkpt><trkpt lat="45.05489759615723" lon="9.658864437998595"><ele>55.99999999999999</ele><time>2026-05-01T10:27:37.999Z</time></trkpt><trkpt lat="45.05490686046553" lon="9.658767969254534"><ele>56.0</ele><time>2026-05-01T10:27:38.999Z</time></trkpt><trkpt lat="45.05484578341066" lon="9.658505048331001"><ele>56.0</ele><time>2026-05-01T10:27:40.999Z</time></trkpt><trkpt lat="45.05481786693624" lon="9.658339458711051"><ele>56.333333333333336</ele><time>2026-05-01T10:27:41.999Z</time></trkpt><trkpt lat="45.05481006646747" lon="9.658119976261773"><ele>56.66666666666667</ele><time>2026-05-01T10:27:42.999Z</time></trkpt><trkpt lat="45.05480378480094" lon="9.657900960670393"><ele>57.0</ele><time>2026-05-01T10:27:43.999Z</time></trkpt><trkpt lat="45.054797809186056" lon="9.657672285771856"><ele>57.0</ele><time>2026-05-01T10:27:44.999Z</time></trkpt><trkpt lat="45.05478968114882" lon="9.657453790137588"><ele>57.0</ele><time>2026-05-01T10:27:45.999Z</time></trkpt><trkpt lat="45.05480266887532" lon="9.65722287827371"><ele>57.0</ele><time>2026-05-01T10:27:46.999Z</time></trkpt><trkpt lat="45.05480475600348" lon="9.65697814092129"><ele>56.66666666666667</ele><time>2026-05-01T10:27:47.999Z</time></trkpt><trkpt lat="45.05484457689691" lon="9.6567194261571"><ele>56.333333333333336</ele><time>2026-05-01T10:27:48.999Z</time></trkpt><trkpt lat="45.0548257097632" lon="9.656441436436404"><ele>56.0</ele><time>2026-05-01T10:27:49.999Z</time></trkpt><trkpt lat="45.05483198069892" lon="9.656178046616445"><ele>56.333333333333336</ele><time>2026-05-01T10:27:50.999Z</time></trkpt><trkpt lat="45.0548323037086" lon="9.655919260373631"><ele>56.66666666666667</ele><time>2026-05-01T10:27:51.999Z</time></trkpt><trkpt lat="45.05483499946305" lon="9.655680654489617"><ele>57.0</ele><time>2026-05-01T10:27:53Z</time></trkpt><trkpt lat="45.05484068887339" lon="9.655486939985305"><ele>57.0</ele><time>2026-05-01T10:27:54Z</time></trkpt><trkpt lat="45.05484472627454" lon="9.655348689006505"><ele>57.0</ele><time>2026-05-01T10:27:55Z</time></trkpt><trkpt lat="45.05484575007978" lon="9.655204500390054"><ele>57.0</ele><time>2026-05-01T10:27:56Z</time></trkpt><trkpt lat="45.05487260650542" lon="9.655062457707027"><ele>57.0</ele><time>2026-05-01T10:27:57Z</time></trkpt><trkpt lat="45.05486429468552" lon="9.65494324414596"><ele>57.0</ele><time>2026-05-01T10:27:58Z</time></trkpt><trkpt lat="45.054861482769" lon="9.654800710831152"><ele>57.400000000000006</ele><time>2026-05-01T10:27:59Z</time></trkpt><trkpt lat="45.05486580880563" lon="9.654664293623945"><ele>57.800000000000004</ele><time>2026-05-01T10:28:00Z</time></trkpt><trkpt lat="45.05486996752049" lon="9.654558509707487"><ele>58.2</ele><time>2026-05-01T10:28:01Z</time></trkpt><trkpt lat="45.054845442938856" lon="9.654475569863903"><ele>58.6</ele><time>2026-05-01T10:28:04Z</time></trkpt><trkpt lat="45.05477218605687" lon="9.65443917592592"><ele>59.0</ele><time>2026-05-01T10:28:10Z</time></trkpt><trkpt lat="45.05477462933869" lon="9.654769565355258"><ele>59.0</ele><time>2026-05-01T10:28:12Z</time></trkpt><trkpt lat="45.05477075630018" lon="9.654931408847585"><ele>59.00000000000001</ele><time>2026-05-01T10:28:13Z</time></trkpt><trkpt lat="45.054771579629765" lon="9.655072539613405"><ele>59.00000000000001</ele><time>2026-05-01T10:28:14Z</time></trkpt><trkpt lat="45.05477413106698" lon="9.65518370856995"><ele>59.0</ele><time>2026-05-01T10:28:15Z</time></trkpt><trkpt lat="45.05474418981363" lon="9.655311817603188"><ele>59.0</ele><time>2026-05-01T10:28:17Z</time></trkpt><trkpt lat="45.054648585243406" lon="9.655257580610513"><ele>59.0</ele><time>2026-05-01T10:28:19Z</time></trkpt><trkpt lat="45.054555141612234" lon="9.655289646636648"><ele>59.00000000000001</ele><time>2026-05-01T10:28:20Z</time></trkpt><trkpt lat="45.05445540668134" lon="9.65526229227401"><ele>59.00000000000001</ele><time>2026-05-01T10:28:21Z</time></trkpt><trkpt lat="45.05437746546399" lon="9.655238539472805"><ele>59.0</ele><time>2026-05-01T10:28:22Z</time></trkpt><trkpt lat="45.054282179657925" lon="9.655196744117715"><ele>59.0</ele><time>2026-05-01T10:28:24Z</time></trkpt><trkpt lat="45.05424359341885" lon="9.655399931701433"><ele>58.6</ele><time>2026-05-01T10:28:25Z</time></trkpt><trkpt lat="45.05419974247868" lon="9.6555537164768"><ele>58.2</ele><time>2026-05-01T10:28:26Z</time></trkpt><trkpt lat="45.054165780443725" lon="9.655693240437694"><ele>57.800000000000004</ele><time>2026-05-01T10:28:27Z</time></trkpt><trkpt lat="45.0541695151051" lon="9.655820173252483"><ele>57.400000000000006</ele><time>2026-05-01T10:28:28Z</time></trkpt><trkpt lat="45.05413146905016" lon="9.655942811899134"><ele>57.0</ele><time>2026-05-01T10:28:29Z</time></trkpt><trkpt lat="45.05410483570154" lon="9.656057633687887"><ele>57.0</ele><time>2026-05-01T10:28:30Z</time></trkpt><trkpt lat="45.05407011756544" lon="9.656179859158255"><ele>57.0</ele><time>2026-05-01T10:28:31Z</time></trkpt><trkpt lat="45.05402430194894" lon="9.656266993692793"><ele>57.0</ele><time>2026-05-01T10:28:32Z</time></trkpt><trkpt lat="45.053973306674" lon="9.65634858204016"><ele>57.0</ele><time>2026-05-01T10:28:35Z</time></trkpt><trkpt lat="45.05380868477207" lon="9.656292020260079"><ele>57.0</ele><time>2026-05-01T10:28:37Z</time></trkpt><trkpt lat="45.0536992462676" lon="9.656275418759313"><ele>57.0</ele><time>2026-05-01T10:28:38Z</time></trkpt><trkpt lat="45.05357149392626" lon="9.656255652497538"><ele>57.0</ele><time>2026-05-01T10:28:39Z</time></trkpt><trkpt lat="45.05345022217224" lon="9.656234826896357"><ele>57.0</ele><time>2026-05-01T10:28:40Z</time></trkpt><trkpt lat="45.05332047193824" lon="9.65621254532094"><ele>57.0</ele><time>2026-05-01T10:28:41Z</time></trkpt><trkpt lat="45.05318855263787" lon="9.656189891228747"><ele>57.2</ele><time>2026-05-01T10:28:42Z</time></trkpt><trkpt lat="45.05306975890223" lon="9.656170487046259"><ele>57.400000000000006</ele><time>2026-05-01T10:28:43Z</time></trkpt><trkpt lat="45.052959383907364" lon="9.656152637482144"><ele>57.599999999999994</ele><time>2026-05-01T10:28:44Z</time></trkpt><trkpt lat="45.052869329119936" lon="9.656160974387397"><ele>57.8</ele><time>2026-05-01T10:28:45Z</time></trkpt><trkpt lat="45.0527720147908" lon="9.656135482591447"><ele>58.0</ele><time>2026-05-01T10:28:46Z</time></trkpt><trkpt lat="45.05262979720791" lon="9.656100121894843"><ele>58.0</ele><time>2026-05-01T10:28:47Z</time></trkpt><trkpt lat="45.05246191730086" lon="9.656073426587904"><ele>58.0</ele><time>2026-05-01T10:28:48Z</time></trkpt><trkpt lat="45.05231890549107" lon="9.656050685637009"><ele>58.0</ele><time>2026-05-01T10:28:49Z</time></trkpt><trkpt lat="45.05217216416654" lon="9.656027351642335"><ele>58.0</ele><time>2026-05-01T10:28:50Z</time></trkpt><trkpt lat="45.05203856137661" lon="9.656006106870105"><ele>58.0</ele><time>2026-05-01T10:28:51Z</time></trkpt><trkpt lat="45.05192125251579" lon="9.655987453056614"><ele>58.0</ele><time>2026-05-01T10:28:52Z</time></trkpt><trkpt lat="45.051818832687054" lon="9.655971166823514"><ele>58.0</ele><time>2026-05-01T10:28:53Z</time></trkpt><trkpt lat="45.051749171063626" lon="9.655982496371392"><ele>58.0</ele><time>2026-05-01T10:28:54Z</time></trkpt><trkpt lat="45.05168767804514" lon="9.65618002897323"><ele>58.5</ele><time>2026-05-01T10:28:57Z</time></trkpt><trkpt lat="45.05168242630555" lon="9.65634195490459"><ele>59.0</ele><time>2026-05-01T10:28:58Z</time></trkpt><trkpt lat="45.05167946074703" lon="9.656526414112431"><ele>59.5</ele><time>2026-05-01T10:28:59Z</time></trkpt><trkpt lat="45.05165798528913" lon="9.65671293439225"><ele>60.0</ele><time>2026-05-01T10:29:00Z</time></trkpt><trkpt lat="45.05164421041074" lon="9.656908671647047"><ele>59.5</ele><time>2026-05-01T10:29:01Z</time></trkpt><trkpt lat="45.051616369971555" lon="9.657111080243643"><ele>59.0</ele><time>2026-05-01T10:29:02Z</time></trkpt><trkpt lat="45.05161370495237" lon="9.657215880396452"><ele>58.5</ele><time>2026-05-01T10:29:03Z</time></trkpt><trkpt lat="45.05160342502586" lon="9.657422342662704"><ele>58.0</ele><time>2026-05-01T10:29:05.999Z</time></trkpt><trkpt lat="45.05159043041324" lon="9.657541948967621"><ele>58.0</ele><time>2026-05-01T10:29:06.999Z</time></trkpt><trkpt lat="45.05157569055086" lon="9.657683867869865"><ele>58.0</ele><time>2026-05-01T10:29:07.999Z</time></trkpt><trkpt lat="45.05156216452654" lon="9.657817677906925"><ele>58.0</ele><time>2026-05-01T10:29:08.999Z</time></trkpt><trkpt lat="45.05153791024533" lon="9.657952959420665"><ele>58.0</ele><time>2026-05-01T10:29:09.999Z</time></trkpt><trkpt lat="45.05152534297169" lon="9.658104897553992"><ele>58.0</ele><time>2026-05-01T10:29:10.999Z</time></trkpt><trkpt lat="45.05151271033532" lon="9.658254331397023"><ele>58.0</ele><time>2026-05-01T10:29:11.999Z</time></trkpt><trkpt lat="45.05150140378054" lon="9.658388078758916"><ele>58.0</ele><time>2026-05-01T10:29:12.999Z</time></trkpt><trkpt lat="45.05149013737646" lon="9.658521351261392"><ele>58.0</ele><time>2026-05-01T10:29:13.999Z</time></trkpt><trkpt lat="45.05149893357841" lon="9.658691892736115"><ele>58.0</ele><time>2026-05-01T10:29:14.999Z</time></trkpt><trkpt lat="45.05147612237347" lon="9.658874980962318"><ele>58.0</ele><time>2026-05-01T10:29:15.999Z</time></trkpt><trkpt lat="45.0514507638588" lon="9.659052506207255"><ele>58.2</ele><time>2026-05-01T10:29:16.999Z</time></trkpt><trkpt lat="45.05142836794003" lon="9.659239234961015"><ele>58.4</ele><time>2026-05-01T10:29:17.999Z</time></trkpt><trkpt lat="45.051418068091394" lon="9.65940634478023"><ele>58.60000000000001</ele><time>2026-05-01T10:29:18.999Z</time></trkpt><trkpt lat="45.05140830738043" lon="9.65952858002246"><ele>58.800000000000004</ele><time>2026-05-01T10:29:19.999Z</time></trkpt><trkpt lat="45.0513969321999" lon="9.659659526269794"><ele>59.0</ele><time>2026-05-01T10:29:20.999Z</time></trkpt><trkpt lat="45.05137510207035" lon="9.659794280316543"><ele>59.5</ele><time>2026-05-01T10:29:22.999Z</time></trkpt><trkpt lat="45.05136509145729" lon="9.659911863745645"><ele>60.0</ele><time>2026-05-01T10:29:24.999Z</time></trkpt><trkpt lat="45.0513432595114" lon="9.660002504369384"><ele>60.5</ele><time>2026-05-01T10:29:25.999Z</time></trkpt><trkpt lat="45.05111175445359" lon="9.660057218804026"><ele>61.0</ele><time>2026-05-01T10:29:26.999Z</time></trkpt><trkpt lat="45.05102787806984" lon="9.660120445151595"><ele>61.0</ele><time>2026-05-01T10:29:27.999Z</time></trkpt><trkpt lat="45.05094247273408" lon="9.660158748116586"><ele>60.99999999999999</ele><time>2026-05-01T10:29:28.999Z</time></trkpt><trkpt lat="45.05084621551453" lon="9.660263603868072"><ele>60.99999999999999</ele><time>2026-05-01T10:29:29.999Z</time></trkpt><trkpt lat="45.05075935786956" lon="9.660245805914439"><ele>61.0</ele><time>2026-05-01T10:29:30.999Z</time></trkpt><trkpt lat="45.05068131341904" lon="9.660229518775996"><ele>61.0</ele><time>2026-05-01T10:29:31.999Z</time></trkpt><trkpt lat="45.05064022869607" lon="9.660083898141734"><ele>60.75</ele><time>2026-05-01T10:29:33.999Z</time></trkpt><trkpt lat="45.05051819535174" lon="9.66007840601939"><ele>60.5</ele><time>2026-05-01T10:29:36.999Z</time></trkpt><trkpt lat="45.05041651761696" lon="9.66005218058016"><ele>60.25</ele><time>2026-05-01T10:29:37.999Z</time></trkpt><trkpt lat="45.05029553230933" lon="9.660029649804397"><ele>60.0</ele><time>2026-05-01T10:29:38.999Z</time></trkpt><trkpt lat="45.05016879245012" lon="9.660010658924023"><ele>60.0</ele><time>2026-05-01T10:29:39.999Z</time></trkpt><trkpt lat="45.050052940249074" lon="9.659991458198295"><ele>60.0</ele><time>2026-05-01T10:29:40.999Z</time></trkpt><trkpt lat="45.04994784021133" lon="9.659972622746444"><ele>60.0</ele><time>2026-05-01T10:29:41.999Z</time></trkpt><trkpt lat="45.04983097463594" lon="9.659945177207579"><ele>60.0</ele><time>2026-05-01T10:29:42.999Z</time></trkpt><trkpt lat="45.04971415602325" lon="9.65992108896365"><ele>60.0</ele><time>2026-05-01T10:29:43.999Z</time></trkpt><trkpt lat="45.04959420220005" lon="9.659895980658993"><ele>60.0</ele><time>2026-05-01T10:29:44.999Z</time></trkpt><trkpt lat="45.04947726861894" lon="9.65987800615518"><ele>60.0</ele><time>2026-05-01T10:29:45.999Z</time></trkpt><trkpt lat="45.049350951489494" lon="9.659864151948481"><ele>60.0</ele><time>2026-05-01T10:29:46.999Z</time></trkpt><trkpt lat="45.04922508327056" lon="9.659847560430372"><ele>60.0</ele><time>2026-05-01T10:29:47.999Z</time></trkpt><trkpt lat="45.04909756712878" lon="9.659802006433386"><ele>60.0</ele><time>2026-05-01T10:29:48.999Z</time></trkpt><trkpt lat="45.04896772259557" lon="9.659799981693611"><ele>60.0</ele><time>2026-05-01T10:29:49.999Z</time></trkpt><trkpt lat="45.04883827625373" lon="9.659770808091219"><ele>60.0</ele><time>2026-05-01T10:29:50.999Z</time></trkpt><trkpt lat="45.04871104636185" lon="9.659744175566168"><ele>60.0</ele><time>2026-05-01T10:29:51.999Z</time></trkpt><trkpt lat="45.048587497729635" lon="9.659719938024523"><ele>60.0</ele><time>2026-05-01T10:29:52.999Z</time></trkpt><trkpt lat="45.0484612194466" lon="9.659698991073618"><ele>60.0</ele><time>2026-05-01T10:29:53.999Z</time></trkpt><trkpt lat="45.048339436994176" lon="9.659674362710193"><ele>60.0</ele><time>2026-05-01T10:29:54.999Z</time></trkpt><trkpt lat="45.048215872096286" lon="9.659651956802717"><ele>60.0</ele><time>2026-05-01T10:29:55.999Z</time></trkpt><trkpt lat="45.048085348175796" lon="9.659627406339764"><ele>60.0</ele><time>2026-05-01T10:29:56.999Z</time></trkpt><trkpt lat="45.047949957963816" lon="9.659616237464478"><ele>60.0</ele><time>2026-05-01T10:29:57.999Z</time></trkpt><trkpt lat="45.047811747423324" lon="9.659607102012432"><ele>60.0</ele><time>2026-05-01T10:29:58.999Z</time></trkpt><trkpt lat="45.047679819339194" lon="9.659624419433332"><ele>60.0</ele><time>2026-05-01T10:29:59.999Z</time></trkpt><trkpt lat="45.04756237639353" lon="9.65964265634543"><ele>60.0</ele><time>2026-05-01T10:30:00.999Z</time></trkpt><trkpt lat="45.04744340124166" lon="9.659667856350286"><ele>60.0</ele><time>2026-05-01T10:30:01.999Z</time></trkpt><trkpt lat="45.047327061889625" lon="9.65969803092211"><ele>60.0</ele><time>2026-05-01T10:30:02.999Z</time></trkpt><trkpt lat="45.04721521484092" lon="9.659727005213373"><ele>60.0</ele><time>2026-05-01T10:30:03.999Z</time></trkpt><trkpt lat="45.04712137265146" lon="9.659754546246724"><ele>60.0</ele><time>2026-05-01T10:30:04.999Z</time></trkpt><trkpt lat="45.04704358618111" lon="9.659775185740436"><ele>60.0</ele><time>2026-05-01T10:30:05.999Z</time></trkpt><trkpt lat="45.04697808335561" lon="9.65978188566687"><ele>60.0</ele><time>2026-05-01T10:30:07.999Z</time></trkpt><trkpt lat="45.04693373513468" lon="9.659518981825569"><ele>60.0</ele><time>2026-05-01T10:30:10.999Z</time></trkpt><trkpt lat="45.04688017046725" lon="9.659346272279079"><ele>60.33333333333333</ele><time>2026-05-01T10:30:11.999Z</time></trkpt><trkpt lat="45.04686206818978" lon="9.65912698789974"><ele>60.666666666666664</ele><time>2026-05-01T10:30:12.999Z</time></trkpt><trkpt lat="45.04680376228738" lon="9.658930828562912"><ele>61.0</ele><time>2026-05-01T10:30:13.999Z</time></trkpt><trkpt lat="45.04675670989196" lon="9.658702134208754"><ele>61.0</ele><time>2026-05-01T10:30:14.999Z</time></trkpt><trkpt lat="45.04670512454827" lon="9.658471071854077"><ele>61.0</ele><time>2026-05-01T10:30:15.999Z</time></trkpt><trkpt lat="45.04667453801915" lon="9.658240402516714"><ele>61.0</ele><time>2026-05-01T10:30:16.999Z</time></trkpt><trkpt lat="45.04661619975882" lon="9.658042109520242"><ele>60.75</ele><time>2026-05-01T10:30:17.999Z</time></trkpt><trkpt lat="45.04657064527542" lon="9.657864290920307"><ele>60.5</ele><time>2026-05-01T10:30:18.999Z</time></trkpt><trkpt lat="45.04653221230488" lon="9.657685759930573"><ele>60.25</ele><time>2026-05-01T10:30:19.999Z</time></trkpt><trkpt lat="45.04649036621202" lon="9.657498129178931"><ele>60.0</ele><time>2026-05-01T10:30:20.999Z</time></trkpt><trkpt lat="45.046451687515685" lon="9.657307927701522"><ele>60.0</ele><time>2026-05-01T10:30:21.999Z</time></trkpt><trkpt lat="45.04640840400322" lon="9.657144092703613"><ele>60.0</ele><time>2026-05-01T10:30:22.999Z</time></trkpt><trkpt lat="45.04638247523396" lon="9.657011204726139"><ele>60.0</ele><time>2026-05-01T10:30:23.999Z</time></trkpt><trkpt lat="45.0463600096887" lon="9.6569038938417"><ele>60.0</ele><time>2026-05-01T10:30:28.999Z</time></trkpt><trkpt lat="45.046361621609755" lon="9.65680270015438"><ele>60.0</ele><time>2026-05-01T10:30:29.999Z</time></trkpt><trkpt lat="45.046370382321165" lon="9.656682744550208"><ele>60.5</ele><time>2026-05-01T10:30:30.999Z</time></trkpt><trkpt lat="45.04634126964985" lon="9.656577715108414"><ele>61.0</ele><time>2026-05-01T10:30:31.999Z</time></trkpt><trkpt lat="45.04629472715151" lon="9.656496991902953"><ele>61.5</ele><time>2026-05-01T10:30:32.999Z</time></trkpt><trkpt lat="45.04620218632723" lon="9.656496624258088"><ele>62.0</ele><time>2026-05-01T10:30:33.999Z</time></trkpt><trkpt lat="45.04611734231824" lon="9.656532973202157"><ele>62.5</ele><time>2026-05-01T10:30:34.999Z</time></trkpt><trkpt lat="45.04603540132133" lon="9.656617539222621"><ele>63.0</ele><time>2026-05-01T10:30:35.999Z</time></trkpt><trkpt lat="45.045950496378865" lon="9.656725706552786"><ele>63.0</ele><time>2026-05-01T10:30:36.999Z</time></trkpt><trkpt lat="45.04585085222217" lon="9.656806573634025"><ele>63.0</ele><time>2026-05-01T10:30:37.999Z</time></trkpt><trkpt lat="45.04572721416367" lon="9.656849335775586"><ele>63.0</ele><time>2026-05-01T10:30:38.999Z</time></trkpt><trkpt lat="45.045582974233874" lon="9.656935347868654"><ele>63.0</ele><time>2026-05-01T10:30:39.999Z</time></trkpt><trkpt lat="45.04543493083025" lon="9.656996749926138"><ele>62.25</ele><time>2026-05-01T10:30:40.999Z</time></trkpt><trkpt lat="45.04530173448952" lon="9.657068091748302"><ele>61.5</ele><time>2026-05-01T10:30:41.999Z</time></trkpt><trkpt lat="45.04519204511896" lon="9.657145574313924"><ele>60.75</ele><time>2026-05-01T10:30:42.999Z</time></trkpt><trkpt lat="45.04507778636189" lon="9.657234175777313"><ele>60.0</ele><time>2026-05-01T10:30:43.999Z</time></trkpt><trkpt lat="45.04496491986268" lon="9.65734262269242"><ele>61.0</ele><time>2026-05-01T10:30:44.999Z</time></trkpt><trkpt lat="45.04485743501307" lon="9.657464166074623"><ele>62.0</ele><time>2026-05-01T10:30:45.999Z</time></trkpt><trkpt lat="45.04475027206201" lon="9.657596213187793"><ele>63.0</ele><time>2026-05-01T10:30:46.999Z</time></trkpt><trkpt lat="45.04462442363206" lon="9.657762974756302"><ele>64.0</ele><time>2026-05-01T10:30:47.999Z</time></trkpt><trkpt lat="45.0444752031745" lon="9.65800233247496"><ele>65.0</ele><time>2026-05-01T10:30:48.999Z</time></trkpt><trkpt lat="45.04433291290993" lon="9.658289583212744"><ele>63.5</ele><time>2026-05-01T10:30:49.999Z</time></trkpt><trkpt lat="45.04420448617414" lon="9.658625614026445"><ele>62.0</ele><time>2026-05-01T10:30:50.999Z</time></trkpt><trkpt lat="45.04409788789468" lon="9.658968596407384"><ele>61.66666666666667</ele><time>2026-05-01T10:30:51.999Z</time></trkpt><trkpt lat="45.0440226843568" lon="9.659266315301865"><ele>61.33333333333333</ele><time>2026-05-01T10:30:52.999Z</time></trkpt><trkpt lat="45.0439722480365" lon="9.65951510127379"><ele>61.0</ele><time>2026-05-01T10:30:53.999Z</time></trkpt><trkpt lat="45.04394345931488" lon="9.659705559821864"><ele>60.8</ele><time>2026-05-01T10:30:54.999Z</time></trkpt><trkpt lat="45.043938030866265" lon="9.659877630215414"><ele>60.599999999999994</ele><time>2026-05-01T10:30:55.999Z</time></trkpt><trkpt lat="45.043943619022876" lon="9.660046678310659"><ele>60.4</ele><time>2026-05-01T10:30:56.999Z</time></trkpt><trkpt lat="45.04394664032232" lon="9.660197062846429"><ele>60.2</ele><time>2026-05-01T10:30:57.999Z</time></trkpt><trkpt lat="45.043947475330896" lon="9.660304989832753"><ele>60.0</ele><time>2026-05-01T10:30:58.999Z</time></trkpt><trkpt lat="45.0439200049873" lon="9.660387183378342"><ele>60.4</ele><time>2026-05-01T10:31:00.999Z</time></trkpt><trkpt lat="45.043840322136376" lon="9.66052347275314"><ele>60.8</ele><time>2026-05-01T10:31:06.999Z</time></trkpt><trkpt lat="45.043774635120705" lon="9.660633544814463"><ele>61.2</ele><time>2026-05-01T10:31:07.999Z</time></trkpt><trkpt lat="45.04372416841276" lon="9.660762506388295"><ele>61.6</ele><time>2026-05-01T10:31:08.999Z</time></trkpt><trkpt lat="45.043716765897415" lon="9.660901562816006"><ele>62.0</ele><time>2026-05-01T10:31:09.999Z</time></trkpt><trkpt lat="45.0437359470037" lon="9.661030762423177"><ele>62.0</ele><time>2026-05-01T10:31:10.999Z</time></trkpt><trkpt lat="45.043791988549046" lon="9.661142729917561"><ele>62.0</ele><time>2026-05-01T10:31:11.999Z</time></trkpt><trkpt lat="45.04387472911788" lon="9.661226491298732"><ele>62.0</ele><time>2026-05-01T10:31:12.999Z</time></trkpt><trkpt lat="45.04397223073505" lon="9.661264499951846"><ele>62.0</ele><time>2026-05-01T10:31:13.999Z</time></trkpt><trkpt lat="45.044069158195114" lon="9.661254553672396"><ele>62.0</ele><time>2026-05-01T10:31:14.999Z</time></trkpt><trkpt lat="45.044156514704625" lon="9.661199269548714"><ele>62.0</ele><time>2026-05-01T10:31:15.999Z</time></trkpt><trkpt lat="45.044231125393374" lon="9.661138016026817"><ele>62.0</ele><time>2026-05-01T10:31:16.999Z</time></trkpt><trkpt lat="45.044259497467856" lon="9.660999499871073"><ele>62.0</ele><time>2026-05-01T10:31:17.999Z</time></trkpt><trkpt lat="45.04427653918274" lon="9.660868745577861"><ele>62.0</ele><time>2026-05-01T10:31:18.999Z</time></trkpt><trkpt lat="45.044255053563305" lon="9.660719287590691"><ele>62.0</ele><time>2026-05-01T10:31:19.999Z</time></trkpt><trkpt lat="45.04420359251169" lon="9.660577889620054"><ele>62.0</ele><time>2026-05-01T10:31:20.999Z</time></trkpt><trkpt lat="45.04411072038124" lon="9.660463255459888"><ele>62.0</ele><time>2026-05-01T10:31:21.999Z</time></trkpt><trkpt lat="45.04403347059218" lon="9.660261892018356"><ele>62.0</ele><time>2026-05-01T10:31:22.999Z</time></trkpt><trkpt lat="45.043969003068625" lon="9.660077181600624"><ele>62.0</ele><time>2026-05-01T10:31:23.999Z</time></trkpt><trkpt lat="45.04399123455957" lon="9.659888971915176"><ele>61.66666666666667</ele><time>2026-05-01T10:31:24.999Z</time></trkpt><trkpt lat="45.044010428340904" lon="9.659676768067495"><ele>61.33333333333333</ele><time>2026-05-01T10:31:25.999Z</time></trkpt><trkpt lat="45.04403289139642" lon="9.659409537971737"><ele>61.0</ele><time>2026-05-01T10:31:26.999Z</time></trkpt><trkpt lat="45.04408589096924" lon="9.659145308536958"><ele>61.33333333333333</ele><time>2026-05-01T10:31:27.999Z</time></trkpt><trkpt lat="45.0441602409892" lon="9.658872238485905"><ele>61.66666666666667</ele><time>2026-05-01T10:31:28.999Z</time></trkpt><trkpt lat="45.04425344586926" lon="9.658583925090502"><ele>62.0</ele><time>2026-05-01T10:31:29.998Z</time></trkpt><trkpt lat="45.04436815382173" lon="9.658306567145509"><ele>62.333333333333336</ele><time>2026-05-01T10:31:30.998Z</time></trkpt><trkpt lat="45.04447903231238" lon="9.658073434562946"><ele>62.66666666666667</ele><time>2026-05-01T10:31:31.998Z</time></trkpt><trkpt lat="45.04460156747811" lon="9.657909404028517"><ele>63.0</ele><time>2026-05-01T10:31:32.998Z</time></trkpt><trkpt lat="45.04469842943762" lon="9.657763000824046"><ele>63.0</ele><time>2026-05-01T10:31:33.998Z</time></trkpt><trkpt lat="45.044791232895804" lon="9.657637151693786"><ele>63.0</ele><time>2026-05-01T10:31:34.998Z</time></trkpt><trkpt lat="45.04486954339359" lon="9.65749757115158"><ele>63.0</ele><time>2026-05-01T10:31:35.998Z</time></trkpt><trkpt lat="45.04498031198076" lon="9.657399819759517"><ele>63.0</ele><time>2026-05-01T10:31:36.998Z</time></trkpt><trkpt lat="45.04510670006093" lon="9.657290651536577"><ele>62.25</ele><time>2026-05-01T10:31:37.998Z</time></trkpt><trkpt lat="45.04522053565959" lon="9.65718696781984"><ele>61.5</ele><time>2026-05-01T10:31:38.998Z</time></trkpt><trkpt lat="45.04532408112024" lon="9.657105577949523"><ele>60.75</ele><time>2026-05-01T10:31:39.998Z</time></trkpt><trkpt lat="45.04543532631392" lon="9.657030647118066"><ele>60.0</ele><time>2026-05-01T10:31:40.998Z</time></trkpt><trkpt lat="45.04555885102171" lon="9.656960746033231"><ele>60.4</ele><time>2026-05-01T10:31:41.998Z</time></trkpt><trkpt lat="45.0456758766331" lon="9.656902905115857"><ele>60.8</ele><time>2026-05-01T10:31:42.998Z</time></trkpt><trkpt lat="45.04578521456303" lon="9.656856955822786"><ele>61.2</ele><time>2026-05-01T10:31:43.998Z</time></trkpt><trkpt lat="45.045875867633924" lon="9.656827781621939"><ele>61.6</ele><time>2026-05-01T10:31:44.998Z</time></trkpt><trkpt lat="45.04594947843735" lon="9.65682000781014"><ele>62.0</ele><time>2026-05-01T10:31:45.998Z</time></trkpt><trkpt lat="45.04602184080226" lon="9.656837470887726"><ele>62.16666666666667</ele><time>2026-05-01T10:31:46.998Z</time></trkpt><trkpt lat="45.046102866234" lon="9.656888229994173"><ele>62.333333333333336</ele><time>2026-05-01T10:31:47.998Z</time></trkpt><trkpt lat="45.04617033401628" lon="9.656948959484097"><ele>62.5</ele><time>2026-05-01T10:31:48.998Z</time></trkpt><trkpt lat="45.04623214568879" lon="9.656976199067005"><ele>62.66666666666667</ele><time>2026-05-01T10:31:49.998Z</time></trkpt><trkpt lat="45.04634813058166" lon="9.65691256430643"><ele>62.833333333333336</ele><time>2026-05-01T10:31:51.998Z</time></trkpt><trkpt lat="45.04640528769487" lon="9.656873240191267"><ele>63.0</ele><time>2026-05-01T10:31:52.998Z</time></trkpt><trkpt lat="45.04639631254728" lon="9.656733430881344"><ele>63.0</ele><time>2026-05-01T10:31:53.998Z</time></trkpt><trkpt lat="45.04639407669492" lon="9.656624747767665"><ele>63.0</ele><time>2026-05-01T10:31:54.998Z</time></trkpt><trkpt lat="45.04632180058263" lon="9.656532080904396"><ele>63.0</ele><time>2026-05-01T10:31:55.998Z</time></trkpt><trkpt lat="45.046262538997254" lon="9.656443422226694"><ele>63.0</ele><time>2026-05-01T10:31:56.998Z</time></trkpt><trkpt lat="45.04612815422716" lon="9.656440074477192"><ele>63.0</ele><time>2026-05-01T10:31:57.998Z</time></trkpt><trkpt lat="45.046019684280694" lon="9.65655097295578"><ele>63.0</ele><time>2026-05-01T10:31:58.998Z</time></trkpt><trkpt lat="45.04587222288064" lon="9.656484706960144"><ele>63.0</ele><time>2026-05-01T10:31:59.998Z</time></trkpt><trkpt lat="45.04572606917205" lon="9.65652145711908"><ele>63.0</ele><time>2026-05-01T10:32:00.998Z</time></trkpt><trkpt lat="45.04558109063442" lon="9.656525717908002"><ele>63.0</ele><time>2026-05-01T10:32:01.998Z</time></trkpt><trkpt lat="45.04542845563307" lon="9.656551681251202"><ele>62.66666666666667</ele><time>2026-05-01T10:32:02.998Z</time></trkpt><trkpt lat="45.04523638266943" lon="9.656587250308332"><ele>62.333333333333336</ele><time>2026-05-01T10:32:03.998Z</time></trkpt><trkpt lat="45.04504677892078" lon="9.656628152276209"><ele>62.0</ele><time>2026-05-01T10:32:04.997Z</time></trkpt><trkpt lat="45.04486168532942" lon="9.656672467143203"><ele>62.0</ele><time>2026-05-01T10:32:05.997Z</time></trkpt><trkpt lat="45.04467583617229" lon="9.65671462810767"><ele>62.0</ele><time>2026-05-01T10:32:06.997Z</time></trkpt><trkpt lat="45.044496586513716" lon="9.65676854403023"><ele>62.0</ele><time>2026-05-01T10:32:07.997Z</time></trkpt><trkpt lat="45.0443129458097" lon="9.656822329087811"><ele>62.0</ele><time>2026-05-01T10:32:08.997Z</time></trkpt><trkpt lat="45.0441306945244" lon="9.656893668555114"><ele>62.0</ele><time>2026-05-01T10:32:09.997Z</time></trkpt><trkpt lat="45.04394982622526" lon="9.656946365388908"><ele>62.0</ele><time>2026-05-01T10:32:10.997Z</time></trkpt><trkpt lat="45.04376017224986" lon="9.656976156694775"><ele>61.66666666666667</ele><time>2026-05-01T10:32:11.998Z</time></trkpt><trkpt lat="45.04357560518896" lon="9.657027666165051"><ele>61.33333333333333</ele><time>2026-05-01T10:32:12.998Z</time></trkpt><trkpt lat="45.04339622896108" lon="9.657100929270905"><ele>61.0</ele><time>2026-05-01T10:32:13.998Z</time></trkpt><trkpt lat="45.043206773195095" lon="9.65712971016726"><ele>61.0</ele><time>2026-05-01T10:32:14.998Z</time></trkpt><trkpt lat="45.04303528621724" lon="9.65717417451401"><ele>61.0</ele><time>2026-05-01T10:32:15.998Z</time></trkpt><trkpt lat="45.042884558413725" lon="9.657214893661425"><ele>61.0</ele><time>2026-05-01T10:32:16.998Z</time></trkpt><trkpt lat="45.042761583529334" lon="9.6572710452016"><ele>61.0</ele><time>2026-05-01T10:32:17.998Z</time></trkpt><trkpt lat="45.042670302210816" lon="9.65728876393172"><ele>60.99999999999999</ele><time>2026-05-01T10:32:18.998Z</time></trkpt><trkpt lat="45.042569944125546" lon="9.657315493252549"><ele>60.99999999999999</ele><time>2026-05-01T10:32:20.998Z</time></trkpt><trkpt lat="45.04254379266115" lon="9.657182934123222"><ele>61.0</ele><time>2026-05-01T10:32:22.998Z</time></trkpt><trkpt lat="45.04250754747039" lon="9.657065886814603"><ele>61.0</ele><time>2026-05-01T10:32:23.998Z</time></trkpt><trkpt lat="45.042444613971625" lon="9.656928056791592"><ele>61.75</ele><time>2026-05-01T10:32:24.998Z</time></trkpt><trkpt lat="45.04239309090724" lon="9.65675403693137"><ele>62.5</ele><time>2026-05-01T10:32:25.998Z</time></trkpt><trkpt lat="45.04232645096469" lon="9.656555521680962"><ele>63.25</ele><time>2026-05-01T10:32:26.998Z</time></trkpt><trkpt lat="45.0422570625321" lon="9.656350598428919"><ele>64.0</ele><time>2026-05-01T10:32:27.998Z</time></trkpt><trkpt lat="45.042177064802786" lon="9.65614067973869"><ele>63.666666666666664</ele><time>2026-05-01T10:32:28.998Z</time></trkpt><trkpt lat="45.042096969947885" lon="9.655918375631742"><ele>63.33333333333333</ele><time>2026-05-01T10:32:29.998Z</time></trkpt><trkpt lat="45.04202193834808" lon="9.65570002120528"><ele>63.0</ele><time>2026-05-01T10:32:30.998Z</time></trkpt><trkpt lat="45.041947289402216" lon="9.65548522808231"><ele>63.33333333333333</ele><time>2026-05-01T10:32:31.998Z</time></trkpt><trkpt lat="45.04186890261142" lon="9.65525545081838"><ele>63.666666666666664</ele><time>2026-05-01T10:32:32.998Z</time></trkpt><trkpt lat="45.041793005983834" lon="9.655024047346314"><ele>64.0</ele><time>2026-05-01T10:32:33.998Z</time></trkpt><trkpt lat="45.04171186558075" lon="9.65479947448387"><ele>62.666666666666664</ele><time>2026-05-01T10:32:34.998Z</time></trkpt><trkpt lat="45.04162744464949" lon="9.654572152906068"><ele>61.33333333333333</ele><time>2026-05-01T10:32:35.998Z</time></trkpt><trkpt lat="45.04155168554662" lon="9.654347506068717"><ele>60.0</ele><time>2026-05-01T10:32:36.998Z</time></trkpt><trkpt lat="45.04147738939451" lon="9.65413556344874"><ele>60.0</ele><time>2026-05-01T10:32:37.998Z</time></trkpt><trkpt lat="45.04139776800184" lon="9.653924780618635"><ele>60.0</ele><time>2026-05-01T10:32:38.998Z</time></trkpt><trkpt lat="45.04132034974392" lon="9.653715999953015"><ele>60.0</ele><time>2026-05-01T10:32:39.998Z</time></trkpt><trkpt lat="45.04124258737461" lon="9.653508870363531"><ele>60.0</ele><time>2026-05-01T10:32:40.998Z</time></trkpt><trkpt lat="45.04116776031566" lon="9.653303897836471"><ele>60.0</ele><time>2026-05-01T10:32:41.998Z</time></trkpt><trkpt lat="45.04109156609643" lon="9.653110048468179"><ele>60.0</ele><time>2026-05-01T10:32:42.998Z</time></trkpt><trkpt lat="45.04101890887199" lon="9.652918397934377"><ele>60.0</ele><time>2026-05-01T10:32:43.998Z</time></trkpt><trkpt lat="45.04096120527763" lon="9.652711974673991"><ele>60.0</ele><time>2026-05-01T10:32:44.998Z</time></trkpt><trkpt lat="45.04087361414939" lon="9.652517481347333"><ele>60.0</ele><time>2026-05-01T10:32:45.998Z</time></trkpt><trkpt lat="45.04080527771691" lon="9.652314619828317"><ele>60.0</ele><time>2026-05-01T10:32:46.998Z</time></trkpt><trkpt lat="45.04073300150413" lon="9.652111808613066"><ele>60.0</ele><time>2026-05-01T10:32:47.998Z</time></trkpt><trkpt lat="45.04065933087273" lon="9.65190593154818"><ele>60.0</ele><time>2026-05-01T10:32:48.998Z</time></trkpt><trkpt lat="45.04058658754766" lon="9.651707630894293"><ele>60.0</ele><time>2026-05-01T10:32:49.998Z</time></trkpt><trkpt lat="45.04050986447703" lon="9.65150517969878"><ele>60.0</ele><time>2026-05-01T10:32:50.998Z</time></trkpt><trkpt lat="45.040426087735824" lon="9.651279196774382"><ele>60.0</ele><time>2026-05-01T10:32:51.998Z</time></trkpt><trkpt lat="45.04033747836276" lon="9.651035971782294"><ele>60.33333333333333</ele><time>2026-05-01T10:32:52.998Z</time></trkpt><trkpt lat="45.04025454580386" lon="9.650759692887126"><ele>60.666666666666664</ele><time>2026-05-01T10:32:53.998Z</time></trkpt><trkpt lat="45.040143189834495" lon="9.650498553572637"><ele>61.0</ele><time>2026-05-01T10:32:54.998Z</time></trkpt><trkpt lat="45.04005151752489" lon="9.650235774865243"><ele>61.0</ele><time>2026-05-01T10:32:55.998Z</time></trkpt><trkpt lat="45.03995604519513" lon="9.649964455829044"><ele>61.0</ele><time>2026-05-01T10:32:56.998Z</time></trkpt><trkpt lat="45.03985880094252" lon="9.649693751426675"><ele>61.0</ele><time>2026-05-01T10:32:57.998Z</time></trkpt><trkpt lat="45.039765232405784" lon="9.649412863092662"><ele>61.0</ele><time>2026-05-01T10:32:58.998Z</time></trkpt><trkpt lat="45.039657981281565" lon="9.649113786072586"><ele>61.0</ele><time>2026-05-01T10:32:59.998Z</time></trkpt><trkpt lat="45.03954050553738" lon="9.648775946532346"><ele>61.0</ele><time>2026-05-01T10:33:00.998Z</time></trkpt><trkpt lat="45.03943493002234" lon="9.648464866440733"><ele>61.0</ele><time>2026-05-01T10:33:01.998Z</time></trkpt><trkpt lat="45.03933375480611" lon="9.648164868823674"><ele>61.0</ele><time>2026-05-01T10:33:02.998Z</time></trkpt><trkpt lat="45.039226511467874" lon="9.647873495188323"><ele>61.0</ele><time>2026-05-01T10:33:03.998Z</time></trkpt><trkpt lat="45.03911744555076" lon="9.647578317332258"><ele>63.5</ele><time>2026-05-01T10:33:04.998Z</time></trkpt><trkpt lat="45.039024314597626" lon="9.647270744545033"><ele>66.0</ele><time>2026-05-01T10:33:05.998Z</time></trkpt><trkpt lat="45.03891501554404" lon="9.646973438403334"><ele>65.0</ele><time>2026-05-01T10:33:06.998Z</time></trkpt><trkpt lat="45.03879350578904" lon="9.646686711640646"><ele>64.0</ele><time>2026-05-01T10:33:07.998Z</time></trkpt><trkpt lat="45.038688068142406" lon="9.646387308400623"><ele>64.33333333333333</ele><time>2026-05-01T10:33:08.998Z</time></trkpt><trkpt lat="45.0385901023556" lon="9.646098771693095"><ele>64.66666666666667</ele><time>2026-05-01T10:33:09.998Z</time></trkpt><trkpt lat="45.03849674839579" lon="9.645819754719051"><ele>65.0</ele><time>2026-05-01T10:33:10.998Z</time></trkpt><trkpt lat="45.03840731666786" lon="9.645544242628693"><ele>65.0</ele><time>2026-05-01T10:33:11.998Z</time></trkpt><trkpt lat="45.03831255264147" lon="9.645268192153585"><ele>65.0</ele><time>2026-05-01T10:33:12.998Z</time></trkpt><trkpt lat="45.038216547728965" lon="9.644990744814109"><ele>65.0</ele><time>2026-05-01T10:33:13.998Z</time></trkpt><trkpt lat="45.038127584270086" lon="9.644744685650775"><ele>65.0</ele><time>2026-05-01T10:33:14.998Z</time></trkpt><trkpt lat="45.03804179888703" lon="9.644506864674796"><ele>65.0</ele><time>2026-05-01T10:33:15.998Z</time></trkpt><trkpt lat="45.03795448006776" lon="9.644251186773271"><ele>65.0</ele><time>2026-05-01T10:33:16.998Z</time></trkpt><trkpt lat="45.0378678118362" lon="9.643991804957196"><ele>65.0</ele><time>2026-05-01T10:33:17.998Z</time></trkpt><trkpt lat="45.03777620494945" lon="9.643731319384953"><ele>65.0</ele><time>2026-05-01T10:33:18.998Z</time></trkpt><trkpt lat="45.037677259679" lon="9.643463668514196"><ele>65.0</ele><time>2026-05-01T10:33:19.998Z</time></trkpt><trkpt lat="45.03758404519295" lon="9.643193796222375"><ele>65.33333333333334</ele><time>2026-05-01T10:33:20.998Z</time></trkpt><trkpt lat="45.03749071320456" lon="9.642924311029304"><ele>65.66666666666667</ele><time>2026-05-01T10:33:21.998Z</time></trkpt><trkpt lat="45.03739153644093" lon="9.642649010390713"><ele>66.0</ele><time>2026-05-01T10:33:22.998Z</time></trkpt><trkpt lat="45.03729132421177" lon="9.642373074760592"><ele>66.0</ele><time>2026-05-01T10:33:23.998Z</time></trkpt><trkpt lat="45.037211641074265" lon="9.64210419608935"><ele>66.0</ele><time>2026-05-01T10:33:24.998Z</time></trkpt><trkpt lat="45.03711149412432" lon="9.641866092071007"><ele>66.0</ele><time>2026-05-01T10:33:25.998Z</time></trkpt><trkpt lat="45.03702404734505" lon="9.641620973113225"><ele>66.66666666666667</ele><time>2026-05-01T10:33:26.998Z</time></trkpt><trkpt lat="45.03693698873694" lon="9.641376932265045"><ele>67.33333333333334</ele><time>2026-05-01T10:33:27.998Z</time></trkpt><trkpt lat="45.03684877549526" lon="9.64113493605071"><ele>68.0</ele><time>2026-05-01T10:33:28.998Z</time></trkpt><trkpt lat="45.0367641362813" lon="9.640893541008465"><ele>68.33333333333334</ele><time>2026-05-01T10:33:29.998Z</time></trkpt><trkpt lat="45.036681048635096" lon="9.640661600761957"><ele>68.66666666666667</ele><time>2026-05-01T10:33:30.998Z</time></trkpt><trkpt lat="45.03660782457217" lon="9.640451728293485"><ele>69.0</ele><time>2026-05-01T10:33:31.998Z</time></trkpt><trkpt lat="45.03654422956587" lon="9.64025753121521"><ele>67.66666666666667</ele><time>2026-05-01T10:33:32.998Z</time></trkpt><trkpt lat="45.03648082968428" lon="9.640072342013102"><ele>66.33333333333334</ele><time>2026-05-01T10:33:33.998Z</time></trkpt><trkpt lat="45.03640832639756" lon="9.639877210774582"><ele>65.0</ele><time>2026-05-01T10:33:34.998Z</time></trkpt><trkpt lat="45.036327285378526" lon="9.639661030510382"><ele>65.33333333333334</ele><time>2026-05-01T10:33:35.998Z</time></trkpt><trkpt lat="45.036248312077106" lon="9.639433040235538"><ele>65.66666666666667</ele><time>2026-05-01T10:33:36.998Z</time></trkpt><trkpt lat="45.036167057168925" lon="9.639189942780797"><ele>66.0</ele><time>2026-05-01T10:33:37.998Z</time></trkpt><trkpt lat="45.03608247839346" lon="9.638942539115774"><ele>66.0</ele><time>2026-05-01T10:33:38.998Z</time></trkpt><trkpt lat="45.035991072660025" lon="9.63868924024806"><ele>66.0</ele><time>2026-05-01T10:33:39.998Z</time></trkpt><trkpt lat="45.03590064188584" lon="9.638427188527146"><ele>66.0</ele><time>2026-05-01T10:33:40.998Z</time></trkpt><trkpt lat="45.03570879741491" lon="9.637896591299713"><ele>66.33333333333333</ele><time>2026-05-01T10:33:42.998Z</time></trkpt><trkpt lat="45.03562476137647" lon="9.637666531753558"><ele>66.66666666666666</ele><time>2026-05-01T10:33:43.998Z</time></trkpt><trkpt lat="45.03553722324257" lon="9.63744729177547"><ele>67.0</ele><time>2026-05-01T10:33:44.998Z</time></trkpt><trkpt lat="45.035456719532945" lon="9.637225886405561"><ele>67.0</ele><time>2026-05-01T10:33:45.998Z</time></trkpt><trkpt lat="45.03537560017031" lon="9.63700084118894"><ele>67.0</ele><time>2026-05-01T10:33:46.998Z</time></trkpt><trkpt lat="45.035290769591455" lon="9.636763803858544"><ele>67.0</ele><time>2026-05-01T10:33:47.998Z</time></trkpt><trkpt lat="45.035208633531354" lon="9.636525010515745"><ele>67.0</ele><time>2026-05-01T10:33:48.998Z</time></trkpt><trkpt lat="45.03512699388095" lon="9.636314767967537"><ele>67.0</ele><time>2026-05-01T10:33:49.998Z</time></trkpt><trkpt lat="45.03504599073659" lon="9.636112093696145"><ele>67.0</ele><time>2026-05-01T10:33:50.998Z</time></trkpt><trkpt lat="45.034983775492876" lon="9.635902361929302"><ele>66.66666666666666</ele><time>2026-05-01T10:33:51.998Z</time></trkpt><trkpt lat="45.034910001329806" lon="9.635699736363273"><ele>66.33333333333333</ele><time>2026-05-01T10:33:52.998Z</time></trkpt><trkpt lat="45.03482119199669" lon="9.63549461789702"><ele>66.0</ele><time>2026-05-01T10:33:53.998Z</time></trkpt><trkpt lat="45.034754401094716" lon="9.63530440154531"><ele>66.2</ele><time>2026-05-01T10:33:54.998Z</time></trkpt><trkpt lat="45.03469439977043" lon="9.635133361673118"><ele>66.39999999999999</ele><time>2026-05-01T10:33:55.998Z</time></trkpt><trkpt lat="45.03464475025732" lon="9.634990779763525"><ele>66.6</ele><time>2026-05-01T10:33:56.998Z</time></trkpt><trkpt lat="45.03460262797944" lon="9.63486508412205"><ele>66.8</ele><time>2026-05-01T10:33:57.998Z</time></trkpt><trkpt lat="45.034559741832304" lon="9.634749307260945"><ele>67.0</ele><time>2026-05-01T10:33:59.998Z</time></trkpt><trkpt lat="45.034633971318804" lon="9.63466400046884"><ele>67.0</ele><time>2026-05-01T10:34:01.998Z</time></trkpt><trkpt lat="45.03470864184194" lon="9.634652870255673"><ele>67.0</ele><time>2026-05-01T10:34:02.998Z</time></trkpt><trkpt lat="45.03483502055773" lon="9.634669892850493"><ele>67.0</ele><time>2026-05-01T10:34:03.998Z</time></trkpt><trkpt lat="45.03501766462961" lon="9.634655939006167"><ele>67.0</ele><time>2026-05-01T10:34:04.998Z</time></trkpt><trkpt lat="45.035252225815924" lon="9.634628116648871"><ele>65.5</ele><time>2026-05-01T10:34:05.998Z</time></trkpt><trkpt lat="45.03550546357659" lon="9.634595177255157"><ele>64.0</ele><time>2026-05-01T10:34:06.998Z</time></trkpt><trkpt lat="45.03576887277108" lon="9.634562938215817"><ele>65.0</ele><time>2026-05-01T10:34:07.998Z</time></trkpt><trkpt lat="45.036033503379215" lon="9.634523894092153"><ele>66.0</ele><time>2026-05-01T10:34:08.998Z</time></trkpt><trkpt lat="45.036318087593564" lon="9.634492635581475"><ele>65.5</ele><time>2026-05-01T10:34:09.998Z</time></trkpt><trkpt lat="45.03660222974518" lon="9.634458975932246"><ele>65.0</ele><time>2026-05-01T10:34:10.998Z</time></trkpt><trkpt lat="45.036858060253934" lon="9.63442890919626"><ele>64.33333333333334</ele><time>2026-05-01T10:34:11.998Z</time></trkpt><trkpt lat="45.03708370157517" lon="9.634402877210933"><ele>63.66666666666667</ele><time>2026-05-01T10:34:12.998Z</time></trkpt><trkpt lat="45.03725255810966" lon="9.63437813847916"><ele>63.0</ele><time>2026-05-01T10:34:13.998Z</time></trkpt><trkpt lat="45.03739819866591" lon="9.63435477387434"><ele>62.8</ele><time>2026-05-01T10:34:14.998Z</time></trkpt><trkpt lat="45.03751757494035" lon="9.63434072876506"><ele>62.599999999999994</ele><time>2026-05-01T10:34:15.998Z</time></trkpt><trkpt lat="45.037610041502205" lon="9.63433567095252"><ele>62.400000000000006</ele><time>2026-05-01T10:34:16.998Z</time></trkpt><trkpt lat="45.037705963395574" lon="9.634303796588826"><ele>62.2</ele><time>2026-05-01T10:34:18.998Z</time></trkpt><trkpt lat="45.03773013160872" lon="9.634148504587957"><ele>62.0</ele><time>2026-05-01T10:34:20.998Z</time></trkpt><trkpt lat="45.03772604981007" lon="9.63404488681567"><ele>62.00000000000001</ele><time>2026-05-01T10:34:21.998Z</time></trkpt><trkpt lat="45.03770681155473" lon="9.63393096553858"><ele>62.0</ele><time>2026-05-01T10:34:22.998Z</time></trkpt><trkpt lat="45.037694289855104" lon="9.633814327049693"><ele>62.0</ele><time>2026-05-01T10:34:23.998Z</time></trkpt><trkpt lat="45.03769392961881" lon="9.63369182197704"><ele>62.0</ele><time>2026-05-01T10:34:24.998Z</time></trkpt><trkpt lat="45.03769447583343" lon="9.633600118469131"><ele>62.00000000000001</ele><time>2026-05-01T10:34:25.998Z</time></trkpt><trkpt lat="45.037690639244886" lon="9.633435425398416"><ele>62.0</ele><time>2026-05-01T10:34:27.998Z</time></trkpt><trkpt lat="45.03769288693159" lon="9.633276754304404"><ele>62.5</ele><time>2026-05-01T10:34:28.998Z</time></trkpt><trkpt lat="45.03768186394337" lon="9.633109069457138"><ele>63.0</ele><time>2026-05-01T10:34:29.998Z</time></trkpt><trkpt lat="45.03767043774828" lon="9.632919424476466"><ele>63.5</ele><time>2026-05-01T10:34:30.998Z</time></trkpt><trkpt lat="45.03766143781235" lon="9.632721057216262"><ele>64.0</ele><time>2026-05-01T10:34:31.998Z</time></trkpt><trkpt lat="45.037650668708025" lon="9.632516234396272"><ele>64.5</ele><time>2026-05-01T10:34:32.998Z</time></trkpt><trkpt lat="45.037647828478825" lon="9.632331160495461"><ele>65.0</ele><time>2026-05-01T10:34:33.998Z</time></trkpt><trkpt lat="45.0376404328727" lon="9.632158842392775"><ele>65.5</ele><time>2026-05-01T10:34:34.998Z</time></trkpt><trkpt lat="45.037633229123095" lon="9.631991224454648"><ele>66.0</ele><time>2026-05-01T10:34:35.998Z</time></trkpt><trkpt lat="45.03761571855985" lon="9.63182814326618"><ele>66.5</ele><time>2026-05-01T10:34:36.998Z</time></trkpt><trkpt lat="45.03761009838412" lon="9.631669614431306"><ele>67.0</ele><time>2026-05-01T10:34:37.998Z</time></trkpt><trkpt lat="45.03760526461486" lon="9.63151252102395"><ele>67.5</ele><time>2026-05-01T10:34:38.998Z</time></trkpt><trkpt lat="45.03760808338558" lon="9.631350419810401"><ele>68.0</ele><time>2026-05-01T10:34:39.998Z</time></trkpt><trkpt lat="45.03760369041703" lon="9.631187396338754"><ele>67.6</ele><time>2026-05-01T10:34:40.998Z</time></trkpt><trkpt lat="45.03759985304962" lon="9.631025926012722"><ele>67.19999999999999</ele><time>2026-05-01T10:34:41.998Z</time></trkpt><trkpt lat="45.03759612674278" lon="9.630867036061932"><ele>66.8</ele><time>2026-05-01T10:34:42.998Z</time></trkpt><trkpt lat="45.03759635837781" lon="9.630712571763535"><ele>66.39999999999999</ele><time>2026-05-01T10:34:43.998Z</time></trkpt><trkpt lat="45.03759745873631" lon="9.63056040117633"><ele>66.0</ele><time>2026-05-01T10:34:44.998Z</time></trkpt><trkpt lat="45.037600251022376" lon="9.63040479839873"><ele>65.8</ele><time>2026-05-01T10:34:45.999Z</time></trkpt><trkpt lat="45.03759520763865" lon="9.630266271320352"><ele>65.6</ele><time>2026-05-01T10:34:46.999Z</time></trkpt><trkpt lat="45.03759148180258" lon="9.630119210491648"><ele>65.4</ele><time>2026-05-01T10:34:47.999Z</time></trkpt><trkpt lat="45.03760082890973" lon="9.629969444083418"><ele>65.2</ele><time>2026-05-01T10:34:48.999Z</time></trkpt><trkpt lat="45.037597136163484" lon="9.629831024354049"><ele>65.0</ele><time>2026-05-01T10:34:49.999Z</time></trkpt><trkpt lat="45.03757816607375" lon="9.62969084700585"><ele>65.0</ele><time>2026-05-01T10:34:50.999Z</time></trkpt><trkpt lat="45.03758086981447" lon="9.629544193501182"><ele>65.0</ele><time>2026-05-01T10:34:51.999Z</time></trkpt><trkpt lat="45.03758018239247" lon="9.62940725498795"><ele>65.0</ele><time>2026-05-01T10:34:52.999Z</time></trkpt><trkpt lat="45.03758328018355" lon="9.629281964448863"><ele>65.0</ele><time>2026-05-01T10:34:53.999Z</time></trkpt><trkpt lat="45.03758601907983" lon="9.629177286641228"><ele>65.0</ele><time>2026-05-01T10:34:54.999Z</time></trkpt><trkpt lat="45.03757901151583" lon="9.629018433716583"><ele>65.0</ele><time>2026-05-01T10:34:56.999Z</time></trkpt><trkpt lat="45.03758625630965" lon="9.628830560674075"><ele>65.0</ele><time>2026-05-01T10:35:06.999Z</time></trkpt><trkpt lat="45.03758545580478" lon="9.628654761657529"><ele>65.0</ele><time>2026-05-01T10:35:07.999Z</time></trkpt><trkpt lat="45.037591078055314" lon="9.628446008436677"><ele>65.0</ele><time>2026-05-01T10:35:08.999Z</time></trkpt><trkpt lat="45.037598600774665" lon="9.628237450154561"><ele>65.0</ele><time>2026-05-01T10:35:09.999Z</time></trkpt><trkpt lat="45.03762856741025" lon="9.628053940833192"><ele>65.0</ele><time>2026-05-01T10:35:10.999Z</time></trkpt><trkpt lat="45.037643842912985" lon="9.627891520630987"><ele>65.0</ele><time>2026-05-01T10:35:11.999Z</time></trkpt><trkpt lat="45.037655634708145" lon="9.627732998453745"><ele>65.0</ele><time>2026-05-01T10:35:12.999Z</time></trkpt><trkpt lat="45.03766722349712" lon="9.627543862411992"><ele>65.0</ele><time>2026-05-01T10:35:13.999Z</time></trkpt><trkpt lat="45.03767701480532" lon="9.627346379105804"><ele>65.0</ele><time>2026-05-01T10:35:14.999Z</time></trkpt><trkpt lat="45.03768581891282" lon="9.62715052349249"><ele>65.0</ele><time>2026-05-01T10:35:15.999Z</time></trkpt><trkpt lat="45.037694715183655" lon="9.62695261767287"><ele>65.0</ele><time>2026-05-01T10:35:16.999Z</time></trkpt><trkpt lat="45.037703816506905" lon="9.62675015020211"><ele>65.0</ele><time>2026-05-01T10:35:17.999Z</time></trkpt><trkpt lat="45.037712922114416" lon="9.626547587354953"><ele>65.0</ele><time>2026-05-01T10:35:18.999Z</time></trkpt><trkpt lat="45.037722241202495" lon="9.626340275739834"><ele>65.0</ele><time>2026-05-01T10:35:19.999Z</time></trkpt><trkpt lat="45.037733256577454" lon="9.626128854039095"><ele>65.0</ele><time>2026-05-01T10:35:20.999Z</time></trkpt><trkpt lat="45.037747526605635" lon="9.625891363064623"><ele>65.0</ele><time>2026-05-01T10:35:21.999Z</time></trkpt><trkpt lat="45.03776563105901" lon="9.625642192735372"><ele>65.0</ele><time>2026-05-01T10:35:22.999Z</time></trkpt><trkpt lat="45.0377804795223" lon="9.625417973120847"><ele>65.0</ele><time>2026-05-01T10:35:23.999Z</time></trkpt><trkpt lat="45.03778931046174" lon="9.625212246912987"><ele>64.66666666666667</ele><time>2026-05-01T10:35:24.999Z</time></trkpt><trkpt lat="45.03780003656835" lon="9.624986229596006"><ele>64.33333333333333</ele><time>2026-05-01T10:35:25.999Z</time></trkpt><trkpt lat="45.03781275942545" lon="9.624759944514798"><ele>64.0</ele><time>2026-05-01T10:35:26.999Z</time></trkpt><trkpt lat="45.0378249071398" lon="9.624543888668175"><ele>64.0</ele><time>2026-05-01T10:35:27.999Z</time></trkpt><trkpt lat="45.03782329565644" lon="9.624338546625143"><ele>64.0</ele><time>2026-05-01T10:35:28.999Z</time></trkpt><trkpt lat="45.037856305679995" lon="9.624139594340015"><ele>64.0</ele><time>2026-05-01T10:35:29.999Z</time></trkpt><trkpt lat="45.037881550802204" lon="9.62392181250426"><ele>64.0</ele><time>2026-05-01T10:35:30.999Z</time></trkpt><trkpt lat="45.03790893600326" lon="9.623712593514501"><ele>64.75</ele><time>2026-05-01T10:35:31.999Z</time></trkpt><trkpt lat="45.03793694135017" lon="9.623505507884122"><ele>65.5</ele><time>2026-05-01T10:35:32.999Z</time></trkpt><trkpt lat="45.03796577019889" lon="9.623292332632063"><ele>66.25</ele><time>2026-05-01T10:35:33.999Z</time></trkpt><trkpt lat="45.03799222521556" lon="9.623096710647143"><ele>67.0</ele><time>2026-05-01T10:35:34.999Z</time></trkpt><trkpt lat="45.03801668089192" lon="9.622915873067539"><ele>67.0</ele><time>2026-05-01T10:35:35.999Z</time></trkpt><trkpt lat="45.03804075913898" lon="9.622741173863608"><ele>67.0</ele><time>2026-05-01T10:35:36.999Z</time></trkpt><trkpt lat="45.038062985381124" lon="9.622576823098262"><ele>67.0</ele><time>2026-05-01T10:35:37.999Z</time></trkpt><trkpt lat="45.038065634177514" lon="9.622407543485311"><ele>67.0</ele><time>2026-05-01T10:35:38.999Z</time></trkpt><trkpt lat="45.03805235565321" lon="9.622224570719142"><ele>67.0</ele><time>2026-05-01T10:35:39.999Z</time></trkpt><trkpt lat="45.0381227810034" lon="9.622022740493946"><ele>67.0</ele><time>2026-05-01T10:35:40.999Z</time></trkpt><trkpt lat="45.03815294180762" lon="9.621823982245687"><ele>67.0</ele><time>2026-05-01T10:35:41.999Z</time></trkpt><trkpt lat="45.038187006813416" lon="9.62164316001633"><ele>67.0</ele><time>2026-05-01T10:35:42.999Z</time></trkpt><trkpt lat="45.038232391199436" lon="9.621463971755619"><ele>66.5</ele><time>2026-05-01T10:35:43.999Z</time></trkpt><trkpt lat="45.03828149187119" lon="9.621275280346152"><ele>66.0</ele><time>2026-05-01T10:35:44.999Z</time></trkpt><trkpt lat="45.03833289304829" lon="9.621096655377178"><ele>65.5</ele><time>2026-05-01T10:35:45.999Z</time></trkpt><trkpt lat="45.03838088216675" lon="9.620908067692236"><ele>65.0</ele><time>2026-05-01T10:35:46.999Z</time></trkpt><trkpt lat="45.03843174614558" lon="9.62071471987391"><ele>64.25</ele><time>2026-05-01T10:35:47.999Z</time></trkpt><trkpt lat="45.03848117300633" lon="9.620524616564294"><ele>63.5</ele><time>2026-05-01T10:35:48.999Z</time></trkpt><trkpt lat="45.038536066017386" lon="9.620326863581278"><ele>62.75</ele><time>2026-05-01T10:35:49.999Z</time></trkpt><trkpt lat="45.03857889870106" lon="9.620152295695858"><ele>62.0</ele><time>2026-05-01T10:35:50.999Z</time></trkpt><trkpt lat="45.03862689174156" lon="9.619988881904886"><ele>62.0</ele><time>2026-05-01T10:35:51.999Z</time></trkpt><trkpt lat="45.03867625183206" lon="9.619809727758902"><ele>62.0</ele><time>2026-05-01T10:35:52.999Z</time></trkpt><trkpt lat="45.03872728910206" lon="9.61961589895624"><ele>62.0</ele><time>2026-05-01T10:35:53.999Z</time></trkpt><trkpt lat="45.03878307353648" lon="9.619421614747315"><ele>62.0</ele><time>2026-05-01T10:35:54.999Z</time></trkpt><trkpt lat="45.03884203064192" lon="9.61921763019132"><ele>62.333333333333336</ele><time>2026-05-01T10:35:55.999Z</time></trkpt><trkpt lat="45.03891225547051" lon="9.619007201657908"><ele>62.66666666666667</ele><time>2026-05-01T10:35:56.999Z</time></trkpt><trkpt lat="45.03898841194607" lon="9.618794608453927"><ele>63.0</ele><time>2026-05-01T10:35:57.999Z</time></trkpt><trkpt lat="45.03905881798325" lon="9.618594063234546"><ele>63.66666666666667</ele><time>2026-05-01T10:35:58.999Z</time></trkpt><trkpt lat="45.039130725885194" lon="9.618399387894824"><ele>64.33333333333334</ele><time>2026-05-01T10:35:59.999Z</time></trkpt><trkpt lat="45.039204000981" lon="9.618203366465119"><ele>65.0</ele><time>2026-05-01T10:36:00.999Z</time></trkpt><trkpt lat="45.03928083123111" lon="9.618012684979806"><ele>65.0</ele><time>2026-05-01T10:36:01.999Z</time></trkpt><trkpt lat="45.039353413052396" lon="9.617824798148666"><ele>65.0</ele><time>2026-05-01T10:36:02.999Z</time></trkpt><trkpt lat="45.03941941321716" lon="9.61763960830823"><ele>65.0</ele><time>2026-05-01T10:36:03.999Z</time></trkpt><trkpt lat="45.039496196146466" lon="9.617434655685118"><ele>64.33333333333334</ele><time>2026-05-01T10:36:04.999Z</time></trkpt><trkpt lat="45.039575659109005" lon="9.617229921590724"><ele>63.66666666666667</ele><time>2026-05-01T10:36:05.999Z</time></trkpt><trkpt lat="45.03964072993274" lon="9.617066483123743"><ele>63.0</ele><time>2026-05-01T10:36:06.999Z</time></trkpt><trkpt lat="45.0397280740835" lon="9.616859056535162"><ele>62.599999999999994</ele><time>2026-05-01T10:36:07.999Z</time></trkpt><trkpt lat="45.03981522883386" lon="9.61665148144687"><ele>62.199999999999996</ele><time>2026-05-01T10:36:08.999Z</time></trkpt><trkpt lat="45.039878374239144" lon="9.616511940781098"><ele>61.8</ele><time>2026-05-01T10:36:09.999Z</time></trkpt><trkpt lat="45.039928484821274" lon="9.616408834597424"><ele>61.4</ele><time>2026-05-01T10:36:10.999Z</time></trkpt><trkpt lat="45.039968223195814" lon="9.616330774121307"><ele>61.0</ele><time>2026-05-01T10:36:11.999Z</time></trkpt><trkpt lat="45.04001679296631" lon="9.616178520412555"><ele>60.99999999999999</ele><time>2026-05-01T10:36:13.999Z</time></trkpt><trkpt lat="45.040049179882615" lon="9.61604952686227"><ele>61.0</ele><time>2026-05-01T10:36:15.999Z</time></trkpt><trkpt lat="45.04004828106167" lon="9.61592987757582"><ele>61.0</ele><time>2026-05-01T10:36:17.998Z</time></trkpt><trkpt lat="45.040028900888835" lon="9.615828589992692"><ele>61.0</ele><time>2026-05-01T10:36:18.998Z</time></trkpt><trkpt lat="45.0400016656519" lon="9.615708048464224"><ele>60.99999999999999</ele><time>2026-05-01T10:36:19.998Z</time></trkpt><trkpt lat="45.03998259510683" lon="9.615618203412774"><ele>61.0</ele><time>2026-05-01T10:36:20.998Z</time></trkpt><trkpt lat="45.03996380584676" lon="9.615511505514895"><ele>61.199999999999996</ele><time>2026-05-01T10:36:21.998Z</time></trkpt><trkpt lat="45.03995112832118" lon="9.615422666823523"><ele>61.39999999999999</ele><time>2026-05-01T10:36:22.998Z</time></trkpt><trkpt lat="45.03990106627115" lon="9.615254638247194"><ele>61.6</ele><time>2026-05-01T10:36:24.998Z</time></trkpt><trkpt lat="45.0398809355931" lon="9.615076957867887"><ele>61.8</ele><time>2026-05-01T10:36:26.998Z</time></trkpt><trkpt lat="45.03983970021446" lon="9.614933700206896"><ele>62.0</ele><time>2026-05-01T10:36:28.998Z</time></trkpt><trkpt lat="45.03978221904029" lon="9.614808201467069"><ele>62.00000000000001</ele><time>2026-05-01T10:36:30.998Z</time></trkpt><trkpt lat="45.0397313882928" lon="9.61473369169746"><ele>62.0</ele><time>2026-05-01T10:36:32.998Z</time></trkpt><trkpt lat="45.03964289032736" lon="9.61464713712455"><ele>62.0</ele><time>2026-05-01T10:36:34.999Z</time></trkpt><trkpt lat="45.039571770813986" lon="9.614608091662687"><ele>62.0</ele><time>2026-05-01T10:36:36.999Z</time></trkpt><trkpt lat="45.03951341172629" lon="9.61457384256365"><ele>62.00000000000001</ele><time>2026-05-01T10:36:39.999Z</time></trkpt><trkpt lat="45.03945216177946" lon="9.614494733459711"><ele>62.0</ele><time>2026-05-01T10:36:43.999Z</time></trkpt><trkpt lat="45.03934817540433" lon="9.614549780505875"><ele>62.00000000000001</ele><time>2026-05-01T10:36:45.999Z</time></trkpt><trkpt lat="45.039282227470814" lon="9.614588821140977"><ele>62.0</ele><time>2026-05-01T10:36:46.999Z</time></trkpt><trkpt lat="45.03917858451018" lon="9.614639342262718"><ele>62.0</ele><time>2026-05-01T10:36:49.999Z</time></trkpt><trkpt lat="45.039095133666514" lon="9.614646729843697"><ele>62.0</ele><time>2026-05-01T10:36:51.999Z</time></trkpt><trkpt lat="45.039003110179884" lon="9.614640802091152"><ele>62.00000000000001</ele><time>2026-05-01T10:36:54.999Z</time></trkpt><trkpt lat="45.03891164445924" lon="9.614645167577974"><ele>62.0</ele><time>2026-05-01T10:37:25.999Z</time></trkpt><trkpt lat="45.03885174154504" lon="9.614676514786629"><ele>62.00000000000001</ele><time>2026-05-01T10:37:28.999Z</time></trkpt><trkpt lat="45.03890221829003" lon="9.614771834104728"><ele>62.0</ele><time>2026-05-01T10:37:33.999Z</time></trkpt><trkpt lat="45.038969396647374" lon="9.614722831354221"><ele>62.0</ele><time>2026-05-01T10:37:36.999Z</time></trkpt><trkpt lat="45.03894278889367" lon="9.614609548107227"><ele>62.0</ele><time>2026-05-01T10:37:39.999Z</time></trkpt><trkpt lat="45.03895541213656" lon="9.614502028050326"><ele>62.00000000000001</ele><time>2026-05-01T10:37:47.999Z</time></trkpt><trkpt lat="45.03898482029529" lon="9.61441940056589"><ele>62.0</ele><time>2026-05-01T10:37:50.999Z</time></trkpt><trkpt lat="45.03907274900454" lon="9.614339683255574"><ele>61.400000000000006</ele><time>2026-05-01T10:37:53.999Z</time></trkpt><trkpt lat="45.03913979113703" lon="9.61424100364975"><ele>60.800000000000004</ele><time>2026-05-01T10:37:56.999Z</time></trkpt><trkpt lat="45.03915700289573" lon="9.614108281815675"><ele>60.2</ele><time>2026-05-01T10:37:58.999Z</time></trkpt><trkpt lat="45.039171041962334" lon="9.61397475331562"><ele>59.6</ele><time>2026-05-01T10:37:59.999Z</time></trkpt><trkpt lat="45.039166238313896" lon="9.613816227770947"><ele>59.0</ele><time>2026-05-01T10:38:01.999Z</time></trkpt><trkpt lat="45.0391586268495" lon="9.613684991869343"><ele>59.00000000000001</ele><time>2026-05-01T10:38:02.999Z</time></trkpt><trkpt lat="45.03914641672852" lon="9.613556057468376"><ele>59.0</ele><time>2026-05-01T10:38:03.999Z</time></trkpt><trkpt lat="45.039124564229475" lon="9.613433126169857"><ele>59.0</ele><time>2026-05-01T10:38:05.999Z</time></trkpt><trkpt lat="45.03910596687205" lon="9.613330776947178"><ele>59.0</ele><time>2026-05-01T10:38:08.999Z</time></trkpt><trkpt lat="45.03904166193312" lon="9.613336090313107"><ele>59.00000000000001</ele><time>2026-05-01T10:38:11.999Z</time></trkpt><trkpt lat="45.038956756738784" lon="9.613417638785684"><ele>59.0</ele><time>2026-05-01T10:38:13.999Z</time></trkpt><trkpt lat="45.03885858615789" lon="9.61345088930425"><ele>59.333333333333336</ele><time>2026-05-01T10:38:15.999Z</time></trkpt><trkpt lat="45.03877765798476" lon="9.613432509588886"><ele>59.66666666666667</ele><time>2026-05-01T10:38:17.999Z</time></trkpt><trkpt lat="45.03873209305621" lon="9.613370216519597"><ele>60.0</ele><time>2026-05-01T10:38:19.999Z</time></trkpt><trkpt lat="45.03869116613276" lon="9.613287178014813"><ele>60.33333333333333</ele><time>2026-05-01T10:38:22Z</time></trkpt><trkpt lat="45.03865514264208" lon="9.613205037506711"><ele>60.666666666666664</ele><time>2026-05-01T10:38:23.999Z</time></trkpt><trkpt lat="45.03862861993713" lon="9.613094606439434"><ele>61.0</ele><time>2026-05-01T10:38:25.999Z</time></trkpt><trkpt lat="45.038620839877474" lon="9.612945640223714"><ele>61.0</ele><time>2026-05-01T10:38:27.999Z</time></trkpt><trkpt lat="45.03855756838661" lon="9.61287296607347"><ele>60.99999999999999</ele><time>2026-05-01T10:38:31.999Z</time></trkpt><trkpt lat="45.038479211857805" lon="9.61283391261637"><ele>60.99999999999999</ele><time>2026-05-01T10:38:33.999Z</time></trkpt><trkpt lat="45.03835049348876" lon="9.61281985086234"><ele>61.0</ele><time>2026-05-01T10:38:35.999Z</time></trkpt><trkpt lat="45.03823788001833" lon="9.612805845983267"><ele>61.0</ele><time>2026-05-01T10:38:36.999Z</time></trkpt><trkpt lat="45.03811179599661" lon="9.61279594571588"><ele>61.49999999999999</ele><time>2026-05-01T10:38:37.999Z</time></trkpt><trkpt lat="45.03803863222829" lon="9.612799109912853"><ele>62.0</ele><time>2026-05-01T10:38:38.999Z</time></trkpt><trkpt lat="45.037966614695264" lon="9.612812398557203"><ele>62.5</ele><time>2026-05-01T10:38:40.999Z</time></trkpt><trkpt lat="45.03797605338161" lon="9.612697096738628"><ele>63.0</ele><time>2026-05-01T10:38:45.999Z</time></trkpt><trkpt lat="45.038059313263894" lon="9.612659419977662"><ele>63.49999999999999</ele><time>2026-05-01T10:38:48.999Z</time></trkpt><trkpt lat="45.038123393698825" lon="9.612666364378477"><ele>64.0</ele><time>2026-05-01T10:38:49.999Z</time></trkpt><trkpt lat="45.038203081093265" lon="9.61269502613769"><ele>63.99999999999999</ele><time>2026-05-01T10:38:50.999Z</time></trkpt><trkpt lat="45.03827883668436" lon="9.612765264099414"><ele>64.0</ele><time>2026-05-01T10:38:52.999Z</time></trkpt><trkpt lat="45.03832704815671" lon="9.612838473740318"><ele>64.0</ele><time>2026-05-01T10:38:54.999Z</time></trkpt><trkpt lat="45.03843749780624" lon="9.612914820149149"><ele>64.0</ele><time>2026-05-01T10:38:56.999Z</time></trkpt><trkpt lat="45.03850760412914" lon="9.612946511857272"><ele>63.99999999999999</ele><time>2026-05-01T10:38:57.999Z</time></trkpt><trkpt lat="45.038579431838784" lon="9.612954995703012"><ele>64.0</ele><time>2026-05-01T10:38:58.999Z</time></trkpt><trkpt lat="45.03867124454935" lon="9.612963578164283"><ele>63.49999999999999</ele><time>2026-05-01T10:38:59.999Z</time></trkpt><trkpt lat="45.038787765211694" lon="9.612937491052445"><ele>63.0</ele><time>2026-05-01T10:39:01.999Z</time></trkpt><trkpt lat="45.0388616979698" lon="9.61292807398639"><ele>62.5</ele><time>2026-05-01T10:39:02.999Z</time></trkpt><trkpt lat="45.03892728585394" lon="9.612944146616947"><ele>62.0</ele><time>2026-05-01T10:39:04Z</time></trkpt><trkpt lat="45.03898923500717" lon="9.612966810592825"><ele>61.49999999999999</ele><time>2026-05-01T10:39:05Z</time></trkpt><trkpt lat="45.03908120018199" lon="9.613001866541174"><ele>61.0</ele><time>2026-05-01T10:39:07Z</time></trkpt><trkpt lat="45.039151380638714" lon="9.6130363635698"><ele>60.99999999999999</ele><time>2026-05-01T10:39:10Z</time></trkpt><trkpt lat="45.03914055960845" lon="9.612932856682672"><ele>61.0</ele><time>2026-05-01T10:39:18Z</time></trkpt><trkpt lat="45.0391123076421" lon="9.612843306594142"><ele>61.0</ele><time>2026-05-01T10:39:21Z</time></trkpt><trkpt lat="45.039043701421974" lon="9.612792208596982"><ele>61.0</ele><time>2026-05-01T10:39:25Z</time></trkpt><trkpt lat="45.038993217323" lon="9.612692841539994"><ele>60.99999999999999</ele><time>2026-05-01T10:39:27Z</time></trkpt><trkpt lat="45.038932694814186" lon="9.612619322534819"><ele>61.0</ele><time>2026-05-01T10:39:28Z</time></trkpt><trkpt lat="45.03887458198139" lon="9.612548508034308"><ele>61.0</ele><time>2026-05-01T10:39:30Z</time></trkpt><trkpt lat="45.038807953803406" lon="9.61252722620566"><ele>61.0</ele><time>2026-05-01T10:39:32Z</time></trkpt><trkpt lat="45.03852985627397" lon="9.612939840298965"><ele>60.99999999999999</ele><time>2026-05-01T10:39:33Z</time></trkpt><trkpt lat="45.038438894701514" lon="9.612904780709846"><ele>61.0</ele><time>2026-05-01T10:39:36Z</time></trkpt><trkpt lat="45.038368115179615" lon="9.612819569028602"><ele>61.0</ele><time>2026-05-01T10:39:39Z</time></trkpt><trkpt lat="45.03830195131645" lon="9.612855065465416"><ele>61.0</ele><time>2026-05-01T10:39:42Z</time></trkpt><trkpt lat="45.03833726123112" lon="9.612963982145978"><ele>60.99999999999999</ele><time>2026-05-01T10:39:45Z</time></trkpt><trkpt lat="45.03839579372985" lon="9.612926834195653"><ele>61.0</ele><time>2026-05-01T10:39:47Z</time></trkpt><trkpt lat="45.0384396153879" lon="9.612853108968224"><ele>61.166666666666664</ele><time>2026-05-01T10:39:49Z</time></trkpt><trkpt lat="45.038477247568444" lon="9.612742472915356"><ele>61.33333333333333</ele><time>2026-05-01T10:39:51Z</time></trkpt><trkpt lat="45.03850618510728" lon="9.612590478818408"><ele>61.5</ele><time>2026-05-01T10:39:54Z</time></trkpt><trkpt lat="45.0384949728343" lon="9.612486863176725"><ele>61.66666666666667</ele><time>2026-05-01T10:39:56Z</time></trkpt><trkpt lat="45.03843715230095" lon="9.612374475339612"><ele>61.833333333333336</ele><time>2026-05-01T10:39:59Z</time></trkpt><trkpt lat="45.038377228086304" lon="9.612311674632021"><ele>62.0</ele><time>2026-05-01T10:40:01Z</time></trkpt><trkpt lat="45.03829913586201" lon="9.612258802529462"><ele>62.333333333333336</ele><time>2026-05-01T10:40:03Z</time></trkpt><trkpt lat="45.038214905718796" lon="9.612210109368963"><ele>62.66666666666667</ele><time>2026-05-01T10:40:05Z</time></trkpt><trkpt lat="45.038153207470856" lon="9.612184049664076"><ele>63.0</ele><time>2026-05-01T10:40:08Z</time></trkpt><trkpt lat="45.038087226915216" lon="9.61214995062156"><ele>63.33333333333333</ele><time>2026-05-01T10:40:12Z</time></trkpt><trkpt lat="45.038024229038975" lon="9.612117216444046"><ele>63.666666666666664</ele><time>2026-05-01T10:40:14Z</time></trkpt><trkpt lat="45.037927609104464" lon="9.612082756365767"><ele>64.0</ele><time>2026-05-01T10:40:17Z</time></trkpt><trkpt lat="45.03784925298301" lon="9.612041648143956"><ele>63.99999999999999</ele><time>2026-05-01T10:40:20Z</time></trkpt><trkpt lat="45.03777245173806" lon="9.612015869625308"><ele>64.0</ele><time>2026-05-01T10:40:22Z</time></trkpt><trkpt lat="45.03771173065965" lon="9.611990816805847"><ele>64.0</ele><time>2026-05-01T10:40:24Z</time></trkpt><trkpt lat="45.037638412611265" lon="9.611988919150091"><ele>64.0</ele><time>2026-05-01T10:40:27Z</time></trkpt><trkpt lat="45.03754807080946" lon="9.61204732843477"><ele>63.99999999999999</ele><time>2026-05-01T10:40:29.999Z</time></trkpt><trkpt lat="45.037472903983" lon="9.612025103526898"><ele>64.0</ele><time>2026-05-01T10:40:31.999Z</time></trkpt><trkpt lat="45.03740236154653" lon="9.611993429262794"><ele>63.99999999999999</ele><time>2026-05-01T10:40:33.999Z</time></trkpt><trkpt lat="45.03733928821284" lon="9.611929855582114"><ele>64.0</ele><time>2026-05-01T10:40:35.999Z</time></trkpt><trkpt lat="45.037247265696024" lon="9.611894594896876"><ele>64.0</ele><time>2026-05-01T10:40:37.999Z</time></trkpt><trkpt lat="45.03718078720977" lon="9.611876971423012"><ele>64.0</ele><time>2026-05-01T10:40:39.999Z</time></trkpt><trkpt lat="45.037087313356075" lon="9.611854046176093"><ele>63.99999999999999</ele><time>2026-05-01T10:40:42.999Z</time></trkpt><trkpt lat="45.036999401866034" lon="9.611879591351043"><ele>64.0</ele><time>2026-05-01T10:40:45.999Z</time></trkpt><trkpt lat="45.03692097913902" lon="9.61188155268186"><ele>63.99999999999999</ele><time>2026-05-01T10:40:48.999Z</time></trkpt><trkpt lat="45.036861875841346" lon="9.611762264816413"><ele>64.0</ele><time>2026-05-01T10:40:51.999Z</time></trkpt><trkpt lat="45.036804008977974" lon="9.611702906033637"><ele>64.0</ele><time>2026-05-01T10:40:53.999Z</time></trkpt><trkpt lat="45.03674270682638" lon="9.611633524675483"><ele>64.0</ele><time>2026-05-01T10:40:55.999Z</time></trkpt><trkpt lat="45.036694287811045" lon="9.611568501714455"><ele>63.99999999999999</ele><time>2026-05-01T10:40:58Z</time></trkpt><trkpt lat="45.03662068300842" lon="9.611488858980373"><ele>64.0</ele><time>2026-05-01T10:41:00Z</time></trkpt><trkpt lat="45.03655579154396" lon="9.611432330130386"><ele>63.99999999999999</ele><time>2026-05-01T10:41:02Z</time></trkpt><trkpt lat="45.03649009119953" lon="9.611327840839193"><ele>64.0</ele><time>2026-05-01T10:41:05Z</time></trkpt><trkpt lat="45.03645589352769" lon="9.61123936140468"><ele>64.0</ele><time>2026-05-01T10:41:07Z</time></trkpt><trkpt lat="45.03642933450945" lon="9.611128406924223"><ele>64.0</ele><time>2026-05-01T10:41:10Z</time></trkpt><trkpt lat="45.03642249652566" lon="9.611021220374646"><ele>63.99999999999999</ele><time>2026-05-01T10:41:12Z</time></trkpt><trkpt lat="45.03640204821447" lon="9.61092535531068"><ele>64.0</ele><time>2026-05-01T10:41:14Z</time></trkpt><trkpt lat="45.03637627916173" lon="9.610819266504334"><ele>63.99999999999999</ele><time>2026-05-01T10:41:17Z</time></trkpt><trkpt lat="45.036368085169805" lon="9.610729814203925"><ele>64.0</ele><time>2026-05-01T10:41:20Z</time></trkpt><trkpt lat="45.036325587257295" lon="9.610643758472925"><ele>64.0</ele><time>2026-05-01T10:41:22Z</time></trkpt><trkpt lat="45.03630389521387" lon="9.6105460409484"><ele>64.0</ele><time>2026-05-01T10:41:25Z</time></trkpt><trkpt lat="45.036256205319404" lon="9.610386182508611"><ele>63.99999999999999</ele><time>2026-05-01T10:41:27Z</time></trkpt><trkpt lat="45.03622460172947" lon="9.610271743343716"><ele>64.0</ele><time>2026-05-01T10:41:28Z</time></trkpt><trkpt lat="45.03620590072923" lon="9.610169837209625"><ele>64.0</ele><time>2026-05-01T10:41:29Z</time></trkpt><trkpt lat="45.036199334587806" lon="9.61001324345643"><ele>64.0</ele><time>2026-05-01T10:41:31Z</time></trkpt><trkpt lat="45.0361942223695" lon="9.60990822114555"><ele>64.0</ele><time>2026-05-01T10:41:33Z</time></trkpt><trkpt lat="45.036176758629544" lon="9.609796452653429"><ele>64.0</ele><time>2026-05-01T10:41:35Z</time></trkpt><trkpt lat="45.036133803807594" lon="9.609667206818973"><ele>64.0</ele><time>2026-05-01T10:41:37Z</time></trkpt><trkpt lat="45.03608616919992" lon="9.609464833174567"><ele>64.0</ele><time>2026-05-01T10:41:39Z</time></trkpt><trkpt lat="45.03605464205035" lon="9.609345296192803"><ele>64.0</ele><time>2026-05-01T10:41:40Z</time></trkpt><trkpt lat="45.03601582193408" lon="9.60924420143521"><ele>64.0</ele><time>2026-05-01T10:41:41Z</time></trkpt><trkpt lat="45.035991569146034" lon="9.609073560568891"><ele>64.0</ele><time>2026-05-01T10:41:43Z</time></trkpt><trkpt lat="45.03598151907373" lon="9.608974567940287"><ele>64.0</ele><time>2026-05-01T10:41:44Z</time></trkpt><trkpt lat="45.03594813091474" lon="9.608847934636778"><ele>64.0</ele><time>2026-05-01T10:41:46Z</time></trkpt><trkpt lat="45.03586975872855" lon="9.608736815932142"><ele>64.0</ele><time>2026-05-01T10:41:48Z</time></trkpt><trkpt lat="45.03581835374668" lon="9.608678158760085"><ele>64.0</ele><time>2026-05-01T10:41:49Z</time></trkpt><trkpt lat="45.03572979946563" lon="9.608569607395776"><ele>64.0</ele><time>2026-05-01T10:41:51Z</time></trkpt><trkpt lat="45.03567718235345" lon="9.608496462819762"><ele>64.0</ele><time>2026-05-01T10:41:53Z</time></trkpt><trkpt lat="45.03552855384664" lon="9.608667189598613"><ele>63.83333333333333</ele><time>2026-05-01T10:41:57Z</time></trkpt><trkpt lat="45.03546023427002" lon="9.608608989076076"><ele>63.666666666666664</ele><time>2026-05-01T10:42:00Z</time></trkpt><trkpt lat="45.03542744920378" lon="9.608515751907571"><ele>63.5</ele><time>2026-05-01T10:42:01Z</time></trkpt><trkpt lat="45.035387537700906" lon="9.608446733432082"><ele>63.33333333333333</ele><time>2026-05-01T10:42:02Z</time></trkpt><trkpt lat="45.03536577196296" lon="9.608297192741496"><ele>63.166666666666664</ele><time>2026-05-01T10:42:04Z</time></trkpt><trkpt lat="45.035361528815685" lon="9.60817257772809"><ele>63.0</ele><time>2026-05-01T10:42:05Z</time></trkpt><trkpt lat="45.03527129977509" lon="9.608046155662196"><ele>63.0</ele><time>2026-05-01T10:42:07Z</time></trkpt><trkpt lat="45.0351836851747" lon="9.607951844658103"><ele>63.0</ele><time>2026-05-01T10:42:08Z</time></trkpt><trkpt lat="45.03509313913871" lon="9.607856384007421"><ele>63.0</ele><time>2026-05-01T10:42:09Z</time></trkpt><trkpt lat="45.03499130168283" lon="9.607758574952534"><ele>63.0</ele><time>2026-05-01T10:42:10Z</time></trkpt><trkpt lat="45.034872093524434" lon="9.607667002683835"><ele>63.33333333333333</ele><time>2026-05-01T10:42:11Z</time></trkpt><trkpt lat="45.03473711894273" lon="9.607567803561198"><ele>63.666666666666664</ele><time>2026-05-01T10:42:12Z</time></trkpt><trkpt lat="45.03457663948264" lon="9.607464708154515"><ele>64.0</ele><time>2026-05-01T10:42:13Z</time></trkpt><trkpt lat="45.03443485431754" lon="9.607333150432845"><ele>64.0</ele><time>2026-05-01T10:42:14Z</time></trkpt><trkpt lat="45.03429228348086" lon="9.60721440697383"><ele>64.0</ele><time>2026-05-01T10:42:15Z</time></trkpt><trkpt lat="45.034147068099365" lon="9.607070901443551"><ele>64.0</ele><time>2026-05-01T10:42:16Z</time></trkpt><trkpt lat="45.033996749144784" lon="9.606934816343294"><ele>64.66666666666666</ele><time>2026-05-01T10:42:17Z</time></trkpt><trkpt lat="45.03386168250781" lon="9.60681253947561"><ele>65.33333333333333</ele><time>2026-05-01T10:42:18Z</time></trkpt><trkpt lat="45.0337138249234" lon="9.606679788486877"><ele>66.0</ele><time>2026-05-01T10:42:19Z</time></trkpt><trkpt lat="45.03354874396885" lon="9.60653477309849"><ele>66.0</ele><time>2026-05-01T10:42:20Z</time></trkpt><trkpt lat="45.03340019099871" lon="9.606392247607342"><ele>66.0</ele><time>2026-05-01T10:42:21Z</time></trkpt><trkpt lat="45.03327761068856" lon="9.606262899925612"><ele>66.0</ele><time>2026-05-01T10:42:22Z</time></trkpt><trkpt lat="45.033151809821085" lon="9.606140310775084"><ele>65.66666666666667</ele><time>2026-05-01T10:42:23Z</time></trkpt><trkpt lat="45.033040225641884" lon="9.605994033915245"><ele>65.33333333333334</ele><time>2026-05-01T10:42:24Z</time></trkpt><trkpt lat="45.032925264284984" lon="9.605839461370552"><ele>65.0</ele><time>2026-05-01T10:42:25Z</time></trkpt><trkpt lat="45.032818320817604" lon="9.605665586979645"><ele>65.0</ele><time>2026-05-01T10:42:26Z</time></trkpt><trkpt lat="45.03271219695353" lon="9.6055216264246"><ele>65.0</ele><time>2026-05-01T10:42:27Z</time></trkpt><trkpt lat="45.03258685864332" lon="9.605390116006049"><ele>65.0</ele><time>2026-05-01T10:42:28Z</time></trkpt><trkpt lat="45.0324734684984" lon="9.60524791389491"><ele>65.33333333333334</ele><time>2026-05-01T10:42:29Z</time></trkpt><trkpt lat="45.03235245338243" lon="9.605120543219378"><ele>65.66666666666667</ele><time>2026-05-01T10:42:30Z</time></trkpt><trkpt lat="45.03222898801606" lon="9.60497948239127"><ele>66.0</ele><time>2026-05-01T10:42:31Z</time></trkpt><trkpt lat="45.03210567401689" lon="9.60483354915724"><ele>66.0</ele><time>2026-05-01T10:42:32Z</time></trkpt><trkpt lat="45.03197811672233" lon="9.60468765420189"><ele>66.0</ele><time>2026-05-01T10:42:33Z</time></trkpt><trkpt lat="45.031876963226026" lon="9.604574726977306"><ele>66.0</ele><time>2026-05-01T10:42:34Z</time></trkpt><trkpt lat="45.03177346219737" lon="9.604464485848613"><ele>66.0</ele><time>2026-05-01T10:42:35Z</time></trkpt><trkpt lat="45.031640569109534" lon="9.604344854179931"><ele>66.33333333333333</ele><time>2026-05-01T10:42:36Z</time></trkpt><trkpt lat="45.03149651287875" lon="9.604202873323732"><ele>66.66666666666666</ele><time>2026-05-01T10:42:37Z</time></trkpt><trkpt lat="45.031348864367345" lon="9.604088553984099"><ele>67.0</ele><time>2026-05-01T10:42:38Z</time></trkpt><trkpt lat="45.031190464193756" lon="9.603994983201238"><ele>67.0</ele><time>2026-05-01T10:42:39Z</time></trkpt><trkpt lat="45.03103723713178" lon="9.603851081526697"><ele>67.0</ele><time>2026-05-01T10:42:40Z</time></trkpt><trkpt lat="45.03088427411426" lon="9.60372682771311"><ele>67.0</ele><time>2026-05-01T10:42:41Z</time></trkpt><trkpt lat="45.03072436807869" lon="9.603609812575263"><ele>66.75</ele><time>2026-05-01T10:42:42Z</time></trkpt><trkpt lat="45.030585356014086" lon="9.603517262061393"><ele>66.5</ele><time>2026-05-01T10:42:43Z</time></trkpt><trkpt lat="45.03046738747409" lon="9.603439828737386"><ele>66.25</ele><time>2026-05-01T10:42:44Z</time></trkpt><trkpt lat="45.0303581679497" lon="9.603371109071352"><ele>66.0</ele><time>2026-05-01T10:42:45Z</time></trkpt><trkpt lat="45.03026268187153" lon="9.60331103035816"><ele>66.0</ele><time>2026-05-01T10:42:46Z</time></trkpt><trkpt lat="45.0301836843652" lon="9.603261326043953"><ele>66.0</ele><time>2026-05-01T10:42:47Z</time></trkpt><trkpt lat="45.030078657785445" lon="9.603195244546342"><ele>66.0</ele><time>2026-05-01T10:42:49Z</time></trkpt><trkpt lat="45.030000462972815" lon="9.603141449172483"><ele>66.0</ele><time>2026-05-01T10:42:52Z</time></trkpt><trkpt lat="45.029855828503976" lon="9.603051183396353"><ele>66.0</ele><time>2026-05-01T10:42:54Z</time></trkpt><trkpt lat="45.029751006175914" lon="9.60300196310719"><ele>67.0</ele><time>2026-05-01T10:42:55Z</time></trkpt><trkpt lat="45.02960811318649" lon="9.602933271255402"><ele>68.0</ele><time>2026-05-01T10:42:56Z</time></trkpt><trkpt lat="45.02946542303617" lon="9.60282359395701"><ele>69.0</ele><time>2026-05-01T10:42:57Z</time></trkpt><trkpt lat="45.02931446618731" lon="9.602756709381046"><ele>69.0</ele><time>2026-05-01T10:42:58Z</time></trkpt><trkpt lat="45.02918055147679" lon="9.602713986114555"><ele>69.0</ele><time>2026-05-01T10:42:59Z</time></trkpt><trkpt lat="45.02906283932485" lon="9.602688370760808"><ele>69.0</ele><time>2026-05-01T10:43:00Z</time></trkpt><trkpt lat="45.02896670184916" lon="9.60255893315476"><ele>69.0</ele><time>2026-05-01T10:43:01Z</time></trkpt><trkpt lat="45.02886471388543" lon="9.602450297186934"><ele>69.0</ele><time>2026-05-01T10:43:02Z</time></trkpt><trkpt lat="45.02874852726054" lon="9.602334924732148"><ele>69.0</ele><time>2026-05-01T10:43:03Z</time></trkpt><trkpt lat="45.028609393735664" lon="9.602207026346074"><ele>69.0</ele><time>2026-05-01T10:43:04Z</time></trkpt><trkpt lat="45.02847096371346" lon="9.602083449233037"><ele>69.25</ele><time>2026-05-01T10:43:05Z</time></trkpt><trkpt lat="45.02833821463883" lon="9.601970061600273"><ele>69.5</ele><time>2026-05-01T10:43:06Z</time></trkpt><trkpt lat="45.02822033370141" lon="9.601876110221708"><ele>69.75</ele><time>2026-05-01T10:43:07Z</time></trkpt><trkpt lat="45.0281046078158" lon="9.601790581526936"><ele>70.0</ele><time>2026-05-01T10:43:08Z</time></trkpt><trkpt lat="45.027985473482744" lon="9.601700508585015"><ele>70.0</ele><time>2026-05-01T10:43:09Z</time></trkpt><trkpt lat="45.027874864357415" lon="9.601606877359783"><ele>70.0</ele><time>2026-05-01T10:43:10Z</time></trkpt><trkpt lat="45.02777974089854" lon="9.601511009504465"><ele>70.0</ele><time>2026-05-01T10:43:11Z</time></trkpt><trkpt lat="45.02769119905528" lon="9.60139974740752"><ele>70.0</ele><time>2026-05-01T10:43:12Z</time></trkpt><trkpt lat="45.02757990673198" lon="9.601252491203743"><ele>69.33333333333333</ele><time>2026-05-01T10:43:13Z</time></trkpt><trkpt lat="45.02746509751638" lon="9.601117970343644"><ele>68.66666666666667</ele><time>2026-05-01T10:43:14Z</time></trkpt><trkpt lat="45.0273178467312" lon="9.601011153427509"><ele>68.0</ele><time>2026-05-01T10:43:15Z</time></trkpt><trkpt lat="45.02716922717508" lon="9.600923503044735"><ele>68.0</ele><time>2026-05-01T10:43:16Z</time></trkpt><trkpt lat="45.02703576132249" lon="9.600880893804046"><ele>68.0</ele><time>2026-05-01T10:43:17Z</time></trkpt><trkpt lat="45.02689395284017" lon="9.600832843011823"><ele>68.0</ele><time>2026-05-01T10:43:18Z</time></trkpt><trkpt lat="45.026752791802785" lon="9.600769022531242"><ele>68.0</ele><time>2026-05-01T10:43:19Z</time></trkpt><trkpt lat="45.026606475245" lon="9.600738269843983"><ele>68.0</ele><time>2026-05-01T10:43:20Z</time></trkpt><trkpt lat="45.02644990677414" lon="9.600756618803658"><ele>68.0</ele><time>2026-05-01T10:43:21Z</time></trkpt><trkpt lat="45.02632330196218" lon="9.600790227813336"><ele>68.0</ele><time>2026-05-01T10:43:22Z</time></trkpt><trkpt lat="45.02620979934179" lon="9.600844002701322"><ele>68.0</ele><time>2026-05-01T10:43:23Z</time></trkpt><trkpt lat="45.026069986223874" lon="9.600925411963974"><ele>68.0</ele><time>2026-05-01T10:43:24Z</time></trkpt><trkpt lat="45.02591945915945" lon="9.60102428240109"><ele>68.0</ele><time>2026-05-01T10:43:25Z</time></trkpt><trkpt lat="45.025796145535296" lon="9.601121481124133"><ele>68.0</ele><time>2026-05-01T10:43:26Z</time></trkpt><trkpt lat="45.02569148281605" lon="9.601206984833984"><ele>68.0</ele><time>2026-05-01T10:43:27Z</time></trkpt><trkpt lat="45.02557825812731" lon="9.601275652153557"><ele>68.5</ele><time>2026-05-01T10:43:28Z</time></trkpt><trkpt lat="45.02546947169749" lon="9.60131452480187"><ele>69.0</ele><time>2026-05-01T10:43:29Z</time></trkpt><trkpt lat="45.025334831526216" lon="9.601333050047577"><ele>69.5</ele><time>2026-05-01T10:43:30Z</time></trkpt><trkpt lat="45.025177447890414" lon="9.601334997759869"><ele>70.0</ele><time>2026-05-01T10:43:31Z</time></trkpt><trkpt lat="45.02501402839234" lon="9.601353437910223"><ele>69.75</ele><time>2026-05-01T10:43:32Z</time></trkpt><trkpt lat="45.024876117075905" lon="9.601395830691086"><ele>69.5</ele><time>2026-05-01T10:43:33Z</time></trkpt><trkpt lat="45.02475299934943" lon="9.601410364596303"><ele>69.25</ele><time>2026-05-01T10:43:34Z</time></trkpt><trkpt lat="45.02462866215769" lon="9.601407631357201"><ele>69.0</ele><time>2026-05-01T10:43:35Z</time></trkpt><trkpt lat="45.02448436445668" lon="9.60143444556872"><ele>69.0</ele><time>2026-05-01T10:43:36Z</time></trkpt><trkpt lat="45.0243223458888" lon="9.601421813024553"><ele>69.0</ele><time>2026-05-01T10:43:37Z</time></trkpt><trkpt lat="45.024162364046546" lon="9.601365900122477"><ele>69.0</ele><time>2026-05-01T10:43:38Z</time></trkpt><trkpt lat="45.02402228515043" lon="9.601343026062386"><ele>69.0</ele><time>2026-05-01T10:43:39Z</time></trkpt><trkpt lat="45.02387061199996" lon="9.601350794058902"><ele>69.0</ele><time>2026-05-01T10:43:40Z</time></trkpt><trkpt lat="45.023740226986696" lon="9.601381322178883"><ele>69.0</ele><time>2026-05-01T10:43:41Z</time></trkpt><trkpt lat="45.02363307622519" lon="9.60142007441506"><ele>69.0</ele><time>2026-05-01T10:43:42Z</time></trkpt><trkpt lat="45.02355683030605" lon="9.601451807261094"><ele>69.0</ele><time>2026-05-01T10:43:43Z</time></trkpt><trkpt lat="45.02349308751161" lon="9.601479410607965"><ele>69.0</ele><time>2026-05-01T10:43:44Z</time></trkpt><trkpt lat="45.023403575568814" lon="9.601518173174306"><ele>69.0</ele><time>2026-05-01T10:43:46Z</time></trkpt><trkpt lat="45.02346543666754" lon="9.60146351537958"><ele>69.0</ele><time>2026-05-01T10:44:13.001Z</time></trkpt><trkpt lat="45.02352781253953" lon="9.601446855155162"><ele>69.0</ele><time>2026-05-01T10:44:15.001Z</time></trkpt><trkpt lat="45.02361994270601" lon="9.601407180081821"><ele>69.0</ele><time>2026-05-01T10:44:17.001Z</time></trkpt><trkpt lat="45.0237114282236" lon="9.60138388374225"><ele>69.0</ele><time>2026-05-01T10:44:19.001Z</time></trkpt><trkpt lat="45.02380776697301" lon="9.601379110382348"><ele>69.0</ele><time>2026-05-01T10:44:21.001Z</time></trkpt><trkpt lat="45.023864335551" lon="9.601433630063296"><ele>69.0</ele><time>2026-05-01T10:44:23.001Z</time></trkpt><trkpt lat="45.02387849690963" lon="9.601526786699369"><ele>69.0</ele><time>2026-05-01T10:44:25.001Z</time></trkpt><trkpt lat="45.023872465062404" lon="9.601617709375002"><ele>69.0</ele><time>2026-05-01T10:44:27.001Z</time></trkpt><trkpt lat="45.023825695577685" lon="9.601686133192977"><ele>69.0</ele><time>2026-05-01T10:44:30.001Z</time></trkpt><trkpt lat="45.023759694795416" lon="9.601743164171744"><ele>69.0</ele><time>2026-05-01T10:44:32.001Z</time></trkpt><trkpt lat="45.02365979620926" lon="9.601784034525807"><ele>69.0</ele><time>2026-05-01T10:44:35.001Z</time></trkpt><trkpt lat="45.023578228290184" lon="9.601840543027803"><ele>69.0</ele><time>2026-05-01T10:44:37.001Z</time></trkpt><trkpt lat="45.023516755003406" lon="9.601815602049957"><ele>69.0</ele><time>2026-05-01T10:44:40.001Z</time></trkpt><trkpt lat="45.023445023003404" lon="9.601902345874606"><ele>69.0</ele><time>2026-05-01T10:44:44.001Z</time></trkpt><trkpt lat="45.0234124352981" lon="9.602100672698736"><ele>69.0</ele><time>2026-05-01T10:44:46.001Z</time></trkpt><trkpt lat="45.023403786564415" lon="9.602193664256303"><ele>69.16666666666667</ele><time>2026-05-01T10:44:47.001Z</time></trkpt><trkpt lat="45.023403833826" lon="9.602321729570754"><ele>69.33333333333333</ele><time>2026-05-01T10:44:48.001Z</time></trkpt><trkpt lat="45.02340183525574" lon="9.602427406536323"><ele>69.5</ele><time>2026-05-01T10:44:49.001Z</time></trkpt><trkpt lat="45.02334428619195" lon="9.602556434727376"><ele>69.66666666666666</ele><time>2026-05-01T10:44:51.001Z</time></trkpt><trkpt lat="45.02328710342695" lon="9.602609826193104"><ele>69.83333333333333</ele><time>2026-05-01T10:44:52.001Z</time></trkpt><trkpt lat="45.023218085489496" lon="9.602652701841922"><ele>70.0</ele><time>2026-05-01T10:44:53.001Z</time></trkpt><trkpt lat="45.02311836105596" lon="9.602704770786286"><ele>70.0</ele><time>2026-05-01T10:44:54.001Z</time></trkpt><trkpt lat="45.02300209134225" lon="9.602753386120726"><ele>70.0</ele><time>2026-05-01T10:44:55.001Z</time></trkpt><trkpt lat="45.022898251076946" lon="9.602789456200709"><ele>70.0</ele><time>2026-05-01T10:44:56.001Z</time></trkpt><trkpt lat="45.022817642145164" lon="9.602819467989384"><ele>70.0</ele><time>2026-05-01T10:44:57.001Z</time></trkpt><trkpt lat="45.02273917933679" lon="9.602854050734843"><ele>70.0</ele><time>2026-05-01T10:44:58.001Z</time></trkpt><trkpt lat="45.02266012393206" lon="9.602863500217794"><ele>70.25</ele><time>2026-05-01T10:44:59.001Z</time></trkpt><trkpt lat="45.022552150489446" lon="9.602863591508216"><ele>70.5</ele><time>2026-05-01T10:45:00.001Z</time></trkpt><trkpt lat="45.02244185333197" lon="9.602846988664265"><ele>70.75</ele><time>2026-05-01T10:45:01.001Z</time></trkpt><trkpt lat="45.02230220925005" lon="9.602812180339368"><ele>71.0</ele><time>2026-05-01T10:45:02.001Z</time></trkpt><trkpt lat="45.02216638046053" lon="9.602768021819537"><ele>70.5</ele><time>2026-05-01T10:45:03.001Z</time></trkpt><trkpt lat="45.02204920331244" lon="9.602728471546168"><ele>70.0</ele><time>2026-05-01T10:45:04.001Z</time></trkpt><trkpt lat="45.02193793323308" lon="9.60273337040226"><ele>69.5</ele><time>2026-05-01T10:45:05.001Z</time></trkpt><trkpt lat="45.021831112957464" lon="9.602734693779151"><ele>69.0</ele><time>2026-05-01T10:45:06.001Z</time></trkpt><trkpt lat="45.021700696808445" lon="9.6027338068369"><ele>69.5</ele><time>2026-05-01T10:45:07.001Z</time></trkpt><trkpt lat="45.021585240441325" lon="9.602743033272704"><ele>70.0</ele><time>2026-05-01T10:45:08.001Z</time></trkpt><trkpt lat="45.02148765448037" lon="9.602759189272378"><ele>70.5</ele><time>2026-05-01T10:45:09.001Z</time></trkpt><trkpt lat="45.02137097083061" lon="9.602786730121034"><ele>71.0</ele><time>2026-05-01T10:45:10.001Z</time></trkpt><trkpt lat="45.0212438655927" lon="9.602836946543315"><ele>71.0</ele><time>2026-05-01T10:45:11.001Z</time></trkpt><trkpt lat="45.021119759331555" lon="9.602895779440011"><ele>71.0</ele><time>2026-05-01T10:45:12.001Z</time></trkpt><trkpt lat="45.021016608270514" lon="9.60293966903763"><ele>71.0</ele><time>2026-05-01T10:45:13.001Z</time></trkpt><trkpt lat="45.020910447855606" lon="9.602963817855318"><ele>71.0</ele><time>2026-05-01T10:45:14.001Z</time></trkpt><trkpt lat="45.02080644740768" lon="9.602972362681966"><ele>70.75</ele><time>2026-05-01T10:45:15.001Z</time></trkpt><trkpt lat="45.020694330355326" lon="9.602943263603269"><ele>70.5</ele><time>2026-05-01T10:45:16.001Z</time></trkpt><trkpt lat="45.02057606146508" lon="9.602910951424757"><ele>70.25</ele><time>2026-05-01T10:45:17.001Z</time></trkpt><trkpt lat="45.02044397670636" lon="9.602860442706774"><ele>70.0</ele><time>2026-05-01T10:45:18.001Z</time></trkpt><trkpt lat="45.020296254346626" lon="9.602827695091756"><ele>70.0</ele><time>2026-05-01T10:45:19.001Z</time></trkpt><trkpt lat="45.02014559570108" lon="9.602818823971804"><ele>70.0</ele><time>2026-05-01T10:45:20.001Z</time></trkpt><trkpt lat="45.01999275304904" lon="9.602832687258491"><ele>70.0</ele><time>2026-05-01T10:45:21.001Z</time></trkpt><trkpt lat="45.01983437452791" lon="9.602822783411842"><ele>69.75</ele><time>2026-05-01T10:45:22.001Z</time></trkpt><trkpt lat="45.01969125895819" lon="9.602793928453453"><ele>69.5</ele><time>2026-05-01T10:45:23.001Z</time></trkpt><trkpt lat="45.019560717104085" lon="9.602754676606274"><ele>69.25</ele><time>2026-05-01T10:45:24.001Z</time></trkpt><trkpt lat="45.019418763701495" lon="9.602727602872102"><ele>69.0</ele><time>2026-05-01T10:45:25.001Z</time></trkpt><trkpt lat="45.01927723198953" lon="9.602723977353776"><ele>70.0</ele><time>2026-05-01T10:45:26.001Z</time></trkpt><trkpt lat="45.01911430019795" lon="9.602738658413056"><ele>71.0</ele><time>2026-05-01T10:45:27.001Z</time></trkpt><trkpt lat="45.01893330887741" lon="9.602756425840465"><ele>72.0</ele><time>2026-05-01T10:45:28.001Z</time></trkpt><trkpt lat="45.018760244263866" lon="9.602791785828503"><ele>72.0</ele><time>2026-05-01T10:45:29.001Z</time></trkpt><trkpt lat="45.01859129186077" lon="9.602822581524798"><ele>72.0</ele><time>2026-05-01T10:45:30.001Z</time></trkpt><trkpt lat="45.01843130250967" lon="9.602849353569795"><ele>72.0</ele><time>2026-05-01T10:45:31.001Z</time></trkpt><trkpt lat="45.018267864947774" lon="9.60286341252261"><ele>72.4</ele><time>2026-05-01T10:45:32.001Z</time></trkpt><trkpt lat="45.018125193893006" lon="9.602872816477063"><ele>72.80000000000001</ele><time>2026-05-01T10:45:33.001Z</time></trkpt><trkpt lat="45.01801449617776" lon="9.602870720762372"><ele>73.2</ele><time>2026-05-01T10:45:34.001Z</time></trkpt><trkpt lat="45.017934549195424" lon="9.602857299384066"><ele>73.60000000000001</ele><time>2026-05-01T10:45:35.001Z</time></trkpt><trkpt lat="45.01784385987586" lon="9.602821875114277"><ele>74.0</ele><time>2026-05-01T10:45:36.001Z</time></trkpt><trkpt lat="45.01771973367129" lon="9.602758655190883"><ele>74.0</ele><time>2026-05-01T10:45:37.001Z</time></trkpt><trkpt lat="45.01757968845066" lon="9.602666193542133"><ele>74.0</ele><time>2026-05-01T10:45:38.001Z</time></trkpt><trkpt lat="45.0174150159674" lon="9.602558281672367"><ele>74.0</ele><time>2026-05-01T10:45:39.001Z</time></trkpt><trkpt lat="45.01727851708488" lon="9.60248553997236"><ele>73.33333333333334</ele><time>2026-05-01T10:45:40.001Z</time></trkpt><trkpt lat="45.01713383183101" lon="9.602413449915742"><ele>72.66666666666667</ele><time>2026-05-01T10:45:41.001Z</time></trkpt><trkpt lat="45.016984265455115" lon="9.602348788822802"><ele>72.0</ele><time>2026-05-01T10:45:42.001Z</time></trkpt><trkpt lat="45.01682636625721" lon="9.602300035558352"><ele>72.0</ele><time>2026-05-01T10:45:43.001Z</time></trkpt><trkpt lat="45.01667057494469" lon="9.602267117703866"><ele>72.0</ele><time>2026-05-01T10:45:44.001Z</time></trkpt><trkpt lat="45.01652400152489" lon="9.602229239844648"><ele>72.0</ele><time>2026-05-01T10:45:45.001Z</time></trkpt><trkpt lat="45.016372163595385" lon="9.60220387744237"><ele>72.2</ele><time>2026-05-01T10:45:46.001Z</time></trkpt><trkpt lat="45.01625039842166" lon="9.60218519971814"><ele>72.4</ele><time>2026-05-01T10:45:47.001Z</time></trkpt><trkpt lat="45.01615277611067" lon="9.6021698929164"><ele>72.6</ele><time>2026-05-01T10:45:48.001Z</time></trkpt><trkpt lat="45.016062338437884" lon="9.602183137191682"><ele>72.8</ele><time>2026-05-01T10:45:49.001Z</time></trkpt><trkpt lat="45.01595607524464" lon="9.60222950936174"><ele>73.0</ele><time>2026-05-01T10:45:50.001Z</time></trkpt><trkpt lat="45.01587237163214" lon="9.602265082394117"><ele>73.4</ele><time>2026-05-01T10:45:51.001Z</time></trkpt><trkpt lat="45.0157946215438" lon="9.602260474985686"><ele>73.8</ele><time>2026-05-01T10:45:52.001Z</time></trkpt><trkpt lat="45.01569778789699" lon="9.60221940583582"><ele>74.2</ele><time>2026-05-01T10:45:53.001Z</time></trkpt><trkpt lat="45.01559764335524" lon="9.602146482536254"><ele>74.6</ele><time>2026-05-01T10:45:54.001Z</time></trkpt><trkpt lat="45.015483981307966" lon="9.602040316709278"><ele>75.0</ele><time>2026-05-01T10:45:55.001Z</time></trkpt><trkpt lat="45.01535435211144" lon="9.60189370079086"><ele>75.33333333333333</ele><time>2026-05-01T10:45:56.001Z</time></trkpt><trkpt lat="45.01521571735659" lon="9.601709616371375"><ele>75.66666666666666</ele><time>2026-05-01T10:45:57.001Z</time></trkpt><trkpt lat="45.01510043422856" lon="9.601536057987838"><ele>76.0</ele><time>2026-05-01T10:45:58.001Z</time></trkpt><trkpt lat="45.01500894164345" lon="9.601391503021224"><ele>76.0</ele><time>2026-05-01T10:45:59.001Z</time></trkpt><trkpt lat="45.014911542943345" lon="9.601237775781915"><ele>76.0</ele><time>2026-05-01T10:46:00.001Z</time></trkpt><trkpt lat="45.01480313020298" lon="9.601080251186653"><ele>76.0</ele><time>2026-05-01T10:46:01.001Z</time></trkpt><trkpt lat="45.01471369887096" lon="9.600946567959086"><ele>76.0</ele><time>2026-05-01T10:46:02.001Z</time></trkpt><trkpt lat="45.014647621398275" lon="9.60083778537353"><ele>75.75</ele><time>2026-05-01T10:46:03.001Z</time></trkpt><trkpt lat="45.01457744395684" lon="9.600734221374708"><ele>75.5</ele><time>2026-05-01T10:46:04.001Z</time></trkpt><trkpt lat="45.014483604647474" lon="9.600638343988031"><ele>75.25</ele><time>2026-05-01T10:46:05.001Z</time></trkpt><trkpt lat="45.01435676253767" lon="9.600545533263862"><ele>75.0</ele><time>2026-05-01T10:46:06.001Z</time></trkpt><trkpt lat="45.014225704154704" lon="9.60047440895414"><ele>75.33333333333333</ele><time>2026-05-01T10:46:07.001Z</time></trkpt><trkpt lat="45.01406909428826" lon="9.600401203266093"><ele>75.66666666666666</ele><time>2026-05-01T10:46:08.001Z</time></trkpt><trkpt lat="45.013891507009276" lon="9.600323497671427"><ele>76.0</ele><time>2026-05-01T10:46:09.001Z</time></trkpt><trkpt lat="45.01374183031002" lon="9.600267979229304"><ele>75.66666666666666</ele><time>2026-05-01T10:46:10.001Z</time></trkpt><trkpt lat="45.013624017880076" lon="9.6002134691071"><ele>75.33333333333333</ele><time>2026-05-01T10:46:11.001Z</time></trkpt><trkpt lat="45.0135252829291" lon="9.600178296215763"><ele>75.0</ele><time>2026-05-01T10:46:12.001Z</time></trkpt><trkpt lat="45.01344744863185" lon="9.6001291213815"><ele>74.66666666666667</ele><time>2026-05-01T10:46:13.001Z</time></trkpt><trkpt lat="45.013386116609375" lon="9.600082248677507"><ele>74.33333333333334</ele><time>2026-05-01T10:46:14.001Z</time></trkpt><trkpt lat="45.01332594585715" lon="9.600035909213846"><ele>74.0</ele><time>2026-05-01T10:46:15.001Z</time></trkpt><trkpt lat="45.013251636255525" lon="9.59996886465207"><ele>74.0</ele><time>2026-05-01T10:46:17.001Z</time></trkpt><trkpt lat="45.013178612909286" lon="9.599923640130529"><ele>74.0</ele><time>2026-05-01T10:46:20.001Z</time></trkpt><trkpt lat="45.013069255373054" lon="9.59991619565409"><ele>74.0</ele><time>2026-05-01T10:46:23.001Z</time></trkpt><trkpt lat="45.012986749608686" lon="9.59989951028203"><ele>74.0</ele><time>2026-05-01T10:46:24.001Z</time></trkpt><trkpt lat="45.01291671167092" lon="9.599886264926011"><ele>74.0</ele><time>2026-05-01T10:46:25.001Z</time></trkpt><trkpt lat="45.01280387789254" lon="9.599835904156967"><ele>74.0</ele><time>2026-05-01T10:46:27.001Z</time></trkpt><trkpt lat="45.012695910625396" lon="9.599753656481145"><ele>74.0</ele><time>2026-05-01T10:46:29.001Z</time></trkpt><trkpt lat="45.01261470459514" lon="9.599760858206144"><ele>74.0</ele><time>2026-05-01T10:46:30.001Z</time></trkpt><trkpt lat="45.01252834576761" lon="9.59979175413432"><ele>74.0</ele><time>2026-05-01T10:46:31.001Z</time></trkpt><trkpt lat="45.012458748942045" lon="9.599805158455249"><ele>74.0</ele><time>2026-05-01T10:46:32.001Z</time></trkpt><trkpt lat="45.01235972460653" lon="9.599808941455061"><ele>74.0</ele><time>2026-05-01T10:46:34.001Z</time></trkpt><trkpt lat="45.01228568632021" lon="9.599849247810042"><ele>74.0</ele><time>2026-05-01T10:46:36.001Z</time></trkpt><trkpt lat="45.012197080433396" lon="9.59992176163373"><ele>74.0</ele><time>2026-05-01T10:46:38.001Z</time></trkpt><trkpt lat="45.01208716802649" lon="9.599891427856205"><ele>74.0</ele><time>2026-05-01T10:46:40.001Z</time></trkpt><trkpt lat="45.01201419517431" lon="9.599845960302357"><ele>74.0</ele><time>2026-05-01T10:46:41.001Z</time></trkpt><trkpt lat="45.01192195958075" lon="9.599784538258236"><ele>74.0</ele><time>2026-05-01T10:46:43.001Z</time></trkpt><trkpt lat="45.01186132684956" lon="9.59975348619116"><ele>74.0</ele><time>2026-05-01T10:46:44.001Z</time></trkpt><trkpt lat="45.0117889514828" lon="9.599742153733596"><ele>74.0</ele><time>2026-05-01T10:46:45.001Z</time></trkpt><trkpt lat="45.01170005946146" lon="9.599749194432587"><ele>74.0</ele><time>2026-05-01T10:46:46.001Z</time></trkpt><trkpt lat="45.0116002628033" lon="9.599747836875192"><ele>74.0</ele><time>2026-05-01T10:46:47.001Z</time></trkpt><trkpt lat="45.01153297586355" lon="9.599749336892497"><ele>74.0</ele><time>2026-05-01T10:46:48.001Z</time></trkpt><trkpt lat="45.0114233274784" lon="9.599709459601458"><ele>74.33333333333334</ele><time>2026-05-01T10:46:50.001Z</time></trkpt><trkpt lat="45.011348301807956" lon="9.599675333467323"><ele>74.66666666666667</ele><time>2026-05-01T10:46:51.001Z</time></trkpt><trkpt lat="45.011264592082" lon="9.59963471283059"><ele>75.0</ele><time>2026-05-01T10:46:53.001Z</time></trkpt><trkpt lat="45.01117674870006" lon="9.599578110284815"><ele>75.33333333333333</ele><time>2026-05-01T10:46:55.001Z</time></trkpt><trkpt lat="45.011073357028785" lon="9.599606162127786"><ele>75.66666666666666</ele><time>2026-05-01T10:46:58.001Z</time></trkpt><trkpt lat="45.01100731525911" lon="9.599605736297335"><ele>76.0</ele><time>2026-05-01T10:47:01.001Z</time></trkpt><trkpt lat="45.010922746840336" lon="9.599574190270364"><ele>76.0</ele><time>2026-05-01T10:47:04.001Z</time></trkpt><trkpt lat="45.01086644969946" lon="9.599636038713676"><ele>76.0</ele><time>2026-05-01T10:47:06.001Z</time></trkpt><trkpt lat="45.0108205520212" lon="9.599702610255708"><ele>76.0</ele><time>2026-05-01T10:47:07.001Z</time></trkpt><trkpt lat="45.01074976381513" lon="9.59979413372708"><ele>76.0</ele><time>2026-05-01T10:47:08.001Z</time></trkpt><trkpt lat="45.010697713661514" lon="9.599865767495901"><ele>76.0</ele><time>2026-05-01T10:47:09.001Z</time></trkpt><trkpt lat="45.0105797679277" lon="9.599930141269239"><ele>76.0</ele><time>2026-05-01T10:47:11.001Z</time></trkpt><trkpt lat="45.01049784806973" lon="9.599943624410248"><ele>76.2</ele><time>2026-05-01T10:47:12.001Z</time></trkpt><trkpt lat="45.01040331301719" lon="9.599942269109523"><ele>76.39999999999999</ele><time>2026-05-01T10:47:13.001Z</time></trkpt><trkpt lat="45.01028078346207" lon="9.59993355627855"><ele>76.6</ele><time>2026-05-01T10:47:14.001Z</time></trkpt><trkpt lat="45.010182156582445" lon="9.599936181104416"><ele>76.8</ele><time>2026-05-01T10:47:15.001Z</time></trkpt><trkpt lat="45.01010048064681" lon="9.599948157881427"><ele>77.0</ele><time>2026-05-01T10:47:16.001Z</time></trkpt><trkpt lat="45.010018687421656" lon="9.599947065364145"><ele>77.0</ele><time>2026-05-01T10:47:17.001Z</time></trkpt><trkpt lat="45.00995446544337" lon="9.599949455161154"><ele>77.0</ele><time>2026-05-01T10:47:18.001Z</time></trkpt><trkpt lat="45.00989130159254" lon="9.599926655515272"><ele>77.0</ele><time>2026-05-01T10:47:20.001Z</time></trkpt><trkpt lat="45.00981689066427" lon="9.599832517367263"><ele>77.0</ele><time>2026-05-01T10:47:22.001Z</time></trkpt><trkpt lat="45.00976892009241" lon="9.599728884730665"><ele>77.0</ele><time>2026-05-01T10:47:24.001Z</time></trkpt><trkpt lat="45.009756289329495" lon="9.599625216814497"><ele>77.0</ele><time>2026-05-01T10:47:25.001Z</time></trkpt><trkpt lat="45.00974669726166" lon="9.599472519378736"><ele>77.0</ele><time>2026-05-01T10:47:26.001Z</time></trkpt><trkpt lat="45.00973252041352" lon="9.599311158595945"><ele>77.0</ele><time>2026-05-01T10:47:27.001Z</time></trkpt><trkpt lat="45.009704630010134" lon="9.599191067394843"><ele>77.0</ele><time>2026-05-01T10:47:28.001Z</time></trkpt><trkpt lat="45.00965711109736" lon="9.599094154692335"><ele>77.0</ele><time>2026-05-01T10:47:30.001Z</time></trkpt><trkpt lat="45.00959329473678" lon="9.599049758542327"><ele>77.0</ele><time>2026-05-01T10:47:32.001Z</time></trkpt><trkpt lat="45.009486153547215" lon="9.59906158584357"><ele>77.0</ele><time>2026-05-01T10:47:34.001Z</time></trkpt><trkpt lat="45.00936374709901" lon="9.599075309456273"><ele>77.0</ele><time>2026-05-01T10:47:35.001Z</time></trkpt><trkpt lat="45.00924953399041" lon="9.599100225789204"><ele>77.0</ele><time>2026-05-01T10:47:36.001Z</time></trkpt><trkpt lat="45.00918388622426" lon="9.599128209956863"><ele>77.0</ele><time>2026-05-01T10:47:37.001Z</time></trkpt><trkpt lat="45.00911993386555" lon="9.599164187582678"><ele>77.0</ele><time>2026-05-01T10:47:38.001Z</time></trkpt><trkpt lat="45.00903163424232" lon="9.599195433441015"><ele>77.16666666666667</ele><time>2026-05-01T10:47:40.001Z</time></trkpt><trkpt lat="45.00892693857891" lon="9.599122013031431"><ele>77.33333333333334</ele><time>2026-05-01T10:47:42.001Z</time></trkpt><trkpt lat="45.008829728573176" lon="9.59911751147806"><ele>77.5</ele><time>2026-05-01T10:47:44.001Z</time></trkpt><trkpt lat="45.00875650488896" lon="9.599109455510963"><ele>77.66666666666667</ele><time>2026-05-01T10:47:46.001Z</time></trkpt><trkpt lat="45.00870356744366" lon="9.599054072066377"><ele>77.83333333333333</ele><time>2026-05-01T10:47:47.001Z</time></trkpt><trkpt lat="45.008630283745816" lon="9.598981572118104"><ele>78.0</ele><time>2026-05-01T10:47:48.001Z</time></trkpt><trkpt lat="45.00852488705335" lon="9.598898822440212"><ele>78.0</ele><time>2026-05-01T10:47:49.001Z</time></trkpt><trkpt lat="45.008446049667555" lon="9.598854060791156"><ele>78.0</ele><time>2026-05-01T10:47:50.001Z</time></trkpt><trkpt lat="45.00838506415611" lon="9.598817468933293"><ele>78.0</ele><time>2026-05-01T10:47:51.001Z</time></trkpt><trkpt lat="45.00831631701776" lon="9.5987805640077"><ele>78.0</ele><time>2026-05-01T10:47:53.001Z</time></trkpt><trkpt lat="45.00823899287309" lon="9.598887958923928"><ele>78.0</ele><time>2026-05-01T10:47:57.001Z</time></trkpt><trkpt lat="45.008170820026486" lon="9.598973274452522"><ele>78.0</ele><time>2026-05-01T10:47:59.001Z</time></trkpt><trkpt lat="45.00806307161343" lon="9.598968711123108"><ele>78.0</ele><time>2026-05-01T10:48:01.001Z</time></trkpt><trkpt lat="45.0079654136616" lon="9.598908792467656"><ele>78.0</ele><time>2026-05-01T10:48:03.001Z</time></trkpt><trkpt lat="45.00789815745748" lon="9.598845110632121"><ele>78.0</ele><time>2026-05-01T10:48:04.001Z</time></trkpt><trkpt lat="45.007832313553486" lon="9.598773702209433"><ele>78.0</ele><time>2026-05-01T10:48:05.001Z</time></trkpt><trkpt lat="45.00775766154967" lon="9.598707295407555"><ele>78.0</ele><time>2026-05-01T10:48:06.001Z</time></trkpt><trkpt lat="45.007696504155746" lon="9.598669409239493"><ele>78.0</ele><time>2026-05-01T10:48:07.001Z</time></trkpt><trkpt lat="45.007570511048336" lon="9.598557587653016"><ele>78.0</ele><time>2026-05-01T10:48:09.001Z</time></trkpt><trkpt lat="45.00749854085942" lon="9.59850180560088"><ele>78.0</ele><time>2026-05-01T10:48:10.001Z</time></trkpt><trkpt lat="45.00742349675581" lon="9.5984829774888"><ele>78.0</ele><time>2026-05-01T10:48:11.001Z</time></trkpt><trkpt lat="45.007329546155866" lon="9.598447166854216"><ele>78.0</ele><time>2026-05-01T10:48:13.001Z</time></trkpt><trkpt lat="45.00725494451438" lon="9.598389550053543"><ele>78.0</ele><time>2026-05-01T10:48:15.001Z</time></trkpt><trkpt lat="45.00714300017517" lon="9.598432649738276"><ele>78.0</ele><time>2026-05-01T10:48:17.001Z</time></trkpt><trkpt lat="45.00705543581334" lon="9.598481241518023"><ele>78.0</ele><time>2026-05-01T10:48:18.001Z</time></trkpt><trkpt lat="45.006953256911984" lon="9.598485118960046"><ele>78.0</ele><time>2026-05-01T10:48:20.001Z</time></trkpt><trkpt lat="45.00688281108263" lon="9.598474207211584"><ele>78.0</ele><time>2026-05-01T10:48:21.001Z</time></trkpt><trkpt lat="45.00680025964438" lon="9.59846431151236"><ele>78.0</ele><time>2026-05-01T10:48:22.001Z</time></trkpt><trkpt lat="45.006717028279574" lon="9.598444674700517"><ele>78.0</ele><time>2026-05-01T10:48:23.001Z</time></trkpt><trkpt lat="45.00660949330779" lon="9.598434958326687"><ele>78.0</ele><time>2026-05-01T10:48:25.001Z</time></trkpt><trkpt lat="45.00653200954102" lon="9.598423657617806"><ele>78.0</ele><time>2026-05-01T10:48:26.001Z</time></trkpt><trkpt lat="45.00646263891356" lon="9.598400590546753"><ele>78.0</ele><time>2026-05-01T10:48:27.001Z</time></trkpt><trkpt lat="45.006390199198826" lon="9.598337497629629"><ele>78.0</ele><time>2026-05-01T10:48:28.001Z</time></trkpt><trkpt lat="45.00631279402836" lon="9.598261526373804"><ele>78.0</ele><time>2026-05-01T10:48:29.001Z</time></trkpt><trkpt lat="45.00622853406099" lon="9.598207416344042"><ele>78.0</ele><time>2026-05-01T10:48:30.001Z</time></trkpt><trkpt lat="45.00615107084308" lon="9.598169423118096"><ele>78.0</ele><time>2026-05-01T10:48:31.001Z</time></trkpt><trkpt lat="45.00604577599654" lon="9.598122499760251"><ele>78.0</ele><time>2026-05-01T10:48:33.001Z</time></trkpt><trkpt lat="45.005976176424085" lon="9.598098409532415"><ele>78.0</ele><time>2026-05-01T10:48:34.001Z</time></trkpt><trkpt lat="45.00591056010017" lon="9.598092177191518"><ele>78.0</ele><time>2026-05-01T10:48:35.001Z</time></trkpt><trkpt lat="45.00583927898214" lon="9.598054276054123"><ele>78.0</ele><time>2026-05-01T10:48:36.001Z</time></trkpt><trkpt lat="45.00575113117111" lon="9.597998297244706"><ele>78.0</ele><time>2026-05-01T10:48:37.001Z</time></trkpt><trkpt lat="45.00566930096747" lon="9.597982814118195"><ele>78.0</ele><time>2026-05-01T10:48:38.001Z</time></trkpt><trkpt lat="45.005570309629114" lon="9.597958419217608"><ele>78.0</ele><time>2026-05-01T10:48:39.001Z</time></trkpt><trkpt lat="45.00546839841412" lon="9.597908088167216"><ele>78.0</ele><time>2026-05-01T10:48:40.001Z</time></trkpt><trkpt lat="45.00536494703388" lon="9.597857358882596"><ele>78.0</ele><time>2026-05-01T10:48:41.001Z</time></trkpt><trkpt lat="45.00525931529657" lon="9.597811002515812"><ele>78.0</ele><time>2026-05-01T10:48:42.001Z</time></trkpt><trkpt lat="45.00516599767129" lon="9.597772459446404"><ele>78.0</ele><time>2026-05-01T10:48:43.001Z</time></trkpt><trkpt lat="45.005050910829425" lon="9.597726277280046"><ele>78.0</ele><time>2026-05-01T10:48:44.001Z</time></trkpt><trkpt lat="45.00495677971436" lon="9.597688246439667"><ele>78.0</ele><time>2026-05-01T10:48:45.001Z</time></trkpt><trkpt lat="45.00486695497426" lon="9.597643712736552"><ele>78.0</ele><time>2026-05-01T10:48:46.001Z</time></trkpt><trkpt lat="45.00474915536269" lon="9.597607682969693"><ele>78.0</ele><time>2026-05-01T10:48:47.001Z</time></trkpt><trkpt lat="45.0046396138373" lon="9.59756861532336"><ele>77.83333333333333</ele><time>2026-05-01T10:48:48.001Z</time></trkpt><trkpt lat="45.00456994343186" lon="9.597554012245974"><ele>77.66666666666667</ele><time>2026-05-01T10:48:49.001Z</time></trkpt><trkpt lat="45.004484364748514" lon="9.597516136341152"><ele>77.5</ele><time>2026-05-01T10:48:51.001Z</time></trkpt><trkpt lat="45.004432512621925" lon="9.59746027131991"><ele>77.33333333333334</ele><time>2026-05-01T10:48:52.002Z</time></trkpt><trkpt lat="45.004364500515436" lon="9.59739401351893"><ele>77.16666666666667</ele><time>2026-05-01T10:48:53.002Z</time></trkpt><trkpt lat="45.0042604777666" lon="9.597315574548627"><ele>77.0</ele><time>2026-05-01T10:48:55.002Z</time></trkpt><trkpt lat="45.004182063760446" lon="9.597204721706733"><ele>77.25</ele><time>2026-05-01T10:48:57.002Z</time></trkpt><trkpt lat="45.004020162859945" lon="9.597158279613739"><ele>77.5</ele><time>2026-05-01T10:48:59.002Z</time></trkpt><trkpt lat="45.00389984795334" lon="9.597151280277728"><ele>77.75</ele><time>2026-05-01T10:49:00.002Z</time></trkpt><trkpt lat="45.003756076715646" lon="9.597156687615282"><ele>78.0</ele><time>2026-05-01T10:49:01.002Z</time></trkpt><trkpt lat="45.00355760862267" lon="9.597158596157094"><ele>78.0</ele><time>2026-05-01T10:49:02.002Z</time></trkpt><trkpt lat="45.00344090177584" lon="9.597150146111158"><ele>78.0</ele><time>2026-05-01T10:49:03.002Z</time></trkpt><trkpt lat="45.0033217438962" lon="9.597202767306023"><ele>78.0</ele><time>2026-05-01T10:49:04.002Z</time></trkpt><trkpt lat="45.00322343376968" lon="9.59716220482818"><ele>78.0</ele><time>2026-05-01T10:49:05.002Z</time></trkpt><trkpt lat="45.00312825379396" lon="9.597129379302583"><ele>78.0</ele><time>2026-05-01T10:49:06.002Z</time></trkpt><trkpt lat="45.00299803362766" lon="9.597081771550123"><ele>78.2</ele><time>2026-05-01T10:49:07.002Z</time></trkpt><trkpt lat="45.00288820516508" lon="9.597031005579552"><ele>78.4</ele><time>2026-05-01T10:49:08.002Z</time></trkpt><trkpt lat="45.002822542112106" lon="9.596987888954413"><ele>78.60000000000001</ele><time>2026-05-01T10:49:09.001Z</time></trkpt><trkpt lat="45.00276633977597" lon="9.596945214440582"><ele>78.8</ele><time>2026-05-01T10:49:10.001Z</time></trkpt><trkpt lat="45.002624977281165" lon="9.596895231779865"><ele>79.0</ele><time>2026-05-01T10:49:12.001Z</time></trkpt><trkpt lat="45.0025170103297" lon="9.59684858621693"><ele>79.0</ele><time>2026-05-01T10:49:13.001Z</time></trkpt><trkpt lat="45.00238314830756" lon="9.59679409649728"><ele>79.0</ele><time>2026-05-01T10:49:14.001Z</time></trkpt><trkpt lat="45.00226775521046" lon="9.596762091165543"><ele>79.0</ele><time>2026-05-01T10:49:15.001Z</time></trkpt><trkpt lat="45.002154806896606" lon="9.596737095651587"><ele>79.0</ele><time>2026-05-01T10:49:16.001Z</time></trkpt><trkpt lat="45.00206479437699" lon="9.59671110745355"><ele>79.0</ele><time>2026-05-01T10:49:17.001Z</time></trkpt><trkpt lat="45.00199000043873" lon="9.596666153893498"><ele>79.0</ele><time>2026-05-01T10:49:18.001Z</time></trkpt><trkpt lat="45.001901065011054" lon="9.596613150193852"><ele>79.0</ele><time>2026-05-01T10:49:19.001Z</time></trkpt><trkpt lat="45.00178349866464" lon="9.596579876826944"><ele>79.0</ele><time>2026-05-01T10:49:20.001Z</time></trkpt><trkpt lat="45.0016803532265" lon="9.596543345377823"><ele>79.0</ele><time>2026-05-01T10:49:21.001Z</time></trkpt><trkpt lat="45.00159041628217" lon="9.59649151445343"><ele>79.33333333333333</ele><time>2026-05-01T10:49:22.001Z</time></trkpt><trkpt lat="45.0015047773821" lon="9.596457722386864"><ele>79.66666666666666</ele><time>2026-05-01T10:49:23.001Z</time></trkpt><trkpt lat="45.00141826730174" lon="9.59641440167219"><ele>80.0</ele><time>2026-05-01T10:49:24.001Z</time></trkpt><trkpt lat="45.00132864097345" lon="9.596376919453238"><ele>80.33333333333333</ele><time>2026-05-01T10:49:25.001Z</time></trkpt><trkpt lat="45.001252278414746" lon="9.596335356816269"><ele>80.66666666666667</ele><time>2026-05-01T10:49:26.001Z</time></trkpt><trkpt lat="45.001179226938405" lon="9.596283457041142"><ele>81.0</ele><time>2026-05-01T10:49:27.001Z</time></trkpt><trkpt lat="45.00109234419938" lon="9.596222209637562"><ele>81.0</ele><time>2026-05-01T10:49:28.001Z</time></trkpt><trkpt lat="45.00101920134601" lon="9.596182190391497"><ele>81.0</ele><time>2026-05-01T10:49:29.001Z</time></trkpt><trkpt lat="45.00082285950534" lon="9.596133742907373"><ele>81.0</ele><time>2026-05-01T10:49:32.001Z</time></trkpt><trkpt lat="45.00073458648688" lon="9.596063807262048"><ele>81.0</ele><time>2026-05-01T10:49:34.001Z</time></trkpt><trkpt lat="45.000621447256336" lon="9.596005319682815"><ele>81.16666666666667</ele><time>2026-05-01T10:49:36.001Z</time></trkpt><trkpt lat="45.000535592314705" lon="9.595983036120407"><ele>81.33333333333333</ele><time>2026-05-01T10:49:37.001Z</time></trkpt><trkpt lat="45.00045119394884" lon="9.595973592831266"><ele>81.5</ele><time>2026-05-01T10:49:38.001Z</time></trkpt><trkpt lat="45.0003376197133" lon="9.595998138704287"><ele>81.66666666666666</ele><time>2026-05-01T10:49:40.001Z</time></trkpt><trkpt lat="45.000266472716554" lon="9.59598813791668"><ele>81.83333333333333</ele><time>2026-05-01T10:56:12Z</time></trkpt><trkpt lat="45.00020355817546" lon="9.59597528705983"><ele>82.0</ele><time>2026-05-01T10:56:13Z</time></trkpt><trkpt lat="45.000140145456385" lon="9.595998408174829"><ele>82.0</ele><time>2026-05-01T10:56:15Z</time></trkpt><trkpt lat="45.00005044050208" lon="9.59607982078531"><ele>82.0</ele><time>2026-05-01T10:56:17Z</time></trkpt><trkpt lat="44.999933586912675" lon="9.59612424671515"><ele>82.0</ele><time>2026-05-01T10:56:19Z</time></trkpt><trkpt lat="44.99985749302144" lon="9.596112717277276"><ele>82.0</ele><time>2026-05-01T10:56:21Z</time></trkpt><trkpt lat="44.99979431884932" lon="9.596064648353348"><ele>82.0</ele><time>2026-05-01T10:56:39Z</time></trkpt><trkpt lat="44.99972491656582" lon="9.59603102635163"><ele>82.0</ele><time>2026-05-01T10:56:40Z</time></trkpt><trkpt lat="44.99963609338742" lon="9.59599040648557"><ele>82.0</ele><time>2026-05-01T10:56:41Z</time></trkpt><trkpt lat="44.999554987405794" lon="9.595952026625387"><ele>82.0</ele><time>2026-05-01T10:56:42Z</time></trkpt><trkpt lat="44.99948791682908" lon="9.595921508137577"><ele>82.0</ele><time>2026-05-01T10:56:43Z</time></trkpt><trkpt lat="44.99940486378663" lon="9.595883002132092"><ele>82.0</ele><time>2026-05-01T10:56:44Z</time></trkpt><trkpt lat="44.999308330387116" lon="9.595851567932892"><ele>82.0</ele><time>2026-05-01T10:56:46Z</time></trkpt><trkpt lat="44.99922610497335" lon="9.595848406974657"><ele>82.0</ele><time>2026-05-01T10:56:48Z</time></trkpt><trkpt lat="44.99913829925703" lon="9.595844282623625"><ele>82.0</ele><time>2026-05-01T10:56:50Z</time></trkpt><trkpt lat="44.99906929710936" lon="9.595861233434528"><ele>82.0</ele><time>2026-05-01T10:56:57Z</time></trkpt><trkpt lat="44.99899271561274" lon="9.595897718963755"><ele>82.0</ele><time>2026-05-01T10:57:01Z</time></trkpt><trkpt lat="44.998958652015126" lon="9.596008377471861"><ele>82.0</ele><time>2026-05-01T10:57:04Z</time></trkpt><trkpt lat="44.998906989680286" lon="9.596063744748525"><ele>82.0</ele><time>2026-05-01T10:57:06Z</time></trkpt><trkpt lat="44.998828200851634" lon="9.596078058408192"><ele>82.0</ele><time>2026-05-01T10:57:08Z</time></trkpt><trkpt lat="44.9987506835551" lon="9.596109290630764"><ele>82.16666666666666</ele><time>2026-05-01T10:57:10Z</time></trkpt><trkpt lat="44.998713237371064" lon="9.596199665728658"><ele>82.33333333333333</ele><time>2026-05-01T10:57:12Z</time></trkpt><trkpt lat="44.99865685427329" lon="9.596278083642662"><ele>82.5</ele><time>2026-05-01T10:57:14Z</time></trkpt><trkpt lat="44.998589147034245" lon="9.596312116919314"><ele>82.66666666666667</ele><time>2026-05-01T10:57:17.001Z</time></trkpt><trkpt lat="44.99852941554132" lon="9.596355276679269"><ele>82.83333333333334</ele><time>2026-05-01T10:57:19Z</time></trkpt><trkpt lat="44.998508338726175" lon="9.596504296589991"><ele>83.0</ele><time>2026-05-01T10:57:22Z</time></trkpt><trkpt lat="44.99851817630448" lon="9.5966067620762"><ele>83.0</ele><time>2026-05-01T10:57:24Z</time></trkpt><trkpt lat="44.99847470694832" lon="9.596697845445592"><ele>83.0</ele><time>2026-05-01T10:57:26Z</time></trkpt><trkpt lat="44.998469491785116" lon="9.596802236552199"><ele>83.0</ele><time>2026-05-01T10:57:28Z</time></trkpt><trkpt lat="44.998494506637094" lon="9.596917909762945"><ele>83.0</ele><time>2026-05-01T10:57:30Z</time></trkpt><trkpt lat="44.99852381300894" lon="9.597034721248155"><ele>83.0</ele><time>2026-05-01T10:57:32Z</time></trkpt><trkpt lat="44.998463521942845" lon="9.597104172155213"><ele>83.0</ele><time>2026-05-01T10:58:57Z</time></trkpt><trkpt lat="44.99838615523573" lon="9.597106260926592"><ele>82.80000000000001</ele><time>2026-05-01T10:58:59Z</time></trkpt><trkpt lat="44.998280067984076" lon="9.597128396678979"><ele>82.6</ele><time>2026-05-01T10:59:01Z</time></trkpt><trkpt lat="44.998163421704675" lon="9.597211762103482"><ele>82.4</ele><time>2026-05-01T10:59:03Z</time></trkpt><trkpt lat="44.99807910771902" lon="9.59723965597272"><ele>82.19999999999999</ele><time>2026-05-01T10:59:04Z</time></trkpt><trkpt lat="44.99800123709913" lon="9.597244555682973"><ele>82.0</ele><time>2026-05-01T10:59:05Z</time></trkpt><trkpt lat="44.997925429375314" lon="9.59725759557354"><ele>82.0</ele><time>2026-05-01T10:59:06Z</time></trkpt><trkpt lat="44.99783722611752" lon="9.59727590106051"><ele>82.0</ele><time>2026-05-01T10:59:07Z</time></trkpt><trkpt lat="44.997746812038635" lon="9.597296907351675"><ele>82.0</ele><time>2026-05-01T10:59:08Z</time></trkpt><trkpt lat="44.997658874152464" lon="9.597310823460763"><ele>82.0</ele><time>2026-05-01T10:59:09Z</time></trkpt><trkpt lat="44.99758656511721" lon="9.597309552507745"><ele>82.0</ele><time>2026-05-01T10:59:10Z</time></trkpt><trkpt lat="44.9975182667162" lon="9.597301570917562"><ele>82.0</ele><time>2026-05-01T10:59:11Z</time></trkpt><trkpt lat="44.99744831304448" lon="9.597303159212059"><ele>81.75</ele><time>2026-05-01T10:59:12Z</time></trkpt><trkpt lat="44.99733401758503" lon="9.59724013255955"><ele>81.5</ele><time>2026-05-01T10:59:14Z</time></trkpt><trkpt lat="44.99723378218925" lon="9.59722561077188"><ele>81.25</ele><time>2026-05-01T10:59:16Z</time></trkpt><trkpt lat="44.99714563509887" lon="9.59733518025999"><ele>81.0</ele><time>2026-05-01T10:59:18Z</time></trkpt><trkpt lat="44.99703692347178" lon="9.597365203498178"><ele>81.0</ele><time>2026-05-01T10:59:20Z</time></trkpt><trkpt lat="44.99696023912968" lon="9.597346424981351"><ele>81.0</ele><time>2026-05-01T10:59:21Z</time></trkpt><trkpt lat="44.99685806883949" lon="9.597318485305353"><ele>81.0</ele><time>2026-05-01T10:59:22Z</time></trkpt><trkpt lat="44.99676581910145" lon="9.597321128437482"><ele>81.0</ele><time>2026-05-01T10:59:23Z</time></trkpt><trkpt lat="44.99667778021512" lon="9.597340635668184"><ele>81.0</ele><time>2026-05-01T10:59:24Z</time></trkpt><trkpt lat="44.996587188269096" lon="9.597351371791671"><ele>81.19999999999999</ele><time>2026-05-01T10:59:25Z</time></trkpt><trkpt lat="44.996509990010466" lon="9.597345061290987"><ele>81.39999999999999</ele><time>2026-05-01T10:59:26Z</time></trkpt><trkpt lat="44.996445044032" lon="9.597336005443678"><ele>81.6</ele><time>2026-05-01T10:59:27Z</time></trkpt><trkpt lat="44.99638377122641" lon="9.597286685860178"><ele>81.8</ele><time>2026-05-01T10:59:29Z</time></trkpt><trkpt lat="44.99635552139932" lon="9.597142974417732"><ele>82.0</ele><time>2026-05-01T10:59:31Z</time></trkpt><trkpt lat="44.996387135910226" lon="9.596938979078377"><ele>82.19999999999999</ele><time>2026-05-01T10:59:33Z</time></trkpt><trkpt lat="44.99641184712286" lon="9.596768890453294"><ele>82.4</ele><time>2026-05-01T10:59:34Z</time></trkpt><trkpt lat="44.99641577015801" lon="9.59662631426792"><ele>82.6</ele><time>2026-05-01T10:59:35Z</time></trkpt><trkpt lat="44.99640409722155" lon="9.596489831822371"><ele>82.80000000000001</ele><time>2026-05-01T10:59:36Z</time></trkpt><trkpt lat="44.996381335218565" lon="9.596380160440242"><ele>83.0</ele><time>2026-05-01T10:59:37Z</time></trkpt><trkpt lat="44.996346597881946" lon="9.596288245651703"><ele>83.0</ele><time>2026-05-01T10:59:38Z</time></trkpt><trkpt lat="44.99628873489018" lon="9.596187366519898"><ele>83.0</ele><time>2026-05-01T10:59:39Z</time></trkpt><trkpt lat="44.99621440646049" lon="9.596071280584711"><ele>83.0</ele><time>2026-05-01T10:59:40Z</time></trkpt><trkpt lat="44.99615140850157" lon="9.595992686652535"><ele>83.0</ele><time>2026-05-01T10:59:41Z</time></trkpt><trkpt lat="44.99607522407318" lon="9.59595166903085"><ele>83.0</ele><time>2026-05-01T10:59:43Z</time></trkpt><trkpt lat="44.99597325608729" lon="9.595994257587527"><ele>83.2</ele><time>2026-05-01T10:59:45Z</time></trkpt><trkpt lat="44.99592037900163" lon="9.59604338073524"><ele>83.4</ele><time>2026-05-01T10:59:46Z</time></trkpt><trkpt lat="44.99585813477049" lon="9.596074132258398"><ele>83.60000000000001</ele><time>2026-05-01T10:59:47Z</time></trkpt><trkpt lat="44.99572683782854" lon="9.596047733157679"><ele>83.80000000000001</ele><time>2026-05-01T10:59:49Z</time></trkpt><trkpt lat="44.9956254447812" lon="9.595992339779302"><ele>84.0</ele><time>2026-05-01T10:59:50Z</time></trkpt><trkpt lat="44.99552255818668" lon="9.595915557586952"><ele>84.4</ele><time>2026-05-01T10:59:51Z</time></trkpt><trkpt lat="44.995419610186765" lon="9.595850996216072"><ele>84.80000000000001</ele><time>2026-05-01T10:59:52Z</time></trkpt><trkpt lat="44.99533719130965" lon="9.595801160341326"><ele>85.19999999999999</ele><time>2026-05-01T10:59:53Z</time></trkpt><trkpt lat="44.99527140060617" lon="9.595763406308672"><ele>85.6</ele><time>2026-05-01T10:59:54Z</time></trkpt><trkpt lat="44.99517579593532" lon="9.595738900869057"><ele>86.0</ele><time>2026-05-01T10:59:56Z</time></trkpt><trkpt lat="44.99506769924943" lon="9.595815959914187"><ele>85.8</ele><time>2026-05-01T10:59:58Z</time></trkpt><trkpt lat="44.994966849695366" lon="9.595891163453475"><ele>85.6</ele><time>2026-05-01T10:59:59Z</time></trkpt><trkpt lat="44.994879695886546" lon="9.595933131348687"><ele>85.4</ele><time>2026-05-01T11:00:00Z</time></trkpt><trkpt lat="44.99476875462563" lon="9.595931437654913"><ele>85.2</ele><time>2026-05-01T11:00:02Z</time></trkpt><trkpt lat="44.99470487352971" lon="9.595885044029853"><ele>85.0</ele><time>2026-05-01T11:00:03Z</time></trkpt><trkpt lat="44.99464085523418" lon="9.595808649555135"><ele>85.0</ele><time>2026-05-01T11:00:04Z</time></trkpt><trkpt lat="44.99460212568522" lon="9.595725579684204"><ele>85.0</ele><time>2026-05-01T11:00:05Z</time></trkpt><trkpt lat="44.994477304230806" lon="9.595646486922059"><ele>85.0</ele><time>2026-05-01T11:00:08Z</time></trkpt><trkpt lat="44.9943761839721" lon="9.595756198273213"><ele>85.0</ele><time>2026-05-01T11:00:10Z</time></trkpt><trkpt lat="44.994303906830574" lon="9.595864853592804"><ele>85.0</ele><time>2026-05-01T11:00:11Z</time></trkpt><trkpt lat="44.99422006314708" lon="9.595965142151273"><ele>85.25</ele><time>2026-05-01T11:00:12Z</time></trkpt><trkpt lat="44.994134688392215" lon="9.596032015183265"><ele>85.5</ele><time>2026-05-01T11:00:13Z</time></trkpt><trkpt lat="44.99403776069859" lon="9.596061257752654"><ele>85.75</ele><time>2026-05-01T11:00:14Z</time></trkpt><trkpt lat="44.99391015564896" lon="9.59607150985653"><ele>86.0</ele><time>2026-05-01T11:00:15Z</time></trkpt><trkpt lat="44.993766300437116" lon="9.596069964318794"><ele>86.0</ele><time>2026-05-01T11:00:16Z</time></trkpt><trkpt lat="44.99362571589785" lon="9.596073055861858"><ele>86.0</ele><time>2026-05-01T11:00:17Z</time></trkpt><trkpt lat="44.993476069489034" lon="9.596114706183211"><ele>86.0</ele><time>2026-05-01T11:00:18Z</time></trkpt><trkpt lat="44.99334615775919" lon="9.596161329382127"><ele>86.0</ele><time>2026-05-01T11:00:19Z</time></trkpt><trkpt lat="44.99323033575937" lon="9.596190110019636"><ele>85.75</ele><time>2026-05-01T11:00:20Z</time></trkpt><trkpt lat="44.993105321192886" lon="9.596211085089967"><ele>85.5</ele><time>2026-05-01T11:00:21Z</time></trkpt><trkpt lat="44.992972320512806" lon="9.596224343366892"><ele>85.25</ele><time>2026-05-01T11:00:22Z</time></trkpt><trkpt lat="44.9928361444789" lon="9.596224195803712"><ele>85.0</ele><time>2026-05-01T11:00:23Z</time></trkpt><trkpt lat="44.992724609320305" lon="9.596223440941962"><ele>85.0</ele><time>2026-05-01T11:00:24Z</time></trkpt><trkpt lat="44.99263261407234" lon="9.596214633605742"><ele>85.0</ele><time>2026-05-01T11:00:25Z</time></trkpt><trkpt lat="44.99254553440441" lon="9.596184865790834"><ele>85.0</ele><time>2026-05-01T11:00:26Z</time></trkpt><trkpt lat="44.99244335225953" lon="9.59611526562799"><ele>85.0</ele><time>2026-05-01T11:00:27Z</time></trkpt><trkpt lat="44.99232824235639" lon="9.596030566636413"><ele>85.0</ele><time>2026-05-01T11:00:28Z</time></trkpt><trkpt lat="44.99220575269468" lon="9.595942594786598"><ele>85.2</ele><time>2026-05-01T11:00:29Z</time></trkpt><trkpt lat="44.99209891275325" lon="9.595880950415363"><ele>85.4</ele><time>2026-05-01T11:00:30Z</time></trkpt><trkpt lat="44.99200671877015" lon="9.595835565096193"><ele>85.6</ele><time>2026-05-01T11:00:31Z</time></trkpt><trkpt lat="44.99191404083595" lon="9.595814738814237"><ele>85.8</ele><time>2026-05-01T11:00:32Z</time></trkpt><trkpt lat="44.991824051758215" lon="9.59580994846861"><ele>86.0</ele><time>2026-05-01T11:00:33Z</time></trkpt><trkpt lat="44.99173307896622" lon="9.595811629614428"><ele>86.16666666666667</ele><time>2026-05-01T11:00:34Z</time></trkpt><trkpt lat="44.99165721145779" lon="9.595835898220997"><ele>86.33333333333334</ele><time>2026-05-01T11:00:35Z</time></trkpt><trkpt lat="44.99159742945066" lon="9.595879387614032"><ele>86.5</ele><time>2026-05-01T11:00:36Z</time></trkpt><trkpt lat="44.99153986848372" lon="9.595950336531304"><ele>86.66666666666667</ele><time>2026-05-01T11:00:37Z</time></trkpt><trkpt lat="44.99148417674774" lon="9.596046974400569"><ele>86.83333333333333</ele><time>2026-05-01T11:00:38Z</time></trkpt><trkpt lat="44.991426334056364" lon="9.59617190752957"><ele>87.0</ele><time>2026-05-01T11:00:39Z</time></trkpt><trkpt lat="44.99136807121388" lon="9.596328342544718"><ele>87.25</ele><time>2026-05-01T11:00:40Z</time></trkpt><trkpt lat="44.99130308976927" lon="9.596514091106048"><ele>87.5</ele><time>2026-05-01T11:00:41Z</time></trkpt><trkpt lat="44.991235430318675" lon="9.596676665030968"><ele>87.75</ele><time>2026-05-01T11:00:42Z</time></trkpt><trkpt lat="44.99118147622332" lon="9.596796242431985"><ele>88.0</ele><time>2026-05-01T11:00:43Z</time></trkpt><trkpt lat="44.991114538407665" lon="9.596917225881997"><ele>88.0</ele><time>2026-05-01T11:00:44Z</time></trkpt><trkpt lat="44.9910270245113" lon="9.597036774924016"><ele>88.0</ele><time>2026-05-01T11:00:45Z</time></trkpt><trkpt lat="44.9909275866192" lon="9.597129934190331"><ele>88.0</ele><time>2026-05-01T11:00:46Z</time></trkpt><trkpt lat="44.990827963145954" lon="9.597195694167818"><ele>88.0</ele><time>2026-05-01T11:00:47Z</time></trkpt><trkpt lat="44.990721250538385" lon="9.59725566161338"><ele>87.75</ele><time>2026-05-01T11:00:48Z</time></trkpt><trkpt lat="44.99058787165167" lon="9.597322288686"><ele>87.5</ele><time>2026-05-01T11:00:49Z</time></trkpt><trkpt lat="44.99044739549339" lon="9.59738943452837"><ele>87.25</ele><time>2026-05-01T11:00:50Z</time></trkpt><trkpt lat="44.990308278099796" lon="9.597458155909711"><ele>87.0</ele><time>2026-05-01T11:00:51Z</time></trkpt><trkpt lat="44.99017440536415" lon="9.597529399083971"><ele>87.0</ele><time>2026-05-01T11:00:52Z</time></trkpt><trkpt lat="44.990039817739465" lon="9.597606414173763"><ele>87.0</ele><time>2026-05-01T11:00:53Z</time></trkpt><trkpt lat="44.98993351580238" lon="9.597683403263742"><ele>87.0</ele><time>2026-05-01T11:00:54Z</time></trkpt><trkpt lat="44.98984191754463" lon="9.59774159580877"><ele>87.0</ele><time>2026-05-01T11:00:55Z</time></trkpt><trkpt lat="44.98975101692096" lon="9.597773066045958"><ele>87.0</ele><time>2026-05-01T11:00:56Z</time></trkpt><trkpt lat="44.9896355817449" lon="9.597801121973008"><ele>87.0</ele><time>2026-05-01T11:00:57Z</time></trkpt><trkpt lat="44.98952761809776" lon="9.597821091914602"><ele>87.0</ele><time>2026-05-01T11:00:58Z</time></trkpt><trkpt lat="44.98944458877732" lon="9.597831660928186"><ele>87.0</ele><time>2026-05-01T11:00:59Z</time></trkpt><trkpt lat="44.98937496400783" lon="9.597830110970316"><ele>87.0</ele><time>2026-05-01T11:01:00Z</time></trkpt><trkpt lat="44.98925361154212" lon="9.597780845270117"><ele>87.0</ele><time>2026-05-01T11:01:01.999Z</time></trkpt><trkpt lat="44.98913070559179" lon="9.597789433765842"><ele>87.0</ele><time>2026-05-01T11:01:03.999Z</time></trkpt><trkpt lat="44.989066177839625" lon="9.597847017162088"><ele>87.0</ele><time>2026-05-01T11:01:04.999Z</time></trkpt><trkpt lat="44.98896632919945" lon="9.597935477402846"><ele>87.0</ele><time>2026-05-01T11:01:05.999Z</time></trkpt><trkpt lat="44.988852353414515" lon="9.598034695286652"><ele>87.66666666666667</ele><time>2026-05-01T11:01:06.999Z</time></trkpt><trkpt lat="44.988728511030814" lon="9.598131984460235"><ele>88.33333333333334</ele><time>2026-05-01T11:01:07.999Z</time></trkpt><trkpt lat="44.98858579584444" lon="9.59822150201732"><ele>89.0</ele><time>2026-05-01T11:01:08.999Z</time></trkpt><trkpt lat="44.98843531784367" lon="9.598302679073653"><ele>88.75</ele><time>2026-05-01T11:01:09.999Z</time></trkpt><trkpt lat="44.98832152236101" lon="9.598380565960815"><ele>88.5</ele><time>2026-05-01T11:01:10.999Z</time></trkpt><trkpt lat="44.988238276013604" lon="9.598464140643166"><ele>88.25</ele><time>2026-05-01T11:01:11.999Z</time></trkpt><trkpt lat="44.988149085175166" lon="9.598572642952215"><ele>88.0</ele><time>2026-05-01T11:01:12.999Z</time></trkpt><trkpt lat="44.98804387539544" lon="9.59869573249403"><ele>88.0</ele><time>2026-05-01T11:01:13.999Z</time></trkpt><trkpt lat="44.987936680984234" lon="9.598836797406973"><ele>88.0</ele><time>2026-05-01T11:01:14.999Z</time></trkpt><trkpt lat="44.98782679658745" lon="9.598972002770605"><ele>88.0</ele><time>2026-05-01T11:01:15.999Z</time></trkpt><trkpt lat="44.98772947768944" lon="9.599078678069182"><ele>88.0</ele><time>2026-05-01T11:01:16.999Z</time></trkpt><trkpt lat="44.98766164706877" lon="9.599165686824145"><ele>88.0</ele><time>2026-05-01T11:01:17.999Z</time></trkpt><trkpt lat="44.987589261827615" lon="9.599257051662244"><ele>88.0</ele><time>2026-05-01T11:01:18.999Z</time></trkpt><trkpt lat="44.98752038240085" lon="9.599332563993991"><ele>88.0</ele><time>2026-05-01T11:01:19.999Z</time></trkpt><trkpt lat="44.98744745662866" lon="9.59937998638815"><ele>88.0</ele><time>2026-05-01T11:01:20.999Z</time></trkpt><trkpt lat="44.98736243566615" lon="9.599438670826247"><ele>88.0</ele><time>2026-05-01T11:01:21.999Z</time></trkpt><trkpt lat="44.987295600954816" lon="9.599487013960719"><ele>88.0</ele><time>2026-05-01T11:01:22.999Z</time></trkpt><trkpt lat="44.98719139222614" lon="9.599541682730361"><ele>88.16666666666666</ele><time>2026-05-01T11:01:24.999Z</time></trkpt><trkpt lat="44.987116337406896" lon="9.599514400337638"><ele>88.33333333333333</ele><time>2026-05-01T11:01:31.999Z</time></trkpt><trkpt lat="44.987049839981005" lon="9.599578017635709"><ele>88.5</ele><time>2026-05-01T11:01:41Z</time></trkpt><trkpt lat="44.98696515137971" lon="9.599591632270688"><ele>88.66666666666667</ele><time>2026-05-01T11:01:43Z</time></trkpt><trkpt lat="44.9868770800908" lon="9.599592804960782"><ele>88.83333333333334</ele><time>2026-05-01T11:01:45Z</time></trkpt><trkpt lat="44.98679432647797" lon="9.599539043927573"><ele>89.0</ele><time>2026-05-01T11:01:52Z</time></trkpt><trkpt lat="44.986739346076725" lon="9.599475416929172"><ele>89.16666666666667</ele><time>2026-05-01T11:01:53Z</time></trkpt><trkpt lat="44.98667290342202" lon="9.59941119944726"><ele>89.33333333333334</ele><time>2026-05-01T11:01:54Z</time></trkpt><trkpt lat="44.98661178760181" lon="9.59936893189642"><ele>89.5</ele><time>2026-05-01T11:01:55Z</time></trkpt><trkpt lat="44.986515538266815" lon="9.59932602934093"><ele>89.66666666666667</ele><time>2026-05-01T11:01:57Z</time></trkpt><trkpt lat="44.98643833710832" lon="9.599281874923443"><ele>89.83333333333333</ele><time>2026-05-01T11:01:59Z</time></trkpt><trkpt lat="44.98638501054721" lon="9.59923392401235"><ele>90.0</ele><time>2026-05-01T11:02:01Z</time></trkpt><trkpt lat="44.98630402118251" lon="9.599195670716446"><ele>90.0</ele><time>2026-05-01T11:02:03Z</time></trkpt><trkpt lat="44.98620365913964" lon="9.599127524168184"><ele>90.0</ele><time>2026-05-01T11:02:05Z</time></trkpt><trkpt lat="44.98636860482657" lon="9.599355687172313"><ele>90.0</ele><time>2026-05-01T11:02:10Z</time></trkpt><trkpt lat="44.98640219217207" lon="9.59925162332965"><ele>90.0</ele><time>2026-05-01T11:02:13Z</time></trkpt><trkpt lat="44.986596690677395" lon="9.599346137531226"><ele>90.0</ele><time>2026-05-01T11:02:15Z</time></trkpt><trkpt lat="44.98669000830053" lon="9.59940025401579"><ele>90.0</ele><time>2026-05-01T11:02:16Z</time></trkpt><trkpt lat="44.98675781078494" lon="9.599431320661033"><ele>90.0</ele><time>2026-05-01T11:02:17Z</time></trkpt><trkpt lat="44.986855429635895" lon="9.599524015504683"><ele>90.0</ele><time>2026-05-01T11:02:19Z</time></trkpt><trkpt lat="44.98686854063295" lon="9.599674666257599"><ele>90.0</ele><time>2026-05-01T11:02:21Z</time></trkpt><trkpt lat="44.9868543325633" lon="9.59978642180999"><ele>90.0</ele><time>2026-05-01T11:02:22Z</time></trkpt><trkpt lat="44.986822068976345" lon="9.59990807931617"><ele>90.0</ele><time>2026-05-01T11:02:23Z</time></trkpt><trkpt lat="44.98678015734567" lon="9.600101398427194"><ele>90.0</ele><time>2026-05-01T11:02:24Z</time></trkpt><trkpt lat="44.98674138298097" lon="9.600276476303414"><ele>90.0</ele><time>2026-05-01T11:02:25Z</time></trkpt><trkpt lat="44.986717556917796" lon="9.60039274347137"><ele>90.0</ele><time>2026-05-01T11:02:26Z</time></trkpt><trkpt lat="44.98670316802215" lon="9.600486107767942"><ele>90.0</ele><time>2026-05-01T11:02:27Z</time></trkpt><trkpt lat="44.98668020665445" lon="9.600637510791486"><ele>90.0</ele><time>2026-05-01T11:02:29Z</time></trkpt><trkpt lat="44.98658821150418" lon="9.600685898998787"><ele>90.0</ele><time>2026-05-01T11:02:31Z</time></trkpt><trkpt lat="44.986518006994764" lon="9.600674192225622"><ele>90.0</ele><time>2026-05-01T11:02:32Z</time></trkpt><trkpt lat="44.986445020823865" lon="9.600663406553958"><ele>90.0</ele><time>2026-05-01T11:02:33Z</time></trkpt><trkpt lat="44.98636917669963" lon="9.600658027923997"><ele>90.16666666666667</ele><time>2026-05-01T11:02:34Z</time></trkpt><trkpt lat="44.986287770850545" lon="9.60065894031894"><ele>90.33333333333333</ele><time>2026-05-01T11:02:35Z</time></trkpt><trkpt lat="44.98620349899688" lon="9.60066263430852"><ele>90.5</ele><time>2026-05-01T11:02:36Z</time></trkpt><trkpt lat="44.986113326612475" lon="9.600668431373592"><ele>90.66666666666666</ele><time>2026-05-01T11:02:37Z</time></trkpt><trkpt lat="44.98601902116144" lon="9.600664455907614"><ele>90.83333333333333</ele><time>2026-05-01T11:02:38Z</time></trkpt><trkpt lat="44.98593553986037" lon="9.60067180380735"><ele>91.0</ele><time>2026-05-01T11:02:39Z</time></trkpt><trkpt lat="44.98586547281645" lon="9.600695121201179"><ele>91.0</ele><time>2026-05-01T11:02:40Z</time></trkpt><trkpt lat="44.98577198429254" lon="9.6007868367402"><ele>91.0</ele><time>2026-05-01T11:02:42Z</time></trkpt><trkpt lat="44.985696117827864" lon="9.600981711027705"><ele>91.0</ele><time>2026-05-01T11:02:44Z</time></trkpt><trkpt lat="44.985686386068316" lon="9.60109382942396"><ele>91.0</ele><time>2026-05-01T11:02:45Z</time></trkpt><trkpt lat="44.98567700343944" lon="9.601201925606366"><ele>91.0</ele><time>2026-05-01T11:02:46Z</time></trkpt><trkpt lat="44.985667760022814" lon="9.601308417814064"><ele>91.0</ele><time>2026-05-01T11:02:47Z</time></trkpt><trkpt lat="44.98565841696096" lon="9.601416058143476"><ele>91.0</ele><time>2026-05-01T11:02:48Z</time></trkpt><trkpt lat="44.985646627083725" lon="9.601537394700777"><ele>91.0</ele><time>2026-05-01T11:02:49Z</time></trkpt><trkpt lat="44.98563214667591" lon="9.60166828004719"><ele>91.0</ele><time>2026-05-01T11:02:50Z</time></trkpt><trkpt lat="44.985616095644154" lon="9.601814171371082"><ele>91.0</ele><time>2026-05-01T11:02:51Z</time></trkpt><trkpt lat="44.98559900487578" lon="9.60198772691474"><ele>91.19999999999999</ele><time>2026-05-01T11:02:52Z</time></trkpt><trkpt lat="44.985580815053595" lon="9.602168619006816"><ele>91.39999999999999</ele><time>2026-05-01T11:02:53Z</time></trkpt><trkpt lat="44.98556135204716" lon="9.602344051675768"><ele>91.6</ele><time>2026-05-01T11:02:54Z</time></trkpt><trkpt lat="44.98552296352794" lon="9.602491531987516"><ele>91.8</ele><time>2026-05-01T11:02:55Z</time></trkpt><trkpt lat="44.98546574643581" lon="9.60256320344321"><ele>92.0</ele><time>2026-05-01T11:02:55.999Z</time></trkpt><trkpt lat="44.98538473678903" lon="9.602734604587496"><ele>92.0</ele><time>2026-05-01T11:02:57.999Z</time></trkpt><trkpt lat="44.98534964505171" lon="9.602808852092632"><ele>92.0</ele><time>2026-05-01T11:02:58.999Z</time></trkpt><trkpt lat="44.98556731688105" lon="9.603093502499325"><ele>92.0</ele><time>2026-05-01T11:02:59.999Z</time></trkpt><trkpt lat="44.98562026177863" lon="9.603217843847547"><ele>92.0</ele><time>2026-05-01T11:03:01.999Z</time></trkpt><trkpt lat="44.98568480863992" lon="9.603231339253908"><ele>92.0</ele><time>2026-05-01T11:03:02.999Z</time></trkpt><trkpt lat="44.985752705653994" lon="9.603229151610703"><ele>92.0</ele><time>2026-05-01T11:03:03.999Z</time></trkpt><trkpt lat="44.98582661201577" lon="9.603247833127083"><ele>92.0</ele><time>2026-05-01T11:03:05.999Z</time></trkpt><trkpt lat="44.98590792144655" lon="9.603255431268604"><ele>92.0</ele><time>2026-05-01T11:03:07.999Z</time></trkpt><trkpt lat="44.98602126813106" lon="9.603255366064928"><ele>92.0</ele><time>2026-05-01T11:03:10.999Z</time></trkpt><trkpt lat="44.98609072964589" lon="9.603234226114196"><ele>91.8</ele><time>2026-05-01T11:03:11.999Z</time></trkpt><trkpt lat="44.986188467063535" lon="9.603291345474162"><ele>91.6</ele><time>2026-05-01T11:03:13.999Z</time></trkpt><trkpt lat="44.98616375032036" lon="9.60343185512422"><ele>91.39999999999999</ele><time>2026-05-01T11:03:15.999Z</time></trkpt><trkpt lat="44.98613446109265" lon="9.603541621416184"><ele>91.19999999999999</ele><time>2026-05-01T11:03:16.999Z</time></trkpt><trkpt lat="44.98610599011218" lon="9.603698878466359"><ele>91.0</ele><time>2026-05-01T11:03:17.999Z</time></trkpt><trkpt lat="44.9860733179933" lon="9.603871373272547"><ele>91.0</ele><time>2026-05-01T11:03:18.999Z</time></trkpt><trkpt lat="44.98605400801737" lon="9.604062429418756"><ele>91.0</ele><time>2026-05-01T11:03:19.999Z</time></trkpt><trkpt lat="44.98601672275069" lon="9.604267551816458"><ele>91.0</ele><time>2026-05-01T11:03:20.999Z</time></trkpt><trkpt lat="44.98598710725346" lon="9.604459969392597"><ele>91.0</ele><time>2026-05-01T11:03:21.999Z</time></trkpt><trkpt lat="44.98594310553092" lon="9.604613994628956"><ele>91.0</ele><time>2026-05-01T11:03:22.999Z</time></trkpt><trkpt lat="44.985911476841274" lon="9.604785334438011"><ele>91.0</ele><time>2026-05-01T11:03:23.999Z</time></trkpt><trkpt lat="44.985877318530505" lon="9.604970765329254"><ele>91.0</ele><time>2026-05-01T11:03:24.999Z</time></trkpt><trkpt lat="44.98583144948836" lon="9.605207887466925"><ele>91.0</ele><time>2026-05-01T11:03:25.999Z</time></trkpt><trkpt lat="44.985792529885735" lon="9.605408835354728"><ele>91.33333333333333</ele><time>2026-05-01T11:03:26.999Z</time></trkpt><trkpt lat="44.98577360329573" lon="9.605506556340881"><ele>91.66666666666666</ele><time>2026-05-01T11:03:27.999Z</time></trkpt><trkpt lat="44.98575206854239" lon="9.605643401552703"><ele>92.0</ele><time>2026-05-01T11:03:29.999Z</time></trkpt><trkpt lat="44.98573898152897" lon="9.605731261818926"><ele>92.33333333333333</ele><time>2026-05-01T11:03:30.999Z</time></trkpt><trkpt lat="44.985725004432815" lon="9.605825933710776"><ele>92.66666666666667</ele><time>2026-05-01T11:03:31.999Z</time></trkpt><trkpt lat="44.9857096121734" lon="9.605930191053947"><ele>93.0</ele><time>2026-05-01T11:03:33Z</time></trkpt><trkpt lat="44.985691198710875" lon="9.606044325804508"><ele>93.0</ele><time>2026-05-01T11:03:34Z</time></trkpt><trkpt lat="44.9856708741338" lon="9.60615291266247"><ele>93.0</ele><time>2026-05-01T11:03:35Z</time></trkpt><trkpt lat="44.98566388576974" lon="9.606273513378566"><ele>93.0</ele><time>2026-05-01T11:03:36Z</time></trkpt><trkpt lat="44.9856229437432" lon="9.606387460126662"><ele>93.0</ele><time>2026-05-01T11:03:37Z</time></trkpt><trkpt lat="44.98559807321916" lon="9.60650585729002"><ele>93.0</ele><time>2026-05-01T11:03:38Z</time></trkpt><trkpt lat="44.98557480167816" lon="9.606616642376204"><ele>93.0</ele><time>2026-05-01T11:03:39Z</time></trkpt><trkpt lat="44.98556152061625" lon="9.606731671285356"><ele>93.0</ele><time>2026-05-01T11:03:40Z</time></trkpt><trkpt lat="44.9855455251939" lon="9.606831018930366"><ele>93.0</ele><time>2026-05-01T11:03:41Z</time></trkpt><trkpt lat="44.985510420768044" lon="9.606931660383836"><ele>93.0</ele><time>2026-05-01T11:03:43Z</time></trkpt><trkpt lat="44.985502663066626" lon="9.607088919786802"><ele>93.0</ele><time>2026-05-01T11:03:53Z</time></trkpt><trkpt lat="44.98545547864877" lon="9.60721203304244"><ele>93.0</ele><time>2026-05-01T11:03:54Z</time></trkpt><trkpt lat="44.98541966156348" lon="9.607371387257363"><ele>93.0</ele><time>2026-05-01T11:03:55Z</time></trkpt><trkpt lat="44.985378455327655" lon="9.607548314806822"><ele>93.0</ele><time>2026-05-01T11:03:56Z</time></trkpt><trkpt lat="44.98533316672694" lon="9.607738673140348"><ele>93.0</ele><time>2026-05-01T11:03:57Z</time></trkpt><trkpt lat="44.98528474551946" lon="9.60795023721848"><ele>93.0</ele><time>2026-05-01T11:03:58Z</time></trkpt><trkpt lat="44.98526256715873" lon="9.60812601169188"><ele>93.0</ele><time>2026-05-01T11:03:59Z</time></trkpt><trkpt lat="44.98520404765034" lon="9.608275128986708"><ele>93.0</ele><time>2026-05-01T11:04:00Z</time></trkpt><trkpt lat="44.98504435395133" lon="9.60842726749539"><ele>93.0</ele><time>2026-05-01T11:04:01Z</time></trkpt><trkpt lat="44.9849879086335" lon="9.608514989250102"><ele>93.0</ele><time>2026-05-01T11:04:02Z</time></trkpt><trkpt lat="44.98492396580887" lon="9.60867960973632"><ele>93.0</ele><time>2026-05-01T11:04:03Z</time></trkpt><trkpt lat="44.984846751422026" lon="9.60873530202294"><ele>93.0</ele><time>2026-05-01T11:04:04Z</time></trkpt><trkpt lat="44.985046755534356" lon="9.609117795172045"><ele>93.0</ele><time>2026-05-01T11:04:05Z</time></trkpt><trkpt lat="44.98502415391631" lon="9.609224582132727"><ele>93.4</ele><time>2026-05-01T11:04:06Z</time></trkpt><trkpt lat="44.984996379698785" lon="9.609311682862549"><ele>93.80000000000001</ele><time>2026-05-01T11:04:07Z</time></trkpt><trkpt lat="44.98496655329409" lon="9.609470121067774"><ele>94.2</ele><time>2026-05-01T11:04:09Z</time></trkpt><trkpt lat="44.98497582768633" lon="9.609651036615872"><ele>94.6</ele><time>2026-05-01T11:04:11Z</time></trkpt><trkpt lat="44.98497985745469" lon="9.60976750150581"><ele>95.0</ele><time>2026-05-01T11:04:12Z</time></trkpt><trkpt lat="44.98496309198114" lon="9.609875294761475"><ele>95.0</ele><time>2026-05-01T11:04:13Z</time></trkpt><trkpt lat="44.98492744948072" lon="9.610035220701493"><ele>95.0</ele><time>2026-05-01T11:04:15Z</time></trkpt><trkpt lat="44.98490833775822" lon="9.610208737318075"><ele>95.0</ele><time>2026-05-01T11:04:17Z</time></trkpt><trkpt lat="44.98489164951162" lon="9.610328973865336"><ele>95.0</ele><time>2026-05-01T11:04:18Z</time></trkpt><trkpt lat="44.98487134253325" lon="9.610462522562713"><ele>95.0</ele><time>2026-05-01T11:04:19Z</time></trkpt><trkpt lat="44.98485770827645" lon="9.610586384314681"><ele>95.0</ele><time>2026-05-01T11:04:20Z</time></trkpt><trkpt lat="44.98483438787914" lon="9.610718485672194"><ele>95.0</ele><time>2026-05-01T11:04:21Z</time></trkpt><trkpt lat="44.98481749596256" lon="9.610843033922016"><ele>95.0</ele><time>2026-05-01T11:04:22Z</time></trkpt><trkpt lat="44.984804484347" lon="9.610952093794708"><ele>95.0</ele><time>2026-05-01T11:04:23Z</time></trkpt><trkpt lat="44.98479455379093" lon="9.611054663271215"><ele>95.0</ele><time>2026-05-01T11:04:24Z</time></trkpt><trkpt lat="44.98478147085354" lon="9.611155662612394"><ele>95.0</ele><time>2026-05-01T11:04:25Z</time></trkpt><trkpt lat="44.984760755467256" lon="9.61127223560417"><ele>95.0</ele><time>2026-05-01T11:04:26Z</time></trkpt><trkpt lat="44.98474308285163" lon="9.611402500497672"><ele>95.0</ele><time>2026-05-01T11:04:27Z</time></trkpt><trkpt lat="44.98473190829644" lon="9.611522775576935"><ele>95.0</ele><time>2026-05-01T11:04:28Z</time></trkpt><trkpt lat="44.98471718753623" lon="9.611638060096665"><ele>95.0</ele><time>2026-05-01T11:04:29Z</time></trkpt><trkpt lat="44.9846980424755" lon="9.61175672432094"><ele>95.0</ele><time>2026-05-01T11:04:30Z</time></trkpt><trkpt lat="44.98468039556908" lon="9.611893548882293"><ele>95.0</ele><time>2026-05-01T11:04:31Z</time></trkpt><trkpt lat="44.984662299517375" lon="9.612027197784883"><ele>95.0</ele><time>2026-05-01T11:04:32Z</time></trkpt><trkpt lat="44.98464362748382" lon="9.612162350476115"><ele>95.0</ele><time>2026-05-01T11:04:33Z</time></trkpt><trkpt lat="44.98462556921118" lon="9.612284183135472"><ele>95.0</ele><time>2026-05-01T11:04:34Z</time></trkpt><trkpt lat="44.98460784101408" lon="9.612395447468298"><ele>95.0</ele><time>2026-05-01T11:04:35Z</time></trkpt><trkpt lat="44.98459508642394" lon="9.612507812603448"><ele>95.0</ele><time>2026-05-01T11:04:36Z</time></trkpt><trkpt lat="44.98458768375912" lon="9.612620249042351"><ele>95.0</ele><time>2026-05-01T11:04:37Z</time></trkpt><trkpt lat="44.98457703716707" lon="9.612734473876783"><ele>95.2</ele><time>2026-05-01T11:04:38Z</time></trkpt><trkpt lat="44.984548375794205" lon="9.612836847950852"><ele>95.4</ele><time>2026-05-01T11:04:39Z</time></trkpt><trkpt lat="44.98451556143533" lon="9.612976338008387"><ele>95.6</ele><time>2026-05-01T11:04:40Z</time></trkpt><trkpt lat="44.984485780131614" lon="9.613128451811013"><ele>95.8</ele><time>2026-05-01T11:04:41Z</time></trkpt><trkpt lat="44.984469117094896" lon="9.613309018166948"><ele>96.0</ele><time>2026-05-01T11:04:42Z</time></trkpt><trkpt lat="44.98444265425546" lon="9.613495577808935"><ele>96.0</ele><time>2026-05-01T11:04:43Z</time></trkpt><trkpt lat="44.98441868234973" lon="9.613631978515796"><ele>96.0</ele><time>2026-05-01T11:04:44Z</time></trkpt><trkpt lat="44.98439900550194" lon="9.61378530717813"><ele>96.0</ele><time>2026-05-01T11:04:45Z</time></trkpt><trkpt lat="44.98438419252557" lon="9.613934978581046"><ele>96.0</ele><time>2026-05-01T11:04:46Z</time></trkpt><trkpt lat="44.98436923588988" lon="9.614064236658448"><ele>96.0</ele><time>2026-05-01T11:04:47Z</time></trkpt><trkpt lat="44.98435547677638" lon="9.614170501099384"><ele>96.0</ele><time>2026-05-01T11:04:48Z</time></trkpt><trkpt lat="44.984352209582845" lon="9.61429945298317"><ele>96.0</ele><time>2026-05-01T11:04:50Z</time></trkpt><trkpt lat="44.9843999128663" lon="9.614358518588688"><ele>96.0</ele><time>2026-05-01T11:04:51Z</time></trkpt><trkpt lat="44.98448277015304" lon="9.614436138754"><ele>96.0</ele><time>2026-05-01T11:04:52Z</time></trkpt><trkpt lat="44.98460110050687" lon="9.614546512029372"><ele>96.0</ele><time>2026-05-01T11:04:53Z</time></trkpt><trkpt lat="44.98468772883061" lon="9.614623702489132"><ele>96.0</ele><time>2026-05-01T11:04:54Z</time></trkpt><trkpt lat="44.984760170103364" lon="9.614708324778453"><ele>96.0</ele><time>2026-05-01T11:04:55Z</time></trkpt><trkpt lat="44.98481058445451" lon="9.614808571291693"><ele>96.0</ele><time>2026-05-01T11:04:56Z</time></trkpt><trkpt lat="44.984843331870785" lon="9.614923348383336"><ele>96.0</ele><time>2026-05-01T11:04:57Z</time></trkpt><trkpt lat="44.98488417764103" lon="9.615051542867981"><ele>96.0</ele><time>2026-05-01T11:04:58Z</time></trkpt><trkpt lat="44.98494209121322" lon="9.615188484090751"><ele>95.5</ele><time>2026-05-01T11:04:59Z</time></trkpt><trkpt lat="44.98501637966225" lon="9.615328145881886"><ele>95.0</ele><time>2026-05-01T11:05:00Z</time></trkpt><trkpt lat="44.98507332441565" lon="9.61547693771918"><ele>94.5</ele><time>2026-05-01T11:05:01Z</time></trkpt><trkpt lat="44.98516603708984" lon="9.615573579095248"><ele>94.0</ele><time>2026-05-01T11:05:02Z</time></trkpt><trkpt lat="44.98526311825992" lon="9.615674479448343"><ele>94.0</ele><time>2026-05-01T11:05:03Z</time></trkpt><trkpt lat="44.98537774412405" lon="9.6157510498472"><ele>94.0</ele><time>2026-05-01T11:05:04Z</time></trkpt><trkpt lat="44.98552027993078" lon="9.615831829901358"><ele>94.0</ele><time>2026-05-01T11:05:05Z</time></trkpt><trkpt lat="44.9856739215476" lon="9.61591523768427"><ele>94.0</ele><time>2026-05-01T11:05:06Z</time></trkpt><trkpt lat="44.98582824184308" lon="9.616006860801162"><ele>94.0</ele><time>2026-05-01T11:05:07Z</time></trkpt><trkpt lat="44.98597729868045" lon="9.616107680377908"><ele>94.0</ele><time>2026-05-01T11:05:08Z</time></trkpt><trkpt lat="44.98611753585997" lon="9.61624885026642"><ele>94.0</ele><time>2026-05-01T11:05:09Z</time></trkpt><trkpt lat="44.986275007140065" lon="9.616376578168838"><ele>94.0</ele><time>2026-05-01T11:05:10Z</time></trkpt><trkpt lat="44.986445410905105" lon="9.616501595776894"><ele>94.0</ele><time>2026-05-01T11:05:11Z</time></trkpt><trkpt lat="44.98663449516477" lon="9.616628469932495"><ele>94.0</ele><time>2026-05-01T11:05:12Z</time></trkpt><trkpt lat="44.986809881319566" lon="9.616790534101442"><ele>93.66666666666666</ele><time>2026-05-01T11:05:13Z</time></trkpt><trkpt lat="44.986964173051" lon="9.616898933987487"><ele>93.33333333333333</ele><time>2026-05-01T11:05:14Z</time></trkpt><trkpt lat="44.987107204856414" lon="9.617026307589363"><ele>93.0</ele><time>2026-05-01T11:05:15Z</time></trkpt><trkpt lat="44.98725287958922" lon="9.617154674559893"><ele>93.0</ele><time>2026-05-01T11:05:16Z</time></trkpt><trkpt lat="44.987384278768076" lon="9.617311811139357"><ele>93.0</ele><time>2026-05-01T11:05:17Z</time></trkpt><trkpt lat="44.98751601586631" lon="9.617466072815702"><ele>93.0</ele><time>2026-05-01T11:05:18Z</time></trkpt><trkpt lat="44.98765035288437" lon="9.61761722605945"><ele>93.0</ele><time>2026-05-01T11:05:19Z</time></trkpt><trkpt lat="44.987777361197125" lon="9.617761844628683"><ele>93.0</ele><time>2026-05-01T11:05:20Z</time></trkpt><trkpt lat="44.98789543746277" lon="9.617901260859423"><ele>93.0</ele><time>2026-05-01T11:05:21Z</time></trkpt><trkpt lat="44.98802579156234" lon="9.618029181051167"><ele>93.25</ele><time>2026-05-01T11:05:22Z</time></trkpt><trkpt lat="44.9881570540489" lon="9.618120699521342"><ele>93.5</ele><time>2026-05-01T11:05:23Z</time></trkpt><trkpt lat="44.98827239802346" lon="9.618214159135219"><ele>93.75</ele><time>2026-05-01T11:05:24Z</time></trkpt><trkpt lat="44.98837597019173" lon="9.618288379942857"><ele>94.0</ele><time>2026-05-01T11:05:25Z</time></trkpt><trkpt lat="44.98845718513356" lon="9.618374371855628"><ele>94.0</ele><time>2026-05-01T11:05:26Z</time></trkpt><trkpt lat="44.988544341707545" lon="9.618406384545338"><ele>94.0</ele><time>2026-05-01T11:05:27Z</time></trkpt><trkpt lat="44.98861207458112" lon="9.618451645999802"><ele>94.0</ele><time>2026-05-01T11:05:28Z</time></trkpt><trkpt lat="44.98868898306013" lon="9.618491857076068"><ele>94.0</ele><time>2026-05-01T11:05:29Z</time></trkpt><trkpt lat="44.988750188121884" lon="9.618518893647433"><ele>94.0</ele><time>2026-05-01T11:05:30Z</time></trkpt><trkpt lat="44.988803358880546" lon="9.618590395240057"><ele>94.0</ele><time>2026-05-01T11:05:32Z</time></trkpt><trkpt lat="44.9887404686826" lon="9.618736980100595"><ele>94.0</ele><time>2026-05-01T11:05:34Z</time></trkpt><trkpt lat="44.98871515954478" lon="9.618904114529334"><ele>94.0</ele><time>2026-05-01T11:05:35Z</time></trkpt><trkpt lat="44.98868326759824" lon="9.619106140596395"><ele>94.0</ele><time>2026-05-01T11:05:36Z</time></trkpt><trkpt lat="44.98865203254567" lon="9.61934597825478"><ele>94.0</ele><time>2026-05-01T11:05:37Z</time></trkpt><trkpt lat="44.98863831491991" lon="9.61960704096233"><ele>93.0</ele><time>2026-05-01T11:05:38Z</time></trkpt><trkpt lat="44.98859159925363" lon="9.619864092717592"><ele>92.0</ele><time>2026-05-01T11:05:39Z</time></trkpt><trkpt lat="44.98856160370929" lon="9.620109717627225"><ele>91.0</ele><time>2026-05-01T11:05:40Z</time></trkpt><trkpt lat="44.98852832331218" lon="9.62038224129188"><ele>91.0</ele><time>2026-05-01T11:05:41Z</time></trkpt><trkpt lat="44.988494443345346" lon="9.62066781631373"><ele>91.0</ele><time>2026-05-01T11:05:42Z</time></trkpt><trkpt lat="44.9884603023316" lon="9.620968877878118"><ele>91.0</ele><time>2026-05-01T11:05:43Z</time></trkpt><trkpt lat="44.98842509403448" lon="9.621284536538658"><ele>91.0</ele><time>2026-05-01T11:05:44Z</time></trkpt><trkpt lat="44.98839116748294" lon="9.621611409182494"><ele>91.0</ele><time>2026-05-01T11:05:45Z</time></trkpt><trkpt lat="44.988356869459764" lon="9.621941861086777"><ele>91.0</ele><time>2026-05-01T11:05:46Z</time></trkpt><trkpt lat="44.988321325297356" lon="9.622284319071031"><ele>91.0</ele><time>2026-05-01T11:05:47Z</time></trkpt><trkpt lat="44.98828570178" lon="9.622627541528013"><ele>91.66666666666666</ele><time>2026-05-01T11:05:48Z</time></trkpt><trkpt lat="44.988268817696486" lon="9.622951976670096"><ele>92.33333333333333</ele><time>2026-05-01T11:05:49Z</time></trkpt><trkpt lat="44.98822023500664" lon="9.62322544359214"><ele>93.0</ele><time>2026-05-01T11:05:50Z</time></trkpt><trkpt lat="44.9881943090994" lon="9.623438869908034"><ele>93.0</ele><time>2026-05-01T11:05:51Z</time></trkpt><trkpt lat="44.98817311451201" lon="9.623613347214226"><ele>93.0</ele><time>2026-05-01T11:05:52Z</time></trkpt><trkpt lat="44.988157558530354" lon="9.623741406568575"><ele>93.0</ele><time>2026-05-01T11:05:53Z</time></trkpt><trkpt lat="44.98815704361821" lon="9.623904857181236"><ele>93.0</ele><time>2026-05-01T11:05:55Z</time></trkpt><trkpt lat="44.98816778708209" lon="9.623998615419573"><ele>93.0</ele><time>2026-05-01T11:05:56Z</time></trkpt><trkpt lat="44.98817522496967" lon="9.62414506440361"><ele>93.0</ele><time>2026-05-01T11:05:57Z</time></trkpt><trkpt lat="44.98813772644438" lon="9.624336684354175"><ele>93.0</ele><time>2026-05-01T11:05:58Z</time></trkpt><trkpt lat="44.98810972077083" lon="9.624559487228069"><ele>93.0</ele><time>2026-05-01T11:05:59Z</time></trkpt><trkpt lat="44.98807959168887" lon="9.624799742474192"><ele>93.0</ele><time>2026-05-01T11:06:00Z</time></trkpt><trkpt lat="44.988050085369416" lon="9.62506806679606"><ele>93.0</ele><time>2026-05-01T11:06:01Z</time></trkpt><trkpt lat="44.98801725870712" lon="9.625364815042339"><ele>93.0</ele><time>2026-05-01T11:06:02Z</time></trkpt><trkpt lat="44.987999639527835" lon="9.625673602385206"><ele>93.0</ele><time>2026-05-01T11:06:03Z</time></trkpt><trkpt lat="44.987948674921405" lon="9.62598011937656"><ele>93.0</ele><time>2026-05-01T11:06:04Z</time></trkpt><trkpt lat="44.98791187269083" lon="9.626308545630675"><ele>92.0</ele><time>2026-05-01T11:06:05Z</time></trkpt><trkpt lat="44.98787369519723" lon="9.626641902774654"><ele>91.0</ele><time>2026-05-01T11:06:06Z</time></trkpt><trkpt lat="44.987833759687426" lon="9.626987541810227"><ele>91.0</ele><time>2026-05-01T11:06:07Z</time></trkpt><trkpt lat="44.9877923355983" lon="9.6273344923396"><ele>91.0</ele><time>2026-05-01T11:06:08Z</time></trkpt><trkpt lat="44.98775176315696" lon="9.627684486683602"><ele>91.5</ele><time>2026-05-01T11:06:09Z</time></trkpt><trkpt lat="44.987726891835756" lon="9.628040208731154"><ele>92.0</ele><time>2026-05-01T11:06:10Z</time></trkpt><trkpt lat="44.98766904547604" lon="9.628391189594359"><ele>91.5</ele><time>2026-05-01T11:06:11Z</time></trkpt><trkpt lat="44.987626144774055" lon="9.628747092544312"><ele>91.0</ele><time>2026-05-01T11:06:12Z</time></trkpt><trkpt lat="44.9875852813184" lon="9.629098025724689"><ele>91.0</ele><time>2026-05-01T11:06:13Z</time></trkpt><trkpt lat="44.98755878702714" lon="9.62941764836013"><ele>91.0</ele><time>2026-05-01T11:06:14Z</time></trkpt><trkpt lat="44.987487522109035" lon="9.629693305344672"><ele>91.0</ele><time>2026-05-01T11:06:15Z</time></trkpt><trkpt lat="44.987434783802215" lon="9.629992244358705"><ele>91.66666666666666</ele><time>2026-05-01T11:06:16Z</time></trkpt><trkpt lat="44.98740061456786" lon="9.630299658244688"><ele>92.33333333333333</ele><time>2026-05-01T11:06:17Z</time></trkpt><trkpt lat="44.987360484903" lon="9.630614418664125"><ele>93.0</ele><time>2026-05-01T11:06:18Z</time></trkpt><trkpt lat="44.98731500014415" lon="9.630931808285917"><ele>92.0</ele><time>2026-05-01T11:06:19Z</time></trkpt><trkpt lat="44.98726862043394" lon="9.63125379498886"><ele>91.0</ele><time>2026-05-01T11:06:20Z</time></trkpt><trkpt lat="44.98722669676203" lon="9.631577899996625"><ele>91.0</ele><time>2026-05-01T11:06:21Z</time></trkpt><trkpt lat="44.987182171252414" lon="9.631906882296475"><ele>91.0</ele><time>2026-05-01T11:06:22Z</time></trkpt><trkpt lat="44.98713818414245" lon="9.632236880549064"><ele>91.0</ele><time>2026-05-01T11:06:23Z</time></trkpt><trkpt lat="44.98709035770225" lon="9.63257151678545"><ele>91.0</ele><time>2026-05-01T11:06:24Z</time></trkpt><trkpt lat="44.987044554420095" lon="9.632903810567393"><ele>91.5</ele><time>2026-05-01T11:06:25Z</time></trkpt><trkpt lat="44.98700248062924" lon="9.633242132080603"><ele>92.0</ele><time>2026-05-01T11:06:26Z</time></trkpt><trkpt lat="44.98695733137263" lon="9.633584655865182"><ele>92.5</ele><time>2026-05-01T11:06:27Z</time></trkpt><trkpt lat="44.98689665749727" lon="9.633920590673961"><ele>93.0</ele><time>2026-05-01T11:06:28Z</time></trkpt><trkpt lat="44.98684976666254" lon="9.634264270457328"><ele>93.0</ele><time>2026-05-01T11:06:29Z</time></trkpt><trkpt lat="44.9868030662518" lon="9.63460655467778"><ele>93.0</ele><time>2026-05-01T11:06:30Z</time></trkpt><trkpt lat="44.98675622195345" lon="9.634949893334499"><ele>93.0</ele><time>2026-05-01T11:06:31Z</time></trkpt><trkpt lat="44.98671014906181" lon="9.635291709428115"><ele>93.0</ele><time>2026-05-01T11:06:32Z</time></trkpt><trkpt lat="44.98666385000829" lon="9.635636020328015"><ele>92.33333333333333</ele><time>2026-05-01T11:06:33Z</time></trkpt><trkpt lat="44.986632199139024" lon="9.635936211356473"><ele>91.66666666666666</ele><time>2026-05-01T11:06:34Z</time></trkpt><trkpt lat="44.986604421961026" lon="9.636140965812688"><ele>91.0</ele><time>2026-05-01T11:06:35Z</time></trkpt><trkpt lat="44.98658023128612" lon="9.63633644496029"><ele>91.0</ele><time>2026-05-01T11:06:36Z</time></trkpt><trkpt lat="44.986553206505945" lon="9.636553953032221"><ele>91.0</ele><time>2026-05-01T11:06:37Z</time></trkpt><trkpt lat="44.98652248207954" lon="9.636808718352842"><ele>91.0</ele><time>2026-05-01T11:06:38Z</time></trkpt><trkpt lat="44.98648470972294" lon="9.637079922051859"><ele>91.0</ele><time>2026-05-01T11:06:39Z</time></trkpt><trkpt lat="44.98642340577634" lon="9.637364714071758"><ele>91.0</ele><time>2026-05-01T11:06:40Z</time></trkpt><trkpt lat="44.986375709229335" lon="9.637662400811083"><ele>91.0</ele><time>2026-05-01T11:06:41Z</time></trkpt><trkpt lat="44.986325582242394" lon="9.637975256717699"><ele>91.0</ele><time>2026-05-01T11:06:42Z</time></trkpt><trkpt lat="44.98627926218997" lon="9.638294298234639"><ele>91.0</ele><time>2026-05-01T11:06:43Z</time></trkpt><trkpt lat="44.98624701569117" lon="9.638624118827202"><ele>91.0</ele><time>2026-05-01T11:06:44Z</time></trkpt><trkpt lat="44.98620109232335" lon="9.638951807266897"><ele>91.0</ele><time>2026-05-01T11:06:45Z</time></trkpt><trkpt lat="44.986136189439875" lon="9.639274734979878"><ele>91.0</ele><time>2026-05-01T11:06:46Z</time></trkpt><trkpt lat="44.98608614174235" lon="9.639608410487826"><ele>91.0</ele><time>2026-05-01T11:06:47Z</time></trkpt><trkpt lat="44.986036278599585" lon="9.639934204774463"><ele>91.0</ele><time>2026-05-01T11:06:48Z</time></trkpt><trkpt lat="44.98600042991969" lon="9.640267547380317"><ele>91.0</ele><time>2026-05-01T11:06:49Z</time></trkpt><trkpt lat="44.98593200570228" lon="9.640594650702496"><ele>90.5</ele><time>2026-05-01T11:06:50Z</time></trkpt><trkpt lat="44.98588039491571" lon="9.640926243621191"><ele>90.0</ele><time>2026-05-01T11:06:51Z</time></trkpt><trkpt lat="44.98582892455688" lon="9.64125841050008"><ele>90.0</ele><time>2026-05-01T11:06:52Z</time></trkpt><trkpt lat="44.98577619152676" lon="9.641584493722453"><ele>90.0</ele><time>2026-05-01T11:06:53Z</time></trkpt><trkpt lat="44.98572152646664" lon="9.641904872546807"><ele>89.5</ele><time>2026-05-01T11:06:54Z</time></trkpt><trkpt lat="44.98566573906706" lon="9.64222876596701"><ele>89.0</ele><time>2026-05-01T11:06:55Z</time></trkpt><trkpt lat="44.985610677956466" lon="9.642542323939361"><ele>89.5</ele><time>2026-05-01T11:06:56Z</time></trkpt><trkpt lat="44.98555436895143" lon="9.642851936617628"><ele>90.0</ele><time>2026-05-01T11:06:57Z</time></trkpt><trkpt lat="44.985495298554426" lon="9.64315867446036"><ele>90.0</ele><time>2026-05-01T11:06:58Z</time></trkpt><trkpt lat="44.98543578824451" lon="9.643467696682357"><ele>90.0</ele><time>2026-05-01T11:06:59Z</time></trkpt><trkpt lat="44.98538051596419" lon="9.64375179671819"><ele>90.0</ele><time>2026-05-01T11:07:00Z</time></trkpt><trkpt lat="44.98532945673521" lon="9.644006181140501"><ele>90.0</ele><time>2026-05-01T11:07:01Z</time></trkpt><trkpt lat="44.985303026885425" lon="9.644222820191523"><ele>90.0</ele><time>2026-05-01T11:07:02Z</time></trkpt><trkpt lat="44.98526680700516" lon="9.644387876279033"><ele>90.0</ele><time>2026-05-01T11:07:03Z</time></trkpt><trkpt lat="44.985237881232294" lon="9.64453457753955"><ele>90.0</ele><time>2026-05-01T11:07:04Z</time></trkpt><trkpt lat="44.98521878207932" lon="9.64464002541187"><ele>90.4</ele><time>2026-05-01T11:07:05Z</time></trkpt><trkpt lat="44.98522564106515" lon="9.644734982737356"><ele>90.8</ele><time>2026-05-01T11:07:06Z</time></trkpt><trkpt lat="44.98526938265985" lon="9.644829911802084"><ele>91.19999999999999</ele><time>2026-05-01T11:07:07Z</time></trkpt><trkpt lat="44.9853632967333" lon="9.64492430214224"><ele>91.6</ele><time>2026-05-01T11:07:08Z</time></trkpt><trkpt lat="44.985486393510435" lon="9.645014647693404"><ele>92.0</ele><time>2026-05-01T11:07:09Z</time></trkpt><trkpt lat="44.98563907922788" lon="9.645110207367846"><ele>92.0</ele><time>2026-05-01T11:07:10Z</time></trkpt><trkpt lat="44.98579910927728" lon="9.645215616298266"><ele>92.0</ele><time>2026-05-01T11:07:11Z</time></trkpt><trkpt lat="44.98595728981709" lon="9.64532850514731"><ele>92.0</ele><time>2026-05-01T11:07:12Z</time></trkpt><trkpt lat="44.98611117475515" lon="9.645440856288964"><ele>91.66666666666667</ele><time>2026-05-01T11:07:13Z</time></trkpt><trkpt lat="44.98626974225386" lon="9.645549844171573"><ele>91.33333333333333</ele><time>2026-05-01T11:07:14Z</time></trkpt><trkpt lat="44.98641815957188" lon="9.64565925864041"><ele>91.0</ele><time>2026-05-01T11:07:15Z</time></trkpt><trkpt lat="44.98656134353736" lon="9.645768884724635"><ele>90.0</ele><time>2026-05-01T11:07:16Z</time></trkpt><trkpt lat="44.9867038096876" lon="9.645870805560325"><ele>89.0</ele><time>2026-05-01T11:07:17Z</time></trkpt><trkpt lat="44.98684073248294" lon="9.645975299868507"><ele>88.0</ele><time>2026-05-01T11:07:18Z</time></trkpt><trkpt lat="44.98697663979677" lon="9.646077326940727"><ele>88.33333333333333</ele><time>2026-05-01T11:07:19Z</time></trkpt><trkpt lat="44.98711290893951" lon="9.646179911762248"><ele>88.66666666666667</ele><time>2026-05-01T11:07:20Z</time></trkpt><trkpt lat="44.987254002725784" lon="9.64628074740506"><ele>89.0</ele><time>2026-05-01T11:07:21Z</time></trkpt><trkpt lat="44.98739485124901" lon="9.646382402888491"><ele>89.0</ele><time>2026-05-01T11:07:22Z</time></trkpt><trkpt lat="44.9875465106361" lon="9.646490268508218"><ele>89.0</ele><time>2026-05-01T11:07:23Z</time></trkpt><trkpt lat="44.98770830274774" lon="9.646603453289755"><ele>89.0</ele><time>2026-05-01T11:07:24Z</time></trkpt><trkpt lat="44.98788048023964" lon="9.64672329379006"><ele>89.0</ele><time>2026-05-01T11:07:25Z</time></trkpt><trkpt lat="44.988055795507385" lon="9.6468436329334"><ele>89.0</ele><time>2026-05-01T11:07:26Z</time></trkpt><trkpt lat="44.98823817367633" lon="9.646957984634387"><ele>89.0</ele><time>2026-05-01T11:07:27Z</time></trkpt><trkpt lat="44.98842611543379" lon="9.647077466522177"><ele>89.33333333333334</ele><time>2026-05-01T11:07:28Z</time></trkpt><trkpt lat="44.988612996296936" lon="9.6471884113968"><ele>89.66666666666667</ele><time>2026-05-01T11:07:29Z</time></trkpt><trkpt lat="44.988802468621884" lon="9.64729791912792"><ele>90.0</ele><time>2026-05-01T11:07:30Z</time></trkpt><trkpt lat="44.98899304829134" lon="9.647406106094017"><ele>89.33333333333333</ele><time>2026-05-01T11:07:31Z</time></trkpt><trkpt lat="44.98918483472724" lon="9.64751121763682"><ele>88.66666666666666</ele><time>2026-05-01T11:07:32Z</time></trkpt><trkpt lat="44.98937747414408" lon="9.647615640109711"><ele>88.0</ele><time>2026-05-01T11:07:33Z</time></trkpt><trkpt lat="44.98957104090777" lon="9.647727061000241"><ele>88.0</ele><time>2026-05-01T11:07:34Z</time></trkpt><trkpt lat="44.9897729552713" lon="9.647837541159339"><ele>88.0</ele><time>2026-05-01T11:07:35Z</time></trkpt><trkpt lat="44.98997737741216" lon="9.647940065050431"><ele>88.0</ele><time>2026-05-01T11:07:36Z</time></trkpt><trkpt lat="44.99017692182343" lon="9.648045182093147"><ele>88.0</ele><time>2026-05-01T11:07:37Z</time></trkpt><trkpt lat="44.990380468359945" lon="9.648153516272812"><ele>88.0</ele><time>2026-05-01T11:07:38Z</time></trkpt><trkpt lat="44.99057561187364" lon="9.648260159941248"><ele>88.0</ele><time>2026-05-01T11:07:39Z</time></trkpt><trkpt lat="44.99075732569168" lon="9.648340199081343"><ele>88.0</ele><time>2026-05-01T11:07:40Z</time></trkpt><trkpt lat="44.99094408818379" lon="9.648397782900783"><ele>88.0</ele><time>2026-05-01T11:07:41Z</time></trkpt><trkpt lat="44.99113571285167" lon="9.648421574948063"><ele>88.0</ele><time>2026-05-01T11:07:42Z</time></trkpt><trkpt lat="44.991328479342414" lon="9.648423954692005"><ele>88.0</ele><time>2026-05-01T11:07:43Z</time></trkpt><trkpt lat="44.99152509402936" lon="9.648398809570844"><ele>88.0</ele><time>2026-05-01T11:07:44Z</time></trkpt><trkpt lat="44.99172423050213" lon="9.64837695903021"><ele>88.0</ele><time>2026-05-01T11:07:45Z</time></trkpt><trkpt lat="44.991924914846656" lon="9.648366333415945"><ele>88.0</ele><time>2026-05-01T11:07:46Z</time></trkpt><trkpt lat="44.99210261075984" lon="9.648362456521417"><ele>88.0</ele><time>2026-05-01T11:07:47Z</time></trkpt><trkpt lat="44.99225245879786" lon="9.648353652494464"><ele>88.0</ele><time>2026-05-01T11:07:48Z</time></trkpt><trkpt lat="44.99238381109373" lon="9.6483425984966"><ele>88.0</ele><time>2026-05-01T11:07:49Z</time></trkpt><trkpt lat="44.99251186686626" lon="9.64833324927011"><ele>88.0</ele><time>2026-05-01T11:07:50Z</time></trkpt><trkpt lat="44.99263600199463" lon="9.64832584288079"><ele>88.0</ele><time>2026-05-01T11:07:51Z</time></trkpt><trkpt lat="44.99276723618502" lon="9.648325028393979"><ele>88.0</ele><time>2026-05-01T11:07:52Z</time></trkpt><trkpt lat="44.99291006704514" lon="9.64833264019778"><ele>88.0</ele><time>2026-05-01T11:07:53Z</time></trkpt><trkpt lat="44.993053830877535" lon="9.648340074079295"><ele>88.0</ele><time>2026-05-01T11:07:54Z</time></trkpt><trkpt lat="44.99318328272341" lon="9.648348550973294"><ele>88.0</ele><time>2026-05-01T11:07:55Z</time></trkpt><trkpt lat="44.993323492496295" lon="9.648363758943752"><ele>88.0</ele><time>2026-05-01T11:07:56Z</time></trkpt><trkpt lat="44.99348871820985" lon="9.648405361618087"><ele>87.33333333333333</ele><time>2026-05-01T11:07:57Z</time></trkpt><trkpt lat="44.993663066816765" lon="9.648435420495197"><ele>86.66666666666667</ele><time>2026-05-01T11:07:58Z</time></trkpt><trkpt lat="44.99386455540012" lon="9.648422543441567"><ele>86.0</ele><time>2026-05-01T11:07:59Z</time></trkpt><trkpt lat="44.99407500593856" lon="9.648413182185685"><ele>86.0</ele><time>2026-05-01T11:08:00Z</time></trkpt><trkpt lat="44.99427801424157" lon="9.648426333094475"><ele>86.0</ele><time>2026-05-01T11:08:01Z</time></trkpt><trkpt lat="44.994474474405166" lon="9.648443515569642"><ele>86.0</ele><time>2026-05-01T11:08:02Z</time></trkpt><trkpt lat="44.99466459824496" lon="9.648467887985927"><ele>86.0</ele><time>2026-05-01T11:08:03Z</time></trkpt><trkpt lat="44.99484810541602" lon="9.648505442705373"><ele>86.0</ele><time>2026-05-01T11:08:04Z</time></trkpt><trkpt lat="44.99503491783319" lon="9.64855576577657"><ele>86.0</ele><time>2026-05-01T11:08:05Z</time></trkpt><trkpt lat="44.99521369392874" lon="9.648632429464142"><ele>86.0</ele><time>2026-05-01T11:08:06Z</time></trkpt><trkpt lat="44.995398334613434" lon="9.648714288928929"><ele>86.0</ele><time>2026-05-01T11:08:07Z</time></trkpt><trkpt lat="44.99559143760435" lon="9.648789062098547"><ele>86.0</ele><time>2026-05-01T11:08:08Z</time></trkpt><trkpt lat="44.99579140509326" lon="9.648870837334762"><ele>85.33333333333334</ele><time>2026-05-01T11:08:09Z</time></trkpt><trkpt lat="44.99599262947213" lon="9.648957540174953"><ele>84.66666666666667</ele><time>2026-05-01T11:08:10Z</time></trkpt><trkpt lat="44.99617514655745" lon="9.64904761996907"><ele>84.0</ele><time>2026-05-01T11:08:11Z</time></trkpt><trkpt lat="44.996346303091" lon="9.649132083816744"><ele>84.0</ele><time>2026-05-01T11:08:12Z</time></trkpt><trkpt lat="44.99650134089782" lon="9.649204277276098"><ele>84.0</ele><time>2026-05-01T11:08:13Z</time></trkpt><trkpt lat="44.99664761788627" lon="9.649266517215427"><ele>84.0</ele><time>2026-05-01T11:08:14Z</time></trkpt><trkpt lat="44.99677665376492" lon="9.649331919826778"><ele>84.33333333333333</ele><time>2026-05-01T11:08:15Z</time></trkpt><trkpt lat="44.99690679022077" lon="9.649393846331547"><ele>84.66666666666666</ele><time>2026-05-01T11:08:16Z</time></trkpt><trkpt lat="44.99705370640352" lon="9.649457120278244"><ele>85.0</ele><time>2026-05-01T11:08:17Z</time></trkpt><trkpt lat="44.99721246350963" lon="9.64953393459976"><ele>85.0</ele><time>2026-05-01T11:08:18Z</time></trkpt><trkpt lat="44.99738113238822" lon="9.649627081151493"><ele>85.0</ele><time>2026-05-01T11:08:19Z</time></trkpt><trkpt lat="44.997555926495025" lon="9.64972592162891"><ele>85.0</ele><time>2026-05-01T11:08:20Z</time></trkpt><trkpt lat="44.997736334032865" lon="9.64983147841958"><ele>85.33333333333333</ele><time>2026-05-01T11:08:21Z</time></trkpt><trkpt lat="44.99791724982133" lon="9.649937919127742"><ele>85.66666666666667</ele><time>2026-05-01T11:08:22Z</time></trkpt><trkpt lat="44.998094335407735" lon="9.650038242580159"><ele>86.0</ele><time>2026-05-01T11:08:23Z</time></trkpt><trkpt lat="44.99824872572117" lon="9.6501273606882"><ele>85.83333333333334</ele><time>2026-05-01T11:08:24Z</time></trkpt><trkpt lat="44.998358608880565" lon="9.65018762007654"><ele>85.66666666666667</ele><time>2026-05-01T11:08:25Z</time></trkpt><trkpt lat="44.998445655788764" lon="9.650226569272897"><ele>85.5</ele><time>2026-05-01T11:08:26Z</time></trkpt><trkpt lat="44.99851435997597" lon="9.650268754792659"><ele>85.33333333333333</ele><time>2026-05-01T11:08:28Z</time></trkpt><trkpt lat="44.99857786653978" lon="9.650303927948608"><ele>85.16666666666666</ele><time>2026-05-01T11:08:32Z</time></trkpt><trkpt lat="44.99865329456968" lon="9.650350893969435"><ele>85.0</ele><time>2026-05-01T11:08:33Z</time></trkpt><trkpt lat="44.99875698573311" lon="9.650402900124833"><ele>85.0</ele><time>2026-05-01T11:08:34Z</time></trkpt><trkpt lat="44.99889469416041" lon="9.650459141196585"><ele>85.0</ele><time>2026-05-01T11:08:35Z</time></trkpt><trkpt lat="44.99904222600443" lon="9.65053087526097"><ele>85.0</ele><time>2026-05-01T11:08:36Z</time></trkpt><trkpt lat="44.99920905355162" lon="9.650600493461898"><ele>85.0</ele><time>2026-05-01T11:08:37Z</time></trkpt><trkpt lat="44.99936153998513" lon="9.650676346556418"><ele>85.0</ele><time>2026-05-01T11:08:38Z</time></trkpt><trkpt lat="44.99953352475766" lon="9.650760571182081"><ele>85.0</ele><time>2026-05-01T11:08:39Z</time></trkpt><trkpt lat="44.99971098287249" lon="9.650840832003473"><ele>85.0</ele><time>2026-05-01T11:08:40Z</time></trkpt><trkpt lat="44.999897670564756" lon="9.650930351717054"><ele>85.0</ele><time>2026-05-01T11:08:41Z</time></trkpt><trkpt lat="45.00009907085579" lon="9.651012194509406"><ele>85.0</ele><time>2026-05-01T11:08:42Z</time></trkpt><trkpt lat="45.000295463255654" lon="9.651103673773529"><ele>84.66666666666666</ele><time>2026-05-01T11:08:43Z</time></trkpt><trkpt lat="45.00049782949114" lon="9.651199687215438"><ele>84.33333333333333</ele><time>2026-05-01T11:08:44Z</time></trkpt><trkpt lat="45.000708445185374" lon="9.651295735256774"><ele>84.0</ele><time>2026-05-01T11:08:45Z</time></trkpt><trkpt lat="45.00091765074538" lon="9.651398745064796"><ele>83.66666666666667</ele><time>2026-05-01T11:08:46Z</time></trkpt><trkpt lat="45.00112916252983" lon="9.651494674355398"><ele>83.33333333333334</ele><time>2026-05-01T11:08:47Z</time></trkpt><trkpt lat="45.00134088773281" lon="9.651590729179736"><ele>83.0</ele><time>2026-05-01T11:08:48Z</time></trkpt><trkpt lat="45.00155117401023" lon="9.651690009286817"><ele>83.0</ele><time>2026-05-01T11:08:49Z</time></trkpt><trkpt lat="45.00175627379376" lon="9.651798530265905"><ele>83.0</ele><time>2026-05-01T11:08:50Z</time></trkpt><trkpt lat="45.001951889157134" lon="9.651909575683263"><ele>83.0</ele><time>2026-05-01T11:08:51Z</time></trkpt><trkpt lat="45.002150072323346" lon="9.652022292682219"><ele>83.0</ele><time>2026-05-01T11:08:52Z</time></trkpt><trkpt lat="45.002333783696976" lon="9.652174922467271"><ele>83.0</ele><time>2026-05-01T11:08:53Z</time></trkpt><trkpt lat="45.00252597556009" lon="9.65229054905037"><ele>83.0</ele><time>2026-05-01T11:08:54Z</time></trkpt><trkpt lat="45.002702137727056" lon="9.652439135292365"><ele>82.66666666666667</ele><time>2026-05-01T11:08:55Z</time></trkpt><trkpt lat="45.00288074166319" lon="9.652581579763202"><ele>82.33333333333333</ele><time>2026-05-01T11:08:56Z</time></trkpt><trkpt lat="45.00306066424348" lon="9.652726670121796"><ele>82.0</ele><time>2026-05-01T11:08:57Z</time></trkpt><trkpt lat="45.003237193365365" lon="9.652870309708916"><ele>81.33333333333333</ele><time>2026-05-01T11:08:58Z</time></trkpt><trkpt lat="45.00340791224044" lon="9.653018302170658"><ele>80.66666666666667</ele><time>2026-05-01T11:08:59Z</time></trkpt><trkpt lat="45.00358464717624" lon="9.653166707988307"><ele>80.0</ele><time>2026-05-01T11:09:00Z</time></trkpt><trkpt lat="45.00376154743562" lon="9.65331675566382"><ele>80.0</ele><time>2026-05-01T11:09:01Z</time></trkpt><trkpt lat="45.00394289059631" lon="9.65346323732626"><ele>80.0</ele><time>2026-05-01T11:09:02Z</time></trkpt><trkpt lat="45.00412481240316" lon="9.653605973856859"><ele>80.0</ele><time>2026-05-01T11:09:03Z</time></trkpt><trkpt lat="45.004291172070154" lon="9.653742084863612"><ele>80.33333333333334</ele><time>2026-05-01T11:09:04Z</time></trkpt><trkpt lat="45.00444237712447" lon="9.653868052509576"><ele>80.66666666666667</ele><time>2026-05-01T11:09:05Z</time></trkpt><trkpt lat="45.004573826546995" lon="9.653978577497218"><ele>81.0</ele><time>2026-05-01T11:09:06Z</time></trkpt><trkpt lat="45.00466618243404" lon="9.654104189297312"><ele>81.0</ele><time>2026-05-01T11:09:07Z</time></trkpt><trkpt lat="45.0047558621504" lon="9.65422920479032"><ele>81.0</ele><time>2026-05-01T11:09:08Z</time></trkpt><trkpt lat="45.0048562684915" lon="9.654378955529289"><ele>81.0</ele><time>2026-05-01T11:09:09Z</time></trkpt><trkpt lat="45.00497520437657" lon="9.65455878249675"><ele>81.0</ele><time>2026-05-01T11:09:10Z</time></trkpt><trkpt lat="45.005121341929595" lon="9.654739777319529"><ele>81.66666666666667</ele><time>2026-05-01T11:09:11Z</time></trkpt><trkpt lat="45.005270886075486" lon="9.654933269732933"><ele>82.33333333333334</ele><time>2026-05-01T11:09:12Z</time></trkpt><trkpt lat="45.005437849475435" lon="9.655113390580249"><ele>83.0</ele><time>2026-05-01T11:09:13Z</time></trkpt><trkpt lat="45.005612085999125" lon="9.655281042877586"><ele>82.33333333333334</ele><time>2026-05-01T11:09:14Z</time></trkpt><trkpt lat="45.005770479626406" lon="9.655425018558965"><ele>81.66666666666667</ele><time>2026-05-01T11:09:15Z</time></trkpt><trkpt lat="45.00590087894097" lon="9.655583043906661"><ele>81.0</ele><time>2026-05-01T11:09:16Z</time></trkpt><trkpt lat="45.0060252472263" lon="9.655737309934981"><ele>81.0</ele><time>2026-05-01T11:09:17Z</time></trkpt><trkpt lat="45.00615242093799" lon="9.65589871947077"><ele>81.0</ele><time>2026-05-01T11:09:18Z</time></trkpt><trkpt lat="45.00629415399911" lon="9.65604351258292"><ele>81.0</ele><time>2026-05-01T11:09:19Z</time></trkpt><trkpt lat="45.00641232795883" lon="9.656185150487152"><ele>80.66666666666667</ele><time>2026-05-01T11:09:20Z</time></trkpt><trkpt lat="45.006545450052336" lon="9.656321082904984"><ele>80.33333333333334</ele><time>2026-05-01T11:09:21Z</time></trkpt><trkpt lat="45.00670731773675" lon="9.656438532417418"><ele>80.0</ele><time>2026-05-01T11:09:22Z</time></trkpt><trkpt lat="45.00688050288387" lon="9.656535423267346"><ele>79.66666666666667</ele><time>2026-05-01T11:09:23Z</time></trkpt><trkpt lat="45.00703338172609" lon="9.656642619033985"><ele>79.33333333333333</ele><time>2026-05-01T11:09:24Z</time></trkpt><trkpt lat="45.00715895679338" lon="9.656771607583561"><ele>79.0</ele><time>2026-05-01T11:09:25Z</time></trkpt><trkpt lat="45.007291203086695" lon="9.656903491783279"><ele>79.0</ele><time>2026-05-01T11:09:26Z</time></trkpt><trkpt lat="45.00743267775952" lon="9.65705836795927"><ele>79.0</ele><time>2026-05-01T11:09:27Z</time></trkpt><trkpt lat="45.00758172618189" lon="9.657225886257805"><ele>79.0</ele><time>2026-05-01T11:09:28Z</time></trkpt><trkpt lat="45.007745458052185" lon="9.657408165921241"><ele>79.33333333333333</ele><time>2026-05-01T11:09:29Z</time></trkpt><trkpt lat="45.00791336372448" lon="9.657580604061165"><ele>79.66666666666667</ele><time>2026-05-01T11:09:30Z</time></trkpt><trkpt lat="45.00808539564843" lon="9.657713036593575"><ele>80.0</ele><time>2026-05-01T11:09:31Z</time></trkpt><trkpt lat="45.00825234905631" lon="9.657850421251258"><ele>79.0</ele><time>2026-05-01T11:09:32Z</time></trkpt><trkpt lat="45.008426466134445" lon="9.65796023446223"><ele>78.0</ele><time>2026-05-01T11:09:33Z</time></trkpt><trkpt lat="45.008607546319276" lon="9.658051532745246"><ele>77.0</ele><time>2026-05-01T11:09:34Z</time></trkpt><trkpt lat="45.00879309845507" lon="9.658142527443013"><ele>77.0</ele><time>2026-05-01T11:09:35Z</time></trkpt><trkpt lat="45.008952740292386" lon="9.658228983230977"><ele>77.0</ele><time>2026-05-01T11:09:36Z</time></trkpt><trkpt lat="45.00909692743136" lon="9.65830890107123"><ele>77.0</ele><time>2026-05-01T11:09:37Z</time></trkpt><trkpt lat="45.0092170803187" lon="9.658383344030435"><ele>77.0</ele><time>2026-05-01T11:09:38Z</time></trkpt><trkpt lat="45.009307373759725" lon="9.65846053395353"><ele>77.0</ele><time>2026-05-01T11:09:39Z</time></trkpt><trkpt lat="45.009375973789815" lon="9.658487340686435"><ele>77.0</ele><time>2026-05-01T11:09:40Z</time></trkpt><trkpt lat="45.00945964186367" lon="9.65848476928105"><ele>77.0</ele><time>2026-05-01T11:09:42Z</time></trkpt><trkpt lat="45.00949389954971" lon="9.658397343080688"><ele>77.0</ele><time>2026-05-01T11:09:43Z</time></trkpt><trkpt lat="45.009507076446624" lon="9.658275297362783"><ele>77.0</ele><time>2026-05-01T11:09:44Z</time></trkpt><trkpt lat="45.00950554154864" lon="9.658091203289624"><ele>77.0</ele><time>2026-05-01T11:09:45Z</time></trkpt><trkpt lat="45.00951525494066" lon="9.657884015166074"><ele>77.0</ele><time>2026-05-01T11:09:46Z</time></trkpt><trkpt lat="45.009535643088924" lon="9.657659619600269"><ele>77.0</ele><time>2026-05-01T11:09:47Z</time></trkpt><trkpt lat="45.009558284762214" lon="9.657408137294494"><ele>77.0</ele><time>2026-05-01T11:09:48Z</time></trkpt><trkpt lat="45.0095886183481" lon="9.657137155369373"><ele>77.0</ele><time>2026-05-01T11:09:49Z</time></trkpt><trkpt lat="45.009628523968615" lon="9.656949051000966"><ele>77.0</ele><time>2026-05-01T11:09:50Z</time></trkpt><trkpt lat="45.0096448937313" lon="9.656854709068954"><ele>77.0</ele><time>2026-05-01T11:09:51Z</time></trkpt><trkpt lat="45.009718359762665" lon="9.656827402847483"><ele>77.0</ele><time>2026-05-01T11:09:54Z</time></trkpt><trkpt lat="45.00977457545763" lon="9.656924837668331"><ele>77.0</ele><time>2026-05-01T11:09:55Z</time></trkpt><trkpt lat="45.00989797759502" lon="9.656975111593004"><ele>77.0</ele><time>2026-05-01T11:09:56Z</time></trkpt><trkpt lat="45.010040002057494" lon="9.65706603722879"><ele>77.0</ele><time>2026-05-01T11:09:57Z</time></trkpt><trkpt lat="45.010197114571476" lon="9.657143235913935"><ele>76.66666666666667</ele><time>2026-05-01T11:09:58Z</time></trkpt><trkpt lat="45.010371683368426" lon="9.657243621709972"><ele>76.33333333333333</ele><time>2026-05-01T11:09:59Z</time></trkpt><trkpt lat="45.010552779728954" lon="9.657345492642088"><ele>76.0</ele><time>2026-05-01T11:10:00Z</time></trkpt><trkpt lat="45.01074296424206" lon="9.657448900964312"><ele>76.33333333333333</ele><time>2026-05-01T11:10:01Z</time></trkpt><trkpt lat="45.010946009662455" lon="9.65755735522475"><ele>76.66666666666667</ele><time>2026-05-01T11:10:02Z</time></trkpt><trkpt lat="45.0111482018478" lon="9.657669290515164"><ele>77.0</ele><time>2026-05-01T11:10:03Z</time></trkpt><trkpt lat="45.01135006925472" lon="9.657781775878787"><ele>76.66666666666667</ele><time>2026-05-01T11:10:04Z</time></trkpt><trkpt lat="45.01154926166006" lon="9.657895654690137"><ele>76.33333333333333</ele><time>2026-05-01T11:10:05Z</time></trkpt><trkpt lat="45.011748404223596" lon="9.65800569941057"><ele>76.0</ele><time>2026-05-01T11:10:06Z</time></trkpt><trkpt lat="45.01194253922249" lon="9.658115132138096"><ele>75.66666666666666</ele><time>2026-05-01T11:10:07Z</time></trkpt><trkpt lat="45.01213361566234" lon="9.65822234684297"><ele>75.33333333333333</ele><time>2026-05-01T11:10:08Z</time></trkpt><trkpt lat="45.0123127589653" lon="9.658316545601956"><ele>75.0</ele><time>2026-05-01T11:10:09Z</time></trkpt><trkpt lat="45.01247703748178" lon="9.658407253368793"><ele>75.6</ele><time>2026-05-01T11:10:10Z</time></trkpt><trkpt lat="45.01262027896765" lon="9.658488648280073"><ele>76.2</ele><time>2026-05-01T11:10:11Z</time></trkpt><trkpt lat="45.012735222185874" lon="9.658552090910415"><ele>76.8</ele><time>2026-05-01T11:10:12Z</time></trkpt><trkpt lat="45.01281127565525" lon="9.65859186130963"><ele>77.4</ele><time>2026-05-01T11:10:13Z</time></trkpt><trkpt lat="45.012874641673584" lon="9.658635067929477"><ele>78.0</ele><time>2026-05-01T11:10:15Z</time></trkpt><trkpt lat="45.01285326411508" lon="9.65881061858402"><ele>78.25</ele><time>2026-05-01T11:10:18Z</time></trkpt><trkpt lat="45.01284413521979" lon="9.65894687802915"><ele>78.5</ele><time>2026-05-01T11:10:19Z</time></trkpt><trkpt lat="45.01282023827238" lon="9.6590996441148"><ele>78.75</ele><time>2026-05-01T11:10:20Z</time></trkpt><trkpt lat="45.01279471467342" lon="9.659259702175229"><ele>79.0</ele><time>2026-05-01T11:10:21Z</time></trkpt><trkpt lat="45.01276563061011" lon="9.659442087885349"><ele>79.0</ele><time>2026-05-01T11:10:22Z</time></trkpt><trkpt lat="45.012735679217734" lon="9.659623775263265"><ele>79.0</ele><time>2026-05-01T11:10:23Z</time></trkpt><trkpt lat="45.01270406712461" lon="9.659817996320562"><ele>79.0</ele><time>2026-05-01T11:10:24Z</time></trkpt><trkpt lat="45.0126707914858" lon="9.660001491354835"><ele>79.0</ele><time>2026-05-01T11:10:25Z</time></trkpt><trkpt lat="45.01265443151162" lon="9.660183417946168"><ele>78.4</ele><time>2026-05-01T11:10:26Z</time></trkpt><trkpt lat="45.012628678101564" lon="9.66033337934477"><ele>77.80000000000001</ele><time>2026-05-01T11:10:27Z</time></trkpt><trkpt lat="45.01263174687469" lon="9.660479552501219"><ele>77.19999999999999</ele><time>2026-05-01T11:10:28Z</time></trkpt><trkpt lat="45.01269112547512" lon="9.660583108629634"><ele>76.6</ele><time>2026-05-01T11:10:29Z</time></trkpt><trkpt lat="45.01277064603643" lon="9.660644965674187"><ele>76.0</ele><time>2026-05-01T11:10:30Z</time></trkpt><trkpt lat="45.01286661724666" lon="9.660740640843013"><ele>76.0</ele><time>2026-05-01T11:10:31Z</time></trkpt><trkpt lat="45.013004082365626" lon="9.660807465604647"><ele>76.0</ele><time>2026-05-01T11:10:32Z</time></trkpt><trkpt lat="45.013160470994" lon="9.660895465106483"><ele>76.0</ele><time>2026-05-01T11:10:33Z</time></trkpt><trkpt lat="45.01330925871271" lon="9.661000531954894"><ele>76.0</ele><time>2026-05-01T11:10:34Z</time></trkpt><trkpt lat="45.013431507646175" lon="9.66108603947534"><ele>76.0</ele><time>2026-05-01T11:10:35Z</time></trkpt><trkpt lat="45.013537471472986" lon="9.6611605566858"><ele>76.0</ele><time>2026-05-01T11:10:36Z</time></trkpt><trkpt lat="45.01363648427125" lon="9.661229319286576"><ele>76.0</ele><time>2026-05-01T11:10:37Z</time></trkpt><trkpt lat="45.01371826923039" lon="9.66129020097214"><ele>76.0</ele><time>2026-05-01T11:10:38Z</time></trkpt><trkpt lat="45.01378400997329" lon="9.66141297928623"><ele>76.0</ele><time>2026-05-01T11:10:40Z</time></trkpt><trkpt lat="45.013762350549555" lon="9.661506893352593"><ele>76.0</ele><time>2026-05-01T11:10:41Z</time></trkpt><trkpt lat="45.01371642339571" lon="9.661621793559451"><ele>76.0</ele><time>2026-05-01T11:10:42Z</time></trkpt><trkpt lat="45.013648642954514" lon="9.661770882400464"><ele>76.0</ele><time>2026-05-01T11:10:43Z</time></trkpt><trkpt lat="45.0135551436156" lon="9.66192992483375"><ele>76.33333333333333</ele><time>2026-05-01T11:10:44Z</time></trkpt><trkpt lat="45.013478958265324" lon="9.662130680164525"><ele>76.66666666666667</ele><time>2026-05-01T11:10:45Z</time></trkpt><trkpt lat="45.013400272323324" lon="9.66234398543419"><ele>77.0</ele><time>2026-05-01T11:10:46Z</time></trkpt><trkpt lat="45.01332843979585" lon="9.662543723605438"><ele>77.0</ele><time>2026-05-01T11:10:47Z</time></trkpt><trkpt lat="45.013267900496345" lon="9.66271930681297"><ele>77.0</ele><time>2026-05-01T11:10:48Z</time></trkpt><trkpt lat="45.01322637799355" lon="9.66287991040423"><ele>77.0</ele><time>2026-05-01T11:10:49Z</time></trkpt><trkpt lat="45.01317269025006" lon="9.66305908881234"><ele>77.0</ele><time>2026-05-01T11:10:50Z</time></trkpt><trkpt lat="45.01313642486627" lon="9.663269411407846"><ele>77.0</ele><time>2026-05-01T11:10:51Z</time></trkpt><trkpt lat="45.013114631033744" lon="9.663494410987322"><ele>77.0</ele><time>2026-05-01T11:10:52Z</time></trkpt><trkpt lat="45.013096183478616" lon="9.66373462385885"><ele>77.0</ele><time>2026-05-01T11:10:53Z</time></trkpt><trkpt lat="45.01306553406225" lon="9.663990680709723"><ele>77.0</ele><time>2026-05-01T11:10:54Z</time></trkpt><trkpt lat="45.01301732861504" lon="9.664230017772246"><ele>77.0</ele><time>2026-05-01T11:10:55Z</time></trkpt><trkpt lat="45.01298375991877" lon="9.664474148468615"><ele>77.0</ele><time>2026-05-01T11:10:56Z</time></trkpt><trkpt lat="45.01297086615768" lon="9.664689975363109"><ele>77.0</ele><time>2026-05-01T11:10:57Z</time></trkpt><trkpt lat="45.012940278616554" lon="9.664902098132407"><ele>77.0</ele><time>2026-05-01T11:10:58Z</time></trkpt><trkpt lat="45.012902371924255" lon="9.665124102613092"><ele>77.0</ele><time>2026-05-01T11:10:59Z</time></trkpt><trkpt lat="45.01286879642886" lon="9.665350449160334"><ele>77.0</ele><time>2026-05-01T11:11:00Z</time></trkpt><trkpt lat="45.012831014392916" lon="9.665576636769302"><ele>77.0</ele><time>2026-05-01T11:11:01Z</time></trkpt><trkpt lat="45.012789866830914" lon="9.665779307334532"><ele>77.0</ele><time>2026-05-01T11:11:02Z</time></trkpt><trkpt lat="45.01275094699272" lon="9.665962294817374"><ele>77.0</ele><time>2026-05-01T11:11:03Z</time></trkpt><trkpt lat="45.012711053350046" lon="9.666152674365483"><ele>77.66666666666667</ele><time>2026-05-01T11:11:04Z</time></trkpt><trkpt lat="45.01267007772647" lon="9.666375138491805"><ele>78.33333333333333</ele><time>2026-05-01T11:11:05Z</time></trkpt><trkpt lat="45.012622531034594" lon="9.666605678923473"><ele>79.0</ele><time>2026-05-01T11:11:06Z</time></trkpt><trkpt lat="45.01257172197661" lon="9.666840515664848"><ele>79.0</ele><time>2026-05-01T11:11:07Z</time></trkpt><trkpt lat="45.0124940240439" lon="9.66706334487829"><ele>79.0</ele><time>2026-05-01T11:11:08Z</time></trkpt><trkpt lat="45.012400045806636" lon="9.667271234779603"><ele>79.0</ele><time>2026-05-01T11:11:09Z</time></trkpt><trkpt lat="45.0122987260234" lon="9.667494294426406"><ele>78.33333333333333</ele><time>2026-05-01T11:11:10Z</time></trkpt><trkpt lat="45.01219957272131" lon="9.667728305710476"><ele>77.66666666666667</ele><time>2026-05-01T11:11:11Z</time></trkpt><trkpt lat="45.01209788705977" lon="9.667966494771216"><ele>77.0</ele><time>2026-05-01T11:11:12Z</time></trkpt><trkpt lat="45.01199438612674" lon="9.668199719656851"><ele>77.5</ele><time>2026-05-01T11:11:13Z</time></trkpt><trkpt lat="45.01179853479471" lon="9.668659561622894"><ele>78.0</ele><time>2026-05-01T11:11:15Z</time></trkpt><trkpt lat="45.011707203534755" lon="9.66888677178161"><ele>77.33333333333333</ele><time>2026-05-01T11:11:16Z</time></trkpt><trkpt lat="45.01161949706615" lon="9.669115814192487"><ele>76.66666666666666</ele><time>2026-05-01T11:11:17Z</time></trkpt><trkpt lat="45.01155101887978" lon="9.669361395828089"><ele>76.0</ele><time>2026-05-01T11:11:18Z</time></trkpt><trkpt lat="45.01146762201329" lon="9.669604099634945"><ele>76.33333333333333</ele><time>2026-05-01T11:11:19Z</time></trkpt><trkpt lat="45.01138364677143" lon="9.669854051870702"><ele>76.66666666666667</ele><time>2026-05-01T11:11:20Z</time></trkpt><trkpt lat="45.01129848130619" lon="9.670109159104314"><ele>77.0</ele><time>2026-05-01T11:11:20.999Z</time></trkpt><trkpt lat="45.01122058776031" lon="9.670366828476192"><ele>77.0</ele><time>2026-05-01T11:11:21.999Z</time></trkpt><trkpt lat="45.01113717845385" lon="9.670621931407725"><ele>77.0</ele><time>2026-05-01T11:11:22.999Z</time></trkpt><trkpt lat="45.01105544190433" lon="9.67087659359253"><ele>77.0</ele><time>2026-05-01T11:11:23.999Z</time></trkpt><trkpt lat="45.01097699416972" lon="9.671130432222705"><ele>76.0</ele><time>2026-05-01T11:11:24.999Z</time></trkpt><trkpt lat="45.0108955714843" lon="9.671381964056863"><ele>75.0</ele><time>2026-05-01T11:11:25.999Z</time></trkpt><trkpt lat="45.010826191532956" lon="9.671631137179697"><ele>74.0</ele><time>2026-05-01T11:11:26.999Z</time></trkpt><trkpt lat="45.01073358479717" lon="9.671866055611389"><ele>74.0</ele><time>2026-05-01T11:11:27.999Z</time></trkpt><trkpt lat="45.01066338193742" lon="9.67208773688869"><ele>74.0</ele><time>2026-05-01T11:11:28.999Z</time></trkpt><trkpt lat="45.01062643822963" lon="9.672256068961143"><ele>74.0</ele><time>2026-05-01T11:11:29.999Z</time></trkpt><trkpt lat="45.010590353531725" lon="9.672363116648672"><ele>74.0</ele><time>2026-05-01T11:11:30.999Z</time></trkpt><trkpt lat="45.01054337911498" lon="9.6724267276276"><ele>74.0</ele><time>2026-05-01T11:11:32.999Z</time></trkpt><trkpt lat="45.01053713209794" lon="9.672709037209495"><ele>74.0</ele><time>2026-05-01T11:11:33.999Z</time></trkpt><trkpt lat="45.01041792761431" lon="9.672750365301109"><ele>74.0</ele><time>2026-05-01T11:11:34.999Z</time></trkpt><trkpt lat="45.0103166858688" lon="9.67275036529316"><ele>74.0</ele><time>2026-05-01T11:11:35.999Z</time></trkpt><trkpt lat="45.01010667657371" lon="9.672685281703876"><ele>74.0</ele><time>2026-05-01T11:11:36.999Z</time></trkpt><trkpt lat="45.0099930540105" lon="9.672512205461077"><ele>74.0</ele><time>2026-05-01T11:11:37.999Z</time></trkpt><trkpt lat="45.00986770082429" lon="9.672438458306596"><ele>74.0</ele><time>2026-05-01T11:11:38.999Z</time></trkpt><trkpt lat="45.009757685558874" lon="9.672377940733815"><ele>74.0</ele><time>2026-05-01T11:11:39.999Z</time></trkpt><trkpt lat="45.009621624118154" lon="9.672303586105429"><ele>74.0</ele><time>2026-05-01T11:11:40.999Z</time></trkpt><trkpt lat="45.00950521325862" lon="9.672239970099389"><ele>74.0</ele><time>2026-05-01T11:11:41.999Z</time></trkpt><trkpt lat="45.009388722239265" lon="9.672176310281852"><ele>74.0</ele><time>2026-05-01T11:11:42.999Z</time></trkpt><trkpt lat="45.00926427275128" lon="9.672111649935994"><ele>74.0</ele><time>2026-05-01T11:11:43.999Z</time></trkpt><trkpt lat="45.00915505259833" lon="9.672055826309387"><ele>74.0</ele><time>2026-05-01T11:11:44.999Z</time></trkpt><trkpt lat="45.00905996405903" lon="9.672007225499609"><ele>74.5</ele><time>2026-05-01T11:11:45.999Z</time></trkpt><trkpt lat="45.00897045459087" lon="9.671961476219504"><ele>75.0</ele><time>2026-05-01T11:11:46.999Z</time></trkpt><trkpt lat="45.00889169440241" lon="9.671921221014715"><ele>75.5</ele><time>2026-05-01T11:11:47.999Z</time></trkpt><trkpt lat="45.00879765275996" lon="9.671873155290594"><ele>76.0</ele><time>2026-05-01T11:11:49.999Z</time></trkpt><trkpt lat="45.00890071448748" lon="9.67125749082513"><ele>76.0</ele><time>2026-05-01T11:11:52.999Z</time></trkpt><trkpt lat="45.008930912963166" lon="9.671157062416942"><ele>76.0</ele><time>2026-05-01T11:11:53.999Z</time></trkpt><trkpt lat="45.00892402010775" lon="9.671003523162716"><ele>76.0</ele><time>2026-05-01T11:11:55.999Z</time></trkpt><trkpt lat="45.008834735758334" lon="9.670949024166653"><ele>76.0</ele><time>2026-05-01T11:11:57.999Z</time></trkpt><trkpt lat="45.008734184146704" lon="9.671039931351915"><ele>76.0</ele><time>2026-05-01T11:11:58.999Z</time></trkpt><trkpt lat="45.008637278662654" lon="9.670988888031859"><ele>76.2</ele><time>2026-05-01T11:12:00Z</time></trkpt><trkpt lat="45.00853052636385" lon="9.670932658068306"><ele>76.39999999999999</ele><time>2026-05-01T11:12:01Z</time></trkpt><trkpt lat="45.008437260033425" lon="9.670883531608714"><ele>76.6</ele><time>2026-05-01T11:12:02Z</time></trkpt><trkpt lat="45.00834753659834" lon="9.670836271311858"><ele>76.8</ele><time>2026-05-01T11:12:03Z</time></trkpt><trkpt lat="45.00825017125113" lon="9.670784985761463"><ele>77.0</ele><time>2026-05-01T11:12:04Z</time></trkpt><trkpt lat="45.00815260498909" lon="9.670733594376138"><ele>77.0</ele><time>2026-05-01T11:12:05Z</time></trkpt><trkpt lat="45.0080377459283" lon="9.670673094301373"><ele>77.0</ele><time>2026-05-01T11:12:06Z</time></trkpt><trkpt lat="45.007835772956454" lon="9.670981789513108"><ele>77.0</ele><time>2026-05-01T11:12:07Z</time></trkpt><trkpt lat="45.00773292861872" lon="9.670930015136074"><ele>77.0</ele><time>2026-05-01T11:12:08Z</time></trkpt><trkpt lat="45.007633723429755" lon="9.670880072798038"><ele>77.0</ele><time>2026-05-01T11:12:09Z</time></trkpt><trkpt lat="45.00755452869427" lon="9.670840204215267"><ele>77.0</ele><time>2026-05-01T11:12:10Z</time></trkpt><trkpt lat="45.007480593481034" lon="9.670802983391399"><ele>77.0</ele><time>2026-05-01T11:12:11Z</time></trkpt><trkpt lat="45.007409940527985" lon="9.670767414937277"><ele>77.0</ele><time>2026-05-01T11:12:13Z</time></trkpt><trkpt lat="45.00740985558337" lon="9.670472267651757"><ele>77.0</ele><time>2026-05-01T11:12:16Z</time></trkpt><trkpt lat="45.0073105338783" lon="9.670581029526037"><ele>77.0</ele><time>2026-05-01T11:12:18Z</time></trkpt><trkpt lat="45.00725882623242" lon="9.670645572610804"><ele>77.0</ele><time>2026-05-01T11:12:19Z</time></trkpt><trkpt lat="45.007185296261746" lon="9.670735685303036"><ele>77.0</ele><time>2026-05-01T11:12:21Z</time></trkpt><trkpt lat="45.007225077717415" lon="9.670831652600759"><ele>77.0</ele><time>2026-05-01T11:12:25Z</time></trkpt><trkpt lat="45.00729704580936" lon="9.670837855215359"><ele>77.0</ele><time>2026-05-01T11:12:27Z</time></trkpt><trkpt lat="45.0073586303731" lon="9.67075125473992"><ele>77.0</ele><time>2026-05-01T11:12:29Z</time></trkpt><trkpt lat="45.007392419137744" lon="9.67067113594724"><ele>77.0</ele><time>2026-05-01T11:12:30Z</time></trkpt><trkpt lat="45.00742344682257" lon="9.670569765224805"><ele>77.0</ele><time>2026-05-01T11:12:31Z</time></trkpt><trkpt lat="45.00745877859351" lon="9.670465819078744"><ele>77.0</ele><time>2026-05-01T11:12:32Z</time></trkpt><trkpt lat="45.00753566405475" lon="9.670348212805646"><ele>77.0</ele><time>2026-05-01T11:12:34Z</time></trkpt><trkpt lat="45.00761918135256" lon="9.670321605837222"><ele>77.0</ele><time>2026-05-01T11:12:36Z</time></trkpt><trkpt lat="45.00776875220195" lon="9.670409846090621"><ele>77.0</ele><time>2026-05-01T11:12:38Z</time></trkpt><trkpt lat="45.00788537254131" lon="9.670480506217883"><ele>77.0</ele><time>2026-05-01T11:12:39Z</time></trkpt><trkpt lat="45.007988471559145" lon="9.670535076418558"><ele>77.0</ele><time>2026-05-01T11:12:40Z</time></trkpt><trkpt lat="45.00809191899856" lon="9.670595320520016"><ele>77.0</ele><time>2026-05-01T11:12:41Z</time></trkpt><trkpt lat="45.00819523916105" lon="9.67065879443976"><ele>77.0</ele><time>2026-05-01T11:12:42Z</time></trkpt><trkpt lat="45.00830495862217" lon="9.67071254517674"><ele>77.0</ele><time>2026-05-01T11:12:43Z</time></trkpt><trkpt lat="45.008408627772994" lon="9.670757324133087"><ele>77.0</ele><time>2026-05-01T11:12:44Z</time></trkpt><trkpt lat="45.008453707740095" lon="9.670942299058602"><ele>77.0</ele><time>2026-05-01T11:12:45Z</time></trkpt><trkpt lat="45.00852303798842" lon="9.670978817590408"><ele>77.0</ele><time>2026-05-01T11:12:46Z</time></trkpt><trkpt lat="45.008586575900836" lon="9.671012285107103"><ele>76.8</ele><time>2026-05-01T11:12:47Z</time></trkpt><trkpt lat="45.0086990079624" lon="9.671071506788392"><ele>76.6</ele><time>2026-05-01T11:12:49Z</time></trkpt><trkpt lat="45.00878739917754" lon="9.67111806536319"><ele>76.39999999999999</ele><time>2026-05-01T11:12:50Z</time></trkpt><trkpt lat="45.008858901328004" lon="9.671155727912817"><ele>76.2</ele><time>2026-05-01T11:12:51Z</time></trkpt><trkpt lat="45.00892702823982" lon="9.671191612616248"><ele>76.0</ele><time>2026-05-01T11:12:52.999Z</time></trkpt><trkpt lat="45.00887676129103" lon="9.671492526695916"><ele>76.0</ele><time>2026-05-01T11:12:57.999Z</time></trkpt><trkpt lat="45.00887489773887" lon="9.67161174290047"><ele>76.0</ele><time>2026-05-01T11:12:59.999Z</time></trkpt><trkpt lat="45.008938271573044" lon="9.671675976396152"><ele>76.0</ele><time>2026-05-01T11:13:01.999Z</time></trkpt><trkpt lat="45.009001389975744" lon="9.671732091990442"><ele>76.0</ele><time>2026-05-01T11:13:02.999Z</time></trkpt><trkpt lat="45.00900144432201" lon="9.672139569219656"><ele>76.25</ele><time>2026-05-01T11:13:03.999Z</time></trkpt><trkpt lat="45.009110912404516" lon="9.672195519573197"><ele>76.5</ele><time>2026-05-01T11:13:04.999Z</time></trkpt><trkpt lat="45.009221508681975" lon="9.672252046558603"><ele>76.75</ele><time>2026-05-01T11:13:05.999Z</time></trkpt><trkpt lat="45.009354374791705" lon="9.672321137907261"><ele>77.0</ele><time>2026-05-01T11:13:06.999Z</time></trkpt><trkpt lat="45.009501662022785" lon="9.672401627182115"><ele>76.25</ele><time>2026-05-01T11:13:07.999Z</time></trkpt><trkpt lat="45.00963292173583" lon="9.672473357766501"><ele>75.5</ele><time>2026-05-01T11:13:08.999Z</time></trkpt><trkpt lat="45.0097396081111" lon="9.672531659555881"><ele>74.75</ele><time>2026-05-01T11:13:09.999Z</time></trkpt><trkpt lat="45.00983818858712" lon="9.67258614380196"><ele>74.0</ele><time>2026-05-01T11:13:10.999Z</time></trkpt><trkpt lat="45.00993696568433" lon="9.672644403479271"><ele>74.0</ele><time>2026-05-01T11:13:11.999Z</time></trkpt><trkpt lat="45.01002613115206" lon="9.672711332638519"><ele>74.0</ele><time>2026-05-01T11:13:12.999Z</time></trkpt><trkpt lat="45.01011902845418" lon="9.67277885771284"><ele>74.0</ele><time>2026-05-01T11:13:13.999Z</time></trkpt><trkpt lat="45.01019677691888" lon="9.672835371423014"><ele>74.0</ele><time>2026-05-01T11:13:14.999Z</time></trkpt><trkpt lat="45.01026975129678" lon="9.672888414948215"><ele>74.0</ele><time>2026-05-01T11:13:15.999Z</time></trkpt><trkpt lat="45.01054516809726" lon="9.672419701858926"><ele>74.0</ele><time>2026-05-01T11:13:17.999Z</time></trkpt><trkpt lat="45.0105650032412" lon="9.672511305231447"><ele>74.0</ele><time>2026-05-01T11:13:20.999Z</time></trkpt><trkpt lat="45.010505262049946" lon="9.672623559946745"><ele>74.0</ele><time>2026-05-01T11:13:22.999Z</time></trkpt><trkpt lat="45.01048735939026" lon="9.672713851596871"><ele>74.0</ele><time>2026-05-01T11:13:23.999Z</time></trkpt><trkpt lat="45.010387779865084" lon="9.672781186422387"><ele>74.0</ele><time>2026-05-01T11:13:31.999Z</time></trkpt><trkpt lat="45.0103063346171" lon="9.672815883810888"><ele>74.0</ele><time>2026-05-01T11:13:32.999Z</time></trkpt><trkpt lat="45.010225580442096" lon="9.672854352132822"><ele>74.0</ele><time>2026-05-01T11:13:33.999Z</time></trkpt><trkpt lat="45.01011691075429" lon="9.672775050517977"><ele>74.0</ele><time>2026-05-01T11:13:34.999Z</time></trkpt><trkpt lat="45.010011483376715" lon="9.672681091519884"><ele>74.0</ele><time>2026-05-01T11:13:35.999Z</time></trkpt><trkpt lat="45.00989558973176" lon="9.6725877153439"><ele>74.0</ele><time>2026-05-01T11:13:36.999Z</time></trkpt><trkpt lat="45.009764698434886" lon="9.672496634191898"><ele>74.0</ele><time>2026-05-01T11:13:37.999Z</time></trkpt><trkpt lat="45.009622250200444" lon="9.672422991253459"><ele>74.0</ele><time>2026-05-01T11:13:38.999Z</time></trkpt><trkpt lat="45.009484725005926" lon="9.672354705594282"><ele>74.0</ele><time>2026-05-01T11:13:39.999Z</time></trkpt><trkpt lat="45.009359290417905" lon="9.672273486428871"><ele>74.0</ele><time>2026-05-01T11:13:40.999Z</time></trkpt><trkpt lat="45.00923187897844" lon="9.672207422692296"><ele>74.75</ele><time>2026-05-01T11:13:41.999Z</time></trkpt><trkpt lat="45.00910374953449" lon="9.672141934309973"><ele>75.5</ele><time>2026-05-01T11:13:42.999Z</time></trkpt><trkpt lat="45.00898187621761" lon="9.672079643503936"><ele>76.25</ele><time>2026-05-01T11:13:43.999Z</time></trkpt><trkpt lat="45.00886799990395" lon="9.672021440055158"><ele>77.0</ele><time>2026-05-01T11:13:44.999Z</time></trkpt><trkpt lat="45.00876854583817" lon="9.67197060797755"><ele>77.0</ele><time>2026-05-01T11:13:45.999Z</time></trkpt><trkpt lat="45.00867401076675" lon="9.671922290052535"><ele>77.0</ele><time>2026-05-01T11:13:46.999Z</time></trkpt><trkpt lat="45.00857974348329" lon="9.671874108996231"><ele>77.0</ele><time>2026-05-01T11:13:47.999Z</time></trkpt><trkpt lat="45.008496123765546" lon="9.671831370029672"><ele>77.0</ele><time>2026-05-01T11:13:48.999Z</time></trkpt><trkpt lat="45.008415208289826" lon="9.671790013231414"><ele>77.0</ele><time>2026-05-01T11:13:49.999Z</time></trkpt><trkpt lat="45.008354989355745" lon="9.671759234665279"><ele>77.0</ele><time>2026-05-01T11:13:50.999Z</time></trkpt><trkpt lat="45.00825620287148" lon="9.671711880499549"><ele>77.0</ele><time>2026-05-01T11:13:52.999Z</time></trkpt><trkpt lat="45.00819731182515" lon="9.67167995347423"><ele>77.0</ele><time>2026-05-01T11:13:54.999Z</time></trkpt><trkpt lat="45.00816890524001" lon="9.671814456596664"><ele>77.0</ele><time>2026-05-01T11:13:56.999Z</time></trkpt><trkpt lat="45.00813817010884" lon="9.671938252550426"><ele>77.0</ele><time>2026-05-01T11:14:01.999Z</time></trkpt><trkpt lat="45.00814025471222" lon="9.672056186243669"><ele>77.0</ele><time>2026-05-01T11:14:04Z</time></trkpt><trkpt lat="45.00811739102887" lon="9.67216323559189"><ele>77.0</ele><time>2026-05-01T11:14:06Z</time></trkpt><trkpt lat="45.00808211724111" lon="9.672266549692248"><ele>76.83333333333334</ele><time>2026-05-01T11:14:08Z</time></trkpt><trkpt lat="45.00808541193088" lon="9.67237878501035"><ele>76.66666666666667</ele><time>2026-05-01T11:14:10Z</time></trkpt><trkpt lat="45.00808160879186" lon="9.672494179635523"><ele>76.5</ele><time>2026-05-01T11:14:12Z</time></trkpt><trkpt lat="45.008023355660335" lon="9.672538444690773"><ele>76.33333333333333</ele><time>2026-05-01T11:14:14Z</time></trkpt><trkpt lat="45.00794179793233" lon="9.672511340913685"><ele>76.16666666666666</ele><time>2026-05-01T11:14:16Z</time></trkpt><trkpt lat="45.00792371540682" lon="9.672599226994203"><ele>76.0</ele><time>2026-05-01T11:14:20Z</time></trkpt><trkpt lat="45.008000287328684" lon="9.672606848202957"><ele>76.0</ele><time>2026-05-01T11:14:22Z</time></trkpt><trkpt lat="45.00805974993173" lon="9.672512093879575"><ele>76.0</ele><time>2026-05-01T11:14:24Z</time></trkpt><trkpt lat="45.00810663818941" lon="9.672365074687741"><ele>76.0</ele><time>2026-05-01T11:14:26Z</time></trkpt><trkpt lat="45.00812271637144" lon="9.672269310175835"><ele>76.0</ele><time>2026-05-01T11:14:27Z</time></trkpt><trkpt lat="45.00813204684764" lon="9.672161245006313"><ele>76.0</ele><time>2026-05-01T11:14:28Z</time></trkpt><trkpt lat="45.00815058677129" lon="9.67205129461313"><ele>76.0</ele><time>2026-05-01T11:14:29Z</time></trkpt><trkpt lat="45.00817101988924" lon="9.671962066454077"><ele>76.2</ele><time>2026-05-01T11:14:30Z</time></trkpt><trkpt lat="45.008196786654096" lon="9.671842810367544"><ele>76.39999999999999</ele><time>2026-05-01T11:14:32Z</time></trkpt><trkpt lat="45.00818878714453" lon="9.671732702133687"><ele>76.6</ele><time>2026-05-01T11:15:28Z</time></trkpt><trkpt lat="45.00813745025673" lon="9.671660066836624"><ele>76.8</ele><time>2026-05-01T11:15:29Z</time></trkpt><trkpt lat="45.00804525568597" lon="9.671611452188868"><ele>77.0</ele><time>2026-05-01T11:15:30Z</time></trkpt><trkpt lat="45.007934246061986" lon="9.671570422328193"><ele>77.0</ele><time>2026-05-01T11:15:31Z</time></trkpt><trkpt lat="45.007788943889125" lon="9.671506779413095"><ele>77.0</ele><time>2026-05-01T11:15:32Z</time></trkpt><trkpt lat="45.00764552095347" lon="9.671432703727556"><ele>77.0</ele><time>2026-05-01T11:15:33Z</time></trkpt><trkpt lat="45.0074921719069" lon="9.671349399509218"><ele>77.0</ele><time>2026-05-01T11:15:34Z</time></trkpt><trkpt lat="45.00734453001699" lon="9.671280031697712"><ele>77.0</ele><time>2026-05-01T11:15:35Z</time></trkpt><trkpt lat="45.00722194002872" lon="9.67122002403802"><ele>77.0</ele><time>2026-05-01T11:15:36Z</time></trkpt><trkpt lat="45.00712433342688" lon="9.671173848715505"><ele>77.0</ele><time>2026-05-01T11:15:37Z</time></trkpt><trkpt lat="45.00704106947541" lon="9.671134356984187"><ele>77.0</ele><time>2026-05-01T11:15:39Z</time></trkpt><trkpt lat="45.00710958522738" lon="9.671152621571904"><ele>77.0</ele><time>2026-05-01T11:18:20.999Z</time></trkpt><trkpt lat="45.00704756663761" lon="9.67119111180587"><ele>77.0</ele><time>2026-05-01T11:18:22.999Z</time></trkpt><trkpt lat="45.00700673574006" lon="9.671288456297338"><ele>77.0</ele><time>2026-05-01T11:18:23.999Z</time></trkpt><trkpt lat="45.006986995283015" lon="9.671417458909481"><ele>77.0</ele><time>2026-05-01T11:18:24.999Z</time></trkpt><trkpt lat="45.00694256069543" lon="9.67157209211914"><ele>77.0</ele><time>2026-05-01T11:18:25.999Z</time></trkpt><trkpt lat="45.00691502053327" lon="9.671748840953002"><ele>77.0</ele><time>2026-05-01T11:18:26.999Z</time></trkpt><trkpt lat="45.00688630012508" lon="9.67193262489964"><ele>77.0</ele><time>2026-05-01T11:18:27.999Z</time></trkpt><trkpt lat="45.006853231559234" lon="9.672139365790143"><ele>77.0</ele><time>2026-05-01T11:18:28.999Z</time></trkpt><trkpt lat="45.006820059327" lon="9.67234800769355"><ele>77.0</ele><time>2026-05-01T11:18:29.999Z</time></trkpt><trkpt lat="45.00680247343536" lon="9.672572006649961"><ele>77.0</ele><time>2026-05-01T11:18:30.999Z</time></trkpt><trkpt lat="45.00677088827315" lon="9.672768499499792"><ele>77.0</ele><time>2026-05-01T11:18:31.999Z</time></trkpt><trkpt lat="45.00674158575957" lon="9.67297516531089"><ele>77.0</ele><time>2026-05-01T11:18:32.999Z</time></trkpt><trkpt lat="45.00668952124782" lon="9.673203020758205"><ele>76.66666666666667</ele><time>2026-05-01T11:18:33.999Z</time></trkpt><trkpt lat="45.00666902690416" lon="9.673434670079436"><ele>76.33333333333333</ele><time>2026-05-01T11:18:34.999Z</time></trkpt><trkpt lat="45.0066168223941" lon="9.673657363632856"><ele>76.0</ele><time>2026-05-01T11:18:35.999Z</time></trkpt><trkpt lat="45.00657858116545" lon="9.673888562739899"><ele>76.0</ele><time>2026-05-01T11:18:36.999Z</time></trkpt><trkpt lat="45.00654092442743" lon="9.67410314834087"><ele>76.0</ele><time>2026-05-01T11:18:37.999Z</time></trkpt><trkpt lat="45.00650976381896" lon="9.674293108999072"><ele>76.0</ele><time>2026-05-01T11:18:38.999Z</time></trkpt><trkpt lat="45.006477952175366" lon="9.674487038471876"><ele>76.0</ele><time>2026-05-01T11:18:39.999Z</time></trkpt><trkpt lat="45.006441684223816" lon="9.674694349305033"><ele>76.0</ele><time>2026-05-01T11:18:40.999Z</time></trkpt><trkpt lat="45.006400362148156" lon="9.67491674011555"><ele>76.0</ele><time>2026-05-01T11:18:41.999Z</time></trkpt><trkpt lat="45.00635816557529" lon="9.6751071652183"><ele>76.0</ele><time>2026-05-01T11:18:42.999Z</time></trkpt><trkpt lat="45.006316537373806" lon="9.675269424127038"><ele>76.0</ele><time>2026-05-01T11:18:43.999Z</time></trkpt><trkpt lat="45.006267180848944" lon="9.675454386456137"><ele>76.0</ele><time>2026-05-01T11:18:44.999Z</time></trkpt><trkpt lat="45.00622166708444" lon="9.675638903624577"><ele>76.0</ele><time>2026-05-01T11:18:45.999Z</time></trkpt><trkpt lat="45.006190992050776" lon="9.675797359994421"><ele>76.0</ele><time>2026-05-01T11:18:46.999Z</time></trkpt><trkpt lat="45.00617981381003" lon="9.67596567433928"><ele>76.0</ele><time>2026-05-01T11:18:47.999Z</time></trkpt><trkpt lat="45.006171552540145" lon="9.676144707515416"><ele>75.5</ele><time>2026-05-01T11:18:48.999Z</time></trkpt><trkpt lat="45.00617931505355" lon="9.676336660972952"><ele>75.0</ele><time>2026-05-01T11:18:49.999Z</time></trkpt><trkpt lat="45.00618967609266" lon="9.676536616541405"><ele>74.5</ele><time>2026-05-01T11:18:50.999Z</time></trkpt><trkpt lat="45.00619509387393" lon="9.676747300106866"><ele>74.0</ele><time>2026-05-01T11:18:51.999Z</time></trkpt><trkpt lat="45.006193660940944" lon="9.676967258377209"><ele>74.0</ele><time>2026-05-01T11:18:52.999Z</time></trkpt><trkpt lat="45.006198055472375" lon="9.677188603005584"><ele>74.0</ele><time>2026-05-01T11:18:53.999Z</time></trkpt><trkpt lat="45.00620507522962" lon="9.677415532896136"><ele>74.0</ele><time>2026-05-01T11:18:54.999Z</time></trkpt><trkpt lat="45.00619351470348" lon="9.677634149067975"><ele>73.66666666666667</ele><time>2026-05-01T11:18:55.999Z</time></trkpt><trkpt lat="45.00619864320763" lon="9.677844533356417"><ele>73.33333333333333</ele><time>2026-05-01T11:18:56.999Z</time></trkpt><trkpt lat="45.006221143228885" lon="9.678054334534066"><ele>73.0</ele><time>2026-05-01T11:18:57.999Z</time></trkpt><trkpt lat="45.00623126456697" lon="9.67827111656132"><ele>73.0</ele><time>2026-05-01T11:18:58.999Z</time></trkpt><trkpt lat="45.006252362852024" lon="9.678483733944585"><ele>73.0</ele><time>2026-05-01T11:18:59.999Z</time></trkpt><trkpt lat="45.00625326473722" lon="9.678694766611144"><ele>73.0</ele><time>2026-05-01T11:19:00.999Z</time></trkpt><trkpt lat="45.00626978696421" lon="9.678896909517588"><ele>73.0</ele><time>2026-05-01T11:19:01.999Z</time></trkpt><trkpt lat="45.00628513228385" lon="9.679095842538851"><ele>73.4</ele><time>2026-05-01T11:19:02.999Z</time></trkpt><trkpt lat="45.00629976596997" lon="9.679290656810995"><ele>73.8</ele><time>2026-05-01T11:19:03.999Z</time></trkpt><trkpt lat="45.00631441596909" lon="9.679456751614723"><ele>74.2</ele><time>2026-05-01T11:19:04.999Z</time></trkpt><trkpt lat="45.0063390808148" lon="9.679598317377346"><ele>74.6</ele><time>2026-05-01T11:19:05.999Z</time></trkpt><trkpt lat="45.00634281461493" lon="9.679722873686412"><ele>75.0</ele><time>2026-05-01T11:19:06.999Z</time></trkpt><trkpt lat="45.006318316267006" lon="9.679857676112144"><ele>75.0</ele><time>2026-05-01T11:19:07.999Z</time></trkpt><trkpt lat="45.00629583351628" lon="9.680025681282892"><ele>75.0</ele><time>2026-05-01T11:19:08.999Z</time></trkpt><trkpt lat="45.00626128374656" lon="9.680198371699632"><ele>75.0</ele><time>2026-05-01T11:19:09.999Z</time></trkpt><trkpt lat="45.00622313177516" lon="9.680374983377371"><ele>75.0</ele><time>2026-05-01T11:19:10.999Z</time></trkpt><trkpt lat="45.00617685364425" lon="9.680572245698135"><ele>75.0</ele><time>2026-05-01T11:19:11.999Z</time></trkpt><trkpt lat="45.00613444869678" lon="9.680813831241613"><ele>75.0</ele><time>2026-05-01T11:19:12.999Z</time></trkpt><trkpt lat="45.00607204651428" lon="9.681069646102882"><ele>75.0</ele><time>2026-05-01T11:19:13.999Z</time></trkpt><trkpt lat="45.0060081464712" lon="9.681263600114244"><ele>75.33333333333333</ele><time>2026-05-01T11:19:14.999Z</time></trkpt><trkpt lat="45.00596865991945" lon="9.681467564387212"><ele>75.66666666666666</ele><time>2026-05-01T11:19:15.999Z</time></trkpt><trkpt lat="45.005915484588954" lon="9.681668783932977"><ele>76.0</ele><time>2026-05-01T11:19:16.999Z</time></trkpt><trkpt lat="45.005868870381185" lon="9.681869276703969"><ele>76.0</ele><time>2026-05-01T11:19:17.999Z</time></trkpt><trkpt lat="45.005819227751026" lon="9.682065073161487"><ele>76.0</ele><time>2026-05-01T11:19:18.999Z</time></trkpt><trkpt lat="45.00577901594616" lon="9.682236760447237"><ele>76.0</ele><time>2026-05-01T11:19:19.999Z</time></trkpt><trkpt lat="45.0057381412087" lon="9.682384765948779"><ele>76.0</ele><time>2026-05-01T11:19:20.999Z</time></trkpt><trkpt lat="45.005702841814696" lon="9.682521083780772"><ele>76.0</ele><time>2026-05-01T11:19:21.999Z</time></trkpt><trkpt lat="45.00567863928572" lon="9.682639942125395"><ele>76.0</ele><time>2026-05-01T11:19:22.999Z</time></trkpt><trkpt lat="45.00567241326143" lon="9.68278012606614"><ele>76.0</ele><time>2026-05-01T11:19:23.999Z</time></trkpt><trkpt lat="45.00565514108967" lon="9.682969148789256"><ele>76.0</ele><time>2026-05-01T11:19:24.999Z</time></trkpt><trkpt lat="45.00563675643208" lon="9.683208271318613"><ele>75.0</ele><time>2026-05-01T11:19:25.999Z</time></trkpt><trkpt lat="45.005597362180794" lon="9.683446183505396"><ele>74.0</ele><time>2026-05-01T11:19:26.999Z</time></trkpt><trkpt lat="45.0055775192693" lon="9.683663885832905"><ele>73.0</ele><time>2026-05-01T11:19:27.999Z</time></trkpt><trkpt lat="45.00557466954751" lon="9.683878339867658"><ele>72.66666666666666</ele><time>2026-05-01T11:19:28.999Z</time></trkpt><trkpt lat="45.005552136684386" lon="9.684092600302858"><ele>72.33333333333333</ele><time>2026-05-01T11:19:29.999Z</time></trkpt><trkpt lat="45.00553295465948" lon="9.684318586116603"><ele>72.0</ele><time>2026-05-01T11:19:30.999Z</time></trkpt><trkpt lat="45.00551269070855" lon="9.684547601428447"><ele>72.0</ele><time>2026-05-01T11:19:31.999Z</time></trkpt><trkpt lat="45.00549591772059" lon="9.684774135245119"><ele>72.0</ele><time>2026-05-01T11:19:32.999Z</time></trkpt><trkpt lat="45.005477373104235" lon="9.68498648482524"><ele>72.0</ele><time>2026-05-01T11:19:33.999Z</time></trkpt><trkpt lat="45.005466255185674" lon="9.685165002718652"><ele>72.0</ele><time>2026-05-01T11:19:34.999Z</time></trkpt><trkpt lat="45.00545454907565" lon="9.685318169697116"><ele>72.2</ele><time>2026-05-01T11:19:35.999Z</time></trkpt><trkpt lat="45.005447530191546" lon="9.6854504795242"><ele>72.4</ele><time>2026-05-01T11:19:36.999Z</time></trkpt><trkpt lat="45.00544287516082" lon="9.68554553797296"><ele>72.6</ele><time>2026-05-01T11:19:37.999Z</time></trkpt><trkpt lat="45.0054704948715" lon="9.68568287084565"><ele>72.8</ele><time>2026-05-01T11:19:39.999Z</time></trkpt><trkpt lat="45.005575847772064" lon="9.6857968600968"><ele>73.0</ele><time>2026-05-01T11:19:41.999Z</time></trkpt><trkpt lat="45.0056618819283" lon="9.685868670971116"><ele>73.0</ele><time>2026-05-01T11:19:42.999Z</time></trkpt><trkpt lat="45.00573998477993" lon="9.685937554574378"><ele>73.0</ele><time>2026-05-01T11:19:43.999Z</time></trkpt><trkpt lat="45.00580962252068" lon="9.685974977224042"><ele>73.0</ele><time>2026-05-01T11:19:45.999Z</time></trkpt><trkpt lat="45.00574799562155" lon="9.686098918817155"><ele>73.0</ele><time>2026-05-01T11:19:46.999Z</time></trkpt><trkpt lat="45.005723713347244" lon="9.686289885227943"><ele>73.0</ele><time>2026-05-01T11:19:48.999Z</time></trkpt><trkpt lat="45.00570489673248" lon="9.686439523971636"><ele>73.0</ele><time>2026-05-01T11:19:49.999Z</time></trkpt><trkpt lat="45.00568340415754" lon="9.686642352452015"><ele>73.0</ele><time>2026-05-01T11:19:50.999Z</time></trkpt><trkpt lat="45.005663564165566" lon="9.68683791142895"><ele>73.0</ele><time>2026-05-01T11:19:51.999Z</time></trkpt><trkpt lat="45.005640467814715" lon="9.687053081912083"><ele>73.0</ele><time>2026-05-01T11:19:52.999Z</time></trkpt><trkpt lat="45.00562131888818" lon="9.68722781980369"><ele>73.0</ele><time>2026-05-01T11:19:53.999Z</time></trkpt><trkpt lat="45.005604652151355" lon="9.687379907200773"><ele>73.0</ele><time>2026-05-01T11:19:54.999Z</time></trkpt><trkpt lat="45.00559147501115" lon="9.687518928172075"><ele>73.0</ele><time>2026-05-01T11:19:55.999Z</time></trkpt><trkpt lat="45.00558142677645" lon="9.687652192558986"><ele>73.0</ele><time>2026-05-01T11:19:56.999Z</time></trkpt><trkpt lat="45.00557499414149" lon="9.687769368058571"><ele>73.0</ele><time>2026-05-01T11:19:57.999Z</time></trkpt><trkpt lat="45.00558438265421" lon="9.687875333818441"><ele>73.0</ele><time>2026-05-01T11:19:58.999Z</time></trkpt><trkpt lat="45.00557538799136" lon="9.687991635271603"><ele>73.0</ele><time>2026-05-01T11:20:00.999Z</time></trkpt><trkpt lat="45.005452254256205" lon="9.687983168949675"><ele>73.0</ele><time>2026-05-01T11:20:06.999Z</time></trkpt><trkpt lat="45.0053578357601" lon="9.687997592303214"><ele>73.0</ele><time>2026-05-01T11:20:07.999Z</time></trkpt><trkpt lat="45.00523458908876" lon="9.687976553462361"><ele>73.0</ele><time>2026-05-01T11:20:08.999Z</time></trkpt><trkpt lat="45.00508939787166" lon="9.6879608593281"><ele>72.66666666666666</ele><time>2026-05-01T11:20:09.999Z</time></trkpt><trkpt lat="45.00491974036403" lon="9.687945492844916"><ele>72.33333333333333</ele><time>2026-05-01T11:20:10.999Z</time></trkpt><trkpt lat="45.00473410876873" lon="9.687933864634521"><ele>72.0</ele><time>2026-05-01T11:20:11.999Z</time></trkpt><trkpt lat="45.004547317796366" lon="9.68789956871693"><ele>72.0</ele><time>2026-05-01T11:20:12.999Z</time></trkpt><trkpt lat="45.00434720718142" lon="9.687884528279922"><ele>72.0</ele><time>2026-05-01T11:20:13.999Z</time></trkpt><trkpt lat="45.00413565395666" lon="9.687892021470102"><ele>72.0</ele><time>2026-05-01T11:20:14.999Z</time></trkpt><trkpt lat="45.003920703508506" lon="9.687866645690207"><ele>72.33333333333333</ele><time>2026-05-01T11:20:15.999Z</time></trkpt><trkpt lat="45.003715719780864" lon="9.687850377508921"><ele>72.66666666666666</ele><time>2026-05-01T11:20:16.999Z</time></trkpt><trkpt lat="45.00351677076148" lon="9.687842005389973"><ele>73.0</ele><time>2026-05-01T11:20:17.999Z</time></trkpt><trkpt lat="45.00331469872885" lon="9.687840744616343"><ele>73.33333333333333</ele><time>2026-05-01T11:20:18.999Z</time></trkpt><trkpt lat="45.00311065190475" lon="9.68784787845344"><ele>73.66666666666667</ele><time>2026-05-01T11:20:19.999Z</time></trkpt><trkpt lat="45.0029308581045" lon="9.6878535320505"><ele>74.0</ele><time>2026-05-01T11:20:20.999Z</time></trkpt><trkpt lat="45.00276812396336" lon="9.687861454169381"><ele>74.0</ele><time>2026-05-01T11:20:21.999Z</time></trkpt><trkpt lat="45.002618349186676" lon="9.68786835790654"><ele>74.0</ele><time>2026-05-01T11:20:22.999Z</time></trkpt><trkpt lat="45.002475431705406" lon="9.687882890784413"><ele>74.0</ele><time>2026-05-01T11:20:23.999Z</time></trkpt><trkpt lat="45.00231172872655" lon="9.687887873346364"><ele>73.66666666666667</ele><time>2026-05-01T11:20:24.999Z</time></trkpt><trkpt lat="45.00211161242343" lon="9.687894451877975"><ele>73.33333333333333</ele><time>2026-05-01T11:20:25.999Z</time></trkpt><trkpt lat="45.00192787132436" lon="9.687900560411364"><ele>73.0</ele><time>2026-05-01T11:20:26.999Z</time></trkpt><trkpt lat="45.001764811115905" lon="9.687901386892333"><ele>73.33333333333333</ele><time>2026-05-01T11:20:27.999Z</time></trkpt><trkpt lat="45.00161328391368" lon="9.687907330611434"><ele>73.66666666666667</ele><time>2026-05-01T11:20:28.999Z</time></trkpt><trkpt lat="45.001440077765366" lon="9.687906760818588"><ele>74.0</ele><time>2026-05-01T11:20:29.999Z</time></trkpt><trkpt lat="45.001282208314116" lon="9.687910431801711"><ele>74.0</ele><time>2026-05-01T11:20:30.999Z</time></trkpt><trkpt lat="45.001171114598066" lon="9.687913925572419"><ele>74.0</ele><time>2026-05-01T11:20:31.999Z</time></trkpt><trkpt lat="45.001090157137206" lon="9.687922632589165"><ele>74.0</ele><time>2026-05-01T11:20:32.999Z</time></trkpt><trkpt lat="45.001024295904095" lon="9.687927201369693"><ele>74.0</ele><time>2026-05-01T11:20:34.999Z</time></trkpt><trkpt lat="45.00095532139061" lon="9.687883964088915"><ele>74.0</ele><time>2026-05-01T11:20:35.999Z</time></trkpt><trkpt lat="45.000866170480045" lon="9.687882166963398"><ele>74.0</ele><time>2026-05-01T11:20:36.999Z</time></trkpt><trkpt lat="45.000801831962015" lon="9.687912247028379"><ele>74.0</ele><time>2026-05-01T11:20:37.999Z</time></trkpt><trkpt lat="45.00076728111139" lon="9.688008822205463"><ele>74.0</ele><time>2026-05-01T11:20:38.999Z</time></trkpt><trkpt lat="45.000774453362965" lon="9.688162760774102"><ele>74.0</ele><time>2026-05-01T11:20:39.999Z</time></trkpt><trkpt lat="45.00075624160255" lon="9.688340838186"><ele>74.0</ele><time>2026-05-01T11:20:40.999Z</time></trkpt><trkpt lat="45.00073600519841" lon="9.688537984873202"><ele>74.66666666666667</ele><time>2026-05-01T11:20:42Z</time></trkpt><trkpt lat="45.0007149087315" lon="9.688771868639959"><ele>75.33333333333333</ele><time>2026-05-01T11:20:43Z</time></trkpt><trkpt lat="45.000706848973934" lon="9.689044803689255"><ele>76.0</ele><time>2026-05-01T11:20:44Z</time></trkpt><trkpt lat="45.00070136956123" lon="9.689329167449191"><ele>76.0</ele><time>2026-05-01T11:20:45Z</time></trkpt><trkpt lat="45.00069178373683" lon="9.68962429154835"><ele>76.0</ele><time>2026-05-01T11:20:46Z</time></trkpt><trkpt lat="45.0006775690363" lon="9.689937157136264"><ele>76.0</ele><time>2026-05-01T11:20:47Z</time></trkpt><trkpt lat="45.00066658695039" lon="9.690257571307173"><ele>75.5</ele><time>2026-05-01T11:20:48Z</time></trkpt><trkpt lat="45.000652459985204" lon="9.690585000209799"><ele>75.0</ele><time>2026-05-01T11:20:49Z</time></trkpt><trkpt lat="45.00063935124424" lon="9.690925613956892"><ele>74.5</ele><time>2026-05-01T11:20:50Z</time></trkpt><trkpt lat="45.000624378595205" lon="9.691280399627281"><ele>74.0</ele><time>2026-05-01T11:20:51Z</time></trkpt><trkpt lat="45.00061107727422" lon="9.691639309259802"><ele>74.0</ele><time>2026-05-01T11:20:52Z</time></trkpt><trkpt lat="45.00059588994469" lon="9.691994818894411"><ele>74.0</ele><time>2026-05-01T11:20:53Z</time></trkpt><trkpt lat="45.00057962905767" lon="9.6923368744524"><ele>74.0</ele><time>2026-05-01T11:20:54Z</time></trkpt><trkpt lat="45.00056972990187" lon="9.69265521470915"><ele>74.0</ele><time>2026-05-01T11:20:55Z</time></trkpt><trkpt lat="45.000553628968206" lon="9.69298438836279"><ele>74.0</ele><time>2026-05-01T11:20:56Z</time></trkpt><trkpt lat="45.00054062599408" lon="9.693312537534693"><ele>74.0</ele><time>2026-05-01T11:20:57Z</time></trkpt><trkpt lat="45.00052843828597" lon="9.693625813842164"><ele>74.33333333333334</ele><time>2026-05-01T11:20:58Z</time></trkpt><trkpt lat="45.000516661290845" lon="9.693892146286144"><ele>74.66666666666667</ele><time>2026-05-01T11:20:59Z</time></trkpt><trkpt lat="45.000508125448356" lon="9.69409757659806"><ele>75.0</ele><time>2026-05-01T11:21:00Z</time></trkpt><trkpt lat="45.000502418511935" lon="9.694278312476438"><ele>75.33333333333333</ele><time>2026-05-01T11:21:01Z</time></trkpt><trkpt lat="45.000503807962076" lon="9.694481900392597"><ele>75.66666666666666</ele><time>2026-05-01T11:21:02Z</time></trkpt><trkpt lat="45.000502420448285" lon="9.694724551553199"><ele>76.0</ele><time>2026-05-01T11:21:03Z</time></trkpt><trkpt lat="45.00049821968352" lon="9.694995638726892"><ele>74.33333333333333</ele><time>2026-05-01T11:21:04Z</time></trkpt><trkpt lat="45.000485304545506" lon="9.695290165148723"><ele>72.66666666666667</ele><time>2026-05-01T11:21:05Z</time></trkpt><trkpt lat="45.000472230454456" lon="9.695586048400651"><ele>71.0</ele><time>2026-05-01T11:21:06Z</time></trkpt><trkpt lat="45.0004565109439" lon="9.695849330709805"><ele>71.0</ele><time>2026-05-01T11:21:07Z</time></trkpt><trkpt lat="45.0004452420792" lon="9.696104220367602"><ele>71.0</ele><time>2026-05-01T11:21:08Z</time></trkpt><trkpt lat="45.00040316214346" lon="9.696353694917153"><ele>71.0</ele><time>2026-05-01T11:21:09Z</time></trkpt><trkpt lat="45.00037273621797" lon="9.696588658829281"><ele>71.0</ele><time>2026-05-01T11:21:10Z</time></trkpt><trkpt lat="45.00033573941514" lon="9.696836361687266"><ele>71.0</ele><time>2026-05-01T11:21:11Z</time></trkpt><trkpt lat="45.00030364709973" lon="9.69705305910254"><ele>71.0</ele><time>2026-05-01T11:21:12Z</time></trkpt><trkpt lat="45.00027391417278" lon="9.697257443551099"><ele>71.75</ele><time>2026-05-01T11:21:13Z</time></trkpt><trkpt lat="45.000244345548786" lon="9.69746424304164"><ele>72.5</ele><time>2026-05-01T11:21:14Z</time></trkpt><trkpt lat="45.000215403127264" lon="9.697666662995637"><ele>73.25</ele><time>2026-05-01T11:21:15Z</time></trkpt><trkpt lat="45.00020019013328" lon="9.697883737217351"><ele>74.0</ele><time>2026-05-01T11:21:16Z</time></trkpt><trkpt lat="45.000153811064195" lon="9.698097430877928"><ele>74.0</ele><time>2026-05-01T11:21:17Z</time></trkpt><trkpt lat="45.0001274263754" lon="9.698283026778784"><ele>74.0</ele><time>2026-05-01T11:21:18Z</time></trkpt><trkpt lat="45.00011972689548" lon="9.69845619232435"><ele>74.0</ele><time>2026-05-01T11:21:19Z</time></trkpt><trkpt lat="45.000083805490185" lon="9.698586011845974"><ele>74.0</ele><time>2026-05-01T11:21:20Z</time></trkpt><trkpt lat="45.00006261583031" lon="9.698725258183153"><ele>74.0</ele><time>2026-05-01T11:21:21Z</time></trkpt><trkpt lat="45.00003794060556" lon="9.6988751204006"><ele>74.0</ele><time>2026-05-01T11:21:22Z</time></trkpt><trkpt lat="45.000016965891454" lon="9.698986956285735"><ele>74.0</ele><time>2026-05-01T11:21:23Z</time></trkpt><trkpt lat="44.999991510122996" lon="9.69911700615118"><ele>74.0</ele><time>2026-05-01T11:21:24Z</time></trkpt><trkpt lat="44.99996892840606" lon="9.699242018265377"><ele>74.0</ele><time>2026-05-01T11:21:25Z</time></trkpt><trkpt lat="44.999968733568515" lon="9.699336493324575"><ele>74.0</ele><time>2026-05-01T11:21:26Z</time></trkpt><trkpt lat="44.99992229654005" lon="9.699444162415876"><ele>74.0</ele><time>2026-05-01T11:21:28Z</time></trkpt><trkpt lat="44.99983708661232" lon="9.699374366914016"><ele>74.0</ele><time>2026-05-01T11:21:30Z</time></trkpt><trkpt lat="44.99976775538248" lon="9.699341517729675"><ele>74.0</ele><time>2026-05-01T11:21:31Z</time></trkpt><trkpt lat="44.99966534757939" lon="9.699292856277722"><ele>74.0</ele><time>2026-05-01T11:21:32Z</time></trkpt><trkpt lat="44.99953814442276" lon="9.699234153306454"><ele>74.0</ele><time>2026-05-01T11:21:33Z</time></trkpt><trkpt lat="44.99940051003723" lon="9.69917063643137"><ele>74.0</ele><time>2026-05-01T11:21:34Z</time></trkpt><trkpt lat="44.999246397028124" lon="9.69911247937354"><ele>74.0</ele><time>2026-05-01T11:21:35Z</time></trkpt><trkpt lat="44.99909310043744" lon="9.69904140222744"><ele>74.0</ele><time>2026-05-01T11:21:36Z</time></trkpt><trkpt lat="44.99894049607059" lon="9.698964947364606"><ele>74.66666666666667</ele><time>2026-05-01T11:21:37Z</time></trkpt><trkpt lat="44.998794092314455" lon="9.698899114608833"><ele>75.33333333333333</ele><time>2026-05-01T11:21:38Z</time></trkpt><trkpt lat="44.998645506917455" lon="9.698826729383702"><ele>76.0</ele><time>2026-05-01T11:21:39Z</time></trkpt><trkpt lat="44.99849604802816" lon="9.698759280291188"><ele>76.0</ele><time>2026-05-01T11:21:40Z</time></trkpt><trkpt lat="44.99835720583875" lon="9.698664528544327"><ele>76.0</ele><time>2026-05-01T11:21:41Z</time></trkpt><trkpt lat="44.998215098953935" lon="9.698591550575756"><ele>76.0</ele><time>2026-05-01T11:21:42Z</time></trkpt><trkpt lat="44.99807269344515" lon="9.69852533152789"><ele>75.0</ele><time>2026-05-01T11:21:43Z</time></trkpt><trkpt lat="44.99791707884751" lon="9.69849289014904"><ele>74.0</ele><time>2026-05-01T11:21:44Z</time></trkpt><trkpt lat="44.997750276889136" lon="9.698438026048647"><ele>73.0</ele><time>2026-05-01T11:21:45Z</time></trkpt><trkpt lat="44.99757054161663" lon="9.698388700724033"><ele>73.33333333333333</ele><time>2026-05-01T11:21:46Z</time></trkpt><trkpt lat="44.997385838150635" lon="9.698319060464467"><ele>73.66666666666667</ele><time>2026-05-01T11:21:47Z</time></trkpt><trkpt lat="44.99722336452826" lon="9.698311802372896"><ele>74.0</ele><time>2026-05-01T11:21:48Z</time></trkpt><trkpt lat="44.997072722414465" lon="9.698282269954964"><ele>74.0</ele><time>2026-05-01T11:21:49Z</time></trkpt><trkpt lat="44.99693265704998" lon="9.698239526634902"><ele>74.0</ele><time>2026-05-01T11:21:50Z</time></trkpt><trkpt lat="44.99681034433227" lon="9.69820876201955"><ele>74.0</ele><time>2026-05-01T11:21:51Z</time></trkpt><trkpt lat="44.99667082512737" lon="9.698167572737274"><ele>74.0</ele><time>2026-05-01T11:21:52Z</time></trkpt><trkpt lat="44.99652392674971" lon="9.698118260992718"><ele>74.5</ele><time>2026-05-01T11:21:53Z</time></trkpt><trkpt lat="44.99639587898517" lon="9.698076525290567"><ele>75.0</ele><time>2026-05-01T11:21:54Z</time></trkpt><trkpt lat="44.99627811641055" lon="9.698040489747326"><ele>75.5</ele><time>2026-05-01T11:21:55Z</time></trkpt><trkpt lat="44.996168514029556" lon="9.69802109894493"><ele>76.0</ele><time>2026-05-01T11:21:56Z</time></trkpt><trkpt lat="44.9960541794991" lon="9.698011663828368"><ele>76.0</ele><time>2026-05-01T11:21:57Z</time></trkpt><trkpt lat="44.995899321343295" lon="9.697993013758373"><ele>76.0</ele><time>2026-05-01T11:21:58Z</time></trkpt><trkpt lat="44.99573442023388" lon="9.697967670373897"><ele>76.0</ele><time>2026-05-01T11:21:59Z</time></trkpt><trkpt lat="44.9955784079037" lon="9.697949869344313"><ele>76.5</ele><time>2026-05-01T11:22:00Z</time></trkpt><trkpt lat="44.995434385721786" lon="9.697933177080117"><ele>77.0</ele><time>2026-05-01T11:22:01Z</time></trkpt><trkpt lat="44.99529766866834" lon="9.69789079817497"><ele>77.5</ele><time>2026-05-01T11:22:02Z</time></trkpt><trkpt lat="44.99517761553491" lon="9.697871045134296"><ele>78.0</ele><time>2026-05-01T11:22:03Z</time></trkpt><trkpt lat="44.995048485890166" lon="9.697848834613632"><ele>78.5</ele><time>2026-05-01T11:22:04Z</time></trkpt><trkpt lat="44.994908018609344" lon="9.697828648413223"><ele>79.0</ele><time>2026-05-01T11:22:05Z</time></trkpt><trkpt lat="44.9947691079182" lon="9.697809150630896"><ele>79.5</ele><time>2026-05-01T11:22:06Z</time></trkpt><trkpt lat="44.99463387962685" lon="9.69778791774337"><ele>80.0</ele><time>2026-05-01T11:22:07Z</time></trkpt><trkpt lat="44.99450305238323" lon="9.697766081278065"><ele>79.75</ele><time>2026-05-01T11:22:08Z</time></trkpt><trkpt lat="44.994378641529806" lon="9.697748190567328"><ele>79.5</ele><time>2026-05-01T11:22:09Z</time></trkpt><trkpt lat="44.99423690681456" lon="9.697738700575004"><ele>79.25</ele><time>2026-05-01T11:22:10Z</time></trkpt><trkpt lat="44.994095101667845" lon="9.697716731405933"><ele>79.0</ele><time>2026-05-01T11:22:11Z</time></trkpt><trkpt lat="44.99393485852977" lon="9.697687867995485"><ele>79.0</ele><time>2026-05-01T11:22:12Z</time></trkpt><trkpt lat="44.99375589939862" lon="9.697653845127464"><ele>79.0</ele><time>2026-05-01T11:22:13Z</time></trkpt><trkpt lat="44.993595006269445" lon="9.697624587372273"><ele>79.0</ele><time>2026-05-01T11:22:14Z</time></trkpt><trkpt lat="44.993443758314136" lon="9.697597305302477"><ele>78.75</ele><time>2026-05-01T11:22:15Z</time></trkpt><trkpt lat="44.993294204148995" lon="9.697570328763613"><ele>78.5</ele><time>2026-05-01T11:22:16Z</time></trkpt><trkpt lat="44.993147161785295" lon="9.697546651159865"><ele>78.25</ele><time>2026-05-01T11:22:17Z</time></trkpt><trkpt lat="44.99303193324337" lon="9.69753092067341"><ele>78.0</ele><time>2026-05-01T11:22:18Z</time></trkpt><trkpt lat="44.992943038478245" lon="9.69751876505375"><ele>78.0</ele><time>2026-05-01T11:22:19Z</time></trkpt><trkpt lat="44.99282473387125" lon="9.697480733363054"><ele>78.0</ele><time>2026-05-01T11:22:21Z</time></trkpt><trkpt lat="44.9927452372668" lon="9.697344786733199"><ele>78.0</ele><time>2026-05-01T11:22:23Z</time></trkpt><trkpt lat="44.99271379795775" lon="9.697229338056458"><ele>78.0</ele><time>2026-05-01T11:22:24Z</time></trkpt><trkpt lat="44.99263942910668" lon="9.697141561759407"><ele>78.0</ele><time>2026-05-01T11:22:26Z</time></trkpt><trkpt lat="44.99249228144669" lon="9.69720056928727"><ele>78.0</ele><time>2026-05-01T11:22:28Z</time></trkpt><trkpt lat="44.99239747666463" lon="9.697237876464223"><ele>78.0</ele><time>2026-05-01T11:22:29Z</time></trkpt><trkpt lat="44.992319826479" lon="9.69729137693116"><ele>78.0</ele><time>2026-05-01T11:22:30Z</time></trkpt><trkpt lat="44.992238009806556" lon="9.697321723501993"><ele>78.0</ele><time>2026-05-01T11:22:31Z</time></trkpt><trkpt lat="44.99216161653852" lon="9.697348777578629"><ele>78.0</ele><time>2026-05-01T11:22:32Z</time></trkpt><trkpt lat="44.99208682936751" lon="9.697372346862654"><ele>78.0</ele><time>2026-05-01T11:22:33Z</time></trkpt><trkpt lat="44.99200892207762" lon="9.697398771866151"><ele>78.0</ele><time>2026-05-01T11:22:34Z</time></trkpt><trkpt lat="44.99188937594093" lon="9.69743598158222"><ele>78.0</ele><time>2026-05-01T11:22:35Z</time></trkpt><trkpt lat="44.99174047706083" lon="9.697460478065356"><ele>78.0</ele><time>2026-05-01T11:22:36Z</time></trkpt><trkpt lat="44.991590019549996" lon="9.697506779888622"><ele>78.0</ele><time>2026-05-01T11:22:37Z</time></trkpt><trkpt lat="44.99142073210977" lon="9.697554515407093"><ele>78.33333333333333</ele><time>2026-05-01T11:22:38Z</time></trkpt><trkpt lat="44.991236510186724" lon="9.697604236413701"><ele>78.66666666666666</ele><time>2026-05-01T11:22:39Z</time></trkpt><trkpt lat="44.99107827471336" lon="9.697666282158794"><ele>79.0</ele><time>2026-05-01T11:22:40Z</time></trkpt><trkpt lat="44.99093076569929" lon="9.697707200705315"><ele>79.33333333333333</ele><time>2026-05-01T11:22:41Z</time></trkpt><trkpt lat="44.990776581672876" lon="9.69774330207434"><ele>79.66666666666667</ele><time>2026-05-01T11:22:42Z</time></trkpt><trkpt lat="44.990626104054556" lon="9.69778540288927"><ele>80.0</ele><time>2026-05-01T11:22:43Z</time></trkpt><trkpt lat="44.990483458996074" lon="9.697794843680136"><ele>80.0</ele><time>2026-05-01T11:22:44Z</time></trkpt><trkpt lat="44.99034698468718" lon="9.69782367879774"><ele>80.0</ele><time>2026-05-01T11:22:45Z</time></trkpt><trkpt lat="44.99021476292258" lon="9.697849873949977"><ele>80.0</ele><time>2026-05-01T11:22:46Z</time></trkpt><trkpt lat="44.99007086082486" lon="9.697875079992"><ele>80.0</ele><time>2026-05-01T11:22:47Z</time></trkpt><trkpt lat="44.989901871448616" lon="9.697899689552157"><ele>80.0</ele><time>2026-05-01T11:22:48Z</time></trkpt><trkpt lat="44.98972064858514" lon="9.69794636819543"><ele>80.0</ele><time>2026-05-01T11:22:49Z</time></trkpt><trkpt lat="44.98955189078756" lon="9.697969027738345"><ele>80.0</ele><time>2026-05-01T11:22:50Z</time></trkpt><trkpt lat="44.989413970841845" lon="9.697993067942752"><ele>80.0</ele><time>2026-05-01T11:22:51Z</time></trkpt><trkpt lat="44.98929049436461" lon="9.698021493339123"><ele>80.0</ele><time>2026-05-01T11:22:52Z</time></trkpt><trkpt lat="44.98918599810102" lon="9.698033270083473"><ele>80.0</ele><time>2026-05-01T11:22:53Z</time></trkpt><trkpt lat="44.98908261367269" lon="9.698040877461654"><ele>80.0</ele><time>2026-05-01T11:22:54Z</time></trkpt><trkpt lat="44.98896328835324" lon="9.698050148304434"><ele>80.0</ele><time>2026-05-01T11:22:55Z</time></trkpt><trkpt lat="44.98884133716852" lon="9.698045403072857"><ele>80.0</ele><time>2026-05-01T11:22:56Z</time></trkpt><trkpt lat="44.98872656538764" lon="9.698036507496886"><ele>80.0</ele><time>2026-05-01T11:22:57Z</time></trkpt><trkpt lat="44.98862779071853" lon="9.69803410178412"><ele>80.0</ele><time>2026-05-01T11:22:58Z</time></trkpt><trkpt lat="44.98855002130485" lon="9.698026985411135"><ele>80.0</ele><time>2026-05-01T11:22:59Z</time></trkpt><trkpt lat="44.98846566116574" lon="9.698024468611933"><ele>80.0</ele><time>2026-05-01T11:23:01Z</time></trkpt><trkpt lat="44.988387931464125" lon="9.698230750606012"><ele>80.0</ele><time>2026-05-01T11:23:05Z</time></trkpt><trkpt lat="44.98836904517448" lon="9.698376121744154"><ele>80.0</ele><time>2026-05-01T11:23:06Z</time></trkpt><trkpt lat="44.988352130329595" lon="9.698551360842066"><ele>80.0</ele><time>2026-05-01T11:23:07Z</time></trkpt><trkpt lat="44.98833130458357" lon="9.698725975110337"><ele>80.2</ele><time>2026-05-01T11:23:08Z</time></trkpt><trkpt lat="44.98831839525254" lon="9.69887752692599"><ele>80.4</ele><time>2026-05-01T11:23:09Z</time></trkpt><trkpt lat="44.98829852693938" lon="9.699032169083202"><ele>80.6</ele><time>2026-05-01T11:23:10Z</time></trkpt><trkpt lat="44.988274113236606" lon="9.699179412010798"><ele>80.8</ele><time>2026-05-01T11:23:11Z</time></trkpt><trkpt lat="44.988254566360844" lon="9.699330708163725"><ele>81.0</ele><time>2026-05-01T11:23:12Z</time></trkpt><trkpt lat="44.988238380508015" lon="9.699490320446113"><ele>81.0</ele><time>2026-05-01T11:23:13Z</time></trkpt><trkpt lat="44.98822006503779" lon="9.699653194176243"><ele>81.0</ele><time>2026-05-01T11:23:14Z</time></trkpt><trkpt lat="44.98819883180486" lon="9.699806116464693"><ele>81.0</ele><time>2026-05-01T11:23:15Z</time></trkpt><trkpt lat="44.98817290173103" lon="9.699961781415185"><ele>81.0</ele><time>2026-05-01T11:23:16Z</time></trkpt><trkpt lat="44.988154375560846" lon="9.700117952937577"><ele>81.19999999999999</ele><time>2026-05-01T11:23:17Z</time></trkpt><trkpt lat="44.98813529551603" lon="9.70027980392133"><ele>81.39999999999999</ele><time>2026-05-01T11:23:18Z</time></trkpt><trkpt lat="44.98810939355483" lon="9.700435936069518"><ele>81.6</ele><time>2026-05-01T11:23:19Z</time></trkpt><trkpt lat="44.988081706688156" lon="9.700576368042569"><ele>81.8</ele><time>2026-05-01T11:23:20Z</time></trkpt><trkpt lat="44.98807990244282" lon="9.70069157781999"><ele>82.0</ele><time>2026-05-01T11:23:21Z</time></trkpt><trkpt lat="44.988068127821364" lon="9.700785497575007"><ele>82.0</ele><time>2026-05-01T11:23:22Z</time></trkpt><trkpt lat="44.988035134666276" lon="9.700964776804232"><ele>82.0</ele><time>2026-05-01T11:23:24Z</time></trkpt><trkpt lat="44.988027531257565" lon="9.701084937555166"><ele>82.0</ele><time>2026-05-01T11:23:26Z</time></trkpt><trkpt lat="44.98807936091808" lon="9.701148652724298"><ele>82.0</ele><time>2026-05-01T11:23:30Z</time></trkpt><trkpt lat="44.98814112222319" lon="9.701098733738178"><ele>82.0</ele><time>2026-05-01T11:23:33Z</time></trkpt><trkpt lat="44.98812627781203" lon="9.700990884886437"><ele>82.0</ele><time>2026-05-01T11:23:35Z</time></trkpt><trkpt lat="44.98807945461018" lon="9.700798008639039"><ele>82.0</ele><time>2026-05-01T11:23:37Z</time></trkpt><trkpt lat="44.98807337982231" lon="9.70067982066181"><ele>82.0</ele><time>2026-05-01T11:23:38Z</time></trkpt><trkpt lat="44.9880952920841" lon="9.700541825819935"><ele>82.0</ele><time>2026-05-01T11:23:39Z</time></trkpt><trkpt lat="44.988125944734044" lon="9.700394471331698"><ele>82.0</ele><time>2026-05-01T11:23:40Z</time></trkpt><trkpt lat="44.988146560586735" lon="9.700209697307004"><ele>82.0</ele><time>2026-05-01T11:23:41Z</time></trkpt><trkpt lat="44.98816438264834" lon="9.7000218793261"><ele>81.75</ele><time>2026-05-01T11:23:42Z</time></trkpt><trkpt lat="44.98818999215352" lon="9.699827164574243"><ele>81.5</ele><time>2026-05-01T11:23:43Z</time></trkpt><trkpt lat="44.98821651425479" lon="9.699635196067705"><ele>81.25</ele><time>2026-05-01T11:23:44Z</time></trkpt><trkpt lat="44.98824407189589" lon="9.699444700849643"><ele>81.0</ele><time>2026-05-01T11:23:45Z</time></trkpt><trkpt lat="44.98826745503178" lon="9.699259468938314"><ele>81.0</ele><time>2026-05-01T11:23:46Z</time></trkpt><trkpt lat="44.988279083475874" lon="9.699084550159352"><ele>81.0</ele><time>2026-05-01T11:23:47Z</time></trkpt><trkpt lat="44.98830350811198" lon="9.698912715094071"><ele>81.0</ele><time>2026-05-01T11:23:48Z</time></trkpt><trkpt lat="44.98832998342698" lon="9.698741206614924"><ele>81.0</ele><time>2026-05-01T11:23:49Z</time></trkpt><trkpt lat="44.98835463884933" lon="9.698563577619186"><ele>80.83333333333333</ele><time>2026-05-01T11:23:50Z</time></trkpt><trkpt lat="44.988375941493004" lon="9.698417729760205"><ele>80.66666666666667</ele><time>2026-05-01T11:23:51Z</time></trkpt><trkpt lat="44.98839383674191" lon="9.698298533706952"><ele>80.5</ele><time>2026-05-01T11:23:52Z</time></trkpt><trkpt lat="44.98840653643362" lon="9.698208113782053"><ele>80.33333333333334</ele><time>2026-05-01T11:23:53Z</time></trkpt><trkpt lat="44.988430185707365" lon="9.698073311615568"><ele>80.16666666666667</ele><time>2026-05-01T11:23:55Z</time></trkpt><trkpt lat="44.98848999536318" lon="9.698012482365158"><ele>80.0</ele><time>2026-05-01T11:23:58Z</time></trkpt><trkpt lat="44.988557309395695" lon="9.698062408578512"><ele>80.0</ele><time>2026-05-01T11:24:00Z</time></trkpt><trkpt lat="44.9886371042609" lon="9.698067222283685"><ele>80.0</ele><time>2026-05-01T11:24:01Z</time></trkpt><trkpt lat="44.98873237566442" lon="9.69807013355059"><ele>80.0</ele><time>2026-05-01T11:24:02Z</time></trkpt><trkpt lat="44.98885787676907" lon="9.698073968580402"><ele>80.0</ele><time>2026-05-01T11:24:03Z</time></trkpt><trkpt lat="44.98899680004588" lon="9.698074159345834"><ele>80.0</ele><time>2026-05-01T11:24:04Z</time></trkpt><trkpt lat="44.98915913383108" lon="9.698067260871266"><ele>80.0</ele><time>2026-05-01T11:24:05Z</time></trkpt><trkpt lat="44.989325000324776" lon="9.698044709488071"><ele>80.0</ele><time>2026-05-01T11:24:06Z</time></trkpt><trkpt lat="44.9894872185827" lon="9.698011339501216"><ele>80.0</ele><time>2026-05-01T11:24:07Z</time></trkpt><trkpt lat="44.98964037303297" lon="9.697981829114669"><ele>80.0</ele><time>2026-05-01T11:24:08Z</time></trkpt><trkpt lat="44.98979012268846" lon="9.697961377820572"><ele>80.0</ele><time>2026-05-01T11:24:09Z</time></trkpt><trkpt lat="44.98992686502471" lon="9.697943549993862"><ele>80.0</ele><time>2026-05-01T11:24:10Z</time></trkpt><trkpt lat="44.990066846406044" lon="9.6979230402682"><ele>80.0</ele><time>2026-05-01T11:24:11Z</time></trkpt><trkpt lat="44.99019321362643" lon="9.697901258939133"><ele>80.0</ele><time>2026-05-01T11:24:12Z</time></trkpt><trkpt lat="44.990305557183135" lon="9.697879321860597"><ele>80.0</ele><time>2026-05-01T11:24:13Z</time></trkpt><trkpt lat="44.99040600573136" lon="9.697858651583458"><ele>80.0</ele><time>2026-05-01T11:24:14Z</time></trkpt><trkpt lat="44.99050377985545" lon="9.697837993229344"><ele>80.0</ele><time>2026-05-01T11:24:15Z</time></trkpt><trkpt lat="44.990612996511025" lon="9.697814327173509"><ele>80.0</ele><time>2026-05-01T11:24:16Z</time></trkpt><trkpt lat="44.99077729023167" lon="9.69777581510433"><ele>79.66666666666667</ele><time>2026-05-01T11:24:17Z</time></trkpt><trkpt lat="44.99095755616154" lon="9.69770488329355"><ele>79.33333333333333</ele><time>2026-05-01T11:24:18Z</time></trkpt><trkpt lat="44.99116183408069" lon="9.69765299587231"><ele>79.0</ele><time>2026-05-01T11:24:19Z</time></trkpt><trkpt lat="44.991367194905735" lon="9.697593228431371"><ele>79.0</ele><time>2026-05-01T11:24:20Z</time></trkpt><trkpt lat="44.99156569153999" lon="9.69756229072106"><ele>79.0</ele><time>2026-05-01T11:24:21Z</time></trkpt><trkpt lat="44.99172742210093" lon="9.697512521657657"><ele>79.0</ele><time>2026-05-01T11:24:22Z</time></trkpt><trkpt lat="44.99187230509781" lon="9.697469314232043"><ele>78.75</ele><time>2026-05-01T11:24:23Z</time></trkpt><trkpt lat="44.99201062654474" lon="9.697428390719029"><ele>78.5</ele><time>2026-05-01T11:24:24Z</time></trkpt><trkpt lat="44.99214350722592" lon="9.697388000096705"><ele>78.25</ele><time>2026-05-01T11:24:25Z</time></trkpt><trkpt lat="44.992257451252584" lon="9.697343942871264"><ele>78.0</ele><time>2026-05-01T11:24:26Z</time></trkpt><trkpt lat="44.99235847053374" lon="9.697302508967361"><ele>78.0</ele><time>2026-05-01T11:24:27Z</time></trkpt><trkpt lat="44.9924338244869" lon="9.697272197142619"><ele>78.0</ele><time>2026-05-01T11:24:28Z</time></trkpt><trkpt lat="44.99253699505635" lon="9.697234666516012"><ele>78.0</ele><time>2026-05-01T11:24:30Z</time></trkpt><trkpt lat="44.992605014502075" lon="9.697247240028611"><ele>78.0</ele><time>2026-05-01T11:24:32Z</time></trkpt><trkpt lat="44.99263473759985" lon="9.69738963949189"><ele>78.0</ele><time>2026-05-01T11:24:34.001Z</time></trkpt><trkpt lat="44.99262824031474" lon="9.697492072862715"><ele>78.0</ele><time>2026-05-01T11:24:35.001Z</time></trkpt><trkpt lat="44.99261714205869" lon="9.697646539120258"><ele>77.75</ele><time>2026-05-01T11:24:36.001Z</time></trkpt><trkpt lat="44.99260104332765" lon="9.697837348439403"><ele>77.5</ele><time>2026-05-01T11:24:37.001Z</time></trkpt><trkpt lat="44.992576325666754" lon="9.698032455447088"><ele>77.25</ele><time>2026-05-01T11:24:38.001Z</time></trkpt><trkpt lat="44.992592591988114" lon="9.698206052987352"><ele>77.0</ele><time>2026-05-01T11:24:39.001Z</time></trkpt><trkpt lat="44.9925924016646" lon="9.698349878750388"><ele>77.0</ele><time>2026-05-01T11:24:40.001Z</time></trkpt><trkpt lat="44.992584681966456" lon="9.698482750463612"><ele>77.0</ele><time>2026-05-01T11:24:41.001Z</time></trkpt><trkpt lat="44.99258883003369" lon="9.69861522528475"><ele>77.0</ele><time>2026-05-01T11:24:42.001Z</time></trkpt><trkpt lat="44.992600760713884" lon="9.698746772674562"><ele>77.0</ele><time>2026-05-01T11:24:43.001Z</time></trkpt><trkpt lat="44.99258807769368" lon="9.698860068184164"><ele>77.0</ele><time>2026-05-01T11:24:44.001Z</time></trkpt><trkpt lat="44.99255963289891" lon="9.698960082296258"><ele>77.0</ele><time>2026-05-01T11:24:45.001Z</time></trkpt><trkpt lat="44.992556036966945" lon="9.699050428392425"><ele>77.16666666666667</ele><time>2026-05-01T11:24:46.001Z</time></trkpt><trkpt lat="44.99255531942789" lon="9.699141266516953"><ele>77.33333333333334</ele><time>2026-05-01T11:24:47.001Z</time></trkpt><trkpt lat="44.99255485784391" lon="9.699247225863939"><ele>77.5</ele><time>2026-05-01T11:24:48.001Z</time></trkpt><trkpt lat="44.99255257507728" lon="9.699378448772675"><ele>77.66666666666667</ele><time>2026-05-01T11:24:49.001Z</time></trkpt><trkpt lat="44.99254922903551" lon="9.699495372732722"><ele>77.83333333333333</ele><time>2026-05-01T11:24:50.001Z</time></trkpt><trkpt lat="44.99255631250527" lon="9.699614439759129"><ele>78.0</ele><time>2026-05-01T11:24:52.001Z</time></trkpt><trkpt lat="44.99258973666781" lon="9.69953694394349"><ele>78.0</ele><time>2026-05-01T11:25:14Z</time></trkpt><trkpt lat="44.99256855321219" lon="9.699417767024553"><ele>78.0</ele><time>2026-05-01T11:25:16Z</time></trkpt><trkpt lat="44.99257434087394" lon="9.69932346350907"><ele>78.0</ele><time>2026-05-01T11:25:17Z</time></trkpt><trkpt lat="44.99258346729757" lon="9.69922965850035"><ele>78.0</ele><time>2026-05-01T11:25:18Z</time></trkpt><trkpt lat="44.99257971035295" lon="9.69913519517775"><ele>78.0</ele><time>2026-05-01T11:25:19Z</time></trkpt><trkpt lat="44.9925890501953" lon="9.699041018771522"><ele>78.0</ele><time>2026-05-01T11:25:20Z</time></trkpt><trkpt lat="44.992595379475716" lon="9.698920455571608"><ele>78.0</ele><time>2026-05-01T11:25:21Z</time></trkpt><trkpt lat="44.99261660948521" lon="9.698788897863006"><ele>78.0</ele><time>2026-05-01T11:25:22Z</time></trkpt><trkpt lat="44.99266094144407" lon="9.698667392305875"><ele>78.0</ele><time>2026-05-01T11:25:23Z</time></trkpt><trkpt lat="44.99260399011842" lon="9.698467422289596"><ele>78.0</ele><time>2026-05-01T11:25:24Z</time></trkpt><trkpt lat="44.99259989323015" lon="9.698310405719155"><ele>78.0</ele><time>2026-05-01T11:25:25Z</time></trkpt><trkpt lat="44.99261068806724" lon="9.698162648520817"><ele>78.0</ele><time>2026-05-01T11:25:26Z</time></trkpt><trkpt lat="44.99260987121121" lon="9.698022603326276"><ele>78.0</ele><time>2026-05-01T11:25:27Z</time></trkpt><trkpt lat="44.99261235291507" lon="9.697862193102052"><ele>78.0</ele><time>2026-05-01T11:25:28Z</time></trkpt><trkpt lat="44.992616177495194" lon="9.697692934980042"><ele>78.0</ele><time>2026-05-01T11:25:29.001Z</time></trkpt><trkpt lat="44.992620595555735" lon="9.697538198917073"><ele>78.0</ele><time>2026-05-01T11:25:30.001Z</time></trkpt><trkpt lat="44.99262303549228" lon="9.697402703285462"><ele>78.0</ele><time>2026-05-01T11:25:31.001Z</time></trkpt><trkpt lat="44.99262028442367" lon="9.697303169518865"><ele>78.0</ele><time>2026-05-01T11:25:32.001Z</time></trkpt><trkpt lat="44.99261386765599" lon="9.697209909647755"><ele>78.0</ele><time>2026-05-01T11:25:34.001Z</time></trkpt><trkpt lat="44.99243625925801" lon="9.697227531086455"><ele>78.0</ele><time>2026-05-01T11:25:37.001Z</time></trkpt><trkpt lat="44.99234714637583" lon="9.697269748668262"><ele>78.0</ele><time>2026-05-01T11:25:38.001Z</time></trkpt><trkpt lat="44.99223540621379" lon="9.697317611494277"><ele>78.0</ele><time>2026-05-01T11:25:39.001Z</time></trkpt><trkpt lat="44.992110480297214" lon="9.69736889517978"><ele>78.0</ele><time>2026-05-01T11:25:40.001Z</time></trkpt><trkpt lat="44.99196372338388" lon="9.697416573961837"><ele>78.0</ele><time>2026-05-01T11:25:41.001Z</time></trkpt><trkpt lat="44.99180298110163" lon="9.697458590393731"><ele>78.0</ele><time>2026-05-01T11:25:42.001Z</time></trkpt><trkpt lat="44.991639546649274" lon="9.697508209393419"><ele>78.33333333333333</ele><time>2026-05-01T11:25:43.001Z</time></trkpt><trkpt lat="44.991476565988236" lon="9.697557826435766"><ele>78.66666666666666</ele><time>2026-05-01T11:25:44.001Z</time></trkpt><trkpt lat="44.9912990032067" lon="9.697609266378093"><ele>79.0</ele><time>2026-05-01T11:25:45.001Z</time></trkpt><trkpt lat="44.99112501284048" lon="9.697634329228023"><ele>79.0</ele><time>2026-05-01T11:25:46.001Z</time></trkpt><trkpt lat="44.990977890722775" lon="9.697674037085113"><ele>79.0</ele><time>2026-05-01T11:25:47.001Z</time></trkpt><trkpt lat="44.990829554437134" lon="9.697737489871109"><ele>79.0</ele><time>2026-05-01T11:25:48.001Z</time></trkpt><trkpt lat="44.990678811414256" lon="9.697774546239813"><ele>79.25</ele><time>2026-05-01T11:25:49.001Z</time></trkpt><trkpt lat="44.990546120500454" lon="9.697781604170906"><ele>79.5</ele><time>2026-05-01T11:25:50.001Z</time></trkpt><trkpt lat="44.99043038643753" lon="9.69780605717524"><ele>79.75</ele><time>2026-05-01T11:25:51.001Z</time></trkpt><trkpt lat="44.99031282811629" lon="9.697850399921077"><ele>80.0</ele><time>2026-05-01T11:25:52.001Z</time></trkpt><trkpt lat="44.99017250437119" lon="9.69787634659221"><ele>80.0</ele><time>2026-05-01T11:25:53.001Z</time></trkpt><trkpt lat="44.99001498816983" lon="9.697902795343444"><ele>80.0</ele><time>2026-05-01T11:25:54.001Z</time></trkpt><trkpt lat="44.98986582882566" lon="9.697921040657095"><ele>80.0</ele><time>2026-05-01T11:25:55.001Z</time></trkpt><trkpt lat="44.989728809829955" lon="9.697942856449691"><ele>80.0</ele><time>2026-05-01T11:25:56.001Z</time></trkpt><trkpt lat="44.98958820415579" lon="9.697959926948865"><ele>80.0</ele><time>2026-05-01T11:25:57.001Z</time></trkpt><trkpt lat="44.98944775494043" lon="9.697984886395941"><ele>80.0</ele><time>2026-05-01T11:25:58.001Z</time></trkpt><trkpt lat="44.98930873707295" lon="9.698009887823483"><ele>80.0</ele><time>2026-05-01T11:25:59.001Z</time></trkpt><trkpt lat="44.98916590544542" lon="9.69803621838171"><ele>80.0</ele><time>2026-05-01T11:26:00.001Z</time></trkpt><trkpt lat="44.989010386722796" lon="9.698027240653913"><ele>80.0</ele><time>2026-05-01T11:26:01.001Z</time></trkpt><trkpt lat="44.988855038334705" lon="9.69802724065443"><ele>80.0</ele><time>2026-05-01T11:26:02.001Z</time></trkpt><trkpt lat="44.98869228112686" lon="9.698045024701603"><ele>80.0</ele><time>2026-05-01T11:26:03.001Z</time></trkpt><trkpt lat="44.98852899399303" lon="9.698034820307702"><ele>80.0</ele><time>2026-05-01T11:26:04.001Z</time></trkpt><trkpt lat="44.98837379400528" lon="9.697995878098366"><ele>80.0</ele><time>2026-05-01T11:26:05.001Z</time></trkpt><trkpt lat="44.98821313561658" lon="9.697974661696566"><ele>80.0</ele><time>2026-05-01T11:26:06.001Z</time></trkpt><trkpt lat="44.98804935122902" lon="9.69795515574923"><ele>80.33333333333334</ele><time>2026-05-01T11:26:07.001Z</time></trkpt><trkpt lat="44.987888215634975" lon="9.697939324439309"><ele>80.66666666666667</ele><time>2026-05-01T11:26:08.001Z</time></trkpt><trkpt lat="44.9877312872418" lon="9.697926775161177"><ele>81.0</ele><time>2026-05-01T11:26:09.001Z</time></trkpt><trkpt lat="44.9875774264439" lon="9.697914471195807"><ele>81.25</ele><time>2026-05-01T11:26:10.001Z</time></trkpt><trkpt lat="44.98742717494209" lon="9.697902455857305"><ele>81.5</ele><time>2026-05-01T11:26:11.001Z</time></trkpt><trkpt lat="44.98728992190093" lon="9.697888193903848"><ele>81.75</ele><time>2026-05-01T11:26:12.001Z</time></trkpt><trkpt lat="44.987158890260005" lon="9.697873622749244"><ele>82.0</ele><time>2026-05-01T11:26:13.001Z</time></trkpt><trkpt lat="44.9870121327661" lon="9.697854692800508"><ele>82.0</ele><time>2026-05-01T11:26:14.001Z</time></trkpt><trkpt lat="44.98687133330618" lon="9.697835965124376"><ele>82.0</ele><time>2026-05-01T11:26:15.001Z</time></trkpt><trkpt lat="44.986726120184514" lon="9.697812095832319"><ele>82.0</ele><time>2026-05-01T11:26:16.001Z</time></trkpt><trkpt lat="44.98656158405574" lon="9.697785048155453"><ele>82.33333333333333</ele><time>2026-05-01T11:26:17.001Z</time></trkpt><trkpt lat="44.98638940653853" lon="9.697757515482586"><ele>82.66666666666667</ele><time>2026-05-01T11:26:18.001Z</time></trkpt><trkpt lat="44.98622542382619" lon="9.697731430338889"><ele>83.0</ele><time>2026-05-01T11:26:19.001Z</time></trkpt><trkpt lat="44.98606850613017" lon="9.697709226579406"><ele>83.0</ele><time>2026-05-01T11:26:20.001Z</time></trkpt><trkpt lat="44.985930934174675" lon="9.697714642617342"><ele>83.0</ele><time>2026-05-01T11:26:21.001Z</time></trkpt><trkpt lat="44.98581348656085" lon="9.69769698333912"><ele>83.0</ele><time>2026-05-01T11:26:22.001Z</time></trkpt><trkpt lat="44.985708728681345" lon="9.697690325070717"><ele>83.0</ele><time>2026-05-01T11:26:23.001Z</time></trkpt><trkpt lat="44.985614257176756" lon="9.697684724506173"><ele>82.80000000000001</ele><time>2026-05-01T11:26:24.001Z</time></trkpt><trkpt lat="44.98552525627245" lon="9.697684857580148"><ele>82.6</ele><time>2026-05-01T11:26:25.001Z</time></trkpt><trkpt lat="44.985436794342164" lon="9.697674970433255"><ele>82.4</ele><time>2026-05-01T11:26:26.001Z</time></trkpt><trkpt lat="44.985341483289545" lon="9.697672009776872"><ele>82.19999999999999</ele><time>2026-05-01T11:26:27.001Z</time></trkpt><trkpt lat="44.98524462305628" lon="9.697649933938246"><ele>82.0</ele><time>2026-05-01T11:26:28.001Z</time></trkpt><trkpt lat="44.98514623876282" lon="9.697643553621157"><ele>82.0</ele><time>2026-05-01T11:26:29.001Z</time></trkpt><trkpt lat="44.98504815854537" lon="9.6976367105928"><ele>82.0</ele><time>2026-05-01T11:26:30.001Z</time></trkpt><trkpt lat="44.98496041114086" lon="9.697638616212739"><ele>82.0</ele><time>2026-05-01T11:26:31.001Z</time></trkpt><trkpt lat="44.98488683367626" lon="9.697677757096816"><ele>82.0</ele><time>2026-05-01T11:26:32.001Z</time></trkpt><trkpt lat="44.984822291463615" lon="9.697695117121453"><ele>82.0</ele><time>2026-05-01T11:26:34.001Z</time></trkpt><trkpt lat="44.98480921124988" lon="9.697905200197598"><ele>82.5</ele><time>2026-05-01T11:26:37.001Z</time></trkpt><trkpt lat="44.98482112654438" lon="9.698036203620234"><ele>83.0</ele><time>2026-05-01T11:26:38.001Z</time></trkpt><trkpt lat="44.98482099308268" lon="9.698193903568697"><ele>83.5</ele><time>2026-05-01T11:26:39.001Z</time></trkpt><trkpt lat="44.98481109501406" lon="9.69837898643895"><ele>84.0</ele><time>2026-05-01T11:26:40.001Z</time></trkpt><trkpt lat="44.98477380078936" lon="9.698579111758091"><ele>84.25</ele><time>2026-05-01T11:26:41.001Z</time></trkpt><trkpt lat="44.98477949030162" lon="9.698781083294362"><ele>84.5</ele><time>2026-05-01T11:26:42.001Z</time></trkpt><trkpt lat="44.98477463130005" lon="9.698966873838863"><ele>84.75</ele><time>2026-05-01T11:26:43.001Z</time></trkpt><trkpt lat="44.98476950023957" lon="9.69916306693084"><ele>85.0</ele><time>2026-05-01T11:26:44.001Z</time></trkpt><trkpt lat="44.984764091078354" lon="9.699369893626411"><ele>84.75</ele><time>2026-05-01T11:26:45.001Z</time></trkpt><trkpt lat="44.98475857617458" lon="9.69958076346663"><ele>84.5</ele><time>2026-05-01T11:26:46.001Z</time></trkpt><trkpt lat="44.98475314245585" lon="9.699793414569054"><ele>84.25</ele><time>2026-05-01T11:26:47.001Z</time></trkpt><trkpt lat="44.98474980372195" lon="9.699995916030876"><ele>84.0</ele><time>2026-05-01T11:26:48.001Z</time></trkpt><trkpt lat="44.9847465012708" lon="9.700196216918776"><ele>84.25</ele><time>2026-05-01T11:26:49.001Z</time></trkpt><trkpt lat="44.9847433509079" lon="9.700387293214659"><ele>84.5</ele><time>2026-05-01T11:26:50.001Z</time></trkpt><trkpt lat="44.98474014254395" lon="9.70058188750011"><ele>84.75</ele><time>2026-05-01T11:26:51.001Z</time></trkpt><trkpt lat="44.984737059611646" lon="9.700765710666145"><ele>85.0</ele><time>2026-05-01T11:26:52.001Z</time></trkpt><trkpt lat="44.98473280088202" lon="9.700953468286214"><ele>85.0</ele><time>2026-05-01T11:26:53.001Z</time></trkpt><trkpt lat="44.9847281054987" lon="9.701141889510916"><ele>85.0</ele><time>2026-05-01T11:26:54.001Z</time></trkpt><trkpt lat="44.9847234339906" lon="9.701329352645425"><ele>85.0</ele><time>2026-05-01T11:26:55.001Z</time></trkpt><trkpt lat="44.98471875151218" lon="9.701485193028633"><ele>85.0</ele><time>2026-05-01T11:26:56.001Z</time></trkpt><trkpt lat="44.984713553279164" lon="9.70163457626682"><ele>85.0</ele><time>2026-05-01T11:26:57.001Z</time></trkpt><trkpt lat="44.98471646158726" lon="9.70174064383245"><ele>85.0</ele><time>2026-05-01T11:26:58.001Z</time></trkpt><trkpt lat="44.984718504785505" lon="9.701875961169739"><ele>85.0</ele><time>2026-05-01T11:27:00.001Z</time></trkpt><trkpt lat="44.98484928670499" lon="9.701878548663721"><ele>85.0</ele><time>2026-05-01T11:27:02.001Z</time></trkpt><trkpt lat="44.9849335256677" lon="9.701880353995767"><ele>85.0</ele><time>2026-05-01T11:27:03.001Z</time></trkpt><trkpt lat="44.985054921675754" lon="9.70187258538226"><ele>84.66666666666666</ele><time>2026-05-01T11:27:04.001Z</time></trkpt><trkpt lat="44.985194892970995" lon="9.70189747989621"><ele>84.33333333333333</ele><time>2026-05-01T11:27:05.001Z</time></trkpt><trkpt lat="44.98535343558249" lon="9.70190678262026"><ele>84.0</ele><time>2026-05-01T11:27:06.001Z</time></trkpt><trkpt lat="44.9855316574418" lon="9.701917240056929"><ele>84.0</ele><time>2026-05-01T11:27:07.001Z</time></trkpt><trkpt lat="44.9857182086904" lon="9.701928186230333"><ele>84.0</ele><time>2026-05-01T11:27:08.001Z</time></trkpt><trkpt lat="44.98590843134066" lon="9.701939347829738"><ele>84.0</ele><time>2026-05-01T11:27:09.001Z</time></trkpt><trkpt lat="44.986101634995364" lon="9.701950684344208"><ele>83.75</ele><time>2026-05-01T11:27:10.001Z</time></trkpt><trkpt lat="44.98628608522789" lon="9.701961507240277"><ele>83.5</ele><time>2026-05-01T11:27:11.001Z</time></trkpt><trkpt lat="44.98643806693143" lon="9.70197042499548"><ele>83.25</ele><time>2026-05-01T11:27:12.001Z</time></trkpt><trkpt lat="44.98652619337317" lon="9.701975595948499"><ele>83.0</ele><time>2026-05-01T11:27:13.001Z</time></trkpt><trkpt lat="44.9866309797296" lon="9.701981744443453"><ele>83.0</ele><time>2026-05-01T11:27:16.001Z</time></trkpt><trkpt lat="44.98671252059157" lon="9.702008459215717"><ele>83.0</ele><time>2026-05-01T11:27:19.001Z</time></trkpt><trkpt lat="44.98671013240993" lon="9.702137630224515"><ele>83.0</ele><time>2026-05-01T11:27:21.001Z</time></trkpt><trkpt lat="44.98669331524385" lon="9.702264060694711"><ele>83.0</ele><time>2026-05-01T11:27:22.001Z</time></trkpt><trkpt lat="44.98667854806488" lon="9.702441445976884"><ele>83.0</ele><time>2026-05-01T11:27:23.001Z</time></trkpt><trkpt lat="44.9866681709801" lon="9.70263626184096"><ele>83.0</ele><time>2026-05-01T11:27:24.001Z</time></trkpt><trkpt lat="44.9866589809337" lon="9.70284743188814"><ele>83.0</ele><time>2026-05-01T11:27:25.001Z</time></trkpt><trkpt lat="44.986646670944005" lon="9.7030606250257"><ele>83.0</ele><time>2026-05-01T11:27:26.001Z</time></trkpt><trkpt lat="44.98663098670375" lon="9.70326743090168"><ele>83.0</ele><time>2026-05-01T11:27:27.001Z</time></trkpt><trkpt lat="44.98662024946371" lon="9.703466176025035"><ele>83.0</ele><time>2026-05-01T11:27:28.001Z</time></trkpt><trkpt lat="44.98660742842602" lon="9.70365736322463"><ele>83.0</ele><time>2026-05-01T11:27:29.001Z</time></trkpt><trkpt lat="44.98659018927529" lon="9.703845741821793"><ele>83.0</ele><time>2026-05-01T11:27:30.001Z</time></trkpt><trkpt lat="44.986579224460456" lon="9.704037451459724"><ele>83.0</ele><time>2026-05-01T11:27:31.001Z</time></trkpt><trkpt lat="44.986573185796885" lon="9.704240187622633"><ele>83.0</ele><time>2026-05-01T11:27:32.001Z</time></trkpt><trkpt lat="44.98655694014662" lon="9.704445142316272"><ele>83.0</ele><time>2026-05-01T11:27:33.001Z</time></trkpt><trkpt lat="44.9865429766423" lon="9.704655206858723"><ele>83.0</ele><time>2026-05-01T11:27:34.001Z</time></trkpt><trkpt lat="44.98652996033185" lon="9.704857891521149"><ele>83.0</ele><time>2026-05-01T11:27:35.001Z</time></trkpt><trkpt lat="44.986518960239074" lon="9.705051175554088"><ele>83.0</ele><time>2026-05-01T11:27:36.001Z</time></trkpt><trkpt lat="44.98650978186538" lon="9.705233119369506"><ele>83.0</ele><time>2026-05-01T11:27:37.001Z</time></trkpt><trkpt lat="44.9864989344799" lon="9.70539876314442"><ele>83.0</ele><time>2026-05-01T11:27:38.001Z</time></trkpt><trkpt lat="44.98649440514583" lon="9.705582752424151"><ele>83.0</ele><time>2026-05-01T11:27:39.001Z</time></trkpt><trkpt lat="44.986480891431775" lon="9.705771503614018"><ele>83.0</ele><time>2026-05-01T11:27:40.001Z</time></trkpt><trkpt lat="44.98647008222937" lon="9.705961419060507"><ele>83.0</ele><time>2026-05-01T11:27:41.001Z</time></trkpt><trkpt lat="44.98646142813645" lon="9.706153584049282"><ele>83.0</ele><time>2026-05-01T11:27:42.001Z</time></trkpt><trkpt lat="44.98645264297118" lon="9.706333376502087"><ele>83.0</ele><time>2026-05-01T11:27:43.001Z</time></trkpt><trkpt lat="44.9864425823585" lon="9.70651468899702"><ele>83.0</ele><time>2026-05-01T11:27:44.001Z</time></trkpt><trkpt lat="44.986435601970314" lon="9.706695881719115"><ele>83.0</ele><time>2026-05-01T11:27:45.001Z</time></trkpt><trkpt lat="44.98642892995918" lon="9.706864122292712"><ele>83.0</ele><time>2026-05-01T11:27:46.001Z</time></trkpt><trkpt lat="44.98641830069982" lon="9.707038687149836"><ele>83.0</ele><time>2026-05-01T11:27:47.001Z</time></trkpt><trkpt lat="44.98641099075269" lon="9.707217630114872"><ele>82.75</ele><time>2026-05-01T11:27:48.001Z</time></trkpt><trkpt lat="44.98639757514523" lon="9.707403234290066"><ele>82.5</ele><time>2026-05-01T11:27:49.001Z</time></trkpt><trkpt lat="44.98637915374816" lon="9.707601260294782"><ele>82.25</ele><time>2026-05-01T11:27:50.001Z</time></trkpt><trkpt lat="44.986360900580046" lon="9.707813263572428"><ele>82.0</ele><time>2026-05-01T11:27:51.001Z</time></trkpt><trkpt lat="44.986351180115186" lon="9.708023547387139"><ele>82.0</ele><time>2026-05-01T11:27:52.001Z</time></trkpt><trkpt lat="44.986344403910216" lon="9.708238097975988"><ele>82.0</ele><time>2026-05-01T11:27:53.001Z</time></trkpt><trkpt lat="44.98633326973039" lon="9.70844515887554"><ele>82.0</ele><time>2026-05-01T11:27:54.001Z</time></trkpt><trkpt lat="44.98631672278977" lon="9.708647577286524"><ele>82.0</ele><time>2026-05-01T11:27:55.001Z</time></trkpt><trkpt lat="44.98630817500368" lon="9.708853454930317"><ele>82.0</ele><time>2026-05-01T11:27:56.001Z</time></trkpt><trkpt lat="44.986303755027166" lon="9.709051894169207"><ele>82.0</ele><time>2026-05-01T11:27:57.001Z</time></trkpt><trkpt lat="44.98629693459688" lon="9.709249871970561"><ele>82.0</ele><time>2026-05-01T11:27:58.001Z</time></trkpt><trkpt lat="44.986287509161194" lon="9.709441337469007"><ele>82.0</ele><time>2026-05-01T11:27:59.001Z</time></trkpt><trkpt lat="44.98627578056412" lon="9.709632084437745"><ele>82.0</ele><time>2026-05-01T11:28:00.001Z</time></trkpt><trkpt lat="44.98626963653646" lon="9.709799941550736"><ele>82.0</ele><time>2026-05-01T11:28:01.001Z</time></trkpt><trkpt lat="44.9862626817088" lon="9.709942771643876"><ele>82.0</ele><time>2026-05-01T11:28:02.001Z</time></trkpt><trkpt lat="44.98625818856533" lon="9.710063778835583"><ele>82.0</ele><time>2026-05-01T11:28:03.001Z</time></trkpt><trkpt lat="44.986237874537885" lon="9.710205508135916"><ele>82.0</ele><time>2026-05-01T11:28:04.001Z</time></trkpt><trkpt lat="44.98623053246027" lon="9.710362879123553"><ele>81.75</ele><time>2026-05-01T11:28:05.001Z</time></trkpt><trkpt lat="44.98624219583522" lon="9.710534508545063"><ele>81.5</ele><time>2026-05-01T11:28:06.001Z</time></trkpt><trkpt lat="44.98625556471999" lon="9.710700962795686"><ele>81.25</ele><time>2026-05-01T11:28:07.001Z</time></trkpt><trkpt lat="44.98624863154355" lon="9.710862346022736"><ele>81.0</ele><time>2026-05-01T11:28:08.001Z</time></trkpt><trkpt lat="44.986231890275775" lon="9.711050483453166"><ele>81.0</ele><time>2026-05-01T11:28:09.001Z</time></trkpt><trkpt lat="44.98621887695551" lon="9.711249489979219"><ele>81.0</ele><time>2026-05-01T11:28:10.001Z</time></trkpt><trkpt lat="44.986207536588566" lon="9.711449191422098"><ele>81.0</ele><time>2026-05-01T11:28:11.001Z</time></trkpt><trkpt lat="44.986198926902176" lon="9.71162990646978"><ele>81.0</ele><time>2026-05-01T11:28:12.001Z</time></trkpt><trkpt lat="44.986199354818595" lon="9.711811107872197"><ele>81.0</ele><time>2026-05-01T11:28:13.001Z</time></trkpt><trkpt lat="44.986198713119045" lon="9.711977159609233"><ele>81.0</ele><time>2026-05-01T11:28:14.001Z</time></trkpt><trkpt lat="44.98619283418704" lon="9.712166329568518"><ele>81.0</ele><time>2026-05-01T11:28:15.001Z</time></trkpt><trkpt lat="44.986184511493974" lon="9.712373527621844"><ele>81.0</ele><time>2026-05-01T11:28:16.001Z</time></trkpt><trkpt lat="44.98618685285095" lon="9.712602998625378"><ele>81.0</ele><time>2026-05-01T11:28:17.001Z</time></trkpt><trkpt lat="44.98619339507017" lon="9.712787367409781"><ele>81.0</ele><time>2026-05-01T11:28:18.001Z</time></trkpt><trkpt lat="44.9861923993515" lon="9.71294397514574"><ele>81.0</ele><time>2026-05-01T11:28:19.001Z</time></trkpt><trkpt lat="44.98619273523783" lon="9.713108828010238"><ele>81.0</ele><time>2026-05-01T11:28:20.001Z</time></trkpt><trkpt lat="44.98618547712855" lon="9.713276530916117"><ele>81.0</ele><time>2026-05-01T11:28:21.001Z</time></trkpt><trkpt lat="44.98618014936322" lon="9.713414721606146"><ele>81.0</ele><time>2026-05-01T11:28:22.001Z</time></trkpt><trkpt lat="44.98618341665258" lon="9.713541831494839"><ele>81.0</ele><time>2026-05-01T11:28:23.001Z</time></trkpt><trkpt lat="44.986171081040474" lon="9.713655532883886"><ele>81.0</ele><time>2026-05-01T11:28:24.001Z</time></trkpt><trkpt lat="44.986207096164975" lon="9.713781278084378"><ele>81.0</ele><time>2026-05-01T11:28:26.001Z</time></trkpt><trkpt lat="44.98632466238203" lon="9.713843017127518"><ele>81.19999999999999</ele><time>2026-05-01T11:28:28.001Z</time></trkpt><trkpt lat="44.986406865178" lon="9.713837801954718"><ele>81.39999999999999</ele><time>2026-05-01T11:28:29.001Z</time></trkpt><trkpt lat="44.986505381476384" lon="9.713805868375387"><ele>81.6</ele><time>2026-05-01T11:28:30.001Z</time></trkpt><trkpt lat="44.986629549863075" lon="9.713764523329942"><ele>81.8</ele><time>2026-05-01T11:28:31.001Z</time></trkpt><trkpt lat="44.986750850760075" lon="9.713727759130215"><ele>82.0</ele><time>2026-05-01T11:28:32.001Z</time></trkpt><trkpt lat="44.986873582236996" lon="9.713698512625895"><ele>81.6</ele><time>2026-05-01T11:28:33.001Z</time></trkpt><trkpt lat="44.986995920869454" lon="9.71366854958466"><ele>81.19999999999999</ele><time>2026-05-01T11:28:34.001Z</time></trkpt><trkpt lat="44.98711734172721" lon="9.713643775667657"><ele>80.8</ele><time>2026-05-01T11:28:35.001Z</time></trkpt><trkpt lat="44.987221616603144" lon="9.71362241502731"><ele>80.4</ele><time>2026-05-01T11:28:36.001Z</time></trkpt><trkpt lat="44.98730683893535" lon="9.713603768385532"><ele>80.0</ele><time>2026-05-01T11:28:37.001Z</time></trkpt><trkpt lat="44.98740143840571" lon="9.713640334049895"><ele>80.0</ele><time>2026-05-01T11:28:39.001Z</time></trkpt><trkpt lat="44.987418530496605" lon="9.713812434250267"><ele>80.0</ele><time>2026-05-01T11:28:41.001Z</time></trkpt><trkpt lat="44.98739989503314" lon="9.713947790926317"><ele>80.0</ele><time>2026-05-01T11:28:42.001Z</time></trkpt><trkpt lat="44.98737655217023" lon="9.714120507876865"><ele>80.0</ele><time>2026-05-01T11:28:43.001Z</time></trkpt><trkpt lat="44.98735615600354" lon="9.714297010659262"><ele>80.5</ele><time>2026-05-01T11:28:44.001Z</time></trkpt><trkpt lat="44.987336511743315" lon="9.714485687547585"><ele>81.0</ele><time>2026-05-01T11:28:45.001Z</time></trkpt><trkpt lat="44.98731418519606" lon="9.714677587785655"><ele>81.5</ele><time>2026-05-01T11:28:46.001Z</time></trkpt><trkpt lat="44.98729485761005" lon="9.71487740482465"><ele>82.0</ele><time>2026-05-01T11:28:47.001Z</time></trkpt><trkpt lat="44.987284667525095" lon="9.715032489032355"><ele>82.0</ele><time>2026-05-01T11:28:48.001Z</time></trkpt><trkpt lat="44.987280729484716" lon="9.715199367978927"><ele>82.0</ele><time>2026-05-01T11:28:49.001Z</time></trkpt><trkpt lat="44.98726536601684" lon="9.715387885086619"><ele>82.0</ele><time>2026-05-01T11:28:50.001Z</time></trkpt><trkpt lat="44.98725481075595" lon="9.715535231701143"><ele>82.0</ele><time>2026-05-01T11:28:51.001Z</time></trkpt><trkpt lat="44.987240995527266" lon="9.715687567753776"><ele>82.0</ele><time>2026-05-01T11:28:52.001Z</time></trkpt><trkpt lat="44.987207437236364" lon="9.715845446345687"><ele>82.0</ele><time>2026-05-01T11:28:55.001Z</time></trkpt><trkpt lat="44.987117223493556" lon="9.715882941660936"><ele>82.0</ele><time>2026-05-01T11:28:57.001Z</time></trkpt><trkpt lat="44.987046669696014" lon="9.715854068279668"><ele>82.0</ele><time>2026-05-01T11:28:58.001Z</time></trkpt><trkpt lat="44.986928146622525" lon="9.7158070102482"><ele>82.0</ele><time>2026-05-01T11:28:59.001Z</time></trkpt><trkpt lat="44.986789802208" lon="9.715767030782224"><ele>81.66666666666666</ele><time>2026-05-01T11:29:00.001Z</time></trkpt><trkpt lat="44.98662871728463" lon="9.715732425801267"><ele>81.33333333333333</ele><time>2026-05-01T11:29:01.001Z</time></trkpt><trkpt lat="44.986443497076586" lon="9.715689893167278"><ele>81.0</ele><time>2026-05-01T11:29:02.001Z</time></trkpt><trkpt lat="44.986245593265814" lon="9.715647557086672"><ele>81.0</ele><time>2026-05-01T11:29:03.001Z</time></trkpt><trkpt lat="44.98603207915436" lon="9.715598711070234"><ele>81.0</ele><time>2026-05-01T11:29:04.001Z</time></trkpt><trkpt lat="44.985812394303686" lon="9.715552400421823"><ele>81.0</ele><time>2026-05-01T11:29:05.001Z</time></trkpt><trkpt lat="44.9855857141765" lon="9.715502695063295"><ele>81.0</ele><time>2026-05-01T11:29:06.001Z</time></trkpt><trkpt lat="44.98535489851788" lon="9.715428388659225"><ele>81.0</ele><time>2026-05-01T11:29:07.001Z</time></trkpt><trkpt lat="44.985111010575494" lon="9.715392945336372"><ele>81.33333333333333</ele><time>2026-05-01T11:29:08.001Z</time></trkpt><trkpt lat="44.98488262993426" lon="9.715339419595"><ele>81.66666666666666</ele><time>2026-05-01T11:29:09.001Z</time></trkpt><trkpt lat="44.98467925124419" lon="9.715289094026076"><ele>82.0</ele><time>2026-05-01T11:29:10.001Z</time></trkpt><trkpt lat="44.98449263483001" lon="9.715250980831062"><ele>81.75</ele><time>2026-05-01T11:29:11.001Z</time></trkpt><trkpt lat="44.98433694633952" lon="9.715220874109036"><ele>81.5</ele><time>2026-05-01T11:29:12.001Z</time></trkpt><trkpt lat="44.98421471666633" lon="9.71519668759968"><ele>81.25</ele><time>2026-05-01T11:29:13.001Z</time></trkpt><trkpt lat="44.9841044667711" lon="9.715167457536468"><ele>81.0</ele><time>2026-05-01T11:29:14.001Z</time></trkpt><trkpt lat="44.98401569805542" lon="9.715149562797988"><ele>81.4</ele><time>2026-05-01T11:29:15.001Z</time></trkpt><trkpt lat="44.98394391844894" lon="9.71513172970639"><ele>81.8</ele><time>2026-05-01T11:29:17.001Z</time></trkpt><trkpt lat="44.98395365849456" lon="9.71500386649519"><ele>82.2</ele><time>2026-05-01T11:29:24.001Z</time></trkpt><trkpt lat="44.98398123334507" lon="9.714873411394084"><ele>82.60000000000001</ele><time>2026-05-01T11:29:25.001Z</time></trkpt><trkpt lat="44.98398271799828" lon="9.714709463868477"><ele>83.0</ele><time>2026-05-01T11:29:26.001Z</time></trkpt><trkpt lat="44.983999619320564" lon="9.714532068011765"><ele>83.2</ele><time>2026-05-01T11:29:27.001Z</time></trkpt><trkpt lat="44.98399770193952" lon="9.714385773562038"><ele>83.4</ele><time>2026-05-01T11:29:28.001Z</time></trkpt><trkpt lat="44.98399123130428" lon="9.71428323736752"><ele>83.60000000000001</ele><time>2026-05-01T11:29:29.001Z</time></trkpt><trkpt lat="44.98397130059613" lon="9.714197677838358"><ele>83.80000000000001</ele><time>2026-05-01T11:29:32.001Z</time></trkpt><trkpt lat="44.98381555115382" lon="9.714268442262581"><ele>84.0</ele><time>2026-05-01T11:29:33.001Z</time></trkpt><trkpt lat="44.983705413624264" lon="9.714289496638594"><ele>84.0</ele><time>2026-05-01T11:29:34.001Z</time></trkpt><trkpt lat="44.98357311513821" lon="9.71431960649566"><ele>84.0</ele><time>2026-05-01T11:29:35.001Z</time></trkpt><trkpt lat="44.983433464387566" lon="9.714374762764795"><ele>84.0</ele><time>2026-05-01T11:29:36.001Z</time></trkpt><trkpt lat="44.983271829771994" lon="9.714410574761365"><ele>84.0</ele><time>2026-05-01T11:29:37.001Z</time></trkpt><trkpt lat="44.983087174745854" lon="9.714428174738174"><ele>84.0</ele><time>2026-05-01T11:29:38.001Z</time></trkpt><trkpt lat="44.98289601701047" lon="9.714492014971704"><ele>84.0</ele><time>2026-05-01T11:29:39.001Z</time></trkpt><trkpt lat="44.98269156799905" lon="9.714538220276136"><ele>84.0</ele><time>2026-05-01T11:29:40.001Z</time></trkpt><trkpt lat="44.98247856836186" lon="9.71456452371863"><ele>84.66666666666667</ele><time>2026-05-01T11:29:41.001Z</time></trkpt><trkpt lat="44.982266440143164" lon="9.714612886432823"><ele>85.33333333333334</ele><time>2026-05-01T11:29:42.001Z</time></trkpt><trkpt lat="44.982050464237936" lon="9.714684521180276"><ele>86.0</ele><time>2026-05-01T11:29:43.001Z</time></trkpt><trkpt lat="44.981834927249444" lon="9.714732341610285"><ele>86.33333333333334</ele><time>2026-05-01T11:29:44.001Z</time></trkpt><trkpt lat="44.981619934778465" lon="9.714779868506332"><ele>86.66666666666667</ele><time>2026-05-01T11:29:45.001Z</time></trkpt><trkpt lat="44.98140284949557" lon="9.714831936307485"><ele>87.0</ele><time>2026-05-01T11:29:46.001Z</time></trkpt><trkpt lat="44.98118515570025" lon="9.714860138716785"><ele>87.0</ele><time>2026-05-01T11:29:47.001Z</time></trkpt><trkpt lat="44.98096838497569" lon="9.714932119701864"><ele>87.0</ele><time>2026-05-01T11:29:48.001Z</time></trkpt><trkpt lat="44.980747724844704" lon="9.714960727010665"><ele>87.0</ele><time>2026-05-01T11:29:49.001Z</time></trkpt><trkpt lat="44.98052974154704" lon="9.715009949128197"><ele>87.5</ele><time>2026-05-01T11:29:50.001Z</time></trkpt><trkpt lat="44.98030930577756" lon="9.71505905893402"><ele>88.0</ele><time>2026-05-01T11:29:51.001Z</time></trkpt><trkpt lat="44.98008789540306" lon="9.71512600918364"><ele>88.0</ele><time>2026-05-01T11:29:52.001Z</time></trkpt><trkpt lat="44.97986659111088" lon="9.715174685500914"><ele>88.0</ele><time>2026-05-01T11:29:53.001Z</time></trkpt><trkpt lat="44.97964698983903" lon="9.715225141051235"><ele>88.0</ele><time>2026-05-01T11:29:54.001Z</time></trkpt><trkpt lat="44.979427829838606" lon="9.715278025788542"><ele>88.0</ele><time>2026-05-01T11:29:55.001Z</time></trkpt><trkpt lat="44.97920884081808" lon="9.715325408120528"><ele>88.0</ele><time>2026-05-01T11:29:56.001Z</time></trkpt><trkpt lat="44.97898779534676" lon="9.7153769409965"><ele>88.0</ele><time>2026-05-01T11:29:57.001Z</time></trkpt><trkpt lat="44.97876975781239" lon="9.71543170476924"><ele>88.33333333333333</ele><time>2026-05-01T11:29:58.001Z</time></trkpt><trkpt lat="44.97855093068467" lon="9.715476548351226"><ele>88.66666666666667</ele><time>2026-05-01T11:29:59.001Z</time></trkpt><trkpt lat="44.978333601077814" lon="9.71553035581656"><ele>89.0</ele><time>2026-05-01T11:30:00.001Z</time></trkpt><trkpt lat="44.978114153487475" lon="9.715560806579681"><ele>89.33333333333334</ele><time>2026-05-01T11:30:01.001Z</time></trkpt><trkpt lat="44.97789749661125" lon="9.715610992192495"><ele>89.66666666666667</ele><time>2026-05-01T11:30:02.001Z</time></trkpt><trkpt lat="44.97767853539198" lon="9.71566171158657"><ele>90.0</ele><time>2026-05-01T11:30:03.001Z</time></trkpt><trkpt lat="44.97746208694555" lon="9.715711132798235"><ele>90.33333333333333</ele><time>2026-05-01T11:30:04.001Z</time></trkpt><trkpt lat="44.977247307994745" lon="9.715759850750432"><ele>90.66666666666666</ele><time>2026-05-01T11:30:05.001Z</time></trkpt><trkpt lat="44.977028205209066" lon="9.715809551372857"><ele>91.0</ele><time>2026-05-01T11:30:06.001Z</time></trkpt><trkpt lat="44.9768130436975" lon="9.715858356324118"><ele>91.66666666666666</ele><time>2026-05-01T11:30:07.001Z</time></trkpt><trkpt lat="44.97659931461058" lon="9.715926045749228"><ele>92.33333333333333</ele><time>2026-05-01T11:30:08.001Z</time></trkpt><trkpt lat="44.976378573756826" lon="9.715980406656284"><ele>93.0</ele><time>2026-05-01T11:30:09.001Z</time></trkpt><trkpt lat="44.976156719442244" lon="9.716011149167343"><ele>93.0</ele><time>2026-05-01T11:30:10.001Z</time></trkpt><trkpt lat="44.97593821478004" lon="9.716062697359906"><ele>93.0</ele><time>2026-05-01T11:30:11.001Z</time></trkpt><trkpt lat="44.97572166814318" lon="9.716113562191127"><ele>93.0</ele><time>2026-05-01T11:30:12.001Z</time></trkpt><trkpt lat="44.97551412456679" lon="9.716161023977484"><ele>92.75</ele><time>2026-05-01T11:30:13.001Z</time></trkpt><trkpt lat="44.97533242120239" lon="9.716202576534595"><ele>92.5</ele><time>2026-05-01T11:30:14.001Z</time></trkpt><trkpt lat="44.97521177469746" lon="9.716230166408643"><ele>92.25</ele><time>2026-05-01T11:30:15.001Z</time></trkpt><trkpt lat="44.97512819755354" lon="9.716249279191612"><ele>92.0</ele><time>2026-05-01T11:30:16.001Z</time></trkpt><trkpt lat="44.97503241223719" lon="9.716270342130683"><ele>92.66666666666667</ele><time>2026-05-01T11:30:17.001Z</time></trkpt><trkpt lat="44.97489001941738" lon="9.716305768014475"><ele>93.33333333333333</ele><time>2026-05-01T11:30:18.001Z</time></trkpt><trkpt lat="44.974702984122146" lon="9.716352482566988"><ele>94.0</ele><time>2026-05-01T11:30:19.001Z</time></trkpt><trkpt lat="44.97449564003448" lon="9.716404269517982"><ele>94.0</ele><time>2026-05-01T11:30:20.001Z</time></trkpt><trkpt lat="44.97427773061894" lon="9.71645841457805"><ele>94.0</ele><time>2026-05-01T11:30:21.001Z</time></trkpt><trkpt lat="44.974054841695086" lon="9.716533838157755"><ele>93.0</ele><time>2026-05-01T11:30:22.001Z</time></trkpt><trkpt lat="44.97381245268395" lon="9.716598646473233"><ele>92.0</ele><time>2026-05-01T11:30:23.001Z</time></trkpt><trkpt lat="44.973560346620935" lon="9.716661055803975"><ele>92.0</ele><time>2026-05-01T11:30:24.001Z</time></trkpt><trkpt lat="44.97334070753999" lon="9.716695548487374"><ele>92.0</ele><time>2026-05-01T11:30:25.001Z</time></trkpt><trkpt lat="44.973147356573975" lon="9.716744844298578"><ele>92.0</ele><time>2026-05-01T11:30:26.001Z</time></trkpt><trkpt lat="44.97295762020805" lon="9.716793218531446"><ele>92.0</ele><time>2026-05-01T11:30:27.001Z</time></trkpt><trkpt lat="44.97275048493177" lon="9.716846028723426"><ele>92.0</ele><time>2026-05-01T11:30:28.001Z</time></trkpt><trkpt lat="44.97253598626327" lon="9.71690071628292"><ele>92.0</ele><time>2026-05-01T11:30:29.001Z</time></trkpt><trkpt lat="44.97231215483347" lon="9.71696936371516"><ele>93.0</ele><time>2026-05-01T11:30:30.001Z</time></trkpt><trkpt lat="44.97207601394799" lon="9.717024086382523"><ele>94.0</ele><time>2026-05-01T11:30:31.001Z</time></trkpt><trkpt lat="44.97182760313633" lon="9.717079821154952"><ele>94.33333333333333</ele><time>2026-05-01T11:30:32.001Z</time></trkpt><trkpt lat="44.97160419331556" lon="9.717122187256807"><ele>94.66666666666667</ele><time>2026-05-01T11:30:33.001Z</time></trkpt><trkpt lat="44.97140032515063" lon="9.717146832590636"><ele>95.0</ele><time>2026-05-01T11:30:34.001Z</time></trkpt><trkpt lat="44.97121820754115" lon="9.71717356488763"><ele>95.0</ele><time>2026-05-01T11:30:35.001Z</time></trkpt><trkpt lat="44.97104401168612" lon="9.717189561846066"><ele>95.0</ele><time>2026-05-01T11:30:36.001Z</time></trkpt><trkpt lat="44.97088145497645" lon="9.717206550575476"><ele>95.0</ele><time>2026-05-01T11:30:37.001Z</time></trkpt><trkpt lat="44.97072399351673" lon="9.717220597985516"><ele>95.66666666666667</ele><time>2026-05-01T11:30:38.001Z</time></trkpt><trkpt lat="44.970572973907515" lon="9.717242251997352"><ele>96.33333333333334</ele><time>2026-05-01T11:30:39.001Z</time></trkpt><trkpt lat="44.97042009949217" lon="9.717258041053789"><ele>97.0</ele><time>2026-05-01T11:30:40.001Z</time></trkpt><trkpt lat="44.97027249512466" lon="9.717275064033768"><ele>97.0</ele><time>2026-05-01T11:30:41.001Z</time></trkpt><trkpt lat="44.97013790553202" lon="9.717292018192481"><ele>97.0</ele><time>2026-05-01T11:30:42.001Z</time></trkpt><trkpt lat="44.970011867122246" lon="9.717307476667617"><ele>97.0</ele><time>2026-05-01T11:30:43.001Z</time></trkpt><trkpt lat="44.96989134555576" lon="9.71732223528613"><ele>97.0</ele><time>2026-05-01T11:30:44.001Z</time></trkpt><trkpt lat="44.96977204551523" lon="9.717337104042494"><ele>96.25</ele><time>2026-05-01T11:30:45.001Z</time></trkpt><trkpt lat="44.96965571012305" lon="9.717351467298815"><ele>95.5</ele><time>2026-05-01T11:30:46.001Z</time></trkpt><trkpt lat="44.969534295511195" lon="9.71736313511014"><ele>94.75</ele><time>2026-05-01T11:30:47.001Z</time></trkpt><trkpt lat="44.96939631146376" lon="9.717377228224256"><ele>94.0</ele><time>2026-05-01T11:30:48.001Z</time></trkpt><trkpt lat="44.969271931964684" lon="9.717396189286243"><ele>94.5</ele><time>2026-05-01T11:30:49.001Z</time></trkpt><trkpt lat="44.9691610889381" lon="9.717423644427516"><ele>95.0</ele><time>2026-05-01T11:30:50.001Z</time></trkpt><trkpt lat="44.96905662334898" lon="9.717448252520745"><ele>95.5</ele><time>2026-05-01T11:30:51.001Z</time></trkpt><trkpt lat="44.96897713021113" lon="9.71748007770704"><ele>96.0</ele><time>2026-05-01T11:30:52.001Z</time></trkpt><trkpt lat="44.96891551091181" lon="9.717506984760659"><ele>96.50000000000001</ele><time>2026-05-01T11:30:53.001Z</time></trkpt><trkpt lat="44.96885450158286" lon="9.717531029334332"><ele>97.0</ele><time>2026-05-01T11:30:54.001Z</time></trkpt><trkpt lat="44.968722664115646" lon="9.717578653568134"><ele>97.0</ele><time>2026-05-01T11:30:56.001Z</time></trkpt><trkpt lat="44.968626572653946" lon="9.717609433792463"><ele>97.0</ele><time>2026-05-01T11:30:57.001Z</time></trkpt><trkpt lat="44.96852317919332" lon="9.717633579971626"><ele>97.0</ele><time>2026-05-01T11:30:58.001Z</time></trkpt><trkpt lat="44.96841566927971" lon="9.717654684296823"><ele>97.0</ele><time>2026-05-01T11:30:59.001Z</time></trkpt><trkpt lat="44.96829161619487" lon="9.717672621181375"><ele>97.0</ele><time>2026-05-01T11:31:00.001Z</time></trkpt><trkpt lat="44.96813856291213" lon="9.717703519498421"><ele>96.66666666666667</ele><time>2026-05-01T11:31:01.001Z</time></trkpt><trkpt lat="44.96796130701457" lon="9.717732194045372"><ele>96.33333333333334</ele><time>2026-05-01T11:31:02.001Z</time></trkpt><trkpt lat="44.96775880519465" lon="9.717746883616636"><ele>96.0</ele><time>2026-05-01T11:31:03.001Z</time></trkpt><trkpt lat="44.967546182008896" lon="9.717765373380365"><ele>96.0</ele><time>2026-05-01T11:31:04.001Z</time></trkpt><trkpt lat="44.9673593913767" lon="9.717783085554139"><ele>96.0</ele><time>2026-05-01T11:31:05.001Z</time></trkpt><trkpt lat="44.9671915346687" lon="9.71780697912018"><ele>96.0</ele><time>2026-05-01T11:31:06.001Z</time></trkpt><trkpt lat="44.96704014558961" lon="9.717831232815605"><ele>96.0</ele><time>2026-05-01T11:31:07.001Z</time></trkpt><trkpt lat="44.96690923785284" lon="9.717853266250296"><ele>96.0</ele><time>2026-05-01T11:31:08.001Z</time></trkpt><trkpt lat="44.96682553063828" lon="9.717875633321828"><ele>96.0</ele><time>2026-05-01T11:31:09.001Z</time></trkpt><trkpt lat="44.966763074694065" lon="9.71799224813671"><ele>96.0</ele><time>2026-05-01T11:31:11.001Z</time></trkpt><trkpt lat="44.966725337491965" lon="9.718131079656663"><ele>96.0</ele><time>2026-05-01T11:31:12Z</time></trkpt><trkpt lat="44.96666429890282" lon="9.718341533835533"><ele>96.33333333333334</ele><time>2026-05-01T11:31:13Z</time></trkpt><trkpt lat="44.96659140166578" lon="9.718578927535523"><ele>96.66666666666667</ele><time>2026-05-01T11:31:14Z</time></trkpt><trkpt lat="44.9665173255685" lon="9.7188233443797"><ele>97.0</ele><time>2026-05-01T11:31:15Z</time></trkpt><trkpt lat="44.96642014816466" lon="9.719094034195514"><ele>97.0</ele><time>2026-05-01T11:31:16Z</time></trkpt><trkpt lat="44.966325204699004" lon="9.719383139491978"><ele>97.0</ele><time>2026-05-01T11:31:17Z</time></trkpt><trkpt lat="44.96622361681179" lon="9.719683773981142"><ele>97.0</ele><time>2026-05-01T11:31:18Z</time></trkpt><trkpt lat="44.966135344568904" lon="9.719941841081782"><ele>97.0</ele><time>2026-05-01T11:31:19Z</time></trkpt><trkpt lat="44.96606079618637" lon="9.720170275371949"><ele>97.0</ele><time>2026-05-01T11:31:20Z</time></trkpt><trkpt lat="44.965980482361324" lon="9.720386342800056"><ele>97.0</ele><time>2026-05-01T11:31:21Z</time></trkpt><trkpt lat="44.96590556142901" lon="9.720592159435878"><ele>97.0</ele><time>2026-05-01T11:31:22Z</time></trkpt><trkpt lat="44.96581441666509" lon="9.720804430971173"><ele>97.0</ele><time>2026-05-01T11:31:23Z</time></trkpt><trkpt lat="44.96568401355682" lon="9.720990608472755"><ele>97.33333333333334</ele><time>2026-05-01T11:31:24Z</time></trkpt><trkpt lat="44.965535348975074" lon="9.721170950931244"><ele>97.66666666666666</ele><time>2026-05-01T11:31:25Z</time></trkpt><trkpt lat="44.96539886728547" lon="9.721327344826507"><ele>98.0</ele><time>2026-05-01T11:31:26Z</time></trkpt><trkpt lat="44.965220299017524" lon="9.721569553147177"><ele>98.0</ele><time>2026-05-01T11:31:27Z</time></trkpt><trkpt lat="44.96505355951183" lon="9.721801407626975"><ele>98.0</ele><time>2026-05-01T11:31:28Z</time></trkpt><trkpt lat="44.96487900480831" lon="9.722049077105735"><ele>97.5</ele><time>2026-05-01T11:31:29Z</time></trkpt><trkpt lat="44.96470609413321" lon="9.722287591151094"><ele>97.0</ele><time>2026-05-01T11:31:30Z</time></trkpt><trkpt lat="44.96452918161018" lon="9.72252910119278"><ele>97.0</ele><time>2026-05-01T11:31:31Z</time></trkpt><trkpt lat="44.96434618624803" lon="9.722789311198278"><ele>97.0</ele><time>2026-05-01T11:31:32Z</time></trkpt><trkpt lat="44.96415278464023" lon="9.723058336875765"><ele>97.0</ele><time>2026-05-01T11:31:33Z</time></trkpt><trkpt lat="44.96398610092319" lon="9.723281051698804"><ele>97.0</ele><time>2026-05-01T11:31:34Z</time></trkpt><trkpt lat="44.963835619972514" lon="9.723492656346297"><ele>97.0</ele><time>2026-05-01T11:31:35Z</time></trkpt><trkpt lat="44.96369311972036" lon="9.723689004266303"><ele>97.33333333333334</ele><time>2026-05-01T11:31:36Z</time></trkpt><trkpt lat="44.96354995916607" lon="9.723880465487078"><ele>97.66666666666666</ele><time>2026-05-01T11:31:37Z</time></trkpt><trkpt lat="44.963397420754745" lon="9.724091072650651"><ele>98.0</ele><time>2026-05-01T11:31:38Z</time></trkpt><trkpt lat="44.96324975932647" lon="9.72429482622853"><ele>97.66666666666666</ele><time>2026-05-01T11:31:39Z</time></trkpt><trkpt lat="44.963105867820055" lon="9.724461420128437"><ele>97.33333333333334</ele><time>2026-05-01T11:31:40Z</time></trkpt><trkpt lat="44.96298152909543" lon="9.724632440421331"><ele>97.0</ele><time>2026-05-01T11:31:41Z</time></trkpt><trkpt lat="44.96286005127156" lon="9.724801815049776"><ele>97.0</ele><time>2026-05-01T11:31:42Z</time></trkpt><trkpt lat="44.96273712759377" lon="9.72497328647175"><ele>97.0</ele><time>2026-05-01T11:31:43Z</time></trkpt><trkpt lat="44.96259727180682" lon="9.725168377201829"><ele>97.0</ele><time>2026-05-01T11:31:44Z</time></trkpt><trkpt lat="44.96246551917429" lon="9.725352164558789"><ele>97.5</ele><time>2026-05-01T11:31:45Z</time></trkpt><trkpt lat="44.96235597808017" lon="9.725504968073883"><ele>98.0</ele><time>2026-05-01T11:31:46Z</time></trkpt><trkpt lat="44.9622558255932" lon="9.725644675010104"><ele>98.5</ele><time>2026-05-01T11:31:47Z</time></trkpt><trkpt lat="44.962176982235945" lon="9.725782964700345"><ele>99.0</ele><time>2026-05-01T11:31:48Z</time></trkpt><trkpt lat="44.96211476344812" lon="9.725864880452466"><ele>99.0</ele><time>2026-05-01T11:31:49Z</time></trkpt><trkpt lat="44.96205323474336" lon="9.72592243245892"><ele>99.0</ele><time>2026-05-01T11:31:51Z</time></trkpt><trkpt lat="44.96212474157928" lon="9.72617547708982"><ele>99.0</ele><time>2026-05-01T11:31:55Z</time></trkpt><trkpt lat="44.96219771658257" lon="9.726288507533507"><ele>99.0</ele><time>2026-05-01T11:31:56Z</time></trkpt><trkpt lat="44.962289564175165" lon="9.726422426549872"><ele>99.0</ele><time>2026-05-01T11:31:57Z</time></trkpt><trkpt lat="44.962361139382644" lon="9.72654110667566"><ele>99.0</ele><time>2026-05-01T11:31:58Z</time></trkpt><trkpt lat="44.96240999263466" lon="9.726632319354954"><ele>99.0</ele><time>2026-05-01T11:31:59Z</time></trkpt><trkpt lat="44.96221831796991" lon="9.726931832325889"><ele>99.0</ele><time>2026-05-01T11:32:04Z</time></trkpt><trkpt lat="44.96211796123462" lon="9.72705003284669"><ele>99.0</ele><time>2026-05-01T11:32:05Z</time></trkpt><trkpt lat="44.962001108688476" lon="9.727199661360988"><ele>99.0</ele><time>2026-05-01T11:32:06Z</time></trkpt><trkpt lat="44.96188035622649" lon="9.727353494251805"><ele>99.0</ele><time>2026-05-01T11:32:07Z</time></trkpt><trkpt lat="44.96179463570517" lon="9.727480170663712"><ele>99.0</ele><time>2026-05-01T11:32:08Z</time></trkpt><trkpt lat="44.961713792706384" lon="9.727591082652017"><ele>99.0</ele><time>2026-05-01T11:32:09Z</time></trkpt><trkpt lat="44.96161518544194" lon="9.727731460609641"><ele>99.0</ele><time>2026-05-01T11:32:10Z</time></trkpt><trkpt lat="44.96150384539534" lon="9.727901735792587"><ele>99.25</ele><time>2026-05-01T11:32:11Z</time></trkpt><trkpt lat="44.96139106323459" lon="9.728069798315213"><ele>99.5</ele><time>2026-05-01T11:32:12Z</time></trkpt><trkpt lat="44.9612938742994" lon="9.728208114590501"><ele>99.75</ele><time>2026-05-01T11:32:13Z</time></trkpt><trkpt lat="44.96120975007639" lon="9.728330391294497"><ele>100.0</ele><time>2026-05-01T11:32:14Z</time></trkpt><trkpt lat="44.961109693698745" lon="9.728471582576189"><ele>100.5</ele><time>2026-05-01T11:32:15Z</time></trkpt><trkpt lat="44.9610036792955" lon="9.728613745935446"><ele>101.0</ele><time>2026-05-01T11:32:16Z</time></trkpt><trkpt lat="44.96088617497985" lon="9.728765979050674"><ele>101.5</ele><time>2026-05-01T11:32:17Z</time></trkpt><trkpt lat="44.96079239252031" lon="9.728903005693631"><ele>102.0</ele><time>2026-05-01T11:32:18Z</time></trkpt><trkpt lat="44.96071620498488" lon="9.729027201705499"><ele>102.0</ele><time>2026-05-01T11:32:19Z</time></trkpt><trkpt lat="44.960649534461474" lon="9.729123307382553"><ele>102.0</ele><time>2026-05-01T11:32:20Z</time></trkpt><trkpt lat="44.96058481267672" lon="9.729218260783135"><ele>102.0</ele><time>2026-05-01T11:32:21Z</time></trkpt><trkpt lat="44.96052107348903" lon="9.7293292552442"><ele>102.0</ele><time>2026-05-01T11:32:22Z</time></trkpt><trkpt lat="44.96047193974095" lon="9.729466964282919"><ele>102.0</ele><time>2026-05-01T11:32:23Z</time></trkpt><trkpt lat="44.960445181448335" lon="9.729572090527785"><ele>101.5</ele><time>2026-05-01T11:32:24Z</time></trkpt><trkpt lat="44.960422730872764" lon="9.729733730439719"><ele>101.0</ele><time>2026-05-01T11:32:26Z</time></trkpt><trkpt lat="44.960416511117444" lon="9.729837830603387"><ele>100.5</ele><time>2026-05-01T11:32:29Z</time></trkpt><trkpt lat="44.960375417957735" lon="9.729924843289735"><ele>100.0</ele><time>2026-05-01T11:32:31Z</time></trkpt><trkpt lat="44.96034201094315" lon="9.730003685416033"><ele>99.5</ele><time>2026-05-01T11:32:33Z</time></trkpt><trkpt lat="44.96022841595666" lon="9.730001255801309"><ele>99.0</ele><time>2026-05-01T11:32:36Z</time></trkpt><trkpt lat="44.960162979493376" lon="9.72991369148185"><ele>99.0</ele><time>2026-05-01T11:32:38Z</time></trkpt><trkpt lat="44.960226145914085" lon="9.729801410493916"><ele>99.0</ele><time>2026-05-01T11:32:41Z</time></trkpt><trkpt lat="44.96032515158869" lon="9.729789254742773"><ele>99.0</ele><time>2026-05-01T11:32:43Z</time></trkpt><trkpt lat="44.96038360223347" lon="9.729853944097021"><ele>99.0</ele><time>2026-05-01T11:32:45Z</time></trkpt><trkpt lat="44.96041886371623" lon="9.730005184451283"><ele>99.0</ele><time>2026-05-01T11:32:47Z</time></trkpt><trkpt lat="44.96046874479016" lon="9.730092228922727"><ele>99.0</ele><time>2026-05-01T11:32:48Z</time></trkpt><trkpt lat="44.960534818197786" lon="9.730136244928808"><ele>99.0</ele><time>2026-05-01T11:32:49Z</time></trkpt><trkpt lat="44.96062776294742" lon="9.730196440130168"><ele>99.0</ele><time>2026-05-01T11:32:50Z</time></trkpt><trkpt lat="44.96073386564679" lon="9.730258036641727"><ele>99.0</ele><time>2026-05-01T11:32:51Z</time></trkpt><trkpt lat="44.96082911738267" lon="9.730343291241732"><ele>99.0</ele><time>2026-05-01T11:32:52Z</time></trkpt><trkpt lat="44.96089995767576" lon="9.730418056529881"><ele>98.75</ele><time>2026-05-01T11:32:53Z</time></trkpt><trkpt lat="44.96100426022719" lon="9.730530172310512"><ele>98.5</ele><time>2026-05-01T11:32:54Z</time></trkpt><trkpt lat="44.961127715475" lon="9.730660207860566"><ele>98.25</ele><time>2026-05-01T11:32:55Z</time></trkpt><trkpt lat="44.96123111030557" lon="9.730751866483306"><ele>98.0</ele><time>2026-05-01T11:32:56Z</time></trkpt><trkpt lat="44.96131785082274" lon="9.730844795508768"><ele>98.0</ele><time>2026-05-01T11:32:57Z</time></trkpt><trkpt lat="44.961401274203034" lon="9.730936461258967"><ele>98.0</ele><time>2026-05-01T11:32:58Z</time></trkpt><trkpt lat="44.96148279970773" lon="9.731016571786263"><ele>98.0</ele><time>2026-05-01T11:32:59Z</time></trkpt><trkpt lat="44.9615748248463" lon="9.73109560359913"><ele>98.0</ele><time>2026-05-01T11:33:00Z</time></trkpt><trkpt lat="44.9616615653574" lon="9.731151274628324"><ele>98.0</ele><time>2026-05-01T11:33:01Z</time></trkpt><trkpt lat="44.9617412046856" lon="9.731209356922145"><ele>98.2</ele><time>2026-05-01T11:33:02Z</time></trkpt><trkpt lat="44.96182867849275" lon="9.731302532886529"><ele>98.4</ele><time>2026-05-01T11:33:03Z</time></trkpt><trkpt lat="44.961901637485525" lon="9.731400856816547"><ele>98.60000000000001</ele><time>2026-05-01T11:33:04Z</time></trkpt><trkpt lat="44.96195676271294" lon="9.731477273599989"><ele>98.80000000000001</ele><time>2026-05-01T11:33:05Z</time></trkpt><trkpt lat="44.96203228085604" lon="9.731550555821368"><ele>99.0</ele><time>2026-05-01T11:33:06Z</time></trkpt><trkpt lat="44.96211004153756" lon="9.73160258505324"><ele>99.0</ele><time>2026-05-01T11:33:07Z</time></trkpt><trkpt lat="44.96218810181764" lon="9.731658437806667"><ele>99.0</ele><time>2026-05-01T11:33:08Z</time></trkpt><trkpt lat="44.96225054263669" lon="9.731707218094545"><ele>99.0</ele><time>2026-05-01T11:33:09Z</time></trkpt><trkpt lat="44.96230488818436" lon="9.731756653446766"><ele>99.0</ele><time>2026-05-01T11:33:10Z</time></trkpt><trkpt lat="44.96235524197209" lon="9.731832054518682"><ele>99.0</ele><time>2026-05-01T11:33:11Z</time></trkpt><trkpt lat="44.96242605159222" lon="9.731958986934325"><ele>99.0</ele><time>2026-05-01T11:33:12Z</time></trkpt><trkpt lat="44.962481696929046" lon="9.73205442719324"><ele>98.4</ele><time>2026-05-01T11:33:13Z</time></trkpt><trkpt lat="44.962534700370576" lon="9.732169115401128"><ele>97.80000000000001</ele><time>2026-05-01T11:33:14Z</time></trkpt><trkpt lat="44.96257474260565" lon="9.732271279615649"><ele>97.19999999999999</ele><time>2026-05-01T11:33:15Z</time></trkpt><trkpt lat="44.96263354358158" lon="9.732367890475178"><ele>96.6</ele><time>2026-05-01T11:33:16Z</time></trkpt><trkpt lat="44.96271502556964" lon="9.732458471682918"><ele>96.0</ele><time>2026-05-01T11:33:17Z</time></trkpt><trkpt lat="44.96279616537673" lon="9.732538335488684"><ele>96.0</ele><time>2026-05-01T11:33:18Z</time></trkpt><trkpt lat="44.9628999653875" lon="9.732572646127295"><ele>96.0</ele><time>2026-05-01T11:33:19Z</time></trkpt><trkpt lat="44.96301025095553" lon="9.73264014974994"><ele>96.0</ele><time>2026-05-01T11:33:20Z</time></trkpt><trkpt lat="44.96310047256316" lon="9.732694606698603"><ele>96.0</ele><time>2026-05-01T11:33:21Z</time></trkpt><trkpt lat="44.963178914003144" lon="9.732755095164578"><ele>96.0</ele><time>2026-05-01T11:33:22Z</time></trkpt><trkpt lat="44.96327350383853" lon="9.732825430195232"><ele>96.0</ele><time>2026-05-01T11:33:23Z</time></trkpt><trkpt lat="44.963367395922084" lon="9.73290657905355"><ele>96.0</ele><time>2026-05-01T11:33:24Z</time></trkpt><trkpt lat="44.963458844278904" lon="9.732978947776536"><ele>96.0</ele><time>2026-05-01T11:33:25Z</time></trkpt><trkpt lat="44.96354452105606" lon="9.73305159835633"><ele>96.0</ele><time>2026-05-01T11:33:26Z</time></trkpt><trkpt lat="44.963622662363896" lon="9.733120550515865"><ele>96.0</ele><time>2026-05-01T11:33:27Z</time></trkpt><trkpt lat="44.963699811630846" lon="9.733198060143202"><ele>96.0</ele><time>2026-05-01T11:33:28Z</time></trkpt><trkpt lat="44.96377022477045" lon="9.73326877205971"><ele>96.0</ele><time>2026-05-01T11:33:29Z</time></trkpt><trkpt lat="44.96383763954812" lon="9.733351590244407"><ele>96.0</ele><time>2026-05-01T11:33:30Z</time></trkpt><trkpt lat="44.96389036320979" lon="9.733426956676132"><ele>96.0</ele><time>2026-05-01T11:33:31Z</time></trkpt><trkpt lat="44.96394161164084" lon="9.733528718681143"><ele>96.0</ele><time>2026-05-01T11:33:32Z</time></trkpt><trkpt lat="44.9640037771311" lon="9.733665702294923"><ele>95.75</ele><time>2026-05-01T11:33:33Z</time></trkpt><trkpt lat="44.964066667323976" lon="9.733804120581258"><ele>95.5</ele><time>2026-05-01T11:33:34Z</time></trkpt><trkpt lat="44.96413423955374" lon="9.733958120203585"><ele>95.25</ele><time>2026-05-01T11:33:35Z</time></trkpt><trkpt lat="44.96420413265757" lon="9.734111541665552"><ele>95.0</ele><time>2026-05-01T11:33:36Z</time></trkpt><trkpt lat="44.96427067049621" lon="9.734237930991881"><ele>95.0</ele><time>2026-05-01T11:33:37Z</time></trkpt><trkpt lat="44.964318357483926" lon="9.734342030174448"><ele>95.0</ele><time>2026-05-01T11:33:38Z</time></trkpt><trkpt lat="44.96437229851961" lon="9.73442504388261"><ele>95.0</ele><time>2026-05-01T11:33:39Z</time></trkpt><trkpt lat="44.96445184034576" lon="9.734518653177231"><ele>95.0</ele><time>2026-05-01T11:33:40Z</time></trkpt><trkpt lat="44.96456649584528" lon="9.734615086807844"><ele>95.0</ele><time>2026-05-01T11:33:41Z</time></trkpt><trkpt lat="44.9646786914804" lon="9.734689697534069"><ele>95.0</ele><time>2026-05-01T11:33:42Z</time></trkpt><trkpt lat="44.964774082768514" lon="9.734756103099707"><ele>95.0</ele><time>2026-05-01T11:33:43Z</time></trkpt><trkpt lat="44.964862694841536" lon="9.734840089955018"><ele>95.0</ele><time>2026-05-01T11:33:44Z</time></trkpt><trkpt lat="44.964939469704646" lon="9.734926473140945"><ele>95.0</ele><time>2026-05-01T11:33:45Z</time></trkpt><trkpt lat="44.96501035498503" lon="9.73502444746716"><ele>95.0</ele><time>2026-05-01T11:33:46Z</time></trkpt><trkpt lat="44.96507507544426" lon="9.735141976039161"><ele>94.6</ele><time>2026-05-01T11:33:47Z</time></trkpt><trkpt lat="44.965135073062214" lon="9.735253270006297"><ele>94.2</ele><time>2026-05-01T11:33:48Z</time></trkpt><trkpt lat="44.965186272997975" lon="9.735368913617492"><ele>93.80000000000001</ele><time>2026-05-01T11:33:49Z</time></trkpt><trkpt lat="44.96523067478039" lon="9.735508886551068"><ele>93.4</ele><time>2026-05-01T11:33:50Z</time></trkpt><trkpt lat="44.965249233330304" lon="9.735618811585985"><ele>93.0</ele><time>2026-05-01T11:33:51Z</time></trkpt><trkpt lat="44.965254215448546" lon="9.735725635118843"><ele>93.0</ele><time>2026-05-01T11:33:52Z</time></trkpt><trkpt lat="44.96524983512734" lon="9.735889135041118"><ele>93.0</ele><time>2026-05-01T11:33:53Z</time></trkpt><trkpt lat="44.965256176218666" lon="9.73602364445195"><ele>93.0</ele><time>2026-05-01T11:33:54Z</time></trkpt><trkpt lat="44.965271574532395" lon="9.736115188352741"><ele>93.0</ele><time>2026-05-01T11:33:55Z</time></trkpt><trkpt lat="44.96531065978869" lon="9.736201007235838"><ele>93.0</ele><time>2026-05-01T11:33:56Z</time></trkpt><trkpt lat="44.96536022171563" lon="9.736289454322874"><ele>93.0</ele><time>2026-05-01T11:33:57Z</time></trkpt><trkpt lat="44.965431711038484" lon="9.736402751639474"><ele>93.2</ele><time>2026-05-01T11:33:58Z</time></trkpt><trkpt lat="44.96550234547608" lon="9.736527110073014"><ele>93.4</ele><time>2026-05-01T11:33:59Z</time></trkpt><trkpt lat="44.96556025156352" lon="9.736662416359545"><ele>93.60000000000001</ele><time>2026-05-01T11:34:00Z</time></trkpt><trkpt lat="44.965610249833404" lon="9.73675245599948"><ele>93.80000000000001</ele><time>2026-05-01T11:34:01Z</time></trkpt><trkpt lat="44.96565789185745" lon="9.73683553159747"><ele>94.0</ele><time>2026-05-01T11:34:02Z</time></trkpt><trkpt lat="44.965688480621445" lon="9.736937427042344"><ele>94.16666666666666</ele><time>2026-05-01T11:34:04Z</time></trkpt><trkpt lat="44.965669412127745" lon="9.737113864785291"><ele>94.33333333333333</ele><time>2026-05-01T11:34:06Z</time></trkpt><trkpt lat="44.96564063877112" lon="9.737193681697478"><ele>94.5</ele><time>2026-05-01T11:34:07Z</time></trkpt><trkpt lat="44.96559810992076" lon="9.73727821414337"><ele>94.66666666666667</ele><time>2026-05-01T11:34:08Z</time></trkpt><trkpt lat="44.96556653834799" lon="9.737382097215097"><ele>94.83333333333334</ele><time>2026-05-01T11:34:09Z</time></trkpt><trkpt lat="44.965562442470414" lon="9.737525199308495"><ele>95.0</ele><time>2026-05-01T11:34:11Z</time></trkpt><trkpt lat="44.965517499615025" lon="9.737605415857825"><ele>95.0</ele><time>2026-05-01T11:34:15Z</time></trkpt><trkpt lat="44.965546831665606" lon="9.737695100475628"><ele>95.0</ele><time>2026-05-01T11:34:18Z</time></trkpt><trkpt lat="44.96555638751361" lon="9.737787067653764"><ele>95.0</ele><time>2026-05-01T11:34:21Z</time></trkpt><trkpt lat="44.96546094946056" lon="9.73781524376549"><ele>95.0</ele><time>2026-05-01T11:34:24Z</time></trkpt><trkpt lat="44.965361310466434" lon="9.737798831179337"><ele>95.0</ele><time>2026-05-01T11:34:25Z</time></trkpt><trkpt lat="44.96522888271059" lon="9.737795185749407"><ele>94.66666666666667</ele><time>2026-05-01T11:34:26Z</time></trkpt><trkpt lat="44.965068097421096" lon="9.737790509195094"><ele>94.33333333333333</ele><time>2026-05-01T11:34:27Z</time></trkpt><trkpt lat="44.964900190513724" lon="9.737797619465097"><ele>94.0</ele><time>2026-05-01T11:34:28Z</time></trkpt><trkpt lat="44.96472909075477" lon="9.737805368975613"><ele>94.0</ele><time>2026-05-01T11:34:29Z</time></trkpt><trkpt lat="44.96454156648303" lon="9.73779679475657"><ele>94.0</ele><time>2026-05-01T11:34:30Z</time></trkpt><trkpt lat="44.964330908641166" lon="9.737778779302154"><ele>94.0</ele><time>2026-05-01T11:34:31Z</time></trkpt><trkpt lat="44.96410876439634" lon="9.737772801146248"><ele>94.0</ele><time>2026-05-01T11:34:32Z</time></trkpt><trkpt lat="44.96387240715596" lon="9.737771012138854"><ele>94.0</ele><time>2026-05-01T11:34:33Z</time></trkpt><trkpt lat="44.963624051950674" lon="9.73777157688797"><ele>94.0</ele><time>2026-05-01T11:34:34Z</time></trkpt><trkpt lat="44.96337215285971" lon="9.737764500972872"><ele>94.0</ele><time>2026-05-01T11:34:35Z</time></trkpt><trkpt lat="44.96311982054194" lon="9.737754991515548"><ele>95.0</ele><time>2026-05-01T11:34:36Z</time></trkpt><trkpt lat="44.96285898390089" lon="9.737754642855792"><ele>96.0</ele><time>2026-05-01T11:34:37Z</time></trkpt><trkpt lat="44.962595584546314" lon="9.737751666261348"><ele>95.5</ele><time>2026-05-01T11:34:38Z</time></trkpt><trkpt lat="44.96233357184566" lon="9.737742677619297"><ele>95.0</ele><time>2026-05-01T11:34:39Z</time></trkpt><trkpt lat="44.96207330696753" lon="9.737730075642913"><ele>95.0</ele><time>2026-05-01T11:34:40Z</time></trkpt><trkpt lat="44.961818598878736" lon="9.737726751279427"><ele>95.0</ele><time>2026-05-01T11:34:41Z</time></trkpt><trkpt lat="44.961563176715664" lon="9.737725014741972"><ele>95.0</ele><time>2026-05-01T11:34:42Z</time></trkpt><trkpt lat="44.96131329892706" lon="9.737721670952718"><ele>95.0</ele><time>2026-05-01T11:34:43Z</time></trkpt><trkpt lat="44.96106211538031" lon="9.73771413106379"><ele>95.5</ele><time>2026-05-01T11:34:44Z</time></trkpt><trkpt lat="44.96081293924954" lon="9.737713988701154"><ele>96.0</ele><time>2026-05-01T11:34:45Z</time></trkpt><trkpt lat="44.960570131419125" lon="9.737710863827806"><ele>96.0</ele><time>2026-05-01T11:34:46Z</time></trkpt><trkpt lat="44.96032561417945" lon="9.73770676501418"><ele>96.0</ele><time>2026-05-01T11:34:47Z</time></trkpt><trkpt lat="44.9600844627554" lon="9.737702861957795"><ele>97.5</ele><time>2026-05-01T11:34:48Z</time></trkpt><trkpt lat="44.95984317454992" lon="9.737703690173385"><ele>99.0</ele><time>2026-05-01T11:34:49Z</time></trkpt><trkpt lat="44.95960290540769" lon="9.73769182024074"><ele>99.0</ele><time>2026-05-01T11:34:50Z</time></trkpt><trkpt lat="44.959365004022416" lon="9.737685413938717"><ele>99.0</ele><time>2026-05-01T11:34:51Z</time></trkpt><trkpt lat="44.95914038604463" lon="9.737679043823023"><ele>99.0</ele><time>2026-05-01T11:34:52Z</time></trkpt><trkpt lat="44.95893691193297" lon="9.73766791566753"><ele>99.0</ele><time>2026-05-01T11:34:53Z</time></trkpt><trkpt lat="44.95874458656385" lon="9.737663867787116"><ele>99.0</ele><time>2026-05-01T11:34:54Z</time></trkpt><trkpt lat="44.95856622392403" lon="9.737662226484005"><ele>99.0</ele><time>2026-05-01T11:34:55Z</time></trkpt><trkpt lat="44.95841065281561" lon="9.737666134982154"><ele>99.0</ele><time>2026-05-01T11:34:56Z</time></trkpt><trkpt lat="44.95828671906641" lon="9.737672154523532"><ele>99.0</ele><time>2026-05-01T11:34:57Z</time></trkpt><trkpt lat="44.95817274251344" lon="9.737684252956122"><ele>99.0</ele><time>2026-05-01T11:34:58Z</time></trkpt><trkpt lat="44.958068386078324" lon="9.737718263174234"><ele>99.4</ele><time>2026-05-01T11:34:59Z</time></trkpt><trkpt lat="44.95796148555097" lon="9.737784107383021"><ele>99.80000000000001</ele><time>2026-05-01T11:35:00Z</time></trkpt><trkpt lat="44.957856490183126" lon="9.737860312644289"><ele>100.19999999999999</ele><time>2026-05-01T11:35:01Z</time></trkpt><trkpt lat="44.95776419818048" lon="9.73793545537032"><ele>100.6</ele><time>2026-05-01T11:35:02Z</time></trkpt><trkpt lat="44.9576837761228" lon="9.738003071550425"><ele>101.0</ele><time>2026-05-01T11:35:03Z</time></trkpt><trkpt lat="44.957606798064205" lon="9.73807334803845"><ele>101.19999999999999</ele><time>2026-05-01T11:35:04Z</time></trkpt><trkpt lat="44.95751138044278" lon="9.738149340473655"><ele>101.39999999999999</ele><time>2026-05-01T11:35:05Z</time></trkpt><trkpt lat="44.95741718205146" lon="9.738211456965374"><ele>101.6</ele><time>2026-05-01T11:35:06Z</time></trkpt><trkpt lat="44.957339658109134" lon="9.738254966473074"><ele>101.8</ele><time>2026-05-01T11:35:07Z</time></trkpt><trkpt lat="44.95723452332837" lon="9.738303391154135"><ele>102.0</ele><time>2026-05-01T11:35:09Z</time></trkpt><trkpt lat="44.95717416646033" lon="9.73833057508524"><ele>102.0</ele><time>2026-05-01T11:35:10Z</time></trkpt><trkpt lat="44.957110832507894" lon="9.738358030457052"><ele>102.0</ele><time>2026-05-01T11:35:11Z</time></trkpt><trkpt lat="44.95732389884391" lon="9.738329664187608"><ele>102.0</ele><time>2026-05-01T11:35:16Z</time></trkpt><trkpt lat="44.95725801055025" lon="9.738463432469652"><ele>102.0</ele><time>2026-05-01T11:35:17Z</time></trkpt><trkpt lat="44.95732481454226" lon="9.738313926559568"><ele>102.0</ele><time>2026-05-01T11:35:18Z</time></trkpt><trkpt lat="44.95742607379257" lon="9.738262062314291"><ele>102.0</ele><time>2026-05-01T11:35:19Z</time></trkpt><trkpt lat="44.95750896785944" lon="9.738226122647449"><ele>102.0</ele><time>2026-05-01T11:35:20Z</time></trkpt><trkpt lat="44.957605897019384" lon="9.738370993292396"><ele>102.0</ele><time>2026-05-01T11:35:22Z</time></trkpt><trkpt lat="44.95767092916792" lon="9.73853884398299"><ele>101.75</ele><time>2026-05-01T11:35:24Z</time></trkpt><trkpt lat="44.957694096173846" lon="9.738699697564128"><ele>101.5</ele><time>2026-05-01T11:35:25Z</time></trkpt><trkpt lat="44.95769558520412" lon="9.73887508174248"><ele>101.25</ele><time>2026-05-01T11:35:26Z</time></trkpt><trkpt lat="44.95768959375477" lon="9.739080153292724"><ele>101.0</ele><time>2026-05-01T11:35:27Z</time></trkpt><trkpt lat="44.95767278840412" lon="9.73927759770682"><ele>100.25</ele><time>2026-05-01T11:35:28Z</time></trkpt><trkpt lat="44.9576329624628" lon="9.739453385811965"><ele>99.5</ele><time>2026-05-01T11:35:29Z</time></trkpt><trkpt lat="44.9576019432538" lon="9.739623807639509"><ele>98.75</ele><time>2026-05-01T11:35:30Z</time></trkpt><trkpt lat="44.95758778775667" lon="9.739793893949955"><ele>98.0</ele><time>2026-05-01T11:35:31Z</time></trkpt><trkpt lat="44.95758325508522" lon="9.739967816825734"><ele>98.0</ele><time>2026-05-01T11:35:32Z</time></trkpt><trkpt lat="44.95759850869684" lon="9.74014605581941"><ele>98.0</ele><time>2026-05-01T11:35:33Z</time></trkpt><trkpt lat="44.95762642965816" lon="9.740287744296143"><ele>98.0</ele><time>2026-05-01T11:35:34Z</time></trkpt><trkpt lat="44.95765544264204" lon="9.740378138850657"><ele>98.0</ele><time>2026-05-01T11:35:35Z</time></trkpt><trkpt lat="44.95753227523374" lon="9.740502097393323"><ele>98.25</ele><time>2026-05-01T11:35:39Z</time></trkpt><trkpt lat="44.95742263992971" lon="9.740506526468682"><ele>98.5</ele><time>2026-05-01T11:35:40Z</time></trkpt><trkpt lat="44.957308174721604" lon="9.740541431224035"><ele>98.75</ele><time>2026-05-01T11:35:41Z</time></trkpt><trkpt lat="44.95719145693702" lon="9.740602651257591"><ele>99.0</ele><time>2026-05-01T11:35:42Z</time></trkpt><trkpt lat="44.957064392392105" lon="9.740658623059172"><ele>99.0</ele><time>2026-05-01T11:35:43Z</time></trkpt><trkpt lat="44.95696812840553" lon="9.74069747188866"><ele>99.0</ele><time>2026-05-01T11:35:44Z</time></trkpt><trkpt lat="44.956875732109026" lon="9.740745545087881"><ele>99.0</ele><time>2026-05-01T11:35:45Z</time></trkpt><trkpt lat="44.956811169115745" lon="9.740739458529534"><ele>99.0</ele><time>2026-05-01T11:35:47Z</time></trkpt><trkpt lat="44.956779235932295" lon="9.740553584575972"><ele>99.0</ele><time>2026-05-01T11:35:50Z</time></trkpt><trkpt lat="44.95677212009195" lon="9.740421317454322"><ele>99.0</ele><time>2026-05-01T11:35:51Z</time></trkpt><trkpt lat="44.956765351712725" lon="9.74024179298406"><ele>99.0</ele><time>2026-05-01T11:35:52Z</time></trkpt><trkpt lat="44.95676128405309" lon="9.7400666964972"><ele>99.0</ele><time>2026-05-01T11:35:52.999Z</time></trkpt><trkpt lat="44.956760347220765" lon="9.739873374556039"><ele>99.0</ele><time>2026-05-01T11:35:53.999Z</time></trkpt><trkpt lat="44.956761287859784" lon="9.739680147252495"><ele>99.0</ele><time>2026-05-01T11:35:54.999Z</time></trkpt><trkpt lat="44.9567622460869" lon="9.73950106661288"><ele>99.0</ele><time>2026-05-01T11:35:55.999Z</time></trkpt><trkpt lat="44.95676778931952" lon="9.739381889189287"><ele>99.0</ele><time>2026-05-01T11:35:57.999Z</time></trkpt><trkpt lat="44.95672249302632" lon="9.73946030328894"><ele>99.0</ele><time>2026-05-01T11:36:03.999Z</time></trkpt><trkpt lat="44.95673638399645" lon="9.739607553317086"><ele>99.0</ele><time>2026-05-01T11:36:04.999Z</time></trkpt><trkpt lat="44.956742281349015" lon="9.739744259809834"><ele>99.0</ele><time>2026-05-01T11:36:05.999Z</time></trkpt><trkpt lat="44.95674644613677" lon="9.73990453522612"><ele>99.0</ele><time>2026-05-01T11:36:06.999Z</time></trkpt><trkpt lat="44.95674731302341" lon="9.740082295877311"><ele>99.0</ele><time>2026-05-01T11:36:07.999Z</time></trkpt><trkpt lat="44.95674140162264" lon="9.740223014324128"><ele>99.0</ele><time>2026-05-01T11:36:08.999Z</time></trkpt><trkpt lat="44.956751132524026" lon="9.740326095350998"><ele>99.0</ele><time>2026-05-01T11:36:09.999Z</time></trkpt><trkpt lat="44.95665042601405" lon="9.74028214406483"><ele>99.0</ele><time>2026-05-01T11:36:13.999Z</time></trkpt><trkpt lat="44.95656744483989" lon="9.740296190271986"><ele>99.0</ele><time>2026-05-01T11:36:14.999Z</time></trkpt><trkpt lat="44.9564658338913" lon="9.74031778998786"><ele>99.0</ele><time>2026-05-01T11:36:15.999Z</time></trkpt><trkpt lat="44.95635971796772" lon="9.74034228285497"><ele>99.0</ele><time>2026-05-01T11:36:16.999Z</time></trkpt><trkpt lat="44.956237275908336" lon="9.740371392037657"><ele>99.0</ele><time>2026-05-01T11:36:17.999Z</time></trkpt><trkpt lat="44.95611093609561" lon="9.740401427864622"><ele>99.0</ele><time>2026-05-01T11:36:18.999Z</time></trkpt><trkpt lat="44.95599952147822" lon="9.74042791540308"><ele>99.0</ele><time>2026-05-01T11:36:19.999Z</time></trkpt><trkpt lat="44.955900129464695" lon="9.740467572421753"><ele>99.0</ele><time>2026-05-01T11:36:20.999Z</time></trkpt><trkpt lat="44.95580815839141" lon="9.740477729532465"><ele>99.0</ele><time>2026-05-01T11:36:21.999Z</time></trkpt><trkpt lat="44.95571939205784" lon="9.740487162554086"><ele>99.0</ele><time>2026-05-01T11:36:22.999Z</time></trkpt><trkpt lat="44.9556231110106" lon="9.740456799196894"><ele>98.80000000000001</ele><time>2026-05-01T11:36:23.999Z</time></trkpt><trkpt lat="44.95551731028774" lon="9.74043094339342"><ele>98.60000000000001</ele><time>2026-05-01T11:36:24.999Z</time></trkpt><trkpt lat="44.95540608015828" lon="9.740403989344648"><ele>98.4</ele><time>2026-05-01T11:36:25.999Z</time></trkpt><trkpt lat="44.95529073129272" lon="9.740379877679224"><ele>98.2</ele><time>2026-05-01T11:36:26.999Z</time></trkpt><trkpt lat="44.95517955437803" lon="9.740358311809638"><ele>98.0</ele><time>2026-05-01T11:36:27.999Z</time></trkpt><trkpt lat="44.95507033999217" lon="9.74035829702608"><ele>98.5</ele><time>2026-05-01T11:36:28.999Z</time></trkpt><trkpt lat="44.95501108148084" lon="9.74031160254119"><ele>99.0</ele><time>2026-05-01T11:36:29.999Z</time></trkpt><trkpt lat="44.954930065779386" lon="9.740156632657499"><ele>99.5</ele><time>2026-05-01T11:36:31.999Z</time></trkpt><trkpt lat="44.95488785405634" lon="9.739995996133644"><ele>100.0</ele><time>2026-05-01T11:36:32.999Z</time></trkpt><trkpt lat="44.95483846700521" lon="9.739806957739686"><ele>100.4</ele><time>2026-05-01T11:36:33.999Z</time></trkpt><trkpt lat="44.954796398573954" lon="9.73963979182317"><ele>100.8</ele><time>2026-05-01T11:36:34.999Z</time></trkpt><trkpt lat="44.95477498665256" lon="9.73950014354723"><ele>101.19999999999999</ele><time>2026-05-01T11:36:35.999Z</time></trkpt><trkpt lat="44.954761423915336" lon="9.73941087202055"><ele>101.6</ele><time>2026-05-01T11:36:36.999Z</time></trkpt><trkpt lat="44.95471012501046" lon="9.739294699988646"><ele>102.0</ele><time>2026-05-01T11:37:23Z</time></trkpt><trkpt lat="44.95467038427666" lon="9.739174161454084"><ele>102.25</ele><time>2026-05-01T11:37:24Z</time></trkpt><trkpt lat="44.954621206092085" lon="9.739044945353575"><ele>102.5</ele><time>2026-05-01T11:37:25Z</time></trkpt><trkpt lat="44.95456537122038" lon="9.738899561367031"><ele>102.75</ele><time>2026-05-01T11:37:26Z</time></trkpt><trkpt lat="44.954525186779314" lon="9.738725366451966"><ele>103.0</ele><time>2026-05-01T11:37:27Z</time></trkpt><trkpt lat="44.95449652405627" lon="9.738588018901565"><ele>103.0</ele><time>2026-05-01T11:37:28Z</time></trkpt><trkpt lat="44.95451035656894" lon="9.738467595941943"><ele>103.0</ele><time>2026-05-01T11:37:29Z</time></trkpt><trkpt lat="44.95450877248815" lon="9.738351373858343"><ele>103.0</ele><time>2026-05-01T11:37:30Z</time></trkpt><trkpt lat="44.95450844674934" lon="9.738245105133446"><ele>103.0</ele><time>2026-05-01T11:37:31Z</time></trkpt><trkpt lat="44.95452552075554" lon="9.73812558249413"><ele>103.0</ele><time>2026-05-01T11:37:33Z</time></trkpt><trkpt lat="44.95438354641228" lon="9.738072476034802"><ele>103.0</ele><time>2026-05-01T11:37:36Z</time></trkpt><trkpt lat="44.954310113327594" lon="9.738087364365823"><ele>103.0</ele><time>2026-05-01T11:37:37Z</time></trkpt><trkpt lat="44.954207512806" lon="9.73809655343763"><ele>103.0</ele><time>2026-05-01T11:37:38Z</time></trkpt><trkpt lat="44.95409259014204" lon="9.73807736836362"><ele>103.0</ele><time>2026-05-01T11:37:39Z</time></trkpt><trkpt lat="44.95399921877383" lon="9.737992050721235"><ele>103.0</ele><time>2026-05-01T11:37:40Z</time></trkpt><trkpt lat="44.953951130634444" lon="9.737874287614632"><ele>103.00000000000001</ele><time>2026-05-01T11:37:41Z</time></trkpt><trkpt lat="44.953895339601544" lon="9.737808893214021"><ele>103.0</ele><time>2026-05-01T11:37:42Z</time></trkpt><trkpt lat="44.95380762225462" lon="9.73774193187722"><ele>103.0</ele><time>2026-05-01T11:37:44Z</time></trkpt><trkpt lat="44.95372737612721" lon="9.737752864036816"><ele>103.0</ele><time>2026-05-01T11:37:45Z</time></trkpt><trkpt lat="44.953623527489455" lon="9.73775206897037"><ele>103.00000000000001</ele><time>2026-05-01T11:37:46Z</time></trkpt><trkpt lat="44.95354910477959" lon="9.737741249365834"><ele>103.0</ele><time>2026-05-01T11:37:47Z</time></trkpt><trkpt lat="44.95351931003635" lon="9.73760497192618"><ele>103.2</ele><time>2026-05-01T11:37:49Z</time></trkpt><trkpt lat="44.953492412717914" lon="9.737474133148293"><ele>103.4</ele><time>2026-05-01T11:37:51Z</time></trkpt><trkpt lat="44.95342904106881" lon="9.737546599829992"><ele>103.60000000000001</ele><time>2026-05-01T11:38:02Z</time></trkpt><trkpt lat="44.95334483758115" lon="9.7375577685326"><ele>103.80000000000001</ele><time>2026-05-01T11:38:03Z</time></trkpt><trkpt lat="44.953238304051496" lon="9.737547577067124"><ele>104.0</ele><time>2026-05-01T11:38:04Z</time></trkpt><trkpt lat="44.95311572413404" lon="9.737516704905678"><ele>104.0</ele><time>2026-05-01T11:38:05Z</time></trkpt><trkpt lat="44.95296850776993" lon="9.737464939142777"><ele>104.0</ele><time>2026-05-01T11:38:06Z</time></trkpt><trkpt lat="44.952809579126736" lon="9.737467676428315"><ele>104.0</ele><time>2026-05-01T11:38:07Z</time></trkpt><trkpt lat="44.95263682508741" lon="9.737430883369916"><ele>103.66666666666666</ele><time>2026-05-01T11:38:08Z</time></trkpt><trkpt lat="44.952460420003234" lon="9.737413886478372"><ele>103.33333333333334</ele><time>2026-05-01T11:38:09Z</time></trkpt><trkpt lat="44.952278579322126" lon="9.737396353297415"><ele>103.0</ele><time>2026-05-01T11:38:10Z</time></trkpt><trkpt lat="44.95209102772163" lon="9.737400033189829"><ele>103.0</ele><time>2026-05-01T11:38:11Z</time></trkpt><trkpt lat="44.951913728000264" lon="9.73737631728908"><ele>103.0</ele><time>2026-05-01T11:38:12Z</time></trkpt><trkpt lat="44.95174680843739" lon="9.73736007803546"><ele>103.0</ele><time>2026-05-01T11:38:13Z</time></trkpt><trkpt lat="44.95158441131402" lon="9.737346199970139"><ele>103.2</ele><time>2026-05-01T11:38:14Z</time></trkpt><trkpt lat="44.95143716638424" lon="9.737333144375778"><ele>103.4</ele><time>2026-05-01T11:38:15Z</time></trkpt><trkpt lat="44.95131670615045" lon="9.737322103962866"><ele>103.60000000000001</ele><time>2026-05-01T11:38:16Z</time></trkpt><trkpt lat="44.951207482134016" lon="9.737306159646899"><ele>103.80000000000001</ele><time>2026-05-01T11:38:18Z</time></trkpt><trkpt lat="44.95113881331049" lon="9.737301649263976"><ele>104.0</ele><time>2026-05-01T11:38:19Z</time></trkpt><trkpt lat="44.95105267827337" lon="9.737298319348662"><ele>104.0</ele><time>2026-05-01T11:38:20Z</time></trkpt><trkpt lat="44.95098189951001" lon="9.737285949497943"><ele>104.0</ele><time>2026-05-01T11:38:21Z</time></trkpt><trkpt lat="44.950976650962545" lon="9.737064407846734"><ele>104.0</ele><time>2026-05-01T11:38:24Z</time></trkpt><trkpt lat="44.950977439060374" lon="9.736902696796594"><ele>104.0</ele><time>2026-05-01T11:38:25Z</time></trkpt><trkpt lat="44.950978385019106" lon="9.736708593817868"><ele>104.0</ele><time>2026-05-01T11:38:26Z</time></trkpt><trkpt lat="44.95096549588542" lon="9.73648577489025"><ele>104.0</ele><time>2026-05-01T11:38:27Z</time></trkpt><trkpt lat="44.95098057501212" lon="9.736259227694056"><ele>104.0</ele><time>2026-05-01T11:38:28Z</time></trkpt><trkpt lat="44.9509815192232" lon="9.736009019644237"><ele>103.33333333333333</ele><time>2026-05-01T11:38:29Z</time></trkpt><trkpt lat="44.95098255248921" lon="9.735751165349386"><ele>102.66666666666666</ele><time>2026-05-01T11:38:30Z</time></trkpt><trkpt lat="44.95097098938773" lon="9.735496163257453"><ele>102.0</ele><time>2026-05-01T11:38:31Z</time></trkpt><trkpt lat="44.950968804873575" lon="9.735238791358078"><ele>102.66666666666666</ele><time>2026-05-01T11:38:32Z</time></trkpt><trkpt lat="44.95097100565697" lon="9.735009597493178"><ele>103.33333333333333</ele><time>2026-05-01T11:38:33Z</time></trkpt><trkpt lat="44.95097360764078" lon="9.73479949702037"><ele>104.0</ele><time>2026-05-01T11:38:34Z</time></trkpt><trkpt lat="44.95097420234296" lon="9.734592438266434"><ele>104.0</ele><time>2026-05-01T11:38:35Z</time></trkpt><trkpt lat="44.950976186698625" lon="9.734381955691731"><ele>104.0</ele><time>2026-05-01T11:38:36Z</time></trkpt><trkpt lat="44.9509788562434" lon="9.7341716012173"><ele>104.0</ele><time>2026-05-01T11:38:37Z</time></trkpt><trkpt lat="44.95097822181062" lon="9.733963181564228"><ele>104.0</ele><time>2026-05-01T11:38:38Z</time></trkpt><trkpt lat="44.950978067169665" lon="9.73378229144844"><ele>104.0</ele><time>2026-05-01T11:38:39Z</time></trkpt><trkpt lat="44.95098245716529" lon="9.733635881109842"><ele>104.0</ele><time>2026-05-01T11:38:40Z</time></trkpt><trkpt lat="44.95098388223086" lon="9.733517011936106"><ele>104.0</ele><time>2026-05-01T11:38:41Z</time></trkpt><trkpt lat="44.95097630980792" lon="9.733391349419524"><ele>104.0</ele><time>2026-05-01T11:38:43Z</time></trkpt><trkpt lat="44.95092217943751" lon="9.733242883719004"><ele>104.0</ele><time>2026-05-01T11:38:45Z</time></trkpt><trkpt lat="44.95095553602365" lon="9.73308791878412"><ele>104.33333333333333</ele><time>2026-05-01T11:38:46Z</time></trkpt><trkpt lat="44.95096417626911" lon="9.732891239572375"><ele>104.66666666666666</ele><time>2026-05-01T11:38:47Z</time></trkpt><trkpt lat="44.950974263111476" lon="9.73268955365116"><ele>105.0</ele><time>2026-05-01T11:38:48Z</time></trkpt><trkpt lat="44.95098763140702" lon="9.732453648556161"><ele>105.0</ele><time>2026-05-01T11:38:49Z</time></trkpt><trkpt lat="44.9510076795436" lon="9.732214334052669"><ele>105.0</ele><time>2026-05-01T11:38:50Z</time></trkpt><trkpt lat="44.95102832367944" lon="9.731962659880894"><ele>105.0</ele><time>2026-05-01T11:38:51Z</time></trkpt><trkpt lat="44.95103514081243" lon="9.731739891018925"><ele>104.5</ele><time>2026-05-01T11:38:52Z</time></trkpt><trkpt lat="44.951062541226094" lon="9.731543016650784"><ele>104.0</ele><time>2026-05-01T11:38:53Z</time></trkpt><trkpt lat="44.95107636434773" lon="9.731354125554148"><ele>103.5</ele><time>2026-05-01T11:38:54Z</time></trkpt><trkpt lat="44.95108745763075" lon="9.731202537337607"><ele>103.0</ele><time>2026-05-01T11:38:55Z</time></trkpt><trkpt lat="44.95109486047713" lon="9.731101378438767"><ele>103.2</ele><time>2026-05-01T11:38:56Z</time></trkpt><trkpt lat="44.95099890199462" lon="9.731002259663498"><ele>103.4</ele><time>2026-05-01T11:39:01Z</time></trkpt><trkpt lat="44.95091670109162" lon="9.730978792589433"><ele>103.60000000000001</ele><time>2026-05-01T11:39:02Z</time></trkpt><trkpt lat="44.95082315022099" lon="9.730959874767837"><ele>103.80000000000001</ele><time>2026-05-01T11:39:03Z</time></trkpt><trkpt lat="44.95071042819064" lon="9.730930024108044"><ele>104.0</ele><time>2026-05-01T11:39:04Z</time></trkpt><trkpt lat="44.95057501064098" lon="9.7308840115079"><ele>104.66666666666666</ele><time>2026-05-01T11:39:05Z</time></trkpt><trkpt lat="44.95043057463097" lon="9.730812553403327"><ele>105.33333333333334</ele><time>2026-05-01T11:39:06Z</time></trkpt><trkpt lat="44.95027492243814" lon="9.730759941182171"><ele>106.0</ele><time>2026-05-01T11:39:07Z</time></trkpt><trkpt lat="44.950102663201605" lon="9.730724956599884"><ele>106.5</ele><time>2026-05-01T11:39:08Z</time></trkpt><trkpt lat="44.9499512453944" lon="9.730671853666667"><ele>107.0</ele><time>2026-05-01T11:39:09Z</time></trkpt><trkpt lat="44.9498177405077" lon="9.730605378676653"><ele>107.5</ele><time>2026-05-01T11:39:10Z</time></trkpt><trkpt lat="44.94968924685334" lon="9.73056192601489"><ele>108.0</ele><time>2026-05-01T11:39:11Z</time></trkpt><trkpt lat="44.949566340196036" lon="9.7305406239058"><ele>108.0</ele><time>2026-05-01T11:39:12Z</time></trkpt><trkpt lat="44.94948203608783" lon="9.730510680698584"><ele>108.00000000000001</ele><time>2026-05-01T11:39:13Z</time></trkpt><trkpt lat="44.949487850082974" lon="9.730364239086445"><ele>108.00000000000001</ele><time>2026-05-01T11:39:17Z</time></trkpt><trkpt lat="44.94951102415103" lon="9.73023661560045"><ele>108.0</ele><time>2026-05-01T11:39:18Z</time></trkpt><trkpt lat="44.94953891314482" lon="9.730083023797398"><ele>108.0</ele><time>2026-05-01T11:39:19Z</time></trkpt><trkpt lat="44.94957228243229" lon="9.729900997733294"><ele>107.66666666666666</ele><time>2026-05-01T11:39:20Z</time></trkpt><trkpt lat="44.949608847832096" lon="9.729707735020405"><ele>107.33333333333333</ele><time>2026-05-01T11:39:21Z</time></trkpt><trkpt lat="44.94964764343232" lon="9.729502684302526"><ele>107.0</ele><time>2026-05-01T11:39:22Z</time></trkpt><trkpt lat="44.949690864849735" lon="9.729280527227624"><ele>107.0</ele><time>2026-05-01T11:39:23Z</time></trkpt><trkpt lat="44.949735293676525" lon="9.729053592125625"><ele>107.0</ele><time>2026-05-01T11:39:24Z</time></trkpt><trkpt lat="44.949776525786824" lon="9.728841947763996"><ele>107.0</ele><time>2026-05-01T11:39:25Z</time></trkpt><trkpt lat="44.9498088541154" lon="9.728662437140253"><ele>107.19999999999999</ele><time>2026-05-01T11:39:26Z</time></trkpt><trkpt lat="44.94983976657858" lon="9.728508988798028"><ele>107.39999999999999</ele><time>2026-05-01T11:39:27Z</time></trkpt><trkpt lat="44.949863605906586" lon="9.72840659874927"><ele>107.60000000000001</ele><time>2026-05-01T11:39:28Z</time></trkpt><trkpt lat="44.949925614526926" lon="9.728304228663678"><ele>107.80000000000001</ele><time>2026-05-01T11:39:30Z</time></trkpt><trkpt lat="44.950001802173766" lon="9.728266651052172"><ele>108.0</ele><time>2026-05-01T11:39:31Z</time></trkpt><trkpt lat="44.950088993420366" lon="9.728158552649033"><ele>107.5</ele><time>2026-05-01T11:39:32Z</time></trkpt><trkpt lat="44.95016812329589" lon="9.728020193886556"><ele>107.0</ele><time>2026-05-01T11:39:33Z</time></trkpt><trkpt lat="44.950235918075236" lon="9.727879575246185"><ele>106.5</ele><time>2026-05-01T11:39:34Z</time></trkpt><trkpt lat="44.95028697483441" lon="9.727717387553868"><ele>106.0</ele><time>2026-05-01T11:39:35Z</time></trkpt><trkpt lat="44.9503121745263" lon="9.727542609364972"><ele>106.0</ele><time>2026-05-01T11:39:36Z</time></trkpt><trkpt lat="44.950310498247966" lon="9.727362808234828"><ele>106.0</ele><time>2026-05-01T11:39:37Z</time></trkpt><trkpt lat="44.950297448186326" lon="9.727171100283847"><ele>106.0</ele><time>2026-05-01T11:39:38Z</time></trkpt><trkpt lat="44.95027796496854" lon="9.726996137842978"><ele>106.0</ele><time>2026-05-01T11:39:39Z</time></trkpt><trkpt lat="44.95023417160942" lon="9.726827790046626"><ele>106.0</ele><time>2026-05-01T11:39:40Z</time></trkpt><trkpt lat="44.95017102100817" lon="9.726682417636727"><ele>106.0</ele><time>2026-05-01T11:39:41Z</time></trkpt><trkpt lat="44.950154736490205" lon="9.726561116552215"><ele>106.0</ele><time>2026-05-01T11:39:42Z</time></trkpt><trkpt lat="44.95019035644357" lon="9.726452622175993"><ele>106.0</ele><time>2026-05-01T11:39:44Z</time></trkpt><trkpt lat="44.950228183608324" lon="9.726368880018281"><ele>106.0</ele><time>2026-05-01T11:39:51Z</time></trkpt><trkpt lat="44.95009081131789" lon="9.726147757263186"><ele>106.33333333333334</ele><time>2026-05-01T11:39:54Z</time></trkpt><trkpt lat="44.95003333752636" lon="9.726087221890051"><ele>106.66666666666667</ele><time>2026-05-01T11:39:56Z</time></trkpt><trkpt lat="44.94995058849056" lon="9.726023222984885"><ele>107.0</ele><time>2026-05-01T11:39:58Z</time></trkpt><trkpt lat="44.9498463372739" lon="9.726018610623436"><ele>107.33333333333334</ele><time>2026-05-01T11:40:00Z</time></trkpt><trkpt lat="44.94977021554585" lon="9.725996930816088"><ele>107.66666666666667</ele><time>2026-05-01T11:40:01Z</time></trkpt><trkpt lat="44.94969486454822" lon="9.725990135668741"><ele>108.0</ele><time>2026-05-01T11:40:02Z</time></trkpt><trkpt lat="44.94960725248989" lon="9.725995452570848"><ele>107.66666666666667</ele><time>2026-05-01T11:40:03Z</time></trkpt><trkpt lat="44.949529839029545" lon="9.725996070766138"><ele>107.33333333333334</ele><time>2026-05-01T11:40:04Z</time></trkpt><trkpt lat="44.94946242098277" lon="9.72599079671795"><ele>107.0</ele><time>2026-05-01T11:40:05Z</time></trkpt><trkpt lat="44.94937223387294" lon="9.725972981099833"><ele>106.66666666666667</ele><time>2026-05-01T11:40:06Z</time></trkpt><trkpt lat="44.949277588387886" lon="9.725960496798614"><ele>106.33333333333334</ele><time>2026-05-01T11:40:07Z</time></trkpt><trkpt lat="44.949185425055845" lon="9.7259470120255"><ele>106.0</ele><time>2026-05-01T11:40:08Z</time></trkpt><trkpt lat="44.94909402952068" lon="9.725937590979559"><ele>106.00000000000001</ele><time>2026-05-01T11:40:09Z</time></trkpt><trkpt lat="44.94899921952655" lon="9.725932994296468"><ele>106.0</ele><time>2026-05-01T11:40:10Z</time></trkpt><trkpt lat="44.948906788285136" lon="9.72592967098161"><ele>106.0</ele><time>2026-05-01T11:40:11Z</time></trkpt><trkpt lat="44.948820098694966" lon="9.725921771052537"><ele>106.0</ele><time>2026-05-01T11:40:12Z</time></trkpt><trkpt lat="44.948741184460836" lon="9.725913037879886"><ele>106.00000000000001</ele><time>2026-05-01T11:40:13Z</time></trkpt><trkpt lat="44.94864704312878" lon="9.725902818847878"><ele>106.0</ele><time>2026-05-01T11:40:15Z</time></trkpt><trkpt lat="44.94858490317243" lon="9.725878680345765"><ele>106.0</ele><time>2026-05-01T11:40:16Z</time></trkpt><trkpt lat="44.94848081455115" lon="9.725850383938477"><ele>106.0</ele><time>2026-05-01T11:40:17Z</time></trkpt><trkpt lat="44.94836509395185" lon="9.725831616227211"><ele>106.0</ele><time>2026-05-01T11:40:18Z</time></trkpt><trkpt lat="44.94823901787474" lon="9.72580427228077"><ele>106.0</ele><time>2026-05-01T11:40:19Z</time></trkpt><trkpt lat="44.94812652049457" lon="9.725767904786897"><ele>106.19999999999999</ele><time>2026-05-01T11:40:20Z</time></trkpt><trkpt lat="44.94801888976245" lon="9.725743560151978"><ele>106.39999999999999</ele><time>2026-05-01T11:40:21Z</time></trkpt><trkpt lat="44.94791910293078" lon="9.725711677302309"><ele>106.6</ele><time>2026-05-01T11:40:22Z</time></trkpt><trkpt lat="44.94782424592017" lon="9.725678905723411"><ele>106.8</ele><time>2026-05-01T11:40:23Z</time></trkpt><trkpt lat="44.947730881290816" lon="9.725654726077423"><ele>107.0</ele><time>2026-05-01T11:40:24Z</time></trkpt><trkpt lat="44.94762955567114" lon="9.72564896423564"><ele>107.5</ele><time>2026-05-01T11:40:25Z</time></trkpt><trkpt lat="44.94751924340495" lon="9.725640184023776"><ele>108.0</ele><time>2026-05-01T11:40:26Z</time></trkpt><trkpt lat="44.94740968067793" lon="9.725609113917677"><ele>108.5</ele><time>2026-05-01T11:40:27Z</time></trkpt><trkpt lat="44.947272758978755" lon="9.725545139259808"><ele>109.0</ele><time>2026-05-01T11:40:28Z</time></trkpt><trkpt lat="44.947150262204296" lon="9.725555903929822"><ele>109.0</ele><time>2026-05-01T11:40:29Z</time></trkpt><trkpt lat="44.94700897992274" lon="9.725551393537078"><ele>109.0</ele><time>2026-05-01T11:40:30Z</time></trkpt><trkpt lat="44.946877725953435" lon="9.725558017563007"><ele>109.0</ele><time>2026-05-01T11:40:31Z</time></trkpt><trkpt lat="44.94675710193603" lon="9.725562844427019"><ele>109.0</ele><time>2026-05-01T11:40:32Z</time></trkpt><trkpt lat="44.946654276612264" lon="9.725579872753524"><ele>109.2</ele><time>2026-05-01T11:40:33Z</time></trkpt><trkpt lat="44.94656679094407" lon="9.725596545688017"><ele>109.4</ele><time>2026-05-01T11:40:34Z</time></trkpt><trkpt lat="44.94649142135101" lon="9.72560065015542"><ele>109.6</ele><time>2026-05-01T11:40:35Z</time></trkpt><trkpt lat="44.94639071123754" lon="9.72559246077077"><ele>109.8</ele><time>2026-05-01T11:40:36Z</time></trkpt><trkpt lat="44.94628225002988" lon="9.72557349980842"><ele>110.0</ele><time>2026-05-01T11:40:37Z</time></trkpt><trkpt lat="44.94618209285085" lon="9.7255256259341"><ele>110.0</ele><time>2026-05-01T11:40:38Z</time></trkpt><trkpt lat="44.94606149012204" lon="9.725455176912366"><ele>110.0</ele><time>2026-05-01T11:40:39Z</time></trkpt><trkpt lat="44.94592588332351" lon="9.725368116306116"><ele>110.0</ele><time>2026-05-01T11:40:40Z</time></trkpt><trkpt lat="44.94579972554054" lon="9.725266152936968"><ele>110.0</ele><time>2026-05-01T11:40:41Z</time></trkpt><trkpt lat="44.94570614999605" lon="9.725169582021364"><ele>109.8</ele><time>2026-05-01T11:40:42Z</time></trkpt><trkpt lat="44.945625228605984" lon="9.725090928004835"><ele>109.6</ele><time>2026-05-01T11:40:43Z</time></trkpt><trkpt lat="44.945552839403106" lon="9.725016833302016"><ele>109.4</ele><time>2026-05-01T11:40:44Z</time></trkpt><trkpt lat="44.945487396320694" lon="9.724927819220293"><ele>109.2</ele><time>2026-05-01T11:40:45Z</time></trkpt><trkpt lat="44.94540475310502" lon="9.724820141507095"><ele>109.0</ele><time>2026-05-01T11:40:46Z</time></trkpt><trkpt lat="44.94532959251341" lon="9.724749050335417"><ele>109.0</ele><time>2026-05-01T11:40:47Z</time></trkpt><trkpt lat="44.94522312297801" lon="9.724681034623718"><ele>109.0</ele><time>2026-05-01T11:40:48Z</time></trkpt><trkpt lat="44.94510940717163" lon="9.724612165759083"><ele>109.0</ele><time>2026-05-01T11:40:49Z</time></trkpt><trkpt lat="44.94501731932266" lon="9.724542409784089"><ele>109.0</ele><time>2026-05-01T11:40:50Z</time></trkpt><trkpt lat="44.944930059297825" lon="9.724498570326196"><ele>109.0</ele><time>2026-05-01T11:40:51Z</time></trkpt><trkpt lat="44.94485476064572" lon="9.724461855658264"><ele>109.0</ele><time>2026-05-01T11:40:52Z</time></trkpt><trkpt lat="44.94476909110883" lon="9.724394495265864"><ele>109.0</ele><time>2026-05-01T11:40:53Z</time></trkpt><trkpt lat="44.94466919522511" lon="9.724309563372708"><ele>109.0</ele><time>2026-05-01T11:40:54Z</time></trkpt><trkpt lat="44.94457505095507" lon="9.72423051318342"><ele>109.0</ele><time>2026-05-01T11:40:55Z</time></trkpt><trkpt lat="44.94448857917006" lon="9.724162440699853"><ele>109.0</ele><time>2026-05-01T11:40:56Z</time></trkpt><trkpt lat="44.94440620206474" lon="9.724103098246802"><ele>109.0</ele><time>2026-05-01T11:40:57Z</time></trkpt><trkpt lat="44.94430398710675" lon="9.724063179528374"><ele>109.0</ele><time>2026-05-01T11:40:58Z</time></trkpt><trkpt lat="44.94418223570814" lon="9.72402651518029"><ele>109.0</ele><time>2026-05-01T11:40:59Z</time></trkpt><trkpt lat="44.944092786068076" lon="9.723989597037631"><ele>109.0</ele><time>2026-05-01T11:41:00Z</time></trkpt><trkpt lat="44.943976943727854" lon="9.724003859407953"><ele>109.0</ele><time>2026-05-01T11:41:02Z</time></trkpt><trkpt lat="44.943867913758694" lon="9.724071012396777"><ele>109.4</ele><time>2026-05-01T11:41:03Z</time></trkpt><trkpt lat="44.94379455833557" lon="9.724105623107501"><ele>109.80000000000001</ele><time>2026-05-01T11:41:04Z</time></trkpt><trkpt lat="44.943692611541984" lon="9.724098206838585"><ele>110.19999999999999</ele><time>2026-05-01T11:41:06Z</time></trkpt><trkpt lat="44.94359873723186" lon="9.72400925245743"><ele>110.6</ele><time>2026-05-01T11:41:08Z</time></trkpt><trkpt lat="44.9435428682978" lon="9.72394201331477"><ele>111.0</ele><time>2026-05-01T11:41:09Z</time></trkpt><trkpt lat="44.94344778076875" lon="9.723849539019962"><ele>111.0</ele><time>2026-05-01T11:41:11Z</time></trkpt><trkpt lat="44.943390174822426" lon="9.72380380770941"><ele>111.0</ele><time>2026-05-01T11:41:12Z</time></trkpt><trkpt lat="44.94327655321266" lon="9.72372496778151"><ele>111.0</ele><time>2026-05-01T11:41:14Z</time></trkpt><trkpt lat="44.94319601984126" lon="9.723652186954812"><ele>111.0</ele><time>2026-05-01T11:41:15Z</time></trkpt><trkpt lat="44.94310322085319" lon="9.723603578765253"><ele>111.0</ele><time>2026-05-01T11:41:16Z</time></trkpt><trkpt lat="44.94300461443145" lon="9.723552741319113"><ele>110.8</ele><time>2026-05-01T11:41:17Z</time></trkpt><trkpt lat="44.9429317393323" lon="9.723479448323811"><ele>110.6</ele><time>2026-05-01T11:41:18Z</time></trkpt><trkpt lat="44.94280976348286" lon="9.723418309180724"><ele>110.4</ele><time>2026-05-01T11:41:20Z</time></trkpt><trkpt lat="44.942742678698345" lon="9.723399475026795"><ele>110.2</ele><time>2026-05-01T11:41:21Z</time></trkpt><trkpt lat="44.942677988319176" lon="9.723375800323657"><ele>110.0</ele><time>2026-05-01T11:41:22Z</time></trkpt><trkpt lat="44.94258646693797" lon="9.723330880080702"><ele>110.33333333333333</ele><time>2026-05-01T11:41:23Z</time></trkpt><trkpt lat="44.94248042173085" lon="9.723279521564926"><ele>110.66666666666666</ele><time>2026-05-01T11:41:24Z</time></trkpt><trkpt lat="44.942394289974715" lon="9.723240693137887"><ele>111.0</ele><time>2026-05-01T11:41:25Z</time></trkpt><trkpt lat="44.94231165262894" lon="9.72321795763747"><ele>111.33333333333334</ele><time>2026-05-01T11:41:26Z</time></trkpt><trkpt lat="44.942247422010446" lon="9.723180767367813"><ele>111.66666666666667</ele><time>2026-05-01T11:41:27Z</time></trkpt><trkpt lat="44.94218018446804" lon="9.723118566962581"><ele>112.0</ele><time>2026-05-01T11:41:28Z</time></trkpt><trkpt lat="44.9421165377928" lon="9.723056076261857"><ele>112.0</ele><time>2026-05-01T11:41:29Z</time></trkpt><trkpt lat="44.94205198220416" lon="9.722990434667649"><ele>111.99999999999999</ele><time>2026-05-01T11:41:30Z</time></trkpt><trkpt lat="44.94195619207882" lon="9.722883089697957"><ele>111.99999999999999</ele><time>2026-05-01T11:41:32Z</time></trkpt><trkpt lat="44.94187547306143" lon="9.722844500978587"><ele>112.0</ele><time>2026-05-01T11:41:33Z</time></trkpt><trkpt lat="44.94178114035569" lon="9.722779081371554"><ele>112.0</ele><time>2026-05-01T11:41:34Z</time></trkpt><trkpt lat="44.941680368377526" lon="9.722674947592628"><ele>112.0</ele><time>2026-05-01T11:41:35Z</time></trkpt><trkpt lat="44.941595244389944" lon="9.722595298829807"><ele>111.99999999999999</ele><time>2026-05-01T11:41:36Z</time></trkpt><trkpt lat="44.94151805560533" lon="9.722548837669445"><ele>111.99999999999999</ele><time>2026-05-01T11:41:38Z</time></trkpt><trkpt lat="44.94145512780216" lon="9.722598338311506"><ele>112.0</ele><time>2026-05-01T11:41:40Z</time></trkpt><trkpt lat="44.9413674682609" lon="9.722662925481005"><ele>112.0</ele><time>2026-05-01T11:41:42Z</time></trkpt><trkpt lat="44.94120715666719" lon="9.722626847713231"><ele>112.00000000000001</ele><time>2026-05-01T11:41:44Z</time></trkpt><trkpt lat="44.94111552839166" lon="9.722613306595948"><ele>112.0</ele><time>2026-05-01T11:41:45Z</time></trkpt><trkpt lat="44.941028824782904" lon="9.72259301465275"><ele>112.0</ele><time>2026-05-01T11:41:46Z</time></trkpt><trkpt lat="44.94094452509176" lon="9.722548958014475"><ele>112.0</ele><time>2026-05-01T11:41:47Z</time></trkpt><trkpt lat="44.9408547606953" lon="9.722511144346393"><ele>112.00000000000001</ele><time>2026-05-01T11:41:48Z</time></trkpt><trkpt lat="44.94078046472952" lon="9.722488221532775"><ele>112.0</ele><time>2026-05-01T11:41:49Z</time></trkpt><trkpt lat="44.940714303977366" lon="9.72245574037233"><ele>112.16666666666667</ele><time>2026-05-01T11:41:50Z</time></trkpt><trkpt lat="44.94061350493167" lon="9.722395618827631"><ele>112.33333333333334</ele><time>2026-05-01T11:41:52Z</time></trkpt><trkpt lat="44.94053358700207" lon="9.722380957172003"><ele>112.5</ele><time>2026-05-01T11:41:54Z</time></trkpt><trkpt lat="44.94049922506504" lon="9.722491339145895"><ele>112.66666666666666</ele><time>2026-05-01T11:41:57Z</time></trkpt><trkpt lat="44.94053147731533" lon="9.722407720026718"><ele>112.83333333333333</ele><time>2026-05-01T11:52:30Z</time></trkpt><trkpt lat="44.94058332167316" lon="9.722342993517204"><ele>113.0</ele><time>2026-05-01T11:52:32Z</time></trkpt><trkpt lat="44.94063395873485" lon="9.72241744583255"><ele>112.99999999999999</ele><time>2026-05-01T11:52:35Z</time></trkpt><trkpt lat="44.94057993307418" lon="9.722343297659034"><ele>113.0</ele><time>2026-05-01T11:53:47.999Z</time></trkpt><trkpt lat="44.940642191291076" lon="9.722412592062025"><ele>113.0</ele><time>2026-05-01T11:54:00Z</time></trkpt><trkpt lat="44.94057464835856" lon="9.72237894285459"><ele>113.0</ele><time>2026-05-01T11:54:09Z</time></trkpt><trkpt lat="44.94059704226747" lon="9.722474186234887"><ele>112.99999999999999</ele><time>2026-05-01T11:55:09.999Z</time></trkpt><trkpt lat="44.94055664121143" lon="9.72240423188453"><ele>113.0</ele><time>2026-05-01T11:55:21.999Z</time></trkpt><trkpt lat="44.940517887697034" lon="9.722520148450885"><ele>112.99999999999999</ele><time>2026-05-01T11:56:37.999Z</time></trkpt><trkpt lat="44.94046944826354" lon="9.72261509036939"><ele>113.0</ele><time>2026-05-01T11:56:39.999Z</time></trkpt><trkpt lat="44.94040402819553" lon="9.722545133885642"><ele>113.0</ele><time>2026-05-01T11:56:51.999Z</time></trkpt><trkpt lat="44.94030846812367" lon="9.722513473644765"><ele>113.0</ele><time>2026-05-01T12:08:36Z</time></trkpt><trkpt lat="44.940253974039535" lon="9.722461786761748"><ele>112.99999999999999</ele><time>2026-05-01T12:08:38.001Z</time></trkpt><trkpt lat="44.94018659900979" lon="9.722428714707645"><ele>113.0</ele><time>2026-05-01T12:08:41.001Z</time></trkpt><trkpt lat="44.9400818658379" lon="9.722375874265659"><ele>113.49999999999999</ele><time>2026-05-01T12:08:44.001Z</time></trkpt><trkpt lat="44.94001679789235" lon="9.722350661745153"><ele>114.0</ele><time>2026-05-01T12:08:45.001Z</time></trkpt><trkpt lat="44.93991058416501" lon="9.722332687678563"><ele>114.5</ele><time>2026-05-01T12:08:47.001Z</time></trkpt><trkpt lat="44.93983492429719" lon="9.722315100322543"><ele>115.0</ele><time>2026-05-01T12:08:48.001Z</time></trkpt><trkpt lat="44.93976355256579" lon="9.722288693709176"><ele>115.49999999999999</ele><time>2026-05-01T12:08:50.001Z</time></trkpt><trkpt lat="44.93970450013876" lon="9.722389706887625"><ele>116.0</ele><time>2026-05-01T12:08:52.001Z</time></trkpt><trkpt lat="44.93966872028919" lon="9.72252681659943"><ele>115.99999999999999</ele><time>2026-05-01T12:08:53.001Z</time></trkpt><trkpt lat="44.939641745936505" lon="9.722682116203352"><ele>116.0</ele><time>2026-05-01T12:08:54.001Z</time></trkpt><trkpt lat="44.939645763529704" lon="9.722775074840875"><ele>116.0</ele><time>2026-05-01T12:08:55.001Z</time></trkpt><trkpt lat="44.93963778149564" lon="9.722882423152171"><ele>116.0</ele><time>2026-05-01T12:08:57.001Z</time></trkpt><trkpt lat="44.93965134849617" lon="9.722981749064012"><ele>115.99999999999999</ele><time>2026-05-01T12:08:58.001Z</time></trkpt><trkpt lat="44.93965749223728" lon="9.72307523855571"><ele>116.0</ele><time>2026-05-01T12:08:59.001Z</time></trkpt><trkpt lat="44.93961438526172" lon="9.723200585542067"><ele>116.0</ele><time>2026-05-01T12:09:01.001Z</time></trkpt><trkpt lat="44.93954966653062" lon="9.723268812098103"><ele>116.0</ele><time>2026-05-01T12:09:03.001Z</time></trkpt><trkpt lat="44.93940348480662" lon="9.723294845941016"><ele>116.0</ele><time>2026-05-01T12:09:05.001Z</time></trkpt><trkpt lat="44.93931114075213" lon="9.723306028287634"><ele>116.0</ele><time>2026-05-01T12:09:06.001Z</time></trkpt><trkpt lat="44.93924570652134" lon="9.723332415677007"><ele>116.0</ele><time>2026-05-01T12:09:07.001Z</time></trkpt><trkpt lat="44.93915631659245" lon="9.7234283918127"><ele>115.75</ele><time>2026-05-01T12:09:09.001Z</time></trkpt><trkpt lat="44.93910547706435" lon="9.723619525785454"><ele>115.5</ele><time>2026-05-01T12:09:11.001Z</time></trkpt><trkpt lat="44.939074342815815" lon="9.723778416347832"><ele>115.25</ele><time>2026-05-01T12:09:12.001Z</time></trkpt><trkpt lat="44.93904234133121" lon="9.7239608681516"><ele>115.0</ele><time>2026-05-01T12:09:13.001Z</time></trkpt><trkpt lat="44.939010825793126" lon="9.724155224747497"><ele>115.0</ele><time>2026-05-01T12:09:14.001Z</time></trkpt><trkpt lat="44.93897997030171" lon="9.724350677338956"><ele>115.0</ele><time>2026-05-01T12:09:15.001Z</time></trkpt><trkpt lat="44.9389462813961" lon="9.724566042243133"><ele>115.0</ele><time>2026-05-01T12:09:16.001Z</time></trkpt><trkpt lat="44.93891305817781" lon="9.72477843031694"><ele>114.75</ele><time>2026-05-01T12:09:17Z</time></trkpt><trkpt lat="44.93888169502663" lon="9.724978927103376"><ele>114.5</ele><time>2026-05-01T12:09:18Z</time></trkpt><trkpt lat="44.938851378039516" lon="9.725172736173672"><ele>114.25</ele><time>2026-05-01T12:09:19Z</time></trkpt><trkpt lat="44.93882106969535" lon="9.725366490050565"><ele>114.0</ele><time>2026-05-01T12:09:20Z</time></trkpt><trkpt lat="44.93878359778766" lon="9.725608836177795"><ele>114.0</ele><time>2026-05-01T12:09:21Z</time></trkpt><trkpt lat="44.9387576941063" lon="9.72588568495792"><ele>114.0</ele><time>2026-05-01T12:09:22Z</time></trkpt><trkpt lat="44.93870349594769" lon="9.726174317536252"><ele>114.0</ele><time>2026-05-01T12:09:23Z</time></trkpt><trkpt lat="44.9386722858329" lon="9.726409274036483"><ele>114.33333333333334</ele><time>2026-05-01T12:09:24Z</time></trkpt><trkpt lat="44.93864365390363" lon="9.726637013691114"><ele>114.66666666666667</ele><time>2026-05-01T12:09:25Z</time></trkpt><trkpt lat="44.93861547056637" lon="9.726876011794952"><ele>115.0</ele><time>2026-05-01T12:09:26Z</time></trkpt><trkpt lat="44.93858775310046" lon="9.727111059190088"><ele>114.5</ele><time>2026-05-01T12:09:27Z</time></trkpt><trkpt lat="44.93856318595526" lon="9.727319391508924"><ele>114.0</ele><time>2026-05-01T12:09:28Z</time></trkpt><trkpt lat="44.93853907966673" lon="9.727521874687561"><ele>113.5</ele><time>2026-05-01T12:09:29Z</time></trkpt><trkpt lat="44.938516380531624" lon="9.72770364967005"><ele>113.0</ele><time>2026-05-01T12:09:30Z</time></trkpt><trkpt lat="44.93849238502951" lon="9.727895805806275"><ele>112.75</ele><time>2026-05-01T12:09:31Z</time></trkpt><trkpt lat="44.93846811023599" lon="9.728090198620922"><ele>112.5</ele><time>2026-05-01T12:09:32Z</time></trkpt><trkpt lat="44.938447145575225" lon="9.72825808379108"><ele>112.25</ele><time>2026-05-01T12:09:33Z</time></trkpt><trkpt lat="44.93842530822114" lon="9.728432957590329"><ele>112.0</ele><time>2026-05-01T12:09:34Z</time></trkpt><trkpt lat="44.938402087645336" lon="9.728618908176575"><ele>112.6</ele><time>2026-05-01T12:09:35Z</time></trkpt><trkpt lat="44.93838124764547" lon="9.728785649843616"><ele>113.19999999999999</ele><time>2026-05-01T12:09:36Z</time></trkpt><trkpt lat="44.93836701626891" lon="9.728905435391423"><ele>113.8</ele><time>2026-05-01T12:09:37Z</time></trkpt><trkpt lat="44.938351530419965" lon="9.729048128538718"><ele>114.4</ele><time>2026-05-01T12:09:38Z</time></trkpt><trkpt lat="44.93835926118937" lon="9.72914731078038"><ele>115.0</ele><time>2026-05-01T12:09:40Z</time></trkpt><trkpt lat="44.938375147078425" lon="9.72927650583142"><ele>115.00000000000001</ele><time>2026-05-01T12:09:44Z</time></trkpt><trkpt lat="44.93835895968557" lon="9.729384943223263"><ele>115.0</ele><time>2026-05-01T12:09:46Z</time></trkpt><trkpt lat="44.93838866024428" lon="9.729466865788167"><ele>115.0</ele><time>2026-05-01T12:09:48Z</time></trkpt><trkpt lat="44.93838947097475" lon="9.729601573490767"><ele>115.0</ele><time>2026-05-01T12:09:51Z</time></trkpt><trkpt lat="44.938399680597534" lon="9.72971095912108"><ele>115.00000000000001</ele><time>2026-05-01T12:09:53Z</time></trkpt><trkpt lat="44.93836710805746" lon="9.729834032081982"><ele>115.0</ele><time>2026-05-01T12:09:55Z</time></trkpt><trkpt lat="44.93837221150525" lon="9.729954707484453"><ele>114.83333333333334</ele><time>2026-05-01T12:09:57Z</time></trkpt><trkpt lat="44.938397290741854" lon="9.730064584601802"><ele>114.66666666666667</ele><time>2026-05-01T12:09:59Z</time></trkpt><trkpt lat="44.938360477633445" lon="9.729989306240151"><ele>114.5</ele><time>2026-05-01T12:10:37Z</time></trkpt><trkpt lat="44.938360221408765" lon="9.729850765581704"><ele>114.33333333333334</ele><time>2026-05-01T12:10:39Z</time></trkpt><trkpt lat="44.93835157905194" lon="9.72971609617883"><ele>114.16666666666667</ele><time>2026-05-01T12:10:41Z</time></trkpt><trkpt lat="44.93835828020053" lon="9.729620746567052"><ele>114.0</ele><time>2026-05-01T12:10:43.001Z</time></trkpt><trkpt lat="44.93826920837015" lon="9.72959065959347"><ele>114.0</ele><time>2026-05-01T12:10:47.001Z</time></trkpt><trkpt lat="44.93817207400435" lon="9.729583620125107"><ele>114.0</ele><time>2026-05-01T12:10:49.001Z</time></trkpt><trkpt lat="44.93807061655601" lon="9.72962562992463"><ele>114.0</ele><time>2026-05-01T12:10:52.001Z</time></trkpt><trkpt lat="44.93797467564201" lon="9.729715865654107"><ele>114.0</ele><time>2026-05-01T12:10:54Z</time></trkpt><trkpt lat="44.93785593595274" lon="9.729723423606764"><ele>114.0</ele><time>2026-05-01T12:10:56Z</time></trkpt><trkpt lat="44.93779033721708" lon="9.729712270153446"><ele>114.0</ele><time>2026-05-01T12:10:57Z</time></trkpt><trkpt lat="44.9377248883194" lon="9.729710722761341"><ele>113.99999999999999</ele><time>2026-05-01T12:10:58Z</time></trkpt><trkpt lat="44.93766287382248" lon="9.729687503905748"><ele>114.0</ele><time>2026-05-01T12:10:59Z</time></trkpt><trkpt lat="44.937598427332915" lon="9.729665826422394"><ele>114.0</ele><time>2026-05-01T12:11:02Z</time></trkpt><trkpt lat="44.937579443543505" lon="9.729800514928101"><ele>113.99999999999999</ele><time>2026-05-01T12:11:05Z</time></trkpt><trkpt lat="44.93756912650659" lon="9.729915693109122"><ele>114.0</ele><time>2026-05-01T12:11:07Z</time></trkpt><trkpt lat="44.93757189073051" lon="9.730011829671765"><ele>114.0</ele><time>2026-05-01T12:11:10Z</time></trkpt><trkpt lat="44.937552093861086" lon="9.730144178675108"><ele>113.66666666666666</ele><time>2026-05-01T12:11:14Z</time></trkpt><trkpt lat="44.937741801338774" lon="9.73031602207321"><ele>113.33333333333333</ele><time>2026-05-01T12:11:16Z</time></trkpt><trkpt lat="44.93775220819267" lon="9.730493744060512"><ele>113.0</ele><time>2026-05-01T12:11:17Z</time></trkpt><trkpt lat="44.937759592373425" lon="9.730705085087099"><ele>113.0</ele><time>2026-05-01T12:11:18Z</time></trkpt><trkpt lat="44.937756862793975" lon="9.73089431916421"><ele>113.0</ele><time>2026-05-01T12:11:19Z</time></trkpt><trkpt lat="44.93775884510993" lon="9.73112637095028"><ele>113.0</ele><time>2026-05-01T12:11:20Z</time></trkpt><trkpt lat="44.93775795761264" lon="9.731311591594334"><ele>113.0</ele><time>2026-05-01T12:11:21Z</time></trkpt><trkpt lat="44.93776312053913" lon="9.731488755548318"><ele>112.75</ele><time>2026-05-01T12:11:22Z</time></trkpt><trkpt lat="44.9377708427137" lon="9.731662322964045"><ele>112.5</ele><time>2026-05-01T12:11:23Z</time></trkpt><trkpt lat="44.93777653709906" lon="9.73182335325295"><ele>112.25</ele><time>2026-05-01T12:11:24Z</time></trkpt><trkpt lat="44.93777511613444" lon="9.731983665437157"><ele>112.0</ele><time>2026-05-01T12:11:25Z</time></trkpt><trkpt lat="44.93778366978716" lon="9.732140879434372"><ele>111.8</ele><time>2026-05-01T12:11:26Z</time></trkpt><trkpt lat="44.93779094647664" lon="9.732301006598647"><ele>111.6</ele><time>2026-05-01T12:11:27Z</time></trkpt><trkpt lat="44.93778656893017" lon="9.732467853638143"><ele>111.39999999999999</ele><time>2026-05-01T12:11:28Z</time></trkpt><trkpt lat="44.9377836228508" lon="9.73261089464194"><ele>111.19999999999999</ele><time>2026-05-01T12:11:29Z</time></trkpt><trkpt lat="44.93778572286591" lon="9.732726254327414"><ele>111.0</ele><time>2026-05-01T12:11:30Z</time></trkpt><trkpt lat="44.937782089444376" lon="9.732847453865771"><ele>111.0</ele><time>2026-05-01T12:11:32Z</time></trkpt><trkpt lat="44.937712522973456" lon="9.732893858723976"><ele>111.0</ele><time>2026-05-01T12:11:35Z</time></trkpt><trkpt lat="44.93760450208239" lon="9.732890276510332"><ele>111.0</ele><time>2026-05-01T12:11:37Z</time></trkpt><trkpt lat="44.9375387037345" lon="9.732884496449753"><ele>111.0</ele><time>2026-05-01T12:11:38Z</time></trkpt><trkpt lat="44.93746933066403" lon="9.732871601182165"><ele>111.0</ele><time>2026-05-01T12:11:39Z</time></trkpt><trkpt lat="44.937393521277656" lon="9.732865701335307"><ele>111.0</ele><time>2026-05-01T12:11:40Z</time></trkpt><trkpt lat="44.937312948577684" lon="9.732867242716235"><ele>111.0</ele><time>2026-05-01T12:11:41Z</time></trkpt><trkpt lat="44.93722717906737" lon="9.732872671462728"><ele>111.0</ele><time>2026-05-01T12:11:42Z</time></trkpt><trkpt lat="44.937153481658" lon="9.732877327504587"><ele>111.0</ele><time>2026-05-01T12:11:43Z</time></trkpt><trkpt lat="44.93708717435569" lon="9.732876704012337"><ele>111.0</ele><time>2026-05-01T12:11:44Z</time></trkpt><trkpt lat="44.93701445121309" lon="9.732869034168814"><ele>111.0</ele><time>2026-05-01T12:11:45Z</time></trkpt><trkpt lat="44.9369447194194" lon="9.732868369895103"><ele>111.0</ele><time>2026-05-01T12:11:46Z</time></trkpt><trkpt lat="44.93686922841293" lon="9.732871674534916"><ele>111.0</ele><time>2026-05-01T12:11:47Z</time></trkpt><trkpt lat="44.93679262053833" lon="9.732872740198822"><ele>111.0</ele><time>2026-05-01T12:11:48Z</time></trkpt><trkpt lat="44.93671724302435" lon="9.732872887583884"><ele>111.0</ele><time>2026-05-01T12:11:49Z</time></trkpt><trkpt lat="44.93663869370271" lon="9.732874687058638"><ele>111.0</ele><time>2026-05-01T12:11:50Z</time></trkpt><trkpt lat="44.93656112453386" lon="9.732870682912766"><ele>111.0</ele><time>2026-05-01T12:11:51Z</time></trkpt><trkpt lat="44.93645900119519" lon="9.732858434830467"><ele>111.0</ele><time>2026-05-01T12:11:53Z</time></trkpt><trkpt lat="44.93652620402685" lon="9.732902986476857"><ele>111.0</ele><time>2026-05-01T12:12:21Z</time></trkpt><trkpt lat="44.936594305176904" lon="9.732852844769308"><ele>111.0</ele><time>2026-05-01T12:12:24Z</time></trkpt><trkpt lat="44.9366770175796" lon="9.732865673555144"><ele>111.0</ele><time>2026-05-01T12:12:27Z</time></trkpt><trkpt lat="44.93675536470276" lon="9.732856927114003"><ele>111.0</ele><time>2026-05-01T12:12:30Z</time></trkpt><trkpt lat="44.93688401249517" lon="9.732862101485312"><ele>111.0</ele><time>2026-05-01T12:12:57Z</time></trkpt><trkpt lat="44.936990970654385" lon="9.732863879143055"><ele>111.0</ele><time>2026-05-01T12:12:58Z</time></trkpt><trkpt lat="44.93710808835253" lon="9.732876415249638"><ele>111.0</ele><time>2026-05-01T12:12:59Z</time></trkpt><trkpt lat="44.93721425018659" lon="9.732874407851174"><ele>111.0</ele><time>2026-05-01T12:13:00Z</time></trkpt><trkpt lat="44.937302505912065" lon="9.732868745523037"><ele>111.0</ele><time>2026-05-01T12:13:01Z</time></trkpt><trkpt lat="44.93738514502434" lon="9.73286452813012"><ele>111.0</ele><time>2026-05-01T12:13:02Z</time></trkpt><trkpt lat="44.93747925542931" lon="9.732867347885236"><ele>111.0</ele><time>2026-05-01T12:13:03Z</time></trkpt><trkpt lat="44.93757104394187" lon="9.732866940525977"><ele>111.0</ele><time>2026-05-01T12:13:04Z</time></trkpt><trkpt lat="44.93764580857041" lon="9.732869308313454"><ele>111.0</ele><time>2026-05-01T12:13:05Z</time></trkpt><trkpt lat="44.937709769968734" lon="9.732870323592266"><ele>111.0</ele><time>2026-05-01T12:13:06Z</time></trkpt><trkpt lat="44.93778544018791" lon="9.732858560134229"><ele>111.0</ele><time>2026-05-01T12:13:08Z</time></trkpt><trkpt lat="44.937794158939376" lon="9.732752536941895"><ele>111.0</ele><time>2026-05-01T12:13:10Z</time></trkpt><trkpt lat="44.93777460079549" lon="9.732585994706982"><ele>111.0</ele><time>2026-05-01T12:13:12Z</time></trkpt><trkpt lat="44.93776833438702" lon="9.732474099795207"><ele>111.0</ele><time>2026-05-01T12:13:13Z</time></trkpt><trkpt lat="44.93776549079557" lon="9.732313979621939"><ele>111.0</ele><time>2026-05-01T12:13:14Z</time></trkpt><trkpt lat="44.937764346290244" lon="9.732146919985585"><ele>111.0</ele><time>2026-05-01T12:13:15Z</time></trkpt><trkpt lat="44.93776223668432" lon="9.731981453376989"><ele>111.0</ele><time>2026-05-01T12:13:16Z</time></trkpt><trkpt lat="44.9377640286486" lon="9.73184593143592"><ele>111.0</ele><time>2026-05-01T12:13:17Z</time></trkpt><trkpt lat="44.93775643491063" lon="9.73172374562439"><ele>111.19999999999999</ele><time>2026-05-01T12:13:18Z</time></trkpt><trkpt lat="44.93775664116637" lon="9.731578141999199"><ele>111.39999999999999</ele><time>2026-05-01T12:13:19Z</time></trkpt><trkpt lat="44.93775413975532" lon="9.731440344840582"><ele>111.6</ele><time>2026-05-01T12:13:20Z</time></trkpt><trkpt lat="44.93775512158021" lon="9.731303015658098"><ele>111.8</ele><time>2026-05-01T12:13:21Z</time></trkpt><trkpt lat="44.93775243486672" lon="9.731167743005315"><ele>112.0</ele><time>2026-05-01T12:13:22Z</time></trkpt><trkpt lat="44.93775324972481" lon="9.731030209699961"><ele>112.16666666666667</ele><time>2026-05-01T12:13:23Z</time></trkpt><trkpt lat="44.93775143576182" lon="9.730897970115281"><ele>112.33333333333334</ele><time>2026-05-01T12:13:24Z</time></trkpt><trkpt lat="44.93774748670171" lon="9.730777850055608"><ele>112.5</ele><time>2026-05-01T12:13:25Z</time></trkpt><trkpt lat="44.93774371481471" lon="9.730661057971803"><ele>112.66666666666666</ele><time>2026-05-01T12:13:26Z</time></trkpt><trkpt lat="44.93774035624397" lon="9.73053452899411"><ele>112.83333333333333</ele><time>2026-05-01T12:13:27Z</time></trkpt><trkpt lat="44.93774047193279" lon="9.73040525185937"><ele>113.0</ele><time>2026-05-01T12:13:28Z</time></trkpt><trkpt lat="44.937733714284114" lon="9.730280339339538"><ele>113.16666666666666</ele><time>2026-05-01T12:13:29Z</time></trkpt><trkpt lat="44.93772990169309" lon="9.730177982280138"><ele>113.33333333333333</ele><time>2026-05-01T12:13:30Z</time></trkpt><trkpt lat="44.93769639898042" lon="9.730028416216085"><ele>113.5</ele><time>2026-05-01T12:13:32Z</time></trkpt><trkpt lat="44.93764102900332" lon="9.729959618976503"><ele>113.66666666666666</ele><time>2026-05-01T12:13:33Z</time></trkpt><trkpt lat="44.93759013910524" lon="9.729905740485775"><ele>113.83333333333333</ele><time>2026-05-01T12:13:34Z</time></trkpt><trkpt lat="44.93757481321725" lon="9.729759963092716"><ele>114.0</ele><time>2026-05-01T12:13:36Z</time></trkpt><trkpt lat="44.937672160740746" lon="9.729723549669886"><ele>114.0</ele><time>2026-05-01T12:13:37Z</time></trkpt><trkpt lat="44.937909525106456" lon="9.729746400750209"><ele>114.0</ele><time>2026-05-01T12:13:41.999Z</time></trkpt><trkpt lat="44.93797634798934" lon="9.729734819026294"><ele>114.0</ele><time>2026-05-01T12:13:42.999Z</time></trkpt><trkpt lat="44.938037955818984" lon="9.729698193782303"><ele>114.0</ele><time>2026-05-01T12:13:43.999Z</time></trkpt><trkpt lat="44.93812019382441" lon="9.72965523163755"><ele>114.0</ele><time>2026-05-01T12:13:44.999Z</time></trkpt><trkpt lat="44.938213805624166" lon="9.72962072724908"><ele>114.0</ele><time>2026-05-01T12:13:45.999Z</time></trkpt><trkpt lat="44.938292932910876" lon="9.729583314121147"><ele>114.0</ele><time>2026-05-01T12:13:46.999Z</time></trkpt><trkpt lat="44.93835288919126" lon="9.729535347985735"><ele>114.0</ele><time>2026-05-01T12:13:47.999Z</time></trkpt><trkpt lat="44.938394162993106" lon="9.729414218897855"><ele>114.0</ele><time>2026-05-01T12:13:49.999Z</time></trkpt><trkpt lat="44.938398275970236" lon="9.72925761239561"><ele>113.6</ele><time>2026-05-01T12:13:51.999Z</time></trkpt><trkpt lat="44.938468596942336" lon="9.729209785932802"><ele>113.2</ele><time>2026-05-01T12:13:54.999Z</time></trkpt><trkpt lat="44.9385370863731" lon="9.72921295486058"><ele>112.79999999999998</ele><time>2026-05-01T12:13:55.999Z</time></trkpt><trkpt lat="44.93862314098879" lon="9.729260116052926"><ele>112.39999999999999</ele><time>2026-05-01T12:13:56.999Z</time></trkpt><trkpt lat="44.93873792470026" lon="9.729339094183194"><ele>112.0</ele><time>2026-05-01T12:13:57.999Z</time></trkpt><trkpt lat="44.938862757409986" lon="9.729407525770299"><ele>112.0</ele><time>2026-05-01T12:13:58.999Z</time></trkpt><trkpt lat="44.93900663851661" lon="9.729472903925467"><ele>112.0</ele><time>2026-05-01T12:13:59.999Z</time></trkpt><trkpt lat="44.93916055548471" lon="9.729546945158809"><ele>112.0</ele><time>2026-05-01T12:14:00.999Z</time></trkpt><trkpt lat="44.93931356017319" lon="9.729628296802895"><ele>112.0</ele><time>2026-05-01T12:14:01.999Z</time></trkpt><trkpt lat="44.93946835126628" lon="9.729705247554481"><ele>112.0</ele><time>2026-05-01T12:14:02.999Z</time></trkpt><trkpt lat="44.93961807571979" lon="9.729771662035725"><ele>112.0</ele><time>2026-05-01T12:14:03.999Z</time></trkpt><trkpt lat="44.93977067665378" lon="9.729846113085753"><ele>112.0</ele><time>2026-05-01T12:14:04.999Z</time></trkpt><trkpt lat="44.93992303419308" lon="9.729922927134428"><ele>112.0</ele><time>2026-05-01T12:14:05.999Z</time></trkpt><trkpt lat="44.94006917479722" lon="9.730000372207703"><ele>112.0</ele><time>2026-05-01T12:14:06.999Z</time></trkpt><trkpt lat="44.940216373072566" lon="9.73007223057969"><ele>112.0</ele><time>2026-05-01T12:14:07.999Z</time></trkpt><trkpt lat="44.940363881303426" lon="9.730150640741876"><ele>112.0</ele><time>2026-05-01T12:14:08.999Z</time></trkpt><trkpt lat="44.940510874609295" lon="9.730219827353043"><ele>112.0</ele><time>2026-05-01T12:14:09.999Z</time></trkpt><trkpt lat="44.940655698259064" lon="9.730295110944152"><ele>112.0</ele><time>2026-05-01T12:14:10.999Z</time></trkpt><trkpt lat="44.94079993849454" lon="9.730364447918133"><ele>112.0</ele><time>2026-05-01T12:14:11.999Z</time></trkpt><trkpt lat="44.940944683476985" lon="9.730439647362703"><ele>112.0</ele><time>2026-05-01T12:14:12.999Z</time></trkpt><trkpt lat="44.94108396061039" lon="9.730510774180047"><ele>112.0</ele><time>2026-05-01T12:14:13.999Z</time></trkpt><trkpt lat="44.94122339529451" lon="9.730579789898703"><ele>112.0</ele><time>2026-05-01T12:14:14.999Z</time></trkpt><trkpt lat="44.94135108611312" lon="9.730640910847507"><ele>112.0</ele><time>2026-05-01T12:14:15.999Z</time></trkpt><trkpt lat="44.941461003193666" lon="9.730690852151174"><ele>112.0</ele><time>2026-05-01T12:14:16.999Z</time></trkpt><trkpt lat="44.941523978841964" lon="9.730726512984583"><ele>112.0</ele><time>2026-05-01T12:14:17.999Z</time></trkpt><trkpt lat="44.941452776251715" lon="9.730895745189967"><ele>112.0</ele><time>2026-05-01T12:14:21.999Z</time></trkpt><trkpt lat="44.941375449931996" lon="9.73101551066618"><ele>112.0</ele><time>2026-05-01T12:14:23.999Z</time></trkpt><trkpt lat="44.941238566139354" lon="9.73105021254223"><ele>112.0</ele><time>2026-05-01T12:14:25.999Z</time></trkpt><trkpt lat="44.94113577916329" lon="9.731108111984412"><ele>112.0</ele><time>2026-05-01T12:14:26.999Z</time></trkpt><trkpt lat="44.94103185726181" lon="9.731181659777949"><ele>112.0</ele><time>2026-05-01T12:14:27.999Z</time></trkpt><trkpt lat="44.940904507649876" lon="9.731289715191917"><ele>112.0</ele><time>2026-05-01T12:14:28.999Z</time></trkpt><trkpt lat="44.94077518408924" lon="9.731404975476751"><ele>112.0</ele><time>2026-05-01T12:14:29.999Z</time></trkpt><trkpt lat="44.94066085147238" lon="9.731506874971476"><ele>112.0</ele><time>2026-05-01T12:14:30.999Z</time></trkpt><trkpt lat="44.94056001585656" lon="9.731596989499982"><ele>112.0</ele><time>2026-05-01T12:14:31.999Z</time></trkpt><trkpt lat="44.94045885045212" lon="9.731688479763738"><ele>112.0</ele><time>2026-05-01T12:14:32.999Z</time></trkpt><trkpt lat="44.94035778199254" lon="9.731779882365183"><ele>112.0</ele><time>2026-05-01T12:14:33.999Z</time></trkpt><trkpt lat="44.94025636930411" lon="9.73187621609647"><ele>111.5</ele><time>2026-05-01T12:14:34.999Z</time></trkpt><trkpt lat="44.94014849645604" lon="9.73198316690323"><ele>111.0</ele><time>2026-05-01T12:14:35.999Z</time></trkpt><trkpt lat="44.940047455758396" lon="9.732083898502811"><ele>110.5</ele><time>2026-05-01T12:14:36.999Z</time></trkpt><trkpt lat="44.93994849132702" lon="9.732180125774017"><ele>110.0</ele><time>2026-05-01T12:14:37.999Z</time></trkpt><trkpt lat="44.93984809754721" lon="9.73227648745865"><ele>110.0</ele><time>2026-05-01T12:14:38.999Z</time></trkpt><trkpt lat="44.93974807560366" lon="9.732371656043068"><ele>110.0</ele><time>2026-05-01T12:14:39.999Z</time></trkpt><trkpt lat="44.93964394693042" lon="9.73247068003413"><ele>110.0</ele><time>2026-05-01T12:14:40.999Z</time></trkpt><trkpt lat="44.93954129725174" lon="9.732568297516664"><ele>110.0</ele><time>2026-05-01T12:14:41.999Z</time></trkpt><trkpt lat="44.93943630638535" lon="9.73266980579058"><ele>110.25</ele><time>2026-05-01T12:14:42.999Z</time></trkpt><trkpt lat="44.93933581263701" lon="9.732766977870384"><ele>110.5</ele><time>2026-05-01T12:14:43.999Z</time></trkpt><trkpt lat="44.93923959537936" lon="9.732860014828534"><ele>110.75</ele><time>2026-05-01T12:14:44.999Z</time></trkpt><trkpt lat="44.93914054335911" lon="9.732955792798581"><ele>111.0</ele><time>2026-05-01T12:14:45.999Z</time></trkpt><trkpt lat="44.93904563416265" lon="9.733047564880025"><ele>111.0</ele><time>2026-05-01T12:14:46.999Z</time></trkpt><trkpt lat="44.93895280804571" lon="9.733137373391926"><ele>111.0</ele><time>2026-05-01T12:14:47.999Z</time></trkpt><trkpt lat="44.93884373564079" lon="9.733244324348307"><ele>111.0</ele><time>2026-05-01T12:14:48.999Z</time></trkpt><trkpt lat="44.93873662529021" lon="9.733352262049232"><ele>111.0</ele><time>2026-05-01T12:14:49.999Z</time></trkpt><trkpt lat="44.93864843129958" lon="9.733442375184417"><ele>111.0</ele><time>2026-05-01T12:14:50.999Z</time></trkpt><trkpt lat="44.9385454842434" lon="9.733545052464608"><ele>111.0</ele><time>2026-05-01T12:14:51.998Z</time></trkpt><trkpt lat="44.938436093943054" lon="9.733644732955781"><ele>111.0</ele><time>2026-05-01T12:14:52.998Z</time></trkpt><trkpt lat="44.93832241959906" lon="9.733739353229378"><ele>111.0</ele><time>2026-05-01T12:14:53.998Z</time></trkpt><trkpt lat="44.93820013637303" lon="9.73384166726395"><ele>110.75</ele><time>2026-05-01T12:14:54.999Z</time></trkpt><trkpt lat="44.93808046964661" lon="9.733950704149082"><ele>110.5</ele><time>2026-05-01T12:14:55.999Z</time></trkpt><trkpt lat="44.937951559123555" lon="9.73407139049945"><ele>110.25</ele><time>2026-05-01T12:14:56.999Z</time></trkpt><trkpt lat="44.93782555463464" lon="9.73418935611558"><ele>110.0</ele><time>2026-05-01T12:14:57.999Z</time></trkpt><trkpt lat="44.93769883239318" lon="9.734306364025585"><ele>110.33333333333333</ele><time>2026-05-01T12:14:58.999Z</time></trkpt><trkpt lat="44.937563712899866" lon="9.734429103139673"><ele>110.66666666666666</ele><time>2026-05-01T12:14:59.999Z</time></trkpt><trkpt lat="44.93742593637648" lon="9.734551360144934"><ele>111.0</ele><time>2026-05-01T12:15:00.999Z</time></trkpt><trkpt lat="44.93730602618168" lon="9.734653701059749"><ele>111.0</ele><time>2026-05-01T12:15:01.999Z</time></trkpt><trkpt lat="44.93719697206959" lon="9.73474753794049"><ele>111.0</ele><time>2026-05-01T12:15:02.999Z</time></trkpt><trkpt lat="44.93707851939765" lon="9.734851575819516"><ele>111.0</ele><time>2026-05-01T12:15:03.999Z</time></trkpt><trkpt lat="44.936965264244115" lon="9.73495620586916"><ele>111.0</ele><time>2026-05-01T12:15:04.999Z</time></trkpt><trkpt lat="44.936866773865944" lon="9.735086952635143"><ele>111.0</ele><time>2026-05-01T12:15:05.999Z</time></trkpt><trkpt lat="44.936744207700734" lon="9.735197803956277"><ele>111.0</ele><time>2026-05-01T12:15:06.999Z</time></trkpt><trkpt lat="44.936645830765904" lon="9.735344832445312"><ele>111.0</ele><time>2026-05-01T12:15:07.999Z</time></trkpt><trkpt lat="44.936548288698404" lon="9.735463190686458"><ele>111.0</ele><time>2026-05-01T12:15:08.999Z</time></trkpt><trkpt lat="44.93646686110221" lon="9.735570849010543"><ele>111.0</ele><time>2026-05-01T12:15:09.999Z</time></trkpt><trkpt lat="44.93639367583793" lon="9.735665091752718"><ele>111.0</ele><time>2026-05-01T12:15:10.999Z</time></trkpt><trkpt lat="44.93631657885375" lon="9.735706960657804"><ele>111.0</ele><time>2026-05-01T12:15:11.999Z</time></trkpt><trkpt lat="44.93624485517452" lon="9.73574672241437"><ele>111.0</ele><time>2026-05-01T12:15:12.999Z</time></trkpt><trkpt lat="44.93614795348118" lon="9.735785573832288"><ele>111.0</ele><time>2026-05-01T12:15:13.999Z</time></trkpt><trkpt lat="44.93605060052553" lon="9.735814031489241"><ele>111.0</ele><time>2026-05-01T12:15:14.999Z</time></trkpt><trkpt lat="44.93596317999252" lon="9.735827195155528"><ele>111.0</ele><time>2026-05-01T12:15:15.999Z</time></trkpt><trkpt lat="44.935853935721056" lon="9.735851324090948"><ele>111.0</ele><time>2026-05-01T12:15:16.999Z</time></trkpt><trkpt lat="44.93573075337415" lon="9.735896117418235"><ele>111.0</ele><time>2026-05-01T12:15:17.999Z</time></trkpt><trkpt lat="44.93559709719859" lon="9.735943282317304"><ele>111.25</ele><time>2026-05-01T12:15:18.999Z</time></trkpt><trkpt lat="44.93546716839015" lon="9.73598913192498"><ele>111.5</ele><time>2026-05-01T12:15:19.999Z</time></trkpt><trkpt lat="44.93534014552573" lon="9.736039032684014"><ele>111.75</ele><time>2026-05-01T12:15:20.999Z</time></trkpt><trkpt lat="44.935215051194234" lon="9.736092434177305"><ele>112.0</ele><time>2026-05-01T12:15:21.999Z</time></trkpt><trkpt lat="44.93508417428062" lon="9.73613887355463"><ele>112.0</ele><time>2026-05-01T12:15:22.999Z</time></trkpt><trkpt lat="44.93494712423553" lon="9.736182134782897"><ele>112.0</ele><time>2026-05-01T12:15:23.999Z</time></trkpt><trkpt lat="44.93480930566039" lon="9.736226663917158"><ele>112.0</ele><time>2026-05-01T12:15:24.999Z</time></trkpt><trkpt lat="44.93467637446233" lon="9.736273496669513"><ele>112.0</ele><time>2026-05-01T12:15:25.999Z</time></trkpt><trkpt lat="44.93454131134255" lon="9.736323107831042"><ele>112.0</ele><time>2026-05-01T12:15:26.999Z</time></trkpt><trkpt lat="44.93441319129967" lon="9.736370168714519"><ele>112.0</ele><time>2026-05-01T12:15:27.999Z</time></trkpt><trkpt lat="44.934283771291256" lon="9.736415569064686"><ele>112.0</ele><time>2026-05-01T12:15:28.999Z</time></trkpt><trkpt lat="44.93414810792551" lon="9.736462745498926"><ele>112.0</ele><time>2026-05-01T12:15:29.999Z</time></trkpt><trkpt lat="44.934018870506065" lon="9.736506159851972"><ele>112.0</ele><time>2026-05-01T12:15:30.999Z</time></trkpt><trkpt lat="44.93389031404445" lon="9.736545807362466"><ele>112.0</ele><time>2026-05-01T12:15:31.999Z</time></trkpt><trkpt lat="44.93376209306753" lon="9.736582750557151"><ele>112.0</ele><time>2026-05-01T12:15:32.999Z</time></trkpt><trkpt lat="44.9336325001172" lon="9.736622067453434"><ele>112.0</ele><time>2026-05-01T12:15:33.999Z</time></trkpt><trkpt lat="44.933496812443906" lon="9.736665607833014"><ele>112.0</ele><time>2026-05-01T12:15:34.999Z</time></trkpt><trkpt lat="44.933365705332704" lon="9.736707678376712"><ele>112.0</ele><time>2026-05-01T12:15:35.999Z</time></trkpt><trkpt lat="44.9332311870177" lon="9.736743948527593"><ele>112.0</ele><time>2026-05-01T12:15:36.999Z</time></trkpt><trkpt lat="44.93308505234531" lon="9.736748561405268"><ele>112.0</ele><time>2026-05-01T12:15:37.999Z</time></trkpt><trkpt lat="44.93295171045281" lon="9.736808446223518"><ele>112.0</ele><time>2026-05-01T12:15:38.999Z</time></trkpt><trkpt lat="44.93281019013868" lon="9.736870814517841"><ele>112.0</ele><time>2026-05-01T12:15:39.999Z</time></trkpt><trkpt lat="44.93262985764948" lon="9.73694890044894"><ele>112.0</ele><time>2026-05-01T12:15:40.999Z</time></trkpt><trkpt lat="44.9324778116518" lon="9.737013791052318"><ele>112.0</ele><time>2026-05-01T12:15:41.999Z</time></trkpt><trkpt lat="44.932345565276464" lon="9.73706739356436"><ele>112.0</ele><time>2026-05-01T12:15:42.999Z</time></trkpt><trkpt lat="44.932228650821784" lon="9.737110211135336"><ele>112.0</ele><time>2026-05-01T12:15:43.999Z</time></trkpt><trkpt lat="44.93212033995861" lon="9.737147093537754"><ele>112.0</ele><time>2026-05-01T12:15:44.999Z</time></trkpt><trkpt lat="44.93202884562066" lon="9.737176087175314"><ele>112.0</ele><time>2026-05-01T12:15:45.999Z</time></trkpt><trkpt lat="44.931960013195486" lon="9.737206403078908"><ele>111.99999999999999</ele><time>2026-05-01T12:15:46.999Z</time></trkpt><trkpt lat="44.93188568436556" lon="9.737257282889257"><ele>111.99999999999999</ele><time>2026-05-01T12:15:47.999Z</time></trkpt><trkpt lat="44.93183927579646" lon="9.737411980907405"><ele>112.0</ele><time>2026-05-01T12:15:48.999Z</time></trkpt><trkpt lat="44.93181037698762" lon="9.737549328892104"><ele>112.0</ele><time>2026-05-01T12:15:49.999Z</time></trkpt><trkpt lat="44.931780298247155" lon="9.737664271607018"><ele>111.75</ele><time>2026-05-01T12:15:50.999Z</time></trkpt><trkpt lat="44.93179358832715" lon="9.73780656778998"><ele>111.5</ele><time>2026-05-01T12:15:51.999Z</time></trkpt><trkpt lat="44.93177204285105" lon="9.737961867131308"><ele>111.25</ele><time>2026-05-01T12:15:52.999Z</time></trkpt><trkpt lat="44.93171383692903" lon="9.738125701703023"><ele>111.0</ele><time>2026-05-01T12:15:53.999Z</time></trkpt><trkpt lat="44.931637268800415" lon="9.738335910644977"><ele>111.33333333333334</ele><time>2026-05-01T12:15:54.999Z</time></trkpt><trkpt lat="44.9315595894704" lon="9.738549169912707"><ele>111.66666666666667</ele><time>2026-05-01T12:15:55.999Z</time></trkpt><trkpt lat="44.93148219953009" lon="9.738754393908884"><ele>112.0</ele><time>2026-05-01T12:15:56.999Z</time></trkpt><trkpt lat="44.931397697856504" lon="9.738940653255593"><ele>112.0</ele><time>2026-05-01T12:15:57.999Z</time></trkpt><trkpt lat="44.93130544130574" lon="9.739108318466158"><ele>112.0</ele><time>2026-05-01T12:15:58.999Z</time></trkpt><trkpt lat="44.9312150936393" lon="9.739265130658152"><ele>112.0</ele><time>2026-05-01T12:15:59.999Z</time></trkpt><trkpt lat="44.931125033089394" lon="9.739417184903447"><ele>112.0</ele><time>2026-05-01T12:16:00.999Z</time></trkpt><trkpt lat="44.93103232719901" lon="9.7395715716477"><ele>112.0</ele><time>2026-05-01T12:16:01.999Z</time></trkpt><trkpt lat="44.93094196161067" lon="9.73972205228803"><ele>112.0</ele><time>2026-05-01T12:16:02.999Z</time></trkpt><trkpt lat="44.930855598209284" lon="9.739865868413547"><ele>112.0</ele><time>2026-05-01T12:16:03.999Z</time></trkpt><trkpt lat="44.93076955606287" lon="9.740007190821617"><ele>112.0</ele><time>2026-05-01T12:16:04.999Z</time></trkpt><trkpt lat="44.93068268986954" lon="9.740149547204094"><ele>112.0</ele><time>2026-05-01T12:16:05.999Z</time></trkpt><trkpt lat="44.93060324149435" lon="9.740279746804687"><ele>111.99999999999999</ele><time>2026-05-01T12:16:06.999Z</time></trkpt><trkpt lat="44.93053081873422" lon="9.740398433446153"><ele>111.99999999999999</ele><time>2026-05-01T12:16:07.999Z</time></trkpt><trkpt lat="44.930465440995874" lon="9.74050596298463"><ele>112.0</ele><time>2026-05-01T12:16:08.999Z</time></trkpt><trkpt lat="44.93040767512387" lon="9.740605203263904"><ele>112.0</ele><time>2026-05-01T12:16:09.999Z</time></trkpt><trkpt lat="44.93035579027122" lon="9.740697077043242"><ele>112.0</ele><time>2026-05-01T12:16:10.999Z</time></trkpt><trkpt lat="44.93031361937763" lon="9.740776155387094"><ele>111.99999999999999</ele><time>2026-05-01T12:16:11.999Z</time></trkpt><trkpt lat="44.93026235780051" lon="9.740900544131298"><ele>111.99999999999999</ele><time>2026-05-01T12:16:13.999Z</time></trkpt><trkpt lat="44.93020587433594" lon="9.741008673515633"><ele>112.0</ele><time>2026-05-01T12:16:15.999Z</time></trkpt><trkpt lat="44.930144700495106" lon="9.741133081163515"><ele>112.0</ele><time>2026-05-01T12:16:17.999Z</time></trkpt><trkpt lat="44.93009567311787" lon="9.741292547616577"><ele>112.00000000000001</ele><time>2026-05-01T12:16:19.999Z</time></trkpt><trkpt lat="44.93004641928172" lon="9.741394113247786"><ele>112.0</ele><time>2026-05-01T12:16:20.999Z</time></trkpt><trkpt lat="44.930036968545565" lon="9.741520636765198"><ele>112.0</ele><time>2026-05-01T12:16:21.999Z</time></trkpt><trkpt lat="44.93003040266238" lon="9.741624608136128"><ele>112.0</ele><time>2026-05-01T12:16:22.999Z</time></trkpt><trkpt lat="44.93005422396546" lon="9.741714907909117"><ele>112.00000000000001</ele><time>2026-05-01T12:16:23.999Z</time></trkpt><trkpt lat="44.930087960822284" lon="9.741790550351734"><ele>112.0</ele><time>2026-05-01T12:16:24.999Z</time></trkpt><trkpt lat="44.93012113562312" lon="9.741878890377976"><ele>112.0</ele><time>2026-05-01T12:16:25.999Z</time></trkpt><trkpt lat="44.930164405082515" lon="9.74198385657333"><ele>111.99999999999999</ele><time>2026-05-01T12:16:26.999Z</time></trkpt><trkpt lat="44.93016537350536" lon="9.74216296733182"><ele>111.99999999999999</ele><time>2026-05-01T12:16:28.999Z</time></trkpt><trkpt lat="44.93010231018042" lon="9.742225568634934"><ele>112.0</ele><time>2026-05-01T12:16:29.999Z</time></trkpt><trkpt lat="44.93001574394357" lon="9.74230904042751"><ele>112.0</ele><time>2026-05-01T12:16:30.999Z</time></trkpt><trkpt lat="44.92989855121624" lon="9.742405433090678"><ele>112.0</ele><time>2026-05-01T12:16:31.999Z</time></trkpt><trkpt lat="44.92976202425274" lon="9.742497253923718"><ele>112.0</ele><time>2026-05-01T12:16:32.999Z</time></trkpt><trkpt lat="44.92962418031931" lon="9.742646569417168"><ele>112.0</ele><time>2026-05-01T12:16:33.999Z</time></trkpt><trkpt lat="44.92948243533674" lon="9.742833074270337"><ele>112.0</ele><time>2026-05-01T12:16:34.999Z</time></trkpt><trkpt lat="44.9293325360391" lon="9.743033218296906"><ele>112.0</ele><time>2026-05-01T12:16:35.999Z</time></trkpt><trkpt lat="44.9291890794972" lon="9.74322475975235"><ele>112.0</ele><time>2026-05-01T12:16:36.999Z</time></trkpt><trkpt lat="44.929050728066684" lon="9.743409485305424"><ele>112.0</ele><time>2026-05-01T12:16:37.999Z</time></trkpt><trkpt lat="44.928914327158566" lon="9.743594952874055"><ele>112.0</ele><time>2026-05-01T12:16:38.999Z</time></trkpt><trkpt lat="44.928784607929316" lon="9.743777516724435"><ele>112.0</ele><time>2026-05-01T12:16:39.999Z</time></trkpt><trkpt lat="44.92866705519848" lon="9.743978697731086"><ele>112.0</ele><time>2026-05-01T12:16:40.999Z</time></trkpt><trkpt lat="44.92854624939293" lon="9.744167676790283"><ele>112.0</ele><time>2026-05-01T12:16:41.999Z</time></trkpt><trkpt lat="44.92845274265679" lon="9.744380522568758"><ele>112.0</ele><time>2026-05-01T12:16:42.999Z</time></trkpt><trkpt lat="44.92837459126315" lon="9.744611837881882"><ele>111.5</ele><time>2026-05-01T12:16:43.999Z</time></trkpt><trkpt lat="44.9283237698896" lon="9.744838896517853"><ele>111.0</ele><time>2026-05-01T12:16:44.999Z</time></trkpt><trkpt lat="44.92828207805952" lon="9.74504379712342"><ele>110.5</ele><time>2026-05-01T12:16:45.999Z</time></trkpt><trkpt lat="44.92822037928728" lon="9.745198863532538"><ele>110.0</ele><time>2026-05-01T12:16:46.999Z</time></trkpt><trkpt lat="44.92817595942078" lon="9.74530022900849"><ele>109.99999999999999</ele><time>2026-05-01T12:16:47.999Z</time></trkpt><trkpt lat="44.928135014741706" lon="9.745368992384321"><ele>110.0</ele><time>2026-05-01T12:16:48.999Z</time></trkpt><trkpt lat="44.928067097884615" lon="9.745381855818827"><ele>110.0</ele><time>2026-05-01T12:16:49.999Z</time></trkpt><trkpt lat="44.928000119901355" lon="9.745324938778941"><ele>110.0</ele><time>2026-05-01T12:16:50.999Z</time></trkpt><trkpt lat="44.927916842012024" lon="9.745279973247586"><ele>109.99999999999999</ele><time>2026-05-01T12:16:51.999Z</time></trkpt><trkpt lat="44.927797352141916" lon="9.745226328892642"><ele>110.0</ele><time>2026-05-01T12:16:52.999Z</time></trkpt><trkpt lat="44.92766238047523" lon="9.7451691870433"><ele>110.25</ele><time>2026-05-01T12:16:53.999Z</time></trkpt><trkpt lat="44.927537162254595" lon="9.745121201188473"><ele>110.5</ele><time>2026-05-01T12:16:54.999Z</time></trkpt><trkpt lat="44.927419266741666" lon="9.745084564741447"><ele>110.75</ele><time>2026-05-01T12:16:55.999Z</time></trkpt><trkpt lat="44.927344091314964" lon="9.745071082352279"><ele>111.0</ele><time>2026-05-01T12:16:56.999Z</time></trkpt><trkpt lat="44.927240344809746" lon="9.745172955004197"><ele>111.0</ele><time>2026-05-01T12:16:58.999Z</time></trkpt><trkpt lat="44.927192673692986" lon="9.745263931984725"><ele>111.0</ele><time>2026-05-01T12:16:59.999Z</time></trkpt><trkpt lat="44.927198115519005" lon="9.745422176520652"><ele>111.0</ele><time>2026-05-01T12:17:00.999Z</time></trkpt><trkpt lat="44.927219835355594" lon="9.745595484160514"><ele>111.0</ele><time>2026-05-01T12:17:01.999Z</time></trkpt><trkpt lat="44.92724763902494" lon="9.74579847997456"><ele>111.0</ele><time>2026-05-01T12:17:02.999Z</time></trkpt><trkpt lat="44.92726318348179" lon="9.746023658923795"><ele>111.0</ele><time>2026-05-01T12:17:03.999Z</time></trkpt><trkpt lat="44.927239973388104" lon="9.746266482168355"><ele>111.0</ele><time>2026-05-01T12:17:04.999Z</time></trkpt><trkpt lat="44.92722201554908" lon="9.746515010155406"><ele>111.33333333333334</ele><time>2026-05-01T12:17:05.999Z</time></trkpt><trkpt lat="44.92719957557828" lon="9.746770326863993"><ele>111.66666666666667</ele><time>2026-05-01T12:17:06.999Z</time></trkpt><trkpt lat="44.92717633540078" lon="9.747028859738666"><ele>112.0</ele><time>2026-05-01T12:17:07.999Z</time></trkpt><trkpt lat="44.92715363375976" lon="9.747281402015485"><ele>111.0</ele><time>2026-05-01T12:17:08.999Z</time></trkpt><trkpt lat="44.927136023555505" lon="9.747517194537412"><ele>110.0</ele><time>2026-05-01T12:17:09.999Z</time></trkpt><trkpt lat="44.927118813137916" lon="9.747748016633777"><ele>109.0</ele><time>2026-05-01T12:17:10.999Z</time></trkpt><trkpt lat="44.92710053477923" lon="9.747967218456754"><ele>109.0</ele><time>2026-05-01T12:17:11.999Z</time></trkpt><trkpt lat="44.927079839988956" lon="9.748192688283634"><ele>109.0</ele><time>2026-05-01T12:17:12.999Z</time></trkpt><trkpt lat="44.92705670419453" lon="9.74840943191848"><ele>109.0</ele><time>2026-05-01T12:17:13.999Z</time></trkpt><trkpt lat="44.927028450144235" lon="9.748626081797216"><ele>109.0</ele><time>2026-05-01T12:17:14.999Z</time></trkpt><trkpt lat="44.92699757929266" lon="9.748846770452108"><ele>109.0</ele><time>2026-05-01T12:17:15.999Z</time></trkpt><trkpt lat="44.92696558014255" lon="9.749060357065668"><ele>109.0</ele><time>2026-05-01T12:17:16.999Z</time></trkpt><trkpt lat="44.92693278700384" lon="9.749270635872737"><ele>108.33333333333334</ele><time>2026-05-01T12:17:17.999Z</time></trkpt><trkpt lat="44.92689961561995" lon="9.749487381128201"><ele>107.66666666666666</ele><time>2026-05-01T12:17:18.999Z</time></trkpt><trkpt lat="44.926865529008694" lon="9.74970036417309"><ele>107.0</ele><time>2026-05-01T12:17:19.999Z</time></trkpt><trkpt lat="44.92682274761724" lon="9.74991613419614"><ele>107.0</ele><time>2026-05-01T12:17:20.999Z</time></trkpt><trkpt lat="44.9267742261338" lon="9.750127736632724"><ele>107.0</ele><time>2026-05-01T12:17:21.999Z</time></trkpt><trkpt lat="44.92672035580851" lon="9.750339799444234"><ele>107.0</ele><time>2026-05-01T12:17:22.999Z</time></trkpt><trkpt lat="44.926662735013856" lon="9.750552705115759"><ele>107.25</ele><time>2026-05-01T12:17:23.999Z</time></trkpt><trkpt lat="44.92660564935004" lon="9.750759977547705"><ele>107.5</ele><time>2026-05-01T12:17:24.999Z</time></trkpt><trkpt lat="44.92655232428184" lon="9.750945377793874"><ele>107.75</ele><time>2026-05-01T12:17:25.999Z</time></trkpt><trkpt lat="44.926503166928065" lon="9.751115377487684"><ele>108.0</ele><time>2026-05-01T12:17:26.999Z</time></trkpt><trkpt lat="44.926458369617784" lon="9.751270298909828"><ele>108.0</ele><time>2026-05-01T12:17:27.999Z</time></trkpt><trkpt lat="44.926413626532366" lon="9.75141385390879"><ele>108.00000000000001</ele><time>2026-05-01T12:17:28.999Z</time></trkpt><trkpt lat="44.92637355222972" lon="9.751547051951169"><ele>108.00000000000001</ele><time>2026-05-01T12:17:29.999Z</time></trkpt><trkpt lat="44.92634261502411" lon="9.75167058009179"><ele>108.0</ele><time>2026-05-01T12:17:30.999Z</time></trkpt><trkpt lat="44.92631819383076" lon="9.751800814238617"><ele>108.0</ele><time>2026-05-01T12:17:31.999Z</time></trkpt><trkpt lat="44.92631525103696" lon="9.751917249890443"><ele>108.0</ele><time>2026-05-01T12:17:32.999Z</time></trkpt><trkpt lat="44.926292995178684" lon="9.752023304272182"><ele>108.0</ele><time>2026-05-01T12:17:33.999Z</time></trkpt><trkpt lat="44.926228725958374" lon="9.752164241202117"><ele>108.0</ele><time>2026-05-01T12:17:34.999Z</time></trkpt><trkpt lat="44.92618948174441" lon="9.752388369343617"><ele>108.0</ele><time>2026-05-01T12:17:35.999Z</time></trkpt><trkpt lat="44.92613853047191" lon="9.752629575891225"><ele>107.66666666666666</ele><time>2026-05-01T12:17:36.999Z</time></trkpt><trkpt lat="44.92606778518204" lon="9.752881827202208"><ele>107.33333333333333</ele><time>2026-05-01T12:17:37.999Z</time></trkpt><trkpt lat="44.92601071798438" lon="9.753135937168512"><ele>107.0</ele><time>2026-05-01T12:17:38.999Z</time></trkpt><trkpt lat="44.92595663117055" lon="9.753385654010406"><ele>107.33333333333333</ele><time>2026-05-01T12:17:39.999Z</time></trkpt><trkpt lat="44.9259010756735" lon="9.75363597115438"><ele>107.66666666666666</ele><time>2026-05-01T12:17:40.999Z</time></trkpt><trkpt lat="44.925844743018644" lon="9.753867687773896"><ele>108.0</ele><time>2026-05-01T12:17:41.999Z</time></trkpt><trkpt lat="44.92578143091048" lon="9.754087718471183"><ele>108.0</ele><time>2026-05-01T12:17:42.999Z</time></trkpt><trkpt lat="44.92570050020091" lon="9.754291761367694"><ele>108.0</ele><time>2026-05-01T12:17:43.999Z</time></trkpt><trkpt lat="44.92561417427312" lon="9.754488204990572"><ele>108.0</ele><time>2026-05-01T12:17:44.999Z</time></trkpt><trkpt lat="44.925527082657496" lon="9.754682678398877"><ele>107.66666666666666</ele><time>2026-05-01T12:17:45.999Z</time></trkpt><trkpt lat="44.925444895308026" lon="9.754869281273665"><ele>107.33333333333333</ele><time>2026-05-01T12:17:46.999Z</time></trkpt><trkpt lat="44.92536247175511" lon="9.755056421126834"><ele>107.0</ele><time>2026-05-01T12:17:47.999Z</time></trkpt><trkpt lat="44.92527890340361" lon="9.755246159755716"><ele>106.66666666666666</ele><time>2026-05-01T12:17:48.999Z</time></trkpt><trkpt lat="44.92519703119479" lon="9.755431874009604"><ele>106.33333333333334</ele><time>2026-05-01T12:17:49.999Z</time></trkpt><trkpt lat="44.92512917431803" lon="9.755633437292257"><ele>106.0</ele><time>2026-05-01T12:17:50.999Z</time></trkpt><trkpt lat="44.92504441891089" lon="9.75582987652474"><ele>106.66666666666667</ele><time>2026-05-01T12:17:51.999Z</time></trkpt><trkpt lat="44.92496042146606" lon="9.756025447845195"><ele>107.33333333333334</ele><time>2026-05-01T12:17:52.999Z</time></trkpt><trkpt lat="44.924875705177676" lon="9.75621873461104"><ele>108.0</ele><time>2026-05-01T12:17:53.999Z</time></trkpt><trkpt lat="44.92479588634607" lon="9.756412170915342"><ele>108.0</ele><time>2026-05-01T12:17:54.999Z</time></trkpt><trkpt lat="44.92470432667659" lon="9.756600676437307"><ele>108.0</ele><time>2026-05-01T12:17:55.999Z</time></trkpt><trkpt lat="44.92465413185965" lon="9.756811269656128"><ele>108.0</ele><time>2026-05-01T12:17:56.999Z</time></trkpt><trkpt lat="44.924590771671035" lon="9.757005463874913"><ele>108.0</ele><time>2026-05-01T12:17:57.999Z</time></trkpt><trkpt lat="44.92453251880713" lon="9.757173489946041"><ele>108.00000000000001</ele><time>2026-05-01T12:17:58.999Z</time></trkpt><trkpt lat="44.92445787973776" lon="9.75730954201328"><ele>108.00000000000001</ele><time>2026-05-01T12:17:59.999Z</time></trkpt><trkpt lat="44.92440810606827" lon="9.757431654160992"><ele>108.0</ele><time>2026-05-01T12:18:00.999Z</time></trkpt><trkpt lat="44.92437844118754" lon="9.75753358585274"><ele>108.0</ele><time>2026-05-01T12:18:01.999Z</time></trkpt><trkpt lat="44.92438125490808" lon="9.75762953582394"><ele>107.80000000000001</ele><time>2026-05-01T12:18:02.999Z</time></trkpt><trkpt lat="44.924387177791914" lon="9.75775057761004"><ele>107.60000000000001</ele><time>2026-05-01T12:18:03.999Z</time></trkpt><trkpt lat="44.92443378575607" lon="9.757876802205656"><ele>107.39999999999999</ele><time>2026-05-01T12:18:04.999Z</time></trkpt><trkpt lat="44.92451720213221" lon="9.757978303847748"><ele>107.19999999999999</ele><time>2026-05-01T12:18:05.999Z</time></trkpt><trkpt lat="44.92462100513668" lon="9.758062228744583"><ele>107.0</ele><time>2026-05-01T12:18:06.999Z</time></trkpt><trkpt lat="44.92470123792078" lon="9.758147415907791"><ele>107.0</ele><time>2026-05-01T12:18:07.999Z</time></trkpt><trkpt lat="44.92476414863341" lon="9.758232954850644"><ele>106.99999999999999</ele><time>2026-05-01T12:18:08.999Z</time></trkpt><trkpt lat="44.924795680023855" lon="9.758356006647535"><ele>106.99999999999999</ele><time>2026-05-01T12:18:09.999Z</time></trkpt><trkpt lat="44.92473938707307" lon="9.758502718416013"><ele>107.0</ele><time>2026-05-01T12:18:10.999Z</time></trkpt><trkpt lat="44.924723279548445" lon="9.758671959603515"><ele>107.0</ele><time>2026-05-01T12:18:11.999Z</time></trkpt><trkpt lat="44.92470445203444" lon="9.75885887927671"><ele>107.0</ele><time>2026-05-01T12:18:12.999Z</time></trkpt><trkpt lat="44.92470196180011" lon="9.759063384757026"><ele>107.0</ele><time>2026-05-01T12:18:13.999Z</time></trkpt><trkpt lat="44.924715591587216" lon="9.759239511145225"><ele>107.0</ele><time>2026-05-01T12:18:14.999Z</time></trkpt><trkpt lat="44.924744206511264" lon="9.759420317942201"><ele>107.0</ele><time>2026-05-01T12:18:15.999Z</time></trkpt><trkpt lat="44.92474405793986" lon="9.759597819877602"><ele>107.0</ele><time>2026-05-01T12:18:16.999Z</time></trkpt><trkpt lat="44.92474265613224" lon="9.759774813841258"><ele>107.0</ele><time>2026-05-01T12:18:17.999Z</time></trkpt><trkpt lat="44.92474149921119" lon="9.759975480033193"><ele>107.0</ele><time>2026-05-01T12:18:18.999Z</time></trkpt><trkpt lat="44.92474035256898" lon="9.760174363273663"><ele>107.0</ele><time>2026-05-01T12:18:19.999Z</time></trkpt><trkpt lat="44.924734339277876" lon="9.760361228978928"><ele>106.75</ele><time>2026-05-01T12:18:20.999Z</time></trkpt><trkpt lat="44.924726620162005" lon="9.760545022983084"><ele>106.5</ele><time>2026-05-01T12:18:21.999Z</time></trkpt><trkpt lat="44.92472702284595" lon="9.760723400615174"><ele>106.25</ele><time>2026-05-01T12:18:22.999Z</time></trkpt><trkpt lat="44.924714867872254" lon="9.760898430205591"><ele>106.0</ele><time>2026-05-01T12:18:23.999Z</time></trkpt><trkpt lat="44.924690004162876" lon="9.761038922204428"><ele>105.83333333333334</ele><time>2026-05-01T12:18:24.999Z</time></trkpt><trkpt lat="44.924686906295015" lon="9.761172038352498"><ele>105.66666666666667</ele><time>2026-05-01T12:18:25.999Z</time></trkpt><trkpt lat="44.92467325963014" lon="9.76125979086358"><ele>105.5</ele><time>2026-05-01T12:18:26.999Z</time></trkpt><trkpt lat="44.92464804579488" lon="9.761390987680702"><ele>105.33333333333334</ele><time>2026-05-01T12:18:28.999Z</time></trkpt><trkpt lat="44.924627127173004" lon="9.761482221492093"><ele>105.16666666666667</ele><time>2026-05-01T12:18:48.999Z</time></trkpt><trkpt lat="44.9245865720446" lon="9.761575851147603"><ele>105.0</ele><time>2026-05-01T12:19:01.999Z</time></trkpt><trkpt lat="44.92459699723511" lon="9.761668159447341"><ele>105.0</ele><time>2026-05-01T12:19:07.999Z</time></trkpt><trkpt lat="44.924581917258124" lon="9.76183578274234"><ele>105.0</ele><time>2026-05-01T12:19:09.999Z</time></trkpt><trkpt lat="44.92457158260512" lon="9.761926486811236"><ele>105.0</ele><time>2026-05-01T12:19:10.999Z</time></trkpt><trkpt lat="44.92451542265151" lon="9.761983254216293"><ele>105.0</ele><time>2026-05-01T12:19:11.999Z</time></trkpt><trkpt lat="44.92449292243012" lon="9.762079221613511"><ele>105.0</ele><time>2026-05-01T12:19:12.999Z</time></trkpt><trkpt lat="44.92445783745271" lon="9.762198106351251"><ele>105.0</ele><time>2026-05-01T12:19:13.999Z</time></trkpt><trkpt lat="44.92442437651235" lon="9.76228439914379"><ele>104.8</ele><time>2026-05-01T12:19:14.999Z</time></trkpt><trkpt lat="44.924366921572215" lon="9.762471786007872"><ele>104.6</ele><time>2026-05-01T12:19:16.999Z</time></trkpt><trkpt lat="44.92434310310774" lon="9.76257175151998"><ele>104.4</ele><time>2026-05-01T12:19:17.999Z</time></trkpt><trkpt lat="44.92432579679629" lon="9.762717251019009"><ele>104.2</ele><time>2026-05-01T12:19:19.999Z</time></trkpt><trkpt lat="44.92442124098928" lon="9.762779227130915"><ele>104.0</ele><time>2026-05-01T12:19:40.999Z</time></trkpt><trkpt lat="44.92438822900296" lon="9.762697792665172"><ele>104.33333333333333</ele><time>2026-05-01T12:25:37Z</time></trkpt><trkpt lat="44.924340293619686" lon="9.76280046582218"><ele>104.66666666666666</ele><time>2026-05-01T12:25:41Z</time></trkpt><trkpt lat="44.924309643740024" lon="9.762919132053014"><ele>105.0</ele><time>2026-05-01T12:25:44Z</time></trkpt><trkpt lat="44.9242818602123" lon="9.763000560596195"><ele>105.33333333333334</ele><time>2026-05-01T12:26:13Z</time></trkpt><trkpt lat="44.92425116181899" lon="9.763078989031873"><ele>105.66666666666667</ele><time>2026-05-01T12:26:14Z</time></trkpt><trkpt lat="44.924217890487974" lon="9.763183280695053"><ele>106.0</ele><time>2026-05-01T12:26:16Z</time></trkpt><trkpt lat="44.92420345305039" lon="9.763285152506263"><ele>106.00000000000001</ele><time>2026-05-01T12:26:35Z</time></trkpt><trkpt lat="44.92412894756238" lon="9.763351526849352"><ele>106.0</ele><time>2026-05-01T12:26:37Z</time></trkpt><trkpt lat="44.924067950616816" lon="9.763427369830934"><ele>106.0</ele><time>2026-05-01T12:26:38Z</time></trkpt><trkpt lat="44.9240169322847" lon="9.763501910919388"><ele>106.0</ele><time>2026-05-01T12:26:40Z</time></trkpt><trkpt lat="44.923953185908054" lon="9.76357012167319"><ele>106.00000000000001</ele><time>2026-05-01T12:26:42Z</time></trkpt><trkpt lat="44.923922901533" lon="9.763679100662687"><ele>106.0</ele><time>2026-05-01T12:26:45Z</time></trkpt><trkpt lat="44.923986308089674" lon="9.763560094419468"><ele>106.00000000000001</ele><time>2026-05-01T12:26:52Z</time></trkpt><trkpt lat="44.92404241478493" lon="9.76346957025711"><ele>106.0</ele><time>2026-05-01T12:26:53Z</time></trkpt><trkpt lat="44.924074292079546" lon="9.76336590088841"><ele>106.0</ele><time>2026-05-01T12:26:55Z</time></trkpt><trkpt lat="44.92413091884365" lon="9.763312683127737"><ele>106.0</ele><time>2026-05-01T12:30:21Z</time></trkpt><trkpt lat="44.92406552093839" lon="9.763371878947153"><ele>106.00000000000001</ele><time>2026-05-01T12:30:27Z</time></trkpt><trkpt lat="44.92406571055221" lon="9.763476593394794"><ele>106.0</ele><time>2026-05-01T12:30:29Z</time></trkpt><trkpt lat="44.924012718860716" lon="9.763631144729672"><ele>106.0</ele><time>2026-05-01T12:30:31Z</time></trkpt><trkpt lat="44.923965193124715" lon="9.763754274153996"><ele>106.0</ele><time>2026-05-01T12:30:32Z</time></trkpt><trkpt lat="44.92393302287558" lon="9.763889777580566"><ele>106.0</ele><time>2026-05-01T12:30:33Z</time></trkpt><trkpt lat="44.9239061415438" lon="9.764065719616369"><ele>106.0</ele><time>2026-05-01T12:30:34Z</time></trkpt><trkpt lat="44.92387455237396" lon="9.764284722499472"><ele>105.33333333333334</ele><time>2026-05-01T12:30:35Z</time></trkpt><trkpt lat="44.9238363279787" lon="9.764515750074947"><ele>104.66666666666666</ele><time>2026-05-01T12:30:36Z</time></trkpt><trkpt lat="44.92379704503443" lon="9.764752169649903"><ele>104.0</ele><time>2026-05-01T12:30:37Z</time></trkpt><trkpt lat="44.92373795020297" lon="9.76499852426323"><ele>103.66666666666666</ele><time>2026-05-01T12:30:38Z</time></trkpt><trkpt lat="44.923689727103756" lon="9.765264170003887"><ele>103.33333333333334</ele><time>2026-05-01T12:30:39Z</time></trkpt><trkpt lat="44.92363948331639" lon="9.765538912078764"><ele>103.0</ele><time>2026-05-01T12:30:40Z</time></trkpt><trkpt lat="44.9235881974178" lon="9.765812637394088"><ele>103.33333333333334</ele><time>2026-05-01T12:30:41Z</time></trkpt><trkpt lat="44.9235312343799" lon="9.766086883261945"><ele>103.66666666666666</ele><time>2026-05-01T12:30:42Z</time></trkpt><trkpt lat="44.92347611271952" lon="9.766350361813227"><ele>104.0</ele><time>2026-05-01T12:30:43Z</time></trkpt><trkpt lat="44.92342171675561" lon="9.766612465469024"><ele>104.0</ele><time>2026-05-01T12:30:44Z</time></trkpt><trkpt lat="44.92337334273073" lon="9.766867533387849"><ele>104.0</ele><time>2026-05-01T12:30:45Z</time></trkpt><trkpt lat="44.923332664947296" lon="9.767109032198327"><ele>104.0</ele><time>2026-05-01T12:30:46Z</time></trkpt><trkpt lat="44.92329412513288" lon="9.767356881832567"><ele>104.0</ele><time>2026-05-01T12:30:47Z</time></trkpt><trkpt lat="44.92325467281766" lon="9.767609959479861"><ele>104.0</ele><time>2026-05-01T12:30:48Z</time></trkpt><trkpt lat="44.92321278161052" lon="9.767863485631615"><ele>104.0</ele><time>2026-05-01T12:30:49Z</time></trkpt><trkpt lat="44.92317183253831" lon="9.768118821921503"><ele>104.0</ele><time>2026-05-01T12:30:50Z</time></trkpt><trkpt lat="44.923137386220425" lon="9.768377228579944"><ele>104.0</ele><time>2026-05-01T12:30:51Z</time></trkpt><trkpt lat="44.92310898226624" lon="9.76859969240981"><ele>104.0</ele><time>2026-05-01T12:30:52Z</time></trkpt><trkpt lat="44.923080226781316" lon="9.768799346441464"><ele>104.0</ele><time>2026-05-01T12:30:53Z</time></trkpt><trkpt lat="44.92304606274034" lon="9.76897820967657"><ele>104.0</ele><time>2026-05-01T12:30:54Z</time></trkpt><trkpt lat="44.92301241163402" lon="9.76913981825277"><ele>104.0</ele><time>2026-05-01T12:30:55Z</time></trkpt><trkpt lat="44.922977405491544" lon="9.769306091357555"><ele>104.0</ele><time>2026-05-01T12:30:56Z</time></trkpt><trkpt lat="44.92293450401688" lon="9.76950986637101"><ele>104.33333333333333</ele><time>2026-05-01T12:30:57Z</time></trkpt><trkpt lat="44.922887042592365" lon="9.769734520961721"><ele>104.66666666666666</ele><time>2026-05-01T12:30:58Z</time></trkpt><trkpt lat="44.92283732259614" lon="9.76996669481644"><ele>105.0</ele><time>2026-05-01T12:30:59Z</time></trkpt><trkpt lat="44.92278832608268" lon="9.77019549030855"><ele>105.0</ele><time>2026-05-01T12:31:00Z</time></trkpt><trkpt lat="44.92273731639986" lon="9.770433543790698"><ele>105.0</ele><time>2026-05-01T12:31:01Z</time></trkpt><trkpt lat="44.92268791133204" lon="9.770660239784315"><ele>105.0</ele><time>2026-05-01T12:31:02Z</time></trkpt><trkpt lat="44.92264473237769" lon="9.770859952359045"><ele>104.75</ele><time>2026-05-01T12:31:03Z</time></trkpt><trkpt lat="44.92260227295325" lon="9.771064132005323"><ele>104.5</ele><time>2026-05-01T12:31:04Z</time></trkpt><trkpt lat="44.922563847240106" lon="9.771258552536226"><ele>104.25</ele><time>2026-05-01T12:31:05Z</time></trkpt><trkpt lat="44.922529316806774" lon="9.771437514735336"><ele>104.0</ele><time>2026-05-01T12:31:06Z</time></trkpt><trkpt lat="44.92250119074087" lon="9.771585679471649"><ele>103.99999999999999</ele><time>2026-05-01T12:31:07Z</time></trkpt><trkpt lat="44.92247985025192" lon="9.77170859550189"><ele>104.0</ele><time>2026-05-01T12:31:08Z</time></trkpt><trkpt lat="44.92246544418691" lon="9.771801855776282"><ele>104.0</ele><time>2026-05-01T12:31:09Z</time></trkpt><trkpt lat="44.92244533413399" lon="9.771941891878056"><ele>104.0</ele><time>2026-05-01T12:31:11Z</time></trkpt><trkpt lat="44.92243072967192" lon="9.7720483678337"><ele>103.99999999999999</ele><time>2026-05-01T12:31:12Z</time></trkpt><trkpt lat="44.92241865243951" lon="9.772142623165507"><ele>104.0</ele><time>2026-05-01T12:31:13Z</time></trkpt><trkpt lat="44.92239606322155" lon="9.772318918676307"><ele>104.0</ele><time>2026-05-01T12:31:14Z</time></trkpt><trkpt lat="44.92237953657883" lon="9.772462770179438"><ele>104.0</ele><time>2026-05-01T12:31:15Z</time></trkpt><trkpt lat="44.922365774919896" lon="9.772583589328647"><ele>104.0</ele><time>2026-05-01T12:31:16Z</time></trkpt><trkpt lat="44.92235246307563" lon="9.772699653966832"><ele>104.0</ele><time>2026-05-01T12:31:17Z</time></trkpt><trkpt lat="44.922333633329046" lon="9.77285494551805"><ele>104.0</ele><time>2026-05-01T12:31:18Z</time></trkpt><trkpt lat="44.92231114314929" lon="9.773040424830647"><ele>103.75</ele><time>2026-05-01T12:31:19Z</time></trkpt><trkpt lat="44.92228854671497" lon="9.77323350631838"><ele>103.5</ele><time>2026-05-01T12:31:20Z</time></trkpt><trkpt lat="44.922266893703984" lon="9.773423089397856"><ele>103.25</ele><time>2026-05-01T12:31:21Z</time></trkpt><trkpt lat="44.922243843938055" lon="9.773609992687"><ele>103.0</ele><time>2026-05-01T12:31:22Z</time></trkpt><trkpt lat="44.922229206125714" lon="9.773806752433638"><ele>103.0</ele><time>2026-05-01T12:31:23Z</time></trkpt><trkpt lat="44.92217073855351" lon="9.774026257858946"><ele>103.0</ele><time>2026-05-01T12:31:24Z</time></trkpt><trkpt lat="44.92212458490305" lon="9.774248024665537"><ele>103.0</ele><time>2026-05-01T12:31:25Z</time></trkpt><trkpt lat="44.92207928054056" lon="9.77444019878277"><ele>103.0</ele><time>2026-05-01T12:31:26Z</time></trkpt><trkpt lat="44.92203003340717" lon="9.774619322528265"><ele>103.0</ele><time>2026-05-01T12:31:27Z</time></trkpt><trkpt lat="44.9219713729077" lon="9.77475692923166"><ele>103.0</ele><time>2026-05-01T12:31:28Z</time></trkpt><trkpt lat="44.92189944887698" lon="9.774880869499903"><ele>103.0</ele><time>2026-05-01T12:31:29Z</time></trkpt><trkpt lat="44.92181316537408" lon="9.775017699138466"><ele>102.75</ele><time>2026-05-01T12:31:30Z</time></trkpt><trkpt lat="44.92172330458343" lon="9.77514282871651"><ele>102.5</ele><time>2026-05-01T12:31:31Z</time></trkpt><trkpt lat="44.92162681723135" lon="9.775248228191565"><ele>102.25</ele><time>2026-05-01T12:31:32Z</time></trkpt><trkpt lat="44.92153469646192" lon="9.775348113822082"><ele>102.0</ele><time>2026-05-01T12:31:33Z</time></trkpt><trkpt lat="44.921455710393474" lon="9.77544697633184"><ele>102.5</ele><time>2026-05-01T12:31:34Z</time></trkpt><trkpt lat="44.92137384358309" lon="9.775568107754134"><ele>103.0</ele><time>2026-05-01T12:31:35Z</time></trkpt><trkpt lat="44.92132328262519" lon="9.775709022052592"><ele>103.5</ele><time>2026-05-01T12:31:36Z</time></trkpt><trkpt lat="44.92127082158431" lon="9.775857417730895"><ele>104.0</ele><time>2026-05-01T12:31:37Z</time></trkpt><trkpt lat="44.9212329127966" lon="9.77601514027127"><ele>103.5</ele><time>2026-05-01T12:31:38Z</time></trkpt><trkpt lat="44.92119102431597" lon="9.776192662747816"><ele>103.0</ele><time>2026-05-01T12:31:39Z</time></trkpt><trkpt lat="44.92113332350518" lon="9.776351815995325"><ele>102.5</ele><time>2026-05-01T12:31:40Z</time></trkpt><trkpt lat="44.921089312118966" lon="9.776507347448307"><ele>102.0</ele><time>2026-05-01T12:31:41Z</time></trkpt><trkpt lat="44.921043760385004" lon="9.776656754989112"><ele>102.0</ele><time>2026-05-01T12:31:42Z</time></trkpt><trkpt lat="44.92098844369043" lon="9.776794974470992"><ele>102.0</ele><time>2026-05-01T12:31:43Z</time></trkpt><trkpt lat="44.920927125536345" lon="9.776925951699285"><ele>102.0</ele><time>2026-05-01T12:31:44Z</time></trkpt><trkpt lat="44.92086884928416" lon="9.777036453938907"><ele>102.0</ele><time>2026-05-01T12:31:45Z</time></trkpt><trkpt lat="44.920808275168916" lon="9.77713591459315"><ele>102.0</ele><time>2026-05-01T12:31:46Z</time></trkpt><trkpt lat="44.92073461498158" lon="9.77723989890743"><ele>103.0</ele><time>2026-05-01T12:31:47Z</time></trkpt><trkpt lat="44.920660853604886" lon="9.777347920292698"><ele>104.0</ele><time>2026-05-01T12:31:48Z</time></trkpt><trkpt lat="44.92058819475866" lon="9.777473571164403"><ele>105.0</ele><time>2026-05-01T12:31:49Z</time></trkpt><trkpt lat="44.92053303086663" lon="9.777612782805155"><ele>106.0</ele><time>2026-05-01T12:31:50Z</time></trkpt><trkpt lat="44.920489408661936" lon="9.77776559259574"><ele>106.0</ele><time>2026-05-01T12:31:51Z</time></trkpt><trkpt lat="44.920420624961906" lon="9.777899662668956"><ele>106.0</ele><time>2026-05-01T12:31:52Z</time></trkpt><trkpt lat="44.9203581892056" lon="9.778022540434563"><ele>106.0</ele><time>2026-05-01T12:31:53Z</time></trkpt><trkpt lat="44.92028832021207" lon="9.778100004256464"><ele>106.0</ele><time>2026-05-01T12:31:54Z</time></trkpt><trkpt lat="44.9202107989959" lon="9.77817807578722"><ele>106.0</ele><time>2026-05-01T12:31:55Z</time></trkpt><trkpt lat="44.92011302383343" lon="9.778292610737155"><ele>106.16666666666667</ele><time>2026-05-01T12:31:56Z</time></trkpt><trkpt lat="44.920044460111185" lon="9.77837836326841"><ele>106.33333333333334</ele><time>2026-05-01T12:31:57Z</time></trkpt><trkpt lat="44.91998382286566" lon="9.778490372035842"><ele>106.5</ele><time>2026-05-01T12:31:58Z</time></trkpt><trkpt lat="44.919940510586116" lon="9.778588560939921"><ele>106.66666666666666</ele><time>2026-05-01T12:31:59Z</time></trkpt><trkpt lat="44.9199024186213" lon="9.778681942403008"><ele>106.83333333333333</ele><time>2026-05-01T12:32:00Z</time></trkpt><trkpt lat="44.919868346219715" lon="9.778765011457585"><ele>107.0</ele><time>2026-05-01T12:32:01Z</time></trkpt><trkpt lat="44.91983458460599" lon="9.778842617484294"><ele>106.99999999999999</ele><time>2026-05-01T12:32:02Z</time></trkpt><trkpt lat="44.91978016802811" lon="9.778967702105197"><ele>107.0</ele><time>2026-05-01T12:32:04Z</time></trkpt><trkpt lat="44.91972966413317" lon="9.779027014026692"><ele>107.0</ele><time>2026-05-01T12:32:11Z</time></trkpt><trkpt lat="44.919678368505416" lon="9.779135842451119"><ele>107.0</ele><time>2026-05-01T12:32:13Z</time></trkpt><trkpt lat="44.91965434087101" lon="9.77927801504999"><ele>106.99999999999999</ele><time>2026-05-01T12:32:15Z</time></trkpt><trkpt lat="44.919619640693185" lon="9.77937489289789"><ele>107.0</ele><time>2026-05-01T12:32:16Z</time></trkpt><trkpt lat="44.91957777297406" lon="9.779491781345017"><ele>107.0</ele><time>2026-05-01T12:32:17Z</time></trkpt><trkpt lat="44.91954071139606" lon="9.779607271607103"><ele>107.0</ele><time>2026-05-01T12:32:18Z</time></trkpt><trkpt lat="44.91917402954314" lon="9.779488825145759"><ele>106.99999999999999</ele><time>2026-05-01T12:32:19Z</time></trkpt><trkpt lat="44.91911288197659" lon="9.779537851894357"><ele>107.0</ele><time>2026-05-01T12:32:20Z</time></trkpt><trkpt lat="44.919007318393795" lon="9.779592586130516"><ele>107.0</ele><time>2026-05-01T12:32:22Z</time></trkpt><trkpt lat="44.91891689159262" lon="9.779532725050306"><ele>107.0</ele><time>2026-05-01T12:32:24Z</time></trkpt><trkpt lat="44.91885469934324" lon="9.779509962887042"><ele>106.99999999999999</ele><time>2026-05-01T12:32:28Z</time></trkpt><trkpt lat="44.918948603088516" lon="9.779538544758319"><ele>107.0</ele><time>2026-05-01T12:33:16Z</time></trkpt><trkpt lat="44.919015357286945" lon="9.779539663211587"><ele>107.0</ele><time>2026-05-01T12:33:17Z</time></trkpt><trkpt lat="44.919088026592995" lon="9.77954368659868"><ele>106.99999999999999</ele><time>2026-05-01T12:33:18Z</time></trkpt><trkpt lat="44.91918499003211" lon="9.779486480996464"><ele>106.99999999999999</ele><time>2026-05-01T12:33:20Z</time></trkpt><trkpt lat="44.919288648392524" lon="9.779356541544715"><ele>107.0</ele><time>2026-05-01T12:33:22Z</time></trkpt><trkpt lat="44.919367034019366" lon="9.77926331099234"><ele>107.0</ele><time>2026-05-01T12:33:23Z</time></trkpt><trkpt lat="44.91944892414675" lon="9.77917978313346"><ele>106.99999999999999</ele><time>2026-05-01T12:33:24Z</time></trkpt><trkpt lat="44.91952397935077" lon="9.779106894161533"><ele>107.0</ele><time>2026-05-01T12:33:25Z</time></trkpt><trkpt lat="44.91959034098806" lon="9.779048576845812"><ele>107.0</ele><time>2026-05-01T12:33:26Z</time></trkpt><trkpt lat="44.919654302753564" lon="9.779010853211805"><ele>107.0</ele><time>2026-05-01T12:33:27Z</time></trkpt><trkpt lat="44.91971650284023" lon="9.778982033181789"><ele>106.99999999999999</ele><time>2026-05-01T12:33:28Z</time></trkpt><trkpt lat="44.919806042595226" lon="9.778983182046643"><ele>107.0</ele><time>2026-05-01T12:33:30Z</time></trkpt><trkpt lat="44.919896558105705" lon="9.778943812718996"><ele>106.99999999999999</ele><time>2026-05-01T12:33:47.999Z</time></trkpt><trkpt lat="44.919943795217925" lon="9.779005913731023"><ele>107.0</ele><time>2026-05-01T12:33:49.999Z</time></trkpt><trkpt lat="44.9200231104047" lon="9.779135507558266"><ele>107.0</ele><time>2026-05-01T12:33:51.999Z</time></trkpt><trkpt lat="44.92007977173002" lon="9.779221535460746"><ele>107.0</ele><time>2026-05-01T12:33:52.999Z</time></trkpt><trkpt lat="44.9201456929609" lon="9.779292461334967"><ele>106.99999999999999</ele><time>2026-05-01T12:33:53.999Z</time></trkpt><trkpt lat="44.92021300682119" lon="9.779361264987987"><ele>107.0</ele><time>2026-05-01T12:33:54.999Z</time></trkpt><trkpt lat="44.92026365138053" lon="9.779424644865063"><ele>106.6</ele><time>2026-05-01T12:33:55.999Z</time></trkpt><trkpt lat="44.92034866851348" lon="9.779531695440989"><ele>106.19999999999999</ele><time>2026-05-01T12:33:57.999Z</time></trkpt><trkpt lat="44.92039695792805" lon="9.779589441733341"><ele>105.8</ele><time>2026-05-01T12:33:58.999Z</time></trkpt><trkpt lat="44.92044268178747" lon="9.779653367263549"><ele>105.4</ele><time>2026-05-01T12:33:59.999Z</time></trkpt><trkpt lat="44.9205227626989" lon="9.779760895277867"><ele>105.0</ele><time>2026-05-01T12:34:01.999Z</time></trkpt><trkpt lat="44.920599215439296" lon="9.779875537136919"><ele>105.0</ele><time>2026-05-01T12:34:03.999Z</time></trkpt><trkpt lat="44.92064937740634" lon="9.779960044045103"><ele>105.0</ele><time>2026-05-01T12:34:05.999Z</time></trkpt><trkpt lat="44.92068242432033" lon="9.779877174156098"><ele>105.0</ele><time>2026-05-01T12:34:30.999Z</time></trkpt><trkpt lat="44.9206024675142" lon="9.779792257837107"><ele>105.0</ele><time>2026-05-01T12:34:33.999Z</time></trkpt><trkpt lat="44.920547386738214" lon="9.77973706416115"><ele>105.0</ele><time>2026-05-01T12:34:34.999Z</time></trkpt><trkpt lat="44.920478036817116" lon="9.779674898723236"><ele>105.0</ele><time>2026-05-01T12:34:35.999Z</time></trkpt><trkpt lat="44.92039387498174" lon="9.779596077837338"><ele>105.0</ele><time>2026-05-01T12:34:36.999Z</time></trkpt><trkpt lat="44.92031230849393" lon="9.779500609862444"><ele>105.0</ele><time>2026-05-01T12:34:37.999Z</time></trkpt><trkpt lat="44.92023986125288" lon="9.779411986874383"><ele>105.0</ele><time>2026-05-01T12:34:38.999Z</time></trkpt><trkpt lat="44.92018024203455" lon="9.779335210704488"><ele>105.0</ele><time>2026-05-01T12:34:39.999Z</time></trkpt><trkpt lat="44.920129284081675" lon="9.779266124537312"><ele>105.0</ele><time>2026-05-01T12:34:40.999Z</time></trkpt><trkpt lat="44.920039612861665" lon="9.779164991235156"><ele>105.4</ele><time>2026-05-01T12:34:42.999Z</time></trkpt><trkpt lat="44.91996336624143" lon="9.77907092098833"><ele>105.8</ele><time>2026-05-01T12:34:44.999Z</time></trkpt><trkpt lat="44.91987839348847" lon="9.778986959499074"><ele>106.19999999999999</ele><time>2026-05-01T12:34:46.999Z</time></trkpt><trkpt lat="44.91981825738144" lon="9.778957489504538"><ele>106.6</ele><time>2026-05-01T12:34:49.999Z</time></trkpt><trkpt lat="44.91983261835262" lon="9.778855174377071"><ele>107.0</ele><time>2026-05-01T12:35:48.999Z</time></trkpt><trkpt lat="44.9199144486526" lon="9.778689053951528"><ele>107.0</ele><time>2026-05-01T12:35:50.999Z</time></trkpt><trkpt lat="44.91997505510463" lon="9.77857605925666"><ele>106.99999999999999</ele><time>2026-05-01T12:35:51.999Z</time></trkpt><trkpt lat="44.92003972246232" lon="9.778445268433126"><ele>106.99999999999999</ele><time>2026-05-01T12:35:52.999Z</time></trkpt><trkpt lat="44.92012861802491" lon="9.778335796170568"><ele>107.0</ele><time>2026-05-01T12:35:53.999Z</time></trkpt><trkpt lat="44.920210092009285" lon="9.778237791061825"><ele>107.0</ele><time>2026-05-01T12:35:54.999Z</time></trkpt><trkpt lat="44.92028980789158" lon="9.778152886826039"><ele>106.8</ele><time>2026-05-01T12:35:55.999Z</time></trkpt><trkpt lat="44.92037657629349" lon="9.778055679155521"><ele>106.6</ele><time>2026-05-01T12:35:56.999Z</time></trkpt><trkpt lat="44.920436763190935" lon="9.777915439881589"><ele>106.39999999999999</ele><time>2026-05-01T12:35:57.999Z</time></trkpt><trkpt lat="44.92050000279132" lon="9.777790305339083"><ele>106.19999999999999</ele><time>2026-05-01T12:35:58.999Z</time></trkpt><trkpt lat="44.920556587557144" lon="9.777662592100478"><ele>106.0</ele><time>2026-05-01T12:35:59.999Z</time></trkpt><trkpt lat="44.92060690377504" lon="9.77752047088988"><ele>106.0</ele><time>2026-05-01T12:36:00.999Z</time></trkpt><trkpt lat="44.92066932300002" lon="9.77738291919023"><ele>106.0</ele><time>2026-05-01T12:36:01.999Z</time></trkpt><trkpt lat="44.920757429774916" lon="9.77727411349766"><ele>106.0</ele><time>2026-05-01T12:36:02.999Z</time></trkpt><trkpt lat="44.92083865791164" lon="9.777158114865388"><ele>106.0</ele><time>2026-05-01T12:36:03.999Z</time></trkpt><trkpt lat="44.92091261266621" lon="9.777033500859549"><ele>105.0</ele><time>2026-05-01T12:36:04.999Z</time></trkpt><trkpt lat="44.920971465979676" lon="9.776885542473064"><ele>104.0</ele><time>2026-05-01T12:36:05.999Z</time></trkpt><trkpt lat="44.9210378319993" lon="9.776743551296315"><ele>103.0</ele><time>2026-05-01T12:36:06.999Z</time></trkpt><trkpt lat="44.921087270429354" lon="9.776589305540195"><ele>102.0</ele><time>2026-05-01T12:36:07.999Z</time></trkpt><trkpt lat="44.921146614010595" lon="9.776434202530773"><ele>102.0</ele><time>2026-05-01T12:36:08.999Z</time></trkpt><trkpt lat="44.92117805692392" lon="9.776261887110316"><ele>102.0</ele><time>2026-05-01T12:36:09.999Z</time></trkpt><trkpt lat="44.921225430529496" lon="9.77610960631479"><ele>102.0</ele><time>2026-05-01T12:36:10.999Z</time></trkpt><trkpt lat="44.92126729125977" lon="9.775949452953586"><ele>102.0</ele><time>2026-05-01T12:36:11.999Z</time></trkpt><trkpt lat="44.92130833307737" lon="9.775784866271058"><ele>102.5</ele><time>2026-05-01T12:36:12.999Z</time></trkpt><trkpt lat="44.92137791799792" lon="9.775643349743389"><ele>103.0</ele><time>2026-05-01T12:36:13.999Z</time></trkpt><trkpt lat="44.92144830574547" lon="9.775517307441383"><ele>103.5</ele><time>2026-05-01T12:36:14.999Z</time></trkpt><trkpt lat="44.92153572949247" lon="9.775409034579662"><ele>104.0</ele><time>2026-05-01T12:36:15.999Z</time></trkpt><trkpt lat="44.92163258589577" lon="9.77529744918597"><ele>103.75</ele><time>2026-05-01T12:36:16.999Z</time></trkpt><trkpt lat="44.92173756070224" lon="9.775160010900969"><ele>103.5</ele><time>2026-05-01T12:36:17.999Z</time></trkpt><trkpt lat="44.92184284073418" lon="9.775031266162376"><ele>103.25</ele><time>2026-05-01T12:36:18.999Z</time></trkpt><trkpt lat="44.92192826177978" lon="9.774895238116635"><ele>103.0</ele><time>2026-05-01T12:36:19.999Z</time></trkpt><trkpt lat="44.92200136362993" lon="9.774757916459185"><ele>103.0</ele><time>2026-05-01T12:36:20.999Z</time></trkpt><trkpt lat="44.92206547300321" lon="9.774605761577385"><ele>103.0</ele><time>2026-05-01T12:36:21.999Z</time></trkpt><trkpt lat="44.92212437085979" lon="9.7744305846226"><ele>103.0</ele><time>2026-05-01T12:36:23Z</time></trkpt><trkpt lat="44.922157558487484" lon="9.774237128631993"><ele>103.0</ele><time>2026-05-01T12:36:24Z</time></trkpt><trkpt lat="44.92219944979721" lon="9.77401448939454"><ele>103.0</ele><time>2026-05-01T12:36:25Z</time></trkpt><trkpt lat="44.922242552247496" lon="9.77376446141533"><ele>103.0</ele><time>2026-05-01T12:36:26Z</time></trkpt><trkpt lat="44.922276509153065" lon="9.773503267976718"><ele>103.0</ele><time>2026-05-01T12:36:27Z</time></trkpt><trkpt lat="44.9223212775781" lon="9.773242177078146"><ele>102.66666666666667</ele><time>2026-05-01T12:36:28Z</time></trkpt><trkpt lat="44.922333940164535" lon="9.77299416231835"><ele>102.33333333333334</ele><time>2026-05-01T12:36:29Z</time></trkpt><trkpt lat="44.92237812500818" lon="9.772766564561751"><ele>102.0</ele><time>2026-05-01T12:36:30Z</time></trkpt><trkpt lat="44.922403970413484" lon="9.77254428708108"><ele>102.39999999999999</ele><time>2026-05-01T12:36:31Z</time></trkpt><trkpt lat="44.92242645228463" lon="9.772346909669999"><ele>102.8</ele><time>2026-05-01T12:36:32Z</time></trkpt><trkpt lat="44.92244837492312" lon="9.772174686634568"><ele>103.2</ele><time>2026-05-01T12:36:33Z</time></trkpt><trkpt lat="44.92246527744027" lon="9.772042772644308"><ele>103.6</ele><time>2026-05-01T12:36:34Z</time></trkpt><trkpt lat="44.92247958246641" lon="9.771939839547732"><ele>104.0</ele><time>2026-05-01T12:36:35Z</time></trkpt><trkpt lat="44.92249446424196" lon="9.77183534244546"><ele>104.66666666666666</ele><time>2026-05-01T12:36:37Z</time></trkpt><trkpt lat="44.92228993370399" lon="9.771797276152341"><ele>105.33333333333334</ele><time>2026-05-01T12:36:41Z</time></trkpt><trkpt lat="44.922173982861814" lon="9.771764148097015"><ele>106.0</ele><time>2026-05-01T12:36:42Z</time></trkpt><trkpt lat="44.92203738555352" lon="9.771728833235258"><ele>106.0</ele><time>2026-05-01T12:36:43Z</time></trkpt><trkpt lat="44.92186110225683" lon="9.771700172128034"><ele>106.0</ele><time>2026-05-01T12:36:44Z</time></trkpt><trkpt lat="44.92167824602606" lon="9.771643960468207"><ele>106.0</ele><time>2026-05-01T12:36:45Z</time></trkpt><trkpt lat="44.921501676148225" lon="9.771595784881445"><ele>106.0</ele><time>2026-05-01T12:36:46Z</time></trkpt><trkpt lat="44.92134023450268" lon="9.771526017623419"><ele>106.0</ele><time>2026-05-01T12:36:47Z</time></trkpt><trkpt lat="44.92118245517952" lon="9.771481549603928"><ele>106.0</ele><time>2026-05-01T12:36:48Z</time></trkpt><trkpt lat="44.92102652413355" lon="9.77143760251531"><ele>107.0</ele><time>2026-05-01T12:36:49Z</time></trkpt><trkpt lat="44.92087243768278" lon="9.771393763356702"><ele>108.0</ele><time>2026-05-01T12:36:50Z</time></trkpt><trkpt lat="44.92071028252805" lon="9.771345110548303"><ele>109.0</ele><time>2026-05-01T12:36:51Z</time></trkpt><trkpt lat="44.9205361378725" lon="9.771292860397956"><ele>109.0</ele><time>2026-05-01T12:36:52Z</time></trkpt><trkpt lat="44.92035274614085" lon="9.771238194665477"><ele>109.0</ele><time>2026-05-01T12:36:53Z</time></trkpt><trkpt lat="44.92016395891057" lon="9.77118440496087"><ele>109.0</ele><time>2026-05-01T12:36:54Z</time></trkpt><trkpt lat="44.91998267436548" lon="9.771152000448568"><ele>109.33333333333334</ele><time>2026-05-01T12:36:55Z</time></trkpt><trkpt lat="44.91981505095424" lon="9.771099584649328"><ele>109.66666666666666</ele><time>2026-05-01T12:36:56Z</time></trkpt><trkpt lat="44.919658847691856" lon="9.771056340561312"><ele>110.0</ele><time>2026-05-01T12:36:57Z</time></trkpt><trkpt lat="44.919524501089654" lon="9.770998203027554"><ele>110.0</ele><time>2026-05-01T12:36:58Z</time></trkpt><trkpt lat="44.919401843219134" lon="9.770962376500206"><ele>110.0</ele><time>2026-05-01T12:36:59Z</time></trkpt><trkpt lat="44.9192990008432" lon="9.770932705108285"><ele>110.0</ele><time>2026-05-01T12:37:00Z</time></trkpt><trkpt lat="44.91920519843575" lon="9.77092167829643"><ele>110.0</ele><time>2026-05-01T12:37:01Z</time></trkpt><trkpt lat="44.91912477629503" lon="9.770900003193844"><ele>110.0</ele><time>2026-05-01T12:37:02Z</time></trkpt><trkpt lat="44.91903593637278" lon="9.77084106249352"><ele>109.5</ele><time>2026-05-01T12:37:04Z</time></trkpt><trkpt lat="44.918941446924585" lon="9.771017002396126"><ele>109.0</ele><time>2026-05-01T12:37:09Z</time></trkpt><trkpt lat="44.91891480016355" lon="9.7711652690851"><ele>108.5</ele><time>2026-05-01T12:37:10Z</time></trkpt><trkpt lat="44.91889291340362" lon="9.771341799055485"><ele>108.0</ele><time>2026-05-01T12:37:11Z</time></trkpt><trkpt lat="44.91885876302213" lon="9.771572426896368"><ele>107.33333333333334</ele><time>2026-05-01T12:37:12Z</time></trkpt><trkpt lat="44.91881726521883" lon="9.7718253785037"><ele>106.66666666666667</ele><time>2026-05-01T12:37:13Z</time></trkpt><trkpt lat="44.918771136419835" lon="9.772094078187381"><ele>106.0</ele><time>2026-05-01T12:37:14Z</time></trkpt><trkpt lat="44.918727059014266" lon="9.772359947249386"><ele>105.66666666666667</ele><time>2026-05-01T12:37:15Z</time></trkpt><trkpt lat="44.91868647271479" lon="9.772575122349696"><ele>105.33333333333334</ele><time>2026-05-01T12:37:16Z</time></trkpt><trkpt lat="44.91864554065314" lon="9.772807252446913"><ele>105.0</ele><time>2026-05-01T12:37:17Z</time></trkpt><trkpt lat="44.91860007472402" lon="9.773067860645316"><ele>104.66666666666666</ele><time>2026-05-01T12:37:18Z</time></trkpt><trkpt lat="44.918555420731835" lon="9.773325085796223"><ele>104.33333333333333</ele><time>2026-05-01T12:37:19Z</time></trkpt><trkpt lat="44.91850749802434" lon="9.773588395355077"><ele>104.0</ele><time>2026-05-01T12:37:20Z</time></trkpt><trkpt lat="44.91846356535611" lon="9.773857919696773"><ele>104.0</ele><time>2026-05-01T12:37:21Z</time></trkpt><trkpt lat="44.91841791679317" lon="9.77412839041681"><ele>104.0</ele><time>2026-05-01T12:37:22Z</time></trkpt><trkpt lat="44.91837227026328" lon="9.774399785736257"><ele>104.0</ele><time>2026-05-01T12:37:23Z</time></trkpt><trkpt lat="44.9183280929207" lon="9.77468156001909"><ele>105.0</ele><time>2026-05-01T12:37:24Z</time></trkpt><trkpt lat="44.91828234460927" lon="9.77497932183328"><ele>106.0</ele><time>2026-05-01T12:37:25Z</time></trkpt><trkpt lat="44.918232892081335" lon="9.775288992685626"><ele>107.0</ele><time>2026-05-01T12:37:26Z</time></trkpt><trkpt lat="44.918181353515415" lon="9.775602535692402"><ele>107.0</ele><time>2026-05-01T12:37:27Z</time></trkpt><trkpt lat="44.91812867730331" lon="9.775910508766396"><ele>107.0</ele><time>2026-05-01T12:37:28Z</time></trkpt><trkpt lat="44.91807619151911" lon="9.776209878048682"><ele>107.0</ele><time>2026-05-01T12:37:29Z</time></trkpt><trkpt lat="44.91803213065047" lon="9.776499773097143"><ele>106.66666666666666</ele><time>2026-05-01T12:37:30Z</time></trkpt><trkpt lat="44.9179803300466" lon="9.776773281961121"><ele>106.33333333333334</ele><time>2026-05-01T12:37:31Z</time></trkpt><trkpt lat="44.91792509599813" lon="9.777026065426487"><ele>106.0</ele><time>2026-05-01T12:37:32Z</time></trkpt><trkpt lat="44.91781928946006" lon="9.77721893595219"><ele>105.33333333333334</ele><time>2026-05-01T12:37:33Z</time></trkpt><trkpt lat="44.91770454945952" lon="9.777406071876841"><ele>104.66666666666666</ele><time>2026-05-01T12:37:34Z</time></trkpt><trkpt lat="44.917571242670846" lon="9.777585467976127"><ele>104.0</ele><time>2026-05-01T12:37:35Z</time></trkpt><trkpt lat="44.917426628993155" lon="9.777762266469765"><ele>106.0</ele><time>2026-05-01T12:37:36Z</time></trkpt><trkpt lat="44.91728647799254" lon="9.777933439080748"><ele>108.0</ele><time>2026-05-01T12:37:37Z</time></trkpt><trkpt lat="44.91715904703148" lon="9.77810553129276"><ele>110.0</ele><time>2026-05-01T12:37:38Z</time></trkpt><trkpt lat="44.917026436219565" lon="9.778290809718921"><ele>110.0</ele><time>2026-05-01T12:37:39Z</time></trkpt><trkpt lat="44.916912306134435" lon="9.778497487418573"><ele>110.0</ele><time>2026-05-01T12:37:40Z</time></trkpt><trkpt lat="44.91682917800585" lon="9.778728342730242"><ele>110.0</ele><time>2026-05-01T12:37:41Z</time></trkpt><trkpt lat="44.9167676806149" lon="9.778986401262543"><ele>110.33333333333333</ele><time>2026-05-01T12:37:42Z</time></trkpt><trkpt lat="44.91673361857016" lon="9.779275219764807"><ele>110.66666666666666</ele><time>2026-05-01T12:37:43Z</time></trkpt><trkpt lat="44.91668497054077" lon="9.779553114468573"><ele>111.0</ele><time>2026-05-01T12:37:44Z</time></trkpt><trkpt lat="44.91665294615514" lon="9.779791463944616"><ele>109.0</ele><time>2026-05-01T12:37:45Z</time></trkpt><trkpt lat="44.91661423621217" lon="9.780026305719428"><ele>109.0</ele><time>2026-05-01T12:37:46Z</time></trkpt><trkpt lat="44.91657480231781" lon="9.780269785890537"><ele>110.0</ele><time>2026-05-01T12:37:47Z</time></trkpt></trkseg><trkseg><trkpt lat="44.91540410884105" lon="9.786944015181726"><ele>113.0</ele><time>2026-05-01T14:05:28.015Z</time></trkpt><trkpt lat="44.91552430124198" lon="9.786923785278661"><ele>113.00000000000001</ele><time>2026-05-01T14:07:18.998Z</time></trkpt><trkpt lat="44.91563682786965" lon="9.786943291809445"><ele>113.00000000000001</ele><time>2026-05-01T14:07:20.998Z</time></trkpt><trkpt lat="44.915700265562826" lon="9.786920399023225"><ele>113.0</ele><time>2026-05-01T14:07:22.998Z</time></trkpt><trkpt lat="44.91570748795555" lon="9.786799337803567"><ele>113.0</ele><time>2026-05-01T14:07:24.998Z</time></trkpt><trkpt lat="44.91569735125912" lon="9.786699916647603"><ele>112.80000000000001</ele><time>2026-05-01T14:07:25.998Z</time></trkpt><trkpt lat="44.91568883186717" lon="9.786580412079264"><ele>112.60000000000001</ele><time>2026-05-01T14:07:26.998Z</time></trkpt><trkpt lat="44.91566058888162" lon="9.786449544483188"><ele>112.39999999999999</ele><time>2026-05-01T14:07:27.998Z</time></trkpt><trkpt lat="44.91565015427483" lon="9.786316917661862"><ele>112.19999999999999</ele><time>2026-05-01T14:07:28.998Z</time></trkpt><trkpt lat="44.915650872729564" lon="9.786187281365645"><ele>112.0</ele><time>2026-05-01T14:07:29.998Z</time></trkpt><trkpt lat="44.91567052994278" lon="9.786073453477709"><ele>112.19999999999999</ele><time>2026-05-01T14:07:30.998Z</time></trkpt><trkpt lat="44.91566337050049" lon="9.785950282037641"><ele>112.39999999999999</ele><time>2026-05-01T14:07:31.999Z</time></trkpt><trkpt lat="44.9156718270048" lon="9.785800468502272"><ele>112.60000000000001</ele><time>2026-05-01T14:07:32.999Z</time></trkpt><trkpt lat="44.91568677721344" lon="9.785706288881158"><ele>112.80000000000001</ele><time>2026-05-01T14:07:33.999Z</time></trkpt><trkpt lat="44.91568963778752" lon="9.785553392822463"><ele>113.0</ele><time>2026-05-01T14:07:35.999Z</time></trkpt><trkpt lat="44.91571685402505" lon="9.785378129154749"><ele>113.0</ele><time>2026-05-01T14:07:38.999Z</time></trkpt><trkpt lat="44.915750761625155" lon="9.785226349172305"><ele>113.00000000000001</ele><time>2026-05-01T14:07:40.999Z</time></trkpt><trkpt lat="44.915761725194244" lon="9.785110699539874"><ele>113.00000000000001</ele><time>2026-05-01T14:07:41.999Z</time></trkpt><trkpt lat="44.915780867874744" lon="9.785012840392948"><ele>113.0</ele><time>2026-05-01T14:07:42.999Z</time></trkpt><trkpt lat="44.91579921321202" lon="9.784894357967968"><ele>113.0</ele><time>2026-05-01T14:07:43.999Z</time></trkpt><trkpt lat="44.91582077039514" lon="9.784726051083327"><ele>113.0</ele><time>2026-05-01T14:07:44.999Z</time></trkpt><trkpt lat="44.9158544963891" lon="9.78451684797856"><ele>113.0</ele><time>2026-05-01T14:07:45.999Z</time></trkpt><trkpt lat="44.91589084228025" lon="9.784300119941795"><ele>113.0</ele><time>2026-05-01T14:07:46.999Z</time></trkpt><trkpt lat="44.91592641517526" lon="9.784095429366412"><ele>112.33333333333333</ele><time>2026-05-01T14:07:47.999Z</time></trkpt><trkpt lat="44.91596653888135" lon="9.783868873092336"><ele>111.66666666666666</ele><time>2026-05-01T14:07:48.999Z</time></trkpt><trkpt lat="44.91600894482569" lon="9.783632466225304"><ele>111.0</ele><time>2026-05-01T14:07:49.999Z</time></trkpt><trkpt lat="44.91605327555207" lon="9.78339631636651"><ele>111.0</ele><time>2026-05-01T14:07:50.999Z</time></trkpt><trkpt lat="44.9160953016197" lon="9.783142338791155"><ele>111.0</ele><time>2026-05-01T14:07:51.999Z</time></trkpt><trkpt lat="44.91613908871774" lon="9.78288327190966"><ele>111.0</ele><time>2026-05-01T14:07:52.999Z</time></trkpt><trkpt lat="44.916189076911145" lon="9.782608871963376"><ele>110.66666666666666</ele><time>2026-05-01T14:07:53.999Z</time></trkpt><trkpt lat="44.91624414396995" lon="9.782334056212985"><ele>110.33333333333333</ele><time>2026-05-01T14:07:54.999Z</time></trkpt><trkpt lat="44.91628948542476" lon="9.782060915817544"><ele>110.0</ele><time>2026-05-01T14:07:55.999Z</time></trkpt><trkpt lat="44.91632955458561" lon="9.78181967098312"><ele>110.0</ele><time>2026-05-01T14:07:56.999Z</time></trkpt><trkpt lat="44.91636499010159" lon="9.781605480518804"><ele>110.0</ele><time>2026-05-01T14:07:57.999Z</time></trkpt><trkpt lat="44.916399678685075" lon="9.781405027698689"><ele>110.0</ele><time>2026-05-01T14:07:58.999Z</time></trkpt><trkpt lat="44.91643528317107" lon="9.781218998083634"><ele>110.0</ele><time>2026-05-01T14:07:59.999Z</time></trkpt><trkpt lat="44.91646797060847" lon="9.781044222514737"><ele>110.0</ele><time>2026-05-01T14:08:00.999Z</time></trkpt><trkpt lat="44.916496662558785" lon="9.780882998507789"><ele>110.0</ele><time>2026-05-01T14:08:01.999Z</time></trkpt><trkpt lat="44.91652772407352" lon="9.780759544661477"><ele>110.0</ele><time>2026-05-01T14:08:02.999Z</time></trkpt><trkpt lat="44.9165453064446" lon="9.780668964533453"><ele>110.0</ele><time>2026-05-01T14:08:03.999Z</time></trkpt><trkpt lat="44.91660779834185" lon="9.780583811558973"><ele>110.0</ele><time>2026-05-01T14:08:05.999Z</time></trkpt><trkpt lat="44.91673531646516" lon="9.780673092781363"><ele>109.99999999999999</ele><time>2026-05-01T14:08:07.999Z</time></trkpt><trkpt lat="44.91677330258078" lon="9.780510315913633"><ele>110.0</ele><time>2026-05-01T14:08:09.999Z</time></trkpt><trkpt lat="44.91678795253379" lon="9.780382691933328"><ele>110.0</ele><time>2026-05-01T14:11:01.999Z</time></trkpt><trkpt lat="44.91679521789205" lon="9.780261212848322"><ele>110.0</ele><time>2026-05-01T14:11:03.999Z</time></trkpt><trkpt lat="44.91675133559453" lon="9.78018589040244"><ele>109.99999999999999</ele><time>2026-05-01T14:11:05.999Z</time></trkpt><trkpt lat="44.91668946674123" lon="9.78013749409412"><ele>110.0</ele><time>2026-05-01T14:11:07.999Z</time></trkpt><trkpt lat="44.9165657523942" lon="9.780212478209444"><ele>110.0</ele><time>2026-05-01T14:11:22.999Z</time></trkpt><trkpt lat="44.91654851524432" lon="9.780350417090844"><ele>110.0</ele><time>2026-05-01T14:11:23.999Z</time></trkpt><trkpt lat="44.91653608586054" lon="9.780502129665502"><ele>110.0</ele><time>2026-05-01T14:11:24.999Z</time></trkpt><trkpt lat="44.91651426782004" lon="9.78067937477197"><ele>110.0</ele><time>2026-05-01T14:11:25.999Z</time></trkpt><trkpt lat="44.91647964273075" lon="9.780867503168764"><ele>110.0</ele><time>2026-05-01T14:11:26.999Z</time></trkpt><trkpt lat="44.916441862921474" lon="9.781064811941418"><ele>110.0</ele><time>2026-05-01T14:11:27.999Z</time></trkpt><trkpt lat="44.91640726738052" lon="9.781263389847954"><ele>110.0</ele><time>2026-05-01T14:11:28.999Z</time></trkpt><trkpt lat="44.91637261353529" lon="9.781459235935225"><ele>110.0</ele><time>2026-05-01T14:11:29.999Z</time></trkpt><trkpt lat="44.916339209801464" lon="9.781662235163408"><ele>110.0</ele><time>2026-05-01T14:11:30.999Z</time></trkpt><trkpt lat="44.91630238072689" lon="9.78186411163699"><ele>110.0</ele><time>2026-05-01T14:11:31.999Z</time></trkpt><trkpt lat="44.916264732940505" lon="9.782061556618618"><ele>110.0</ele><time>2026-05-01T14:11:32.999Z</time></trkpt><trkpt lat="44.91622823618405" lon="9.782254439659374"><ele>110.0</ele><time>2026-05-01T14:11:33.999Z</time></trkpt><trkpt lat="44.91619773892326" lon="9.782450331459893"><ele>110.0</ele><time>2026-05-01T14:11:34.999Z</time></trkpt><trkpt lat="44.91616028937655" lon="9.782643656023616"><ele>110.0</ele><time>2026-05-01T14:11:35.999Z</time></trkpt><trkpt lat="44.91612546253251" lon="9.782834220479009"><ele>110.0</ele><time>2026-05-01T14:11:36.999Z</time></trkpt><trkpt lat="44.916092398482164" lon="9.78302226342154"><ele>110.0</ele><time>2026-05-01T14:11:37.999Z</time></trkpt><trkpt lat="44.91605813031356" lon="9.783215013159547"><ele>110.25</ele><time>2026-05-01T14:11:38.999Z</time></trkpt><trkpt lat="44.916025020707536" lon="9.783402902210593"><ele>110.5</ele><time>2026-05-01T14:11:39.999Z</time></trkpt><trkpt lat="44.91597675841494" lon="9.783581928343779"><ele>110.75</ele><time>2026-05-01T14:11:40.999Z</time></trkpt><trkpt lat="44.915960534948056" lon="9.783744590394202"><ele>111.0</ele><time>2026-05-01T14:11:41.999Z</time></trkpt><trkpt lat="44.91592324710688" lon="9.783897241675435"><ele>111.0</ele><time>2026-05-01T14:11:43Z</time></trkpt><trkpt lat="44.91588220621547" lon="9.78406397456255"><ele>111.0</ele><time>2026-05-01T14:11:44Z</time></trkpt><trkpt lat="44.91583533806201" lon="9.784239605231571"><ele>111.0</ele><time>2026-05-01T14:11:45Z</time></trkpt><trkpt lat="44.915751864070515" lon="9.78440413547021"><ele>111.0</ele><time>2026-05-01T14:11:46Z</time></trkpt><trkpt lat="44.915650240569114" lon="9.78456181963982"><ele>111.66666666666666</ele><time>2026-05-01T14:11:47Z</time></trkpt><trkpt lat="44.91553032307808" lon="9.784710306253793"><ele>112.33333333333333</ele><time>2026-05-01T14:11:48Z</time></trkpt><trkpt lat="44.91540659552478" lon="9.784859980792179"><ele>113.0</ele><time>2026-05-01T14:11:49Z</time></trkpt><trkpt lat="44.91525634227778" lon="9.78495156071262"><ele>113.0</ele><time>2026-05-01T14:11:50Z</time></trkpt><trkpt lat="44.915116414607034" lon="9.785051085152244"><ele>113.0</ele><time>2026-05-01T14:11:51Z</time></trkpt><trkpt lat="44.914985360918365" lon="9.785164773143983"><ele>113.0</ele><time>2026-05-01T14:11:52Z</time></trkpt><trkpt lat="44.91485253755945" lon="9.785255096952135"><ele>113.5</ele><time>2026-05-01T14:11:53Z</time></trkpt><trkpt lat="44.91472841022611" lon="9.785346543678694"><ele>114.0</ele><time>2026-05-01T14:11:54Z</time></trkpt><trkpt lat="44.914615203681066" lon="9.785431650714843"><ele>114.5</ele><time>2026-05-01T14:11:55Z</time></trkpt><trkpt lat="44.91452019420732" lon="9.785505802143959"><ele>115.0</ele><time>2026-05-01T14:11:56Z</time></trkpt><trkpt lat="44.91444890459773" lon="9.785548359933511"><ele>115.0</ele><time>2026-05-01T14:11:57Z</time></trkpt><trkpt lat="44.914366599107574" lon="9.785589559199153"><ele>115.0</ele><time>2026-05-01T14:11:59Z</time></trkpt><trkpt lat="44.91425783158127" lon="9.785632688082618"><ele>115.0</ele><time>2026-05-01T14:12:13Z</time></trkpt><trkpt lat="44.91417286381845" lon="9.785691434681581"><ele>115.0</ele><time>2026-05-01T14:12:14Z</time></trkpt><trkpt lat="44.914084342274144" lon="9.785760980795013"><ele>115.0</ele><time>2026-05-01T14:12:15Z</time></trkpt><trkpt lat="44.9139935889217" lon="9.78585986115335"><ele>115.0</ele><time>2026-05-01T14:12:16Z</time></trkpt><trkpt lat="44.913918806384196" lon="9.78599674549615"><ele>115.0</ele><time>2026-05-01T14:12:17Z</time></trkpt><trkpt lat="44.91386862170913" lon="9.786178009943328"><ele>115.0</ele><time>2026-05-01T14:12:18Z</time></trkpt><trkpt lat="44.91383666977163" lon="9.786388573273022"><ele>115.0</ele><time>2026-05-01T14:12:19Z</time></trkpt><trkpt lat="44.91382467482506" lon="9.786619369125326"><ele>115.66666666666667</ele><time>2026-05-01T14:12:20Z</time></trkpt><trkpt lat="44.91381400905916" lon="9.786854434295774"><ele>116.33333333333334</ele><time>2026-05-01T14:12:21Z</time></trkpt><trkpt lat="44.91379630510065" lon="9.78707783573612"><ele>117.0</ele><time>2026-05-01T14:12:22Z</time></trkpt><trkpt lat="44.91376250056843" lon="9.787304602655702"><ele>117.0</ele><time>2026-05-01T14:12:23Z</time></trkpt><trkpt lat="44.91375994279417" lon="9.787496709278889"><ele>116.99999999999999</ele><time>2026-05-01T14:12:24Z</time></trkpt><trkpt lat="44.913732133054104" lon="9.787666881638323"><ele>116.99999999999999</ele><time>2026-05-01T14:12:25Z</time></trkpt><trkpt lat="44.91371064178576" lon="9.7877901366024"><ele>117.0</ele><time>2026-05-01T14:12:26Z</time></trkpt><trkpt lat="44.91370025668829" lon="9.787916704413533"><ele>117.0</ele><time>2026-05-01T14:12:28Z</time></trkpt><trkpt lat="44.913700266191185" lon="9.788009627331952"><ele>117.0</ele><time>2026-05-01T14:12:50.999Z</time></trkpt><trkpt lat="44.91369109990759" lon="9.788119336206153"><ele>117.0</ele><time>2026-05-01T14:12:51.999Z</time></trkpt><trkpt lat="44.91367869982282" lon="9.788279794093304"><ele>117.0</ele><time>2026-05-01T14:12:52.999Z</time></trkpt><trkpt lat="44.913643403969274" lon="9.788459124243545"><ele>117.0</ele><time>2026-05-01T14:12:53.999Z</time></trkpt><trkpt lat="44.91363546340378" lon="9.788679184736663"><ele>117.0</ele><time>2026-05-01T14:12:54.999Z</time></trkpt><trkpt lat="44.913612597423125" lon="9.78891567074582"><ele>117.0</ele><time>2026-05-01T14:12:55.999Z</time></trkpt><trkpt lat="44.913571538917246" lon="9.7891595153755"><ele>117.0</ele><time>2026-05-01T14:12:56.999Z</time></trkpt><trkpt lat="44.91354680986653" lon="9.789398973925108"><ele>116.0</ele><time>2026-05-01T14:12:57.999Z</time></trkpt><trkpt lat="44.913524892814486" lon="9.789605357954745"><ele>115.0</ele><time>2026-05-01T14:12:58.999Z</time></trkpt><trkpt lat="44.913505139187905" lon="9.789791369862648"><ele>114.0</ele><time>2026-05-01T14:12:59.999Z</time></trkpt><trkpt lat="44.913501028476006" lon="9.789984414746566"><ele>113.0</ele><time>2026-05-01T14:13:00.999Z</time></trkpt><trkpt lat="44.91347455575499" lon="9.790163189010475"><ele>113.25</ele><time>2026-05-01T14:13:01.999Z</time></trkpt><trkpt lat="44.91345909703494" lon="9.790361988924465"><ele>113.5</ele><time>2026-05-01T14:13:02.999Z</time></trkpt><trkpt lat="44.9134381515875" lon="9.790541251570112"><ele>113.75</ele><time>2026-05-01T14:13:03.999Z</time></trkpt><trkpt lat="44.9134184731633" lon="9.790750487444445"><ele>114.0</ele><time>2026-05-01T14:13:04.999Z</time></trkpt><trkpt lat="44.91338533511626" lon="9.790965173632845"><ele>114.33333333333334</ele><time>2026-05-01T14:13:05.999Z</time></trkpt><trkpt lat="44.91336102549254" lon="9.791187652154363"><ele>114.66666666666667</ele><time>2026-05-01T14:13:06.999Z</time></trkpt><trkpt lat="44.91335182693375" lon="9.791405494838896"><ele>115.0</ele><time>2026-05-01T14:13:07.999Z</time></trkpt><trkpt lat="44.91332636775658" lon="9.791627009641235"><ele>114.66666666666667</ele><time>2026-05-01T14:13:08.999Z</time></trkpt><trkpt lat="44.91330105880728" lon="9.791843812693934"><ele>114.33333333333334</ele><time>2026-05-01T14:13:09.999Z</time></trkpt><trkpt lat="44.91328042561762" lon="9.79206734093041"><ele>114.0</ele><time>2026-05-01T14:13:10.999Z</time></trkpt><trkpt lat="44.91325763742124" lon="9.792294992305695"><ele>114.0</ele><time>2026-05-01T14:13:11.999Z</time></trkpt><trkpt lat="44.91323254652442" lon="9.792487111164625"><ele>114.0</ele><time>2026-05-01T14:13:12.999Z</time></trkpt><trkpt lat="44.91321749057919" lon="9.79263674407144"><ele>114.0</ele><time>2026-05-01T14:13:13.999Z</time></trkpt><trkpt lat="44.91320646006455" lon="9.79273283429332"><ele>114.0</ele><time>2026-05-01T14:13:14.999Z</time></trkpt><trkpt lat="44.91318778653586" lon="9.792853593415856"><ele>114.0</ele><time>2026-05-01T14:13:16.999Z</time></trkpt><trkpt lat="44.91315108633781" lon="9.792941952537292"><ele>114.0</ele><time>2026-05-01T14:13:19.999Z</time></trkpt><trkpt lat="44.91323969849568" lon="9.792913386768532"><ele>114.0</ele><time>2026-05-01T14:13:23.999Z</time></trkpt><trkpt lat="44.913239476479255" lon="9.792737055015035"><ele>114.0</ele><time>2026-05-01T14:13:25.999Z</time></trkpt><trkpt lat="44.91322287472684" lon="9.792634952853774"><ele>114.0</ele><time>2026-05-01T14:13:26.999Z</time></trkpt><trkpt lat="44.91317567719133" lon="9.792553334021257"><ele>114.0</ele><time>2026-05-01T14:13:27.999Z</time></trkpt><trkpt lat="44.91311159905563" lon="9.792534652793382"><ele>114.0</ele><time>2026-05-01T14:13:28.999Z</time></trkpt><trkpt lat="44.91302877315973" lon="9.792548234449132"><ele>114.0</ele><time>2026-05-01T14:13:29.999Z</time></trkpt><trkpt lat="44.91293134738823" lon="9.792564728378775"><ele>114.0</ele><time>2026-05-01T14:13:30.999Z</time></trkpt><trkpt lat="44.91281996431266" lon="9.792567028220647"><ele>114.0</ele><time>2026-05-01T14:13:31.999Z</time></trkpt><trkpt lat="44.91271021318806" lon="9.792565062454532"><ele>114.0</ele><time>2026-05-01T14:13:32.999Z</time></trkpt><trkpt lat="44.91257352069444" lon="9.792543474926438"><ele>114.5</ele><time>2026-05-01T14:13:33.999Z</time></trkpt><trkpt lat="44.91243890614035" lon="9.792542874769484"><ele>115.0</ele><time>2026-05-01T14:13:34.999Z</time></trkpt><trkpt lat="44.91229354644631" lon="9.792528968956463"><ele>115.5</ele><time>2026-05-01T14:13:35.999Z</time></trkpt><trkpt lat="44.91215714262938" lon="9.792494551402953"><ele>116.0</ele><time>2026-05-01T14:13:36.999Z</time></trkpt><trkpt lat="44.91202666199163" lon="9.792483938411912"><ele>116.0</ele><time>2026-05-01T14:13:37.999Z</time></trkpt><trkpt lat="44.91190314868162" lon="9.792473878366797"><ele>116.0</ele><time>2026-05-01T14:13:38.999Z</time></trkpt><trkpt lat="44.91177718109684" lon="9.792485307201327"><ele>116.0</ele><time>2026-05-01T14:13:39.999Z</time></trkpt><trkpt lat="44.91165635719971" lon="9.79245242615951"><ele>116.0</ele><time>2026-05-01T14:13:40.999Z</time></trkpt><trkpt lat="44.91154069904156" lon="9.792423322338754"><ele>116.0</ele><time>2026-05-01T14:13:41.999Z</time></trkpt><trkpt lat="44.911421036442405" lon="9.79242027223356"><ele>116.0</ele><time>2026-05-01T14:13:42.999Z</time></trkpt><trkpt lat="44.91129066296547" lon="9.792429600510294"><ele>116.0</ele><time>2026-05-01T14:13:43.999Z</time></trkpt><trkpt lat="44.91117194505059" lon="9.792430010514561"><ele>116.0</ele><time>2026-05-01T14:13:44.999Z</time></trkpt><trkpt lat="44.91104264624035" lon="9.792410933638372"><ele>116.5</ele><time>2026-05-01T14:13:45.999Z</time></trkpt><trkpt lat="44.910904828140495" lon="9.79238016845966"><ele>117.0</ele><time>2026-05-01T14:13:46.999Z</time></trkpt><trkpt lat="44.91077353522096" lon="9.792343847635776"><ele>117.5</ele><time>2026-05-01T14:13:47.999Z</time></trkpt><trkpt lat="44.91064143233475" lon="9.792355810109695"><ele>118.0</ele><time>2026-05-01T14:13:48.999Z</time></trkpt><trkpt lat="44.910510000896295" lon="9.7923544888337"><ele>118.0</ele><time>2026-05-01T14:13:49.999Z</time></trkpt><trkpt lat="44.91038833420288" lon="9.792350382957684"><ele>118.00000000000001</ele><time>2026-05-01T14:13:50.999Z</time></trkpt><trkpt lat="44.9102846049648" lon="9.792323041293963"><ele>118.00000000000001</ele><time>2026-05-01T14:13:51.999Z</time></trkpt><trkpt lat="44.91020179871496" lon="9.792326796436958"><ele>118.0</ele><time>2026-05-01T14:13:52.999Z</time></trkpt><trkpt lat="44.910128418614455" lon="9.79231433794751"><ele>118.0</ele><time>2026-05-01T14:13:54.999Z</time></trkpt><trkpt lat="44.9100888075998" lon="9.792529061557929"><ele>118.25</ele><time>2026-05-01T14:13:58.999Z</time></trkpt><trkpt lat="44.910051906274184" lon="9.792655255403288"><ele>118.5</ele><time>2026-05-01T14:13:59.999Z</time></trkpt><trkpt lat="44.91002505274876" lon="9.792777052215744"><ele>118.75</ele><time>2026-05-01T14:14:00.999Z</time></trkpt><trkpt lat="44.9099875542815" lon="9.792942841960949"><ele>119.0</ele><time>2026-05-01T14:14:01.999Z</time></trkpt><trkpt lat="44.90994260878401" lon="9.793139576117717"><ele>119.0</ele><time>2026-05-01T14:14:02.999Z</time></trkpt><trkpt lat="44.90989534373147" lon="9.793344595338443"><ele>119.0</ele><time>2026-05-01T14:14:03.999Z</time></trkpt><trkpt lat="44.9098448824182" lon="9.793563618753593"><ele>119.0</ele><time>2026-05-01T14:14:04.999Z</time></trkpt><trkpt lat="44.90979276958142" lon="9.793786205963608"><ele>118.33333333333333</ele><time>2026-05-01T14:14:05.999Z</time></trkpt><trkpt lat="44.90975966889354" lon="9.79402551470048"><ele>117.66666666666666</ele><time>2026-05-01T14:14:06.999Z</time></trkpt><trkpt lat="44.90970402657808" lon="9.794255697784118"><ele>117.0</ele><time>2026-05-01T14:14:07.999Z</time></trkpt><trkpt lat="44.90965107337522" lon="9.794481882107851"><ele>116.66666666666666</ele><time>2026-05-01T14:14:08.999Z</time></trkpt><trkpt lat="44.9095950098195" lon="9.794696359475076"><ele>116.33333333333333</ele><time>2026-05-01T14:14:09.999Z</time></trkpt><trkpt lat="44.90953828806924" lon="9.794905379830558"><ele>116.0</ele><time>2026-05-01T14:14:10.999Z</time></trkpt><trkpt lat="44.90948053971691" lon="9.795103813456729"><ele>115.75</ele><time>2026-05-01T14:14:11.999Z</time></trkpt><trkpt lat="44.909421258855474" lon="9.795292694859642"><ele>115.5</ele><time>2026-05-01T14:14:12.999Z</time></trkpt><trkpt lat="44.909353795327796" lon="9.795478797340753"><ele>115.25</ele><time>2026-05-01T14:14:13.999Z</time></trkpt><trkpt lat="44.90925853404312" lon="9.795635986133938"><ele>115.0</ele><time>2026-05-01T14:14:14.999Z</time></trkpt><trkpt lat="44.90918779094115" lon="9.795815249466084"><ele>115.5</ele><time>2026-05-01T14:14:15.999Z</time></trkpt><trkpt lat="44.909130647982316" lon="9.796004913093709"><ele>116.0</ele><time>2026-05-01T14:14:16.999Z</time></trkpt><trkpt lat="44.90905762593956" lon="9.796178358336114"><ele>116.5</ele><time>2026-05-01T14:14:17.999Z</time></trkpt><trkpt lat="44.90898980940421" lon="9.796355203811537"><ele>117.0</ele><time>2026-05-01T14:14:18.999Z</time></trkpt><trkpt lat="44.908913344008575" lon="9.796522279950683"><ele>117.0</ele><time>2026-05-01T14:14:19.999Z</time></trkpt><trkpt lat="44.90884816523619" lon="9.796689620389925"><ele>117.0</ele><time>2026-05-01T14:14:20.999Z</time></trkpt><trkpt lat="44.90879715596225" lon="9.796848821407313"><ele>117.0</ele><time>2026-05-01T14:14:21.999Z</time></trkpt><trkpt lat="44.90874020335257" lon="9.796991558136902"><ele>117.0</ele><time>2026-05-01T14:14:22.999Z</time></trkpt><trkpt lat="44.908701924612906" lon="9.797142539215828"><ele>117.0</ele><time>2026-05-01T14:14:23.999Z</time></trkpt><trkpt lat="44.90867785021647" lon="9.797314349660816"><ele>117.0</ele><time>2026-05-01T14:14:24.999Z</time></trkpt><trkpt lat="44.90866251784396" lon="9.797503238506014"><ele>117.0</ele><time>2026-05-01T14:14:25.999Z</time></trkpt><trkpt lat="44.908643411834916" lon="9.797698496790565"><ele>117.0</ele><time>2026-05-01T14:14:26.999Z</time></trkpt><trkpt lat="44.90865730162223" lon="9.797908005678066"><ele>117.0</ele><time>2026-05-01T14:14:27.999Z</time></trkpt><trkpt lat="44.90868654604763" lon="9.798117686369924"><ele>117.0</ele><time>2026-05-01T14:14:28.999Z</time></trkpt><trkpt lat="44.90869159579705" lon="9.79829596923472"><ele>117.0</ele><time>2026-05-01T14:14:29.999Z</time></trkpt><trkpt lat="44.90870708587923" lon="9.798463884677803"><ele>117.0</ele><time>2026-05-01T14:14:30.999Z</time></trkpt><trkpt lat="44.908717846585745" lon="9.798612342110992"><ele>117.5</ele><time>2026-05-01T14:14:31.999Z</time></trkpt><trkpt lat="44.90872295314714" lon="9.798784031232216"><ele>118.0</ele><time>2026-05-01T14:14:32.999Z</time></trkpt><trkpt lat="44.90871975067163" lon="9.798965086399182"><ele>118.5</ele><time>2026-05-01T14:14:33.999Z</time></trkpt><trkpt lat="44.9087125055439" lon="9.799127570371358"><ele>119.0</ele><time>2026-05-01T14:14:34.999Z</time></trkpt><trkpt lat="44.90870388599067" lon="9.799270234800614"><ele>118.80000000000001</ele><time>2026-05-01T14:14:35.999Z</time></trkpt><trkpt lat="44.908695635623786" lon="9.799397557132183"><ele>118.60000000000001</ele><time>2026-05-01T14:14:36.999Z</time></trkpt><trkpt lat="44.90868803473262" lon="9.79951485674584"><ele>118.4</ele><time>2026-05-01T14:14:37.999Z</time></trkpt><trkpt lat="44.90867967810297" lon="9.799654648846957"><ele>118.2</ele><time>2026-05-01T14:14:38.999Z</time></trkpt><trkpt lat="44.90868661998396" lon="9.79980899259585"><ele>118.0</ele><time>2026-05-01T14:14:39.999Z</time></trkpt><trkpt lat="44.90866315744845" lon="9.799978740710404"><ele>118.0</ele><time>2026-05-01T14:14:40.999Z</time></trkpt><trkpt lat="44.90865466958123" lon="9.800153420285357"><ele>118.0</ele><time>2026-05-01T14:14:41.999Z</time></trkpt><trkpt lat="44.90864535489947" lon="9.800336462865213"><ele>118.0</ele><time>2026-05-01T14:14:42.999Z</time></trkpt><trkpt lat="44.90863413781454" lon="9.800526890120128"><ele>118.0</ele><time>2026-05-01T14:14:43.999Z</time></trkpt><trkpt lat="44.908632178467826" lon="9.800730969220071"><ele>118.0</ele><time>2026-05-01T14:14:44.999Z</time></trkpt><trkpt lat="44.90859046102439" lon="9.800923926802437"><ele>118.0</ele><time>2026-05-01T14:14:45.999Z</time></trkpt><trkpt lat="44.90856330270095" lon="9.801122447413661"><ele>118.0</ele><time>2026-05-01T14:14:46.999Z</time></trkpt><trkpt lat="44.9085349674099" lon="9.801325768813618"><ele>118.0</ele><time>2026-05-01T14:14:47.999Z</time></trkpt><trkpt lat="44.90850566886251" lon="9.801525127822424"><ele>117.75</ele><time>2026-05-01T14:14:48.999Z</time></trkpt><trkpt lat="44.90848801486175" lon="9.801729090970321"><ele>117.5</ele><time>2026-05-01T14:14:49.999Z</time></trkpt><trkpt lat="44.90845855348754" lon="9.801906093020019"><ele>117.25</ele><time>2026-05-01T14:14:50.999Z</time></trkpt><trkpt lat="44.908425287939046" lon="9.802059681246275"><ele>117.0</ele><time>2026-05-01T14:14:51.999Z</time></trkpt><trkpt lat="44.90837129365283" lon="9.802178747996013"><ele>116.6</ele><time>2026-05-01T14:14:52.999Z</time></trkpt><trkpt lat="44.908320991154454" lon="9.802269133528153"><ele>116.19999999999999</ele><time>2026-05-01T14:14:53.999Z</time></trkpt><trkpt lat="44.90824658354874" lon="9.802294149088848"><ele>115.8</ele><time>2026-05-01T14:14:54.999Z</time></trkpt><trkpt lat="44.908141731466" lon="9.802322397536173"><ele>115.4</ele><time>2026-05-01T14:14:56.999Z</time></trkpt><trkpt lat="44.90806110412077" lon="9.802243595988674"><ele>115.0</ele><time>2026-05-01T14:14:57.999Z</time></trkpt><trkpt lat="44.90793117350832" lon="9.802234002685392"><ele>115.0</ele><time>2026-05-01T14:14:58.999Z</time></trkpt><trkpt lat="44.907780160144256" lon="9.802223885018808"><ele>115.0</ele><time>2026-05-01T14:14:59.999Z</time></trkpt><trkpt lat="44.90763571741786" lon="9.802213485059731"><ele>115.0</ele><time>2026-05-01T14:15:00.999Z</time></trkpt><trkpt lat="44.90748497482093" lon="9.802200778469619"><ele>115.0</ele><time>2026-05-01T14:15:01.999Z</time></trkpt><trkpt lat="44.90734910772534" lon="9.802187746263884"><ele>115.6</ele><time>2026-05-01T14:15:02.999Z</time></trkpt><trkpt lat="44.90722195784325" lon="9.802169940955537"><ele>116.2</ele><time>2026-05-01T14:15:03.999Z</time></trkpt><trkpt lat="44.90711576994087" lon="9.802144632142449"><ele>116.80000000000001</ele><time>2026-05-01T14:15:04.999Z</time></trkpt><trkpt lat="44.907011595307964" lon="9.802103389156551"><ele>117.4</ele><time>2026-05-01T14:15:05.999Z</time></trkpt><trkpt lat="44.906918340881376" lon="9.802055959144203"><ele>118.0</ele><time>2026-05-01T14:15:06.999Z</time></trkpt><trkpt lat="44.906852702854614" lon="9.802026438046013"><ele>118.0</ele><time>2026-05-01T14:15:07.999Z</time></trkpt><trkpt lat="44.90678472491114" lon="9.802020054688954"><ele>118.00000000000001</ele><time>2026-05-01T14:15:08.999Z</time></trkpt><trkpt lat="44.90671893590991" lon="9.80196985378146"><ele>118.00000000000001</ele><time>2026-05-01T14:15:09.999Z</time></trkpt><trkpt lat="44.90664637502268" lon="9.801943965949299"><ele>118.0</ele><time>2026-05-01T14:15:10.999Z</time></trkpt><trkpt lat="44.906550872062496" lon="9.801966539951453"><ele>118.0</ele><time>2026-05-01T14:15:12.999Z</time></trkpt><trkpt lat="44.906503199515754" lon="9.802162296963717"><ele>118.60000000000001</ele><time>2026-05-01T14:15:14.999Z</time></trkpt><trkpt lat="44.90646835960987" lon="9.802237043050821"><ele>119.20000000000002</ele><time>2026-05-01T14:15:15.999Z</time></trkpt><trkpt lat="44.90641946870432" lon="9.802315541089664"><ele>119.8</ele><time>2026-05-01T14:15:16.999Z</time></trkpt><trkpt lat="44.90634852041869" lon="9.802243957696145"><ele>120.4</ele><time>2026-05-01T14:15:17.999Z</time></trkpt><trkpt lat="44.9062698648753" lon="9.802190021195754"><ele>121.0</ele><time>2026-05-01T14:15:18.999Z</time></trkpt><trkpt lat="44.906127555145765" lon="9.802139509768951"><ele>121.0</ele><time>2026-05-01T14:15:19.999Z</time></trkpt><trkpt lat="44.905987605818595" lon="9.802094064354014"><ele>121.0</ele><time>2026-05-01T14:15:20.999Z</time></trkpt><trkpt lat="44.905840750831565" lon="9.8020521843889"><ele>121.0</ele><time>2026-05-01T14:15:21.999Z</time></trkpt><trkpt lat="44.90569212658952" lon="9.802011358733735"><ele>121.0</ele><time>2026-05-01T14:15:22.999Z</time></trkpt><trkpt lat="44.90557695951922" lon="9.801979723464813"><ele>120.33333333333334</ele><time>2026-05-01T14:15:23.999Z</time></trkpt><trkpt lat="44.90550144152393" lon="9.801958979387758"><ele>119.66666666666667</ele><time>2026-05-01T14:15:24.999Z</time></trkpt><trkpt lat="44.90543362673514" lon="9.801962123142014"><ele>119.0</ele><time>2026-05-01T14:15:29.999Z</time></trkpt><trkpt lat="44.90531281252119" lon="9.801943395782162"><ele>118.33333333333334</ele><time>2026-05-01T14:15:33.999Z</time></trkpt><trkpt lat="44.905250140699614" lon="9.801920402528141"><ele>117.66666666666667</ele><time>2026-05-01T14:15:34.999Z</time></trkpt><trkpt lat="44.9051802533985" lon="9.801897866445085"><ele>117.0</ele><time>2026-05-01T14:15:35.999Z</time></trkpt><trkpt lat="44.905100795506286" lon="9.801843854378975"><ele>118.25</ele><time>2026-05-01T14:15:36.999Z</time></trkpt><trkpt lat="44.905006832535655" lon="9.801811938187495"><ele>119.5</ele><time>2026-05-01T14:15:37.999Z</time></trkpt><trkpt lat="44.904901615430134" lon="9.801776474093447"><ele>120.75</ele><time>2026-05-01T14:15:38.999Z</time></trkpt><trkpt lat="44.90477961385335" lon="9.801739165571869"><ele>122.0</ele><time>2026-05-01T14:15:39.999Z</time></trkpt><trkpt lat="44.90465277009409" lon="9.801703300315276"><ele>122.0</ele><time>2026-05-01T14:15:40.999Z</time></trkpt><trkpt lat="44.904535120217666" lon="9.801670034646254"><ele>121.99999999999999</ele><time>2026-05-01T14:15:41.999Z</time></trkpt><trkpt lat="44.90444055867355" lon="9.801643297225063"><ele>121.99999999999999</ele><time>2026-05-01T14:15:42.999Z</time></trkpt><trkpt lat="44.90434327350529" lon="9.80161578968955"><ele>122.0</ele><time>2026-05-01T14:15:43.999Z</time></trkpt><trkpt lat="44.904239615799455" lon="9.801586480342312"><ele>122.0</ele><time>2026-05-01T14:15:44.999Z</time></trkpt><trkpt lat="44.90415201752351" lon="9.80155392239048"><ele>121.8</ele><time>2026-05-01T14:15:45.999Z</time></trkpt><trkpt lat="44.90409040252109" lon="9.80152082301038"><ele>121.6</ele><time>2026-05-01T14:15:46.999Z</time></trkpt><trkpt lat="44.904007801782484" lon="9.801431244711486"><ele>121.39999999999999</ele><time>2026-05-01T14:15:48.999Z</time></trkpt><trkpt lat="44.903987263122104" lon="9.801295472626276"><ele>121.19999999999999</ele><time>2026-05-01T14:15:50.999Z</time></trkpt><trkpt lat="44.90401811731508" lon="9.801130884869247"><ele>121.0</ele><time>2026-05-01T14:15:52.999Z</time></trkpt><trkpt lat="44.904035989311836" lon="9.801005928983532"><ele>121.50000000000001</ele><time>2026-05-01T14:15:53.999Z</time></trkpt><trkpt lat="44.90404067526065" lon="9.800864722417778"><ele>122.0</ele><time>2026-05-01T14:15:54.999Z</time></trkpt><trkpt lat="44.90405819790523" lon="9.800742084449682"><ele>122.5</ele><time>2026-05-01T14:15:55.999Z</time></trkpt><trkpt lat="44.90408564549423" lon="9.800645594967348"><ele>123.0</ele><time>2026-05-01T14:15:56.999Z</time></trkpt><trkpt lat="44.90409852661296" lon="9.800555390711919"><ele>123.50000000000001</ele><time>2026-05-01T14:15:57.999Z</time></trkpt><trkpt lat="44.90410212347078" lon="9.8004656173841"><ele>124.0</ele><time>2026-05-01T14:15:59.999Z</time></trkpt><trkpt lat="44.90412351806263" lon="9.80033583253171"><ele>124.16666666666667</ele><time>2026-05-01T14:16:02.999Z</time></trkpt><trkpt lat="44.90416177399485" lon="9.800162387891685"><ele>124.33333333333334</ele><time>2026-05-01T14:16:04.999Z</time></trkpt><trkpt lat="44.90418301964633" lon="9.800065843252346"><ele>124.5</ele><time>2026-05-01T14:16:05.999Z</time></trkpt><trkpt lat="44.904218557832195" lon="9.79998940924592"><ele>124.66666666666666</ele><time>2026-05-01T14:16:06.999Z</time></trkpt><trkpt lat="44.90423352002048" lon="9.799900209391057"><ele>124.83333333333333</ele><time>2026-05-01T14:16:09.999Z</time></trkpt><trkpt lat="44.90433830021455" lon="9.7999695624588"><ele>125.0</ele><time>2026-05-01T14:16:14.999Z</time></trkpt><trkpt lat="44.90427769211548" lon="9.799911322788105"><ele>124.0</ele><time>2026-05-01T14:16:22.999Z</time></trkpt><trkpt lat="44.90432398279663" lon="9.800174055748789"><ele>123.0</ele><time>2026-05-01T14:16:27.999Z</time></trkpt><trkpt lat="44.90431260846944" lon="9.80028112633557"><ele>122.0</ele><time>2026-05-01T14:16:28.999Z</time></trkpt><trkpt lat="44.904298609556974" lon="9.800412903099318"><ele>121.0</ele><time>2026-05-01T14:16:29.999Z</time></trkpt><trkpt lat="44.90428403558578" lon="9.800550093080702"><ele>121.0</ele><time>2026-05-01T14:16:30.999Z</time></trkpt><trkpt lat="44.90406673291666" lon="9.800661289141157"><ele>121.0</ele><time>2026-05-01T14:16:31.999Z</time></trkpt><trkpt lat="44.90405714569887" lon="9.800803098569435"><ele>121.0</ele><time>2026-05-01T14:16:32.999Z</time></trkpt><trkpt lat="44.90404205908595" lon="9.800926062320546"><ele>121.0</ele><time>2026-05-01T14:16:33.999Z</time></trkpt><trkpt lat="44.90400011353981" lon="9.801020165381733"><ele>121.00000000000001</ele><time>2026-05-01T14:16:34.999Z</time></trkpt><trkpt lat="44.90398631962694" lon="9.801115791162001"><ele>121.0</ele><time>2026-05-01T14:16:35.999Z</time></trkpt><trkpt lat="44.90397317348441" lon="9.801207175247214"><ele>121.0</ele><time>2026-05-01T14:16:36.999Z</time></trkpt><trkpt lat="44.90397522608504" lon="9.801311006763521"><ele>121.0</ele><time>2026-05-01T14:16:37.999Z</time></trkpt><trkpt lat="44.90397972159926" lon="9.801402527084083"><ele>121.00000000000001</ele><time>2026-05-01T14:16:38.999Z</time></trkpt><trkpt lat="44.90404388507941" lon="9.80153934126757"><ele>121.0</ele><time>2026-05-01T14:16:40.999Z</time></trkpt><trkpt lat="44.90410217681055" lon="9.801574909650842"><ele>121.0</ele><time>2026-05-01T14:16:41.999Z</time></trkpt><trkpt lat="44.90417780190693" lon="9.80161414767021"><ele>121.0</ele><time>2026-05-01T14:16:42.999Z</time></trkpt><trkpt lat="44.904273798065496" lon="9.801640241670261"><ele>121.0</ele><time>2026-05-01T14:16:43.999Z</time></trkpt><trkpt lat="44.9044004700012" lon="9.801663177943944"><ele>121.0</ele><time>2026-05-01T14:16:44.999Z</time></trkpt><trkpt lat="44.90454457683732" lon="9.801703343477103"><ele>121.0</ele><time>2026-05-01T14:16:45.999Z</time></trkpt><trkpt lat="44.90470975154339" lon="9.801748302203443"><ele>121.0</ele><time>2026-05-01T14:16:46.999Z</time></trkpt><trkpt lat="44.90487477388595" lon="9.801801572573739"><ele>121.0</ele><time>2026-05-01T14:16:47.999Z</time></trkpt><trkpt lat="44.90500649921199" lon="9.801841104493798"><ele>120.19999999999999</ele><time>2026-05-01T14:16:48.999Z</time></trkpt><trkpt lat="44.90513050270963" lon="9.801886868462864"><ele>119.39999999999999</ele><time>2026-05-01T14:16:49.999Z</time></trkpt><trkpt lat="44.90524089914496" lon="9.801918449128857"><ele>118.6</ele><time>2026-05-01T14:16:50.999Z</time></trkpt><trkpt lat="44.905339618494374" lon="9.80194311461011"><ele>117.8</ele><time>2026-05-01T14:16:51.999Z</time></trkpt><trkpt lat="44.90541070674046" lon="9.801965618036599"><ele>117.0</ele><time>2026-05-01T14:16:52.999Z</time></trkpt><trkpt lat="44.90548155099757" lon="9.801985998337626"><ele>117.5</ele><time>2026-05-01T14:16:54.999Z</time></trkpt><trkpt lat="44.90554037219048" lon="9.801718305975392"><ele>118.0</ele><time>2026-05-01T14:16:59.999Z</time></trkpt><trkpt lat="44.90555994354574" lon="9.801592584986436"><ele>118.5</ele><time>2026-05-01T14:17:00.999Z</time></trkpt><trkpt lat="44.90558068658604" lon="9.801443091127432"><ele>119.0</ele><time>2026-05-01T14:17:01.999Z</time></trkpt><trkpt lat="44.90561421033085" lon="9.80129895437681"><ele>118.99999999999999</ele><time>2026-05-01T14:17:02.999Z</time></trkpt><trkpt lat="44.90564301436573" lon="9.801188132758622"><ele>119.0</ele><time>2026-05-01T14:17:03.999Z</time></trkpt><trkpt lat="44.90567520148439" lon="9.801103041610414"><ele>119.0</ele><time>2026-05-01T14:17:04.999Z</time></trkpt><trkpt lat="44.90573143040833" lon="9.801025105854869"><ele>119.0</ele><time>2026-05-01T14:17:05.999Z</time></trkpt><trkpt lat="44.90578425363789" lon="9.800915321926643"><ele>118.99999999999999</ele><time>2026-05-01T14:17:06.999Z</time></trkpt><trkpt lat="44.905823109121506" lon="9.800804023995731"><ele>119.0</ele><time>2026-05-01T14:17:07.999Z</time></trkpt><trkpt lat="44.905839025392545" lon="9.800672712796967"><ele>119.2</ele><time>2026-05-01T14:17:08.999Z</time></trkpt><trkpt lat="44.90586197995347" lon="9.80050654599006"><ele>119.4</ele><time>2026-05-01T14:17:09.999Z</time></trkpt><trkpt lat="44.90587712751781" lon="9.800356001014679"><ele>119.6</ele><time>2026-05-01T14:17:10.999Z</time></trkpt><trkpt lat="44.905893164934035" lon="9.800240437382197"><ele>119.8</ele><time>2026-05-01T14:17:11.999Z</time></trkpt><trkpt lat="44.90591067444395" lon="9.800130659667364"><ele>120.0</ele><time>2026-05-01T14:17:12.999Z</time></trkpt><trkpt lat="44.90593015324212" lon="9.800040282331187"><ele>120.0</ele><time>2026-05-01T14:17:13.999Z</time></trkpt><trkpt lat="44.90595827912011" lon="9.799891369135894"><ele>120.0</ele><time>2026-05-01T14:17:15.999Z</time></trkpt><trkpt lat="44.905915680145135" lon="9.79980388383369"><ele>120.0</ele><time>2026-05-01T14:17:18.999Z</time></trkpt><trkpt lat="44.905850356344025" lon="9.799783325241162"><ele>120.0</ele><time>2026-05-01T14:17:20.999Z</time></trkpt><trkpt lat="44.90574282899902" lon="9.799779220422248"><ele>120.0</ele><time>2026-05-01T14:17:23.999Z</time></trkpt><trkpt lat="44.90567568743769" lon="9.799757346496428"><ele>120.0</ele><time>2026-05-01T14:17:24.999Z</time></trkpt><trkpt lat="44.9055990960169" lon="9.799722913640087"><ele>120.0</ele><time>2026-05-01T14:17:25.999Z</time></trkpt><trkpt lat="44.90548697441459" lon="9.799686223562304"><ele>120.0</ele><time>2026-05-01T14:17:26.999Z</time></trkpt><trkpt lat="44.905387219305126" lon="9.7996471243289"><ele>120.0</ele><time>2026-05-01T14:17:27.999Z</time></trkpt><trkpt lat="44.90530048049884" lon="9.799622416449441"><ele>120.0</ele><time>2026-05-01T14:17:28.999Z</time></trkpt><trkpt lat="44.90522574404513" lon="9.799603890798874"><ele>120.0</ele><time>2026-05-01T14:17:29.999Z</time></trkpt><trkpt lat="44.90516164259255" lon="9.799577577825247"><ele>120.4</ele><time>2026-05-01T14:17:30.999Z</time></trkpt><trkpt lat="44.90507255384243" lon="9.799527914612822"><ele>120.8</ele><time>2026-05-01T14:17:32.999Z</time></trkpt><trkpt lat="44.905054203745905" lon="9.799379163412587"><ele>121.19999999999999</ele><time>2026-05-01T14:17:34.999Z</time></trkpt><trkpt lat="44.90508167138353" lon="9.799269340886687"><ele>121.6</ele><time>2026-05-01T14:17:35.999Z</time></trkpt><trkpt lat="44.90513143748835" lon="9.799109826163223"><ele>122.0</ele><time>2026-05-01T14:17:36.999Z</time></trkpt><trkpt lat="44.90516113865039" lon="9.798922495335338"><ele>122.0</ele><time>2026-05-01T14:17:37.999Z</time></trkpt><trkpt lat="44.90519100351587" lon="9.798752814232403"><ele>121.99999999999999</ele><time>2026-05-01T14:17:38.999Z</time></trkpt><trkpt lat="44.90521941662521" lon="9.79859645650052"><ele>121.99999999999999</ele><time>2026-05-01T14:17:39.999Z</time></trkpt><trkpt lat="44.90524850548473" lon="9.798468987141637"><ele>122.0</ele><time>2026-05-01T14:17:40.999Z</time></trkpt><trkpt lat="44.9052683912899" lon="9.798332256882992"><ele>122.0</ele><time>2026-05-01T14:17:41.999Z</time></trkpt><trkpt lat="44.90529862130653" lon="9.798188778896385"><ele>121.99999999999999</ele><time>2026-05-01T14:17:42.999Z</time></trkpt><trkpt lat="44.9053279460721" lon="9.798051034382707"><ele>122.0</ele><time>2026-05-01T14:17:43.999Z</time></trkpt><trkpt lat="44.905357382077135" lon="9.79792811676438"><ele>122.0</ele><time>2026-05-01T14:17:44.999Z</time></trkpt><trkpt lat="44.90537840633288" lon="9.797827342973676"><ele>122.0</ele><time>2026-05-01T14:17:45.999Z</time></trkpt><trkpt lat="44.90540722536403" lon="9.797743609302104"><ele>121.99999999999999</ele><time>2026-05-01T14:17:46.999Z</time></trkpt><trkpt lat="44.905361351126444" lon="9.79761809325353"><ele>122.0</ele><time>2026-05-01T14:17:48.999Z</time></trkpt><trkpt lat="44.90531558790044" lon="9.797526792198122"><ele>121.6</ele><time>2026-05-01T14:17:49.999Z</time></trkpt><trkpt lat="44.905225748126014" lon="9.79741714203795"><ele>121.19999999999999</ele><time>2026-05-01T14:17:51.999Z</time></trkpt><trkpt lat="44.905165929067856" lon="9.797355254093418"><ele>120.8</ele><time>2026-05-01T14:17:52.999Z</time></trkpt><trkpt lat="44.90507528561227" lon="9.797328832711779"><ele>120.4</ele><time>2026-05-01T14:17:53.999Z</time></trkpt><trkpt lat="44.904952844821786" lon="9.79729193110418"><ele>120.0</ele><time>2026-05-01T14:17:54.999Z</time></trkpt><trkpt lat="44.904797065749506" lon="9.797255568442848"><ele>120.0</ele><time>2026-05-01T14:17:55.999Z</time></trkpt><trkpt lat="44.904683070035304" lon="9.797225371679186"><ele>120.0</ele><time>2026-05-01T14:17:56.999Z</time></trkpt><trkpt lat="44.90458419958067" lon="9.79720365158587"><ele>120.0</ele><time>2026-05-01T14:17:57.999Z</time></trkpt><trkpt lat="44.90449276464559" lon="9.797190982939465"><ele>120.0</ele><time>2026-05-01T14:17:58.999Z</time></trkpt><trkpt lat="44.90441194533406" lon="9.797175566111903"><ele>120.0</ele><time>2026-05-01T14:17:59.999Z</time></trkpt><trkpt lat="44.9043162821864" lon="9.797123923872755"><ele>120.0</ele><time>2026-05-01T14:18:01.999Z</time></trkpt><trkpt lat="44.904257734762695" lon="9.797035547751845"><ele>120.0</ele><time>2026-05-01T14:18:05.999Z</time></trkpt><trkpt lat="44.904222426425285" lon="9.796954374385072"><ele>120.0</ele><time>2026-05-01T14:18:07.999Z</time></trkpt><trkpt lat="44.904264279516305" lon="9.796795643739495"><ele>120.0</ele><time>2026-05-01T14:18:09.999Z</time></trkpt><trkpt lat="44.90429454694359" lon="9.796628850002543"><ele>120.0</ele><time>2026-05-01T14:18:10.999Z</time></trkpt><trkpt lat="44.904325058787336" lon="9.796450051145618"><ele>120.0</ele><time>2026-05-01T14:18:11.999Z</time></trkpt><trkpt lat="44.90434809207268" lon="9.796238726479015"><ele>120.0</ele><time>2026-05-01T14:18:12.999Z</time></trkpt><trkpt lat="44.90437237555993" lon="9.796006560695634"><ele>120.0</ele><time>2026-05-01T14:18:13.999Z</time></trkpt><trkpt lat="44.90438292811321" lon="9.795769095906254"><ele>120.0</ele><time>2026-05-01T14:18:14.999Z</time></trkpt><trkpt lat="44.90439435541469" lon="9.795597542663192"><ele>120.0</ele><time>2026-05-01T14:18:15.999Z</time></trkpt><trkpt lat="44.90441310097806" lon="9.795422477564516"><ele>120.0</ele><time>2026-05-01T14:18:16.999Z</time></trkpt><trkpt lat="44.904429242965605" lon="9.795257840098905"><ele>120.0</ele><time>2026-05-01T14:18:17.999Z</time></trkpt><trkpt lat="44.904442122278475" lon="9.795098840038582"><ele>120.0</ele><time>2026-05-01T14:18:18.999Z</time></trkpt><trkpt lat="44.9044545839947" lon="9.794937837938459"><ele>120.0</ele><time>2026-05-01T14:18:19.999Z</time></trkpt><trkpt lat="44.904468308706655" lon="9.794796654858978"><ele>120.0</ele><time>2026-05-01T14:18:20.999Z</time></trkpt><trkpt lat="44.90448475583202" lon="9.794691279944702"><ele>120.0</ele><time>2026-05-01T14:18:21.999Z</time></trkpt><trkpt lat="44.904499644539065" lon="9.794580662182415"><ele>120.0</ele><time>2026-05-01T14:18:23.999Z</time></trkpt><trkpt lat="44.904410556792286" lon="9.7946069370886"><ele>120.0</ele><time>2026-05-01T14:18:26.999Z</time></trkpt><trkpt lat="44.90434079669045" lon="9.794644279563133"><ele>120.0</ele><time>2026-05-01T14:18:27.999Z</time></trkpt><trkpt lat="44.90424313593739" lon="9.794682577899556"><ele>120.0</ele><time>2026-05-01T14:18:28.999Z</time></trkpt><trkpt lat="44.9041390299884" lon="9.794698369399585"><ele>120.0</ele><time>2026-05-01T14:18:29.999Z</time></trkpt><trkpt lat="44.90400960637771" lon="9.794581956014438"><ele>120.0</ele><time>2026-05-01T14:18:30.999Z</time></trkpt><trkpt lat="44.903877619298356" lon="9.794556293617287"><ele>120.5</ele><time>2026-05-01T14:18:31.999Z</time></trkpt><trkpt lat="44.90374000135874" lon="9.794530499191486"><ele>121.0</ele><time>2026-05-01T14:18:32.999Z</time></trkpt><trkpt lat="44.903616924516015" lon="9.794502933008705"><ele>121.5</ele><time>2026-05-01T14:18:33.999Z</time></trkpt><trkpt lat="44.90350962502482" lon="9.794481989992716"><ele>122.0</ele><time>2026-05-01T14:18:34.999Z</time></trkpt><trkpt lat="44.903391423046756" lon="9.794478733528146"><ele>122.75</ele><time>2026-05-01T14:18:35.999Z</time></trkpt><trkpt lat="44.903283139677164" lon="9.794461494631145"><ele>123.5</ele><time>2026-05-01T14:18:36.999Z</time></trkpt><trkpt lat="44.90316979271439" lon="9.79439959883139"><ele>124.25</ele><time>2026-05-01T14:18:37.999Z</time></trkpt><trkpt lat="44.90304688022692" lon="9.794352657719875"><ele>125.0</ele><time>2026-05-01T14:18:38.999Z</time></trkpt><trkpt lat="44.90292427584338" lon="9.794279156058733"><ele>125.75</ele><time>2026-05-01T14:18:39.999Z</time></trkpt><trkpt lat="44.90280555807893" lon="9.794198633704537"><ele>126.5</ele><time>2026-05-01T14:18:41Z</time></trkpt><trkpt lat="44.902711119547554" lon="9.794111036727887"><ele>127.25</ele><time>2026-05-01T14:18:42Z</time></trkpt><trkpt lat="44.90261299522273" lon="9.794066285362751"><ele>128.0</ele><time>2026-05-01T14:18:43Z</time></trkpt><trkpt lat="44.9025096799949" lon="9.794003497153916"><ele>128.0</ele><time>2026-05-01T14:18:44Z</time></trkpt><trkpt lat="44.9023826929083" lon="9.79398293806913"><ele>128.0</ele><time>2026-05-01T14:18:45Z</time></trkpt><trkpt lat="44.90225173004355" lon="9.793925411986125"><ele>128.0</ele><time>2026-05-01T14:18:46Z</time></trkpt><trkpt lat="44.902126794730556" lon="9.79388672865766"><ele>128.0</ele><time>2026-05-01T14:18:47Z</time></trkpt><trkpt lat="44.902012707091004" lon="9.793851402393754"><ele>127.99999999999999</ele><time>2026-05-01T14:18:48Z</time></trkpt><trkpt lat="44.90191190086876" lon="9.79382018862053"><ele>128.0</ele><time>2026-05-01T14:18:49Z</time></trkpt><trkpt lat="44.90182720698773" lon="9.79379396387458"><ele>128.0</ele><time>2026-05-01T14:18:50Z</time></trkpt><trkpt lat="44.90175549771973" lon="9.79377123280424"><ele>128.0</ele><time>2026-05-01T14:18:51Z</time></trkpt><trkpt lat="44.90168674051604" lon="9.793744050582136"><ele>127.99999999999999</ele><time>2026-05-01T14:18:52Z</time></trkpt><trkpt lat="44.90162425936584" lon="9.793723621034937"><ele>128.0</ele><time>2026-05-01T14:18:53Z</time></trkpt><trkpt lat="44.90152128968616" lon="9.793731264491115"><ele>127.66666666666666</ele><time>2026-05-01T14:18:55Z</time></trkpt><trkpt lat="44.90145023443536" lon="9.793771530699306"><ele>127.33333333333333</ele><time>2026-05-01T14:18:57Z</time></trkpt><trkpt lat="44.90139337475707" lon="9.793824597602768"><ele>127.0</ele><time>2026-05-01T14:18:59Z</time></trkpt><trkpt lat="44.901308368998095" lon="9.793840325870947"><ele>126.66666666666666</ele><time>2026-05-01T14:19:01Z</time></trkpt><trkpt lat="44.901207244166514" lon="9.793926187854495"><ele>126.33333333333333</ele><time>2026-05-01T14:19:03Z</time></trkpt><trkpt lat="44.90117378178819" lon="9.794027806174912"><ele>126.0</ele><time>2026-05-01T14:19:04Z</time></trkpt><trkpt lat="44.9011895248188" lon="9.79415297536094"><ele>126.0</ele><time>2026-05-01T14:19:05Z</time></trkpt><trkpt lat="44.90117161549842" lon="9.79425852471022"><ele>126.0</ele><time>2026-05-01T14:19:07Z</time></trkpt><trkpt lat="44.90106860053205" lon="9.794216611692415"><ele>126.0</ele><time>2026-05-01T14:19:08Z</time></trkpt><trkpt lat="44.90096356219988" lon="9.794200909039384"><ele>126.0</ele><time>2026-05-01T14:19:10Z</time></trkpt><trkpt lat="44.9008829413756" lon="9.79415925759106"><ele>126.0</ele><time>2026-05-01T14:19:12Z</time></trkpt><trkpt lat="44.90077845084585" lon="9.794082461143127"><ele>126.0</ele><time>2026-05-01T14:19:14Z</time></trkpt><trkpt lat="44.900720604467324" lon="9.794034087104299"><ele>126.0</ele><time>2026-05-01T14:19:15Z</time></trkpt><trkpt lat="44.900676859262" lon="9.79396495656195"><ele>126.0</ele><time>2026-05-01T14:19:16Z</time></trkpt><trkpt lat="44.90062140744443" lon="9.793897072189978"><ele>126.0</ele><time>2026-05-01T14:19:17Z</time></trkpt><trkpt lat="44.900558428952706" lon="9.793832555270114"><ele>126.0</ele><time>2026-05-01T14:19:18Z</time></trkpt><trkpt lat="44.90049973146666" lon="9.79378647602883"><ele>126.0</ele><time>2026-05-01T14:19:19Z</time></trkpt><trkpt lat="44.90042869807638" lon="9.793768517103487"><ele>126.0</ele><time>2026-05-01T14:19:21Z</time></trkpt><trkpt lat="44.90036070789879" lon="9.794010001966546"><ele>126.0</ele><time>2026-05-01T14:19:30Z</time></trkpt><trkpt lat="44.90035079637052" lon="9.794149745511378"><ele>126.0</ele><time>2026-05-01T14:19:31Z</time></trkpt><trkpt lat="44.90031364155318" lon="9.794301726666529"><ele>126.0</ele><time>2026-05-01T14:19:32Z</time></trkpt><trkpt lat="44.90028783184774" lon="9.794461211391598"><ele>126.0</ele><time>2026-05-01T14:19:33Z</time></trkpt><trkpt lat="44.900274029582874" lon="9.794624385229103"><ele>126.0</ele><time>2026-05-01T14:19:34Z</time></trkpt><trkpt lat="44.9002483215658" lon="9.79478903344975"><ele>126.0</ele><time>2026-05-01T14:19:35Z</time></trkpt><trkpt lat="44.90021769997226" lon="9.794968784197247"><ele>126.0</ele><time>2026-05-01T14:19:36Z</time></trkpt><trkpt lat="44.90017092588813" lon="9.795144575615957"><ele>126.0</ele><time>2026-05-01T14:19:37Z</time></trkpt><trkpt lat="44.900133960416845" lon="9.795262358394623"><ele>126.0</ele><time>2026-05-01T14:19:38Z</time></trkpt><trkpt lat="44.899997975516285" lon="9.795332733605218"><ele>126.0</ele><time>2026-05-01T14:19:40Z</time></trkpt><trkpt lat="44.89989427100333" lon="9.795278544355643"><ele>126.0</ele><time>2026-05-01T14:19:41Z</time></trkpt><trkpt lat="44.89977347962693" lon="9.795238564398488"><ele>126.0</ele><time>2026-05-01T14:19:42Z</time></trkpt><trkpt lat="44.899642664819574" lon="9.795208187875856"><ele>126.0</ele><time>2026-05-01T14:19:43Z</time></trkpt><trkpt lat="44.89949696640977" lon="9.795160429385243"><ele>126.0</ele><time>2026-05-01T14:19:44Z</time></trkpt><trkpt lat="44.8993464911188" lon="9.795095236169514"><ele>126.0</ele><time>2026-05-01T14:19:45Z</time></trkpt><trkpt lat="44.89922317037647" lon="9.795062361138458"><ele>126.0</ele><time>2026-05-01T14:19:46Z</time></trkpt><trkpt lat="44.89915013285367" lon="9.795056140342826"><ele>126.0</ele><time>2026-05-01T14:19:47Z</time></trkpt><trkpt lat="44.89903566960556" lon="9.795210074820961"><ele>127.66666666666666</ele><time>2026-05-01T14:19:49Z</time></trkpt><trkpt lat="44.898996083586994" lon="9.795381174093636"><ele>129.33333333333331</ele><time>2026-05-01T14:19:50Z</time></trkpt><trkpt lat="44.898956671958736" lon="9.795600659263462"><ele>131.0</ele><time>2026-05-01T14:19:51Z</time></trkpt><trkpt lat="44.898904074454954" lon="9.795844869414836"><ele>131.33333333333331</ele><time>2026-05-01T14:19:52Z</time></trkpt><trkpt lat="44.89885181456349" lon="9.796075694232611"><ele>131.66666666666666</ele><time>2026-05-01T14:19:53Z</time></trkpt><trkpt lat="44.89880092807521" lon="9.796296591455157"><ele>132.0</ele><time>2026-05-01T14:19:54Z</time></trkpt><trkpt lat="44.8987484238624" lon="9.79651844924539"><ele>132.0</ele><time>2026-05-01T14:19:55Z</time></trkpt><trkpt lat="44.89869897465976" lon="9.796744736971378"><ele>132.0</ele><time>2026-05-01T14:19:56Z</time></trkpt><trkpt lat="44.89865061583682" lon="9.796973249870137"><ele>132.0</ele><time>2026-05-01T14:19:57Z</time></trkpt><trkpt lat="44.89861007752398" lon="9.797202241997775"><ele>131.0</ele><time>2026-05-01T14:19:58Z</time></trkpt><trkpt lat="44.89857113763879" lon="9.797427214620642"><ele>130.0</ele><time>2026-05-01T14:19:59Z</time></trkpt><trkpt lat="44.898526313241476" lon="9.797645143962175"><ele>129.0</ele><time>2026-05-01T14:20:00Z</time></trkpt><trkpt lat="44.898472013929236" lon="9.797865716334405"><ele>129.66666666666666</ele><time>2026-05-01T14:20:01Z</time></trkpt><trkpt lat="44.89839584634903" lon="9.798072453902938"><ele>130.33333333333331</ele><time>2026-05-01T14:20:02Z</time></trkpt><trkpt lat="44.898340147387756" lon="9.798300777561396"><ele>131.0</ele><time>2026-05-01T14:20:03Z</time></trkpt><trkpt lat="44.898262601356514" lon="9.798515515314904"><ele>131.66666666666666</ele><time>2026-05-01T14:20:04Z</time></trkpt><trkpt lat="44.898183353160626" lon="9.798729630597258"><ele>132.33333333333334</ele><time>2026-05-01T14:20:05Z</time></trkpt><trkpt lat="44.898117326909826" lon="9.798928481737683"><ele>133.0</ele><time>2026-05-01T14:20:06Z</time></trkpt><trkpt lat="44.89803967598178" lon="9.799096944831625"><ele>133.0</ele><time>2026-05-01T14:20:06.999Z</time></trkpt><trkpt lat="44.89797204597526" lon="9.799293961217082"><ele>133.0</ele><time>2026-05-01T14:20:07.999Z</time></trkpt><trkpt lat="44.8979120097698" lon="9.79947196268271"><ele>133.0</ele><time>2026-05-01T14:20:08.999Z</time></trkpt><trkpt lat="44.89783849042226" lon="9.79966407899015"><ele>133.0</ele><time>2026-05-01T14:20:09.999Z</time></trkpt><trkpt lat="44.897747790982045" lon="9.799830316289157"><ele>132.66666666666669</ele><time>2026-05-01T14:20:10.999Z</time></trkpt><trkpt lat="44.89764154196535" lon="9.799979558880855"><ele>132.33333333333334</ele><time>2026-05-01T14:20:11.999Z</time></trkpt><trkpt lat="44.89752167939133" lon="9.800146330958537"><ele>132.0</ele><time>2026-05-01T14:20:12.999Z</time></trkpt><trkpt lat="44.89738678375528" lon="9.800337765130465"><ele>131.33333333333334</ele><time>2026-05-01T14:20:13.999Z</time></trkpt><trkpt lat="44.89724762108046" lon="9.80051571536384"><ele>130.66666666666669</ele><time>2026-05-01T14:20:14.999Z</time></trkpt><trkpt lat="44.897143821539125" lon="9.800681699585486"><ele>130.0</ele><time>2026-05-01T14:20:15.999Z</time></trkpt><trkpt lat="44.8970373559528" lon="9.800821646148226"><ele>130.0</ele><time>2026-05-01T14:20:16.999Z</time></trkpt><trkpt lat="44.89695073778147" lon="9.801003912330629"><ele>130.0</ele><time>2026-05-01T14:20:17.999Z</time></trkpt><trkpt lat="44.896885832540335" lon="9.801200984828977"><ele>130.0</ele><time>2026-05-01T14:20:18.999Z</time></trkpt><trkpt lat="44.896834605828204" lon="9.801389844565522"><ele>130.0</ele><time>2026-05-01T14:20:19.999Z</time></trkpt><trkpt lat="44.8967907679496" lon="9.801556133964306"><ele>130.0</ele><time>2026-05-01T14:20:20.999Z</time></trkpt><trkpt lat="44.89674605823828" lon="9.80171168191413"><ele>130.0</ele><time>2026-05-01T14:20:21.999Z</time></trkpt><trkpt lat="44.89667737419119" lon="9.80182182872335"><ele>130.0</ele><time>2026-05-01T14:20:22.999Z</time></trkpt><trkpt lat="44.896570006003074" lon="9.801903025998069"><ele>130.0</ele><time>2026-05-01T14:20:24.999Z</time></trkpt><trkpt lat="44.89648964023905" lon="9.801845058206384"><ele>130.0</ele><time>2026-05-01T14:20:25.999Z</time></trkpt><trkpt lat="44.89635716898688" lon="9.80181969935641"><ele>130.0</ele><time>2026-05-01T14:20:27Z</time></trkpt><trkpt lat="44.896192618024386" lon="9.801852328943529"><ele>130.0</ele><time>2026-05-01T14:20:28Z</time></trkpt><trkpt lat="44.89605344053699" lon="9.8018440763262"><ele>130.2</ele><time>2026-05-01T14:20:29Z</time></trkpt><trkpt lat="44.89592469708363" lon="9.801843609816776"><ele>130.4</ele><time>2026-05-01T14:20:30Z</time></trkpt><trkpt lat="44.89580572614411" lon="9.801866059665992"><ele>130.6</ele><time>2026-05-01T14:20:31Z</time></trkpt><trkpt lat="44.89571022318862" lon="9.801893235893896"><ele>130.8</ele><time>2026-05-01T14:20:32Z</time></trkpt><trkpt lat="44.89563420467538" lon="9.801959223245811"><ele>131.0</ele><time>2026-05-01T14:20:33Z</time></trkpt><trkpt lat="44.8955817530591" lon="9.802072890161623"><ele>131.0</ele><time>2026-05-01T14:20:34Z</time></trkpt><trkpt lat="44.89553732919088" lon="9.802228505381436"><ele>131.0</ele><time>2026-05-01T14:20:35Z</time></trkpt><trkpt lat="44.89549421418344" lon="9.802445130105372"><ele>131.0</ele><time>2026-05-01T14:20:36Z</time></trkpt><trkpt lat="44.89541790802073" lon="9.802669959473446"><ele>131.0</ele><time>2026-05-01T14:20:37Z</time></trkpt><trkpt lat="44.89535071210314" lon="9.802909442897125"><ele>131.0</ele><time>2026-05-01T14:20:38Z</time></trkpt><trkpt lat="44.89528470871316" lon="9.803142092588535"><ele>131.0</ele><time>2026-05-01T14:20:39Z</time></trkpt><trkpt lat="44.89521530535402" lon="9.803380164606713"><ele>131.66666666666666</ele><time>2026-05-01T14:20:40Z</time></trkpt><trkpt lat="44.895141270364626" lon="9.803630585609909"><ele>132.33333333333334</ele><time>2026-05-01T14:20:41Z</time></trkpt><trkpt lat="44.89507999474457" lon="9.803837848483353"><ele>133.0</ele><time>2026-05-01T14:20:42Z</time></trkpt><trkpt lat="44.895039334715555" lon="9.803975379686332"><ele>133.25</ele><time>2026-05-01T14:20:43Z</time></trkpt><trkpt lat="44.89499983532291" lon="9.80411050180053"><ele>133.5</ele><time>2026-05-01T14:20:44Z</time></trkpt><trkpt lat="44.89495310118058" lon="9.804270351015106"><ele>133.75</ele><time>2026-05-01T14:20:45Z</time></trkpt><trkpt lat="44.89490288943974" lon="9.8044408522208"><ele>134.0</ele><time>2026-05-01T14:20:46Z</time></trkpt><trkpt lat="44.89485374111898" lon="9.804608113019217"><ele>134.4</ele><time>2026-05-01T14:20:47Z</time></trkpt><trkpt lat="44.894817443592125" lon="9.804731640195127"><ele>134.8</ele><time>2026-05-01T14:20:48Z</time></trkpt><trkpt lat="44.894782169396265" lon="9.80485168476076"><ele>135.2</ele><time>2026-05-01T14:20:49Z</time></trkpt><trkpt lat="44.894745766752926" lon="9.804972687047897"><ele>135.6</ele><time>2026-05-01T14:20:50Z</time></trkpt><trkpt lat="44.89470797418985" lon="9.805097931022104"><ele>136.0</ele><time>2026-05-01T14:20:51Z</time></trkpt><trkpt lat="44.89467261422434" lon="9.80521169785975"><ele>136.0</ele><time>2026-05-01T14:20:52Z</time></trkpt><trkpt lat="44.89462240761108" lon="9.80533423710896"><ele>136.0</ele><time>2026-05-01T14:20:54Z</time></trkpt><trkpt lat="44.894508257917835" lon="9.805204616758262"><ele>136.0</ele><time>2026-05-01T14:20:56Z</time></trkpt><trkpt lat="44.89441110453279" lon="9.805142813166192"><ele>136.0</ele><time>2026-05-01T14:20:57Z</time></trkpt><trkpt lat="44.894345166355684" lon="9.805100867086432"><ele>136.0</ele><time>2026-05-01T14:20:58Z</time></trkpt><trkpt lat="44.89422383258378" lon="9.804994088323742"><ele>136.25</ele><time>2026-05-01T14:21:01Z</time></trkpt><trkpt lat="44.89414748967255" lon="9.804860752280417"><ele>136.5</ele><time>2026-05-01T14:21:02Z</time></trkpt><trkpt lat="44.89403998924682" lon="9.804735587576312"><ele>136.75</ele><time>2026-05-01T14:21:03Z</time></trkpt><trkpt lat="44.89392214576709" lon="9.80461458471448"><ele>137.0</ele><time>2026-05-01T14:21:04Z</time></trkpt><trkpt lat="44.89380099667443" lon="9.804468912958129"><ele>137.33333333333331</ele><time>2026-05-01T14:21:05Z</time></trkpt><trkpt lat="44.8936638373201" lon="9.804306138054962"><ele>137.66666666666666</ele><time>2026-05-01T14:21:06Z</time></trkpt><trkpt lat="44.89352676381642" lon="9.804148212558015"><ele>138.0</ele><time>2026-05-01T14:21:07Z</time></trkpt><trkpt lat="44.89339041361604" lon="9.803984615137676"><ele>138.0</ele><time>2026-05-01T14:21:08Z</time></trkpt><trkpt lat="44.89324401985359" lon="9.80380577015528"><ele>138.0</ele><time>2026-05-01T14:21:09Z</time></trkpt><trkpt lat="44.89309606558648" lon="9.803630540938642"><ele>138.0</ele><time>2026-05-01T14:21:10Z</time></trkpt><trkpt lat="44.89294237962485" lon="9.803459312833791"><ele>138.33333333333334</ele><time>2026-05-01T14:21:11Z</time></trkpt><trkpt lat="44.892792136326236" lon="9.803289236723348"><ele>138.66666666666669</ele><time>2026-05-01T14:21:12Z</time></trkpt><trkpt lat="44.892647746649615" lon="9.803127865692918"><ele>139.0</ele><time>2026-05-01T14:21:13Z</time></trkpt><trkpt lat="44.89251691022575" lon="9.802985201372127"><ele>139.0</ele><time>2026-05-01T14:21:14Z</time></trkpt><trkpt lat="44.892368118321855" lon="9.802868658240453"><ele>139.0</ele><time>2026-05-01T14:21:15Z</time></trkpt><trkpt lat="44.89221156349132" lon="9.802753005895385"><ele>139.0</ele><time>2026-05-01T14:21:16Z</time></trkpt><trkpt lat="44.89204467747159" lon="9.802656217129853"><ele>139.0</ele><time>2026-05-01T14:21:17Z</time></trkpt><trkpt lat="44.89186334242469" lon="9.802577216412876"><ele>139.0</ele><time>2026-05-01T14:21:18Z</time></trkpt><trkpt lat="44.891663386769125" lon="9.80251094310345"><ele>139.0</ele><time>2026-05-01T14:21:19Z</time></trkpt><trkpt lat="44.89145158010494" lon="9.802453976902886"><ele>139.0</ele><time>2026-05-01T14:21:20Z</time></trkpt><trkpt lat="44.89122732864055" lon="9.802381908465055"><ele>139.0</ele><time>2026-05-01T14:21:21Z</time></trkpt><trkpt lat="44.890991095737945" lon="9.802293362601839"><ele>139.5</ele><time>2026-05-01T14:21:22Z</time></trkpt><trkpt lat="44.89074931878095" lon="9.802207993860737"><ele>140.0</ele><time>2026-05-01T14:21:23Z</time></trkpt><trkpt lat="44.890492398469526" lon="9.80212235643136"><ele>140.0</ele><time>2026-05-01T14:21:24Z</time></trkpt><trkpt lat="44.890235289736175" lon="9.802038131695191"><ele>140.0</ele><time>2026-05-01T14:21:25Z</time></trkpt><trkpt lat="44.89000671610089" lon="9.801939751747584"><ele>140.66666666666666</ele><time>2026-05-01T14:21:26Z</time></trkpt><trkpt lat="44.88979876099452" lon="9.801884082518905"><ele>141.33333333333334</ele><time>2026-05-01T14:21:27Z</time></trkpt><trkpt lat="44.88960637144442" lon="9.801823390913178"><ele>142.0</ele><time>2026-05-01T14:21:28Z</time></trkpt><trkpt lat="44.88943931499291" lon="9.801740762061424"><ele>143.0</ele><time>2026-05-01T14:21:29Z</time></trkpt><trkpt lat="44.88926880332309" lon="9.80167923619148"><ele>144.0</ele><time>2026-05-01T14:21:30Z</time></trkpt><trkpt lat="44.889088783749095" lon="9.801614279575253"><ele>145.0</ele><time>2026-05-01T14:21:31Z</time></trkpt><trkpt lat="44.888896170997036" lon="9.801546573068512"><ele>145.66666666666669</ele><time>2026-05-01T14:21:32Z</time></trkpt><trkpt lat="44.88869494465442" lon="9.801476931256897"><ele>146.33333333333334</ele><time>2026-05-01T14:21:33Z</time></trkpt><trkpt lat="44.8884882672684" lon="9.801413075211716"><ele>147.0</ele><time>2026-05-01T14:21:34Z</time></trkpt><trkpt lat="44.88826802206348" lon="9.801380546426431"><ele>147.0</ele><time>2026-05-01T14:21:35Z</time></trkpt><trkpt lat="44.888048949090965" lon="9.80132012318086"><ele>147.0</ele><time>2026-05-01T14:21:36Z</time></trkpt><trkpt lat="44.887816037393776" lon="9.80126320656918"><ele>147.5</ele><time>2026-05-01T14:21:37Z</time></trkpt><trkpt lat="44.88757724058822" lon="9.801199637937081"><ele>148.0</ele><time>2026-05-01T14:21:38Z</time></trkpt><trkpt lat="44.88733063717375" lon="9.80113070528093"><ele>148.0</ele><time>2026-05-01T14:21:39Z</time></trkpt><trkpt lat="44.88708307406164" lon="9.801069166077694"><ele>148.0</ele><time>2026-05-01T14:21:40Z</time></trkpt><trkpt lat="44.886833503619584" lon="9.801010245420658"><ele>148.5</ele><time>2026-05-01T14:21:41Z</time></trkpt><trkpt lat="44.88658597380027" lon="9.800955388948017"><ele>149.0</ele><time>2026-05-01T14:21:42Z</time></trkpt><trkpt lat="44.88634520523217" lon="9.800897716599538"><ele>149.0</ele><time>2026-05-01T14:21:43Z</time></trkpt><trkpt lat="44.88610663736454" lon="9.800843151158496"><ele>149.0</ele><time>2026-05-01T14:21:44Z</time></trkpt><trkpt lat="44.88588268491165" lon="9.800763262734629"><ele>149.5</ele><time>2026-05-01T14:21:45Z</time></trkpt><trkpt lat="44.88565902889518" lon="9.800702676478833"><ele>150.0</ele><time>2026-05-01T14:21:46Z</time></trkpt><trkpt lat="44.88542969320046" lon="9.800665202411523"><ele>150.0</ele><time>2026-05-01T14:21:47Z</time></trkpt><trkpt lat="44.88520480537768" lon="9.800606747262215"><ele>150.0</ele><time>2026-05-01T14:21:48Z</time></trkpt><trkpt lat="44.88497816740883" lon="9.800551326721544"><ele>151.0</ele><time>2026-05-01T14:21:49Z</time></trkpt><trkpt lat="44.88475247589847" lon="9.800472533258656"><ele>152.0</ele><time>2026-05-01T14:21:50Z</time></trkpt><trkpt lat="44.884521098235155" lon="9.800438699304785"><ele>152.0</ele><time>2026-05-01T14:21:51Z</time></trkpt><trkpt lat="44.8842954214238" lon="9.800381845620988"><ele>152.0</ele><time>2026-05-01T14:21:52Z</time></trkpt><trkpt lat="44.88406226064502" lon="9.80032439098166"><ele>153.5</ele><time>2026-05-01T14:21:53Z</time></trkpt><trkpt lat="44.88382780932322" lon="9.800269681347238"><ele>155.0</ele><time>2026-05-01T14:21:54Z</time></trkpt><trkpt lat="44.88359593801649" lon="9.800208554198719"><ele>154.0</ele><time>2026-05-01T14:21:55Z</time></trkpt><trkpt lat="44.883367255197285" lon="9.800152129608088"><ele>153.0</ele><time>2026-05-01T14:21:56Z</time></trkpt><trkpt lat="44.88314295482539" lon="9.800087836774056"><ele>153.0</ele><time>2026-05-01T14:21:57Z</time></trkpt><trkpt lat="44.882914388047865" lon="9.800033061307136"><ele>153.0</ele><time>2026-05-01T14:21:58Z</time></trkpt><trkpt lat="44.882690219343644" lon="9.799976953959352"><ele>153.0</ele><time>2026-05-01T14:21:59Z</time></trkpt><trkpt lat="44.882470286706294" lon="9.79990657330422"><ele>153.0</ele><time>2026-05-01T14:22:00Z</time></trkpt><trkpt lat="44.882249501665925" lon="9.79985226533384"><ele>153.0</ele><time>2026-05-01T14:22:01Z</time></trkpt><trkpt lat="44.88202701068743" lon="9.799797488059225"><ele>153.0</ele><time>2026-05-01T14:22:02Z</time></trkpt><trkpt lat="44.88180968426325" lon="9.799743325062321"><ele>153.0</ele><time>2026-05-01T14:22:03Z</time></trkpt><trkpt lat="44.88158690909345" lon="9.799688143862722"><ele>155.0</ele><time>2026-05-01T14:22:04Z</time></trkpt><trkpt lat="44.88136513108507" lon="9.799655211755757"><ele>157.0</ele><time>2026-05-01T14:22:05Z</time></trkpt><trkpt lat="44.881146678773234" lon="9.799596911877261"><ele>159.0</ele><time>2026-05-01T14:22:06Z</time></trkpt><trkpt lat="44.88092759441447" lon="9.79954752730158"><ele>159.33333333333334</ele><time>2026-05-01T14:22:07Z</time></trkpt><trkpt lat="44.880708953563406" lon="9.79949764312582"><ele>159.66666666666669</ele><time>2026-05-01T14:22:08Z</time></trkpt><trkpt lat="44.88048826373806" lon="9.799445625125754"><ele>160.0</ele><time>2026-05-01T14:22:09Z</time></trkpt><trkpt lat="44.880282434462025" lon="9.799392317467184"><ele>161.0</ele><time>2026-05-01T14:22:10Z</time></trkpt><trkpt lat="44.88009471668917" lon="9.7993483109481"><ele>162.0</ele><time>2026-05-01T14:22:11Z</time></trkpt><trkpt lat="44.87992591566973" lon="9.799317911754525"><ele>163.0</ele><time>2026-05-01T14:22:12Z</time></trkpt><trkpt lat="44.879764048067315" lon="9.7993178861417"><ele>163.0</ele><time>2026-05-01T14:22:12.999Z</time></trkpt><trkpt lat="44.8795925581985" lon="9.799354599695118"><ele>163.0</ele><time>2026-05-01T14:22:13.999Z</time></trkpt><trkpt lat="44.87940590338758" lon="9.799348791626626"><ele>163.0</ele><time>2026-05-01T14:22:14.999Z</time></trkpt><trkpt lat="44.87919943080121" lon="9.799309669310398"><ele>164.33333333333334</ele><time>2026-05-01T14:22:15.999Z</time></trkpt><trkpt lat="44.878986975935675" lon="9.799256117999892"><ele>165.66666666666666</ele><time>2026-05-01T14:22:17Z</time></trkpt><trkpt lat="44.87876728916767" lon="9.799208856305485"><ele>167.0</ele><time>2026-05-01T14:22:18Z</time></trkpt><trkpt lat="44.87856985496651" lon="9.799172405641636"><ele>167.33333333333331</ele><time>2026-05-01T14:22:19Z</time></trkpt><trkpt lat="44.878382869784794" lon="9.799141981741561"><ele>167.66666666666666</ele><time>2026-05-01T14:22:20Z</time></trkpt><trkpt lat="44.87819264032835" lon="9.799118798477178"><ele>168.0</ele><time>2026-05-01T14:22:21Z</time></trkpt><trkpt lat="44.877999061234895" lon="9.799091023673762"><ele>168.0</ele><time>2026-05-01T14:22:22Z</time></trkpt><trkpt lat="44.87780175131473" lon="9.79906400574806"><ele>168.0</ele><time>2026-05-01T14:22:23Z</time></trkpt><trkpt lat="44.877588197674605" lon="9.79902866559097"><ele>168.0</ele><time>2026-05-01T14:22:24Z</time></trkpt><trkpt lat="44.87737129906695" lon="9.798995825567395"><ele>168.75</ele><time>2026-05-01T14:22:25Z</time></trkpt><trkpt lat="44.877181664915085" lon="9.798966128254605"><ele>169.5</ele><time>2026-05-01T14:22:26Z</time></trkpt><trkpt lat="44.87704602945026" lon="9.798952099694105"><ele>170.25</ele><time>2026-05-01T14:22:27Z</time></trkpt><trkpt lat="44.876951272580946" lon="9.798945989366358"><ele>171.0</ele><time>2026-05-01T14:22:28Z</time></trkpt><trkpt lat="44.87688594218934" lon="9.798986041270478"><ele>171.0</ele><time>2026-05-01T14:22:29Z</time></trkpt><trkpt lat="44.87683989808753" lon="9.799090338431178"><ele>171.0</ele><time>2026-05-01T14:22:30Z</time></trkpt><trkpt lat="44.87680045986715" lon="9.799255938024038"><ele>171.0</ele><time>2026-05-01T14:22:31Z</time></trkpt><trkpt lat="44.87677213454395" lon="9.799460759545864"><ele>171.0</ele><time>2026-05-01T14:22:32Z</time></trkpt><trkpt lat="44.87674383597921" lon="9.799571368693071"><ele>171.0</ele><time>2026-05-01T14:22:33Z</time></trkpt><trkpt lat="44.87667761110599" lon="9.79959221573031"><ele>173.75</ele><time>2026-05-01T14:22:34Z</time></trkpt><trkpt lat="44.87657115196153" lon="9.79956879345494"><ele>176.5</ele><time>2026-05-01T14:22:35Z</time></trkpt><trkpt lat="44.876449466902066" lon="9.799504389240422"><ele>179.25</ele><time>2026-05-01T14:22:36Z</time></trkpt><trkpt lat="44.87634412028362" lon="9.799389461884866"><ele>182.0</ele><time>2026-05-01T14:22:37Z</time></trkpt><trkpt lat="44.876224348551006" lon="9.799224553026258"><ele>182.0</ele><time>2026-05-01T14:22:38Z</time></trkpt><trkpt lat="44.87615736928924" lon="9.799055021252965"><ele>182.0</ele><time>2026-05-01T14:22:39Z</time></trkpt><trkpt lat="44.8761171851256" lon="9.798916884696126"><ele>182.0</ele><time>2026-05-01T14:22:40Z</time></trkpt><trkpt lat="44.87600799503888" lon="9.798922007798025"><ele>182.0</ele><time>2026-05-01T14:22:42Z</time></trkpt><trkpt lat="44.875959125982895" lon="9.798980050783417"><ele>182.0</ele><time>2026-05-01T14:22:43Z</time></trkpt><trkpt lat="44.87589465574515" lon="9.799078882638616"><ele>184.5</ele><time>2026-05-01T14:22:44Z</time></trkpt><trkpt lat="44.8758363182216" lon="9.799130109111164"><ele>187.0</ele><time>2026-05-01T14:22:45Z</time></trkpt><trkpt lat="44.875719747290965" lon="9.799437009508152"><ele>189.5</ele><time>2026-05-01T14:22:46Z</time></trkpt><trkpt lat="44.87564530457298" lon="9.799442227958966"><ele>192.0</ele><time>2026-05-01T14:22:47Z</time></trkpt><trkpt lat="44.87551603188694" lon="9.799429648751083"><ele>192.33333333333331</ele><time>2026-05-01T14:22:48Z</time></trkpt><trkpt lat="44.87539569345417" lon="9.799389957431334"><ele>192.66666666666666</ele><time>2026-05-01T14:22:49Z</time></trkpt><trkpt lat="44.87521704689665" lon="9.799338917203345"><ele>193.0</ele><time>2026-05-01T14:22:50Z</time></trkpt><trkpt lat="44.87500753182476" lon="9.79925538944158"><ele>193.33333333333331</ele><time>2026-05-01T14:22:51Z</time></trkpt><trkpt lat="44.87484773464761" lon="9.79918420456892"><ele>193.66666666666669</ele><time>2026-05-01T14:22:52Z</time></trkpt><trkpt lat="44.87469820714149" lon="9.799090390952829"><ele>194.0</ele><time>2026-05-01T14:22:53Z</time></trkpt><trkpt lat="44.87455718722668" lon="9.798932732722077"><ele>194.0</ele><time>2026-05-01T14:22:54Z</time></trkpt><trkpt lat="44.87438438918982" lon="9.798735964664184"><ele>194.0</ele><time>2026-05-01T14:22:55Z</time></trkpt><trkpt lat="44.87420567718344" lon="9.79857716477175"><ele>194.0</ele><time>2026-05-01T14:22:56Z</time></trkpt><trkpt lat="44.87401222101463" lon="9.798447445906023"><ele>195.5</ele><time>2026-05-01T14:22:57Z</time></trkpt><trkpt lat="44.873799872613596" lon="9.798309389682744"><ele>197.0</ele><time>2026-05-01T14:22:58Z</time></trkpt><trkpt lat="44.87356893995548" lon="9.79814937191776"><ele>199.0</ele><time>2026-05-01T14:22:59Z</time></trkpt><trkpt lat="44.873358442446204" lon="9.797983988713252"><ele>201.0</ele><time>2026-05-01T14:23:00Z</time></trkpt><trkpt lat="44.873145063378495" lon="9.797839203151808"><ele>201.0</ele><time>2026-05-01T14:23:01Z</time></trkpt><trkpt lat="44.87293491652434" lon="9.797702601788844"><ele>201.0</ele><time>2026-05-01T14:23:02Z</time></trkpt><trkpt lat="44.872744549924285" lon="9.797575768708404"><ele>201.0</ele><time>2026-05-01T14:23:03Z</time></trkpt><trkpt lat="44.87256074660628" lon="9.79744248609844"><ele>202.25</ele><time>2026-05-01T14:23:04Z</time></trkpt><trkpt lat="44.8724338535512" lon="9.797346065411523"><ele>203.5</ele><time>2026-05-01T14:23:05Z</time></trkpt><trkpt lat="44.87232622770913" lon="9.797293160735226"><ele>204.75</ele><time>2026-05-01T14:23:06Z</time></trkpt><trkpt lat="44.872204622721675" lon="9.797283010497583"><ele>206.0</ele><time>2026-05-01T14:23:07Z</time></trkpt><trkpt lat="44.87206302070966" lon="9.797329290736517"><ele>206.0</ele><time>2026-05-01T14:23:08Z</time></trkpt><trkpt lat="44.87192356159201" lon="9.797409150078298"><ele>206.0</ele><time>2026-05-01T14:23:09Z</time></trkpt><trkpt lat="44.87180003874199" lon="9.79742188845939"><ele>206.0</ele><time>2026-05-01T14:23:10Z</time></trkpt><trkpt lat="44.87166343278552" lon="9.797368654723245"><ele>206.0</ele><time>2026-05-01T14:23:11Z</time></trkpt><trkpt lat="44.871502893933425" lon="9.79726980013686"><ele>206.66666666666669</ele><time>2026-05-01T14:23:12Z</time></trkpt><trkpt lat="44.87132389786814" lon="9.79714640030791"><ele>207.33333333333331</ele><time>2026-05-01T14:23:13Z</time></trkpt><trkpt lat="44.87113362019771" lon="9.797012840613831"><ele>208.0</ele><time>2026-05-01T14:23:14Z</time></trkpt><trkpt lat="44.87093864725697" lon="9.796851478866122"><ele>210.5</ele><time>2026-05-01T14:23:15Z</time></trkpt><trkpt lat="44.870726470715205" lon="9.796714481799903"><ele>213.0</ele><time>2026-05-01T14:23:16Z</time></trkpt><trkpt lat="44.87051279053884" lon="9.796577757740137"><ele>213.0</ele><time>2026-05-01T14:23:17Z</time></trkpt><trkpt lat="44.87029324395129" lon="9.796437280040719"><ele>213.0</ele><time>2026-05-01T14:23:18Z</time></trkpt><trkpt lat="44.87008243139481" lon="9.796328349673919"><ele>212.66666666666669</ele><time>2026-05-01T14:23:19Z</time></trkpt><trkpt lat="44.869888897337965" lon="9.796182270474368"><ele>212.33333333333334</ele><time>2026-05-01T14:23:20Z</time></trkpt><trkpt lat="44.869689238578104" lon="9.796078219240838"><ele>212.0</ele><time>2026-05-01T14:23:21Z</time></trkpt><trkpt lat="44.869520528247875" lon="9.795968648495219"><ele>212.0</ele><time>2026-05-01T14:23:22Z</time></trkpt><trkpt lat="44.8693962114879" lon="9.79583278754148"><ele>212.0</ele><time>2026-05-01T14:23:23Z</time></trkpt><trkpt lat="44.869276916112284" lon="9.795705664120945"><ele>212.0</ele><time>2026-05-01T14:23:24Z</time></trkpt><trkpt lat="44.86914337610055" lon="9.795551933512192"><ele>212.0</ele><time>2026-05-01T14:23:25Z</time></trkpt><trkpt lat="44.868995006796375" lon="9.795369801597563"><ele>212.0</ele><time>2026-05-01T14:23:26Z</time></trkpt><trkpt lat="44.86885792762036" lon="9.795175450703177"><ele>212.0</ele><time>2026-05-01T14:23:27Z</time></trkpt><trkpt lat="44.86875024909198" lon="9.79499460824668"><ele>213.0</ele><time>2026-05-01T14:23:28Z</time></trkpt><trkpt lat="44.86862942522165" lon="9.7948577271801"><ele>214.0</ele><time>2026-05-01T14:23:29Z</time></trkpt><trkpt lat="44.86853614285677" lon="9.794734548720243"><ele>215.0</ele><time>2026-05-01T14:23:30Z</time></trkpt><trkpt lat="44.86845066280188" lon="9.794656138615004"><ele>216.0</ele><time>2026-05-01T14:23:31Z</time></trkpt><trkpt lat="44.86832155739684" lon="9.794598406153867"><ele>216.0</ele><time>2026-05-01T14:23:32Z</time></trkpt><trkpt lat="44.86815575352911" lon="9.794492425379271"><ele>216.0</ele><time>2026-05-01T14:23:33Z</time></trkpt><trkpt lat="44.86796476403293" lon="9.794378623937549"><ele>216.0</ele><time>2026-05-01T14:23:34Z</time></trkpt><trkpt lat="44.86774479707304" lon="9.79426350929764"><ele>217.33333333333331</ele><time>2026-05-01T14:23:35Z</time></trkpt><trkpt lat="44.867535427196245" lon="9.794142921255911"><ele>218.66666666666666</ele><time>2026-05-01T14:23:36Z</time></trkpt><trkpt lat="44.86736811322653" lon="9.794040013665697"><ele>220.0</ele><time>2026-05-01T14:23:37Z</time></trkpt><trkpt lat="44.86720438388932" lon="9.793938264108537"><ele>220.0</ele><time>2026-05-01T14:23:38Z</time></trkpt><trkpt lat="44.86704015768259" lon="9.793821014365188"><ele>220.0</ele><time>2026-05-01T14:23:39Z</time></trkpt><trkpt lat="44.866857206646124" lon="9.79371096514068"><ele>220.0</ele><time>2026-05-01T14:23:40Z</time></trkpt><trkpt lat="44.86668684215476" lon="9.79360835327713"><ele>221.66666666666666</ele><time>2026-05-01T14:23:41Z</time></trkpt><trkpt lat="44.8664994482468" lon="9.793496408779475"><ele>223.33333333333331</ele><time>2026-05-01T14:23:42Z</time></trkpt><trkpt lat="44.86635700851092" lon="9.793413621256637"><ele>225.0</ele><time>2026-05-01T14:23:43Z</time></trkpt><trkpt lat="44.86618634336027" lon="9.793312867624556"><ele>225.0</ele><time>2026-05-01T14:23:44Z</time></trkpt><trkpt lat="44.866022622685314" lon="9.793213965634072"><ele>225.0</ele><time>2026-05-01T14:23:45Z</time></trkpt><trkpt lat="44.86585265169399" lon="9.79310747648758"><ele>225.0</ele><time>2026-05-01T14:23:46Z</time></trkpt><trkpt lat="44.865686467335145" lon="9.79299481153856"><ele>225.0</ele><time>2026-05-01T14:23:47Z</time></trkpt><trkpt lat="44.865522001667145" lon="9.792874397410015"><ele>225.0</ele><time>2026-05-01T14:23:48Z</time></trkpt><trkpt lat="44.86533533740913" lon="9.792731865706054"><ele>225.0</ele><time>2026-05-01T14:23:49Z</time></trkpt><trkpt lat="44.865142760397646" lon="9.792582665479792"><ele>225.33333333333331</ele><time>2026-05-01T14:23:50Z</time></trkpt><trkpt lat="44.86496080241324" lon="9.792451287439103"><ele>225.66666666666666</ele><time>2026-05-01T14:23:51Z</time></trkpt><trkpt lat="44.86476200379534" lon="9.792330345611212"><ele>226.0</ele><time>2026-05-01T14:23:52Z</time></trkpt><trkpt lat="44.86457844187412" lon="9.79226325561194"><ele>226.0</ele><time>2026-05-01T14:23:53Z</time></trkpt><trkpt lat="44.86438622436957" lon="9.792193990423455"><ele>226.0</ele><time>2026-05-01T14:23:54Z</time></trkpt><trkpt lat="44.864183805927766" lon="9.792144487697229"><ele>226.0</ele><time>2026-05-01T14:23:55Z</time></trkpt><trkpt lat="44.863958818572314" lon="9.79210712206522"><ele>225.66666666666666</ele><time>2026-05-01T14:23:56Z</time></trkpt><trkpt lat="44.86373968098946" lon="9.792035966992595"><ele>225.33333333333331</ele><time>2026-05-01T14:23:57Z</time></trkpt><trkpt lat="44.8635466177163" lon="9.791974398912195"><ele>225.0</ele><time>2026-05-01T14:23:58Z</time></trkpt><trkpt lat="44.86338659933426" lon="9.791923169703665"><ele>225.0</ele><time>2026-05-01T14:23:59Z</time></trkpt><trkpt lat="44.86321676798283" lon="9.791896935981235"><ele>225.0</ele><time>2026-05-01T14:24:00Z</time></trkpt><trkpt lat="44.863064155502656" lon="9.791869316923021"><ele>225.0</ele><time>2026-05-01T14:24:01Z</time></trkpt><trkpt lat="44.862911474686875" lon="9.791837280292452"><ele>225.25</ele><time>2026-05-01T14:24:02Z</time></trkpt><trkpt lat="44.86278088325971" lon="9.791768453290311"><ele>225.5</ele><time>2026-05-01T14:24:03Z</time></trkpt><trkpt lat="44.86267566839771" lon="9.791675940763438"><ele>225.75</ele><time>2026-05-01T14:24:04Z</time></trkpt><trkpt lat="44.862536772118155" lon="9.791559977040299"><ele>226.0</ele><time>2026-05-01T14:24:05Z</time></trkpt><trkpt lat="44.86236192825957" lon="9.791451073519267"><ele>227.33333333333331</ele><time>2026-05-01T14:24:06Z</time></trkpt><trkpt lat="44.862177787021736" lon="9.791369949892866"><ele>228.66666666666669</ele><time>2026-05-01T14:24:07Z</time></trkpt><trkpt lat="44.861958703588876" lon="9.791315948514441"><ele>230.0</ele><time>2026-05-01T14:24:08Z</time></trkpt><trkpt lat="44.86172205056857" lon="9.791270777279038"><ele>232.5</ele><time>2026-05-01T14:24:09Z</time></trkpt><trkpt lat="44.861501320282734" lon="9.791202577838153"><ele>235.0</ele><time>2026-05-01T14:24:10Z</time></trkpt><trkpt lat="44.8612762495604" lon="9.791130475276384"><ele>235.0</ele><time>2026-05-01T14:24:11Z</time></trkpt><trkpt lat="44.86106104731835" lon="9.791036866223374"><ele>235.0</ele><time>2026-05-01T14:24:12Z</time></trkpt><trkpt lat="44.860842978255235" lon="9.790987718590838"><ele>235.0</ele><time>2026-05-01T14:24:13Z</time></trkpt><trkpt lat="44.860643978442354" lon="9.790921254072055"><ele>239.0</ele><time>2026-05-01T14:24:14Z</time></trkpt><trkpt lat="44.86047925110932" lon="9.790832777861722"><ele>243.0</ele><time>2026-05-01T14:24:15Z</time></trkpt><trkpt lat="44.86031534888383" lon="9.790750014673625"><ele>247.0</ele><time>2026-05-01T14:24:16Z</time></trkpt><trkpt lat="44.86016542067617" lon="9.79066108098491"><ele>250.66666666666666</ele><time>2026-05-01T14:24:17Z</time></trkpt><trkpt lat="44.86001965682136" lon="9.79056304584721"><ele>254.33333333333331</ele><time>2026-05-01T14:24:18Z</time></trkpt><trkpt lat="44.85985270775687" lon="9.790437607457962"><ele>258.0</ele><time>2026-05-01T14:24:19Z</time></trkpt><trkpt lat="44.85966840976425" lon="9.790284768497408"><ele>259.5</ele><time>2026-05-01T14:24:20Z</time></trkpt><trkpt lat="44.8594692887996" lon="9.790113372585058"><ele>261.0</ele><time>2026-05-01T14:24:21Z</time></trkpt><trkpt lat="44.85926461656879" lon="9.789932633765064"><ele>261.0</ele><time>2026-05-01T14:24:22Z</time></trkpt><trkpt lat="44.85905705432954" lon="9.789776733963036"><ele>261.0</ele><time>2026-05-01T14:24:23Z</time></trkpt><trkpt lat="44.858856135345654" lon="9.789603265414655"><ele>261.0</ele><time>2026-05-01T14:24:24Z</time></trkpt><trkpt lat="44.858656507425216" lon="9.78944023428844"><ele>261.0</ele><time>2026-05-01T14:24:25Z</time></trkpt><trkpt lat="44.85847955899203" lon="9.78926752924361"><ele>261.0</ele><time>2026-05-01T14:24:26Z</time></trkpt><trkpt lat="44.858316311089894" lon="9.789144788728104"><ele>263.0</ele><time>2026-05-01T14:24:27Z</time></trkpt><trkpt lat="44.858157706470486" lon="9.789040824561061"><ele>265.0</ele><time>2026-05-01T14:24:28Z</time></trkpt><trkpt lat="44.85798961105732" lon="9.788968942969024"><ele>267.0</ele><time>2026-05-01T14:24:29Z</time></trkpt><trkpt lat="44.85781160139148" lon="9.788894138855893"><ele>267.0</ele><time>2026-05-01T14:24:30Z</time></trkpt><trkpt lat="44.85761297407573" lon="9.788820948543329"><ele>267.0</ele><time>2026-05-01T14:24:31Z</time></trkpt><trkpt lat="44.857410166692716" lon="9.78875574055525"><ele>267.0</ele><time>2026-05-01T14:24:32Z</time></trkpt><trkpt lat="44.857245222754074" lon="9.788705236250543"><ele>267.0</ele><time>2026-05-01T14:24:33Z</time></trkpt><trkpt lat="44.85712049747003" lon="9.788683507762812"><ele>267.0</ele><time>2026-05-01T14:24:34Z</time></trkpt><trkpt lat="44.856979044949775" lon="9.788705244992478"><ele>267.0</ele><time>2026-05-01T14:24:35Z</time></trkpt><trkpt lat="44.85680305672428" lon="9.788779515890496"><ele>269.3333333333333</ele><time>2026-05-01T14:24:36Z</time></trkpt><trkpt lat="44.85659896131913" lon="9.788839399535266"><ele>271.66666666666663</ele><time>2026-05-01T14:24:37Z</time></trkpt><trkpt lat="44.85637709761714" lon="9.78889856916625"><ele>274.0</ele><time>2026-05-01T14:24:38Z</time></trkpt><trkpt lat="44.856187493826006" lon="9.788957500112575"><ele>274.0</ele><time>2026-05-01T14:24:39Z</time></trkpt><trkpt lat="44.85602823577754" lon="9.789003053859064"><ele>274.0</ele><time>2026-05-01T14:24:40Z</time></trkpt><trkpt lat="44.85588482993459" lon="9.78900798074708"><ele>274.0</ele><time>2026-05-01T14:24:41Z</time></trkpt><trkpt lat="44.85573929095556" lon="9.789022279167533"><ele>277.66666666666663</ele><time>2026-05-01T14:24:42Z</time></trkpt><trkpt lat="44.85558077207023" lon="9.789023262262328"><ele>281.3333333333333</ele><time>2026-05-01T14:24:43Z</time></trkpt><trkpt lat="44.85541762239236" lon="9.789018059496243"><ele>285.0</ele><time>2026-05-01T14:24:44Z</time></trkpt><trkpt lat="44.85528079361828" lon="9.78902928280768"><ele>285.0</ele><time>2026-05-01T14:24:45Z</time></trkpt><trkpt lat="44.855168092360955" lon="9.789040162504389"><ele>285.0</ele><time>2026-05-01T14:24:46Z</time></trkpt><trkpt lat="44.855053779481985" lon="9.789083175238847"><ele>285.0</ele><time>2026-05-01T14:24:47Z</time></trkpt><trkpt lat="44.85493890774217" lon="9.789163464279204"><ele>285.0</ele><time>2026-05-01T14:24:48Z</time></trkpt><trkpt lat="44.854784191435485" lon="9.789203785144622"><ele>288.6666666666667</ele><time>2026-05-01T14:24:49Z</time></trkpt><trkpt lat="44.85462261797301" lon="9.789217181695962"><ele>292.33333333333337</ele><time>2026-05-01T14:24:50Z</time></trkpt><trkpt lat="44.85447737639105" lon="9.789181881669045"><ele>296.0</ele><time>2026-05-01T14:24:51Z</time></trkpt><trkpt lat="44.854303948933925" lon="9.78910421947784"><ele>297.33333333333337</ele><time>2026-05-01T14:24:52Z</time></trkpt><trkpt lat="44.85411501238251" lon="9.789013944451526"><ele>298.6666666666667</ele><time>2026-05-01T14:24:53Z</time></trkpt><trkpt lat="44.8539244833596" lon="9.788923897898815"><ele>300.0</ele><time>2026-05-01T14:24:54Z</time></trkpt><trkpt lat="44.85376337695011" lon="9.788849442563098"><ele>300.0</ele><time>2026-05-01T14:24:55Z</time></trkpt><trkpt lat="44.85361511199151" lon="9.78879655487663"><ele>300.0</ele><time>2026-05-01T14:24:56Z</time></trkpt><trkpt lat="44.853465449690795" lon="9.78872443869592"><ele>300.0</ele><time>2026-05-01T14:24:56.999Z</time></trkpt><trkpt lat="44.85331164389192" lon="9.788645350568295"><ele>301.6666666666667</ele><time>2026-05-01T14:24:58Z</time></trkpt><trkpt lat="44.85316081469257" lon="9.788543876088367"><ele>303.33333333333337</ele><time>2026-05-01T14:24:59Z</time></trkpt><trkpt lat="44.85299889502349" lon="9.788459276101793"><ele>305.0</ele><time>2026-05-01T14:25:00Z</time></trkpt><trkpt lat="44.85283259243866" lon="9.788363805643344"><ele>306.33333333333337</ele><time>2026-05-01T14:25:01Z</time></trkpt><trkpt lat="44.85266428153772" lon="9.788262195950555"><ele>307.6666666666667</ele><time>2026-05-01T14:25:02Z</time></trkpt><trkpt lat="44.85248370447914" lon="9.78817984853589"><ele>309.0</ele><time>2026-05-01T14:25:03Z</time></trkpt><trkpt lat="44.85231519328288" lon="9.78807389580366"><ele>311.6666666666667</ele><time>2026-05-01T14:25:04Z</time></trkpt><trkpt lat="44.852146915927" lon="9.787999182480076"><ele>314.33333333333337</ele><time>2026-05-01T14:25:05Z</time></trkpt><trkpt lat="44.85198085006834" lon="9.787929961948128"><ele>317.0</ele><time>2026-05-01T14:25:06Z</time></trkpt><trkpt lat="44.851807348660216" lon="9.787857358095577"><ele>320.6666666666667</ele><time>2026-05-01T14:25:07Z</time></trkpt><trkpt lat="44.851633300085716" lon="9.787795880353404"><ele>324.3333333333333</ele><time>2026-05-01T14:25:08Z</time></trkpt><trkpt lat="44.85145677653433" lon="9.787733577015075"><ele>328.0</ele><time>2026-05-01T14:25:09Z</time></trkpt><trkpt lat="44.85128667831841" lon="9.787710733298878"><ele>328.0</ele><time>2026-05-01T14:25:10Z</time></trkpt><trkpt lat="44.85112451726138" lon="9.787721160329127"><ele>328.0</ele><time>2026-05-01T14:25:11Z</time></trkpt><trkpt lat="44.85096620823494" lon="9.787744084259748"><ele>328.0</ele><time>2026-05-01T14:25:12Z</time></trkpt><trkpt lat="44.8508144820436" lon="9.787771762489047"><ele>328.75</ele><time>2026-05-01T14:25:13Z</time></trkpt><trkpt lat="44.85066328885407" lon="9.787754568845715"><ele>329.5</ele><time>2026-05-01T14:25:14Z</time></trkpt><trkpt lat="44.85052104562739" lon="9.787727110793746"><ele>330.25</ele><time>2026-05-01T14:25:15Z</time></trkpt><trkpt lat="44.850379266367845" lon="9.787672256614785"><ele>331.0</ele><time>2026-05-01T14:25:16Z</time></trkpt><trkpt lat="44.85025229828089" lon="9.787596978707448"><ele>333.3333333333333</ele><time>2026-05-01T14:25:17Z</time></trkpt><trkpt lat="44.850109323374745" lon="9.787507326515309"><ele>335.6666666666667</ele><time>2026-05-01T14:25:18Z</time></trkpt><trkpt lat="44.84995175509404" lon="9.787404128735451"><ele>338.0</ele><time>2026-05-01T14:25:19Z</time></trkpt><trkpt lat="44.84978237435304" lon="9.787309865562548"><ele>338.0</ele><time>2026-05-01T14:25:20Z</time></trkpt><trkpt lat="44.84960778576944" lon="9.787206434800089"><ele>338.0</ele><time>2026-05-01T14:25:21Z</time></trkpt><trkpt lat="44.84944618694856" lon="9.787103843033059"><ele>338.0</ele><time>2026-05-01T14:25:22Z</time></trkpt><trkpt lat="44.849291980526175" lon="9.787003841793082"><ele>337.6666666666667</ele><time>2026-05-01T14:25:23Z</time></trkpt><trkpt lat="44.84914088528251" lon="9.786903479246325"><ele>337.3333333333333</ele><time>2026-05-01T14:25:24Z</time></trkpt><trkpt lat="44.849001290343175" lon="9.786784399175337"><ele>337.0</ele><time>2026-05-01T14:25:25Z</time></trkpt><trkpt lat="44.848851522973746" lon="9.786683584812918"><ele>337.0</ele><time>2026-05-01T14:25:26Z</time></trkpt><trkpt lat="44.84872116199367" lon="9.786591651363697"><ele>337.0</ele><time>2026-05-01T14:25:27Z</time></trkpt><trkpt lat="44.84862163936298" lon="9.786516305499319"><ele>337.0</ele><time>2026-05-01T14:25:28Z</time></trkpt><trkpt lat="44.84855439859083" lon="9.786443859555128"><ele>337.0</ele><time>2026-05-01T14:25:29Z</time></trkpt><trkpt lat="44.84850449335463" lon="9.786352285130555"><ele>337.0</ele><time>2026-05-01T14:25:30Z</time></trkpt><trkpt lat="44.84845610370251" lon="9.786224611723926"><ele>337.0</ele><time>2026-05-01T14:25:31Z</time></trkpt><trkpt lat="44.84839555325926" lon="9.78605014364129"><ele>337.0</ele><time>2026-05-01T14:25:32Z</time></trkpt><trkpt lat="44.84829870581573" lon="9.785850193862654"><ele>337.0</ele><time>2026-05-01T14:25:33Z</time></trkpt><trkpt lat="44.84820707012691" lon="9.785694956844301"><ele>337.0</ele><time>2026-05-01T14:25:34Z</time></trkpt><trkpt lat="44.84811230431671" lon="9.785583491158542"><ele>337.0</ele><time>2026-05-01T14:25:35Z</time></trkpt><trkpt lat="44.848016335919795" lon="9.785504944143687"><ele>337.0</ele><time>2026-05-01T14:25:36Z</time></trkpt><trkpt lat="44.84791139280583" lon="9.785454116152819"><ele>337.0</ele><time>2026-05-01T14:25:37Z</time></trkpt><trkpt lat="44.84778733790383" lon="9.785440275214608"><ele>337.0</ele><time>2026-05-01T14:25:38Z</time></trkpt><trkpt lat="44.84764901232163" lon="9.785477393580683"><ele>337.0</ele><time>2026-05-01T14:25:39Z</time></trkpt><trkpt lat="44.84751282940521" lon="9.78552536974415"><ele>337.0</ele><time>2026-05-01T14:25:40Z</time></trkpt><trkpt lat="44.84738495033829" lon="9.785553256028633"><ele>337.0</ele><time>2026-05-01T14:25:41Z</time></trkpt><trkpt lat="44.84723211257183" lon="9.785504509646218"><ele>337.3333333333333</ele><time>2026-05-01T14:25:42Z</time></trkpt><trkpt lat="44.84707320106344" lon="9.785455762934074"><ele>337.6666666666667</ele><time>2026-05-01T14:25:43Z</time></trkpt><trkpt lat="44.84690367606936" lon="9.785402595079745"><ele>338.0</ele><time>2026-05-01T14:25:44Z</time></trkpt><trkpt lat="44.84675747681857" lon="9.785341301281031"><ele>337.0</ele><time>2026-05-01T14:25:45Z</time></trkpt><trkpt lat="44.846639552278226" lon="9.78526276484577"><ele>336.0</ele><time>2026-05-01T14:25:46Z</time></trkpt><trkpt lat="44.846523613990605" lon="9.785166530435674"><ele>335.0</ele><time>2026-05-01T14:25:47Z</time></trkpt><trkpt lat="44.84640194667841" lon="9.785054490341112"><ele>334.0</ele><time>2026-05-01T14:25:48Z</time></trkpt><trkpt lat="44.8462537819865" lon="9.784953653013487"><ele>334.0</ele><time>2026-05-01T14:25:49Z</time></trkpt><trkpt lat="44.846124568452424" lon="9.784830993951312"><ele>334.0</ele><time>2026-05-01T14:25:50Z</time></trkpt><trkpt lat="44.8459945030236" lon="9.784764159236069"><ele>334.0</ele><time>2026-05-01T14:25:51Z</time></trkpt><trkpt lat="44.84587595033317" lon="9.784694487760301"><ele>334.0</ele><time>2026-05-01T14:25:52Z</time></trkpt><trkpt lat="44.845779247005694" lon="9.784669824066361"><ele>333.75</ele><time>2026-05-01T14:25:53Z</time></trkpt><trkpt lat="44.845657247241576" lon="9.78473085463334"><ele>333.5</ele><time>2026-05-01T14:25:55Z</time></trkpt><trkpt lat="44.845574028897154" lon="9.784819808330992"><ele>333.25</ele><time>2026-05-01T14:25:56Z</time></trkpt><trkpt lat="44.84547654415574" lon="9.78493810192528"><ele>333.0</ele><time>2026-05-01T14:25:57Z</time></trkpt><trkpt lat="44.84535742270481" lon="9.785081666243737"><ele>335.0</ele><time>2026-05-01T14:25:58Z</time></trkpt><trkpt lat="44.84523439931241" lon="9.785251628054738"><ele>337.0</ele><time>2026-05-01T14:25:59Z</time></trkpt><trkpt lat="44.84514183594494" lon="9.785418479862651"><ele>339.0</ele><time>2026-05-01T14:26:00Z</time></trkpt><trkpt lat="44.845060800263475" lon="9.785585322168343"><ele>339.0</ele><time>2026-05-01T14:26:01Z</time></trkpt><trkpt lat="44.84499612124415" lon="9.785731599221767"><ele>339.0</ele><time>2026-05-01T14:26:02Z</time></trkpt><trkpt lat="44.844936833056636" lon="9.785861016830614"><ele>339.0</ele><time>2026-05-01T14:26:03Z</time></trkpt><trkpt lat="44.844869066427535" lon="9.785995722810634"><ele>339.0</ele><time>2026-05-01T14:26:04Z</time></trkpt><trkpt lat="44.844815745897534" lon="9.786110113380483"><ele>339.0</ele><time>2026-05-01T14:26:05Z</time></trkpt><trkpt lat="44.84475438499703" lon="9.786241778915159"><ele>339.0</ele><time>2026-05-01T14:26:07Z</time></trkpt><trkpt lat="44.844701947690425" lon="9.786293473949867"><ele>339.0</ele><time>2026-05-01T14:26:10Z</time></trkpt><trkpt lat="44.84477655630135" lon="9.786226271445424"><ele>339.0</ele><time>2026-05-01T14:26:30Z</time></trkpt><trkpt lat="44.844826866342224" lon="9.786119984072727"><ele>339.0</ele><time>2026-05-01T14:26:31Z</time></trkpt><trkpt lat="44.84489434516934" lon="9.785956864735297"><ele>339.0</ele><time>2026-05-01T14:26:32Z</time></trkpt><trkpt lat="44.845002768765866" lon="9.785788843962946"><ele>339.0</ele><time>2026-05-01T14:26:33Z</time></trkpt><trkpt lat="44.84509364813498" lon="9.785576857374455"><ele>339.0</ele><time>2026-05-01T14:26:34Z</time></trkpt><trkpt lat="44.84518583229905" lon="9.785425372201475"><ele>339.0</ele><time>2026-05-01T14:26:35Z</time></trkpt><trkpt lat="44.84527172509853" lon="9.785264607384773"><ele>337.5</ele><time>2026-05-01T14:26:36Z</time></trkpt><trkpt lat="44.84535221726597" lon="9.785115464278967"><ele>336.0</ele><time>2026-05-01T14:26:36.999Z</time></trkpt><trkpt lat="44.845462178060785" lon="9.78499592117986"><ele>334.5</ele><time>2026-05-01T14:26:37.999Z</time></trkpt><trkpt lat="44.84553491742731" lon="9.784913451564094"><ele>333.0</ele><time>2026-05-01T14:26:38.999Z</time></trkpt><trkpt lat="44.84560508682291" lon="9.784839580821005"><ele>333.0</ele><time>2026-05-01T14:26:39.999Z</time></trkpt><trkpt lat="44.84547288714547" lon="9.784721383063658"><ele>333.0</ele><time>2026-05-01T14:26:44.999Z</time></trkpt><trkpt lat="44.845369766026515" lon="9.784699896296729"><ele>333.0</ele><time>2026-05-01T14:26:45.999Z</time></trkpt><trkpt lat="44.845261307291935" lon="9.784622504467308"><ele>333.0</ele><time>2026-05-01T14:26:46.999Z</time></trkpt><trkpt lat="44.84514400199337" lon="9.784574251290499"><ele>333.75</ele><time>2026-05-01T14:26:47.999Z</time></trkpt><trkpt lat="44.845055193705015" lon="9.784565442298119"><ele>334.5</ele><time>2026-05-01T14:26:48.999Z</time></trkpt><trkpt lat="44.84496707791454" lon="9.784586408081557"><ele>335.25</ele><time>2026-05-01T14:26:49.999Z</time></trkpt><trkpt lat="44.844811541950286" lon="9.784660288169961"><ele>336.0</ele><time>2026-05-01T14:26:50.999Z</time></trkpt><trkpt lat="44.84468127866776" lon="9.784714954227283"><ele>336.0</ele><time>2026-05-01T14:26:51.999Z</time></trkpt><trkpt lat="44.84450799096796" lon="9.7847336505926"><ele>336.0</ele><time>2026-05-01T14:26:52.999Z</time></trkpt><trkpt lat="44.84434957256548" lon="9.784744596818499"><ele>336.0</ele><time>2026-05-01T14:26:53.999Z</time></trkpt><trkpt lat="44.84421375628366" lon="9.784756326578115"><ele>336.25</ele><time>2026-05-01T14:26:55Z</time></trkpt><trkpt lat="44.844098113701214" lon="9.784801084825519"><ele>336.5</ele><time>2026-05-01T14:26:56Z</time></trkpt><trkpt lat="44.84399149343075" lon="9.784889003925986"><ele>336.75</ele><time>2026-05-01T14:26:57Z</time></trkpt><trkpt lat="44.84387273834195" lon="9.784986212019927"><ele>337.0</ele><time>2026-05-01T14:26:58Z</time></trkpt><trkpt lat="44.843753822201904" lon="9.785037983182477"><ele>337.0</ele><time>2026-05-01T14:26:59Z</time></trkpt><trkpt lat="44.84364801141269" lon="9.785085938621872"><ele>337.0</ele><time>2026-05-01T14:27:00Z</time></trkpt><trkpt lat="44.84354691263341" lon="9.785091700302221"><ele>337.0</ele><time>2026-05-01T14:27:01Z</time></trkpt><trkpt lat="44.843437873450384" lon="9.785033980070377"><ele>337.0</ele><time>2026-05-01T14:27:02Z</time></trkpt><trkpt lat="44.843299569675516" lon="9.784979786244742"><ele>336.25</ele><time>2026-05-01T14:27:03Z</time></trkpt><trkpt lat="44.84315465807392" lon="9.784920788024568"><ele>335.5</ele><time>2026-05-01T14:27:04Z</time></trkpt><trkpt lat="44.84300768966585" lon="9.784859616617059"><ele>334.75</ele><time>2026-05-01T14:27:05Z</time></trkpt><trkpt lat="44.8428896704367" lon="9.784813745570887"><ele>334.0</ele><time>2026-05-01T14:27:06Z</time></trkpt><trkpt lat="44.84277996600838" lon="9.784773529914125"><ele>334.0</ele><time>2026-05-01T14:27:07Z</time></trkpt><trkpt lat="44.84266792189118" lon="9.784755493885273"><ele>334.0</ele><time>2026-05-01T14:27:08Z</time></trkpt><trkpt lat="44.84256136606099" lon="9.784690233017583"><ele>334.0</ele><time>2026-05-01T14:27:09Z</time></trkpt><trkpt lat="44.84246221052731" lon="9.784636884561069"><ele>334.0</ele><time>2026-05-01T14:27:10Z</time></trkpt><trkpt lat="44.84238231105159" lon="9.784593965204524"><ele>334.0</ele><time>2026-05-01T14:27:11Z</time></trkpt><trkpt lat="44.84239674287092" lon="9.784434150047764"><ele>334.79999999999995</ele><time>2026-05-01T14:27:12Z</time></trkpt><trkpt lat="44.84237169933692" lon="9.784296862188777"><ele>335.59999999999997</ele><time>2026-05-01T14:27:13Z</time></trkpt><trkpt lat="44.84234306576897" lon="9.784151265638574"><ele>336.4</ele><time>2026-05-01T14:27:14Z</time></trkpt><trkpt lat="44.842274475630255" lon="9.784040050076277"><ele>337.2</ele><time>2026-05-01T14:27:15Z</time></trkpt><trkpt lat="44.84220985569656" lon="9.783966265628488"><ele>338.0</ele><time>2026-05-01T14:27:16Z</time></trkpt><trkpt lat="44.84213929981333" lon="9.78394794524097"><ele>338.0</ele><time>2026-05-01T14:27:17Z</time></trkpt><trkpt lat="44.842071151468645" lon="9.783972664884704"><ele>338.0</ele><time>2026-05-01T14:27:18Z</time></trkpt><trkpt lat="44.84197594004339" lon="9.784045825834937"><ele>338.0</ele><time>2026-05-01T14:27:19Z</time></trkpt><trkpt lat="44.84188186427146" lon="9.784147517263596"><ele>338.0</ele><time>2026-05-01T14:27:20Z</time></trkpt><trkpt lat="44.841754403484245" lon="9.784266800557411"><ele>339.5</ele><time>2026-05-01T14:27:21Z</time></trkpt><trkpt lat="44.841650066553754" lon="9.78431811262009"><ele>341.0</ele><time>2026-05-01T14:27:22Z</time></trkpt><trkpt lat="44.84154250974049" lon="9.784415315004704"><ele>342.5</ele><time>2026-05-01T14:27:24Z</time></trkpt><trkpt lat="44.841461693228155" lon="9.784504352040475"><ele>344.0</ele><time>2026-05-01T14:27:25Z</time></trkpt><trkpt lat="44.841341722563676" lon="9.784528994355973"><ele>344.25</ele><time>2026-05-01T14:27:26Z</time></trkpt><trkpt lat="44.84121751638871" lon="9.784575937021307"><ele>344.5</ele><time>2026-05-01T14:27:27Z</time></trkpt><trkpt lat="44.84108124856628" lon="9.784609250894205"><ele>344.75</ele><time>2026-05-01T14:27:28Z</time></trkpt><trkpt lat="44.84096123957521" lon="9.784604836420153"><ele>345.0</ele><time>2026-05-01T14:27:29Z</time></trkpt><trkpt lat="44.84085180792221" lon="9.78455820587105"><ele>347.5</ele><time>2026-05-01T14:27:30Z</time></trkpt><trkpt lat="44.84072104275234" lon="9.784503891702895"><ele>350.0</ele><time>2026-05-01T14:27:31Z</time></trkpt><trkpt lat="44.84057244108805" lon="9.784482953933486"><ele>352.5</ele><time>2026-05-01T14:27:32Z</time></trkpt><trkpt lat="44.84041892926521" lon="9.784467035588131"><ele>355.0</ele><time>2026-05-01T14:27:33Z</time></trkpt><trkpt lat="44.840291452703724" lon="9.784437672173622"><ele>355.0</ele><time>2026-05-01T14:27:34Z</time></trkpt><trkpt lat="44.84020070630865" lon="9.784385071555624"><ele>355.0</ele><time>2026-05-01T14:27:35Z</time></trkpt><trkpt lat="44.84015490033097" lon="9.784270838340406"><ele>355.0</ele><time>2026-05-01T14:27:36Z</time></trkpt><trkpt lat="44.840085823064946" lon="9.784156277192936"><ele>355.0</ele><time>2026-05-01T14:27:37Z</time></trkpt><trkpt lat="44.8400215633648" lon="9.784060562136704"><ele>355.0</ele><time>2026-05-01T14:27:38Z</time></trkpt><trkpt lat="44.83994619281977" lon="9.784002617656444"><ele>357.4</ele><time>2026-05-01T14:27:39Z</time></trkpt><trkpt lat="44.83984351386071" lon="9.78401350530087"><ele>359.8</ele><time>2026-05-01T14:27:40Z</time></trkpt><trkpt lat="44.83973358705508" lon="9.784038079773225"><ele>362.20000000000005</ele><time>2026-05-01T14:27:41Z</time></trkpt><trkpt lat="44.8396443583732" lon="9.784094807761424"><ele>364.6</ele><time>2026-05-01T14:27:42Z</time></trkpt><trkpt lat="44.839582320890045" lon="9.784175731689166"><ele>367.0</ele><time>2026-05-01T14:27:43Z</time></trkpt><trkpt lat="44.83955630653167" lon="9.784284713373781"><ele>367.25</ele><time>2026-05-01T14:27:44Z</time></trkpt><trkpt lat="44.83955090885633" lon="9.78445471526557"><ele>367.5</ele><time>2026-05-01T14:27:45Z</time></trkpt><trkpt lat="44.83955222396044" lon="9.78468126320407"><ele>367.75</ele><time>2026-05-01T14:27:46Z</time></trkpt><trkpt lat="44.83953066481482" lon="9.784880730200548"><ele>368.0</ele><time>2026-05-01T14:27:47Z</time></trkpt><trkpt lat="44.83951847619507" lon="9.784976704108823"><ele>368.0</ele><time>2026-05-01T14:27:48Z</time></trkpt><trkpt lat="44.8394423837022" lon="9.78496058029988"><ele>368.0</ele><time>2026-05-01T14:27:50Z</time></trkpt><trkpt lat="44.83938702985845" lon="9.78488957948205"><ele>368.0</ele><time>2026-05-01T14:27:51Z</time></trkpt><trkpt lat="44.83928473440479" lon="9.784825627797508"><ele>368.0</ele><time>2026-05-01T14:27:52Z</time></trkpt><trkpt lat="44.83918145535039" lon="9.78478338813907"><ele>368.0</ele><time>2026-05-01T14:27:53Z</time></trkpt><trkpt lat="44.83909791081999" lon="9.784781775853547"><ele>369.5</ele><time>2026-05-01T14:27:54Z</time></trkpt><trkpt lat="44.839038027123046" lon="9.784827351345852"><ele>371.0</ele><time>2026-05-01T14:27:55Z</time></trkpt><trkpt lat="44.83897020805346" lon="9.784842614977435"><ele>372.5</ele><time>2026-05-01T14:27:56Z</time></trkpt><trkpt lat="44.838911647227555" lon="9.784884391875718"><ele>374.0</ele><time>2026-05-01T14:27:58Z</time></trkpt><trkpt lat="44.83883272190904" lon="9.78489908571748"><ele>375.5</ele><time>2026-05-01T14:28:00Z</time></trkpt><trkpt lat="44.83875187309383" lon="9.7849006448317"><ele>377.0</ele><time>2026-05-01T14:28:01Z</time></trkpt><trkpt lat="44.83866280105406" lon="9.78483150633791"><ele>377.0</ele><time>2026-05-01T14:28:02Z</time></trkpt><trkpt lat="44.838552858921055" lon="9.78476901271262"><ele>377.0</ele><time>2026-05-01T14:28:03Z</time></trkpt><trkpt lat="44.838415611055964" lon="9.784710866072665"><ele>377.0</ele><time>2026-05-01T14:28:04Z</time></trkpt><trkpt lat="44.83827630323707" lon="9.784634415444515"><ele>377.0</ele><time>2026-05-01T14:28:05Z</time></trkpt><trkpt lat="44.83812626281386" lon="9.784581105426309"><ele>379.5</ele><time>2026-05-01T14:28:06Z</time></trkpt><trkpt lat="44.837974244559334" lon="9.78456897943532"><ele>382.0</ele><time>2026-05-01T14:28:07Z</time></trkpt><trkpt lat="44.837823442727164" lon="9.784582561341848"><ele>384.5</ele><time>2026-05-01T14:28:08Z</time></trkpt><trkpt lat="44.837684117880755" lon="9.784601137600944"><ele>387.0</ele><time>2026-05-01T14:28:09Z</time></trkpt><trkpt lat="44.8375761959014" lon="9.784620229734678"><ele>390.40000000000003</ele><time>2026-05-01T14:28:10Z</time></trkpt><trkpt lat="44.837489894537114" lon="9.784635056386579"><ele>393.8</ele><time>2026-05-01T14:28:11Z</time></trkpt><trkpt lat="44.83741569489594" lon="9.784649276027027"><ele>397.2</ele><time>2026-05-01T14:28:12Z</time></trkpt><trkpt lat="44.83734063881645" lon="9.78470505550931"><ele>400.6</ele><time>2026-05-01T14:28:13Z</time></trkpt><trkpt lat="44.837271695314826" lon="9.784807292844274"><ele>404.0</ele><time>2026-05-01T14:28:14Z</time></trkpt><trkpt lat="44.83723813480732" lon="9.784947164967095"><ele>404.0</ele><time>2026-05-01T14:28:15Z</time></trkpt><trkpt lat="44.837195110349946" lon="9.78510283410213"><ele>404.0</ele><time>2026-05-01T14:28:16Z</time></trkpt><trkpt lat="44.83716275066033" lon="9.785289008354459"><ele>404.0</ele><time>2026-05-01T14:28:17Z</time></trkpt><trkpt lat="44.83715517301481" lon="9.785493893333596"><ele>404.0</ele><time>2026-05-01T14:28:18Z</time></trkpt><trkpt lat="44.837156110975535" lon="9.785692689892485"><ele>404.0</ele><time>2026-05-01T14:28:19Z</time></trkpt><trkpt lat="44.837187314890386" lon="9.785820898786787"><ele>404.0</ele><time>2026-05-01T14:28:20Z</time></trkpt><trkpt lat="44.83722868621501" lon="9.785943906793984"><ele>404.0</ele><time>2026-05-01T14:28:21Z</time></trkpt><trkpt lat="44.83727887462398" lon="9.78609710458568"><ele>404.0</ele><time>2026-05-01T14:28:22Z</time></trkpt><trkpt lat="44.83730981379031" lon="9.786269764891673"><ele>404.0</ele><time>2026-05-01T14:28:23Z</time></trkpt><trkpt lat="44.83733955973613" lon="9.786425384846565"><ele>403.0</ele><time>2026-05-01T14:28:24Z</time></trkpt><trkpt lat="44.837359185023864" lon="9.786608256851144"><ele>402.0</ele><time>2026-05-01T14:28:25Z</time></trkpt><trkpt lat="44.83740041430365" lon="9.786782625240088"><ele>401.0</ele><time>2026-05-01T14:28:26Z</time></trkpt><trkpt lat="44.837425576812265" lon="9.78695261209493"><ele>400.0</ele><time>2026-05-01T14:28:27Z</time></trkpt><trkpt lat="44.83749274085349" lon="9.787122315691644"><ele>398.75</ele><time>2026-05-01T14:28:28Z</time></trkpt><trkpt lat="44.83757587697913" lon="9.787271400183768"><ele>397.5</ele><time>2026-05-01T14:28:29Z</time></trkpt><trkpt lat="44.83763109318219" lon="9.787445775154382"><ele>396.25</ele><time>2026-05-01T14:28:30Z</time></trkpt><trkpt lat="44.8376750613915" lon="9.78761795182633"><ele>395.0</ele><time>2026-05-01T14:28:31Z</time></trkpt><trkpt lat="44.8377408728594" lon="9.78777983242487"><ele>393.8</ele><time>2026-05-01T14:28:32Z</time></trkpt><trkpt lat="44.8377782221526" lon="9.787914685667547"><ele>392.6</ele><time>2026-05-01T14:28:33Z</time></trkpt><trkpt lat="44.83780634731946" lon="9.78807892556259"><ele>391.4</ele><time>2026-05-01T14:28:34Z</time></trkpt><trkpt lat="44.83781739049922" lon="9.7882178956897"><ele>390.2</ele><time>2026-05-01T14:28:35Z</time></trkpt><trkpt lat="44.83781350095977" lon="9.788355124652453"><ele>389.0</ele><time>2026-05-01T14:28:36Z</time></trkpt><trkpt lat="44.83781252437948" lon="9.788531600877096"><ele>389.0</ele><time>2026-05-01T14:28:37Z</time></trkpt><trkpt lat="44.83783227883054" lon="9.788702432764962"><ele>389.0</ele><time>2026-05-01T14:28:38Z</time></trkpt><trkpt lat="44.837877910501355" lon="9.788859144633259"><ele>389.0</ele><time>2026-05-01T14:28:39Z</time></trkpt><trkpt lat="44.837935325258954" lon="9.789009186022168"><ele>389.0</ele><time>2026-05-01T14:28:40Z</time></trkpt><trkpt lat="44.83799993826239" lon="9.789154669596826"><ele>389.0</ele><time>2026-05-01T14:28:41Z</time></trkpt><trkpt lat="44.83806988119713" lon="9.789301551845048"><ele>389.0</ele><time>2026-05-01T14:28:42Z</time></trkpt><trkpt lat="44.838145126541555" lon="9.789458277996182"><ele>389.0</ele><time>2026-05-01T14:28:43Z</time></trkpt><trkpt lat="44.83821180070974" lon="9.789606159027086"><ele>389.0</ele><time>2026-05-01T14:28:44Z</time></trkpt><trkpt lat="44.83826591465392" lon="9.789739810980425"><ele>388.2</ele><time>2026-05-01T14:28:45Z</time></trkpt><trkpt lat="44.83832813369451" lon="9.789869316477755"><ele>387.4</ele><time>2026-05-01T14:28:46Z</time></trkpt><trkpt lat="44.838379843364756" lon="9.789972705636014"><ele>386.6</ele><time>2026-05-01T14:28:47Z</time></trkpt><trkpt lat="44.83843683520612" lon="9.790055764175749"><ele>385.8</ele><time>2026-05-01T14:28:48Z</time></trkpt><trkpt lat="44.83849793059983" lon="9.79014331884302"><ele>385.0</ele><time>2026-05-01T14:28:49Z</time></trkpt><trkpt lat="44.83855772574864" lon="9.79022995199157"><ele>383.6</ele><time>2026-05-01T14:28:50Z</time></trkpt><trkpt lat="44.8386033219826" lon="9.790336784163678"><ele>382.2</ele><time>2026-05-01T14:28:51Z</time></trkpt><trkpt lat="44.83865181924905" lon="9.790429579802211"><ele>380.79999999999995</ele><time>2026-05-01T14:28:52Z</time></trkpt><trkpt lat="44.83869847745774" lon="9.7904995737683"><ele>379.4</ele><time>2026-05-01T14:28:53Z</time></trkpt><trkpt lat="44.838734163561135" lon="9.790592672470911"><ele>378.0</ele><time>2026-05-01T14:29:38Z</time></trkpt><trkpt lat="44.8388269762568" lon="9.790772966708786"><ele>378.0</ele><time>2026-05-01T14:29:40Z</time></trkpt><trkpt lat="44.83888758998246" lon="9.790912797092489"><ele>378.0</ele><time>2026-05-01T14:29:41Z</time></trkpt><trkpt lat="44.83894531046449" lon="9.791109344924836"><ele>378.0</ele><time>2026-05-01T14:29:42Z</time></trkpt><trkpt lat="44.83903045407421" lon="9.791309034268616"><ele>378.0</ele><time>2026-05-01T14:29:43Z</time></trkpt><trkpt lat="44.83911101579018" lon="9.791501548633798"><ele>376.6666666666667</ele><time>2026-05-01T14:29:44Z</time></trkpt><trkpt lat="44.839189693011036" lon="9.791692386346678"><ele>375.33333333333337</ele><time>2026-05-01T14:29:45Z</time></trkpt><trkpt lat="44.839283698497916" lon="9.79193740488272"><ele>374.0</ele><time>2026-05-01T14:29:46Z</time></trkpt><trkpt lat="44.83938574046374" lon="9.792224986581832"><ele>372.33333333333337</ele><time>2026-05-01T14:29:47Z</time></trkpt><trkpt lat="44.83947338651457" lon="9.79246750824887"><ele>370.6666666666667</ele><time>2026-05-01T14:29:48Z</time></trkpt><trkpt lat="44.83955179238739" lon="9.79269187157307"><ele>369.0</ele><time>2026-05-01T14:29:49Z</time></trkpt><trkpt lat="44.83962027533157" lon="9.792903729560846"><ele>369.0</ele><time>2026-05-01T14:29:50Z</time></trkpt><trkpt lat="44.83967989032544" lon="9.793108064804873"><ele>369.0</ele><time>2026-05-01T14:29:51Z</time></trkpt><trkpt lat="44.83973151096051" lon="9.793300184906261"><ele>369.0</ele><time>2026-05-01T14:29:52Z</time></trkpt><trkpt lat="44.83978068106375" lon="9.793497177508474"><ele>367.0</ele><time>2026-05-01T14:29:53Z</time></trkpt><trkpt lat="44.83983104573158" lon="9.793715248872509"><ele>365.0</ele><time>2026-05-01T14:29:54Z</time></trkpt><trkpt lat="44.83988463094295" lon="9.793949629812955"><ele>363.0</ele><time>2026-05-01T14:29:55Z</time></trkpt><trkpt lat="44.83994329907723" lon="9.794179640142703"><ele>361.0</ele><time>2026-05-01T14:29:56Z</time></trkpt><trkpt lat="44.83999981589193" lon="9.794403662041372"><ele>359.0</ele><time>2026-05-01T14:29:57Z</time></trkpt><trkpt lat="44.840049323122464" lon="9.794618230333983"><ele>357.0</ele><time>2026-05-01T14:29:58Z</time></trkpt><trkpt lat="44.84008279070473" lon="9.79480573313122"><ele>357.0</ele><time>2026-05-01T14:29:59Z</time></trkpt><trkpt lat="44.84010844357303" lon="9.795018564898138"><ele>357.0</ele><time>2026-05-01T14:30:00Z</time></trkpt><trkpt lat="44.84014017454235" lon="9.795239034614411"><ele>357.0</ele><time>2026-05-01T14:30:01Z</time></trkpt><trkpt lat="44.84017967903748" lon="9.795465521916086"><ele>357.3333333333333</ele><time>2026-05-01T14:30:02Z</time></trkpt><trkpt lat="44.8402261457246" lon="9.79571700641939"><ele>357.66666666666663</ele><time>2026-05-01T14:30:03Z</time></trkpt><trkpt lat="44.84027474916596" lon="9.795978046862329"><ele>358.0</ele><time>2026-05-01T14:30:04Z</time></trkpt><trkpt lat="44.84032019938171" lon="9.796229453506234"><ele>356.66666666666663</ele><time>2026-05-01T14:30:05Z</time></trkpt><trkpt lat="44.84036221819101" lon="9.796476701017223"><ele>355.3333333333333</ele><time>2026-05-01T14:30:06Z</time></trkpt><trkpt lat="44.8403978959773" lon="9.796725289878056"><ele>354.0</ele><time>2026-05-01T14:30:07Z</time></trkpt><trkpt lat="44.84044428354237" lon="9.796971983486614"><ele>353.6666666666667</ele><time>2026-05-01T14:30:08Z</time></trkpt><trkpt lat="44.84051604322244" lon="9.79720865934604"><ele>353.33333333333337</ele><time>2026-05-01T14:30:09Z</time></trkpt><trkpt lat="44.84057620730696" lon="9.797443903960572"><ele>353.0</ele><time>2026-05-01T14:30:10Z</time></trkpt><trkpt lat="44.84061797673721" lon="9.797694106381659"><ele>350.33333333333337</ele><time>2026-05-01T14:30:11Z</time></trkpt><trkpt lat="44.84069883058111" lon="9.79792782731274"><ele>347.6666666666667</ele><time>2026-05-01T14:30:12Z</time></trkpt><trkpt lat="44.84077590607397" lon="9.798145818922846"><ele>345.0</ele><time>2026-05-01T14:30:13Z</time></trkpt><trkpt lat="44.840861392323774" lon="9.798336189488845"><ele>345.0</ele><time>2026-05-01T14:30:14Z</time></trkpt><trkpt lat="44.84092959614361" lon="9.798495600729794"><ele>345.0</ele><time>2026-05-01T14:30:15Z</time></trkpt><trkpt lat="44.84095586862397" lon="9.79867943511542"><ele>345.0</ele><time>2026-05-01T14:30:16Z</time></trkpt><trkpt lat="44.84099795689248" lon="9.798903459613287"><ele>345.0</ele><time>2026-05-01T14:30:17Z</time></trkpt><trkpt lat="44.84107418596892" lon="9.799115095450382"><ele>344.6666666666667</ele><time>2026-05-01T14:30:18Z</time></trkpt><trkpt lat="44.84115893918661" lon="9.799324644070193"><ele>344.33333333333337</ele><time>2026-05-01T14:30:19Z</time></trkpt><trkpt lat="44.84126853465848" lon="9.79954183840141"><ele>344.0</ele><time>2026-05-01T14:30:20Z</time></trkpt><trkpt lat="44.841358842341364" lon="9.799755742228816"><ele>344.0</ele><time>2026-05-01T14:30:21Z</time></trkpt><trkpt lat="44.84141156633286" lon="9.799972128633696"><ele>344.0</ele><time>2026-05-01T14:30:22Z</time></trkpt><trkpt lat="44.841474306115494" lon="9.800176720366974"><ele>344.0</ele><time>2026-05-01T14:30:23Z</time></trkpt><trkpt lat="44.84155224025808" lon="9.800407380809355"><ele>342.33333333333337</ele><time>2026-05-01T14:30:24Z</time></trkpt><trkpt lat="44.841639095207434" lon="9.800668491525848"><ele>340.6666666666667</ele><time>2026-05-01T14:30:25Z</time></trkpt><trkpt lat="44.841719933234266" lon="9.800917887441091"><ele>339.0</ele><time>2026-05-01T14:30:26Z</time></trkpt><trkpt lat="44.841790385599666" lon="9.801135505714155"><ele>338.0</ele><time>2026-05-01T14:30:27Z</time></trkpt><trkpt lat="44.8418638288207" lon="9.80133620984918"><ele>337.0</ele><time>2026-05-01T14:30:28Z</time></trkpt><trkpt lat="44.841953139676754" lon="9.801505800597896"><ele>336.0</ele><time>2026-05-01T14:30:29Z</time></trkpt><trkpt lat="44.84203943662479" lon="9.801669323669724"><ele>336.0</ele><time>2026-05-01T14:30:30Z</time></trkpt><trkpt lat="44.84214730311865" lon="9.801812311042827"><ele>336.0</ele><time>2026-05-01T14:30:31Z</time></trkpt><trkpt lat="44.84221074893609" lon="9.801969720838976"><ele>336.0</ele><time>2026-05-01T14:30:32Z</time></trkpt><trkpt lat="44.84226279948671" lon="9.802112218163709"><ele>336.0</ele><time>2026-05-01T14:30:33Z</time></trkpt><trkpt lat="44.84233701656035" lon="9.80223437697755"><ele>334.25</ele><time>2026-05-01T14:30:34Z</time></trkpt><trkpt lat="44.84242961516187" lon="9.802311515989988"><ele>332.5</ele><time>2026-05-01T14:30:35Z</time></trkpt><trkpt lat="44.842547546057865" lon="9.802394572371577"><ele>330.75</ele><time>2026-05-01T14:30:36Z</time></trkpt><trkpt lat="44.84265078163053" lon="9.802525318970874"><ele>329.0</ele><time>2026-05-01T14:30:37Z</time></trkpt><trkpt lat="44.842735567509436" lon="9.802670818362435"><ele>327.79999999999995</ele><time>2026-05-01T14:30:38Z</time></trkpt><trkpt lat="44.84281102933952" lon="9.802814398570556"><ele>326.59999999999997</ele><time>2026-05-01T14:30:39Z</time></trkpt><trkpt lat="44.8428698486959" lon="9.802946693922749"><ele>325.4</ele><time>2026-05-01T14:30:40Z</time></trkpt><trkpt lat="44.84290338822507" lon="9.803025251601847"><ele>324.2</ele><time>2026-05-01T14:30:41Z</time></trkpt><trkpt lat="44.8428028788359" lon="9.802954748042499"><ele>323.0</ele><time>2026-05-01T14:30:48Z</time></trkpt><trkpt lat="44.842707674158774" lon="9.802908879839192"><ele>324.5</ele><time>2026-05-01T14:30:49Z</time></trkpt><trkpt lat="44.84259034808592" lon="9.802845868344338"><ele>326.0</ele><time>2026-05-01T14:30:50Z</time></trkpt><trkpt lat="44.84247086364609" lon="9.802769816979849"><ele>327.5</ele><time>2026-05-01T14:30:51Z</time></trkpt><trkpt lat="44.84236286387638" lon="9.802669045550692"><ele>329.0</ele><time>2026-05-01T14:30:52Z</time></trkpt><trkpt lat="44.842271653753" lon="9.802532926198861"><ele>329.0</ele><time>2026-05-01T14:30:53Z</time></trkpt><trkpt lat="44.84217546930113" lon="9.802367931549153"><ele>329.0</ele><time>2026-05-01T14:30:54Z</time></trkpt><trkpt lat="44.84206133900781" lon="9.802175487729588"><ele>329.0</ele><time>2026-05-01T14:30:55Z</time></trkpt><trkpt lat="44.841954346993184" lon="9.801994861501079"><ele>329.0</ele><time>2026-05-01T14:30:56Z</time></trkpt><trkpt lat="44.84185649234727" lon="9.801834144846062"><ele>329.0</ele><time>2026-05-01T14:30:57Z</time></trkpt><trkpt lat="44.84175608815226" lon="9.801657932355997"><ele>329.0</ele><time>2026-05-01T14:30:58Z</time></trkpt><trkpt lat="44.84166489487153" lon="9.80146162372149"><ele>327.33333333333337</ele><time>2026-05-01T14:30:59Z</time></trkpt><trkpt lat="44.84157845008936" lon="9.801263899657508"><ele>325.6666666666667</ele><time>2026-05-01T14:31:00Z</time></trkpt><trkpt lat="44.84148453158531" lon="9.801063339344402"><ele>324.0</ele><time>2026-05-01T14:31:01Z</time></trkpt><trkpt lat="44.8413666839593" lon="9.800874771715575"><ele>329.0</ele><time>2026-05-01T14:31:02Z</time></trkpt><trkpt lat="44.84127637022278" lon="9.800647275727602"><ele>334.0</ele><time>2026-05-01T14:31:03Z</time></trkpt><trkpt lat="44.841164469119896" lon="9.800476939670435"><ele>339.0</ele><time>2026-05-01T14:31:04Z</time></trkpt><trkpt lat="44.84106928890018" lon="9.800326962015985"><ele>339.0</ele><time>2026-05-01T14:31:05Z</time></trkpt><trkpt lat="44.84099607422444" lon="9.80018085439278"><ele>339.0</ele><time>2026-05-01T14:31:06Z</time></trkpt><trkpt lat="44.84093491596657" lon="9.800030528268415"><ele>339.0</ele><time>2026-05-01T14:31:07Z</time></trkpt><trkpt lat="44.84088877835061" lon="9.799860716700362"><ele>339.0</ele><time>2026-05-01T14:31:08Z</time></trkpt><trkpt lat="44.84081086044637" lon="9.799699657608809"><ele>339.5</ele><time>2026-05-01T14:31:09Z</time></trkpt><trkpt lat="44.840703685112075" lon="9.799539642538896"><ele>340.0</ele><time>2026-05-01T14:31:10Z</time></trkpt><trkpt lat="44.84060287444303" lon="9.799406142883797"><ele>340.5</ele><time>2026-05-01T14:31:11Z</time></trkpt><trkpt lat="44.84055833165243" lon="9.799261416553062"><ele>341.0</ele><time>2026-05-01T14:31:12Z</time></trkpt><trkpt lat="44.840529643958206" lon="9.799131465508585"><ele>341.0</ele><time>2026-05-01T14:31:13Z</time></trkpt><trkpt lat="44.840515673895034" lon="9.798972632516579"><ele>341.0</ele><time>2026-05-01T14:31:14Z</time></trkpt><trkpt lat="44.84050850166018" lon="9.79878082041189"><ele>341.0</ele><time>2026-05-01T14:31:15Z</time></trkpt><trkpt lat="44.840490554446156" lon="9.798600698387796"><ele>341.0</ele><time>2026-05-01T14:31:16Z</time></trkpt><trkpt lat="44.8404397939997" lon="9.798461118191275"><ele>342.0</ele><time>2026-05-01T14:31:17Z</time></trkpt><trkpt lat="44.84036808335448" lon="9.798347951749692"><ele>343.0</ele><time>2026-05-01T14:31:18Z</time></trkpt><trkpt lat="44.84027282497327" lon="9.79823011791223"><ele>344.0</ele><time>2026-05-01T14:31:19Z</time></trkpt><trkpt lat="44.840202649013825" lon="9.798093033378715"><ele>345.0</ele><time>2026-05-01T14:31:20Z</time></trkpt><trkpt lat="44.84018280025557" lon="9.797946246945386"><ele>345.0</ele><time>2026-05-01T14:31:21Z</time></trkpt><trkpt lat="44.8401744838509" lon="9.797776242917074"><ele>345.0</ele><time>2026-05-01T14:31:22Z</time></trkpt><trkpt lat="44.84015072607646" lon="9.79759357810266"><ele>345.0</ele><time>2026-05-01T14:31:23Z</time></trkpt><trkpt lat="44.84007338019813" lon="9.797424170003584"><ele>345.0</ele><time>2026-05-01T14:31:24Z</time></trkpt><trkpt lat="44.839968044982704" lon="9.797232187717924"><ele>344.0</ele><time>2026-05-01T14:31:25Z</time></trkpt><trkpt lat="44.839905993418675" lon="9.796963969085944"><ele>343.0</ele><time>2026-05-01T14:31:26Z</time></trkpt><trkpt lat="44.83979546327192" lon="9.79670154672321"><ele>342.0</ele><time>2026-05-01T14:31:27Z</time></trkpt><trkpt lat="44.83969421035284" lon="9.796435064767724"><ele>342.0</ele><time>2026-05-01T14:31:28Z</time></trkpt><trkpt lat="44.83960169386757" lon="9.79621306838991"><ele>342.0</ele><time>2026-05-01T14:31:29Z</time></trkpt><trkpt lat="44.839540103152444" lon="9.795991900321225"><ele>342.0</ele><time>2026-05-01T14:31:30Z</time></trkpt><trkpt lat="44.83948740270773" lon="9.795783962551043"><ele>344.5</ele><time>2026-05-01T14:31:31Z</time></trkpt><trkpt lat="44.83943917629807" lon="9.795583706607855"><ele>347.0</ele><time>2026-05-01T14:31:32Z</time></trkpt><trkpt lat="44.839365448454885" lon="9.795421297024811"><ele>349.5</ele><time>2026-05-01T14:31:33Z</time></trkpt><trkpt lat="44.83929935004074" lon="9.795314274465696"><ele>352.0</ele><time>2026-05-01T14:31:34Z</time></trkpt><trkpt lat="44.83925403196628" lon="9.795197281032603"><ele>345.75</ele><time>2026-05-01T14:31:35Z</time></trkpt><trkpt lat="44.83925594168853" lon="9.795056339128497"><ele>339.5</ele><time>2026-05-01T14:31:36Z</time></trkpt><trkpt lat="44.83924717888695" lon="9.794871821001811"><ele>333.25</ele><time>2026-05-01T14:31:37Z</time></trkpt><trkpt lat="44.83921664614463" lon="9.794734567731892"><ele>327.0</ele><time>2026-05-01T14:31:38Z</time></trkpt><trkpt lat="44.83911884597173" lon="9.794618922871377"><ele>327.0</ele><time>2026-05-01T14:31:39Z</time></trkpt><trkpt lat="44.83900951471463" lon="9.794532441871098"><ele>327.0</ele><time>2026-05-01T14:31:40Z</time></trkpt><trkpt lat="44.83891313410931" lon="9.794466345819384"><ele>327.0</ele><time>2026-05-01T14:31:41Z</time></trkpt><trkpt lat="44.83887954707472" lon="9.79431158257449"><ele>327.0</ele><time>2026-05-01T14:31:42Z</time></trkpt><trkpt lat="44.83881853199294" lon="9.794114376244167"><ele>330.25</ele><time>2026-05-01T14:31:43Z</time></trkpt><trkpt lat="44.83875296883286" lon="9.793904910667068"><ele>333.5</ele><time>2026-05-01T14:31:44Z</time></trkpt><trkpt lat="44.83867224804526" lon="9.793749480568053"><ele>336.75</ele><time>2026-05-01T14:31:45Z</time></trkpt><trkpt lat="44.83857818245307" lon="9.793621375103083"><ele>340.0</ele><time>2026-05-01T14:31:46Z</time></trkpt><trkpt lat="44.83847136638621" lon="9.793509193335373"><ele>334.75</ele><time>2026-05-01T14:31:47Z</time></trkpt><trkpt lat="44.8384223427552" lon="9.793376794559615"><ele>329.5</ele><time>2026-05-01T14:31:48Z</time></trkpt><trkpt lat="44.83838294993182" lon="9.793212705303167"><ele>324.25</ele><time>2026-05-01T14:31:49Z</time></trkpt><trkpt lat="44.838309251901144" lon="9.792982097668473"><ele>319.0</ele><time>2026-05-01T14:31:50Z</time></trkpt><trkpt lat="44.83820430369939" lon="9.792756646231995"><ele>322.0</ele><time>2026-05-01T14:31:51Z</time></trkpt><trkpt lat="44.83811969635686" lon="9.792575844289589"><ele>325.0</ele><time>2026-05-01T14:31:52Z</time></trkpt><trkpt lat="44.83803805079514" lon="9.792412823904831"><ele>328.0</ele><time>2026-05-01T14:31:53Z</time></trkpt><trkpt lat="44.83793932966516" lon="9.792276154495184"><ele>331.0</ele><time>2026-05-01T14:31:54Z</time></trkpt><trkpt lat="44.83783007508688" lon="9.792165480391246"><ele>331.0</ele><time>2026-05-01T14:31:55Z</time></trkpt><trkpt lat="44.8376940018456" lon="9.792080026001527"><ele>331.0</ele><time>2026-05-01T14:31:56Z</time></trkpt><trkpt lat="44.837538135374494" lon="9.792001369964213"><ele>331.0</ele><time>2026-05-01T14:31:57Z</time></trkpt><trkpt lat="44.83742846272393" lon="9.79187974197184"><ele>329.25</ele><time>2026-05-01T14:31:58Z</time></trkpt><trkpt lat="44.837358793271235" lon="9.79176525188248"><ele>327.5</ele><time>2026-05-01T14:31:59Z</time></trkpt><trkpt lat="44.8373132721806" lon="9.791646379678491"><ele>325.75</ele><time>2026-05-01T14:32:00Z</time></trkpt><trkpt lat="44.837266527524015" lon="9.791479791624738"><ele>324.0</ele><time>2026-05-01T14:32:01Z</time></trkpt><trkpt lat="44.83717439540437" lon="9.79135499051864"><ele>324.0</ele><time>2026-05-01T14:32:02Z</time></trkpt><trkpt lat="44.83706352820128" lon="9.791242635781344"><ele>324.0</ele><time>2026-05-01T14:32:03Z</time></trkpt><trkpt lat="44.83693841890491" lon="9.791095795642622"><ele>324.0</ele><time>2026-05-01T14:32:04Z</time></trkpt><trkpt lat="44.83681861182816" lon="9.790949907521595"><ele>321.25</ele><time>2026-05-01T14:32:05Z</time></trkpt><trkpt lat="44.83670002054283" lon="9.790877834140296"><ele>318.5</ele><time>2026-05-01T14:32:06Z</time></trkpt><trkpt lat="44.836556740144076" lon="9.790815733347776"><ele>315.75</ele><time>2026-05-01T14:32:07Z</time></trkpt><trkpt lat="44.83642609331274" lon="9.790768161877546"><ele>313.0</ele><time>2026-05-01T14:32:08Z</time></trkpt><trkpt lat="44.83633068846082" lon="9.790662620050448"><ele>313.0</ele><time>2026-05-01T14:32:09Z</time></trkpt><trkpt lat="44.836227097367875" lon="9.790549562810758"><ele>313.0</ele><time>2026-05-01T14:32:10Z</time></trkpt><trkpt lat="44.83612200820949" lon="9.790418401712158"><ele>313.0</ele><time>2026-05-01T14:32:11Z</time></trkpt><trkpt lat="44.8360440545851" lon="9.790300816604494"><ele>313.0</ele><time>2026-05-01T14:32:12Z</time></trkpt><trkpt lat="44.83601072197504" lon="9.790207158203991"><ele>317.5</ele><time>2026-05-01T14:32:13Z</time></trkpt><trkpt lat="44.83600848753612" lon="9.790090328581387"><ele>322.0</ele><time>2026-05-01T14:32:14Z</time></trkpt><trkpt lat="44.8360138110974" lon="9.789918427531903"><ele>326.5</ele><time>2026-05-01T14:32:15Z</time></trkpt><trkpt lat="44.83602089697096" lon="9.789694385550368"><ele>331.0</ele><time>2026-05-01T14:32:16Z</time></trkpt><trkpt lat="44.83599928426057" lon="9.789512844144424"><ele>331.0</ele><time>2026-05-01T14:32:17Z</time></trkpt><trkpt lat="44.83597424807475" lon="9.789392002542481"><ele>331.0</ele><time>2026-05-01T14:32:18Z</time></trkpt><trkpt lat="44.83589680528953" lon="9.789296604232959"><ele>331.0</ele><time>2026-05-01T14:32:19Z</time></trkpt><trkpt lat="44.83577979116842" lon="9.789223357410972"><ele>331.0</ele><time>2026-05-01T14:32:20Z</time></trkpt><trkpt lat="44.83564947019574" lon="9.789193157416035"><ele>326.6</ele><time>2026-05-01T14:32:21Z</time></trkpt><trkpt lat="44.83557506365426" lon="9.789112845057343"><ele>322.20000000000005</ele><time>2026-05-01T14:32:22Z</time></trkpt><trkpt lat="44.83553436321343" lon="9.788994379746438"><ele>317.79999999999995</ele><time>2026-05-01T14:32:23Z</time></trkpt><trkpt lat="44.8354901127691" lon="9.788833755214252"><ele>313.4</ele><time>2026-05-01T14:32:24Z</time></trkpt><trkpt lat="44.835424993292804" lon="9.788727001822897"><ele>309.0</ele><time>2026-05-01T14:32:25Z</time></trkpt><trkpt lat="44.83532162340984" lon="9.788680695786878"><ele>309.0</ele><time>2026-05-01T14:32:26Z</time></trkpt><trkpt lat="44.83517424005096" lon="9.78862269976165"><ele>309.0</ele><time>2026-05-01T14:32:27Z</time></trkpt><trkpt lat="44.83503251641018" lon="9.788598706415177"><ele>309.0</ele><time>2026-05-01T14:32:28Z</time></trkpt><trkpt lat="44.83495836383221" lon="9.788584044945187"><ele>309.0</ele><time>2026-05-01T14:32:29Z</time></trkpt><trkpt lat="44.83488109185745" lon="9.788652803611416"><ele>309.0</ele><time>2026-05-01T14:32:31Z</time></trkpt><trkpt lat="44.83488830196097" lon="9.788754679558137"><ele>309.0</ele><time>2026-05-01T14:32:32Z</time></trkpt><trkpt lat="44.83493797646873" lon="9.788840515998142"><ele>309.0</ele><time>2026-05-01T14:32:33Z</time></trkpt><trkpt lat="44.83502120062312" lon="9.788873339986779"><ele>309.0</ele><time>2026-05-01T14:32:34Z</time></trkpt><trkpt lat="44.83513575734842" lon="9.788890325776544"><ele>309.0</ele><time>2026-05-01T14:32:35Z</time></trkpt><trkpt lat="44.83525324055515" lon="9.788933264172135"><ele>309.0</ele><time>2026-05-01T14:32:36Z</time></trkpt><trkpt lat="44.835320260434784" lon="9.789037595829422"><ele>309.0</ele><time>2026-05-01T14:32:37Z</time></trkpt><trkpt lat="44.835340659375724" lon="9.78915786846494"><ele>309.0</ele><time>2026-05-01T14:32:38Z</time></trkpt><trkpt lat="44.835329262026214" lon="9.789306124411596"><ele>309.0</ele><time>2026-05-01T14:32:39Z</time></trkpt><trkpt lat="44.835294490325026" lon="9.789473969159227"><ele>309.0</ele><time>2026-05-01T14:32:40Z</time></trkpt><trkpt lat="44.83525537941132" lon="9.789665754135134"><ele>306.5</ele><time>2026-05-01T14:32:41Z</time></trkpt><trkpt lat="44.83523670930855" lon="9.789836128449805"><ele>304.0</ele><time>2026-05-01T14:32:42Z</time></trkpt><trkpt lat="44.83527376342555" lon="9.7900201649152"><ele>301.5</ele><time>2026-05-01T14:32:43Z</time></trkpt><trkpt lat="44.83532820787473" lon="9.790240639109191"><ele>299.0</ele><time>2026-05-01T14:32:44Z</time></trkpt><trkpt lat="44.83538566599434" lon="9.790478855928777"><ele>296.8</ele><time>2026-05-01T14:32:45Z</time></trkpt><trkpt lat="44.83538470593972" lon="9.790648076634879"><ele>294.59999999999997</ele><time>2026-05-01T14:32:46Z</time></trkpt><trkpt lat="44.83538832843996" lon="9.79074779242424"><ele>292.4</ele><time>2026-05-01T14:32:47Z</time></trkpt><trkpt lat="44.8353244354166" lon="9.790807010862196"><ele>290.2</ele><time>2026-05-01T14:32:48Z</time></trkpt><trkpt lat="44.83522060339999" lon="9.790928523550622"><ele>288.0</ele><time>2026-05-01T14:32:49Z</time></trkpt><trkpt lat="44.83508160551374" lon="9.791100412551804"><ele>283.75</ele><time>2026-05-01T14:32:50Z</time></trkpt><trkpt lat="44.8349771877262" lon="9.791251569818517"><ele>279.5</ele><time>2026-05-01T14:32:51Z</time></trkpt><trkpt lat="44.834935581481034" lon="9.79136965874745"><ele>275.25</ele><time>2026-05-01T14:32:52Z</time></trkpt><trkpt lat="44.83490669459263" lon="9.79150544546135"><ele>271.0</ele><time>2026-05-01T14:32:53Z</time></trkpt><trkpt lat="44.834887971107214" lon="9.791702245213164"><ele>270.0</ele><time>2026-05-01T14:32:54Z</time></trkpt><trkpt lat="44.83486615630275" lon="9.791874341655724"><ele>269.0</ele><time>2026-05-01T14:32:55Z</time></trkpt><trkpt lat="44.83485013098174" lon="9.79201037759221"><ele>268.0</ele><time>2026-05-01T14:32:56Z</time></trkpt><trkpt lat="44.83485085331707" lon="9.792125765440588"><ele>267.0</ele><time>2026-05-01T14:32:57Z</time></trkpt><trkpt lat="44.834931442412575" lon="9.792270258808582"><ele>266.0</ele><time>2026-05-01T14:32:58Z</time></trkpt><trkpt lat="44.83500010533954" lon="9.792471827453598"><ele>265.0</ele><time>2026-05-01T14:32:59Z</time></trkpt><trkpt lat="44.835032252402364" lon="9.7926884652205"><ele>264.0</ele><time>2026-05-01T14:33:00Z</time></trkpt><trkpt lat="44.835055161035015" lon="9.79287159580637"><ele>263.0</ele><time>2026-05-01T14:33:01Z</time></trkpt><trkpt lat="44.83509838463218" lon="9.793034144431527"><ele>262.0</ele><time>2026-05-01T14:33:02Z</time></trkpt><trkpt lat="44.83515418440196" lon="9.793170582040752"><ele>262.0</ele><time>2026-05-01T14:33:03Z</time></trkpt><trkpt lat="44.835239197643666" lon="9.79329126055913"><ele>262.0</ele><time>2026-05-01T14:33:04Z</time></trkpt><trkpt lat="44.83533023759696" lon="9.793404128370355"><ele>262.0</ele><time>2026-05-01T14:33:05Z</time></trkpt><trkpt lat="44.8353849335245" lon="9.793527442261945"><ele>262.0</ele><time>2026-05-01T14:33:06Z</time></trkpt><trkpt lat="44.83541622048283" lon="9.793614700457496"><ele>262.0</ele><time>2026-05-01T14:33:07Z</time></trkpt><trkpt lat="44.835432596363745" lon="9.793727165278806"><ele>261.4</ele><time>2026-05-01T14:33:09Z</time></trkpt><trkpt lat="44.83542850557742" lon="9.793886658918773"><ele>260.79999999999995</ele><time>2026-05-01T14:33:11Z</time></trkpt><trkpt lat="44.835416939775016" lon="9.793980975223286"><ele>260.2</ele><time>2026-05-01T14:33:12Z</time></trkpt><trkpt lat="44.83538058949663" lon="9.794141198997004"><ele>259.59999999999997</ele><time>2026-05-01T14:33:14Z</time></trkpt><trkpt lat="44.83536319049622" lon="9.794227535991642"><ele>259.0</ele><time>2026-05-01T14:33:15Z</time></trkpt><trkpt lat="44.835319122601305" lon="9.794446208641896"><ele>262.66666666666663</ele><time>2026-05-01T14:33:17Z</time></trkpt><trkpt lat="44.83527956430383" lon="9.794632394683681"><ele>266.3333333333333</ele><time>2026-05-01T14:33:18Z</time></trkpt><trkpt lat="44.83522958978057" lon="9.794836460174373"><ele>270.0</ele><time>2026-05-01T14:33:19Z</time></trkpt><trkpt lat="44.83516369684965" lon="9.795066652692022"><ele>266.6666666666667</ele><time>2026-05-01T14:33:20Z</time></trkpt><trkpt lat="44.835076121136304" lon="9.795291143110461"><ele>263.33333333333337</ele><time>2026-05-01T14:33:21Z</time></trkpt><trkpt lat="44.834985700894734" lon="9.795470270624552"><ele>260.0</ele><time>2026-05-01T14:33:22Z</time></trkpt><trkpt lat="44.83489641534447" lon="9.795644185698912"><ele>260.0</ele><time>2026-05-01T14:33:23Z</time></trkpt><trkpt lat="44.83483368393737" lon="9.795805073880963"><ele>260.0</ele><time>2026-05-01T14:33:24Z</time></trkpt><trkpt lat="44.834819116546065" lon="9.79596014442176"><ele>260.0</ele><time>2026-05-01T14:33:25Z</time></trkpt><trkpt lat="44.83482420150009" lon="9.796151782004062"><ele>260.0</ele><time>2026-05-01T14:33:26Z</time></trkpt><trkpt lat="44.83480972543307" lon="9.79639283118329"><ele>260.0</ele><time>2026-05-01T14:33:27Z</time></trkpt><trkpt lat="44.83479727289435" lon="9.796656563266108"><ele>260.0</ele><time>2026-05-01T14:33:28Z</time></trkpt><trkpt lat="44.83479228124853" lon="9.796879221987773"><ele>260.0</ele><time>2026-05-01T14:33:29Z</time></trkpt><trkpt lat="44.83478626599074" lon="9.797059523480684"><ele>258.6</ele><time>2026-05-01T14:33:30Z</time></trkpt><trkpt lat="44.83477001789648" lon="9.79718664521619"><ele>257.2</ele><time>2026-05-01T14:33:31Z</time></trkpt><trkpt lat="44.83472528997835" lon="9.797269434671142"><ele>255.8</ele><time>2026-05-01T14:33:32Z</time></trkpt><trkpt lat="44.83464623662663" lon="9.797395285345951"><ele>254.4</ele><time>2026-05-01T14:33:33Z</time></trkpt><trkpt lat="44.83455524033651" lon="9.797498949996724"><ele>253.0</ele><time>2026-05-01T14:33:34Z</time></trkpt><trkpt lat="44.83443317283436" lon="9.797652821417236"><ele>250.33333333333331</ele><time>2026-05-01T14:33:35Z</time></trkpt><trkpt lat="44.83432626304868" lon="9.797853658121822"><ele>247.66666666666669</ele><time>2026-05-01T14:33:36Z</time></trkpt><trkpt lat="44.834239432582905" lon="9.798078761385305"><ele>245.0</ele><time>2026-05-01T14:33:37Z</time></trkpt><trkpt lat="44.83418185555997" lon="9.798281926610551"><ele>245.0</ele><time>2026-05-01T14:33:38Z</time></trkpt><trkpt lat="44.83415345294176" lon="9.798475757791913"><ele>245.0</ele><time>2026-05-01T14:33:39Z</time></trkpt><trkpt lat="44.83412922153266" lon="9.798712493310651"><ele>245.0</ele><time>2026-05-01T14:33:40Z</time></trkpt><trkpt lat="44.834072964156064" lon="9.798981770091197"><ele>244.66666666666669</ele><time>2026-05-01T14:33:41Z</time></trkpt><trkpt lat="44.833982905677814" lon="9.799269070298566"><ele>244.33333333333331</ele><time>2026-05-01T14:33:42Z</time></trkpt><trkpt lat="44.833895152755" lon="9.799515290192193"><ele>244.0</ele><time>2026-05-01T14:33:43Z</time></trkpt><trkpt lat="44.83381975042353" lon="9.799707778684185"><ele>244.6</ele><time>2026-05-01T14:33:44Z</time></trkpt><trkpt lat="44.833744662463914" lon="9.799837701704192"><ele>245.2</ele><time>2026-05-01T14:33:45Z</time></trkpt><trkpt lat="44.833675081453066" lon="9.799921742331854"><ele>245.79999999999998</ele><time>2026-05-01T14:33:46Z</time></trkpt><trkpt lat="44.833597014110076" lon="9.799987086998252"><ele>246.39999999999998</ele><time>2026-05-01T14:33:47Z</time></trkpt><trkpt lat="44.83351527324388" lon="9.800008754650438"><ele>247.0</ele><time>2026-05-01T14:33:48Z</time></trkpt><trkpt lat="44.83342724686355" lon="9.799981891179222"><ele>249.5</ele><time>2026-05-01T14:33:49Z</time></trkpt><trkpt lat="44.833337061842315" lon="9.799912906717022"><ele>252.0</ele><time>2026-05-01T14:33:50Z</time></trkpt><trkpt lat="44.83322187409466" lon="9.799804785708362"><ele>254.5</ele><time>2026-05-01T14:33:51Z</time></trkpt><trkpt lat="44.83307246557702" lon="9.79967720938525"><ele>257.0</ele><time>2026-05-01T14:33:52Z</time></trkpt><trkpt lat="44.83295907193256" lon="9.799570471519395"><ele>257.0</ele><time>2026-05-01T14:33:53Z</time></trkpt><trkpt lat="44.832852637548925" lon="9.799487131688613"><ele>257.0</ele><time>2026-05-01T14:33:54Z</time></trkpt><trkpt lat="44.832757247579416" lon="9.799439161456196"><ele>257.0</ele><time>2026-05-01T14:33:55Z</time></trkpt><trkpt lat="44.83266710490797" lon="9.799414434409229"><ele>257.0</ele><time>2026-05-01T14:33:56Z</time></trkpt><trkpt lat="44.83252401252788" lon="9.79943837387829"><ele>257.5</ele><time>2026-05-01T14:33:57Z</time></trkpt><trkpt lat="44.832350991924756" lon="9.799511202596799"><ele>258.0</ele><time>2026-05-01T14:33:58Z</time></trkpt><trkpt lat="44.832213164001324" lon="9.79948356455549"><ele>258.5</ele><time>2026-05-01T14:33:59Z</time></trkpt><trkpt lat="44.83212812301082" lon="9.799418126213773"><ele>259.0</ele><time>2026-05-01T14:34:00Z</time></trkpt><trkpt lat="44.83205459720979" lon="9.799307698631191"><ele>256.59999999999997</ele><time>2026-05-01T14:34:01Z</time></trkpt><trkpt lat="44.831956037706625" lon="9.799174854363194"><ele>254.2</ele><time>2026-05-01T14:34:02Z</time></trkpt><trkpt lat="44.83186956769104" lon="9.79906447414397"><ele>251.79999999999998</ele><time>2026-05-01T14:34:03Z</time></trkpt><trkpt lat="44.83178268527726" lon="9.799020780662412"><ele>249.39999999999998</ele><time>2026-05-01T14:34:04Z</time></trkpt><trkpt lat="44.83172440057205" lon="9.798985231163778"><ele>247.0</ele><time>2026-05-01T14:34:05Z</time></trkpt><trkpt lat="44.83161408232123" lon="9.798940185244895"><ele>246.16666666666666</ele><time>2026-05-01T14:34:07Z</time></trkpt><trkpt lat="44.83155436613308" lon="9.798886929082666"><ele>245.33333333333331</ele><time>2026-05-01T14:34:08Z</time></trkpt><trkpt lat="44.83147805313682" lon="9.798849206063906"><ele>244.5</ele><time>2026-05-01T14:34:10Z</time></trkpt><trkpt lat="44.8313780745122" lon="9.79882380747475"><ele>243.66666666666669</ele><time>2026-05-01T14:34:12Z</time></trkpt><trkpt lat="44.83130489245926" lon="9.798797470535396"><ele>242.83333333333334</ele><time>2026-05-01T14:34:16Z</time></trkpt><trkpt lat="44.83124061003058" lon="9.798804305459146"><ele>242.0</ele><time>2026-05-01T14:34:19Z</time></trkpt><trkpt lat="44.83131436930719" lon="9.798844316865342"><ele>242.0</ele><time>2026-05-01T14:34:23Z</time></trkpt><trkpt lat="44.8313778698071" lon="9.79882827160161"><ele>242.0</ele><time>2026-05-01T14:34:24Z</time></trkpt><trkpt lat="44.83146736501634" lon="9.798852357879513"><ele>242.0</ele><time>2026-05-01T14:34:25Z</time></trkpt><trkpt lat="44.83157271146763" lon="9.79891827950571"><ele>242.0</ele><time>2026-05-01T14:34:26Z</time></trkpt><trkpt lat="44.83169680882061" lon="9.798993376013307"><ele>242.0</ele><time>2026-05-01T14:34:27Z</time></trkpt><trkpt lat="44.83182392948296" lon="9.799067611099895"><ele>243.25</ele><time>2026-05-01T14:34:28Z</time></trkpt><trkpt lat="44.83190009834078" lon="9.79916335791203"><ele>244.5</ele><time>2026-05-01T14:34:29Z</time></trkpt><trkpt lat="44.831950133095496" lon="9.799224231696535"><ele>245.75</ele><time>2026-05-01T14:34:31Z</time></trkpt><trkpt lat="44.832015420673635" lon="9.79932595255742"><ele>247.0</ele><time>2026-05-01T14:34:33Z</time></trkpt><trkpt lat="44.83194608981537" lon="9.799597102856332"><ele>249.39999999999998</ele><time>2026-05-01T14:34:34Z</time></trkpt><trkpt lat="44.83198059954425" lon="9.7997523607504"><ele>251.79999999999998</ele><time>2026-05-01T14:34:35Z</time></trkpt><trkpt lat="44.83199502239432" lon="9.799926473498944"><ele>254.2</ele><time>2026-05-01T14:34:36Z</time></trkpt><trkpt lat="44.832016321865176" lon="9.800059746138816"><ele>256.59999999999997</ele><time>2026-05-01T14:34:37Z</time></trkpt><trkpt lat="44.832032001670974" lon="9.800151761584361"><ele>259.0</ele><time>2026-05-01T14:34:38Z</time></trkpt><trkpt lat="44.8320623325594" lon="9.800304487228251"><ele>261.16666666666663</ele><time>2026-05-01T14:34:40Z</time></trkpt><trkpt lat="44.83208794671788" lon="9.800387172976965"><ele>263.3333333333333</ele><time>2026-05-01T14:34:41Z</time></trkpt><trkpt lat="44.83216342191729" lon="9.800486270864308"><ele>265.5</ele><time>2026-05-01T14:34:43Z</time></trkpt><trkpt lat="44.83223862171684" lon="9.800536658143825"><ele>267.6666666666667</ele><time>2026-05-01T14:34:46.001Z</time></trkpt><trkpt lat="44.83234042175634" lon="9.800583218893019"><ele>269.83333333333337</ele><time>2026-05-01T14:34:48Z</time></trkpt><trkpt lat="44.832403852619755" lon="9.80060468704433"><ele>272.0</ele><time>2026-05-01T14:34:50Z</time></trkpt><trkpt lat="44.83238937065243" lon="9.800817549677332"><ele>272.0</ele><time>2026-05-01T14:34:56Z</time></trkpt><trkpt lat="44.83234163466743" lon="9.800948823417224"><ele>272.0</ele><time>2026-05-01T14:34:58Z</time></trkpt><trkpt lat="44.83226566357704" lon="9.801023579934894"><ele>272.0</ele><time>2026-05-01T14:35:00Z</time></trkpt><trkpt lat="44.832214813808704" lon="9.801079519115508"><ele>272.0</ele><time>2026-05-01T14:35:01Z</time></trkpt><trkpt lat="44.8321779207294" lon="9.801153554316599"><ele>272.0</ele><time>2026-05-01T14:35:02Z</time></trkpt><trkpt lat="44.83209850301542" lon="9.801266057584991"><ele>272.0</ele><time>2026-05-01T14:35:04Z</time></trkpt><trkpt lat="44.83204062854222" lon="9.80134624202614"><ele>271.4285714285714</ele><time>2026-05-01T14:35:06Z</time></trkpt><trkpt lat="44.831997810032064" lon="9.801425759581305"><ele>270.85714285714283</ele><time>2026-05-01T14:35:08Z</time></trkpt><trkpt lat="44.831948213661796" lon="9.801508629406426"><ele>270.2857142857143</ele><time>2026-05-01T14:35:10Z</time></trkpt><trkpt lat="44.83194160244588" lon="9.801599404886039"><ele>269.71428571428567</ele><time>2026-05-01T14:35:12Z</time></trkpt><trkpt lat="44.83202170028075" lon="9.80159130285856"><ele>269.1428571428571</ele><time>2026-05-01T14:35:15Z</time></trkpt><trkpt lat="44.832038728392256" lon="9.801486349449272"><ele>268.57142857142856</ele><time>2026-05-01T14:35:18Z</time></trkpt><trkpt lat="44.83203457295131" lon="9.801392268602859"><ele>268.0</ele><time>2026-05-01T14:35:20Z</time></trkpt><trkpt lat="44.83208253697127" lon="9.801281687008043"><ele>268.0</ele><time>2026-05-01T14:35:22Z</time></trkpt><trkpt lat="44.83214937428743" lon="9.801177458769903"><ele>268.0</ele><time>2026-05-01T14:35:24Z</time></trkpt><trkpt lat="44.83219549545591" lon="9.80111469494107"><ele>268.0</ele><time>2026-05-01T14:35:25Z</time></trkpt><trkpt lat="44.83224277734275" lon="9.801046950998215"><ele>268.0</ele><time>2026-05-01T14:35:26Z</time></trkpt><trkpt lat="44.83232309377271" lon="9.80093193066611"><ele>268.0</ele><time>2026-05-01T14:35:28Z</time></trkpt><trkpt lat="44.83237774357626" lon="9.80084720079712"><ele>268.0</ele><time>2026-05-01T14:35:30Z</time></trkpt><trkpt lat="44.83244841841909" lon="9.800798376988126"><ele>268.0</ele><time>2026-05-01T14:35:32Z</time></trkpt><trkpt lat="44.83253203238193" lon="9.800831952349784"><ele>268.0</ele><time>2026-05-01T14:35:34Z</time></trkpt><trkpt lat="44.832603366418816" lon="9.800882038097182"><ele>268.0</ele><time>2026-05-01T14:35:36Z</time></trkpt><trkpt lat="44.83262121315888" lon="9.801011828061668"><ele>268.0</ele><time>2026-05-01T14:35:40Z</time></trkpt><trkpt lat="44.83265942324567" lon="9.801142437800763"><ele>268.0</ele><time>2026-05-01T14:35:42Z</time></trkpt><trkpt lat="44.83274452293136" lon="9.801232782204604"><ele>267.8333333333333</ele><time>2026-05-01T14:35:44Z</time></trkpt><trkpt lat="44.83280220964945" lon="9.801295704028552"><ele>267.66666666666663</ele><time>2026-05-01T14:35:45Z</time></trkpt><trkpt lat="44.832883316153655" lon="9.801388922535335"><ele>267.5</ele><time>2026-05-01T14:35:46Z</time></trkpt><trkpt lat="44.8329590702351" lon="9.80146510516847"><ele>267.3333333333333</ele><time>2026-05-01T14:35:47Z</time></trkpt><trkpt lat="44.83303339780208" lon="9.801543888643323"><ele>267.1666666666667</ele><time>2026-05-01T14:35:48Z</time></trkpt><trkpt lat="44.8331045847596" lon="9.801609405256597"><ele>267.0</ele><time>2026-05-01T14:35:49Z</time></trkpt><trkpt lat="44.8331739390338" lon="9.801670327973042"><ele>267.0</ele><time>2026-05-01T14:35:50Z</time></trkpt><trkpt lat="44.83323612178538" lon="9.801717954909327"><ele>267.0</ele><time>2026-05-01T14:35:51Z</time></trkpt><trkpt lat="44.833303872089516" lon="9.801745799462775"><ele>267.0</ele><time>2026-05-01T14:35:52Z</time></trkpt><trkpt lat="44.83336990026433" lon="9.80175895925063"><ele>267.0</ele><time>2026-05-01T14:35:53Z</time></trkpt><trkpt lat="44.83348703919787" lon="9.801745233865715"><ele>267.0</ele><time>2026-05-01T14:35:55Z</time></trkpt><trkpt lat="44.833556889928396" lon="9.801694511517189"><ele>267.0</ele><time>2026-05-01T14:35:57Z</time></trkpt><trkpt lat="44.83347752761613" lon="9.801754875176416"><ele>264.3333333333333</ele><time>2026-05-01T14:36:12Z</time></trkpt><trkpt lat="44.8334371405258" lon="9.801894332287471"><ele>261.6666666666667</ele><time>2026-05-01T14:36:13Z</time></trkpt><trkpt lat="44.83339797477166" lon="9.801969694904242"><ele>259.0</ele><time>2026-05-01T14:36:14Z</time></trkpt><trkpt lat="44.833366645868665" lon="9.802063772736778"><ele>256.33333333333337</ele><time>2026-05-01T14:36:15Z</time></trkpt><trkpt lat="44.83334242785158" lon="9.802166621470404"><ele>253.66666666666669</ele><time>2026-05-01T14:36:16Z</time></trkpt><trkpt lat="44.83333646730288" lon="9.802284923766768"><ele>251.0</ele><time>2026-05-01T14:36:17Z</time></trkpt><trkpt lat="44.833337553265295" lon="9.802402364424818"><ele>251.0</ele><time>2026-05-01T14:36:18Z</time></trkpt><trkpt lat="44.83334634492603" lon="9.802521972338756"><ele>251.00000000000003</ele><time>2026-05-01T14:36:19Z</time></trkpt><trkpt lat="44.83334500176391" lon="9.802630383654247"><ele>251.00000000000003</ele><time>2026-05-01T14:36:20.001Z</time></trkpt><trkpt lat="44.83333700029494" lon="9.802729022432773"><ele>251.0</ele><time>2026-05-01T14:36:21.001Z</time></trkpt><trkpt lat="44.833331753248096" lon="9.802867954579101"><ele>251.0</ele><time>2026-05-01T14:36:23.001Z</time></trkpt><trkpt lat="44.83342979551956" lon="9.802991611811786"><ele>248.33333333333334</ele><time>2026-05-01T14:36:25.001Z</time></trkpt><trkpt lat="44.83348997811611" lon="9.803096896642009"><ele>245.66666666666669</ele><time>2026-05-01T14:36:26.001Z</time></trkpt><trkpt lat="44.833544935037466" lon="9.803204087694239"><ele>243.0</ele><time>2026-05-01T14:36:27.001Z</time></trkpt><trkpt lat="44.83358886152034" lon="9.80330286920083"><ele>240.33333333333331</ele><time>2026-05-01T14:36:28.001Z</time></trkpt><trkpt lat="44.83363091063042" lon="9.80339132693372"><ele>237.66666666666666</ele><time>2026-05-01T14:36:29.001Z</time></trkpt><trkpt lat="44.833674774212305" lon="9.803480419478493"><ele>235.0</ele><time>2026-05-01T14:36:30.001Z</time></trkpt><trkpt lat="44.83371249723733" lon="9.803560713147256"><ele>233.83333333333331</ele><time>2026-05-01T14:36:31.001Z</time></trkpt><trkpt lat="44.8337475237147" lon="9.803651031761973"><ele>232.66666666666666</ele><time>2026-05-01T14:36:32.001Z</time></trkpt><trkpt lat="44.833790085978976" lon="9.803749689449987"><ele>231.5</ele><time>2026-05-01T14:36:33.001Z</time></trkpt><trkpt lat="44.83383601917336" lon="9.803829569716903"><ele>230.33333333333331</ele><time>2026-05-01T14:36:34.001Z</time></trkpt><trkpt lat="44.833868241817804" lon="9.803918157268816"><ele>229.16666666666666</ele><time>2026-05-01T14:36:35.001Z</time></trkpt><trkpt lat="44.83394236907589" lon="9.804032827187168"><ele>228.0</ele><time>2026-05-01T14:36:37.001Z</time></trkpt><trkpt lat="44.83402547691499" lon="9.804132361014487"><ele>228.0</ele><time>2026-05-01T14:36:39.001Z</time></trkpt><trkpt lat="44.834051880201535" lon="9.804244647860754"><ele>228.0</ele><time>2026-05-01T14:36:42.001Z</time></trkpt><trkpt lat="44.83400602266261" lon="9.804335006233812"><ele>228.0</ele><time>2026-05-01T14:36:44.001Z</time></trkpt><trkpt lat="44.83390874052137" lon="9.804424950463677"><ele>228.0</ele><time>2026-05-01T14:36:46.001Z</time></trkpt><trkpt lat="44.833876782223555" lon="9.804502944093064"><ele>228.0</ele><time>2026-05-01T14:36:47.001Z</time></trkpt><trkpt lat="44.833824336285204" lon="9.804621823405972"><ele>228.0</ele><time>2026-05-01T14:36:49.001Z</time></trkpt><trkpt lat="44.8337693590897" lon="9.804679244252458"><ele>225.33333333333334</ele><time>2026-05-01T14:36:51.001Z</time></trkpt><trkpt lat="44.833684674042985" lon="9.804680428442653"><ele>222.66666666666669</ele><time>2026-05-01T14:36:54Z</time></trkpt><trkpt lat="44.83362664012608" lon="9.804582288828545"><ele>220.0</ele><time>2026-05-01T14:36:56Z</time></trkpt><trkpt lat="44.83356083975276" lon="9.804527157724939"><ele>217.33333333333334</ele><time>2026-05-01T14:36:58Z</time></trkpt><trkpt lat="44.83351092340272" lon="9.804601404124476"><ele>214.66666666666669</ele><time>2026-05-01T14:37:00Z</time></trkpt><trkpt lat="44.83347857525039" lon="9.804688381267662"><ele>212.0</ele><time>2026-05-01T14:37:02Z</time></trkpt><trkpt lat="44.83349973054228" lon="9.804831552564709"><ele>212.0</ele><time>2026-05-01T14:37:04Z</time></trkpt><trkpt lat="44.833539786350805" lon="9.805006368710048"><ele>212.0</ele><time>2026-05-01T14:37:06Z</time></trkpt><trkpt lat="44.83356772041881" lon="9.805089478793391"><ele>212.0</ele><time>2026-05-01T14:37:07Z</time></trkpt><trkpt lat="44.83364200445936" lon="9.805211040981815"><ele>212.0</ele><time>2026-05-01T14:37:09Z</time></trkpt><trkpt lat="44.83374342324968" lon="9.80531887968997"><ele>212.0</ele><time>2026-05-01T14:37:11Z</time></trkpt><trkpt lat="44.83380534348345" lon="9.805366266950589"><ele>208.6</ele><time>2026-05-01T14:37:12Z</time></trkpt><trkpt lat="44.8339126738474" lon="9.805429061354275"><ele>205.2</ele><time>2026-05-01T14:37:14Z</time></trkpt><trkpt lat="44.83403416066845" lon="9.805443348508955"><ele>201.8</ele><time>2026-05-01T14:37:16Z</time></trkpt><trkpt lat="44.834127671064735" lon="9.805459368514198"><ele>198.4</ele><time>2026-05-01T14:37:17Z</time></trkpt><trkpt lat="44.834196144856335" lon="9.805471861444625"><ele>195.0</ele><time>2026-05-01T14:37:18Z</time></trkpt><trkpt lat="44.834260979798955" lon="9.805514233203377"><ele>194.66666666666666</ele><time>2026-05-01T14:37:19Z</time></trkpt><trkpt lat="44.8343228827959" lon="9.805542071374228"><ele>194.33333333333331</ele><time>2026-05-01T14:37:20Z</time></trkpt><trkpt lat="44.8344068365144" lon="9.805591645402618"><ele>194.0</ele><time>2026-05-01T14:37:22Z</time></trkpt><trkpt lat="44.834378950014155" lon="9.805713589695072"><ele>193.66666666666666</ele><time>2026-05-01T14:37:24Z</time></trkpt><trkpt lat="44.83437240832188" lon="9.805808268089827"><ele>193.33333333333331</ele><time>2026-05-01T14:37:25Z</time></trkpt><trkpt lat="44.83435646474077" lon="9.805939998374667"><ele>193.0</ele><time>2026-05-01T14:37:26Z</time></trkpt><trkpt lat="44.83432846534892" lon="9.806102954740478"><ele>192.25</ele><time>2026-05-01T14:37:27Z</time></trkpt><trkpt lat="44.834285165437734" lon="9.806286927108319"><ele>191.5</ele><time>2026-05-01T14:37:28Z</time></trkpt><trkpt lat="44.83423971411642" lon="9.80648717548911"><ele>190.75</ele><time>2026-05-01T14:37:29Z</time></trkpt><trkpt lat="44.83419752470728" lon="9.806675153718523"><ele>190.0</ele><time>2026-05-01T14:37:30Z</time></trkpt><trkpt lat="44.8341603924257" lon="9.80681465896547"><ele>190.0</ele><time>2026-05-01T14:37:31Z</time></trkpt><trkpt lat="44.83413769448705" lon="9.806901341892653"><ele>190.0</ele><time>2026-05-01T14:37:32Z</time></trkpt><trkpt lat="44.83403870180738" lon="9.806897262642796"><ele>190.0</ele><time>2026-05-01T14:37:35Z</time></trkpt><trkpt lat="44.83394199201804" lon="9.80689063698018"><ele>190.0</ele><time>2026-05-01T14:37:36Z</time></trkpt><trkpt lat="44.83380153755588" lon="9.80687797090863"><ele>190.0</ele><time>2026-05-01T14:37:37Z</time></trkpt><trkpt lat="44.83364333021308" lon="9.806854350320465"><ele>190.0</ele><time>2026-05-01T14:37:38Z</time></trkpt><trkpt lat="44.833480620488984" lon="9.806806692982585"><ele>190.0</ele><time>2026-05-01T14:37:39Z</time></trkpt><trkpt lat="44.833308267653834" lon="9.806727341466187"><ele>190.0</ele><time>2026-05-01T14:37:40Z</time></trkpt><trkpt lat="44.833130414436454" lon="9.80663898692631"><ele>190.75</ele><time>2026-05-01T14:37:41Z</time></trkpt><trkpt lat="44.832982666915704" lon="9.806567147451068"><ele>191.5</ele><time>2026-05-01T14:37:42Z</time></trkpt><trkpt lat="44.83286866140406" lon="9.806536508944289"><ele>192.25</ele><time>2026-05-01T14:37:43Z</time></trkpt><trkpt lat="44.83280818833797" lon="9.806502636348538"><ele>193.0</ele><time>2026-05-01T14:37:44Z</time></trkpt><trkpt lat="44.83276811319563" lon="9.806709657749742"><ele>193.0</ele><time>2026-05-01T14:37:47Z</time></trkpt><trkpt lat="44.83275326150266" lon="9.80687269955245"><ele>193.0</ele><time>2026-05-01T14:37:48Z</time></trkpt><trkpt lat="44.83270969313756" lon="9.807068336664189"><ele>193.0</ele><time>2026-05-01T14:37:49Z</time></trkpt><trkpt lat="44.832677603218535" lon="9.807269136627154"><ele>193.0</ele><time>2026-05-01T14:37:50Z</time></trkpt><trkpt lat="44.83267622799653" lon="9.807473610921532"><ele>192.0</ele><time>2026-05-01T14:37:51Z</time></trkpt><trkpt lat="44.83269848210432" lon="9.807684432322738"><ele>191.0</ele><time>2026-05-01T14:37:52Z</time></trkpt><trkpt lat="44.832764919583" lon="9.80791478943348"><ele>190.0</ele><time>2026-05-01T14:37:53Z</time></trkpt><trkpt lat="44.832874503965435" lon="9.808161505505355"><ele>190.0</ele><time>2026-05-01T14:37:54Z</time></trkpt><trkpt lat="44.83299949974587" lon="9.808417253812403"><ele>190.0</ele><time>2026-05-01T14:37:55Z</time></trkpt><trkpt lat="44.833099240271814" lon="9.80868147327972"><ele>190.0</ele><time>2026-05-01T14:37:56Z</time></trkpt><trkpt lat="44.83318233525314" lon="9.808887631567098"><ele>189.83333333333334</ele><time>2026-05-01T14:37:57Z</time></trkpt><trkpt lat="44.83323319413006" lon="9.80901415196009"><ele>189.66666666666669</ele><time>2026-05-01T14:37:58Z</time></trkpt><trkpt lat="44.83326768837243" lon="9.809099962938719"><ele>189.5</ele><time>2026-05-01T14:37:59Z</time></trkpt><trkpt lat="44.83331954160516" lon="9.809224216249596"><ele>189.33333333333334</ele><time>2026-05-01T14:38:01Z</time></trkpt><trkpt lat="44.83327724072379" lon="9.809122293446618"><ele>189.16666666666666</ele><time>2026-05-01T14:38:16Z</time></trkpt><trkpt lat="44.83325440482171" lon="9.80900593957492"><ele>189.0</ele><time>2026-05-01T14:38:17Z</time></trkpt><trkpt lat="44.833217914629834" lon="9.80890761011454"><ele>189.0</ele><time>2026-05-01T14:38:18Z</time></trkpt><trkpt lat="44.83315288554666" lon="9.80882307557551"><ele>189.0</ele><time>2026-05-01T14:38:20Z</time></trkpt><trkpt lat="44.83304430010222" lon="9.808867395855229"><ele>189.0</ele><time>2026-05-01T14:38:22Z</time></trkpt><trkpt lat="44.83291936363096" lon="9.808945744986099"><ele>189.0</ele><time>2026-05-01T14:38:24Z</time></trkpt><trkpt lat="44.83283899794955" lon="9.808990691081071"><ele>189.0</ele><time>2026-05-01T14:38:25Z</time></trkpt><trkpt lat="44.832770487371924" lon="9.809040744354004"><ele>189.0</ele><time>2026-05-01T14:38:26Z</time></trkpt><trkpt lat="44.832707257435274" lon="9.80911198502214"><ele>189.0</ele><time>2026-05-01T14:38:27Z</time></trkpt><trkpt lat="44.83265772266954" lon="9.809198928763399"><ele>189.0</ele><time>2026-05-01T14:38:28Z</time></trkpt><trkpt lat="44.83263288746701" lon="9.809280851011584"><ele>189.0</ele><time>2026-05-01T14:38:29Z</time></trkpt><trkpt lat="44.83263856323446" lon="9.809456059147182"><ele>189.0</ele><time>2026-05-01T14:38:31Z</time></trkpt><trkpt lat="44.83267034171079" lon="9.80956042218452"><ele>189.0</ele><time>2026-05-01T14:38:32Z</time></trkpt><trkpt lat="44.83270728147403" lon="9.809640370889353"><ele>189.66666666666666</ele><time>2026-05-01T14:38:33Z</time></trkpt><trkpt lat="44.83271418162861" lon="9.809742132222928"><ele>190.33333333333331</ele><time>2026-05-01T14:38:35Z</time></trkpt><trkpt lat="44.83262555858291" lon="9.809818592694988"><ele>191.0</ele><time>2026-05-01T14:38:37Z</time></trkpt><trkpt lat="44.83255051426287" lon="9.809850688016505"><ele>191.66666666666666</ele><time>2026-05-01T14:38:38Z</time></trkpt><trkpt lat="44.832470625403026" lon="9.809870928133764"><ele>192.33333333333331</ele><time>2026-05-01T14:38:39Z</time></trkpt><trkpt lat="44.832415973519446" lon="9.809921378050708"><ele>193.0</ele><time>2026-05-01T14:38:40Z</time></trkpt><trkpt lat="44.832337260769265" lon="9.810097158098346"><ele>193.4</ele><time>2026-05-01T14:38:42Z</time></trkpt><trkpt lat="44.832288062208654" lon="9.81020136421595"><ele>193.8</ele><time>2026-05-01T14:38:43Z</time></trkpt><trkpt lat="44.832221060731264" lon="9.810301716555568"><ele>194.2</ele><time>2026-05-01T14:38:44Z</time></trkpt><trkpt lat="44.832150699908794" lon="9.810388624906567"><ele>194.6</ele><time>2026-05-01T14:38:45Z</time></trkpt><trkpt lat="44.83210504628718" lon="9.810462615751131"><ele>195.0</ele><time>2026-05-01T14:38:46Z</time></trkpt><trkpt lat="44.832028333978826" lon="9.810582933750416"><ele>195.0</ele><time>2026-05-01T14:38:48Z</time></trkpt><trkpt lat="44.83192154145928" lon="9.81067735144609"><ele>195.0</ele><time>2026-05-01T14:38:50Z</time></trkpt><trkpt lat="44.83183960616427" lon="9.810721245069304"><ele>195.0</ele><time>2026-05-01T14:38:51Z</time></trkpt><trkpt lat="44.831727143156805" lon="9.810779964746082"><ele>195.0</ele><time>2026-05-01T14:38:52Z</time></trkpt><trkpt lat="44.83164001572199" lon="9.810811701370639"><ele>195.0</ele><time>2026-05-01T14:38:53Z</time></trkpt><trkpt lat="44.831549828258616" lon="9.81082276112916"><ele>195.16666666666666</ele><time>2026-05-01T14:38:54Z</time></trkpt><trkpt lat="44.831434407341995" lon="9.810823622800902"><ele>195.33333333333331</ele><time>2026-05-01T14:38:55Z</time></trkpt><trkpt lat="44.8313306534262" lon="9.810843916514521"><ele>195.5</ele><time>2026-05-01T14:38:56Z</time></trkpt><trkpt lat="44.83125676294096" lon="9.810875779973612"><ele>195.66666666666666</ele><time>2026-05-01T14:38:57Z</time></trkpt><trkpt lat="44.831194621060966" lon="9.810921999634234"><ele>195.83333333333331</ele><time>2026-05-01T14:38:58Z</time></trkpt><trkpt lat="44.83113608368188" lon="9.810979451033633"><ele>196.0</ele><time>2026-05-01T14:38:59Z</time></trkpt><trkpt lat="44.831034459807924" lon="9.811044512156988"><ele>196.0</ele><time>2026-05-01T14:39:01Z</time></trkpt><trkpt lat="44.83097796529886" lon="9.811088235104895"><ele>196.0</ele><time>2026-05-01T14:39:02Z</time></trkpt><trkpt lat="44.83091512785891" lon="9.811141102920452"><ele>196.0</ele><time>2026-05-01T14:39:03Z</time></trkpt><trkpt lat="44.83084707602164" lon="9.811187115315782"><ele>196.0</ele><time>2026-05-01T14:39:04Z</time></trkpt><trkpt lat="44.8307763821589" lon="9.811224908144174"><ele>196.0</ele><time>2026-05-01T14:39:05Z</time></trkpt><trkpt lat="44.83070521110758" lon="9.811250462251875"><ele>196.0</ele><time>2026-05-01T14:39:06Z</time></trkpt><trkpt lat="44.83062216856696" lon="9.811280974770506"><ele>196.0</ele><time>2026-05-01T14:39:07Z</time></trkpt><trkpt lat="44.83054599183301" lon="9.811296699374967"><ele>195.99999999999997</ele><time>2026-05-01T14:39:08Z</time></trkpt><trkpt lat="44.83047771076017" lon="9.811313096704678"><ele>196.0</ele><time>2026-05-01T14:39:09Z</time></trkpt><trkpt lat="44.83040591173244" lon="9.81133330729183"><ele>196.0</ele><time>2026-05-01T14:39:10Z</time></trkpt><trkpt lat="44.830333648386905" lon="9.811353805843183"><ele>196.0</ele><time>2026-05-01T14:39:11Z</time></trkpt><trkpt lat="44.83025437572574" lon="9.811366623913887"><ele>195.99999999999997</ele><time>2026-05-01T14:39:12Z</time></trkpt><trkpt lat="44.830169965411365" lon="9.811377166219149"><ele>196.0</ele><time>2026-05-01T14:39:13Z</time></trkpt><trkpt lat="44.83008353133044" lon="9.8113865917449"><ele>196.8</ele><time>2026-05-01T14:39:14Z</time></trkpt><trkpt lat="44.83000841112925" lon="9.811400635389273"><ele>197.60000000000002</ele><time>2026-05-01T14:39:15Z</time></trkpt><trkpt lat="44.82989687163514" lon="9.811433031091024"><ele>198.4</ele><time>2026-05-01T14:39:17Z</time></trkpt><trkpt lat="44.829789782053055" lon="9.811505923468177"><ele>199.2</ele><time>2026-05-01T14:39:19Z</time></trkpt><trkpt lat="44.82971142093873" lon="9.81159603455674"><ele>200.0</ele><time>2026-05-01T14:39:21Z</time></trkpt><trkpt lat="44.82962761150667" lon="9.811662847252409"><ele>200.00000000000003</ele><time>2026-05-01T14:39:23Z</time></trkpt><trkpt lat="44.829564421044616" lon="9.811690681707269"><ele>200.0</ele><time>2026-05-01T14:39:24Z</time></trkpt><trkpt lat="44.82949560373393" lon="9.811710988266325"><ele>200.0</ele><time>2026-05-01T14:39:25Z</time></trkpt><trkpt lat="44.82940838950618" lon="9.811723891630173"><ele>200.0</ele><time>2026-05-01T14:39:26Z</time></trkpt><trkpt lat="44.829322565555124" lon="9.811702625820498"><ele>200.00000000000003</ele><time>2026-05-01T14:39:27Z</time></trkpt><trkpt lat="44.829206182754795" lon="9.811669458487875"><ele>200.0</ele><time>2026-05-01T14:39:28Z</time></trkpt><trkpt lat="44.82906794098641" lon="9.811632771949396"><ele>200.0</ele><time>2026-05-01T14:39:29Z</time></trkpt><trkpt lat="44.82892603732589" lon="9.811593357826364"><ele>200.0</ele><time>2026-05-01T14:39:30Z</time></trkpt><trkpt lat="44.82881842845149" lon="9.81156169519015"><ele>200.0</ele><time>2026-05-01T14:39:31Z</time></trkpt><trkpt lat="44.828718405135476" lon="9.811540585878193"><ele>200.0</ele><time>2026-05-01T14:39:32Z</time></trkpt><trkpt lat="44.82860725437454" lon="9.81151860743021"><ele>200.00000000000003</ele><time>2026-05-01T14:39:33Z</time></trkpt><trkpt lat="44.82853499635728" lon="9.811502811469238"><ele>200.0</ele><time>2026-05-01T14:39:34Z</time></trkpt><trkpt lat="44.828454629103724" lon="9.811477978658793"><ele>200.0</ele><time>2026-05-01T14:39:36Z</time></trkpt><trkpt lat="44.8283573823467" lon="9.811429530160419"><ele>200.0</ele><time>2026-05-01T14:39:38Z</time></trkpt><trkpt lat="44.82826866216678" lon="9.811392320294061"><ele>200.00000000000003</ele><time>2026-05-01T14:39:40Z</time></trkpt><trkpt lat="44.82817373529079" lon="9.811357394084093"><ele>200.0</ele><time>2026-05-01T14:39:42Z</time></trkpt><trkpt lat="44.82805762356648" lon="9.811304095919766"><ele>200.2</ele><time>2026-05-01T14:39:44Z</time></trkpt><trkpt lat="44.82797854937146" lon="9.811318803485092"><ele>200.4</ele><time>2026-05-01T14:39:45Z</time></trkpt><trkpt lat="44.82788225545431" lon="9.811304236024963"><ele>200.60000000000002</ele><time>2026-05-01T14:39:46Z</time></trkpt><trkpt lat="44.82777078049826" lon="9.811257629553998"><ele>200.8</ele><time>2026-05-01T14:39:47Z</time></trkpt><trkpt lat="44.82768298480073" lon="9.81123931884985"><ele>201.0</ele><time>2026-05-01T14:39:48Z</time></trkpt><trkpt lat="44.827610538096955" lon="9.811220646251792"><ele>201.20000000000002</ele><time>2026-05-01T14:39:49Z</time></trkpt><trkpt lat="44.82754475692148" lon="9.811196098006436"><ele>201.4</ele><time>2026-05-01T14:39:50Z</time></trkpt><trkpt lat="44.8274132555144" lon="9.81113470914536"><ele>201.6</ele><time>2026-05-01T14:39:52Z</time></trkpt><trkpt lat="44.82731598193859" lon="9.811093890541164"><ele>201.8</ele><time>2026-05-01T14:39:54Z</time></trkpt><trkpt lat="44.82724038822704" lon="9.81108143711621"><ele>202.0</ele><time>2026-05-01T14:39:56Z</time></trkpt><trkpt lat="44.82713713611848" lon="9.811021157856711"><ele>201.99999999999997</ele><time>2026-05-01T14:39:58Z</time></trkpt><trkpt lat="44.827059523896175" lon="9.810991490711395"><ele>202.0</ele><time>2026-05-01T14:40:00Z</time></trkpt><trkpt lat="44.82702286732054" lon="9.81111597137803"><ele>202.0</ele><time>2026-05-01T14:40:18Z</time></trkpt><trkpt lat="44.827019199027056" lon="9.811230449887768"><ele>202.0</ele><time>2026-05-01T14:40:20Z</time></trkpt><trkpt lat="44.827018811278826" lon="9.811322434336834"><ele>201.99999999999997</ele><time>2026-05-01T14:40:22Z</time></trkpt><trkpt lat="44.827008809479494" lon="9.811424934604368"><ele>202.0</ele><time>2026-05-01T14:40:24Z</time></trkpt><trkpt lat="44.82698535488865" lon="9.811588866298242"><ele>202.0</ele><time>2026-05-01T14:40:26Z</time></trkpt><trkpt lat="44.82693534773438" lon="9.81166068606353"><ele>202.0</ele><time>2026-05-01T14:40:28Z</time></trkpt><trkpt lat="44.82683145789898" lon="9.81167901750396"><ele>202.0</ele><time>2026-05-01T14:40:30Z</time></trkpt><trkpt lat="44.826726985624056" lon="9.811610761577183"><ele>202.0</ele><time>2026-05-01T14:40:32Z</time></trkpt><trkpt lat="44.826643589248995" lon="9.811571264972581"><ele>202.0</ele><time>2026-05-01T14:40:34Z</time></trkpt><trkpt lat="44.826548055223306" lon="9.811592258522582"><ele>202.39999999999998</ele><time>2026-05-01T14:40:37Z</time></trkpt><trkpt lat="44.82644469929068" lon="9.811599019343811"><ele>202.79999999999998</ele><time>2026-05-01T14:40:46Z</time></trkpt><trkpt lat="44.82635138197959" lon="9.811586620492243"><ele>203.2</ele><time>2026-05-01T14:40:47Z</time></trkpt><trkpt lat="44.82626070784674" lon="9.811583380864223"><ele>203.6</ele><time>2026-05-01T14:40:48Z</time></trkpt><trkpt lat="44.8261425591493" lon="9.81160296190379"><ele>204.0</ele><time>2026-05-01T14:40:49Z</time></trkpt><trkpt lat="44.826053773698874" lon="9.811604803334296"><ele>204.66666666666666</ele><time>2026-05-01T14:40:50Z</time></trkpt><trkpt lat="44.825972685671054" lon="9.81157301609518"><ele>205.33333333333331</ele><time>2026-05-01T14:40:51Z</time></trkpt><trkpt lat="44.82585382671858" lon="9.811531122155923"><ele>206.0</ele><time>2026-05-01T14:40:52Z</time></trkpt><trkpt lat="44.82576780167803" lon="9.811508117736526"><ele>206.66666666666666</ele><time>2026-05-01T14:40:53Z</time></trkpt><trkpt lat="44.82569728395689" lon="9.81148290708089"><ele>207.33333333333331</ele><time>2026-05-01T14:40:54Z</time></trkpt><trkpt lat="44.82563408591496" lon="9.811461923465968"><ele>208.0</ele><time>2026-05-01T14:40:55Z</time></trkpt><trkpt lat="44.82555123083704" lon="9.8114666640733"><ele>208.0</ele><time>2026-05-01T14:40:56Z</time></trkpt><trkpt lat="44.825460140480246" lon="9.811486708764235"><ele>208.0</ele><time>2026-05-01T14:40:57Z</time></trkpt><trkpt lat="44.82535754930792" lon="9.811533676669875"><ele>208.0</ele><time>2026-05-01T14:40:58Z</time></trkpt><trkpt lat="44.82525996956272" lon="9.81156189726252"><ele>208.0</ele><time>2026-05-01T14:40:59Z</time></trkpt><trkpt lat="44.825163395164104" lon="9.811576667590721"><ele>208.0</ele><time>2026-05-01T14:41:00Z</time></trkpt><trkpt lat="44.825074187817535" lon="9.811593540490712"><ele>208.16666666666666</ele><time>2026-05-01T14:41:01Z</time></trkpt><trkpt lat="44.82497174046923" lon="9.81162299411853"><ele>208.33333333333331</ele><time>2026-05-01T14:41:02Z</time></trkpt><trkpt lat="44.824901763828" lon="9.811624072869817"><ele>208.5</ele><time>2026-05-01T14:41:03Z</time></trkpt><trkpt lat="44.824824710697115" lon="9.811631218847726"><ele>208.66666666666669</ele><time>2026-05-01T14:41:04Z</time></trkpt><trkpt lat="44.82475165886629" lon="9.811652143230067"><ele>208.83333333333334</ele><time>2026-05-01T14:41:05Z</time></trkpt><trkpt lat="44.8246891993202" lon="9.811699592907537"><ele>209.0</ele><time>2026-05-01T14:41:06Z</time></trkpt><trkpt lat="44.82461001775408" lon="9.81179758003765"><ele>209.5</ele><time>2026-05-01T14:41:08Z</time></trkpt><trkpt lat="44.824608229176064" lon="9.811938627705635"><ele>210.0</ele><time>2026-05-01T14:41:10Z</time></trkpt><trkpt lat="44.82465450973242" lon="9.812169401785331"><ele>210.5</ele><time>2026-05-01T14:41:12Z</time></trkpt><trkpt lat="44.82467602120188" lon="9.812319077553862"><ele>211.0</ele><time>2026-05-01T14:41:13Z</time></trkpt><trkpt lat="44.82467722274527" lon="9.812461836978578"><ele>211.0</ele><time>2026-05-01T14:41:14Z</time></trkpt><trkpt lat="44.82467763090842" lon="9.81264450141835"><ele>211.0</ele><time>2026-05-01T14:41:15Z</time></trkpt><trkpt lat="44.824685039544455" lon="9.812851766776703"><ele>211.0</ele><time>2026-05-01T14:41:16Z</time></trkpt><trkpt lat="44.82469249245091" lon="9.813006931524317"><ele>211.0</ele><time>2026-05-01T14:41:17Z</time></trkpt><trkpt lat="44.824701719305736" lon="9.813143365546182"><ele>212.25</ele><time>2026-05-01T14:41:18Z</time></trkpt><trkpt lat="44.824714393080654" lon="9.813300328195501"><ele>213.5</ele><time>2026-05-01T14:41:19Z</time></trkpt><trkpt lat="44.82473020307843" lon="9.81347078300614"><ele>214.75</ele><time>2026-05-01T14:41:20Z</time></trkpt><trkpt lat="44.82473921861102" lon="9.813718440874379"><ele>216.0</ele><time>2026-05-01T14:41:21Z</time></trkpt><trkpt lat="44.8247504160106" lon="9.813986292724927"><ele>217.60000000000002</ele><time>2026-05-01T14:41:22Z</time></trkpt><trkpt lat="44.8247638678409" lon="9.814171630066918"><ele>219.20000000000002</ele><time>2026-05-01T14:41:23Z</time></trkpt><trkpt lat="44.82474732821881" lon="9.814326580575104"><ele>220.79999999999998</ele><time>2026-05-01T14:41:24Z</time></trkpt><trkpt lat="44.824750604894234" lon="9.814438763554856"><ele>222.39999999999998</ele><time>2026-05-01T14:41:25Z</time></trkpt><trkpt lat="44.82475962546828" lon="9.814527243725458"><ele>224.0</ele><time>2026-05-01T14:41:27Z</time></trkpt><trkpt lat="44.824657008155945" lon="9.814537347958849"><ele>223.79999999999998</ele><time>2026-05-01T14:41:29Z</time></trkpt><trkpt lat="44.824591452248676" lon="9.814459984704838"><ele>223.59999999999997</ele><time>2026-05-01T14:41:30Z</time></trkpt><trkpt lat="44.824487998546466" lon="9.814405783609626"><ele>223.4</ele><time>2026-05-01T14:41:32Z</time></trkpt><trkpt lat="44.8244013906899" lon="9.814353846610855"><ele>223.2</ele><time>2026-05-01T14:41:33Z</time></trkpt><trkpt lat="44.82428178900183" lon="9.814321075324901"><ele>223.0</ele><time>2026-05-01T14:41:34Z</time></trkpt><trkpt lat="44.82414799533379" lon="9.814342694489481"><ele>225.66666666666666</ele><time>2026-05-01T14:41:35Z</time></trkpt><trkpt lat="44.82400074412862" lon="9.814434034858799"><ele>228.33333333333331</ele><time>2026-05-01T14:41:36Z</time></trkpt><trkpt lat="44.82386562148118" lon="9.814577143791123"><ele>231.0</ele><time>2026-05-01T14:41:37Z</time></trkpt><trkpt lat="44.823759824530235" lon="9.814715371763024"><ele>231.0</ele><time>2026-05-01T14:41:38Z</time></trkpt><trkpt lat="44.823666100220116" lon="9.814826854205572"><ele>231.00000000000003</ele><time>2026-05-01T14:41:39Z</time></trkpt><trkpt lat="44.823558927124395" lon="9.814871639375593"><ele>231.00000000000003</ele><time>2026-05-01T14:41:40Z</time></trkpt><trkpt lat="44.823463016849495" lon="9.814918469292937"><ele>231.0</ele><time>2026-05-01T14:41:41Z</time></trkpt><trkpt lat="44.82337332183546" lon="9.814957377489524"><ele>231.0</ele><time>2026-05-01T14:41:42Z</time></trkpt><trkpt lat="44.82329479728181" lon="9.815005886565007"><ele>230.33333333333334</ele><time>2026-05-01T14:41:43Z</time></trkpt><trkpt lat="44.823216010410455" lon="9.815032733121502"><ele>229.66666666666669</ele><time>2026-05-01T14:41:44Z</time></trkpt><trkpt lat="44.82313482056704" lon="9.815061458679146"><ele>229.0</ele><time>2026-05-01T14:41:45Z</time></trkpt><trkpt lat="44.8230366907931" lon="9.815100407942229"><ele>228.33333333333334</ele><time>2026-05-01T14:41:46Z</time></trkpt><trkpt lat="44.82294166099925" lon="9.815137957771919"><ele>227.66666666666669</ele><time>2026-05-01T14:41:47Z</time></trkpt><trkpt lat="44.82285906384986" lon="9.815146268712864"><ele>227.0</ele><time>2026-05-01T14:41:49Z</time></trkpt><trkpt lat="44.82295047913618" lon="9.815124692425687"><ele>227.0</ele><time>2026-05-01T14:41:55Z</time></trkpt><trkpt lat="44.823048439732865" lon="9.815130479081759"><ele>227.0</ele><time>2026-05-01T14:41:56Z</time></trkpt><trkpt lat="44.82315989559288" lon="9.815077877903065"><ele>227.0</ele><time>2026-05-01T14:41:57Z</time></trkpt><trkpt lat="44.82329713909803" lon="9.815017565021769"><ele>227.0</ele><time>2026-05-01T14:41:58Z</time></trkpt><trkpt lat="44.82344540305097" lon="9.814957339428734"><ele>228.33333333333334</ele><time>2026-05-01T14:41:59Z</time></trkpt><trkpt lat="44.82360826955756" lon="9.814886560723213"><ele>229.66666666666669</ele><time>2026-05-01T14:42:00Z</time></trkpt><trkpt lat="44.82378589442328" lon="9.814770926037598"><ele>231.0</ele><time>2026-05-01T14:42:01Z</time></trkpt><trkpt lat="44.82392275407333" lon="9.814618068976223"><ele>231.0</ele><time>2026-05-01T14:42:02Z</time></trkpt><trkpt lat="44.824034443983486" lon="9.814475576720401"><ele>231.0</ele><time>2026-05-01T14:42:03Z</time></trkpt><trkpt lat="44.82414519585344" lon="9.814398336492056"><ele>231.0</ele><time>2026-05-01T14:42:04Z</time></trkpt><trkpt lat="44.82424896139962" lon="9.814361188586371"><ele>231.0</ele><time>2026-05-01T14:42:05Z</time></trkpt><trkpt lat="44.824337656961845" lon="9.814368137633917"><ele>230.60000000000002</ele><time>2026-05-01T14:42:06Z</time></trkpt><trkpt lat="44.82442362734612" lon="9.81440484306009"><ele>230.20000000000002</ele><time>2026-05-01T14:42:07Z</time></trkpt><trkpt lat="44.82450669140809" lon="9.81445996110956"><ele>229.79999999999998</ele><time>2026-05-01T14:42:08Z</time></trkpt><trkpt lat="44.82460082353498" lon="9.814514942906209"><ele>229.39999999999998</ele><time>2026-05-01T14:42:09Z</time></trkpt><trkpt lat="44.82469020934364" lon="9.814551941507691"><ele>229.0</ele><time>2026-05-01T14:42:10Z</time></trkpt><trkpt lat="44.82477126523114" lon="9.814558812014077"><ele>228.99999999999997</ele><time>2026-05-01T14:42:11Z</time></trkpt><trkpt lat="44.824690073749366" lon="9.814574046996041"><ele>229.0</ele><time>2026-05-01T14:42:27Z</time></trkpt><trkpt lat="44.82458194567639" lon="9.814588825126046"><ele>229.0</ele><time>2026-05-01T14:42:29Z</time></trkpt><trkpt lat="44.82451801848921" lon="9.814566308134465"><ele>229.0</ele><time>2026-05-01T14:42:30Z</time></trkpt><trkpt lat="44.82445212860272" lon="9.81454428806525"><ele>228.99999999999997</ele><time>2026-05-01T14:42:31Z</time></trkpt><trkpt lat="44.82438377448886" lon="9.814546147576882"><ele>229.0</ele><time>2026-05-01T14:42:33Z</time></trkpt><trkpt lat="44.82432073247763" lon="9.814633345747929"><ele>229.39999999999998</ele><time>2026-05-01T14:42:35Z</time></trkpt><trkpt lat="44.82426607950507" lon="9.814810274482562"><ele>229.79999999999998</ele><time>2026-05-01T14:42:37Z</time></trkpt><trkpt lat="44.824195223668454" lon="9.814960785276837"><ele>230.20000000000002</ele><time>2026-05-01T14:42:39Z</time></trkpt><trkpt lat="44.82415379459494" lon="9.815062851944475"><ele>230.60000000000002</ele><time>2026-05-01T14:42:40Z</time></trkpt><trkpt lat="44.82411352284298" lon="9.815156453826738"><ele>231.0</ele><time>2026-05-01T14:42:41Z</time></trkpt><trkpt lat="44.824053857272425" lon="9.815278827890092"><ele>233.4</ele><time>2026-05-01T14:42:42Z</time></trkpt><trkpt lat="44.82400514696245" lon="9.815395567038504"><ele>235.8</ele><time>2026-05-01T14:42:43Z</time></trkpt><trkpt lat="44.82395672113888" lon="9.815516990954485"><ele>238.20000000000002</ele><time>2026-05-01T14:42:44Z</time></trkpt><trkpt lat="44.82390068013419" lon="9.815627012857034"><ele>240.60000000000002</ele><time>2026-05-01T14:42:45Z</time></trkpt><trkpt lat="44.8238518679589" lon="9.815736265917053"><ele>243.0</ele><time>2026-05-01T14:42:46Z</time></trkpt><trkpt lat="44.82380633755932" lon="9.815849534798618"><ele>243.0</ele><time>2026-05-01T14:42:47Z</time></trkpt><trkpt lat="44.82375391996598" lon="9.815981120973971"><ele>243.0</ele><time>2026-05-01T14:42:48Z</time></trkpt><trkpt lat="44.82369020387566" lon="9.816111691825476"><ele>243.0</ele><time>2026-05-01T14:42:49Z</time></trkpt><trkpt lat="44.82362705272045" lon="9.816235577951446"><ele>243.0</ele><time>2026-05-01T14:42:50Z</time></trkpt><trkpt lat="44.82355915407231" lon="9.816362050891513"><ele>243.0</ele><time>2026-05-01T14:42:51Z</time></trkpt><trkpt lat="44.82349261294804" lon="9.816490008145117"><ele>245.83333333333334</ele><time>2026-05-01T14:42:52Z</time></trkpt><trkpt lat="44.823442876383496" lon="9.81658674479891"><ele>248.66666666666669</ele><time>2026-05-01T14:42:53Z</time></trkpt><trkpt lat="44.823382244692084" lon="9.816693939086235"><ele>251.5</ele><time>2026-05-01T14:42:55.001Z</time></trkpt><trkpt lat="44.82334152680759" lon="9.816787861358344"><ele>254.33333333333334</ele><time>2026-05-01T14:42:57.001Z</time></trkpt><trkpt lat="44.82323705129285" lon="9.816781180589894"><ele>257.1666666666667</ele><time>2026-05-01T14:43:20Z</time></trkpt><trkpt lat="44.82316715577881" lon="9.816805047558274"><ele>260.0</ele><time>2026-05-01T14:43:22Z</time></trkpt><trkpt lat="44.82309306296954" lon="9.81688966427071"><ele>262.0</ele><time>2026-05-01T14:43:25Z</time></trkpt><trkpt lat="44.8230412525167" lon="9.816971820114109"><ele>264.0</ele><time>2026-05-01T14:43:28Z</time></trkpt><trkpt lat="44.82300983968405" lon="9.817057973348367"><ele>266.0</ele><time>2026-05-01T14:43:30Z</time></trkpt><trkpt lat="44.82302249631014" lon="9.817166175236858"><ele>268.0</ele><time>2026-05-01T14:55:32.001Z</time></trkpt><trkpt lat="44.823043671006864" lon="9.817254764514518"><ele>270.0</ele><time>2026-05-01T14:55:34.001Z</time></trkpt><trkpt lat="44.82307982610648" lon="9.81737153772722"><ele>272.0</ele><time>2026-05-01T14:55:38.001Z</time></trkpt><trkpt lat="44.82311108031316" lon="9.817464422821878"><ele>272.0</ele><time>2026-05-01T14:55:40.001Z</time></trkpt><trkpt lat="44.82313400837176" lon="9.817572528810759"><ele>272.0</ele><time>2026-05-01T14:55:43.001Z</time></trkpt><trkpt lat="44.82314038232712" lon="9.817668746138995"><ele>272.0</ele><time>2026-05-01T14:55:45.001Z</time></trkpt><trkpt lat="44.82312300455436" lon="9.817799928266659"><ele>272.0</ele><time>2026-05-01T14:55:48.001Z</time></trkpt><trkpt lat="44.82308450032272" lon="9.817911320981505"><ele>272.0</ele><time>2026-05-01T14:55:51.001Z</time></trkpt><trkpt lat="44.823023324637475" lon="9.818026203377395"><ele>272.0</ele><time>2026-05-01T14:55:53.001Z</time></trkpt><trkpt lat="44.82295296137569" lon="9.81816261126077"><ele>273.6666666666667</ele><time>2026-05-01T14:55:55.001Z</time></trkpt><trkpt lat="44.822921547638934" lon="9.818246139803113"><ele>275.33333333333337</ele><time>2026-05-01T14:55:56.001Z</time></trkpt><trkpt lat="44.822864990579255" lon="9.818396912659098"><ele>277.0</ele><time>2026-05-01T14:55:58.001Z</time></trkpt><trkpt lat="44.82280868270128" lon="9.818534312893817"><ele>278.6666666666667</ele><time>2026-05-01T14:56:00.001Z</time></trkpt><trkpt lat="44.822772568270786" lon="9.818608915208307"><ele>280.3333333333333</ele><time>2026-05-01T14:56:01.001Z</time></trkpt><trkpt lat="44.82272083915283" lon="9.81869659217759"><ele>282.0</ele><time>2026-05-01T14:56:03.001Z</time></trkpt><trkpt lat="44.822645574416114" lon="9.81884375089605"><ele>284.6</ele><time>2026-05-01T14:56:05.001Z</time></trkpt><trkpt lat="44.82259367320973" lon="9.818913429522178"><ele>287.2</ele><time>2026-05-01T14:56:07.001Z</time></trkpt><trkpt lat="44.822440715019745" lon="9.819021126602804"><ele>289.8</ele><time>2026-05-01T14:56:10Z</time></trkpt><trkpt lat="44.82236378884907" lon="9.818947075388323"><ele>292.4</ele><time>2026-05-01T14:56:12Z</time></trkpt><trkpt lat="44.822302659240236" lon="9.818879905838166"><ele>295.0</ele><time>2026-05-01T14:56:14Z</time></trkpt><trkpt lat="44.822206310177556" lon="9.818793674942317"><ele>295.0</ele><time>2026-05-01T14:56:16Z</time></trkpt><trkpt lat="44.82214333308981" lon="9.818775882993451"><ele>295.0</ele><time>2026-05-01T14:56:17Z</time></trkpt><trkpt lat="44.822041507623396" lon="9.818720950576639"><ele>295.0</ele><time>2026-05-01T14:56:19Z</time></trkpt><trkpt lat="44.82197127604177" lon="9.818722705631373"><ele>295.0</ele><time>2026-05-01T14:56:21Z</time></trkpt><trkpt lat="44.821907760097034" lon="9.818693093104491"><ele>295.0</ele><time>2026-05-01T14:58:01Z</time></trkpt><trkpt lat="44.82191167314446" lon="9.818783089733238"><ele>295.0</ele><time>2026-05-01T14:58:25.001Z</time></trkpt><trkpt lat="44.821974934172694" lon="9.8187138480626"><ele>295.0</ele><time>2026-05-01T14:59:19.001Z</time></trkpt><trkpt lat="44.82190311223334" lon="9.818720544402309"><ele>295.0</ele><time>2026-05-01T14:59:27.001Z</time></trkpt><trkpt lat="44.82192582240484" lon="9.818869672288988"><ele>295.0</ele><time>2026-05-01T15:03:24.001Z</time></trkpt><trkpt lat="44.82194546897507" lon="9.819006306413039"><ele>295.0</ele><time>2026-05-01T15:03:26.001Z</time></trkpt><trkpt lat="44.8219435381045" lon="9.81915812477053"><ele>295.0</ele><time>2026-05-01T15:03:28.001Z</time></trkpt><trkpt lat="44.821942988705246" lon="9.81925137383911"><ele>293.3333333333333</ele><time>2026-05-01T15:03:29.001Z</time></trkpt><trkpt lat="44.82195513690025" lon="9.819343424603067"><ele>291.66666666666663</ele><time>2026-05-01T15:03:30.001Z</time></trkpt><trkpt lat="44.82196162489749" lon="9.819473194920628"><ele>290.0</ele><time>2026-05-01T15:03:31.001Z</time></trkpt><trkpt lat="44.821970732104674" lon="9.819575584008346"><ele>288.3333333333333</ele><time>2026-05-01T15:03:32.001Z</time></trkpt><trkpt lat="44.82197688553374" lon="9.819729542509867"><ele>286.6666666666667</ele><time>2026-05-01T15:03:34.001Z</time></trkpt><trkpt lat="44.821973875817086" lon="9.81983543888285"><ele>285.0</ele><time>2026-05-01T15:03:35.001Z</time></trkpt><trkpt lat="44.82197055476574" lon="9.820014164174564"><ele>285.0</ele><time>2026-05-01T15:03:37.001Z</time></trkpt><trkpt lat="44.82196378821999" lon="9.820119803843319"><ele>285.0</ele><time>2026-05-01T15:03:38.001Z</time></trkpt><trkpt lat="44.82195646562326" lon="9.820218717919115"><ele>285.0</ele><time>2026-05-01T15:03:39.001Z</time></trkpt><trkpt lat="44.821936469158786" lon="9.820372309539689"><ele>285.0</ele><time>2026-05-01T15:03:41.001Z</time></trkpt><trkpt lat="44.821893202995675" lon="9.820495463679208"><ele>285.0</ele><time>2026-05-01T15:03:43.001Z</time></trkpt><trkpt lat="44.82184923666468" lon="9.820577595232608"><ele>285.0</ele><time>2026-05-01T15:03:44.001Z</time></trkpt><trkpt lat="44.82180274128637" lon="9.82068569783364"><ele>280.8</ele><time>2026-05-01T15:03:45.001Z</time></trkpt><trkpt lat="44.821758122476176" lon="9.820789437650829"><ele>276.6</ele><time>2026-05-01T15:03:46.001Z</time></trkpt><trkpt lat="44.82170574387566" lon="9.820903575038162"><ele>272.4</ele><time>2026-05-01T15:03:47.001Z</time></trkpt><trkpt lat="44.821652316314676" lon="9.821025891537674"><ele>268.2</ele><time>2026-05-01T15:03:48.001Z</time></trkpt><trkpt lat="44.82161736953957" lon="9.821160976955065"><ele>264.0</ele><time>2026-05-01T15:03:49.001Z</time></trkpt><trkpt lat="44.821569225246854" lon="9.821288380578746"><ele>261.59999999999997</ele><time>2026-05-01T15:03:50.001Z</time></trkpt><trkpt lat="44.82151761172805" lon="9.821417298349965"><ele>259.2</ele><time>2026-05-01T15:03:51.001Z</time></trkpt><trkpt lat="44.82144788201114" lon="9.821532859660548"><ele>256.79999999999995</ele><time>2026-05-01T15:03:52.001Z</time></trkpt><trkpt lat="44.82140472829117" lon="9.821671511150623"><ele>254.39999999999998</ele><time>2026-05-01T15:03:53.001Z</time></trkpt><trkpt lat="44.82134896163273" lon="9.821794290853662"><ele>252.0</ele><time>2026-05-01T15:03:54.001Z</time></trkpt><trkpt lat="44.82129344100569" lon="9.821913994689643"><ele>251.0</ele><time>2026-05-01T15:03:55.001Z</time></trkpt><trkpt lat="44.82124156318524" lon="9.822030424804188"><ele>250.0</ele><time>2026-05-01T15:03:56Z</time></trkpt><trkpt lat="44.82119070510401" lon="9.822137045888978"><ele>249.0</ele><time>2026-05-01T15:03:57Z</time></trkpt><trkpt lat="44.82115009678105" lon="9.8222403058238"><ele>248.0</ele><time>2026-05-01T15:03:58Z</time></trkpt><trkpt lat="44.82110753121174" lon="9.822333435276624"><ele>247.0</ele><time>2026-05-01T15:03:59Z</time></trkpt><trkpt lat="44.82105519590234" lon="9.82240562767265"><ele>246.0</ele><time>2026-05-01T15:04:00Z</time></trkpt><trkpt lat="44.82099965158059" lon="9.822523734991682"><ele>245.5</ele><time>2026-05-01T15:04:02Z</time></trkpt><trkpt lat="44.8211148737323" lon="9.822707762683983"><ele>245.0</ele><time>2026-05-01T15:04:04Z</time></trkpt><trkpt lat="44.82120735724961" lon="9.822774029140298"><ele>244.5</ele><time>2026-05-01T15:04:05Z</time></trkpt><trkpt lat="44.82130847903011" lon="9.822885300526673"><ele>244.0</ele><time>2026-05-01T15:04:06Z</time></trkpt><trkpt lat="44.82136663530733" lon="9.822969553394305"><ele>244.0</ele><time>2026-05-01T15:04:08Z</time></trkpt><trkpt lat="44.82127104792944" lon="9.823096638577903"><ele>243.99999999999997</ele><time>2026-05-01T15:04:10Z</time></trkpt><trkpt lat="44.82121514443938" lon="9.823230119052585"><ele>243.99999999999997</ele><time>2026-05-01T15:04:11Z</time></trkpt><trkpt lat="44.82115878058605" lon="9.82336959105228"><ele>244.0</ele><time>2026-05-01T15:04:12Z</time></trkpt><trkpt lat="44.82111769639019" lon="9.82348056847723"><ele>244.0</ele><time>2026-05-01T15:04:13Z</time></trkpt><trkpt lat="44.821053906140676" lon="9.82362111372573"><ele>243.2</ele><time>2026-05-01T15:04:14Z</time></trkpt><trkpt lat="44.821007429446745" lon="9.82373299387742"><ele>242.39999999999998</ele><time>2026-05-01T15:04:16Z</time></trkpt><trkpt lat="44.820949061701874" lon="9.823875082036292"><ele>241.6</ele><time>2026-05-01T15:04:18Z</time></trkpt><trkpt lat="44.82089890007449" lon="9.823997193541112"><ele>240.8</ele><time>2026-05-01T15:04:20Z</time></trkpt><trkpt lat="44.820853945365606" lon="9.824106629460402"><ele>240.0</ele><time>2026-05-01T15:04:22Z</time></trkpt><trkpt lat="44.82075265674554" lon="9.824161267107877"><ele>240.0</ele><time>2026-05-01T15:04:29Z</time></trkpt><trkpt lat="44.82069414656604" lon="9.824052291594748"><ele>240.0</ele><time>2026-05-01T15:04:30Z</time></trkpt><trkpt lat="44.82061005815226" lon="9.823979601667535"><ele>240.0</ele><time>2026-05-01T15:04:31Z</time></trkpt><trkpt lat="44.820512968076066" lon="9.823889945655857"><ele>240.0</ele><time>2026-05-01T15:04:32Z</time></trkpt><trkpt lat="44.82040189394958" lon="9.823790456918777"><ele>240.0</ele><time>2026-05-01T15:04:33Z</time></trkpt><trkpt lat="44.82029732504369" lon="9.82369679470184"><ele>240.0</ele><time>2026-05-01T15:04:34Z</time></trkpt><trkpt lat="44.82017673925246" lon="9.823588786216174"><ele>240.0</ele><time>2026-05-01T15:04:35Z</time></trkpt><trkpt lat="44.82006352718246" lon="9.823513115147783"><ele>240.0</ele><time>2026-05-01T15:04:36Z</time></trkpt><trkpt lat="44.81997027582224" lon="9.82342891914531"><ele>240.0</ele><time>2026-05-01T15:04:37Z</time></trkpt><trkpt lat="44.819874873160636" lon="9.82333024337748"><ele>240.75</ele><time>2026-05-01T15:04:38Z</time></trkpt><trkpt lat="44.81977049635021" lon="9.823224713887607"><ele>241.5</ele><time>2026-05-01T15:04:39Z</time></trkpt><trkpt lat="44.81966392472016" lon="9.823129157271742"><ele>242.25</ele><time>2026-05-01T15:04:40Z</time></trkpt><trkpt lat="44.819548372795964" lon="9.823026087835972"><ele>243.0</ele><time>2026-05-01T15:04:41Z</time></trkpt><trkpt lat="44.819443159736736" lon="9.822931853029537"><ele>243.0</ele><time>2026-05-01T15:04:42Z</time></trkpt><trkpt lat="44.819318776993995" lon="9.822843171322917"><ele>243.0</ele><time>2026-05-01T15:04:43Z</time></trkpt><trkpt lat="44.819244506174904" lon="9.822753874598002"><ele>243.0</ele><time>2026-05-01T15:04:44Z</time></trkpt><trkpt lat="44.819116931380385" lon="9.822638028121924"><ele>243.0</ele><time>2026-05-01T15:04:45Z</time></trkpt><trkpt lat="44.819009391348345" lon="9.822540502678164"><ele>242.66666666666669</ele><time>2026-05-01T15:04:46Z</time></trkpt><trkpt lat="44.818883316932514" lon="9.822425884150567"><ele>242.33333333333334</ele><time>2026-05-01T15:04:47Z</time></trkpt><trkpt lat="44.818760163901565" lon="9.822313525653076"><ele>242.0</ele><time>2026-05-01T15:04:48Z</time></trkpt><trkpt lat="44.818630929829965" lon="9.82219561324477"><ele>242.0</ele><time>2026-05-01T15:04:49Z</time></trkpt><trkpt lat="44.818487322207325" lon="9.822066894545836"><ele>242.0</ele><time>2026-05-01T15:04:50Z</time></trkpt><trkpt lat="44.81833837730454" lon="9.82193043422939"><ele>242.0</ele><time>2026-05-01T15:04:51Z</time></trkpt><trkpt lat="44.8181945644114" lon="9.821799203050714"><ele>243.0</ele><time>2026-05-01T15:04:52Z</time></trkpt><trkpt lat="44.81803867074277" lon="9.821659361496268"><ele>244.0</ele><time>2026-05-01T15:04:53Z</time></trkpt><trkpt lat="44.81789269256768" lon="9.821527071935877"><ele>245.0</ele><time>2026-05-01T15:04:54Z</time></trkpt><trkpt lat="44.81776741823965" lon="9.821413912674235"><ele>245.0</ele><time>2026-05-01T15:04:55Z</time></trkpt><trkpt lat="44.81763674455206" lon="9.821295944491006"><ele>245.0</ele><time>2026-05-01T15:04:56Z</time></trkpt><trkpt lat="44.81751084301768" lon="9.82118227788299"><ele>245.0</ele><time>2026-05-01T15:04:57Z</time></trkpt><trkpt lat="44.81739055756147" lon="9.821072470581584"><ele>245.0</ele><time>2026-05-01T15:04:58Z</time></trkpt><trkpt lat="44.81726804486849" lon="9.820960226379519"><ele>245.0</ele><time>2026-05-01T15:04:59Z</time></trkpt><trkpt lat="44.81714878763791" lon="9.820850964528566"><ele>245.0</ele><time>2026-05-01T15:05:00Z</time></trkpt><trkpt lat="44.81702864285379" lon="9.820739886802839"><ele>245.0</ele><time>2026-05-01T15:05:01Z</time></trkpt><trkpt lat="44.81690862590854" lon="9.820628503873193"><ele>245.0</ele><time>2026-05-01T15:05:02Z</time></trkpt><trkpt lat="44.816786403274314" lon="9.820516703963444"><ele>245.0</ele><time>2026-05-01T15:05:03Z</time></trkpt><trkpt lat="44.816662847322355" lon="9.820403684483207"><ele>245.0</ele><time>2026-05-01T15:05:04Z</time></trkpt><trkpt lat="44.81654738497052" lon="9.820298072197392"><ele>245.0</ele><time>2026-05-01T15:05:05Z</time></trkpt><trkpt lat="44.81641408650605" lon="9.820181755691243"><ele>245.0</ele><time>2026-05-01T15:05:06Z</time></trkpt><trkpt lat="44.81628110200224" lon="9.820084008905802"><ele>245.25</ele><time>2026-05-01T15:05:07Z</time></trkpt><trkpt lat="44.816158501600924" lon="9.819977826400992"><ele>245.5</ele><time>2026-05-01T15:05:08Z</time></trkpt><trkpt lat="44.81603817961166" lon="9.819860765957225"><ele>245.75</ele><time>2026-05-01T15:05:09Z</time></trkpt><trkpt lat="44.81591265882592" lon="9.819749169160191"><ele>246.0</ele><time>2026-05-01T15:05:10Z</time></trkpt><trkpt lat="44.81578827914108" lon="9.819638512335468"><ele>246.0</ele><time>2026-05-01T15:05:11Z</time></trkpt><trkpt lat="44.815664214835245" lon="9.819524093999418"><ele>246.0</ele><time>2026-05-01T15:05:12Z</time></trkpt><trkpt lat="44.81554732506459" lon="9.819397669056292"><ele>246.0</ele><time>2026-05-01T15:05:13Z</time></trkpt><trkpt lat="44.815425063169954" lon="9.819289638345824"><ele>246.0</ele><time>2026-05-01T15:05:14Z</time></trkpt><trkpt lat="44.81530661428689" lon="9.819184338017365"><ele>246.5</ele><time>2026-05-01T15:05:15Z</time></trkpt><trkpt lat="44.8151897585404" lon="9.819078771128893"><ele>247.0</ele><time>2026-05-01T15:05:16Z</time></trkpt><trkpt lat="44.8150731178811" lon="9.818973398131176"><ele>247.5</ele><time>2026-05-01T15:05:17Z</time></trkpt><trkpt lat="44.81496229050906" lon="9.818873277002508"><ele>248.0</ele><time>2026-05-01T15:05:18Z</time></trkpt><trkpt lat="44.814854022350275" lon="9.818787788992681"><ele>248.16666666666669</ele><time>2026-05-01T15:05:19Z</time></trkpt><trkpt lat="44.814768742224246" lon="9.818699013965164"><ele>248.33333333333334</ele><time>2026-05-01T15:05:20Z</time></trkpt><trkpt lat="44.81469535525902" lon="9.818634733284792"><ele>248.5</ele><time>2026-05-01T15:05:21Z</time></trkpt><trkpt lat="44.81464138303078" lon="9.818585493505726"><ele>248.66666666666669</ele><time>2026-05-01T15:05:22Z</time></trkpt><trkpt lat="44.81457253971925" lon="9.81855800117504"><ele>248.83333333333334</ele><time>2026-05-01T15:05:24Z</time></trkpt><trkpt lat="44.81453143484052" lon="9.818714606606768"><ele>249.0</ele><time>2026-05-01T15:05:27Z</time></trkpt><trkpt lat="44.81459399461516" lon="9.818880563620667"><ele>249.0</ele><time>2026-05-01T15:05:29Z</time></trkpt><trkpt lat="44.81461648339498" lon="9.819010609976894"><ele>249.0</ele><time>2026-05-01T15:05:30Z</time></trkpt><trkpt lat="44.81466323078409" lon="9.819173093198385"><ele>249.0</ele><time>2026-05-01T15:05:31Z</time></trkpt><trkpt lat="44.81471630482889" lon="9.819357288777788"><ele>249.0</ele><time>2026-05-01T15:05:32Z</time></trkpt><trkpt lat="44.814774991347235" lon="9.819559172078018"><ele>248.5</ele><time>2026-05-01T15:05:33Z</time></trkpt><trkpt lat="44.81482938528287" lon="9.81974207608407"><ele>248.0</ele><time>2026-05-01T15:05:34Z</time></trkpt><trkpt lat="44.81487727479312" lon="9.819903111136561"><ele>247.5</ele><time>2026-05-01T15:05:35Z</time></trkpt><trkpt lat="44.81491863012475" lon="9.820050158090298"><ele>247.0</ele><time>2026-05-01T15:05:36Z</time></trkpt><trkpt lat="44.81495893099132" lon="9.820197437887419"><ele>246.39999999999998</ele><time>2026-05-01T15:05:37Z</time></trkpt><trkpt lat="44.814993502741714" lon="9.820331144006914"><ele>245.79999999999998</ele><time>2026-05-01T15:05:38Z</time></trkpt><trkpt lat="44.81502413299652" lon="9.820452065659518"><ele>245.2</ele><time>2026-05-01T15:05:39Z</time></trkpt><trkpt lat="44.81505241669001" lon="9.820564820007274"><ele>244.6</ele><time>2026-05-01T15:05:40Z</time></trkpt><trkpt lat="44.81508281786007" lon="9.820646077856667"><ele>244.0</ele><time>2026-05-01T15:05:41Z</time></trkpt><trkpt lat="44.81503784416245" lon="9.820500275599397"><ele>244.0</ele><time>2026-05-01T15:05:49Z</time></trkpt><trkpt lat="44.81501919101754" lon="9.820360503470562"><ele>244.0</ele><time>2026-05-01T15:05:50Z</time></trkpt><trkpt lat="44.814978401052564" lon="9.820211397443051"><ele>244.0</ele><time>2026-05-01T15:05:51Z</time></trkpt><trkpt lat="44.81493065070613" lon="9.820022637170236"><ele>244.0</ele><time>2026-05-01T15:05:52Z</time></trkpt><trkpt lat="44.814880008967194" lon="9.819820434472133"><ele>245.0</ele><time>2026-05-01T15:05:53Z</time></trkpt><trkpt lat="44.8148230826769" lon="9.81961025669458"><ele>246.0</ele><time>2026-05-01T15:05:54Z</time></trkpt><trkpt lat="44.81476151902237" lon="9.819393497528528"><ele>247.0</ele><time>2026-05-01T15:05:55Z</time></trkpt><trkpt lat="44.81469635439241" lon="9.819180173040534"><ele>247.39999999999998</ele><time>2026-05-01T15:05:56Z</time></trkpt><trkpt lat="44.8146380045718" lon="9.818993187828859"><ele>247.79999999999998</ele><time>2026-05-01T15:05:57Z</time></trkpt><trkpt lat="44.81460274116466" lon="9.818851707177563"><ele>248.2</ele><time>2026-05-01T15:05:58Z</time></trkpt><trkpt lat="44.814583412143705" lon="9.818751406393575"><ele>248.6</ele><time>2026-05-01T15:05:59Z</time></trkpt><trkpt lat="44.81455493128416" lon="9.818608992827848"><ele>249.0</ele><time>2026-05-01T15:06:01Z</time></trkpt><trkpt lat="44.814524420919774" lon="9.818503060939259"><ele>249.0</ele><time>2026-05-01T15:06:03Z</time></trkpt><trkpt lat="44.814464236247595" lon="9.818432390123366"><ele>248.99999999999997</ele><time>2026-05-01T15:06:05Z</time></trkpt><trkpt lat="44.81445686203302" lon="9.818544640970924"><ele>248.99999999999997</ele><time>2026-05-01T15:06:09Z</time></trkpt><trkpt lat="44.81450106059283" lon="9.818615358901559"><ele>249.0</ele><time>2026-05-01T15:06:10Z</time></trkpt><trkpt lat="44.81455286101226" lon="9.818732707349803"><ele>249.0</ele><time>2026-05-01T15:06:11Z</time></trkpt><trkpt lat="44.81460304423306" lon="9.818901517673408"><ele>249.0</ele><time>2026-05-01T15:06:12Z</time></trkpt><trkpt lat="44.814660815277996" lon="9.819104527273865"><ele>249.0</ele><time>2026-05-01T15:06:13Z</time></trkpt><trkpt lat="44.81472056320251" lon="9.819332529131826"><ele>249.0</ele><time>2026-05-01T15:06:14Z</time></trkpt><trkpt lat="44.81479490771349" lon="9.819577601120955"><ele>248.33333333333331</ele><time>2026-05-01T15:06:15Z</time></trkpt><trkpt lat="44.814869706382154" lon="9.819827602510074"><ele>247.66666666666666</ele><time>2026-05-01T15:06:16Z</time></trkpt><trkpt lat="44.81494011534525" lon="9.82008051717962"><ele>247.0</ele><time>2026-05-01T15:06:17Z</time></trkpt><trkpt lat="44.81500523575578" lon="9.82037692121583"><ele>246.33333333333331</ele><time>2026-05-01T15:06:18Z</time></trkpt><trkpt lat="44.81507536708553" lon="9.820661881999309"><ele>245.66666666666669</ele><time>2026-05-01T15:06:19Z</time></trkpt><trkpt lat="44.81515559951747" lon="9.82093393007638"><ele>245.0</ele><time>2026-05-01T15:06:20Z</time></trkpt><trkpt lat="44.815212684478595" lon="9.821191553664612"><ele>245.0</ele><time>2026-05-01T15:06:21Z</time></trkpt><trkpt lat="44.815261561910816" lon="9.82142426256865"><ele>245.0</ele><time>2026-05-01T15:06:22Z</time></trkpt><trkpt lat="44.81530847347893" lon="9.821642598902011"><ele>245.0</ele><time>2026-05-01T15:06:23Z</time></trkpt><trkpt lat="44.81535757175884" lon="9.821837589179724"><ele>245.0</ele><time>2026-05-01T15:06:24Z</time></trkpt><trkpt lat="44.81538682196637" lon="9.822044708183421"><ele>245.0</ele><time>2026-05-01T15:06:25Z</time></trkpt><trkpt lat="44.81543297660554" lon="9.822258926096374"><ele>245.0</ele><time>2026-05-01T15:06:26Z</time></trkpt><trkpt lat="44.81546533570519" lon="9.822408934030769"><ele>245.0</ele><time>2026-05-01T15:06:27Z</time></trkpt><trkpt lat="44.81549740526802" lon="9.822539599538697"><ele>245.0</ele><time>2026-05-01T15:06:28Z</time></trkpt><trkpt lat="44.81552599654508" lon="9.822638774329475"><ele>245.0</ele><time>2026-05-01T15:06:29Z</time></trkpt><trkpt lat="44.81557419478753" lon="9.822770334697447"><ele>245.0</ele><time>2026-05-01T15:06:35Z</time></trkpt><trkpt lat="44.815646906684336" lon="9.82284266268635"><ele>245.0</ele><time>2026-05-01T15:06:36Z</time></trkpt><trkpt lat="44.81573753275788" lon="9.8229269065257"><ele>245.0</ele><time>2026-05-01T15:06:37Z</time></trkpt><trkpt lat="44.81584971515089" lon="9.82302772940025"><ele>243.66666666666669</ele><time>2026-05-01T15:06:38Z</time></trkpt><trkpt lat="44.8159809133748" lon="9.82310601773515"><ele>242.33333333333331</ele><time>2026-05-01T15:06:39Z</time></trkpt><trkpt lat="44.81613225478383" lon="9.823170120641254"><ele>241.0</ele><time>2026-05-01T15:06:40Z</time></trkpt><trkpt lat="44.81629455432159" lon="9.823230970232208"><ele>241.0</ele><time>2026-05-01T15:06:41Z</time></trkpt><trkpt lat="44.81647100653849" lon="9.823261030083996"><ele>241.0</ele><time>2026-05-01T15:06:42Z</time></trkpt><trkpt lat="44.81664865024675" lon="9.82326075767647"><ele>241.0</ele><time>2026-05-01T15:06:43Z</time></trkpt><trkpt lat="44.81680491905984" lon="9.823264817569791"><ele>241.25</ele><time>2026-05-01T15:06:44Z</time></trkpt><trkpt lat="44.81694573079815" lon="9.823291133268906"><ele>241.5</ele><time>2026-05-01T15:06:45Z</time></trkpt><trkpt lat="44.817066951676416" lon="9.823363934213116"><ele>241.75</ele><time>2026-05-01T15:06:46Z</time></trkpt><trkpt lat="44.81717892053379" lon="9.823472285911077"><ele>242.0</ele><time>2026-05-01T15:06:47Z</time></trkpt><trkpt lat="44.8172722897252" lon="9.8235941862923"><ele>239.75</ele><time>2026-05-01T15:06:48Z</time></trkpt><trkpt lat="44.81735749743061" lon="9.823712556266042"><ele>237.5</ele><time>2026-05-01T15:06:49Z</time></trkpt><trkpt lat="44.817433292476196" lon="9.823824856217007"><ele>235.25</ele><time>2026-05-01T15:06:50Z</time></trkpt><trkpt lat="44.81750402715573" lon="9.823942457317198"><ele>233.0</ele><time>2026-05-01T15:06:51Z</time></trkpt><trkpt lat="44.81758371457239" lon="9.824085768874395"><ele>232.75</ele><time>2026-05-01T15:06:52Z</time></trkpt><trkpt lat="44.81766742164162" lon="9.82423926977075"><ele>232.5</ele><time>2026-05-01T15:06:53Z</time></trkpt><trkpt lat="44.81775385365474" lon="9.824398714871842"><ele>232.25</ele><time>2026-05-01T15:06:54Z</time></trkpt><trkpt lat="44.81783126984542" lon="9.824537273962731"><ele>232.0</ele><time>2026-05-01T15:06:55Z</time></trkpt><trkpt lat="44.817902808555054" lon="9.824657302064617"><ele>232.0</ele><time>2026-05-01T15:06:56Z</time></trkpt><trkpt lat="44.817975232305976" lon="9.82476799499801"><ele>232.0</ele><time>2026-05-01T15:06:57Z</time></trkpt><trkpt lat="44.81806551571136" lon="9.82486668902994"><ele>232.0</ele><time>2026-05-01T15:06:58Z</time></trkpt><trkpt lat="44.81815354111802" lon="9.824998273851657"><ele>232.0</ele><time>2026-05-01T15:06:59Z</time></trkpt><trkpt lat="44.81826492932372" lon="9.82512000267682"><ele>231.25</ele><time>2026-05-01T15:07:00Z</time></trkpt><trkpt lat="44.81839392806894" lon="9.825225610040603"><ele>230.5</ele><time>2026-05-01T15:07:01Z</time></trkpt><trkpt lat="44.81848698010554" lon="9.82536078405231"><ele>229.75</ele><time>2026-05-01T15:07:02Z</time></trkpt><trkpt lat="44.81863823723022" lon="9.825456070413564"><ele>229.0</ele><time>2026-05-01T15:07:03Z</time></trkpt><trkpt lat="44.81877583088385" lon="9.82555263318355"><ele>229.0</ele><time>2026-05-01T15:07:04Z</time></trkpt><trkpt lat="44.81891392090093" lon="9.825637098645931"><ele>229.0</ele><time>2026-05-01T15:07:05Z</time></trkpt><trkpt lat="44.81904099805326" lon="9.825759095920052"><ele>229.0</ele><time>2026-05-01T15:07:06Z</time></trkpt><trkpt lat="44.8191721429333" lon="9.825844608380864"><ele>229.0</ele><time>2026-05-01T15:07:07Z</time></trkpt><trkpt lat="44.8193028994668" lon="9.825942155925711"><ele>229.0</ele><time>2026-05-01T15:07:08Z</time></trkpt><trkpt lat="44.81942772592122" lon="9.826037199502467"><ele>229.0</ele><time>2026-05-01T15:07:09Z</time></trkpt><trkpt lat="44.81954779734695" lon="9.82612712807665"><ele>229.0</ele><time>2026-05-01T15:07:10Z</time></trkpt><trkpt lat="44.819653459660955" lon="9.826229939617082"><ele>229.0</ele><time>2026-05-01T15:07:11Z</time></trkpt><trkpt lat="44.819758660875074" lon="9.82631118344449"><ele>229.0</ele><time>2026-05-01T15:07:12Z</time></trkpt><trkpt lat="44.81986914918291" lon="9.826396510346825"><ele>229.0</ele><time>2026-05-01T15:07:13Z</time></trkpt><trkpt lat="44.819990118497394" lon="9.826489931372071"><ele>229.0</ele><time>2026-05-01T15:07:14Z</time></trkpt><trkpt lat="44.820111963317295" lon="9.826583965899902"><ele>229.0</ele><time>2026-05-01T15:07:15Z</time></trkpt><trkpt lat="44.82023778641996" lon="9.826658206100117"><ele>229.25</ele><time>2026-05-01T15:07:16Z</time></trkpt><trkpt lat="44.82034679204125" lon="9.826764043674553"><ele>229.5</ele><time>2026-05-01T15:07:17Z</time></trkpt><trkpt lat="44.82045787889875" lon="9.826850780014531"><ele>229.75</ele><time>2026-05-01T15:07:18Z</time></trkpt><trkpt lat="44.82054963808165" lon="9.826927573183461"><ele>230.0</ele><time>2026-05-01T15:07:19Z</time></trkpt><trkpt lat="44.82066167830159" lon="9.827028995973782"><ele>230.0</ele><time>2026-05-01T15:07:20Z</time></trkpt><trkpt lat="44.82075529243703" lon="9.82712052742599"><ele>230.0</ele><time>2026-05-01T15:07:21Z</time></trkpt><trkpt lat="44.820862639273805" lon="9.827225865006433"><ele>230.0</ele><time>2026-05-01T15:07:22Z</time></trkpt><trkpt lat="44.820959115941506" lon="9.827325101013733"><ele>230.0</ele><time>2026-05-01T15:07:23Z</time></trkpt><trkpt lat="44.82103378400358" lon="9.827408108390344"><ele>230.4</ele><time>2026-05-01T15:07:24Z</time></trkpt><trkpt lat="44.82111289242217" lon="9.827470805845786"><ele>230.8</ele><time>2026-05-01T15:07:26Z</time></trkpt><trkpt lat="44.82099373609094" lon="9.827613593914934"><ele>231.2</ele><time>2026-05-01T15:07:29Z</time></trkpt><trkpt lat="44.820958199660694" lon="9.827717926187978"><ele>231.6</ele><time>2026-05-01T15:07:30Z</time></trkpt><trkpt lat="44.82092020499839" lon="9.827829476473767"><ele>232.0</ele><time>2026-05-01T15:07:31Z</time></trkpt><trkpt lat="44.8208847465715" lon="9.827933580497392"><ele>230.99999999999997</ele><time>2026-05-01T15:07:32Z</time></trkpt><trkpt lat="44.82084754763848" lon="9.828038758179787"><ele>230.0</ele><time>2026-05-01T15:07:33Z</time></trkpt><trkpt lat="44.82080884999678" lon="9.82814840409781"><ele>229.0</ele><time>2026-05-01T15:07:34Z</time></trkpt><trkpt lat="44.820768790538565" lon="9.828270890998564"><ele>228.0</ele><time>2026-05-01T15:07:35Z</time></trkpt><trkpt lat="44.82073831654012" lon="9.828382287054094"><ele>226.99999999999997</ele><time>2026-05-01T15:07:36Z</time></trkpt><trkpt lat="44.82072622094627" lon="9.828493663844036"><ele>226.0</ele><time>2026-05-01T15:07:37Z</time></trkpt><trkpt lat="44.82067407238231" lon="9.828654459144001"><ele>225.4</ele><time>2026-05-01T15:07:38Z</time></trkpt><trkpt lat="44.8206472330062" lon="9.828822957060465"><ele>224.8</ele><time>2026-05-01T15:07:40Z</time></trkpt><trkpt lat="44.820635350978044" lon="9.828922227790578"><ele>224.20000000000002</ele><time>2026-05-01T15:07:41Z</time></trkpt><trkpt lat="44.82062850912663" lon="9.82901831747177"><ele>223.60000000000002</ele><time>2026-05-01T15:07:42Z</time></trkpt><trkpt lat="44.820619590016754" lon="9.829116791760988"><ele>223.0</ele><time>2026-05-01T15:07:43Z</time></trkpt><trkpt lat="44.820579343796275" lon="9.829273333275285"><ele>222.60000000000002</ele><time>2026-05-01T15:07:45Z</time></trkpt><trkpt lat="44.82053452802126" lon="9.829440812399515"><ele>222.20000000000002</ele><time>2026-05-01T15:07:47Z</time></trkpt><trkpt lat="44.8205014409731" lon="9.829520237355457"><ele>221.8</ele><time>2026-05-01T15:07:48Z</time></trkpt><trkpt lat="44.82045162382494" lon="9.829581268938899"><ele>221.4</ele><time>2026-05-01T15:07:49Z</time></trkpt><trkpt lat="44.82036686399251" lon="9.82969526672793"><ele>221.0</ele><time>2026-05-01T15:07:51Z</time></trkpt><trkpt lat="44.82027208432475" lon="9.829771901008703"><ele>221.0</ele><time>2026-05-01T15:07:53Z</time></trkpt><trkpt lat="44.82017655781076" lon="9.829785582574535"><ele>221.00000000000003</ele><time>2026-05-01T15:07:55Z</time></trkpt><trkpt lat="44.820054424328575" lon="9.829780998627543"><ele>221.00000000000003</ele><time>2026-05-01T15:07:57Z</time></trkpt><trkpt lat="44.81999387880753" lon="9.829750286799511"><ele>221.0</ele><time>2026-05-01T15:07:58Z</time></trkpt><trkpt lat="44.819887987880975" lon="9.829646787653756"><ele>221.0</ele><time>2026-05-01T15:08:00Z</time></trkpt><trkpt lat="44.81981327903759" lon="9.829530094514576"><ele>220.0</ele><time>2026-05-01T15:08:02Z</time></trkpt><trkpt lat="44.819749284918466" lon="9.829441032931486"><ele>219.00000000000003</ele><time>2026-05-01T15:08:04Z</time></trkpt><trkpt lat="44.81966657796225" lon="9.829342588834391"><ele>218.00000000000003</ele><time>2026-05-01T15:08:06Z</time></trkpt><trkpt lat="44.81961976806983" lon="9.829278426597604"><ele>217.0</ele><time>2026-05-01T15:08:07Z</time></trkpt><trkpt lat="44.81955116976912" lon="9.829184383113393"><ele>216.0</ele><time>2026-05-01T15:08:09Z</time></trkpt><trkpt lat="44.8194749063815" lon="9.829071152802603"><ele>216.0</ele><time>2026-05-01T15:08:11Z</time></trkpt><trkpt lat="44.81939836245687" lon="9.82897145081732"><ele>216.0</ele><time>2026-05-01T15:08:13Z</time></trkpt><trkpt lat="44.819324984208016" lon="9.828875196520094"><ele>216.0</ele><time>2026-05-01T15:08:14Z</time></trkpt><trkpt lat="44.81922553447136" lon="9.828773141442296"><ele>216.0</ele><time>2026-05-01T15:08:15Z</time></trkpt><trkpt lat="44.819133559389265" lon="9.828640158483658"><ele>214.5</ele><time>2026-05-01T15:08:16Z</time></trkpt><trkpt lat="44.819034502054045" lon="9.828503413805256"><ele>213.0</ele><time>2026-05-01T15:08:17Z</time></trkpt><trkpt lat="44.818923779041135" lon="9.828363372572733"><ele>211.5</ele><time>2026-05-01T15:08:18Z</time></trkpt><trkpt lat="44.818808737768386" lon="9.828213258425418"><ele>210.0</ele><time>2026-05-01T15:08:19Z</time></trkpt><trkpt lat="44.818700378489794" lon="9.828075496491202"><ele>210.0</ele><time>2026-05-01T15:08:20Z</time></trkpt><trkpt lat="44.81861915563987" lon="9.827932816355224"><ele>210.0</ele><time>2026-05-01T15:08:21Z</time></trkpt><trkpt lat="44.81852645059397" lon="9.827839859701418"><ele>210.0</ele><time>2026-05-01T15:08:22Z</time></trkpt><trkpt lat="44.81846581830923" lon="9.827748288710836"><ele>210.0</ele><time>2026-05-01T15:08:23Z</time></trkpt><trkpt lat="44.81842153950276" lon="9.827679801567587"><ele>210.0</ele><time>2026-05-01T15:08:24Z</time></trkpt><trkpt lat="44.818363142091094" lon="9.827606742668141"><ele>210.5</ele><time>2026-05-01T15:08:26Z</time></trkpt><trkpt lat="44.81829504019608" lon="9.827524857975064"><ele>211.0</ele><time>2026-05-01T15:08:28Z</time></trkpt><trkpt lat="44.818231666345056" lon="9.827448713866547"><ele>211.5</ele><time>2026-05-01T15:08:30Z</time></trkpt><trkpt lat="44.818018579846665" lon="9.827696477314484"><ele>212.0</ele><time>2026-05-01T15:08:32Z</time></trkpt><trkpt lat="44.817938691120354" lon="9.827731014873228"><ele>212.25</ele><time>2026-05-01T15:08:33Z</time></trkpt><trkpt lat="44.81781767193777" lon="9.827493636091177"><ele>212.5</ele><time>2026-05-01T15:08:35Z</time></trkpt><trkpt lat="44.81775021230137" lon="9.827403356125355"><ele>212.75</ele><time>2026-05-01T15:08:37Z</time></trkpt><trkpt lat="44.81763628690352" lon="9.827310963685928"><ele>213.0</ele><time>2026-05-01T15:08:38Z</time></trkpt><trkpt lat="44.81749525522964" lon="9.827190167840817"><ele>213.0</ele><time>2026-05-01T15:08:39Z</time></trkpt><trkpt lat="44.8173966714507" lon="9.827101066475702"><ele>213.0</ele><time>2026-05-01T15:08:40Z</time></trkpt><trkpt lat="44.81733001559356" lon="9.827040822091835"><ele>213.0</ele><time>2026-05-01T15:08:42Z</time></trkpt><trkpt lat="44.81722516408219" lon="9.826948427279804"><ele>213.0</ele><time>2026-05-01T15:08:44Z</time></trkpt><trkpt lat="44.81713408179853" lon="9.826870570115394"><ele>213.0</ele><time>2026-05-01T15:08:46Z</time></trkpt><trkpt lat="44.817042662299315" lon="9.82677196453052"><ele>213.25</ele><time>2026-05-01T15:08:48Z</time></trkpt><trkpt lat="44.81698032802827" lon="9.826605506339789"><ele>213.5</ele><time>2026-05-01T15:08:50Z</time></trkpt><trkpt lat="44.81691041403692" lon="9.82647695041537"><ele>213.75</ele><time>2026-05-01T15:08:51Z</time></trkpt><trkpt lat="44.816856182970966" lon="9.826377231534613"><ele>214.0</ele><time>2026-05-01T15:08:52Z</time></trkpt><trkpt lat="44.81640523240627" lon="9.826710582098368"><ele>214.0</ele><time>2026-05-01T15:08:53Z</time></trkpt><trkpt lat="44.81635293611339" lon="9.82660360503936"><ele>213.99999999999997</ele><time>2026-05-01T15:08:54Z</time></trkpt><trkpt lat="44.816317982262426" lon="9.826472747347717"><ele>213.99999999999997</ele><time>2026-05-01T15:08:55Z</time></trkpt><trkpt lat="44.816279376949566" lon="9.8262915677347"><ele>214.0</ele><time>2026-05-01T15:08:56Z</time></trkpt><trkpt lat="44.81623280372743" lon="9.826139584612807"><ele>214.0</ele><time>2026-05-01T15:08:57Z</time></trkpt><trkpt lat="44.81616268705161" lon="9.825992304220353"><ele>214.25</ele><time>2026-05-01T15:08:58Z</time></trkpt><trkpt lat="44.816085969822076" lon="9.825865399270961"><ele>214.5</ele><time>2026-05-01T15:08:59Z</time></trkpt><trkpt lat="44.81599943686004" lon="9.825727242935912"><ele>214.75</ele><time>2026-05-01T15:09:00Z</time></trkpt><trkpt lat="44.81589041226497" lon="9.825565454316823"><ele>215.0</ele><time>2026-05-01T15:09:01Z</time></trkpt><trkpt lat="44.815780998785904" lon="9.825407848403982"><ele>215.0</ele><time>2026-05-01T15:09:02Z</time></trkpt><trkpt lat="44.815676781011305" lon="9.825262065138533"><ele>215.0</ele><time>2026-05-01T15:09:03Z</time></trkpt><trkpt lat="44.81556949721112" lon="9.825112234310692"><ele>215.0</ele><time>2026-05-01T15:09:04Z</time></trkpt><trkpt lat="44.81546671319978" lon="9.824960811899272"><ele>215.0</ele><time>2026-05-01T15:09:05Z</time></trkpt><trkpt lat="44.815367883676615" lon="9.824818919496014"><ele>215.25</ele><time>2026-05-01T15:09:06Z</time></trkpt><trkpt lat="44.81527669104711" lon="9.824675619043491"><ele>215.5</ele><time>2026-05-01T15:09:07Z</time></trkpt><trkpt lat="44.81518919460555" lon="9.824528587141334"><ele>215.75</ele><time>2026-05-01T15:09:08Z</time></trkpt><trkpt lat="44.81510544659987" lon="9.824387943426492"><ele>216.0</ele><time>2026-05-01T15:09:09Z</time></trkpt><trkpt lat="44.8150310942681" lon="9.82426541559362"><ele>216.8</ele><time>2026-05-01T15:09:10Z</time></trkpt><trkpt lat="44.81495835422684" lon="9.824168150751436"><ele>217.60000000000002</ele><time>2026-05-01T15:09:11Z</time></trkpt><trkpt lat="44.8148838889904" lon="9.824088301110104"><ele>218.4</ele><time>2026-05-01T15:09:12Z</time></trkpt><trkpt lat="44.814830746889676" lon="9.824001928739646"><ele>219.2</ele><time>2026-05-01T15:09:13Z</time></trkpt><trkpt lat="44.81478265308761" lon="9.823924813267727"><ele>220.0</ele><time>2026-05-01T15:09:14Z</time></trkpt><trkpt lat="44.814725890930994" lon="9.823780927532923"><ele>220.0</ele><time>2026-05-01T15:09:15Z</time></trkpt><trkpt lat="44.814643100862426" lon="9.823621527553565"><ele>220.0</ele><time>2026-05-01T15:09:16Z</time></trkpt><trkpt lat="44.81457501353136" lon="9.82343741267934"><ele>220.0</ele><time>2026-05-01T15:09:17Z</time></trkpt><trkpt lat="44.81449652186187" lon="9.823275476496704"><ele>220.0</ele><time>2026-05-01T15:09:18Z</time></trkpt><trkpt lat="44.81442594269238" lon="9.823203445415519"><ele>219.66666666666666</ele><time>2026-05-01T15:09:19Z</time></trkpt><trkpt lat="44.814358426697744" lon="9.82311680434729"><ele>219.33333333333331</ele><time>2026-05-01T15:09:20Z</time></trkpt><trkpt lat="44.81429733902478" lon="9.823032603379074"><ele>219.0</ele><time>2026-05-01T15:09:21Z</time></trkpt><trkpt lat="44.814246359518066" lon="9.822935550393863"><ele>218.66666666666669</ele><time>2026-05-01T15:09:22Z</time></trkpt><trkpt lat="44.814215108317335" lon="9.822848399554053"><ele>218.33333333333334</ele><time>2026-05-01T15:09:23Z</time></trkpt><trkpt lat="44.81418037586067" lon="9.822771662467732"><ele>218.0</ele><time>2026-05-01T15:09:24Z</time></trkpt><trkpt lat="44.81414856281711" lon="9.822661863385054"><ele>220.0</ele><time>2026-05-01T15:09:25Z</time></trkpt><trkpt lat="44.81406250916904" lon="9.822645548005983"><ele>222.0</ele><time>2026-05-01T15:09:26Z</time></trkpt><trkpt lat="44.813950694012185" lon="9.822581767653668"><ele>224.0</ele><time>2026-05-01T15:09:27Z</time></trkpt><trkpt lat="44.81384310003817" lon="9.822476246793242"><ele>226.0</ele><time>2026-05-01T15:09:28Z</time></trkpt><trkpt lat="44.8137767561258" lon="9.822401895094565"><ele>228.0</ele><time>2026-05-01T15:09:29Z</time></trkpt><trkpt lat="44.81371820478941" lon="9.822346041004298"><ele>228.0</ele><time>2026-05-01T15:09:30Z</time></trkpt><trkpt lat="44.81366149666849" lon="9.822287492277503"><ele>228.0</ele><time>2026-05-01T15:09:31Z</time></trkpt><trkpt lat="44.81359668696806" lon="9.822189222009465"><ele>228.0</ele><time>2026-05-01T15:09:32Z</time></trkpt><trkpt lat="44.81353368982537" lon="9.82207573362621"><ele>228.0</ele><time>2026-05-01T15:09:33Z</time></trkpt><trkpt lat="44.81345588792311" lon="9.821935565450747"><ele>228.0</ele><time>2026-05-01T15:09:34Z</time></trkpt><trkpt lat="44.81337706685085" lon="9.821793398952405"><ele>227.4</ele><time>2026-05-01T15:09:35Z</time></trkpt><trkpt lat="44.813324967542165" lon="9.821634516813392"><ele>226.8</ele><time>2026-05-01T15:09:36Z</time></trkpt><trkpt lat="44.813246922812986" lon="9.821561695354916"><ele>226.2</ele><time>2026-05-01T15:09:37Z</time></trkpt><trkpt lat="44.81317943122602" lon="9.821499630301336"><ele>225.6</ele><time>2026-05-01T15:09:38Z</time></trkpt><trkpt lat="44.813114794411945" lon="9.821422545062022"><ele>225.0</ele><time>2026-05-01T15:09:39Z</time></trkpt><trkpt lat="44.81302169053167" lon="9.82135885156754"><ele>225.0</ele><time>2026-05-01T15:09:40Z</time></trkpt><trkpt lat="44.81294807741233" lon="9.821292635408547"><ele>225.0</ele><time>2026-05-01T15:09:41Z</time></trkpt><trkpt lat="44.812906290539395" lon="9.821193554863902"><ele>225.0</ele><time>2026-05-01T15:09:42Z</time></trkpt><trkpt lat="44.81283213617416" lon="9.821064942326663"><ele>225.0</ele><time>2026-05-01T15:09:43Z</time></trkpt><trkpt lat="44.81275261296878" lon="9.820946537412373"><ele>225.0</ele><time>2026-05-01T15:09:44Z</time></trkpt><trkpt lat="44.81266818027033" lon="9.820803657957768"><ele>224.6</ele><time>2026-05-01T15:09:45Z</time></trkpt><trkpt lat="44.81259840281024" lon="9.820717077022653"><ele>224.2</ele><time>2026-05-01T15:09:46Z</time></trkpt><trkpt lat="44.812557966664976" lon="9.82062537220432"><ele>223.8</ele><time>2026-05-01T15:09:47Z</time></trkpt><trkpt lat="44.81247972661109" lon="9.82054960062101"><ele>223.4</ele><time>2026-05-01T15:09:48Z</time></trkpt><trkpt lat="44.812393467903554" lon="9.820548977313315"><ele>223.0</ele><time>2026-05-01T15:09:49Z</time></trkpt><trkpt lat="44.81227468298061" lon="9.820552560328919"><ele>222.99999999999997</ele><time>2026-05-01T15:09:50Z</time></trkpt><trkpt lat="44.81216052640599" lon="9.820531796717784"><ele>223.0</ele><time>2026-05-01T15:09:51Z</time></trkpt><trkpt lat="44.81206532350717" lon="9.820500113541828"><ele>223.0</ele><time>2026-05-01T15:09:52Z</time></trkpt><trkpt lat="44.81200895301196" lon="9.82045675125281"><ele>223.0</ele><time>2026-05-01T15:09:53Z</time></trkpt><trkpt lat="44.811943450427606" lon="9.820416349229461"><ele>222.99999999999997</ele><time>2026-05-01T15:09:54Z</time></trkpt><trkpt lat="44.811880804914516" lon="9.820353179212072"><ele>223.0</ele><time>2026-05-01T15:09:55Z</time></trkpt><trkpt lat="44.81179840673753" lon="9.820293425173091"><ele>223.16666666666666</ele><time>2026-05-01T15:09:56Z</time></trkpt><trkpt lat="44.81173414678967" lon="9.820276910095753"><ele>223.33333333333331</ele><time>2026-05-01T15:09:57Z</time></trkpt><trkpt lat="44.81166974387331" lon="9.820273015388619"><ele>223.5</ele><time>2026-05-01T15:09:58Z</time></trkpt><trkpt lat="44.81154928151105" lon="9.820227584473871"><ele>223.66666666666669</ele><time>2026-05-01T15:10:00Z</time></trkpt><trkpt lat="44.81146418613817" lon="9.82014350904519"><ele>223.83333333333334</ele><time>2026-05-01T15:10:01Z</time></trkpt><trkpt lat="44.811394229665915" lon="9.820063394613756"><ele>224.0</ele><time>2026-05-01T15:10:02Z</time></trkpt><trkpt lat="44.81131731092381" lon="9.819998211931345"><ele>224.0</ele><time>2026-05-01T15:10:03Z</time></trkpt><trkpt lat="44.81122676320952" lon="9.819959231739142"><ele>223.99999999999997</ele><time>2026-05-01T15:10:04Z</time></trkpt><trkpt lat="44.81110947042242" lon="9.819909408869348"><ele>223.99999999999997</ele><time>2026-05-01T15:10:05Z</time></trkpt><trkpt lat="44.81101827222357" lon="9.819912209686555"><ele>224.0</ele><time>2026-05-01T15:10:06Z</time></trkpt><trkpt lat="44.810928849128466" lon="9.819899060368638"><ele>224.0</ele><time>2026-05-01T15:10:07Z</time></trkpt><trkpt lat="44.81085938338066" lon="9.81985823845056"><ele>223.79999999999998</ele><time>2026-05-01T15:10:08Z</time></trkpt><trkpt lat="44.810795750132435" lon="9.819794368539666"><ele>223.59999999999997</ele><time>2026-05-01T15:10:09Z</time></trkpt><trkpt lat="44.81075659906683" lon="9.81967970243709"><ele>223.4</ele><time>2026-05-01T15:10:10Z</time></trkpt><trkpt lat="44.810643042634865" lon="9.819606968363965"><ele>223.2</ele><time>2026-05-01T15:10:12Z</time></trkpt><trkpt lat="44.810536848274964" lon="9.819562940893675"><ele>223.0</ele><time>2026-05-01T15:10:13Z</time></trkpt><trkpt lat="44.81044330974727" lon="9.819496588174427"><ele>223.0</ele><time>2026-05-01T15:10:14Z</time></trkpt><trkpt lat="44.81034555130155" lon="9.819449411772414"><ele>223.0</ele><time>2026-05-01T15:10:15Z</time></trkpt><trkpt lat="44.81022401712517" lon="9.819390761653558"><ele>223.0</ele><time>2026-05-01T15:10:16Z</time></trkpt><trkpt lat="44.8100928585629" lon="9.819327466984385"><ele>223.0</ele><time>2026-05-01T15:10:17Z</time></trkpt><trkpt lat="44.80993364903583" lon="9.819308400746115"><ele>223.33333333333331</ele><time>2026-05-01T15:10:18Z</time></trkpt><trkpt lat="44.809823726839724" lon="9.819265064638158"><ele>223.66666666666666</ele><time>2026-05-01T15:10:19Z</time></trkpt><trkpt lat="44.80973792670641" lon="9.819240517639553"><ele>224.0</ele><time>2026-05-01T15:10:20Z</time></trkpt><trkpt lat="44.80966426750332" lon="9.81921758116128"><ele>224.33333333333331</ele><time>2026-05-01T15:10:21Z</time></trkpt><trkpt lat="44.809598351242926" lon="9.819162044700173"><ele>224.66666666666666</ele><time>2026-05-01T15:10:22Z</time></trkpt><trkpt lat="44.80951368259346" lon="9.819135896419022"><ele>225.0</ele><time>2026-05-01T15:10:23Z</time></trkpt><trkpt lat="44.80942766423531" lon="9.819098265730489"><ele>225.0</ele><time>2026-05-01T15:10:24Z</time></trkpt><trkpt lat="44.80936045274098" lon="9.819047981699857"><ele>225.0</ele><time>2026-05-01T15:10:25Z</time></trkpt><trkpt lat="44.80929627201579" lon="9.818994569628085"><ele>225.0</ele><time>2026-05-01T15:10:26Z</time></trkpt><trkpt lat="44.80920887109498" lon="9.818946137625765"><ele>225.0</ele><time>2026-05-01T15:10:27Z</time></trkpt><trkpt lat="44.80911759953799" lon="9.818900939655741"><ele>225.0</ele><time>2026-05-01T15:10:28Z</time></trkpt><trkpt lat="44.80903541044853" lon="9.818877185363082"><ele>225.0</ele><time>2026-05-01T15:10:29Z</time></trkpt><trkpt lat="44.80894352385946" lon="9.818838625050205"><ele>225.0</ele><time>2026-05-01T15:10:30Z</time></trkpt><trkpt lat="44.80885703864493" lon="9.81881516714584"><ele>225.0</ele><time>2026-05-01T15:10:31Z</time></trkpt><trkpt lat="44.80878196514051" lon="9.818800737752975"><ele>225.0</ele><time>2026-05-01T15:10:32Z</time></trkpt><trkpt lat="44.8086881569674" lon="9.818803622733645"><ele>225.0</ele><time>2026-05-01T15:10:33Z</time></trkpt><trkpt lat="44.8085941191722" lon="9.818801228802975"><ele>225.0</ele><time>2026-05-01T15:10:34Z</time></trkpt><trkpt lat="44.808484046841734" lon="9.818796247599046"><ele>225.0</ele><time>2026-05-01T15:10:35Z</time></trkpt><trkpt lat="44.80838099575062" lon="9.818798789789279"><ele>225.0</ele><time>2026-05-01T15:10:36Z</time></trkpt><trkpt lat="44.808298945801425" lon="9.818793830819155"><ele>225.0</ele><time>2026-05-01T15:10:37Z</time></trkpt><trkpt lat="44.808217093772086" lon="9.818799197010335"><ele>225.0</ele><time>2026-05-01T15:10:38Z</time></trkpt><trkpt lat="44.80813093406442" lon="9.818804985052951"><ele>225.0</ele><time>2026-05-01T15:10:39Z</time></trkpt><trkpt lat="44.808035712217894" lon="9.818787444903535"><ele>225.0</ele><time>2026-05-01T15:10:40Z</time></trkpt><trkpt lat="44.8079466567923" lon="9.81875699879659"><ele>225.0</ele><time>2026-05-01T15:10:41Z</time></trkpt><trkpt lat="44.8078516790258" lon="9.818730498411615"><ele>225.0</ele><time>2026-05-01T15:10:42Z</time></trkpt><trkpt lat="44.80774556258145" lon="9.818682072087642"><ele>225.0</ele><time>2026-05-01T15:10:43Z</time></trkpt><trkpt lat="44.807632386082204" lon="9.818616262460012"><ele>225.0</ele><time>2026-05-01T15:10:44Z</time></trkpt><trkpt lat="44.807545163258254" lon="9.818559419428727"><ele>225.0</ele><time>2026-05-01T15:10:45Z</time></trkpt><trkpt lat="44.80746455304079" lon="9.81853067907692"><ele>225.0</ele><time>2026-05-01T15:10:46Z</time></trkpt><trkpt lat="44.80738958798556" lon="9.818513637873432"><ele>225.0</ele><time>2026-05-01T15:10:47Z</time></trkpt><trkpt lat="44.80731234839569" lon="9.818467859715813"><ele>225.0</ele><time>2026-05-01T15:10:48Z</time></trkpt><trkpt lat="44.807247229483934" lon="9.818390727655961"><ele>225.0</ele><time>2026-05-01T15:10:49Z</time></trkpt><trkpt lat="44.807168897804054" lon="9.81829255081339"><ele>225.0</ele><time>2026-05-01T15:10:50Z</time></trkpt><trkpt lat="44.80714737307228" lon="9.818203013872457"><ele>225.0</ele><time>2026-05-01T15:10:51Z</time></trkpt><trkpt lat="44.80711806104955" lon="9.818095170138525"><ele>225.4</ele><time>2026-05-01T15:10:52Z</time></trkpt><trkpt lat="44.80709963005806" lon="9.817997377121776"><ele>225.8</ele><time>2026-05-01T15:10:53Z</time></trkpt><trkpt lat="44.807052694277836" lon="9.817925669343593"><ele>226.2</ele><time>2026-05-01T15:10:54Z</time></trkpt><trkpt lat="44.806932739564346" lon="9.817881346397716"><ele>226.6</ele><time>2026-05-01T15:10:56Z</time></trkpt><trkpt lat="44.80683624271877" lon="9.817871672956784"><ele>227.0</ele><time>2026-05-01T15:10:57Z</time></trkpt><trkpt lat="44.80672765119443" lon="9.817830350472091"><ele>227.0</ele><time>2026-05-01T15:10:58Z</time></trkpt><trkpt lat="44.80661647241498" lon="9.817760696928474"><ele>227.0</ele><time>2026-05-01T15:10:59Z</time></trkpt><trkpt lat="44.806525343099345" lon="9.817710321621554"><ele>227.0</ele><time>2026-05-01T15:11:00Z</time></trkpt><trkpt lat="44.806445334306886" lon="9.817664651550697"><ele>227.0</ele><time>2026-05-01T15:11:01Z</time></trkpt><trkpt lat="44.806358103036445" lon="9.81762172066902"><ele>227.0</ele><time>2026-05-01T15:11:02Z</time></trkpt><trkpt lat="44.806272730311754" lon="9.817571425080763"><ele>227.50000000000003</ele><time>2026-05-01T15:11:03Z</time></trkpt><trkpt lat="44.80619594914093" lon="9.817529863338722"><ele>228.0</ele><time>2026-05-01T15:11:04Z</time></trkpt><trkpt lat="44.80612112505263" lon="9.817486991952975"><ele>228.5</ele><time>2026-05-01T15:11:05Z</time></trkpt><trkpt lat="44.80604069384938" lon="9.81744635435342"><ele>229.0</ele><time>2026-05-01T15:11:06Z</time></trkpt><trkpt lat="44.805958928560585" lon="9.817410956179655"><ele>229.50000000000003</ele><time>2026-05-01T15:11:07Z</time></trkpt><trkpt lat="44.805876246659786" lon="9.817369302220097"><ele>230.0</ele><time>2026-05-01T15:11:08Z</time></trkpt><trkpt lat="44.805793900765835" lon="9.817322809882562"><ele>230.0</ele><time>2026-05-01T15:11:09Z</time></trkpt><trkpt lat="44.80570533542507" lon="9.817254998227094"><ele>230.0</ele><time>2026-05-01T15:11:10Z</time></trkpt><trkpt lat="44.80562760347281" lon="9.817219993063143"><ele>230.0</ele><time>2026-05-01T15:11:11Z</time></trkpt><trkpt lat="44.80554749392305" lon="9.817196850935868"><ele>230.0</ele><time>2026-05-01T15:11:12Z</time></trkpt><trkpt lat="44.80547845562002" lon="9.817173090179047"><ele>230.0</ele><time>2026-05-01T15:11:13Z</time></trkpt><trkpt lat="44.80536933080952" lon="9.81711518394672"><ele>230.00000000000003</ele><time>2026-05-01T15:11:15Z</time></trkpt><trkpt lat="44.80531080600647" lon="9.817081342680959"><ele>230.0</ele><time>2026-05-01T15:11:16Z</time></trkpt><trkpt lat="44.805236847714184" lon="9.817022763139832"><ele>230.0</ele><time>2026-05-01T15:11:17Z</time></trkpt><trkpt lat="44.80513329099978" lon="9.81694735189482"><ele>230.0</ele><time>2026-05-01T15:11:19Z</time></trkpt><trkpt lat="44.8050609489349" lon="9.816878722530296"><ele>230.00000000000003</ele><time>2026-05-01T15:11:20Z</time></trkpt><trkpt lat="44.804983217031086" lon="9.816816130271798"><ele>230.0</ele><time>2026-05-01T15:11:21Z</time></trkpt><trkpt lat="44.8048841140963" lon="9.816711121955745"><ele>231.2</ele><time>2026-05-01T15:11:23Z</time></trkpt><trkpt lat="44.80481614288684" lon="9.816573561155204"><ele>232.4</ele><time>2026-05-01T15:11:25Z</time></trkpt><trkpt lat="44.804775870449284" lon="9.81648803615231"><ele>233.60000000000002</ele><time>2026-05-01T15:11:26Z</time></trkpt><trkpt lat="44.804723150911315" lon="9.816410520550477"><ele>234.8</ele><time>2026-05-01T15:11:27Z</time></trkpt><trkpt lat="44.80460816706155" lon="9.816296122641855"><ele>236.0</ele><time>2026-05-01T15:11:29Z</time></trkpt><trkpt lat="44.80454595773374" lon="9.81621975419501"><ele>236.00000000000003</ele><time>2026-05-01T15:11:30Z</time></trkpt><trkpt lat="44.804478866078504" lon="9.816145664554693"><ele>236.0</ele><time>2026-05-01T15:11:31Z</time></trkpt><trkpt lat="44.80442817663855" lon="9.816082811279658"><ele>236.0</ele><time>2026-05-01T15:11:32Z</time></trkpt><trkpt lat="44.80436757397236" lon="9.816053498667339"><ele>236.0</ele><time>2026-05-01T15:11:35Z</time></trkpt><trkpt lat="44.804299388617544" lon="9.816125360188641"><ele>236.00000000000003</ele><time>2026-05-01T15:11:37Z</time></trkpt><trkpt lat="44.80422835091257" lon="9.816181913626448"><ele>236.0</ele><time>2026-05-01T15:11:39Z</time></trkpt><trkpt lat="44.804130215599905" lon="9.816207053906828"><ele>236.00000000000003</ele><time>2026-05-01T15:11:41Z</time></trkpt><trkpt lat="44.80404071143455" lon="9.816126857600239"><ele>236.0</ele><time>2026-05-01T15:11:43Z</time></trkpt><trkpt lat="44.8039871115803" lon="9.816027388828855"><ele>236.0</ele><time>2026-05-01T15:11:45Z</time></trkpt><trkpt lat="44.803951709260915" lon="9.815919218265707"><ele>236.0</ele><time>2026-05-01T15:11:47Z</time></trkpt><trkpt lat="44.80391729616736" lon="9.815820832659556"><ele>236.00000000000003</ele><time>2026-05-01T15:11:49Z</time></trkpt><trkpt lat="44.803844362929226" lon="9.815764194687809"><ele>236.0</ele><time>2026-05-01T15:11:51Z</time></trkpt><trkpt lat="44.80377351217301" lon="9.81573320227044"><ele>236.0</ele><time>2026-05-01T15:11:52Z</time></trkpt><trkpt lat="44.80368519727476" lon="9.815682188220752"><ele>236.00000000000003</ele><time>2026-05-01T15:11:53Z</time></trkpt><trkpt lat="44.80362841940681" lon="9.815609599711108"><ele>236.00000000000003</ele><time>2026-05-01T15:11:54Z</time></trkpt><trkpt lat="44.80354258503287" lon="9.81554441324361"><ele>236.0</ele><time>2026-05-01T15:11:55Z</time></trkpt><trkpt lat="44.80348533255039" lon="9.815460443417432"><ele>236.0</ele><time>2026-05-01T15:11:57Z</time></trkpt><trkpt lat="44.80343073773928" lon="9.815313650458144"><ele>236.0</ele><time>2026-05-01T15:11:59Z</time></trkpt><trkpt lat="44.80342555424347" lon="9.81514707602497"><ele>236.00000000000003</ele><time>2026-05-01T15:12:01Z</time></trkpt><trkpt lat="44.80341045704916" lon="9.815055982336723"><ele>236.00000000000003</ele><time>2026-05-01T15:12:02Z</time></trkpt><trkpt lat="44.80329518478226" lon="9.814937348656189"><ele>236.0</ele><time>2026-05-01T15:12:04Z</time></trkpt><trkpt lat="44.80322228643588" lon="9.814895593454178"><ele>236.0</ele><time>2026-05-01T15:12:05Z</time></trkpt><trkpt lat="44.80314176336838" lon="9.81486380062418"><ele>236.00000000000003</ele><time>2026-05-01T15:12:06Z</time></trkpt><trkpt lat="44.80305449319618" lon="9.814846487415084"><ele>236.0</ele><time>2026-05-01T15:12:07Z</time></trkpt><trkpt lat="44.80297429757913" lon="9.814825500348316"><ele>236.0</ele><time>2026-05-01T15:12:08Z</time></trkpt><trkpt lat="44.802887358517985" lon="9.814799940933451"><ele>236.0</ele><time>2026-05-01T15:12:09Z</time></trkpt><trkpt lat="44.802806387474014" lon="9.81477915699593"><ele>236.00000000000003</ele><time>2026-05-01T15:12:10Z</time></trkpt><trkpt lat="44.80272723228842" lon="9.81476051745712"><ele>236.0</ele><time>2026-05-01T15:12:11Z</time></trkpt><trkpt lat="44.80256118082654" lon="9.81469418340614"><ele>236.0</ele><time>2026-05-01T15:12:13Z</time></trkpt><trkpt lat="44.80245412681918" lon="9.81462311942324"><ele>236.00000000000003</ele><time>2026-05-01T15:12:14Z</time></trkpt><trkpt lat="44.80236604983038" lon="9.814561288938783"><ele>236.00000000000003</ele><time>2026-05-01T15:12:15Z</time></trkpt><trkpt lat="44.80226840155256" lon="9.814494088330653"><ele>236.0</ele><time>2026-05-01T15:12:16Z</time></trkpt><trkpt lat="44.80217178723244" lon="9.814463802578317"><ele>236.0</ele><time>2026-05-01T15:12:17Z</time></trkpt><trkpt lat="44.802089962075975" lon="9.814444355517205"><ele>236.00000000000003</ele><time>2026-05-01T15:12:18Z</time></trkpt><trkpt lat="44.80202071341283" lon="9.814432227963659"><ele>236.0</ele><time>2026-05-01T15:12:19Z</time></trkpt><trkpt lat="44.80194266233178" lon="9.8144164506014"><ele>236.0</ele><time>2026-05-01T15:12:20Z</time></trkpt><trkpt lat="44.80187543027262" lon="9.81440481389288"><ele>236.0</ele><time>2026-05-01T15:12:21Z</time></trkpt><trkpt lat="44.801740427447356" lon="9.814346507864702"><ele>236.00000000000003</ele><time>2026-05-01T15:12:23Z</time></trkpt><trkpt lat="44.80166207459548" lon="9.814303882406342"><ele>236.0</ele><time>2026-05-01T15:12:24Z</time></trkpt><trkpt lat="44.801583081540045" lon="9.814241581348284"><ele>236.4</ele><time>2026-05-01T15:12:25Z</time></trkpt><trkpt lat="44.80148690728683" lon="9.81415463120164"><ele>236.8</ele><time>2026-05-01T15:12:26Z</time></trkpt><trkpt lat="44.80137911597939" lon="9.814065335155613"><ele>237.20000000000002</ele><time>2026-05-01T15:12:27Z</time></trkpt><trkpt lat="44.80129631310123" lon="9.814012672319667"><ele>237.60000000000002</ele><time>2026-05-01T15:12:28Z</time></trkpt><trkpt lat="44.80119347727484" lon="9.813959147208925"><ele>238.0</ele><time>2026-05-01T15:12:29Z</time></trkpt><trkpt lat="44.80107757388363" lon="9.813895815152675"><ele>238.5</ele><time>2026-05-01T15:12:30Z</time></trkpt><trkpt lat="44.80096866336678" lon="9.81381619955277"><ele>239.0</ele><time>2026-05-01T15:12:31Z</time></trkpt><trkpt lat="44.80084436419516" lon="9.813724576918291"><ele>239.5</ele><time>2026-05-01T15:12:32Z</time></trkpt><trkpt lat="44.800734129123896" lon="9.813642821824965"><ele>240.0</ele><time>2026-05-01T15:12:33Z</time></trkpt><trkpt lat="44.80063785616988" lon="9.813551420166764"><ele>240.6</ele><time>2026-05-01T15:12:34Z</time></trkpt><trkpt lat="44.8005560639938" lon="9.813467034165296"><ele>241.2</ele><time>2026-05-01T15:12:35.001Z</time></trkpt><trkpt lat="44.80049381873592" lon="9.813392649640345"><ele>241.8</ele><time>2026-05-01T15:12:36.001Z</time></trkpt><trkpt lat="44.800419734018135" lon="9.81331042978981"><ele>242.4</ele><time>2026-05-01T15:12:37.001Z</time></trkpt><trkpt lat="44.80034803989213" lon="9.813214991375078"><ele>243.0</ele><time>2026-05-01T15:12:38.001Z</time></trkpt><trkpt lat="44.80026534390121" lon="9.813088268986752"><ele>243.0</ele><time>2026-05-01T15:12:39.001Z</time></trkpt><trkpt lat="44.80017975950008" lon="9.812987554451214"><ele>243.0</ele><time>2026-05-01T15:12:40.001Z</time></trkpt><trkpt lat="44.8000828741887" lon="9.81292265958365"><ele>243.0</ele><time>2026-05-01T15:12:41.001Z</time></trkpt><trkpt lat="44.79996597358062" lon="9.812851842253732"><ele>243.0</ele><time>2026-05-01T15:12:42.001Z</time></trkpt><trkpt lat="44.79985598311516" lon="9.812791653512742"><ele>242.60000000000002</ele><time>2026-05-01T15:12:43.001Z</time></trkpt><trkpt lat="44.79980323341475" lon="9.812729773154642"><ele>242.20000000000002</ele><time>2026-05-01T15:12:44.001Z</time></trkpt><trkpt lat="44.799746288944974" lon="9.812660261082112"><ele>241.8</ele><time>2026-05-01T15:12:45.001Z</time></trkpt><trkpt lat="44.799670761184736" lon="9.812564265799201"><ele>241.4</ele><time>2026-05-01T15:12:46.001Z</time></trkpt><trkpt lat="44.79958373522411" lon="9.812475875731442"><ele>241.0</ele><time>2026-05-01T15:12:47.001Z</time></trkpt><trkpt lat="44.79947556481654" lon="9.812401559142735"><ele>241.0</ele><time>2026-05-01T15:12:48Z</time></trkpt><trkpt lat="44.799360468078305" lon="9.812355585444514"><ele>241.0</ele><time>2026-05-01T15:12:49Z</time></trkpt><trkpt lat="44.79918722874686" lon="9.812299857789872"><ele>241.0</ele><time>2026-05-01T15:12:50Z</time></trkpt><trkpt lat="44.79908909844898" lon="9.812245565478396"><ele>241.0</ele><time>2026-05-01T15:12:51Z</time></trkpt><trkpt lat="44.79899388607313" lon="9.812192964125696"><ele>241.0</ele><time>2026-05-01T15:12:52Z</time></trkpt><trkpt lat="44.79887514365266" lon="9.812127061083656"><ele>241.00000000000003</ele><time>2026-05-01T15:12:53Z</time></trkpt><trkpt lat="44.79877656676278" lon="9.812101932741406"><ele>241.00000000000003</ele><time>2026-05-01T15:12:54Z</time></trkpt><trkpt lat="44.79866302713761" lon="9.812080542405129"><ele>241.0</ele><time>2026-05-01T15:12:55Z</time></trkpt><trkpt lat="44.79857050449664" lon="9.812065469855236"><ele>241.0</ele><time>2026-05-01T15:12:56Z</time></trkpt><trkpt lat="44.79844618099506" lon="9.81197756222929"><ele>241.5</ele><time>2026-05-01T15:12:58Z</time></trkpt><trkpt lat="44.798347444619914" lon="9.811881951403546"><ele>242.0</ele><time>2026-05-01T15:12:59Z</time></trkpt><trkpt lat="44.7982268199463" lon="9.811757674429929"><ele>242.5</ele><time>2026-05-01T15:13:00Z</time></trkpt><trkpt lat="44.79808335375857" lon="9.811625805963104"><ele>243.0</ele><time>2026-05-01T15:13:01Z</time></trkpt><trkpt lat="44.79796232210705" lon="9.811525431838836"><ele>243.5</ele><time>2026-05-01T15:13:02Z</time></trkpt><trkpt lat="44.7978704098172" lon="9.81146989428342"><ele>244.0</ele><time>2026-05-01T15:13:03Z</time></trkpt><trkpt lat="44.79776817583128" lon="9.811397915624159"><ele>244.5</ele><time>2026-05-01T15:13:04Z</time></trkpt><trkpt lat="44.79765613342391" lon="9.811323899383886"><ele>245.0</ele><time>2026-05-01T15:13:05Z</time></trkpt><trkpt lat="44.7975447110914" lon="9.811244288339424"><ele>245.0</ele><time>2026-05-01T15:13:06Z</time></trkpt><trkpt lat="44.79747969928673" lon="9.811167744407735"><ele>245.0</ele><time>2026-05-01T15:13:07Z</time></trkpt><trkpt lat="44.79740936927596" lon="9.81111258551371"><ele>245.0</ele><time>2026-05-01T15:13:08Z</time></trkpt><trkpt lat="44.79733070972986" lon="9.81101340085365"><ele>245.0</ele><time>2026-05-01T15:13:09Z</time></trkpt><trkpt lat="44.79723337650992" lon="9.81088405405585"><ele>245.0</ele><time>2026-05-01T15:13:10Z</time></trkpt><trkpt lat="44.79716023855137" lon="9.810773834988833"><ele>245.4</ele><time>2026-05-01T15:13:11Z</time></trkpt><trkpt lat="44.79708944779983" lon="9.81071058277187"><ele>245.8</ele><time>2026-05-01T15:13:12Z</time></trkpt><trkpt lat="44.79698456844875" lon="9.81064666998837"><ele>246.2</ele><time>2026-05-01T15:13:13Z</time></trkpt><trkpt lat="44.79686740913741" lon="9.81055472671246"><ele>246.6</ele><time>2026-05-01T15:13:14Z</time></trkpt><trkpt lat="44.796776491493446" lon="9.81051831578723"><ele>247.0</ele><time>2026-05-01T15:13:15Z</time></trkpt><trkpt lat="44.79668140185811" lon="9.810450156674028"><ele>247.0</ele><time>2026-05-01T15:13:16Z</time></trkpt><trkpt lat="44.79658136779459" lon="9.810345756355247"><ele>247.0</ele><time>2026-05-01T15:13:17Z</time></trkpt><trkpt lat="44.79647491331245" lon="9.8102127622765"><ele>247.0</ele><time>2026-05-01T15:13:18Z</time></trkpt><trkpt lat="44.7963569949566" lon="9.810062883133833"><ele>247.0</ele><time>2026-05-01T15:13:19Z</time></trkpt><trkpt lat="44.796270647911626" lon="9.809953728098463"><ele>247.0</ele><time>2026-05-01T15:13:20Z</time></trkpt><trkpt lat="44.79616796298537" lon="9.809878950808276"><ele>247.0</ele><time>2026-05-01T15:13:21Z</time></trkpt><trkpt lat="44.79605894557474" lon="9.809786619004486"><ele>247.0</ele><time>2026-05-01T15:13:22Z</time></trkpt><trkpt lat="44.795967653449615" lon="9.80967716535635"><ele>247.0</ele><time>2026-05-01T15:13:23Z</time></trkpt><trkpt lat="44.795866881673845" lon="9.809576988424194"><ele>247.0</ele><time>2026-05-01T15:13:24Z</time></trkpt><trkpt lat="44.79578916308868" lon="9.809499571553443"><ele>247.0</ele><time>2026-05-01T15:13:25Z</time></trkpt><trkpt lat="44.79572709795075" lon="9.809423863989181"><ele>247.0</ele><time>2026-05-01T15:13:26Z</time></trkpt><trkpt lat="44.79566032684424" lon="9.809324740152324"><ele>247.0</ele><time>2026-05-01T15:13:27Z</time></trkpt><trkpt lat="44.79557198728538" lon="9.809225242489656"><ele>247.0</ele><time>2026-05-01T15:13:28Z</time></trkpt><trkpt lat="44.79545669915005" lon="9.809128817345425"><ele>247.5</ele><time>2026-05-01T15:13:29Z</time></trkpt><trkpt lat="44.795363584396135" lon="9.809058039859153"><ele>248.0</ele><time>2026-05-01T15:13:30Z</time></trkpt><trkpt lat="44.79525339203888" lon="9.80897903175561"><ele>248.5</ele><time>2026-05-01T15:13:31Z</time></trkpt><trkpt lat="44.79514645687405" lon="9.808892445700955"><ele>249.0</ele><time>2026-05-01T15:13:32Z</time></trkpt><trkpt lat="44.79503565165481" lon="9.808838974265054"><ele>249.25</ele><time>2026-05-01T15:13:33Z</time></trkpt><trkpt lat="44.79491761546638" lon="9.808757674433235"><ele>249.5</ele><time>2026-05-01T15:13:34Z</time></trkpt><trkpt lat="44.79481677336537" lon="9.80866730631397"><ele>249.75</ele><time>2026-05-01T15:13:35Z</time></trkpt><trkpt lat="44.794717518354894" lon="9.80857412315699"><ele>250.0</ele><time>2026-05-01T15:13:36Z</time></trkpt><trkpt lat="44.79461433138422" lon="9.808425083216669"><ele>250.4</ele><time>2026-05-01T15:13:37Z</time></trkpt><trkpt lat="44.79450259910793" lon="9.808320762900154"><ele>250.8</ele><time>2026-05-01T15:13:38Z</time></trkpt><trkpt lat="44.794421001894" lon="9.808236603737198"><ele>251.2</ele><time>2026-05-01T15:13:39Z</time></trkpt><trkpt lat="44.79436075159731" lon="9.808174040496418"><ele>251.6</ele><time>2026-05-01T15:13:40Z</time></trkpt><trkpt lat="44.79430570827568" lon="9.808119410880856"><ele>252.0</ele><time>2026-05-01T15:13:41Z</time></trkpt><trkpt lat="44.79421043584365" lon="9.808030574505995"><ele>252.0</ele><time>2026-05-01T15:13:43Z</time></trkpt><trkpt lat="44.79412360668333" lon="9.807949611025743"><ele>252.0</ele><time>2026-05-01T15:13:45Z</time></trkpt><trkpt lat="44.794036164054106" lon="9.807880024306405"><ele>252.0</ele><time>2026-05-01T15:13:47Z</time></trkpt><trkpt lat="44.793998006783035" lon="9.807799035399299"><ele>252.0</ele><time>2026-05-01T15:13:49Z</time></trkpt><trkpt lat="44.79399486747376" lon="9.80770784511575"><ele>252.0</ele><time>2026-05-01T15:13:52Z</time></trkpt><trkpt lat="44.794013901970224" lon="9.807594403359587"><ele>252.0</ele><time>2026-05-01T15:13:54Z</time></trkpt><trkpt lat="44.79404369144129" lon="9.80747427163348"><ele>252.0</ele><time>2026-05-01T15:13:57Z</time></trkpt><trkpt lat="44.793992675140956" lon="9.807553825629823"><ele>252.0</ele><time>2026-05-01T15:14:14Z</time></trkpt><trkpt lat="44.79401788329052" lon="9.807675923983144"><ele>252.0</ele><time>2026-05-01T15:14:17Z</time></trkpt><trkpt lat="44.79398569367069" lon="9.807786433552588"><ele>252.0</ele><time>2026-05-01T15:14:20Z</time></trkpt><trkpt lat="44.794039772622924" lon="9.807921074100564"><ele>252.0</ele><time>2026-05-01T15:14:50.001Z</time></trkpt><trkpt lat="44.79409046480177" lon="9.80798246868787"><ele>252.0</ele><time>2026-05-01T15:14:51.001Z</time></trkpt><trkpt lat="44.79416202551269" lon="9.808045338791077"><ele>252.0</ele><time>2026-05-01T15:14:52.001Z</time></trkpt><trkpt lat="44.79423490973673" lon="9.80810037168977"><ele>252.0</ele><time>2026-05-01T15:14:53.001Z</time></trkpt><trkpt lat="44.794300350213106" lon="9.808151879756677"><ele>252.0</ele><time>2026-05-01T15:14:54.001Z</time></trkpt><trkpt lat="44.79435442153759" lon="9.808208131517384"><ele>252.0</ele><time>2026-05-01T15:14:55.001Z</time></trkpt><trkpt lat="44.79441317127958" lon="9.808277400626537"><ele>252.0</ele><time>2026-05-01T15:14:56.001Z</time></trkpt><trkpt lat="44.794475158954164" lon="9.80833946567119"><ele>252.0</ele><time>2026-05-01T15:14:57.001Z</time></trkpt><trkpt lat="44.79453680135844" lon="9.808393914677891"><ele>252.2</ele><time>2026-05-01T15:14:58.001Z</time></trkpt><trkpt lat="44.794601253117754" lon="9.808448038192902"><ele>252.39999999999998</ele><time>2026-05-01T15:14:59.001Z</time></trkpt><trkpt lat="44.79464879560007" lon="9.808512455726014"><ele>252.60000000000002</ele><time>2026-05-01T15:15:00.001Z</time></trkpt><trkpt lat="44.79470990916895" lon="9.808555959868327"><ele>252.8</ele><time>2026-05-01T15:15:02.001Z</time></trkpt><trkpt lat="44.794765538892854" lon="9.808613563108525"><ele>253.0</ele><time>2026-05-01T15:15:04.001Z</time></trkpt><trkpt lat="44.79473883489763" lon="9.808860957070848"><ele>252.5714285714286</ele><time>2026-05-01T15:15:12Z</time></trkpt><trkpt lat="44.79474267289692" lon="9.808956485940612"><ele>252.14285714285717</ele><time>2026-05-01T15:15:14Z</time></trkpt><trkpt lat="44.79474673420501" lon="9.809048588965272"><ele>251.71428571428572</ele><time>2026-05-01T15:15:16Z</time></trkpt><trkpt lat="44.7947411619334" lon="9.809142709314768"><ele>251.2857142857143</ele><time>2026-05-01T15:15:19Z</time></trkpt><trkpt lat="44.79475561201897" lon="9.80923866884743"><ele>250.8571428571429</ele><time>2026-05-01T15:17:11.001Z</time></trkpt><trkpt lat="44.79477706276094" lon="9.809150697529843"><ele>250.42857142857142</ele><time>2026-05-01T15:17:23.001Z</time></trkpt><trkpt lat="44.794731777420026" lon="9.80905225023383"><ele>250.0</ele><time>2026-05-01T15:17:26Z</time></trkpt><trkpt lat="44.79473966102155" lon="9.808930581906765"><ele>250.0</ele><time>2026-05-01T15:17:28Z</time></trkpt><trkpt lat="44.79472958521122" lon="9.808830805557832"><ele>250.0</ele><time>2026-05-01T15:17:30Z</time></trkpt><trkpt lat="44.79475322309854" lon="9.808688305102036"><ele>250.0</ele><time>2026-05-01T15:17:33Z</time></trkpt><trkpt lat="44.79474993674006" lon="9.808510025742525"><ele>250.0</ele><time>2026-05-01T15:17:35Z</time></trkpt><trkpt lat="44.79472505126822" lon="9.808332974129419"><ele>250.0</ele><time>2026-05-01T15:17:37Z</time></trkpt><trkpt lat="44.79460217243682" lon="9.80843909707501"><ele>250.5</ele><time>2026-05-01T15:17:38Z</time></trkpt><trkpt lat="44.79451596845988" lon="9.808334097950755"><ele>251.0</ele><time>2026-05-01T15:17:40Z</time></trkpt><trkpt lat="44.79437735544722" lon="9.808191281735528"><ele>251.5</ele><time>2026-05-01T15:17:43Z</time></trkpt><trkpt lat="44.79430173253684" lon="9.808115703705624"><ele>252.0</ele><time>2026-05-01T15:17:44Z</time></trkpt><trkpt lat="44.79423388697657" lon="9.808052441403749"><ele>252.0</ele><time>2026-05-01T15:17:45Z</time></trkpt><trkpt lat="44.79416821109366" lon="9.807991202204652"><ele>252.0</ele><time>2026-05-01T15:17:46Z</time></trkpt><trkpt lat="44.79411485263836" lon="9.807941448330281"><ele>252.0</ele><time>2026-05-01T15:17:47Z</time></trkpt><trkpt lat="44.79404439038159" lon="9.807862215838705"><ele>252.0</ele><time>2026-05-01T15:17:49Z</time></trkpt><trkpt lat="44.79398105857857" lon="9.807757764290828"><ele>252.0</ele><time>2026-05-01T15:17:51Z</time></trkpt><trkpt lat="44.793866891873975" lon="9.807717989961908"><ele>252.0</ele><time>2026-05-01T15:17:53Z</time></trkpt><trkpt lat="44.79379174913709" lon="9.807684832896104"><ele>253.0</ele><time>2026-05-01T15:17:54Z</time></trkpt><trkpt lat="44.79370803050956" lon="9.807643446049271"><ele>254.0</ele><time>2026-05-01T15:17:55Z</time></trkpt><trkpt lat="44.79360477171191" lon="9.807568701004003"><ele>255.0</ele><time>2026-05-01T15:17:56Z</time></trkpt><trkpt lat="44.79365388629777" lon="9.807197799979122"><ele>255.0</ele><time>2026-05-01T15:17:57Z</time></trkpt><trkpt lat="44.79355275459867" lon="9.807129630148534"><ele>255.0</ele><time>2026-05-01T15:17:59Z</time></trkpt><trkpt lat="44.79348372548673" lon="9.807072606090365"><ele>255.0</ele><time>2026-05-01T15:18:00Z</time></trkpt><trkpt lat="44.793399723602285" lon="9.806984098468218"><ele>255.0</ele><time>2026-05-01T15:18:02Z</time></trkpt><trkpt lat="44.793324257950765" lon="9.806880179331408"><ele>255.0</ele><time>2026-05-01T15:18:04Z</time></trkpt><trkpt lat="44.793301834810094" lon="9.806796033126203"><ele>256.1666666666667</ele><time>2026-05-01T15:18:06Z</time></trkpt><trkpt lat="44.793269490469086" lon="9.806699640793793"><ele>257.3333333333333</ele><time>2026-05-01T15:18:08Z</time></trkpt><trkpt lat="44.79324417829272" lon="9.80656744076599"><ele>258.5</ele><time>2026-05-01T15:18:12Z</time></trkpt><trkpt lat="44.793206836104964" lon="9.80663911396664"><ele>259.66666666666663</ele><time>2026-05-01T15:18:19Z</time></trkpt><trkpt lat="44.79314040278337" lon="9.80664477405337"><ele>260.8333333333333</ele><time>2026-05-01T15:18:25Z</time></trkpt><trkpt lat="44.793076425670186" lon="9.806663000370332"><ele>262.0</ele><time>2026-05-01T15:18:31Z</time></trkpt><trkpt lat="44.792830343687264" lon="9.806747158541116"><ele>260.6</ele><time>2026-05-01T15:18:35Z</time></trkpt><trkpt lat="44.79289878162824" lon="9.806875472245494"><ele>259.2</ele><time>2026-05-01T15:19:41Z</time></trkpt><trkpt lat="44.792960542464094" lon="9.806995840664927"><ele>257.8</ele><time>2026-05-01T15:19:43Z</time></trkpt><trkpt lat="44.79301252563641" lon="9.807076630721218"><ele>256.4</ele><time>2026-05-01T15:19:45Z</time></trkpt><trkpt lat="44.79307253246684" lon="9.807143403854225"><ele>255.0</ele><time>2026-05-01T15:19:48Z</time></trkpt><trkpt lat="44.79315473568684" lon="9.807186284194405"><ele>255.0</ele><time>2026-05-01T15:19:51Z</time></trkpt><trkpt lat="44.793216158735994" lon="9.807239641355439"><ele>255.0</ele><time>2026-05-01T15:19:53Z</time></trkpt><trkpt lat="44.793292808634796" lon="9.807279357200997"><ele>255.0</ele><time>2026-05-01T15:19:55Z</time></trkpt><trkpt lat="44.79336231199647" lon="9.807327312962624"><ele>255.0</ele><time>2026-05-01T15:19:57Z</time></trkpt><trkpt lat="44.79342403082287" lon="9.807377041124415"><ele>255.0</ele><time>2026-05-01T15:19:59Z</time></trkpt><trkpt lat="44.79348189919219" lon="9.807420768711383"><ele>255.0</ele><time>2026-05-01T15:20:01Z</time></trkpt><trkpt lat="44.79355999663302" lon="9.80749025030913"><ele>255.0</ele><time>2026-05-01T15:20:04Z</time></trkpt><trkpt lat="44.79363194178306" lon="9.807562345994393"><ele>255.0</ele><time>2026-05-01T15:20:07Z</time></trkpt><trkpt lat="44.79370247059777" lon="9.807614300921918"><ele>255.0</ele><time>2026-05-01T15:20:10Z</time></trkpt><trkpt lat="44.7937791971978" lon="9.80766226607876"><ele>255.0</ele><time>2026-05-01T15:20:13Z</time></trkpt><trkpt lat="44.793855622052355" lon="9.807707228439149"><ele>255.0</ele><time>2026-05-01T15:20:16Z</time></trkpt><trkpt lat="44.793926745268976" lon="9.807740746743825"><ele>255.0</ele><time>2026-05-01T15:20:19Z</time></trkpt><trkpt lat="44.79399304789328" lon="9.807791420899065"><ele>254.71428571428572</ele><time>2026-05-01T15:20:21Z</time></trkpt><trkpt lat="44.79403546765989" lon="9.807873919340366"><ele>254.42857142857144</ele><time>2026-05-01T15:20:24Z</time></trkpt><trkpt lat="44.79408351742669" lon="9.807940805153585"><ele>254.14285714285717</ele><time>2026-05-01T15:20:27Z</time></trkpt><trkpt lat="44.79413832860076" lon="9.808003793498893"><ele>253.8571428571429</ele><time>2026-05-01T15:20:46Z</time></trkpt><trkpt lat="44.79420975610961" lon="9.808066992268495"><ele>253.57142857142858</ele><time>2026-05-01T15:20:48Z</time></trkpt><trkpt lat="44.794269576941545" lon="9.808123759276596"><ele>253.28571428571433</ele><time>2026-05-01T15:20:50Z</time></trkpt><trkpt lat="44.794323586248716" lon="9.808182822760505"><ele>253.00000000000003</ele><time>2026-05-01T15:20:52Z</time></trkpt><trkpt lat="44.794379084318706" lon="9.808228834066435"><ele>252.99999999999997</ele><time>2026-05-01T15:20:54Z</time></trkpt><trkpt lat="44.79443261621713" lon="9.808285842959512"><ele>253.0</ele><time>2026-05-01T15:20:56Z</time></trkpt><trkpt lat="44.794487572628135" lon="9.808344967210575"><ele>253.0</ele><time>2026-05-01T15:20:58Z</time></trkpt><trkpt lat="44.79455139255931" lon="9.808406368352703"><ele>253.0</ele><time>2026-05-01T15:25:33Z</time></trkpt><trkpt lat="44.79463783875453" lon="9.808494478942903"><ele>252.99999999999997</ele><time>2026-05-01T15:25:35Z</time></trkpt><trkpt lat="44.79472968151845" lon="9.80856744986086"><ele>253.0</ele><time>2026-05-01T15:25:37Z</time></trkpt><trkpt lat="44.79479031675893" lon="9.80864522436256"><ele>252.49999999999997</ele><time>2026-05-01T15:25:39Z</time></trkpt><trkpt lat="44.79479376190752" lon="9.808736853036596"><ele>252.0</ele><time>2026-05-01T15:25:41Z</time></trkpt><trkpt lat="44.79474941144819" lon="9.808812387890281"><ele>251.5</ele><time>2026-05-01T15:25:43Z</time></trkpt><trkpt lat="44.794734341139915" lon="9.80895088480123"><ele>251.0</ele><time>2026-05-01T15:25:46Z</time></trkpt><trkpt lat="44.79474140394844" lon="9.80906354081168"><ele>250.49999999999997</ele><time>2026-05-01T15:25:48Z</time></trkpt><trkpt lat="44.79474961151129" lon="9.809194622233935"><ele>250.0</ele><time>2026-05-01T15:25:51Z</time></trkpt><trkpt lat="44.79473456202499" lon="9.809301352101336"><ele>249.66666666666666</ele><time>2026-05-01T15:25:53.999Z</time></trkpt><trkpt lat="44.794737172060344" lon="9.809409599263471"><ele>249.33333333333331</ele><time>2026-05-01T15:25:57.999Z</time></trkpt><trkpt lat="44.79471003081541" lon="9.809494453346034"><ele>249.0</ele><time>2026-05-01T15:26:00.999Z</time></trkpt><trkpt lat="44.79468503990864" lon="9.809589111455121"><ele>248.66666666666669</ele><time>2026-05-01T15:26:03.999Z</time></trkpt><trkpt lat="44.79465775306199" lon="9.809711284906163"><ele>248.33333333333334</ele><time>2026-05-01T15:26:23.999Z</time></trkpt><trkpt lat="44.79463982327174" lon="9.809802619976695"><ele>248.0</ele><time>2026-05-01T15:26:24.999Z</time></trkpt><trkpt lat="44.79461483287186" lon="9.809944389288585"><ele>248.00000000000003</ele><time>2026-05-01T15:26:26.999Z</time></trkpt><trkpt lat="44.79459187442528" lon="9.810075786326076"><ele>248.0</ele><time>2026-05-01T15:26:28.999Z</time></trkpt><trkpt lat="44.79455866875731" lon="9.8102096665901"><ele>248.0</ele><time>2026-05-01T15:26:30.999Z</time></trkpt><trkpt lat="44.79454928916982" lon="9.81032837200025"><ele>248.0</ele><time>2026-05-01T15:26:32.999Z</time></trkpt><trkpt lat="44.79453134595324" lon="9.810416972855599"><ele>248.00000000000003</ele><time>2026-05-01T15:26:33.999Z</time></trkpt><trkpt lat="44.794522289252775" lon="9.810520144966365"><ele>248.0</ele><time>2026-05-01T15:26:35.999Z</time></trkpt><trkpt lat="44.794557548703494" lon="9.810620435510554"><ele>248.2</ele><time>2026-05-01T15:26:39.999Z</time></trkpt><trkpt lat="44.794594021841945" lon="9.810744966329624"><ele>248.4</ele><time>2026-05-01T15:26:41.999Z</time></trkpt><trkpt lat="44.79462078096902" lon="9.810837264239263"><ele>248.59999999999997</ele><time>2026-05-01T15:26:42.999Z</time></trkpt><trkpt lat="44.79467182192331" lon="9.810960498592173"><ele>248.79999999999998</ele><time>2026-05-01T15:26:43.999Z</time></trkpt><trkpt lat="44.794751353580246" lon="9.811085243367845"><ele>249.0</ele><time>2026-05-01T15:26:44.999Z</time></trkpt><trkpt lat="44.794865398817194" lon="9.811214510913873"><ele>248.66666666666669</ele><time>2026-05-01T15:26:45.999Z</time></trkpt><trkpt lat="44.794989084446186" lon="9.811348117653717"><ele>248.33333333333334</ele><time>2026-05-01T15:26:46.999Z</time></trkpt><trkpt lat="44.79510819926098" lon="9.811484147048738"><ele>248.0</ele><time>2026-05-01T15:26:47.999Z</time></trkpt><trkpt lat="44.79521962989585" lon="9.811618357734869"><ele>248.0</ele><time>2026-05-01T15:26:48.999Z</time></trkpt><trkpt lat="44.795336571792795" lon="9.811757916583385"><ele>248.0</ele><time>2026-05-01T15:26:49.999Z</time></trkpt><trkpt lat="44.79546162471948" lon="9.811902861446006"><ele>248.0</ele><time>2026-05-01T15:26:50.999Z</time></trkpt><trkpt lat="44.79559691246538" lon="9.812060765244095"><ele>247.66666666666669</ele><time>2026-05-01T15:26:51.999Z</time></trkpt><trkpt lat="44.79574341662201" lon="9.81222726261807"><ele>247.33333333333331</ele><time>2026-05-01T15:26:52.999Z</time></trkpt><trkpt lat="44.795891554834995" lon="9.81240238862994"><ele>247.0</ele><time>2026-05-01T15:26:53.999Z</time></trkpt><trkpt lat="44.796034126114364" lon="9.812555229870034"><ele>247.0</ele><time>2026-05-01T15:26:54.999Z</time></trkpt><trkpt lat="44.7961493067036" lon="9.812652388877254"><ele>247.0</ele><time>2026-05-01T15:26:55.999Z</time></trkpt><trkpt lat="44.79626456396622" lon="9.812731369321757"><ele>247.0</ele><time>2026-05-01T15:26:56.999Z</time></trkpt><trkpt lat="44.79639164193846" lon="9.812822084466182"><ele>247.0</ele><time>2026-05-01T15:26:57.999Z</time></trkpt><trkpt lat="44.796522825787825" lon="9.812923084214082"><ele>247.33333333333331</ele><time>2026-05-01T15:26:58.999Z</time></trkpt><trkpt lat="44.796668358306604" lon="9.813037226786905"><ele>247.66666666666669</ele><time>2026-05-01T15:26:59.999Z</time></trkpt><trkpt lat="44.79682760644389" lon="9.813149600834226"><ele>248.0</ele><time>2026-05-01T15:27:00.999Z</time></trkpt><trkpt lat="44.79698809317819" lon="9.813262258163082"><ele>248.0</ele><time>2026-05-01T15:27:01.999Z</time></trkpt><trkpt lat="44.7971525070078" lon="9.813386134207704"><ele>248.0</ele><time>2026-05-01T15:27:02.999Z</time></trkpt><trkpt lat="44.797315406314446" lon="9.813503787672422"><ele>248.0</ele><time>2026-05-01T15:27:03.999Z</time></trkpt><trkpt lat="44.79748201188074" lon="9.813619329284073"><ele>248.0</ele><time>2026-05-01T15:27:04.999Z</time></trkpt><trkpt lat="44.797651637446634" lon="9.813742552791952"><ele>248.0</ele><time>2026-05-01T15:27:05.999Z</time></trkpt><trkpt lat="44.797824252259744" lon="9.813864706095755"><ele>248.0</ele><time>2026-05-01T15:27:06.999Z</time></trkpt><trkpt lat="44.79799561267868" lon="9.81399569178047"><ele>246.33333333333334</ele><time>2026-05-01T15:27:07.999Z</time></trkpt><trkpt lat="44.798171556177316" lon="9.814118622000795"><ele>244.66666666666669</ele><time>2026-05-01T15:27:08.999Z</time></trkpt><trkpt lat="44.79834654180941" lon="9.814248388050697"><ele>243.0</ele><time>2026-05-01T15:27:09.999Z</time></trkpt><trkpt lat="44.798523524040526" lon="9.814373711111823"><ele>243.0</ele><time>2026-05-01T15:27:10.999Z</time></trkpt><trkpt lat="44.79871740314278" lon="9.814511483258775"><ele>243.0</ele><time>2026-05-01T15:27:11.999Z</time></trkpt><trkpt lat="44.79891427709926" lon="9.814655692982623"><ele>243.0</ele><time>2026-05-01T15:27:12.999Z</time></trkpt><trkpt lat="44.799115648918395" lon="9.814800766418054"><ele>243.0</ele><time>2026-05-01T15:27:13.999Z</time></trkpt><trkpt lat="44.79931996652298" lon="9.814946277897237"><ele>243.0</ele><time>2026-05-01T15:27:14.999Z</time></trkpt><trkpt lat="44.79953129194072" lon="9.815088627591349"><ele>243.0</ele><time>2026-05-01T15:27:15.999Z</time></trkpt><trkpt lat="44.7997359749412" lon="9.815230694203054"><ele>243.0</ele><time>2026-05-01T15:27:17Z</time></trkpt><trkpt lat="44.799933446013796" lon="9.81537366393277"><ele>243.0</ele><time>2026-05-01T15:27:18Z</time></trkpt><trkpt lat="44.800125369760806" lon="9.815516068828241"><ele>243.0</ele><time>2026-05-01T15:27:19Z</time></trkpt><trkpt lat="44.80031373978891" lon="9.815655693889001"><ele>243.0</ele><time>2026-05-01T15:27:20Z</time></trkpt><trkpt lat="44.8005021786603" lon="9.81579445321599"><ele>243.33333333333331</ele><time>2026-05-01T15:27:21Z</time></trkpt><trkpt lat="44.800693160766144" lon="9.815938617177942"><ele>243.66666666666666</ele><time>2026-05-01T15:27:22Z</time></trkpt><trkpt lat="44.8008804380981" lon="9.816071310200806"><ele>244.0</ele><time>2026-05-01T15:27:23Z</time></trkpt><trkpt lat="44.8010128530399" lon="9.816160620487256"><ele>242.83333333333331</ele><time>2026-05-01T15:27:24Z</time></trkpt><trkpt lat="44.8011121179947" lon="9.816233125094069"><ele>241.66666666666666</ele><time>2026-05-01T15:27:25Z</time></trkpt><trkpt lat="44.80117629697724" lon="9.816281740187963"><ele>240.5</ele><time>2026-05-01T15:27:26Z</time></trkpt><trkpt lat="44.8012265509283" lon="9.816345406748082"><ele>239.33333333333331</ele><time>2026-05-01T15:27:29Z</time></trkpt><trkpt lat="44.801175686165855" lon="9.816406804890724"><ele>238.16666666666666</ele><time>2026-05-01T15:27:32Z</time></trkpt><trkpt lat="44.801087726424" lon="9.816477469732288"><ele>237.0</ele><time>2026-05-01T15:27:34Z</time></trkpt><trkpt lat="44.80100740300181" lon="9.816553971057271"><ele>238.39999999999998</ele><time>2026-05-01T15:27:35Z</time></trkpt><trkpt lat="44.80092310737744" lon="9.816644662152484"><ele>239.79999999999998</ele><time>2026-05-01T15:27:36Z</time></trkpt><trkpt lat="44.80084145035678" lon="9.816741511348255"><ele>241.2</ele><time>2026-05-01T15:27:37Z</time></trkpt><trkpt lat="44.800762803177314" lon="9.816835956469484"><ele>242.6</ele><time>2026-05-01T15:27:37.999Z</time></trkpt><trkpt lat="44.80068498348275" lon="9.816925165894446"><ele>244.0</ele><time>2026-05-01T15:27:38.999Z</time></trkpt><trkpt lat="44.80056804863563" lon="9.81696829888434"><ele>244.99999999999997</ele><time>2026-05-01T15:27:40.999Z</time></trkpt><trkpt lat="44.800473029688945" lon="9.816982327303194"><ele>246.0</ele><time>2026-05-01T15:27:41.999Z</time></trkpt><trkpt lat="44.800350294807174" lon="9.8170053569375"><ele>247.0</ele><time>2026-05-01T15:27:42.999Z</time></trkpt><trkpt lat="44.8002690064199" lon="9.817041058381571"><ele>248.0</ele><time>2026-05-01T15:27:43.999Z</time></trkpt><trkpt lat="44.80022722972661" lon="9.817109393614492"><ele>248.99999999999997</ele><time>2026-05-01T15:27:44.999Z</time></trkpt><trkpt lat="44.80017947812403" lon="9.817182727798695"><ele>250.0</ele><time>2026-05-01T15:27:45.999Z</time></trkpt><trkpt lat="44.800113179592536" lon="9.817255380447579"><ele>251.8</ele><time>2026-05-01T15:27:46.999Z</time></trkpt><trkpt lat="44.80003771717174" lon="9.817344518299622"><ele>253.6</ele><time>2026-05-01T15:27:47.999Z</time></trkpt><trkpt lat="44.79994770759236" lon="9.81744786265298"><ele>255.39999999999998</ele><time>2026-05-01T15:27:48.999Z</time></trkpt><trkpt lat="44.79984399362996" lon="9.817567094878722"><ele>257.2</ele><time>2026-05-01T15:27:49.999Z</time></trkpt><trkpt lat="44.799768795237604" lon="9.817653729526137"><ele>259.0</ele><time>2026-05-01T15:27:50.999Z</time></trkpt><trkpt lat="44.79969196242363" lon="9.817742247238112"><ele>260.8</ele><time>2026-05-01T15:27:51.999Z</time></trkpt><trkpt lat="44.7996064001034" lon="9.8178445599837"><ele>262.59999999999997</ele><time>2026-05-01T15:27:52.999Z</time></trkpt><trkpt lat="44.79951994418569" lon="9.81797143250441"><ele>264.4</ele><time>2026-05-01T15:27:53.999Z</time></trkpt><trkpt lat="44.79944910369027" lon="9.818075009051954"><ele>266.2</ele><time>2026-05-01T15:27:54.999Z</time></trkpt><trkpt lat="44.79939181337336" lon="9.818137014407966"><ele>268.0</ele><time>2026-05-01T15:27:55.999Z</time></trkpt><trkpt lat="44.799320377007476" lon="9.818163453540954"><ele>269.8</ele><time>2026-05-01T15:27:57.999Z</time></trkpt><trkpt lat="44.79924380945337" lon="9.818093185455803"><ele>271.6</ele><time>2026-05-01T15:27:59.999Z</time></trkpt><trkpt lat="44.79917518431394" lon="9.818036481001748"><ele>273.4</ele><time>2026-05-01T15:28:00.999Z</time></trkpt><trkpt lat="44.79907481471308" lon="9.817942106851591"><ele>275.2</ele><time>2026-05-01T15:28:01.999Z</time></trkpt><trkpt lat="44.798987566782465" lon="9.817858784569014"><ele>277.0</ele><time>2026-05-01T15:28:02.999Z</time></trkpt><trkpt lat="44.79891231390128" lon="9.817790500709313"><ele>277.0</ele><time>2026-05-01T15:28:04.999Z</time></trkpt><trkpt lat="44.79882367564489" lon="9.817924590403518"><ele>277.0</ele><time>2026-05-01T15:28:06.999Z</time></trkpt><trkpt lat="44.79877785661115" lon="9.818027544682232"><ele>277.0</ele><time>2026-05-01T15:28:07.999Z</time></trkpt><trkpt lat="44.79869055906241" lon="9.818139197399379"><ele>277.0</ele><time>2026-05-01T15:28:08.999Z</time></trkpt><trkpt lat="44.79861942607413" lon="9.81824189282729"><ele>277.0</ele><time>2026-05-01T15:28:09.999Z</time></trkpt><trkpt lat="44.798559115087905" lon="9.818301445889674"><ele>279.0</ele><time>2026-05-01T15:28:10.999Z</time></trkpt><trkpt lat="44.79845586847802" lon="9.818306849340583"><ele>281.0</ele><time>2026-05-01T15:28:12.999Z</time></trkpt><trkpt lat="44.79837221411504" lon="9.818325409473951"><ele>283.0</ele><time>2026-05-01T15:28:13.999Z</time></trkpt><trkpt lat="44.79826556826565" lon="9.818350477945529"><ele>285.0</ele><time>2026-05-01T15:28:14.999Z</time></trkpt><trkpt lat="44.79815704323249" lon="9.818382931522587"><ele>287.0</ele><time>2026-05-01T15:28:15.999Z</time></trkpt><trkpt lat="44.798054685148905" lon="9.818404499374026"><ele>287.0</ele><time>2026-05-01T15:28:16.999Z</time></trkpt><trkpt lat="44.797950976292306" lon="9.818424511908312"><ele>287.0</ele><time>2026-05-01T15:28:17.999Z</time></trkpt><trkpt lat="44.79786169253867" lon="9.818462220718464"><ele>287.0</ele><time>2026-05-01T15:28:18.999Z</time></trkpt><trkpt lat="44.79779596920609" lon="9.818479932371762"><ele>287.0</ele><time>2026-05-01T15:28:19.999Z</time></trkpt><trkpt lat="44.79771591243304" lon="9.818509614156095"><ele>287.0</ele><time>2026-05-01T15:28:20.999Z</time></trkpt><trkpt lat="44.7976351278672" lon="9.818552319920155"><ele>287.0</ele><time>2026-05-01T15:28:21.999Z</time></trkpt><trkpt lat="44.79757685921577" lon="9.818599416002955"><ele>288.1666666666667</ele><time>2026-05-01T15:28:22.999Z</time></trkpt><trkpt lat="44.797531483417" lon="9.81868293435449"><ele>289.33333333333337</ele><time>2026-05-01T15:28:24.999Z</time></trkpt><trkpt lat="44.79754721813562" lon="9.818803750295803"><ele>290.5</ele><time>2026-05-01T15:28:26.999Z</time></trkpt><trkpt lat="44.79760959996952" lon="9.818929304297441"><ele>291.6666666666667</ele><time>2026-05-01T15:28:28.999Z</time></trkpt><trkpt lat="44.797650164020226" lon="9.819010140365862"><ele>292.8333333333333</ele><time>2026-05-01T15:28:29.999Z</time></trkpt><trkpt lat="44.79765841040451" lon="9.819105717845826"><ele>294.0</ele><time>2026-05-01T15:28:30.999Z</time></trkpt><trkpt lat="44.79770706083084" lon="9.819266609172796"><ele>295.5</ele><time>2026-05-01T15:28:32.999Z</time></trkpt><trkpt lat="44.79769467707244" lon="9.819357549194047"><ele>297.0</ele><time>2026-05-01T15:28:33.999Z</time></trkpt><trkpt lat="44.79766735857854" lon="9.819525306481824"><ele>298.5</ele><time>2026-05-01T15:28:35.999Z</time></trkpt><trkpt lat="44.79764438890515" lon="9.819623990066244"><ele>300.0</ele><time>2026-05-01T15:28:36.999Z</time></trkpt><trkpt lat="44.79762078376265" lon="9.81972269894089"><ele>301.5</ele><time>2026-05-01T15:28:37.999Z</time></trkpt><trkpt lat="44.79760062853384" lon="9.819809100859628"><ele>303.0</ele><time>2026-05-01T15:28:38.999Z</time></trkpt><trkpt lat="44.797573677213286" lon="9.819974831923624"><ele>305.6</ele><time>2026-05-01T15:28:40.999Z</time></trkpt><trkpt lat="44.79758180112279" lon="9.820132103052998"><ele>308.20000000000005</ele><time>2026-05-01T15:28:42.999Z</time></trkpt><trkpt lat="44.797542839833795" lon="9.820267020800062"><ele>310.8</ele><time>2026-05-01T15:28:44.999Z</time></trkpt><trkpt lat="44.79748671834811" lon="9.820325667279848"><ele>313.40000000000003</ele><time>2026-05-01T15:28:46.999Z</time></trkpt><trkpt lat="44.7973877695015" lon="9.82035501572683"><ele>316.0</ele><time>2026-05-01T15:28:48.999Z</time></trkpt><trkpt lat="44.797270700242606" lon="9.820321735778268"><ele>317.8333333333333</ele><time>2026-05-01T15:28:50.999Z</time></trkpt><trkpt lat="44.79719655782019" lon="9.82032460335736"><ele>319.66666666666663</ele><time>2026-05-01T15:28:51.999Z</time></trkpt><trkpt lat="44.79711507354467" lon="9.820343728527396"><ele>321.5</ele><time>2026-05-01T15:28:52.999Z</time></trkpt><trkpt lat="44.79703545246655" lon="9.820354408745127"><ele>323.3333333333333</ele><time>2026-05-01T15:28:53.999Z</time></trkpt><trkpt lat="44.79695892959992" lon="9.820340008831552"><ele>325.1666666666667</ele><time>2026-05-01T15:28:54.999Z</time></trkpt><trkpt lat="44.79689203826649" lon="9.820361756125495"><ele>327.0</ele><time>2026-05-01T15:28:55.999Z</time></trkpt><trkpt lat="44.796807462101604" lon="9.820405923322971"><ele>327.0</ele><time>2026-05-01T15:28:57.999Z</time></trkpt><trkpt lat="44.796774574528534" lon="9.82052088065771"><ele>327.0</ele><time>2026-05-01T15:28:59.999Z</time></trkpt><trkpt lat="44.79682215044715" lon="9.820672704802114"><ele>327.0</ele><time>2026-05-01T15:29:01.999Z</time></trkpt><trkpt lat="44.79686480174434" lon="9.820757957273388"><ele>327.0</ele><time>2026-05-01T15:29:02.999Z</time></trkpt><trkpt lat="44.796898359312635" lon="9.820895106036616"><ele>327.0</ele><time>2026-05-01T15:29:04.999Z</time></trkpt><trkpt lat="44.796842193882256" lon="9.820978947107012"><ele>331.8333333333333</ele><time>2026-05-01T15:29:06.999Z</time></trkpt><trkpt lat="44.796777455455825" lon="9.821046843187561"><ele>336.6666666666667</ele><time>2026-05-01T15:29:08.999Z</time></trkpt><trkpt lat="44.79669551684897" lon="9.821104318766661"><ele>341.5</ele><time>2026-05-01T15:29:10.999Z</time></trkpt><trkpt lat="44.79658411535989" lon="9.821150904800243"><ele>346.33333333333337</ele><time>2026-05-01T15:29:12.999Z</time></trkpt><trkpt lat="44.796497549191315" lon="9.821157853753395"><ele>351.1666666666667</ele><time>2026-05-01T15:29:14.999Z</time></trkpt><trkpt lat="44.79643460095953" lon="9.821160977788862"><ele>356.0</ele><time>2026-05-01T15:29:15.999Z</time></trkpt><trkpt lat="44.796358270985756" lon="9.821123432605425"><ele>356.0</ele><time>2026-05-01T15:29:16.999Z</time></trkpt><trkpt lat="44.79627653178814" lon="9.82110306717694"><ele>356.0</ele><time>2026-05-01T15:29:17.999Z</time></trkpt><trkpt lat="44.7962002123521" lon="9.821048367466163"><ele>356.0</ele><time>2026-05-01T15:29:18.999Z</time></trkpt><trkpt lat="44.79612431102957" lon="9.821026603300535"><ele>356.0</ele><time>2026-05-01T15:29:19.999Z</time></trkpt><trkpt lat="44.79605378155442" lon="9.821029419547417"><ele>356.0</ele><time>2026-05-01T15:29:20.999Z</time></trkpt><trkpt lat="44.79599110974146" lon="9.82100976620659"><ele>356.0</ele><time>2026-05-01T15:29:21.999Z</time></trkpt><trkpt lat="44.795876296907146" lon="9.821028327900482"><ele>359.6</ele><time>2026-05-01T15:29:23.999Z</time></trkpt><trkpt lat="44.79581938079752" lon="9.821103372559898"><ele>363.20000000000005</ele><time>2026-05-01T15:29:25.999Z</time></trkpt><trkpt lat="44.795738127333486" lon="9.821276148380303"><ele>366.79999999999995</ele><time>2026-05-01T15:29:27.999Z</time></trkpt><trkpt lat="44.79569599564671" lon="9.821377690180404"><ele>370.4</ele><time>2026-05-01T15:29:28.999Z</time></trkpt><trkpt lat="44.795659819037006" lon="9.821457316009022"><ele>374.0</ele><time>2026-05-01T15:29:29.999Z</time></trkpt><trkpt lat="44.79560598334688" lon="9.82153777068112"><ele>374.0</ele><time>2026-05-01T15:29:30.999Z</time></trkpt><trkpt lat="44.79556128415295" lon="9.821643494853113"><ele>374.0</ele><time>2026-05-01T15:29:31.999Z</time></trkpt><trkpt lat="44.795544467141376" lon="9.821756122722606"><ele>374.0</ele><time>2026-05-01T15:29:32.999Z</time></trkpt><trkpt lat="44.79552368112005" lon="9.821910856721633"><ele>374.0</ele><time>2026-05-01T15:29:34.999Z</time></trkpt><trkpt lat="44.79551796289524" lon="9.822014480132339"><ele>374.0</ele><time>2026-05-01T15:29:36.999Z</time></trkpt><trkpt lat="44.79545600135612" lon="9.822048116948064"><ele>374.0</ele><time>2026-05-01T15:29:38.999Z</time></trkpt><trkpt lat="44.79534692264073" lon="9.822029778678832"><ele>376.4</ele><time>2026-05-01T15:29:39.999Z</time></trkpt><trkpt lat="44.79525768676468" lon="9.822048840053435"><ele>378.79999999999995</ele><time>2026-05-01T15:29:40.999Z</time></trkpt><trkpt lat="44.79519853306572" lon="9.82210000301943"><ele>381.20000000000005</ele><time>2026-05-01T15:29:41.999Z</time></trkpt><trkpt lat="44.795131849628696" lon="9.82218922665324"><ele>383.6</ele><time>2026-05-01T15:29:43.999Z</time></trkpt><trkpt lat="44.79503951194027" lon="9.822156148564165"><ele>386.0</ele><time>2026-05-01T15:29:45.999Z</time></trkpt><trkpt lat="44.79496857248205" lon="9.822011437350197"><ele>387.8333333333333</ele><time>2026-05-01T15:29:47.999Z</time></trkpt><trkpt lat="44.794940229105876" lon="9.821925796141068"><ele>389.66666666666663</ele><time>2026-05-01T15:29:48.999Z</time></trkpt><trkpt lat="44.79488736311793" lon="9.82186648262406"><ele>391.5</ele><time>2026-05-01T15:29:49.999Z</time></trkpt><trkpt lat="44.79476361993869" lon="9.821843936459125"><ele>393.33333333333337</ele><time>2026-05-01T15:29:51.999Z</time></trkpt><trkpt lat="44.7946906194416" lon="9.821843538288297"><ele>395.1666666666667</ele><time>2026-05-01T15:29:52.999Z</time></trkpt><trkpt lat="44.79458550713322" lon="9.821841101665086"><ele>397.0</ele><time>2026-05-01T15:29:53.999Z</time></trkpt><trkpt lat="44.794465573354366" lon="9.821847428053434"><ele>396.6</ele><time>2026-05-01T15:29:54.999Z</time></trkpt><trkpt lat="44.794359262180656" lon="9.82181504221914"><ele>396.20000000000005</ele><time>2026-05-01T15:29:55.999Z</time></trkpt><trkpt lat="44.7942748972517" lon="9.821739107857303"><ele>395.8</ele><time>2026-05-01T15:29:56.999Z</time></trkpt><trkpt lat="44.794192509165" lon="9.821655907752865"><ele>395.4</ele><time>2026-05-01T15:29:57.999Z</time></trkpt><trkpt lat="44.7941050941229" lon="9.821614778594046"><ele>395.0</ele><time>2026-05-01T15:29:58.999Z</time></trkpt><trkpt lat="44.79399164921981" lon="9.821624132700764"><ele>395.0</ele><time>2026-05-01T15:29:59.999Z</time></trkpt><trkpt lat="44.79387687368777" lon="9.82166515103015"><ele>395.0</ele><time>2026-05-01T15:30:00.999Z</time></trkpt><trkpt lat="44.793781709315766" lon="9.82174457530188"><ele>395.0</ele><time>2026-05-01T15:30:01.999Z</time></trkpt><trkpt lat="44.79371196066166" lon="9.82180388394247"><ele>395.0</ele><time>2026-05-01T15:30:02.999Z</time></trkpt><trkpt lat="44.79364276367954" lon="9.821814037021344"><ele>395.0</ele><time>2026-05-01T15:30:03.999Z</time></trkpt><trkpt lat="44.79355469686177" lon="9.821678415514059"><ele>395.0</ele><time>2026-05-01T15:30:05.999Z</time></trkpt><trkpt lat="44.79351041244062" lon="9.821543303806521"><ele>395.0</ele><time>2026-05-01T15:30:06.999Z</time></trkpt><trkpt lat="44.79347358170102" lon="9.821434261385631"><ele>395.0</ele><time>2026-05-01T15:30:07.999Z</time></trkpt><trkpt lat="44.79339967709522" lon="9.821391787192052"><ele>395.0</ele><time>2026-05-01T15:30:09.999Z</time></trkpt><trkpt lat="44.79336828325515" lon="9.821476984319354"><ele>395.0</ele><time>2026-05-01T15:30:11.999Z</time></trkpt><trkpt lat="44.7933729167476" lon="9.821662870502276"><ele>396.2</ele><time>2026-05-01T15:30:13.999Z</time></trkpt><trkpt lat="44.79336825722497" lon="9.821783119231586"><ele>397.4</ele><time>2026-05-01T15:30:14.999Z</time></trkpt><trkpt lat="44.79335164625447" lon="9.821884053486814"><ele>398.6</ele><time>2026-05-01T15:30:15.999Z</time></trkpt><trkpt lat="44.79332370985853" lon="9.822035297763664"><ele>399.8</ele><time>2026-05-01T15:30:17.999Z</time></trkpt><trkpt lat="44.79330974820973" lon="9.822178924666236"><ele>401.0</ele><time>2026-05-01T15:30:19.999Z</time></trkpt><trkpt lat="44.79336689423297" lon="9.822276516969168"><ele>403.0</ele><time>2026-05-01T15:30:20.999Z</time></trkpt><trkpt lat="44.7934410008786" lon="9.822280038326852"><ele>405.0</ele><time>2026-05-01T15:30:21.999Z</time></trkpt><trkpt lat="44.793518153726836" lon="9.822253888205532"><ele>407.0</ele><time>2026-05-01T15:30:22.999Z</time></trkpt><trkpt lat="44.79361982691253" lon="9.82222531079635"><ele>409.0</ele><time>2026-05-01T15:30:23.999Z</time></trkpt><trkpt lat="44.79370518578408" lon="9.822236653557106"><ele>411.0</ele><time>2026-05-01T15:30:24.999Z</time></trkpt><trkpt lat="44.79381474803897" lon="9.822300102368928"><ele>411.25</ele><time>2026-05-01T15:30:25.999Z</time></trkpt><trkpt lat="44.793929137006096" lon="9.82237082570416"><ele>411.5</ele><time>2026-05-01T15:30:26.999Z</time></trkpt><trkpt lat="44.79402266620527" lon="9.82247386260237"><ele>411.75</ele><time>2026-05-01T15:30:27.999Z</time></trkpt><trkpt lat="44.79405020199209" lon="9.82265903976413"><ele>412.0</ele><time>2026-05-01T15:30:28.999Z</time></trkpt><trkpt lat="44.79412709426164" lon="9.822758083427708"><ele>411.8</ele><time>2026-05-01T15:30:29.999Z</time></trkpt><trkpt lat="44.79421047985108" lon="9.822866838633507"><ele>411.6</ele><time>2026-05-01T15:30:30.999Z</time></trkpt><trkpt lat="44.79428188365079" lon="9.822977380304302"><ele>411.40000000000003</ele><time>2026-05-01T15:30:31.999Z</time></trkpt><trkpt lat="44.79433201498076" lon="9.82309964806015"><ele>411.20000000000005</ele><time>2026-05-01T15:30:32.999Z</time></trkpt><trkpt lat="44.79434123868913" lon="9.823231864708013"><ele>411.0</ele><time>2026-05-01T15:30:33.999Z</time></trkpt><trkpt lat="44.79437157872569" lon="9.823370525933099"><ele>413.4</ele><time>2026-05-01T15:30:34.999Z</time></trkpt><trkpt lat="44.794404669913995" lon="9.823504816241439"><ele>415.8</ele><time>2026-05-01T15:30:35.999Z</time></trkpt><trkpt lat="44.79447913690084" lon="9.823611181620304"><ele>418.2</ele><time>2026-05-01T15:30:36.999Z</time></trkpt><trkpt lat="44.794568187604185" lon="9.823695135837578"><ele>420.59999999999997</ele><time>2026-05-01T15:30:37.999Z</time></trkpt><trkpt lat="44.79467459005561" lon="9.823764757366122"><ele>423.0</ele><time>2026-05-01T15:30:38.999Z</time></trkpt><trkpt lat="44.79478467902786" lon="9.823828363654497"><ele>423.0</ele><time>2026-05-01T15:30:39.999Z</time></trkpt><trkpt lat="44.79487083728944" lon="9.823922239736637"><ele>423.0</ele><time>2026-05-01T15:30:40.999Z</time></trkpt><trkpt lat="44.79491663255291" lon="9.824032621685502"><ele>423.0</ele><time>2026-05-01T15:30:41.999Z</time></trkpt><trkpt lat="44.79497326683598" lon="9.824147604956188"><ele>423.0</ele><time>2026-05-01T15:30:42.999Z</time></trkpt><trkpt lat="44.79502918188812" lon="9.8242553039706"><ele>423.0</ele><time>2026-05-01T15:30:43.999Z</time></trkpt><trkpt lat="44.79508088497836" lon="9.824362234384523"><ele>420.79999999999995</ele><time>2026-05-01T15:30:44.999Z</time></trkpt><trkpt lat="44.795133356925454" lon="9.824481797919516"><ele>418.6</ele><time>2026-05-01T15:30:45.999Z</time></trkpt><trkpt lat="44.795180366603546" lon="9.824612205257143"><ele>416.4</ele><time>2026-05-01T15:30:46.999Z</time></trkpt><trkpt lat="44.795225282754444" lon="9.824751620364589"><ele>414.20000000000005</ele><time>2026-05-01T15:30:47.999Z</time></trkpt><trkpt lat="44.79527853728799" lon="9.824905625799145"><ele>412.0</ele><time>2026-05-01T15:30:48.999Z</time></trkpt><trkpt lat="44.795347369439185" lon="9.82507518256074"><ele>416.5</ele><time>2026-05-01T15:30:49.999Z</time></trkpt><trkpt lat="44.795422993583344" lon="9.825243435568497"><ele>421.0</ele><time>2026-05-01T15:30:50.999Z</time></trkpt><trkpt lat="44.79549512164727" lon="9.825394920784813"><ele>425.5</ele><time>2026-05-01T15:30:51.999Z</time></trkpt><trkpt lat="44.79558863972536" lon="9.82553790645989"><ele>430.0</ele><time>2026-05-01T15:30:52.999Z</time></trkpt><trkpt lat="44.79571203103375" lon="9.825646081777231"><ele>430.0</ele><time>2026-05-01T15:30:53.999Z</time></trkpt><trkpt lat="44.79582485143538" lon="9.8257436796303"><ele>430.0</ele><time>2026-05-01T15:30:54.999Z</time></trkpt><trkpt lat="44.795891335089955" lon="9.825862180519502"><ele>430.0</ele><time>2026-05-01T15:30:55.999Z</time></trkpt><trkpt lat="44.79592656648362" lon="9.825990043458635"><ele>430.0</ele><time>2026-05-01T15:30:56.999Z</time></trkpt><trkpt lat="44.79593133333719" lon="9.826119172358998"><ele>430.0</ele><time>2026-05-01T15:30:57.999Z</time></trkpt><trkpt lat="44.79599369479093" lon="9.826272631534962"><ele>429.8</ele><time>2026-05-01T15:30:58.999Z</time></trkpt><trkpt lat="44.796066733645134" lon="9.826387926014993"><ele>429.6</ele><time>2026-05-01T15:30:59.999Z</time></trkpt><trkpt lat="44.79616720133357" lon="9.8264786707858"><ele>429.4</ele><time>2026-05-01T15:31:00.999Z</time></trkpt><trkpt lat="44.79626629819998" lon="9.826559990838799"><ele>429.2</ele><time>2026-05-01T15:31:01.999Z</time></trkpt><trkpt lat="44.796343150858576" lon="9.826639406930564"><ele>429.0</ele><time>2026-05-01T15:31:02.999Z</time></trkpt><trkpt lat="44.79640834957527" lon="9.826713251520278"><ele>429.0</ele><time>2026-05-01T15:31:03.999Z</time></trkpt><trkpt lat="44.796494396484974" lon="9.826753327710968"><ele>429.0</ele><time>2026-05-01T15:31:04.999Z</time></trkpt><trkpt lat="44.79659803748971" lon="9.826779827455638"><ele>429.0</ele><time>2026-05-01T15:31:05.999Z</time></trkpt><trkpt lat="44.79670909738389" lon="9.826799623025394"><ele>429.0</ele><time>2026-05-01T15:31:06.999Z</time></trkpt><trkpt lat="44.796816816958014" lon="9.826813322412082"><ele>429.0</ele><time>2026-05-01T15:31:07.999Z</time></trkpt><trkpt lat="44.79690780957335" lon="9.826854615483198"><ele>429.1666666666667</ele><time>2026-05-01T15:31:08.999Z</time></trkpt><trkpt lat="44.79698482822115" lon="9.826896206416068"><ele>429.33333333333337</ele><time>2026-05-01T15:31:09.999Z</time></trkpt><trkpt lat="44.79704782581839" lon="9.826955278611239"><ele>429.5</ele><time>2026-05-01T15:31:10.999Z</time></trkpt><trkpt lat="44.79709525970251" lon="9.82705719597524"><ele>429.6666666666667</ele><time>2026-05-01T15:31:11.999Z</time></trkpt><trkpt lat="44.797137757618515" lon="9.827174593506056"><ele>429.83333333333337</ele><time>2026-05-01T15:31:12.999Z</time></trkpt><trkpt lat="44.7971843561407" lon="9.827291403134824"><ele>430.0</ele><time>2026-05-01T15:31:13.999Z</time></trkpt><trkpt lat="44.797217278709894" lon="9.827424226474403"><ele>430.0</ele><time>2026-05-01T15:31:14.999Z</time></trkpt><trkpt lat="44.79721801175594" lon="9.827543323126964"><ele>430.0</ele><time>2026-05-01T15:31:15.999Z</time></trkpt><trkpt lat="44.797214096684634" lon="9.827667647892305"><ele>430.0</ele><time>2026-05-01T15:31:16.999Z</time></trkpt><trkpt lat="44.79719793668954" lon="9.827797022180523"><ele>430.0</ele><time>2026-05-01T15:31:17.999Z</time></trkpt><trkpt lat="44.79716970682778" lon="9.827955599611148"><ele>430.0</ele><time>2026-05-01T15:31:18.999Z</time></trkpt><trkpt lat="44.797122344197255" lon="9.82815034086437"><ele>432.25</ele><time>2026-05-01T15:31:19.999Z</time></trkpt><trkpt lat="44.79706050769623" lon="9.828382366192262"><ele>434.5</ele><time>2026-05-01T15:31:20.999Z</time></trkpt><trkpt lat="44.79701553447898" lon="9.828541618380937"><ele>436.75</ele><time>2026-05-01T15:31:21.999Z</time></trkpt><trkpt lat="44.79698332804944" lon="9.828652735696204"><ele>439.0</ele><time>2026-05-01T15:31:22.999Z</time></trkpt><trkpt lat="44.7969488838423" lon="9.828745238353594"><ele>439.6</ele><time>2026-05-01T15:31:24.999Z</time></trkpt><trkpt lat="44.79693571030195" lon="9.828850389008329"><ele>440.2</ele><time>2026-05-01T15:31:31.999Z</time></trkpt><trkpt lat="44.79708993905087" lon="9.828908243279717"><ele>440.80000000000007</ele><time>2026-05-01T15:31:32.999Z</time></trkpt><trkpt lat="44.797181059285876" lon="9.8289386328271"><ele>441.40000000000003</ele><time>2026-05-01T15:31:33.999Z</time></trkpt><trkpt lat="44.797267688627464" lon="9.828961986051377"><ele>442.0</ele><time>2026-05-01T15:31:34.999Z</time></trkpt><trkpt lat="44.797373374319584" lon="9.829016457224755"><ele>442.0</ele><time>2026-05-01T15:31:35.999Z</time></trkpt><trkpt lat="44.7974630543246" lon="9.829062570044794"><ele>442.00000000000006</ele><time>2026-05-01T15:31:36.999Z</time></trkpt><trkpt lat="44.797550205500116" lon="9.829102576193854"><ele>442.00000000000006</ele><time>2026-05-01T15:31:37.999Z</time></trkpt><trkpt lat="44.797634906255155" lon="9.829141973264415"><ele>442.0</ele><time>2026-05-01T15:31:38.999Z</time></trkpt><trkpt lat="44.797727696362955" lon="9.82918518087997"><ele>442.0</ele><time>2026-05-01T15:31:39.999Z</time></trkpt><trkpt lat="44.79781940319658" lon="9.829234519925848"><ele>441.6</ele><time>2026-05-01T15:31:40.999Z</time></trkpt><trkpt lat="44.797912892766504" lon="9.829280574214952"><ele>441.20000000000005</ele><time>2026-05-01T15:31:41.999Z</time></trkpt><trkpt lat="44.798005850701564" lon="9.829321066726818"><ele>440.8</ele><time>2026-05-01T15:31:42.999Z</time></trkpt><trkpt lat="44.798095633231654" lon="9.829364849325646"><ele>440.4</ele><time>2026-05-01T15:31:43.999Z</time></trkpt><trkpt lat="44.798185409742324" lon="9.829407199733428"><ele>440.0</ele><time>2026-05-01T15:31:44.999Z</time></trkpt><trkpt lat="44.79827158319532" lon="9.829447235394573"><ele>439.49999999999994</ele><time>2026-05-01T15:31:45.999Z</time></trkpt><trkpt lat="44.79835450984637" lon="9.829495250247074"><ele>439.0</ele><time>2026-05-01T15:31:46.999Z</time></trkpt><trkpt lat="44.79843657279251" lon="9.829528889186916"><ele>438.5</ele><time>2026-05-01T15:31:47.999Z</time></trkpt><trkpt lat="44.79851666321014" lon="9.829587279234008"><ele>438.0</ele><time>2026-05-01T15:31:48.999Z</time></trkpt><trkpt lat="44.798597573336025" lon="9.829626400232128"><ele>437.49999999999994</ele><time>2026-05-01T15:31:49.999Z</time></trkpt><trkpt lat="44.798681703520174" lon="9.829667078044928"><ele>437.0</ele><time>2026-05-01T15:31:50.999Z</time></trkpt><trkpt lat="44.798766037947516" lon="9.829707854764878"><ele>436.99999999999994</ele><time>2026-05-01T15:31:51.999Z</time></trkpt><trkpt lat="44.7988473223796" lon="9.829747155219344"><ele>437.0</ele><time>2026-05-01T15:31:52.999Z</time></trkpt><trkpt lat="44.79893392570051" lon="9.829788733090592"><ele>437.0</ele><time>2026-05-01T15:31:53.999Z</time></trkpt><trkpt lat="44.799013692198464" lon="9.829827110191752"><ele>437.0</ele><time>2026-05-01T15:31:54.999Z</time></trkpt><trkpt lat="44.79908646994885" lon="9.829862124764796"><ele>436.99999999999994</ele><time>2026-05-01T15:31:55.999Z</time></trkpt><trkpt lat="44.799154064754674" lon="9.829894644712715"><ele>437.0</ele><time>2026-05-01T15:31:56.999Z</time></trkpt><trkpt lat="44.79922535115023" lon="9.829928274377696"><ele>437.16666666666663</ele><time>2026-05-01T15:31:57.999Z</time></trkpt><trkpt lat="44.79934700211379" lon="9.829990868184169"><ele>437.3333333333333</ele><time>2026-05-01T15:31:59.999Z</time></trkpt><trkpt lat="44.799409014421876" lon="9.830026586202637"><ele>437.5</ele><time>2026-05-01T15:32:00.999Z</time></trkpt><trkpt lat="44.79947853825448" lon="9.830041473676228"><ele>437.66666666666663</ele><time>2026-05-01T15:32:01.999Z</time></trkpt><trkpt lat="44.799524106366405" lon="9.830108364329623"><ele>437.8333333333333</ele><time>2026-05-01T15:32:02.999Z</time></trkpt><trkpt lat="44.799518801491764" lon="9.830217694355667"><ele>438.0</ele><time>2026-05-01T15:32:03.999Z</time></trkpt><trkpt lat="44.79950624277008" lon="9.830320365652534"><ele>435.6666666666667</ele><time>2026-05-01T15:32:04.999Z</time></trkpt><trkpt lat="44.799458856064085" lon="9.830429346235658"><ele>433.33333333333337</ele><time>2026-05-01T15:32:05.999Z</time></trkpt><trkpt lat="44.799439320934724" lon="9.830562867247869"><ele>431.0</ele><time>2026-05-01T15:32:06.999Z</time></trkpt><trkpt lat="44.79943598788542" lon="9.830683186681997"><ele>428.6666666666667</ele><time>2026-05-01T15:32:07.999Z</time></trkpt><trkpt lat="44.799406255680964" lon="9.830785438549604"><ele>426.33333333333337</ele><time>2026-05-01T15:32:08.999Z</time></trkpt><trkpt lat="44.79939918788338" lon="9.830888405727293"><ele>424.0</ele><time>2026-05-01T15:32:09.999Z</time></trkpt><trkpt lat="44.79938217560576" lon="9.830983201484354"><ele>424.00000000000006</ele><time>2026-05-01T15:32:10.999Z</time></trkpt><trkpt lat="44.79937468708127" lon="9.83107893794277"><ele>424.0</ele><time>2026-05-01T15:32:11.999Z</time></trkpt><trkpt lat="44.799375926974406" lon="9.831169134906686"><ele>424.0</ele><time>2026-05-01T15:32:12.999Z</time></trkpt><trkpt lat="44.799381592863114" lon="9.831293524590492"><ele>424.0</ele><time>2026-05-01T15:32:14.999Z</time></trkpt><trkpt lat="44.7993002706568" lon="9.831384442097333"><ele>424.00000000000006</ele><time>2026-05-01T15:32:16.999Z</time></trkpt><trkpt lat="44.79926406462872" lon="9.831473790725202"><ele>424.0</ele><time>2026-05-01T15:32:17.999Z</time></trkpt><trkpt lat="44.799229455102996" lon="9.831563664244229"><ele>424.0</ele><time>2026-05-01T15:32:18.999Z</time></trkpt><trkpt lat="44.79920700950989" lon="9.831673341326544"><ele>424.0</ele><time>2026-05-01T15:32:19.999Z</time></trkpt><trkpt lat="44.799199681764655" lon="9.831769615707229"><ele>424.0</ele><time>2026-05-01T15:32:20.999Z</time></trkpt><trkpt lat="44.79921611440545" lon="9.83192169316096"><ele>424.0</ele><time>2026-05-01T15:32:22.999Z</time></trkpt><trkpt lat="44.799306834885414" lon="9.832049000261232"><ele>424.0</ele><time>2026-05-01T15:32:24.999Z</time></trkpt><trkpt lat="44.79934625700181" lon="9.83213728329082"><ele>421.6666666666667</ele><time>2026-05-01T15:32:25.999Z</time></trkpt><trkpt lat="44.799370256755516" lon="9.832225354650323"><ele>419.33333333333337</ele><time>2026-05-01T15:32:26.999Z</time></trkpt><trkpt lat="44.79940219340959" lon="9.832322994367399"><ele>417.0</ele><time>2026-05-01T15:32:27.999Z</time></trkpt><trkpt lat="44.79943278628171" lon="9.832428455210234"><ele>414.66666666666663</ele><time>2026-05-01T15:32:28.999Z</time></trkpt><trkpt lat="44.79945979939" lon="9.832533928822428"><ele>412.3333333333333</ele><time>2026-05-01T15:32:29.999Z</time></trkpt><trkpt lat="44.79949679340487" lon="9.832705101944153"><ele>410.0</ele><time>2026-05-01T15:32:31.999Z</time></trkpt><trkpt lat="44.79951613700998" lon="9.832807727864537"><ele>407.3333333333333</ele><time>2026-05-01T15:32:32.999Z</time></trkpt><trkpt lat="44.799575669425785" lon="9.832937578570938"><ele>404.66666666666663</ele><time>2026-05-01T15:32:34.999Z</time></trkpt><trkpt lat="44.79959881091961" lon="9.83302398038474"><ele>402.0</ele><time>2026-05-01T15:32:36.999Z</time></trkpt><trkpt lat="44.79962405006942" lon="9.833177501215692"><ele>399.33333333333337</ele><time>2026-05-01T15:32:38.999Z</time></trkpt><trkpt lat="44.79964352938693" lon="9.833277485141823"><ele>396.6666666666667</ele><time>2026-05-01T15:32:39.999Z</time></trkpt><trkpt lat="44.79965913931421" lon="9.833375457235537"><ele>394.0</ele><time>2026-05-01T15:32:40.999Z</time></trkpt><trkpt lat="44.7996666040057" lon="9.833479902482729"><ele>392.33333333333337</ele><time>2026-05-01T15:32:41.999Z</time></trkpt><trkpt lat="44.79968336578744" lon="9.833576701993648"><ele>390.6666666666667</ele><time>2026-05-01T15:32:42.999Z</time></trkpt><trkpt lat="44.7996965764786" lon="9.833690878118958"><ele>389.0</ele><time>2026-05-01T15:32:43.999Z</time></trkpt><trkpt lat="44.79972174667272" lon="9.833793305057757"><ele>387.33333333333337</ele><time>2026-05-01T15:32:44.999Z</time></trkpt><trkpt lat="44.79972798689509" lon="9.833960350975275"><ele>385.6666666666667</ele><time>2026-05-01T15:32:46.999Z</time></trkpt><trkpt lat="44.79975657320428" lon="9.834048799701"><ele>384.0</ele><time>2026-05-01T15:32:47.999Z</time></trkpt><trkpt lat="44.799774866337614" lon="9.834134181458133"><ele>384.0</ele><time>2026-05-01T15:32:48.999Z</time></trkpt><trkpt lat="44.7997878544919" lon="9.834303527040166"><ele>384.0</ele><time>2026-05-01T15:32:50.999Z</time></trkpt><trkpt lat="44.799746194687955" lon="9.83445391761965"><ele>384.0</ele><time>2026-05-01T15:32:52.999Z</time></trkpt><trkpt lat="44.79969193974465" lon="9.83462251671617"><ele>384.0</ele><time>2026-05-01T15:32:54.999Z</time></trkpt><trkpt lat="44.79966183055432" lon="9.834710697491131"><ele>384.0</ele><time>2026-05-01T15:32:55.999Z</time></trkpt><trkpt lat="44.799633539779464" lon="9.834792729521078"><ele>382.1666666666667</ele><time>2026-05-01T15:32:56.999Z</time></trkpt><trkpt lat="44.79958953392712" lon="9.834866790317276"><ele>380.3333333333333</ele><time>2026-05-01T15:32:57.999Z</time></trkpt><trkpt lat="44.79955304639741" lon="9.8349649195746"><ele>378.5</ele><time>2026-05-01T15:32:58.999Z</time></trkpt><trkpt lat="44.79951596706147" lon="9.835065770307208"><ele>376.66666666666663</ele><time>2026-05-01T15:32:59.999Z</time></trkpt><trkpt lat="44.79949021976547" lon="9.835154265183945"><ele>374.8333333333333</ele><time>2026-05-01T15:33:00.999Z</time></trkpt><trkpt lat="44.799482161272415" lon="9.835263119245898"><ele>373.0</ele><time>2026-05-01T15:33:01.999Z</time></trkpt><trkpt lat="44.79941751257898" lon="9.835355253350707"><ele>371.14285714285717</ele><time>2026-05-01T15:33:02.999Z</time></trkpt><trkpt lat="44.79944473143853" lon="9.835470016668955"><ele>369.28571428571433</ele><time>2026-05-01T15:33:03.999Z</time></trkpt><trkpt lat="44.799447187917394" lon="9.835569358078331"><ele>367.42857142857144</ele><time>2026-05-01T15:33:04.999Z</time></trkpt><trkpt lat="44.79944091043244" lon="9.835669551999953"><ele>365.57142857142856</ele><time>2026-05-01T15:33:05.999Z</time></trkpt><trkpt lat="44.79944080135911" lon="9.835772511997114"><ele>363.7142857142857</ele><time>2026-05-01T15:33:06.999Z</time></trkpt><trkpt lat="44.79944828320016" lon="9.835871461479446"><ele>361.85714285714283</ele><time>2026-05-01T15:33:07.999Z</time></trkpt><trkpt lat="44.79946389490491" lon="9.835968915305955"><ele>360.0</ele><time>2026-05-01T15:33:08.999Z</time></trkpt><trkpt lat="44.79947829718554" lon="9.836061276762962"><ele>358.4</ele><time>2026-05-01T15:33:09.999Z</time></trkpt><trkpt lat="44.79949567800596" lon="9.836151432421099"><ele>356.8</ele><time>2026-05-01T15:33:10.999Z</time></trkpt><trkpt lat="44.799532321016024" lon="9.836311834544771"><ele>355.20000000000005</ele><time>2026-05-01T15:33:12.999Z</time></trkpt><trkpt lat="44.79958908491389" lon="9.836448942074961"><ele>353.6</ele><time>2026-05-01T15:33:14.999Z</time></trkpt><trkpt lat="44.79961858096522" lon="9.83652908206396"><ele>352.0</ele><time>2026-05-01T15:33:15.999Z</time></trkpt><trkpt lat="44.79967859083718" lon="9.836673958104598"><ele>352.0</ele><time>2026-05-01T15:33:17.999Z</time></trkpt><trkpt lat="44.79974910528477" lon="9.836792825575149"><ele>352.0</ele><time>2026-05-01T15:33:19.999Z</time></trkpt><trkpt lat="44.799865218179065" lon="9.836918196379436"><ele>352.0</ele><time>2026-05-01T15:33:21.999Z</time></trkpt><trkpt lat="44.799927405408646" lon="9.836892047402896"><ele>352.0</ele><time>2026-05-01T15:33:23.999Z</time></trkpt><trkpt lat="44.80002888158458" lon="9.836843953371886"><ele>352.0</ele><time>2026-05-01T15:33:25.999Z</time></trkpt><trkpt lat="44.80013121537697" lon="9.836832198228407"><ele>350.5</ele><time>2026-05-01T15:33:27.999Z</time></trkpt><trkpt lat="44.80019545925736" lon="9.836862798297878"><ele>349.0</ele><time>2026-05-01T15:33:28.999Z</time></trkpt><trkpt lat="44.800284629413675" lon="9.836887040253265"><ele>347.5</ele><time>2026-05-01T15:33:29.999Z</time></trkpt><trkpt lat="44.80035340155028" lon="9.836893883434083"><ele>346.0</ele><time>2026-05-01T15:33:30.999Z</time></trkpt><trkpt lat="44.80045959126255" lon="9.836862408670042"><ele>344.5</ele><time>2026-05-01T15:33:32.999Z</time></trkpt><trkpt lat="44.80057217757018" lon="9.836848332659116"><ele>343.0</ele><time>2026-05-01T15:33:34.999Z</time></trkpt><trkpt lat="44.800669190764914" lon="9.83694758568302"><ele>343.0</ele><time>2026-05-01T15:33:36.999Z</time></trkpt><trkpt lat="44.80072554570276" lon="9.837030822974127"><ele>343.0</ele><time>2026-05-01T15:33:37.999Z</time></trkpt><trkpt lat="44.800779049128536" lon="9.837087623928332"><ele>343.0</ele><time>2026-05-01T15:33:38.999Z</time></trkpt><trkpt lat="44.80077039751053" lon="9.837277804008833"><ele>343.0</ele><time>2026-05-01T15:33:40.999Z</time></trkpt><trkpt lat="44.800783728439754" lon="9.837386601756053"><ele>343.0</ele><time>2026-05-01T15:33:41.999Z</time></trkpt><trkpt lat="44.800752904979326" lon="9.837509129529465"><ele>343.0</ele><time>2026-05-01T15:33:42.999Z</time></trkpt><trkpt lat="44.80082820718805" lon="9.837577641977932"><ele>343.0</ele><time>2026-05-01T15:33:43.999Z</time></trkpt><trkpt lat="44.80091809224293" lon="9.837735036386805"><ele>343.0</ele><time>2026-05-01T15:33:44.999Z</time></trkpt><trkpt lat="44.80093220894319" lon="9.837840493628784"><ele>343.0</ele><time>2026-05-01T15:33:45.999Z</time></trkpt><trkpt lat="44.80097511170854" lon="9.837945330855932"><ele>343.0</ele><time>2026-05-01T15:33:47.999Z</time></trkpt><trkpt lat="44.80102458808503" lon="9.838077535585848"><ele>342.8333333333333</ele><time>2026-05-01T15:33:49.999Z</time></trkpt><trkpt lat="44.80108022118376" lon="9.838158255727729"><ele>342.66666666666663</ele><time>2026-05-01T15:33:51.999Z</time></trkpt><trkpt lat="44.801143774060066" lon="9.838158011169895"><ele>342.5</ele><time>2026-05-01T15:33:53.999Z</time></trkpt><trkpt lat="44.80122452350847" lon="9.838126461854461"><ele>342.3333333333333</ele><time>2026-05-01T15:33:55.999Z</time></trkpt><trkpt lat="44.80131007634348" lon="9.838043209716243"><ele>342.1666666666667</ele><time>2026-05-01T15:33:57.999Z</time></trkpt><trkpt lat="44.801392780349104" lon="9.837972302200194"><ele>342.0</ele><time>2026-05-01T15:33:59.999Z</time></trkpt><trkpt lat="44.8014734120361" lon="9.838058740010208"><ele>342.0</ele><time>2026-05-01T15:34:02.999Z</time></trkpt><trkpt lat="44.80150893291185" lon="9.838225299038028"><ele>342.0</ele><time>2026-05-01T15:34:04.999Z</time></trkpt><trkpt lat="44.801533471235516" lon="9.838331106662032"><ele>342.0</ele><time>2026-05-01T15:34:05.999Z</time></trkpt><trkpt lat="44.8015606812542" lon="9.838467659180742"><ele>342.0</ele><time>2026-05-01T15:34:06.999Z</time></trkpt><trkpt lat="44.80158422454567" lon="9.838558974404274"><ele>342.0</ele><time>2026-05-01T15:34:07.999Z</time></trkpt><trkpt lat="44.801632715309296" lon="9.83869089376322"><ele>342.8333333333333</ele><time>2026-05-01T15:34:09.999Z</time></trkpt><trkpt lat="44.8016922258445" lon="9.838807608082728"><ele>343.6666666666667</ele><time>2026-05-01T15:34:11.999Z</time></trkpt><trkpt lat="44.8017647783228" lon="9.838894083046403"><ele>344.5</ele><time>2026-05-01T15:34:13.999Z</time></trkpt><trkpt lat="44.80183169197545" lon="9.838953080587403"><ele>345.33333333333337</ele><time>2026-05-01T15:34:15.999Z</time></trkpt><trkpt lat="44.80187262692002" lon="9.83902881464711"><ele>346.1666666666667</ele><time>2026-05-01T15:34:25.999Z</time></trkpt><trkpt lat="44.8017857510268" lon="9.839070479196067"><ele>347.0</ele><time>2026-05-01T15:34:36.999Z</time></trkpt><trkpt lat="44.801697125401354" lon="9.839053211020705"><ele>344.8</ele><time>2026-05-01T15:34:40.999Z</time></trkpt><trkpt lat="44.80165004973567" lon="9.839120918974897"><ele>342.6</ele><time>2026-05-01T15:34:42.999Z</time></trkpt><trkpt lat="44.80159791081371" lon="9.839248599187172"><ele>340.40000000000003</ele><time>2026-05-01T15:34:44.999Z</time></trkpt><trkpt lat="44.801557935023176" lon="9.839325166323375"><ele>338.20000000000005</ele><time>2026-05-01T15:34:45.999Z</time></trkpt><trkpt lat="44.80149851827006" lon="9.839469300975257"><ele>336.0</ele><time>2026-05-01T15:34:47.999Z</time></trkpt><trkpt lat="44.80148924767373" lon="9.839627176609557"><ele>334.0</ele><time>2026-05-01T15:34:49.999Z</time></trkpt><trkpt lat="44.80150124009577" lon="9.839763192649173"><ele>332.0</ele><time>2026-05-01T15:34:52.999Z</time></trkpt><trkpt lat="44.801512895806844" lon="9.839876548817143"><ele>330.0</ele><time>2026-05-01T15:34:53.999Z</time></trkpt><trkpt lat="44.80154164353207" lon="9.839998558553745"><ele>328.0</ele><time>2026-05-01T15:34:54.999Z</time></trkpt><trkpt lat="44.80154287703856" lon="9.840099376057278"><ele>326.0</ele><time>2026-05-01T15:34:55.999Z</time></trkpt><trkpt lat="44.801525510200115" lon="9.840253503912917"><ele>324.6666666666667</ele><time>2026-05-01T15:34:57.999Z</time></trkpt><trkpt lat="44.801513983717435" lon="9.840380469612843"><ele>323.33333333333337</ele><time>2026-05-01T15:34:59.999Z</time></trkpt><trkpt lat="44.80150425284137" lon="9.84048008363315"><ele>322.0</ele><time>2026-05-01T15:35:00.999Z</time></trkpt><trkpt lat="44.80151389538996" lon="9.840381373770464"><ele>320.6666666666667</ele><time>2026-05-01T15:35:05.999Z</time></trkpt><trkpt lat="44.80153846932391" lon="9.840518994705263"><ele>319.3333333333333</ele><time>2026-05-01T15:35:20.999Z</time></trkpt><trkpt lat="44.80155415361922" lon="9.84063772746975"><ele>318.0</ele><time>2026-05-01T15:35:22.999Z</time></trkpt><trkpt lat="44.80154947694935" lon="9.840752991769325"><ele>318.0</ele><time>2026-05-01T15:35:24.999Z</time></trkpt><trkpt lat="44.801557844848475" lon="9.840842108913234"><ele>318.0</ele><time>2026-05-01T15:35:26.999Z</time></trkpt><trkpt lat="44.80153820759733" lon="9.840946187388246"><ele>318.0</ele><time>2026-05-01T15:35:29.999Z</time></trkpt><trkpt lat="44.80163432096896" lon="9.840987344150662"><ele>318.0</ele><time>2026-05-01T15:35:36.999Z</time></trkpt><trkpt lat="44.80171651868313" lon="9.840976570485697"><ele>318.0</ele><time>2026-05-01T15:35:38.999Z</time></trkpt><trkpt lat="44.80180703660392" lon="9.840979078302073"><ele>318.0</ele><time>2026-05-01T15:35:40.999Z</time></trkpt><trkpt lat="44.80188097371678" lon="9.841007809722683"><ele>316.8333333333333</ele><time>2026-05-01T15:35:42.999Z</time></trkpt><trkpt lat="44.80189452281057" lon="9.841101733320723"><ele>315.6666666666667</ele><time>2026-05-01T15:35:45.999Z</time></trkpt><trkpt lat="44.80183383048566" lon="9.841186437146328"><ele>314.5</ele><time>2026-05-01T15:35:47.999Z</time></trkpt><trkpt lat="44.80176438484175" lon="9.841215425097298"><ele>313.33333333333337</ele><time>2026-05-01T15:35:48.999Z</time></trkpt><trkpt lat="44.801676606055224" lon="9.841266227800197"><ele>312.1666666666667</ele><time>2026-05-01T15:35:49.999Z</time></trkpt><trkpt lat="44.80158204024023" lon="9.841300136408856"><ele>311.0</ele><time>2026-05-01T15:35:51.999Z</time></trkpt><trkpt lat="44.80148029475833" lon="9.841355918803044"><ele>309.6</ele><time>2026-05-01T15:35:53.999Z</time></trkpt><trkpt lat="44.80136438281202" lon="9.841436713935124"><ele>308.20000000000005</ele><time>2026-05-01T15:35:56.999Z</time></trkpt><trkpt lat="44.801287253385745" lon="9.841508943189426"><ele>306.79999999999995</ele><time>2026-05-01T15:35:57.999Z</time></trkpt><trkpt lat="44.80123112017757" lon="9.841607996810449"><ele>305.4</ele><time>2026-05-01T15:35:58.999Z</time></trkpt><trkpt lat="44.80116696080765" lon="9.841683991459725"><ele>304.0</ele><time>2026-05-01T15:36:00Z</time></trkpt><trkpt lat="44.80110542888841" lon="9.841762445904633"><ele>302.8</ele><time>2026-05-01T15:36:01Z</time></trkpt><trkpt lat="44.801056488592984" lon="9.841845595495283"><ele>301.59999999999997</ele><time>2026-05-01T15:36:02Z</time></trkpt><trkpt lat="44.80103650840012" lon="9.842034529504906"><ele>300.4</ele><time>2026-05-01T15:36:03Z</time></trkpt><trkpt lat="44.80098613335446" lon="9.84213148290198"><ele>299.2</ele><time>2026-05-01T15:36:04Z</time></trkpt><trkpt lat="44.80092398891071" lon="9.84223313817514"><ele>298.0</ele><time>2026-05-01T15:36:10Z</time></trkpt><trkpt lat="44.800865619550585" lon="9.842310192559287"><ele>298.0</ele><time>2026-05-01T15:36:12Z</time></trkpt><trkpt lat="44.80081328684937" lon="9.842366019775541"><ele>298.0</ele><time>2026-05-01T15:36:14Z</time></trkpt><trkpt lat="44.800792939854254" lon="9.84245280275077"><ele>298.0</ele><time>2026-05-01T15:36:18Z</time></trkpt><trkpt lat="44.80078018541132" lon="9.842540361085822"><ele>298.0</ele><time>2026-05-01T15:36:20Z</time></trkpt><trkpt lat="44.800718270807685" lon="9.842608268262966"><ele>298.0</ele><time>2026-05-01T15:36:22Z</time></trkpt><trkpt lat="44.80064881099637" lon="9.84264129419954"><ele>298.0</ele><time>2026-05-01T15:36:24Z</time></trkpt><trkpt lat="44.80060445260327" lon="9.842738747688992"><ele>298.0</ele><time>2026-05-01T15:36:26Z</time></trkpt><trkpt lat="44.80061042380706" lon="9.842900402793376"><ele>299.6</ele><time>2026-05-01T15:36:28Z</time></trkpt><trkpt lat="44.80061156424184" lon="9.843051031243693"><ele>301.20000000000005</ele><time>2026-05-01T15:36:30Z</time></trkpt><trkpt lat="44.80062728061743" lon="9.84319620133086"><ele>302.8</ele><time>2026-05-01T15:36:32Z</time></trkpt><trkpt lat="44.80065668370398" lon="9.843329670907535"><ele>304.40000000000003</ele><time>2026-05-01T15:36:33Z</time></trkpt><trkpt lat="44.800690471447794" lon="9.843412342595887"><ele>306.0</ele><time>2026-05-01T15:36:34Z</time></trkpt><trkpt lat="44.80075494220826" lon="9.84354104450634"><ele>308.1666666666667</ele><time>2026-05-01T15:36:36Z</time></trkpt><trkpt lat="44.80074407733594" lon="9.843636311031302"><ele>310.3333333333333</ele><time>2026-05-01T15:36:37Z</time></trkpt><trkpt lat="44.800741790732" lon="9.843729062726288"><ele>312.5</ele><time>2026-05-01T15:36:38Z</time></trkpt><trkpt lat="44.800728201847534" lon="9.843878261667603"><ele>314.66666666666663</ele><time>2026-05-01T15:36:39Z</time></trkpt><trkpt lat="44.80080003736946" lon="9.843915332338655"><ele>316.8333333333333</ele><time>2026-05-01T15:36:40Z</time></trkpt><trkpt lat="44.800868142232815" lon="9.844003839434698"><ele>319.0</ele><time>2026-05-01T15:36:41Z</time></trkpt><trkpt lat="44.8009321784044" lon="9.84406027146805"><ele>319.0</ele><time>2026-05-01T15:36:42Z</time></trkpt><trkpt lat="44.800986467656486" lon="9.844114924361014"><ele>319.0</ele><time>2026-05-01T15:36:43Z</time></trkpt><trkpt lat="44.80111693029453" lon="9.844175439368179"><ele>319.0</ele><time>2026-05-01T15:36:45Z</time></trkpt><trkpt lat="44.80120529810955" lon="9.844194191280888"><ele>319.0</ele><time>2026-05-01T15:36:46Z</time></trkpt><trkpt lat="44.801319657793094" lon="9.844235256542374"><ele>319.0</ele><time>2026-05-01T15:36:47Z</time></trkpt><trkpt lat="44.80139199690111" lon="9.844259538330803"><ele>318.8</ele><time>2026-05-01T15:36:49Z</time></trkpt><trkpt lat="44.80142738655523" lon="9.844355500772686"><ele>318.59999999999997</ele><time>2026-05-01T15:36:51Z</time></trkpt><trkpt lat="44.801419748228874" lon="9.844512344392648"><ele>318.4</ele><time>2026-05-01T15:36:53Z</time></trkpt><trkpt lat="44.801378953426635" lon="9.844642696187632"><ele>318.2</ele><time>2026-05-01T15:36:55Z</time></trkpt><trkpt lat="44.80138644648782" lon="9.84473282108679"><ele>318.0</ele><time>2026-05-01T15:36:56Z</time></trkpt><trkpt lat="44.801390593230565" lon="9.844874090181639"><ele>318.0</ele><time>2026-05-01T15:36:57Z</time></trkpt><trkpt lat="44.801387121967004" lon="9.844996624892303"><ele>318.0</ele><time>2026-05-01T15:36:58Z</time></trkpt><trkpt lat="44.801361404180405" lon="9.845084495623478"><ele>318.0</ele><time>2026-05-01T15:36:59Z</time></trkpt><trkpt lat="44.8013257152272" lon="9.845175812600509"><ele>318.0</ele><time>2026-05-01T15:37:00Z</time></trkpt><trkpt lat="44.801275432906706" lon="9.845290360762732"><ele>318.0</ele><time>2026-05-01T15:37:01Z</time></trkpt><trkpt lat="44.80122154708751" lon="9.845413135277825"><ele>318.0</ele><time>2026-05-01T15:37:02Z</time></trkpt><trkpt lat="44.80118719335401" lon="9.845510878756073"><ele>319.0</ele><time>2026-05-01T15:37:03Z</time></trkpt><trkpt lat="44.80106908034086" lon="9.845588817578925"><ele>320.0</ele><time>2026-05-01T15:37:05Z</time></trkpt><trkpt lat="44.80103554899294" lon="9.845673601156571"><ele>321.0</ele><time>2026-05-01T15:37:06Z</time></trkpt><trkpt lat="44.800956165005566" lon="9.84571479095408"><ele>322.0</ele><time>2026-05-01T15:37:07Z</time></trkpt><trkpt lat="44.8008961900171" lon="9.84574742957715"><ele>323.0</ele><time>2026-05-01T15:37:08Z</time></trkpt><trkpt lat="44.80082810932816" lon="9.845774754222711"><ele>324.0</ele><time>2026-05-01T15:37:10Z</time></trkpt><trkpt lat="44.80072944554392" lon="9.845763536742245"><ele>326.4</ele><time>2026-05-01T15:37:12Z</time></trkpt><trkpt lat="44.800655086861575" lon="9.845768392419304"><ele>328.79999999999995</ele><time>2026-05-01T15:37:14Z</time></trkpt><trkpt lat="44.80056501644072" lon="9.845895679008406"><ele>331.20000000000005</ele><time>2026-05-01T15:37:16Z</time></trkpt><trkpt lat="44.8004534822182" lon="9.845864288648393"><ele>333.6</ele><time>2026-05-01T15:37:17Z</time></trkpt><trkpt lat="44.800368108284246" lon="9.845935800573299"><ele>336.0</ele><time>2026-05-01T15:37:18Z</time></trkpt><trkpt lat="44.800279825381274" lon="9.846008846703809"><ele>336.1666666666667</ele><time>2026-05-01T15:37:19Z</time></trkpt><trkpt lat="44.800204560128684" lon="9.846055947941572"><ele>336.3333333333333</ele><time>2026-05-01T15:37:20Z</time></trkpt><trkpt lat="44.80015476063802" lon="9.846112173506977"><ele>336.5</ele><time>2026-05-01T15:37:21Z</time></trkpt><trkpt lat="44.80007820729258" lon="9.846186839267105"><ele>336.66666666666663</ele><time>2026-05-01T15:37:23Z</time></trkpt><trkpt lat="44.79999947327015" lon="9.846217961340987"><ele>336.8333333333333</ele><time>2026-05-01T15:37:25Z</time></trkpt><trkpt lat="44.799884530652946" lon="9.846237104980617"><ele>337.0</ele><time>2026-05-01T15:37:27Z</time></trkpt><trkpt lat="44.79982577109879" lon="9.846280940325903"><ele>338.0</ele><time>2026-05-01T15:37:28Z</time></trkpt><trkpt lat="44.7997522553188" lon="9.846356248645138"><ele>339.0</ele><time>2026-05-01T15:37:30Z</time></trkpt><trkpt lat="44.799704163039515" lon="9.846428403899193"><ele>340.0</ele><time>2026-05-01T15:37:31Z</time></trkpt><trkpt lat="44.799664431249276" lon="9.846518069399538"><ele>341.0</ele><time>2026-05-01T15:37:32Z</time></trkpt><trkpt lat="44.79961913304609" lon="9.84661009979553"><ele>342.0</ele><time>2026-05-01T15:37:33Z</time></trkpt><trkpt lat="44.79958633090339" lon="9.846689636790419"><ele>343.0</ele><time>2026-05-01T15:37:34Z</time></trkpt><trkpt lat="44.799540135444474" lon="9.846849502802106"><ele>343.0</ele><time>2026-05-01T15:37:36Z</time></trkpt><trkpt lat="44.79949998580445" lon="9.846950560659689"><ele>343.0</ele><time>2026-05-01T15:37:38Z</time></trkpt><trkpt lat="44.799424909541806" lon="9.8469142193743"><ele>343.0</ele><time>2026-05-01T15:37:40Z</time></trkpt><trkpt lat="44.79933340045584" lon="9.846811370720646"><ele>343.0</ele><time>2026-05-01T15:37:42Z</time></trkpt><trkpt lat="44.79926361629895" lon="9.84677073261932"><ele>343.0</ele><time>2026-05-01T15:37:43Z</time></trkpt><trkpt lat="44.79915413491337" lon="9.84679401020827"><ele>347.25</ele><time>2026-05-01T15:37:45Z</time></trkpt><trkpt lat="44.79908610528729" lon="9.846709916262178"><ele>351.5</ele><time>2026-05-01T15:37:47Z</time></trkpt><trkpt lat="44.79891063502776" lon="9.84688453971268"><ele>355.75</ele><time>2026-05-01T15:37:48Z</time></trkpt><trkpt lat="44.79883252199852" lon="9.846895393116712"><ele>360.0</ele><time>2026-05-01T15:37:49Z</time></trkpt><trkpt lat="44.798698760045006" lon="9.84685554460862"><ele>360.0</ele><time>2026-05-01T15:37:51Z</time></trkpt><trkpt lat="44.79862018563589" lon="9.84682741177218"><ele>360.0</ele><time>2026-05-01T15:37:52Z</time></trkpt><trkpt lat="44.79854461332537" lon="9.846810000117603"><ele>360.0</ele><time>2026-05-01T15:37:53Z</time></trkpt><trkpt lat="44.798457966312036" lon="9.846881184804346"><ele>360.0</ele><time>2026-05-01T15:37:55Z</time></trkpt><trkpt lat="44.79841690813976" lon="9.846956505481906"><ele>360.0</ele><time>2026-05-01T15:37:56Z</time></trkpt><trkpt lat="44.7983628399837" lon="9.847029600082648"><ele>360.0</ele><time>2026-05-01T15:37:57Z</time></trkpt><trkpt lat="44.798284196228664" lon="9.847100829746651"><ele>364.3333333333333</ele><time>2026-05-01T15:37:59Z</time></trkpt><trkpt lat="44.798190486548684" lon="9.847122195928343"><ele>368.66666666666663</ele><time>2026-05-01T15:38:01Z</time></trkpt><trkpt lat="44.7981030422993" lon="9.847137734207209"><ele>373.0</ele><time>2026-05-01T15:38:02Z</time></trkpt><trkpt lat="44.79803063763559" lon="9.847140620568329"><ele>377.3333333333333</ele><time>2026-05-01T15:38:03Z</time></trkpt><trkpt lat="44.797958740594154" lon="9.847126292366523"><ele>381.66666666666663</ele><time>2026-05-01T15:38:04Z</time></trkpt><trkpt lat="44.797886227097855" lon="9.847102583453873"><ele>386.0</ele><time>2026-05-01T15:38:05Z</time></trkpt><trkpt lat="44.79780833705563" lon="9.847077436709652"><ele>385.99999999999994</ele><time>2026-05-01T15:38:06Z</time></trkpt><trkpt lat="44.79771917494384" lon="9.847062244406795"><ele>386.0</ele><time>2026-05-01T15:38:08Z</time></trkpt><trkpt lat="44.79764429099817" lon="9.847162020424944"><ele>386.0</ele><time>2026-05-01T15:38:10Z</time></trkpt><trkpt lat="44.7975902991253" lon="9.847228748327923"><ele>386.0</ele><time>2026-05-01T15:38:11Z</time></trkpt><trkpt lat="44.797547122271205" lon="9.847305424656724"><ele>385.99999999999994</ele><time>2026-05-01T15:38:12Z</time></trkpt><trkpt lat="44.7975096399202" lon="9.847392111224751"><ele>386.0</ele><time>2026-05-01T15:38:13Z</time></trkpt><trkpt lat="44.79747274269032" lon="9.847472138877665"><ele>390.20000000000005</ele><time>2026-05-01T15:38:14Z</time></trkpt><trkpt lat="44.79744052424737" lon="9.847551368325643"><ele>394.40000000000003</ele><time>2026-05-01T15:38:15Z</time></trkpt><trkpt lat="44.79742174732553" lon="9.847724564719313"><ele>398.6</ele><time>2026-05-01T15:38:17Z</time></trkpt><trkpt lat="44.79732694272226" lon="9.847801666718123"><ele>402.8</ele><time>2026-05-01T15:38:19Z</time></trkpt><trkpt lat="44.79721164685272" lon="9.847886146359894"><ele>407.0</ele><time>2026-05-01T15:38:21Z</time></trkpt><trkpt lat="44.797082779488434" lon="9.847915404981888"><ele>406.99999999999994</ele><time>2026-05-01T15:38:23Z</time></trkpt><trkpt lat="44.79701956181664" lon="9.847877834047601"><ele>407.0</ele><time>2026-05-01T15:38:24Z</time></trkpt><trkpt lat="44.79693400400036" lon="9.847852336465563"><ele>407.0</ele><time>2026-05-01T15:38:25Z</time></trkpt><trkpt lat="44.79681968327358" lon="9.847894799235318"><ele>407.0</ele><time>2026-05-01T15:38:27Z</time></trkpt><trkpt lat="44.796759461589" lon="9.847927676966362"><ele>406.99999999999994</ele><time>2026-05-01T15:38:28Z</time></trkpt><trkpt lat="44.79667283625892" lon="9.84797556537297"><ele>407.0</ele><time>2026-05-01T15:38:29Z</time></trkpt><trkpt lat="44.79659222912255" lon="9.848016693607093"><ele>411.6</ele><time>2026-05-01T15:38:30Z</time></trkpt><trkpt lat="44.79652520223776" lon="9.848055742027219"><ele>416.20000000000005</ele><time>2026-05-01T15:38:31Z</time></trkpt><trkpt lat="44.79643575598039" lon="9.84814923404519"><ele>420.8</ele><time>2026-05-01T15:38:33Z</time></trkpt><trkpt lat="44.7963206078581" lon="9.84816178933773"><ele>425.4</ele><time>2026-05-01T15:38:35Z</time></trkpt><trkpt lat="44.796252746544695" lon="9.84818158235791"><ele>430.0</ele><time>2026-05-01T15:38:36Z</time></trkpt><trkpt lat="44.796160116831715" lon="9.848246982021559"><ele>430.0</ele><time>2026-05-01T15:38:38Z</time></trkpt><trkpt lat="44.79610904140775" lon="9.84832604094837"><ele>430.0</ele><time>2026-05-01T15:38:40Z</time></trkpt><trkpt lat="44.796029106170735" lon="9.848421056849597"><ele>430.0</ele><time>2026-05-01T15:38:42Z</time></trkpt><trkpt lat="44.79596783274238" lon="9.84850746991584"><ele>430.0</ele><time>2026-05-01T15:38:44Z</time></trkpt><trkpt lat="44.79590692277415" lon="9.848590369400169"><ele>430.0</ele><time>2026-05-01T15:38:46Z</time></trkpt><trkpt lat="44.79583367413671" lon="9.848700869491932"><ele>433.1666666666667</ele><time>2026-05-01T15:38:48Z</time></trkpt><trkpt lat="44.79578633228068" lon="9.848786817807103"><ele>436.33333333333337</ele><time>2026-05-01T15:38:49Z</time></trkpt><trkpt lat="44.79576486052991" lon="9.848873277439901"><ele>439.5</ele><time>2026-05-01T15:38:51Z</time></trkpt><trkpt lat="44.795740176652416" lon="9.849023747316627"><ele>442.66666666666663</ele><time>2026-05-01T15:38:53Z</time></trkpt><trkpt lat="44.79571128765427" lon="9.849113251063295"><ele>445.8333333333333</ele><time>2026-05-01T15:38:54Z</time></trkpt><trkpt lat="44.795686387661746" lon="9.849229948880708"><ele>449.0</ele><time>2026-05-01T15:38:55Z</time></trkpt><trkpt lat="44.79567540015886" lon="9.849328606719112"><ele>449.66666666666663</ele><time>2026-05-01T15:38:56Z</time></trkpt><trkpt lat="44.79564737136983" lon="9.849419793024001"><ele>450.3333333333333</ele><time>2026-05-01T15:38:57Z</time></trkpt><trkpt lat="44.79560459008105" lon="9.849495525284517"><ele>451.0</ele><time>2026-05-01T15:38:58Z</time></trkpt><trkpt lat="44.79556933209091" lon="9.849584515715744"><ele>451.66666666666663</ele><time>2026-05-01T15:38:59Z</time></trkpt><trkpt lat="44.79547628607365" lon="9.84970270472716"><ele>452.3333333333333</ele><time>2026-05-01T15:39:01Z</time></trkpt><trkpt lat="44.79542829268292" lon="9.84976575522696"><ele>453.0</ele><time>2026-05-01T15:39:02Z</time></trkpt><trkpt lat="44.79544205444245" lon="9.849914958836909"><ele>453.0</ele><time>2026-05-01T15:39:03Z</time></trkpt><trkpt lat="44.795424172889405" lon="9.850036264645414"><ele>452.99999999999994</ele><time>2026-05-01T15:39:04Z</time></trkpt><trkpt lat="44.795373435101254" lon="9.850154500865429"><ele>452.99999999999994</ele><time>2026-05-01T15:39:05Z</time></trkpt><trkpt lat="44.79533325418885" lon="9.850260901673543"><ele>453.0</ele><time>2026-05-01T15:39:06Z</time></trkpt><trkpt lat="44.79528814996763" lon="9.85038137320297"><ele>453.0</ele><time>2026-05-01T15:39:07Z</time></trkpt><trkpt lat="44.795235257789585" lon="9.85050775475512"><ele>453.0</ele><time>2026-05-01T15:39:08Z</time></trkpt><trkpt lat="44.79518310895714" lon="9.850606647113118"><ele>453.0</ele><time>2026-05-01T15:39:09Z</time></trkpt><trkpt lat="44.79512927841323" lon="9.850700745822296"><ele>453.0</ele><time>2026-05-01T15:39:10Z</time></trkpt><trkpt lat="44.79507669051793" lon="9.850800359739186"><ele>453.0</ele><time>2026-05-01T15:39:11Z</time></trkpt><trkpt lat="44.79504262362408" lon="9.850910029189022"><ele>453.0</ele><time>2026-05-01T15:39:12Z</time></trkpt><trkpt lat="44.795017885279584" lon="9.851010468712024"><ele>453.0</ele><time>2026-05-01T15:39:13Z</time></trkpt><trkpt lat="44.7949859955888" lon="9.851122180370659"><ele>456.8333333333333</ele><time>2026-05-01T15:39:14Z</time></trkpt><trkpt lat="44.79496133725865" lon="9.851233775172446"><ele>460.66666666666663</ele><time>2026-05-01T15:39:15Z</time></trkpt><trkpt lat="44.79492798233646" lon="9.851334588802684"><ele>464.5</ele><time>2026-05-01T15:39:16Z</time></trkpt><trkpt lat="44.794893070626124" lon="9.851424733343736"><ele>468.3333333333333</ele><time>2026-05-01T15:39:17Z</time></trkpt><trkpt lat="44.794853606688605" lon="9.851524109494635"><ele>472.16666666666663</ele><time>2026-05-01T15:39:18Z</time></trkpt><trkpt lat="44.79481688667453" lon="9.851622378804095"><ele>476.0</ele><time>2026-05-01T15:39:19Z</time></trkpt><trkpt lat="44.79478378373665" lon="9.85171205557035"><ele>475.99999999999994</ele><time>2026-05-01T15:39:20Z</time></trkpt><trkpt lat="44.79474637561701" lon="9.851789702937646"><ele>476.0</ele><time>2026-05-01T15:39:21Z</time></trkpt><trkpt lat="44.79470967856636" lon="9.851875505284248"><ele>476.0</ele><time>2026-05-01T15:39:22Z</time></trkpt><trkpt lat="44.794678741811296" lon="9.851970296328023"><ele>476.0</ele><time>2026-05-01T15:39:23Z</time></trkpt><trkpt lat="44.79464694324303" lon="9.852067684388947"><ele>475.99999999999994</ele><time>2026-05-01T15:39:24Z</time></trkpt><trkpt lat="44.79461171532722" lon="9.852176779825534"><ele>476.0</ele><time>2026-05-01T15:39:25Z</time></trkpt><trkpt lat="44.794581830750616" lon="9.852281311998963"><ele>476.66666666666663</ele><time>2026-05-01T15:39:26Z</time></trkpt><trkpt lat="44.794536845836646" lon="9.85238221914279"><ele>477.3333333333333</ele><time>2026-05-01T15:39:27Z</time></trkpt><trkpt lat="44.79450388328477" lon="9.852502894647746"><ele>478.0</ele><time>2026-05-01T15:39:28Z</time></trkpt><trkpt lat="44.794485937498806" lon="9.852625703805863"><ele>478.66666666666663</ele><time>2026-05-01T15:39:29Z</time></trkpt><trkpt lat="44.794434488181906" lon="9.852734476525212"><ele>479.3333333333333</ele><time>2026-05-01T15:39:30Z</time></trkpt><trkpt lat="44.79439813615788" lon="9.852841160083262"><ele>480.0</ele><time>2026-05-01T15:39:31Z</time></trkpt><trkpt lat="44.79436053466491" lon="9.852950309011188"><ele>482.6666666666667</ele><time>2026-05-01T15:39:32Z</time></trkpt><trkpt lat="44.794326083320904" lon="9.853053355731205"><ele>485.33333333333337</ele><time>2026-05-01T15:39:33Z</time></trkpt><trkpt lat="44.794294391492876" lon="9.853148148516379"><ele>488.0</ele><time>2026-05-01T15:39:34Z</time></trkpt><trkpt lat="44.79426377706358" lon="9.853239401320266"><ele>490.6666666666667</ele><time>2026-05-01T15:39:35Z</time></trkpt><trkpt lat="44.79423003824301" lon="9.853331925749943"><ele>493.33333333333337</ele><time>2026-05-01T15:39:36Z</time></trkpt><trkpt lat="44.79419925372475" lon="9.853416348418147"><ele>496.0</ele><time>2026-05-01T15:39:37Z</time></trkpt><trkpt lat="44.79414972719021" lon="9.853545263261292"><ele>496.1666666666667</ele><time>2026-05-01T15:39:39Z</time></trkpt><trkpt lat="44.794085374422544" lon="9.853636822671444"><ele>496.33333333333337</ele><time>2026-05-01T15:39:41Z</time></trkpt><trkpt lat="44.794043956370935" lon="9.853722936484603"><ele>496.5</ele><time>2026-05-01T15:39:43Z</time></trkpt><trkpt lat="44.794049017606035" lon="9.853828749403908"><ele>496.66666666666663</ele><time>2026-05-01T15:39:46Z</time></trkpt><trkpt lat="44.79410521433211" lon="9.853877555609454"><ele>496.8333333333333</ele><time>2026-05-01T15:39:49Z</time></trkpt><trkpt lat="44.79417505747259" lon="9.853920195727914"><ele>497.0</ele><time>2026-05-01T15:39:51Z</time></trkpt><trkpt lat="44.79423279320203" lon="9.85397792733887"><ele>497.0</ele><time>2026-05-01T15:39:52Z</time></trkpt><trkpt lat="44.794303733150564" lon="9.854050925540841"><ele>497.00000000000006</ele><time>2026-05-01T15:39:53Z</time></trkpt><trkpt lat="44.79437068753075" lon="9.85411941783681"><ele>497.00000000000006</ele><time>2026-05-01T15:39:54Z</time></trkpt><trkpt lat="44.79442576462136" lon="9.854173330281624"><ele>497.0</ele><time>2026-05-01T15:39:55Z</time></trkpt><trkpt lat="44.79454325885011" lon="9.854260900384645"><ele>497.0</ele><time>2026-05-01T15:39:57Z</time></trkpt><trkpt lat="44.794651761493355" lon="9.854352570579419"><ele>494.6</ele><time>2026-05-01T15:39:59Z</time></trkpt><trkpt lat="44.7947511859197" lon="9.854410945359417"><ele>492.20000000000005</ele><time>2026-05-01T15:40:01Z</time></trkpt><trkpt lat="44.79484282244128" lon="9.854451157528414"><ele>489.8</ele><time>2026-05-01T15:40:03Z</time></trkpt><trkpt lat="44.794945135675846" lon="9.854494717002536"><ele>487.4</ele><time>2026-05-01T15:40:05Z</time></trkpt><trkpt lat="44.79504091744315" lon="9.854536556049606"><ele>485.0</ele><time>2026-05-01T15:40:07Z</time></trkpt><trkpt lat="44.795129322034825" lon="9.854668546508606"><ele>483.66666666666663</ele><time>2026-05-01T15:40:09Z</time></trkpt><trkpt lat="44.795180529085535" lon="9.854723096392531"><ele>482.3333333333333</ele><time>2026-05-01T15:40:10Z</time></trkpt><trkpt lat="44.795236165001526" lon="9.854799475497053"><ele>481.0</ele><time>2026-05-01T15:40:11Z</time></trkpt><trkpt lat="44.795314819317575" lon="9.85491622153221"><ele>479.66666666666663</ele><time>2026-05-01T15:40:12Z</time></trkpt><trkpt lat="44.79536907888673" lon="9.855019770543514"><ele>478.3333333333333</ele><time>2026-05-01T15:40:13Z</time></trkpt><trkpt lat="44.79540684842206" lon="9.855093207232207"><ele>477.0</ele><time>2026-05-01T15:40:14Z</time></trkpt><trkpt lat="44.79547052742092" lon="9.855178072640387"><ele>476.40000000000003</ele><time>2026-05-01T15:40:16Z</time></trkpt><trkpt lat="44.795553662528384" lon="9.855199485561261"><ele>475.80000000000007</ele><time>2026-05-01T15:40:17Z</time></trkpt><trkpt lat="44.79567988191531" lon="9.855233818451193"><ele>475.2</ele><time>2026-05-01T15:40:18Z</time></trkpt><trkpt lat="44.79579373430031" lon="9.855287542444632"><ele>474.6</ele><time>2026-05-01T15:40:19Z</time></trkpt><trkpt lat="44.79588409532293" lon="9.855335394621475"><ele>474.0</ele><time>2026-05-01T15:40:20Z</time></trkpt><trkpt lat="44.79601370132928" lon="9.855394691924165"><ele>472.5</ele><time>2026-05-01T15:40:21Z</time></trkpt><trkpt lat="44.79615876503536" lon="9.855478980291254"><ele>471.0</ele><time>2026-05-01T15:40:22Z</time></trkpt><trkpt lat="44.796264563307844" lon="9.855536726381004"><ele>469.5</ele><time>2026-05-01T15:40:23Z</time></trkpt><trkpt lat="44.79635372094643" lon="9.855594369936"><ele>468.0</ele><time>2026-05-01T15:40:24Z</time></trkpt><trkpt lat="44.79644138417548" lon="9.85564927261148"><ele>468.0</ele><time>2026-05-01T15:40:25Z</time></trkpt><trkpt lat="44.79653750117932" lon="9.85572651033123"><ele>468.0</ele><time>2026-05-01T15:40:27Z</time></trkpt><trkpt lat="44.79658528040148" lon="9.855814648666794"><ele>468.0</ele><time>2026-05-01T15:40:28Z</time></trkpt><trkpt lat="44.79663118993835" lon="9.855901609456593"><ele>468.0</ele><time>2026-05-01T15:40:29Z</time></trkpt><trkpt lat="44.79667048634943" lon="9.855982251523171"><ele>468.0</ele><time>2026-05-01T15:40:30Z</time></trkpt><trkpt lat="44.79670374312797" lon="9.856061144590477"><ele>468.0</ele><time>2026-05-01T15:40:31Z</time></trkpt><trkpt lat="44.79674147663907" lon="9.856138776988667"><ele>466.1666666666667</ele><time>2026-05-01T15:40:32Z</time></trkpt><trkpt lat="44.796794977346764" lon="9.856204772036266"><ele>464.33333333333337</ele><time>2026-05-01T15:40:33Z</time></trkpt><trkpt lat="44.79685061158134" lon="9.85627207629013"><ele>462.5</ele><time>2026-05-01T15:40:34Z</time></trkpt><trkpt lat="44.79690896708038" lon="9.856334412346207"><ele>460.6666666666667</ele><time>2026-05-01T15:40:35Z</time></trkpt><trkpt lat="44.79696393195898" lon="9.856391249843083"><ele>458.83333333333337</ele><time>2026-05-01T15:40:36Z</time></trkpt><trkpt lat="44.79702163029399" lon="9.856444550803081"><ele>457.0</ele><time>2026-05-01T15:40:37Z</time></trkpt><trkpt lat="44.79712530000033" lon="9.856500329872821"><ele>456.00000000000006</ele><time>2026-05-01T15:40:39Z</time></trkpt><trkpt lat="44.79723539370754" lon="9.856525803718938"><ele>455.0</ele><time>2026-05-01T15:40:41Z</time></trkpt><trkpt lat="44.79730502412877" lon="9.856552266744508"><ele>454.0</ele><time>2026-05-01T15:40:42Z</time></trkpt><trkpt lat="44.79737509556211" lon="9.856567405508464"><ele>453.0</ele><time>2026-05-01T15:40:43Z</time></trkpt><trkpt lat="44.79745244031732" lon="9.856572134143407"><ele>452.00000000000006</ele><time>2026-05-01T15:40:44Z</time></trkpt><trkpt lat="44.797539078943586" lon="9.856579240034831"><ele>451.0</ele><time>2026-05-01T15:40:45Z</time></trkpt><trkpt lat="44.79761074048396" lon="9.856613345309079"><ele>448.50000000000006</ele><time>2026-05-01T15:40:46Z</time></trkpt><trkpt lat="44.79769303354263" lon="9.856640935469594"><ele>446.0</ele><time>2026-05-01T15:40:47Z</time></trkpt><trkpt lat="44.79776239356558" lon="9.856667561562661"><ele>443.5</ele><time>2026-05-01T15:40:48Z</time></trkpt><trkpt lat="44.79785516817516" lon="9.85673925095983"><ele>441.0</ele><time>2026-05-01T15:40:50Z</time></trkpt><trkpt lat="44.79789140279449" lon="9.856819330660883"><ele>438.50000000000006</ele><time>2026-05-01T15:40:51Z</time></trkpt><trkpt lat="44.79792969625665" lon="9.856941436010274"><ele>436.0</ele><time>2026-05-01T15:40:52Z</time></trkpt><trkpt lat="44.797974457716705" lon="9.857101879017488"><ele>435.1666666666667</ele><time>2026-05-01T15:40:53Z</time></trkpt><trkpt lat="44.798008457719725" lon="9.857209216860742"><ele>434.33333333333337</ele><time>2026-05-01T15:40:54Z</time></trkpt><trkpt lat="44.79805922101208" lon="9.857323371369441"><ele>433.5</ele><time>2026-05-01T15:40:56Z</time></trkpt><trkpt lat="44.798079594274114" lon="9.857432663607195"><ele>432.66666666666663</ele><time>2026-05-01T15:40:58Z</time></trkpt><trkpt lat="44.79808773861156" lon="9.857551744690701"><ele>431.8333333333333</ele><time>2026-05-01T15:41:00Z</time></trkpt><trkpt lat="44.798158362578036" lon="9.857610889725697"><ele>431.0</ele><time>2026-05-01T15:41:03Z</time></trkpt><trkpt lat="44.798238633240935" lon="9.857603426690691"><ele>430.99999999999994</ele><time>2026-05-01T15:41:05Z</time></trkpt><trkpt lat="44.79834861623551" lon="9.85754155776203"><ele>431.0</ele><time>2026-05-01T15:41:07Z</time></trkpt><trkpt lat="44.79843366016295" lon="9.857507412501041"><ele>431.0</ele><time>2026-05-01T15:41:08Z</time></trkpt><trkpt lat="44.79850551208044" lon="9.857487756696393"><ele>431.0</ele><time>2026-05-01T15:41:09Z</time></trkpt><trkpt lat="44.79857789932941" lon="9.85747944658682"><ele>430.99999999999994</ele><time>2026-05-01T15:41:10Z</time></trkpt><trkpt lat="44.798647056730566" lon="9.857494555088957"><ele>431.0</ele><time>2026-05-01T15:41:11Z</time></trkpt><trkpt lat="44.79874986010894" lon="9.857638214730917"><ele>429.66666666666663</ele><time>2026-05-01T15:41:13Z</time></trkpt><trkpt lat="44.79878787969689" lon="9.857748458113567"><ele>428.3333333333333</ele><time>2026-05-01T15:41:14Z</time></trkpt><trkpt lat="44.79880702219419" lon="9.85783897885686"><ele>427.0</ele><time>2026-05-01T15:41:15Z</time></trkpt><trkpt lat="44.79889246764185" lon="9.857898432528144"><ele>425.66666666666663</ele><time>2026-05-01T15:41:17Z</time></trkpt><trkpt lat="44.79896978453428" lon="9.857909773865023"><ele>424.3333333333333</ele><time>2026-05-01T15:41:18Z</time></trkpt><trkpt lat="44.799066970196506" lon="9.857943561457509"><ele>423.0</ele><time>2026-05-01T15:41:19Z</time></trkpt><trkpt lat="44.799152334314606" lon="9.858008402283714"><ele>423.0</ele><time>2026-05-01T15:41:20Z</time></trkpt><trkpt lat="44.799252617902305" lon="9.858098040023295"><ele>423.0</ele><time>2026-05-01T15:41:21Z</time></trkpt><trkpt lat="44.79935211688201" lon="9.858166020076458"><ele>423.0</ele><time>2026-05-01T15:41:22Z</time></trkpt><trkpt lat="44.799423006097804" lon="9.85817223716955"><ele>423.0</ele><time>2026-05-01T15:41:25Z</time></trkpt><trkpt lat="44.799509119196685" lon="9.858190559976688"><ele>423.0</ele><time>2026-05-01T15:41:27Z</time></trkpt><trkpt lat="44.79959699936112" lon="9.858229222123839"><ele>422.0</ele><time>2026-05-01T15:41:29Z</time></trkpt><trkpt lat="44.79968846202592" lon="9.858289799833706"><ele>421.0</ele><time>2026-05-01T15:41:31Z</time></trkpt><trkpt lat="44.799778082807734" lon="9.85840031277442"><ele>420.0</ele><time>2026-05-01T15:41:33Z</time></trkpt><trkpt lat="44.79982590360845" lon="9.858498196852716"><ele>419.0</ele><time>2026-05-01T15:41:34Z</time></trkpt><trkpt lat="44.79987889954375" lon="9.858590688916838"><ele>418.0</ele><time>2026-05-01T15:41:36Z</time></trkpt><trkpt lat="44.800008937588466" lon="9.858557724706865"><ele>417.2</ele><time>2026-05-01T15:41:38Z</time></trkpt><trkpt lat="44.80012018521237" lon="9.858548947798491"><ele>416.4</ele><time>2026-05-01T15:41:40Z</time></trkpt><trkpt lat="44.800215490359264" lon="9.85859451198741"><ele>415.59999999999997</ele><time>2026-05-01T15:41:42Z</time></trkpt><trkpt lat="44.800321003095526" lon="9.85864855381147"><ele>414.79999999999995</ele><time>2026-05-01T15:41:44Z</time></trkpt><trkpt lat="44.80038705652215" lon="9.85868789139316"><ele>414.0</ele><time>2026-05-01T15:41:45Z</time></trkpt><trkpt lat="44.80045345681905" lon="9.858719156630812"><ele>412.2</ele><time>2026-05-01T15:41:46Z</time></trkpt><trkpt lat="44.80053176062139" lon="9.85874640362251"><ele>410.4</ele><time>2026-05-01T15:41:47Z</time></trkpt><trkpt lat="44.800598756404426" lon="9.858769165234245"><ele>408.6</ele><time>2026-05-01T15:41:48Z</time></trkpt><trkpt lat="44.800722477197155" lon="9.858748264908925"><ele>406.8</ele><time>2026-05-01T15:41:50Z</time></trkpt><trkpt lat="44.80081435444886" lon="9.858773107145346"><ele>405.0</ele><time>2026-05-01T15:41:51Z</time></trkpt><trkpt lat="44.80093235821201" lon="9.858785729129634"><ele>404.0</ele><time>2026-05-01T15:41:52Z</time></trkpt><trkpt lat="44.80108064525402" lon="9.858813585262572"><ele>403.0</ele><time>2026-05-01T15:41:53Z</time></trkpt><trkpt lat="44.80121388772268" lon="9.858836341732358"><ele>402.0</ele><time>2026-05-01T15:41:54Z</time></trkpt><trkpt lat="44.801305047184684" lon="9.858832349384773"><ele>401.0</ele><time>2026-05-01T15:41:55Z</time></trkpt><trkpt lat="44.80138632786016" lon="9.858835692077912"><ele>400.99999999999994</ele><time>2026-05-01T15:41:57Z</time></trkpt><trkpt lat="44.80147638150709" lon="9.85878941225841"><ele>401.0</ele><time>2026-05-01T15:42:45Z</time></trkpt><trkpt lat="44.80155182559196" lon="9.85877195479889"><ele>401.0</ele><time>2026-05-01T15:42:46Z</time></trkpt><trkpt lat="44.8016340724026" lon="9.858748380218566"><ele>401.0</ele><time>2026-05-01T15:42:47Z</time></trkpt><trkpt lat="44.80171858029061" lon="9.858763280223044"><ele>400.99999999999994</ele><time>2026-05-01T15:42:48Z</time></trkpt><trkpt lat="44.801783655581524" lon="9.858727743154414"><ele>401.0</ele><time>2026-05-01T15:42:49Z</time></trkpt><trkpt lat="44.80185013406931" lon="9.85872467678707"><ele>400.6</ele><time>2026-05-01T15:42:50Z</time></trkpt><trkpt lat="44.80191991591714" lon="9.858719776487577"><ele>400.20000000000005</ele><time>2026-05-01T15:42:51Z</time></trkpt><trkpt lat="44.802044303358265" lon="9.858680342771784"><ele>399.79999999999995</ele><time>2026-05-01T15:42:53Z</time></trkpt><trkpt lat="44.8021588065013" lon="9.858682811930082"><ele>399.4</ele><time>2026-05-01T15:42:55Z</time></trkpt><trkpt lat="44.80221909868561" lon="9.858740619830932"><ele>399.0</ele><time>2026-05-01T15:42:56Z</time></trkpt><trkpt lat="44.80229457952929" lon="9.858776729310573"><ele>399.0</ele><time>2026-05-01T15:42:57Z</time></trkpt><trkpt lat="44.80237447270955" lon="9.858808866800146"><ele>399.0</ele><time>2026-05-01T15:42:58Z</time></trkpt><trkpt lat="44.80245093736393" lon="9.858780724659226"><ele>399.0</ele><time>2026-05-01T15:42:59Z</time></trkpt><trkpt lat="44.802575342254315" lon="9.858801899099195"><ele>399.0</ele><time>2026-05-01T15:43:01Z</time></trkpt><trkpt lat="44.802659954921126" lon="9.858804263175843"><ele>399.0</ele><time>2026-05-01T15:43:02Z</time></trkpt><trkpt lat="44.8027518411515" lon="9.85880246012024"><ele>397.0</ele><time>2026-05-01T15:43:03Z</time></trkpt><trkpt lat="44.80284319239076" lon="9.858790619846612"><ele>395.0</ele><time>2026-05-01T15:43:04Z</time></trkpt><trkpt lat="44.80292944178396" lon="9.858768365725224"><ele>393.0</ele><time>2026-05-01T15:43:05Z</time></trkpt><trkpt lat="44.803021995832175" lon="9.858744569384992"><ele>391.0</ele><time>2026-05-01T15:43:06Z</time></trkpt><trkpt lat="44.803117859230305" lon="9.858719232125443"><ele>389.0</ele><time>2026-05-01T15:43:07Z</time></trkpt><trkpt lat="44.80323440709366" lon="9.858674001671403"><ele>389.0</ele><time>2026-05-01T15:43:08Z</time></trkpt><trkpt lat="44.8033416681356" lon="9.858683923546419"><ele>389.0</ele><time>2026-05-01T15:43:09Z</time></trkpt><trkpt lat="44.803449311242076" lon="9.858681219945664"><ele>389.0</ele><time>2026-05-01T15:43:10Z</time></trkpt><trkpt lat="44.80354233856503" lon="9.858686789608148"><ele>389.0</ele><time>2026-05-01T15:43:11Z</time></trkpt><trkpt lat="44.80362191457605" lon="9.858699770903815"><ele>389.0</ele><time>2026-05-01T15:43:12Z</time></trkpt><trkpt lat="44.80369937299867" lon="9.858717454287303"><ele>387.8333333333333</ele><time>2026-05-01T15:43:13Z</time></trkpt><trkpt lat="44.803778342735384" lon="9.858730609388124"><ele>386.66666666666663</ele><time>2026-05-01T15:43:14Z</time></trkpt><trkpt lat="44.803864032764665" lon="9.85874488398191"><ele>385.5</ele><time>2026-05-01T15:43:15Z</time></trkpt><trkpt lat="44.803956728157516" lon="9.85875776187705"><ele>384.3333333333333</ele><time>2026-05-01T15:43:16Z</time></trkpt><trkpt lat="44.804048554473155" lon="9.858766277456457"><ele>383.16666666666663</ele><time>2026-05-01T15:43:17Z</time></trkpt><trkpt lat="44.804141900172475" lon="9.85878055080187"><ele>382.0</ele><time>2026-05-01T15:43:18Z</time></trkpt><trkpt lat="44.80423474945349" lon="9.858814919919585"><ele>380.5</ele><time>2026-05-01T15:43:19Z</time></trkpt><trkpt lat="44.804342269903415" lon="9.858878302877239"><ele>379.0</ele><time>2026-05-01T15:43:20Z</time></trkpt><trkpt lat="44.804476738323906" lon="9.858953394493291"><ele>377.5</ele><time>2026-05-01T15:43:21Z</time></trkpt><trkpt lat="44.80461499287103" lon="9.859069828197635"><ele>376.0</ele><time>2026-05-01T15:43:22Z</time></trkpt><trkpt lat="44.80471845087412" lon="9.85918755071583"><ele>376.0</ele><time>2026-05-01T15:43:23Z</time></trkpt><trkpt lat="44.80482541840984" lon="9.85926295183209"><ele>376.0</ele><time>2026-05-01T15:43:24Z</time></trkpt><trkpt lat="44.80490091214104" lon="9.859370830905224"><ele>376.0</ele><time>2026-05-01T15:43:25Z</time></trkpt><trkpt lat="44.80498605662025" lon="9.859451045778918"><ele>376.0</ele><time>2026-05-01T15:43:26Z</time></trkpt><trkpt lat="44.8050652754629" lon="9.8595188573678"><ele>376.0</ele><time>2026-05-01T15:43:27Z</time></trkpt><trkpt lat="44.80515871955723" lon="9.859554961294439"><ele>374.8333333333333</ele><time>2026-05-01T15:43:28Z</time></trkpt><trkpt lat="44.80525471614722" lon="9.859615264658636"><ele>373.66666666666663</ele><time>2026-05-01T15:43:29Z</time></trkpt><trkpt lat="44.80535695795697" lon="9.859651685443716"><ele>372.5</ele><time>2026-05-01T15:43:30Z</time></trkpt><trkpt lat="44.80544943207011" lon="9.859669730025411"><ele>371.3333333333333</ele><time>2026-05-01T15:43:31Z</time></trkpt><trkpt lat="44.80551294032037" lon="9.859683026073686"><ele>370.1666666666667</ele><time>2026-05-01T15:43:32Z</time></trkpt><trkpt lat="44.80557857694977" lon="9.859696609058295"><ele>369.0</ele><time>2026-05-01T15:43:33Z</time></trkpt><trkpt lat="44.805696820786885" lon="9.85967763112403"><ele>369.0</ele><time>2026-05-01T15:43:34Z</time></trkpt><trkpt lat="44.8058372675737" lon="9.85972976540893"><ele>369.0</ele><time>2026-05-01T15:43:35Z</time></trkpt><trkpt lat="44.80593220670842" lon="9.85974538587383"><ele>369.0</ele><time>2026-05-01T15:43:36Z</time></trkpt><trkpt lat="44.80602031933116" lon="9.859767345805679"><ele>369.0</ele><time>2026-05-01T15:43:37Z</time></trkpt><trkpt lat="44.80610021270855" lon="9.85980770262906"><ele>369.0</ele><time>2026-05-01T15:43:38Z</time></trkpt><trkpt lat="44.80618581449855" lon="9.859851752212546"><ele>369.25</ele><time>2026-05-01T15:43:39Z</time></trkpt><trkpt lat="44.80628292165283" lon="9.859894159873747"><ele>369.5</ele><time>2026-05-01T15:43:40Z</time></trkpt><trkpt lat="44.80637596104235" lon="9.859973149412774"><ele>369.75</ele><time>2026-05-01T15:43:41Z</time></trkpt><trkpt lat="44.806496285080236" lon="9.860039920072396"><ele>370.0</ele><time>2026-05-01T15:43:42Z</time></trkpt><trkpt lat="44.80662083062" lon="9.860152819921392"><ele>369.25</ele><time>2026-05-01T15:43:43Z</time></trkpt><trkpt lat="44.80676756782259" lon="9.860267854892847"><ele>368.5</ele><time>2026-05-01T15:43:44Z</time></trkpt><trkpt lat="44.80689771241109" lon="9.860338393735825"><ele>367.75</ele><time>2026-05-01T15:43:45Z</time></trkpt><trkpt lat="44.80699944986057" lon="9.860401399554252"><ele>367.0</ele><time>2026-05-01T15:43:46Z</time></trkpt><trkpt lat="44.807090375726816" lon="9.860428413581845"><ele>369.8333333333333</ele><time>2026-05-01T15:43:47Z</time></trkpt><trkpt lat="44.807183500554935" lon="9.860468189867587"><ele>372.66666666666663</ele><time>2026-05-01T15:43:48Z</time></trkpt><trkpt lat="44.807273858477856" lon="9.860481834101828"><ele>375.5</ele><time>2026-05-01T15:43:49Z</time></trkpt><trkpt lat="44.80736345232012" lon="9.860544606249409"><ele>378.3333333333333</ele><time>2026-05-01T15:43:50Z</time></trkpt><trkpt lat="44.80742534041201" lon="9.86059029065176"><ele>381.1666666666667</ele><time>2026-05-01T15:43:51Z</time></trkpt><trkpt lat="44.80746365333557" lon="9.860676905358233"><ele>384.0</ele><time>2026-05-01T15:43:53Z</time></trkpt><trkpt lat="44.80742755767865" lon="9.860791625453215"><ele>384.79999999999995</ele><time>2026-05-01T15:43:55Z</time></trkpt><trkpt lat="44.80746410649846" lon="9.860964443002402"><ele>385.59999999999997</ele><time>2026-05-01T15:43:56Z</time></trkpt><trkpt lat="44.807484497359816" lon="9.861079783026971"><ele>386.4</ele><time>2026-05-01T15:43:57Z</time></trkpt><trkpt lat="44.80749799605993" lon="9.861193144708539"><ele>387.2</ele><time>2026-05-01T15:43:58Z</time></trkpt><trkpt lat="44.807511067768" lon="9.861391921925915"><ele>388.0</ele><time>2026-05-01T15:43:59Z</time></trkpt><trkpt lat="44.8075447379739" lon="9.861488254469538"><ele>388.00000000000006</ele><time>2026-05-01T15:44:00Z</time></trkpt><trkpt lat="44.807543086615034" lon="9.861604802112243"><ele>388.0</ele><time>2026-05-01T15:44:01Z</time></trkpt><trkpt lat="44.80754780456545" lon="9.86169405684272"><ele>388.0</ele><time>2026-05-01T15:44:02Z</time></trkpt><trkpt lat="44.8076111878206" lon="9.861699081217798"><ele>388.0</ele><time>2026-05-01T15:44:03Z</time></trkpt><trkpt lat="44.80774953082246" lon="9.861705122313651"><ele>388.00000000000006</ele><time>2026-05-01T15:44:05Z</time></trkpt><trkpt lat="44.80782133414474" lon="9.861732506433707"><ele>388.0</ele><time>2026-05-01T15:44:06Z</time></trkpt><trkpt lat="44.80785684311462" lon="9.86190328069427"><ele>391.59999999999997</ele><time>2026-05-01T15:44:08Z</time></trkpt><trkpt lat="44.807853174109646" lon="9.861993893640472"><ele>395.2</ele><time>2026-05-01T15:44:09Z</time></trkpt><trkpt lat="44.80783998952818" lon="9.862100846987031"><ele>398.8</ele><time>2026-05-01T15:44:10Z</time></trkpt><trkpt lat="44.80790446498607" lon="9.862281655290756"><ele>402.4</ele><time>2026-05-01T15:44:12Z</time></trkpt><trkpt lat="44.807980492002955" lon="9.86239162553656"><ele>406.0</ele><time>2026-05-01T15:44:13Z</time></trkpt><trkpt lat="44.80804406865975" lon="9.862422183455806"><ele>406.00000000000006</ele><time>2026-05-01T15:44:14Z</time></trkpt><trkpt lat="44.80811270567448" lon="9.862441967263074"><ele>406.0</ele><time>2026-05-01T15:44:15Z</time></trkpt><trkpt lat="44.808179632448464" lon="9.862441663550747"><ele>406.0</ele><time>2026-05-01T15:44:16Z</time></trkpt><trkpt lat="44.808202003778874" lon="9.862590292390479"><ele>406.0</ele><time>2026-05-01T15:44:43.999Z</time></trkpt><trkpt lat="44.80819059620962" lon="9.862708575032316"><ele>406.00000000000006</ele><time>2026-05-01T15:44:44.999Z</time></trkpt><trkpt lat="44.80816977663033" lon="9.862852066974202"><ele>406.0</ele><time>2026-05-01T15:44:45.999Z</time></trkpt><trkpt lat="44.80815121947654" lon="9.863011020532433"><ele>405.4</ele><time>2026-05-01T15:44:46.999Z</time></trkpt><trkpt lat="44.80814681473453" lon="9.86314879206685"><ele>404.8</ele><time>2026-05-01T15:44:47.999Z</time></trkpt><trkpt lat="44.80812785291761" lon="9.863276537798022"><ele>404.2</ele><time>2026-05-01T15:44:48.999Z</time></trkpt><trkpt lat="44.80808607795246" lon="9.863441531455846"><ele>403.59999999999997</ele><time>2026-05-01T15:44:49.999Z</time></trkpt><trkpt lat="44.80804192128926" lon="9.863610837555145"><ele>403.0</ele><time>2026-05-01T15:44:50.999Z</time></trkpt><trkpt lat="44.8080081032185" lon="9.863743244492092"><ele>402.6666666666667</ele><time>2026-05-01T15:44:51.999Z</time></trkpt><trkpt lat="44.807975334517934" lon="9.86385751910486"><ele>402.33333333333337</ele><time>2026-05-01T15:44:52.999Z</time></trkpt><trkpt lat="44.80795341703909" lon="9.863961110625656"><ele>402.0</ele><time>2026-05-01T15:44:53.999Z</time></trkpt><trkpt lat="44.80788977691102" lon="9.864079997241916"><ele>401.66666666666663</ele><time>2026-05-01T15:44:54.999Z</time></trkpt><trkpt lat="44.80782418553513" lon="9.8641928365982"><ele>401.3333333333333</ele><time>2026-05-01T15:44:55.999Z</time></trkpt><trkpt lat="44.80779072745646" lon="9.864286778912717"><ele>401.0</ele><time>2026-05-01T15:44:57.999Z</time></trkpt><trkpt lat="44.807835710382065" lon="9.86442280928659"><ele>400.66666666666663</ele><time>2026-05-01T15:44:59.999Z</time></trkpt><trkpt lat="44.80783195593366" lon="9.864780704260921"><ele>400.33333333333337</ele><time>2026-05-01T15:45:01.999Z</time></trkpt><trkpt lat="44.80784304132726" lon="9.864972639574015"><ele>400.0</ele><time>2026-05-01T15:45:02.999Z</time></trkpt><trkpt lat="44.80786138674948" lon="9.865133020947386"><ele>400.8</ele><time>2026-05-01T15:45:03.999Z</time></trkpt><trkpt lat="44.80790450022185" lon="9.8652669175096"><ele>401.6</ele><time>2026-05-01T15:45:04.999Z</time></trkpt><trkpt lat="44.807942131280335" lon="9.865398318303336"><ele>402.4</ele><time>2026-05-01T15:45:05.999Z</time></trkpt><trkpt lat="44.8079687928413" lon="9.86552704682032"><ele>403.2</ele><time>2026-05-01T15:45:06.999Z</time></trkpt><trkpt lat="44.80798728767852" lon="9.865638186639325"><ele>404.0</ele><time>2026-05-01T15:45:07.999Z</time></trkpt><trkpt lat="44.807994865822494" lon="9.865775607945293"><ele>404.0</ele><time>2026-05-01T15:45:08.999Z</time></trkpt><trkpt lat="44.80800672587773" lon="9.865910829748556"><ele>404.0</ele><time>2026-05-01T15:45:09.999Z</time></trkpt><trkpt lat="44.80801543757863" lon="9.866042228457875"><ele>404.0</ele><time>2026-05-01T15:45:10.999Z</time></trkpt><trkpt lat="44.80802523186122" lon="9.86622589032354"><ele>404.0</ele><time>2026-05-01T15:45:12.999Z</time></trkpt><trkpt lat="44.8080389266118" lon="9.866352222923824"><ele>404.0</ele><time>2026-05-01T15:45:13.999Z</time></trkpt><trkpt lat="44.808063820797955" lon="9.86653341876737"><ele>404.6</ele><time>2026-05-01T15:45:14.999Z</time></trkpt><trkpt lat="44.80809061048276" lon="9.866698631434543"><ele>405.2</ele><time>2026-05-01T15:45:15.999Z</time></trkpt><trkpt lat="44.80811351966414" lon="9.866831666788636"><ele>405.8</ele><time>2026-05-01T15:45:16.999Z</time></trkpt><trkpt lat="44.80811977357843" lon="9.86692538406166"><ele>406.40000000000003</ele><time>2026-05-01T15:45:17.999Z</time></trkpt><trkpt lat="44.80814097910265" lon="9.867112724453369"><ele>407.0</ele><time>2026-05-01T15:45:19.999Z</time></trkpt><trkpt lat="44.808188070381135" lon="9.867223909980902"><ele>406.75</ele><time>2026-05-01T15:45:20.999Z</time></trkpt><trkpt lat="44.80824143498498" lon="9.86739226180358"><ele>406.5</ele><time>2026-05-01T15:45:21.999Z</time></trkpt><trkpt lat="44.80829622469659" lon="9.867586564032464"><ele>406.25</ele><time>2026-05-01T15:45:22.999Z</time></trkpt><trkpt lat="44.808333899619946" lon="9.867716411185352"><ele>406.0</ele><time>2026-05-01T15:45:23.999Z</time></trkpt><trkpt lat="44.808390872024674" lon="9.867859677185997"><ele>406.0</ele><time>2026-05-01T15:45:24.999Z</time></trkpt><trkpt lat="44.8084233075294" lon="9.86798751960173"><ele>406.0</ele><time>2026-05-01T15:45:25.999Z</time></trkpt><trkpt lat="44.80845666899259" lon="9.868103772356491"><ele>406.0</ele><time>2026-05-01T15:45:26.999Z</time></trkpt><trkpt lat="44.80848712811635" lon="9.868254520781047"><ele>406.0</ele><time>2026-05-01T15:45:27.999Z</time></trkpt><trkpt lat="44.808502857336066" lon="9.868397527276239"><ele>406.0</ele><time>2026-05-01T15:45:29Z</time></trkpt><trkpt lat="44.80848893385375" lon="9.868547148797362"><ele>408.20000000000005</ele><time>2026-05-01T15:45:30Z</time></trkpt><trkpt lat="44.8084702433965" lon="9.868643517877834"><ele>410.40000000000003</ele><time>2026-05-01T15:45:31Z</time></trkpt><trkpt lat="44.80840637638302" lon="9.868813523446523"><ele>412.6</ele><time>2026-05-01T15:45:33Z</time></trkpt><trkpt lat="44.808369388134096" lon="9.868901896923598"><ele>414.8</ele><time>2026-05-01T15:45:34Z</time></trkpt><trkpt lat="44.8083203816682" lon="9.869023125213362"><ele>417.0</ele><time>2026-05-01T15:45:35Z</time></trkpt><trkpt lat="44.8082618691412" lon="9.86912990516967"><ele>417.0</ele><time>2026-05-01T15:45:36Z</time></trkpt><trkpt lat="44.80819486819211" lon="9.869222280590693"><ele>417.0</ele><time>2026-05-01T15:45:37Z</time></trkpt><trkpt lat="44.80818482434458" lon="9.869329385400327"><ele>417.0</ele><time>2026-05-01T15:45:38Z</time></trkpt><trkpt lat="44.80815025791519" lon="9.869450852835294"><ele>417.0</ele><time>2026-05-01T15:45:39Z</time></trkpt><trkpt lat="44.80813786864198" lon="9.869558558598506"><ele>417.0</ele><time>2026-05-01T15:45:40Z</time></trkpt><trkpt lat="44.80813133053897" lon="9.86967627003114"><ele>417.0</ele><time>2026-05-01T15:45:41Z</time></trkpt><trkpt lat="44.808119289562114" lon="9.869798675685344"><ele>418.8333333333333</ele><time>2026-05-01T15:45:42Z</time></trkpt><trkpt lat="44.80809802342074" lon="9.869918570083279"><ele>420.66666666666663</ele><time>2026-05-01T15:45:43Z</time></trkpt><trkpt lat="44.8080752790597" lon="9.870035123294734"><ele>422.5</ele><time>2026-05-01T15:45:44Z</time></trkpt><trkpt lat="44.808062307353936" lon="9.870128393820897"><ele>424.3333333333333</ele><time>2026-05-01T15:45:45Z</time></trkpt><trkpt lat="44.80806699751119" lon="9.870223054352953"><ele>426.16666666666663</ele><time>2026-05-01T15:45:46Z</time></trkpt><trkpt lat="44.8080681393963" lon="9.870363904093491"><ele>428.0</ele><time>2026-05-01T15:45:47Z</time></trkpt><trkpt lat="44.80807052662358" lon="9.870510102666634"><ele>427.2</ele><time>2026-05-01T15:45:48Z</time></trkpt><trkpt lat="44.80807467360568" lon="9.87065913435087"><ele>426.4</ele><time>2026-05-01T15:45:49Z</time></trkpt><trkpt lat="44.8080762560548" lon="9.870814867899899"><ele>425.59999999999997</ele><time>2026-05-01T15:45:50Z</time></trkpt><trkpt lat="44.80806447901073" lon="9.870951473145888"><ele>424.79999999999995</ele><time>2026-05-01T15:45:51Z</time></trkpt><trkpt lat="44.808064490358426" lon="9.871076225309393"><ele>424.0</ele><time>2026-05-01T15:45:52Z</time></trkpt><trkpt lat="44.808091708490224" lon="9.871184026785956"><ele>424.0</ele><time>2026-05-01T15:45:53Z</time></trkpt><trkpt lat="44.80812700530867" lon="9.871293227231021"><ele>424.0</ele><time>2026-05-01T15:45:54Z</time></trkpt><trkpt lat="44.80812456928589" lon="9.871429570417995"><ele>424.0</ele><time>2026-05-01T15:45:56Z</time></trkpt><trkpt lat="44.80814038597496" lon="9.871603052347885"><ele>424.0</ele><time>2026-05-01T15:46:44Z</time></trkpt><trkpt lat="44.80817258131038" lon="9.871722517856092"><ele>424.0</ele><time>2026-05-01T15:46:46Z</time></trkpt><trkpt lat="44.80821550922068" lon="9.87186205580293"><ele>422.6666666666667</ele><time>2026-05-01T15:46:48Z</time></trkpt><trkpt lat="44.8082509316356" lon="9.871935539252155"><ele>421.33333333333337</ele><time>2026-05-01T15:46:49Z</time></trkpt><trkpt lat="44.80830632852436" lon="9.87206965694368"><ele>420.0</ele><time>2026-05-01T15:46:51Z</time></trkpt><trkpt lat="44.80837581476407" lon="9.872195488514196"><ele>418.66666666666663</ele><time>2026-05-01T15:46:53Z</time></trkpt><trkpt lat="44.80841435617843" lon="9.872272890629388"><ele>417.3333333333333</ele><time>2026-05-01T15:46:54Z</time></trkpt><trkpt lat="44.80845912887149" lon="9.872341406450554"><ele>416.0</ele><time>2026-05-01T15:46:55Z</time></trkpt><trkpt lat="44.80850985558517" lon="9.872475208446494"><ele>414.8</ele><time>2026-05-01T15:46:57Z</time></trkpt><trkpt lat="44.808534779950094" lon="9.872594737194918"><ele>413.6</ele><time>2026-05-01T15:46:59Z</time></trkpt><trkpt lat="44.80854573935124" lon="9.872721427371687"><ele>412.4</ele><time>2026-05-01T15:47:01Z</time></trkpt><trkpt lat="44.808471419049496" lon="9.872868972281461"><ele>411.2</ele><time>2026-05-01T15:47:03Z</time></trkpt><trkpt lat="44.80853662520428" lon="9.872908296545202"><ele>410.0</ele><time>2026-05-01T15:47:04Z</time></trkpt><trkpt lat="44.80857668966692" lon="9.873028968758216"><ele>408.16666666666663</ele><time>2026-05-01T15:47:06Z</time></trkpt><trkpt lat="44.808647763157744" lon="9.87318063442559"><ele>406.3333333333333</ele><time>2026-05-01T15:47:08Z</time></trkpt><trkpt lat="44.808683573979536" lon="9.873268263459611"><ele>404.5</ele><time>2026-05-01T15:47:09Z</time></trkpt><trkpt lat="44.80872502345582" lon="9.873370792545963"><ele>402.66666666666663</ele><time>2026-05-01T15:47:10Z</time></trkpt><trkpt lat="44.80875835489581" lon="9.873474083962897"><ele>400.8333333333333</ele><time>2026-05-01T15:47:11Z</time></trkpt><trkpt lat="44.808794274308454" lon="9.873570764988827"><ele>399.0</ele><time>2026-05-01T15:47:12Z</time></trkpt><trkpt lat="44.80882790730703" lon="9.873684285465236"><ele>397.5</ele><time>2026-05-01T15:47:13Z</time></trkpt><trkpt lat="44.808865454393015" lon="9.873821843031548"><ele>396.0</ele><time>2026-05-01T15:47:14Z</time></trkpt><trkpt lat="44.80888188928395" lon="9.873934547379399"><ele>394.5</ele><time>2026-05-01T15:47:15Z</time></trkpt><trkpt lat="44.80891052832999" lon="9.874055739101182"><ele>393.0</ele><time>2026-05-01T15:47:16Z</time></trkpt><trkpt lat="44.8089288571012" lon="9.874168259233358"><ele>391.5</ele><time>2026-05-01T15:47:17Z</time></trkpt><trkpt lat="44.80894125193801" lon="9.874272810665083"><ele>390.0</ele><time>2026-05-01T15:47:18Z</time></trkpt><trkpt lat="44.8089614092882" lon="9.87443670947222"><ele>388.4</ele><time>2026-05-01T15:47:20Z</time></trkpt><trkpt lat="44.809039133067294" lon="9.874560993182518"><ele>386.8</ele><time>2026-05-01T15:47:22Z</time></trkpt><trkpt lat="44.80909535561659" lon="9.87464115397851"><ele>385.20000000000005</ele><time>2026-05-01T15:47:23Z</time></trkpt><trkpt lat="44.80912952283118" lon="9.874739456401498"><ele>383.6</ele><time>2026-05-01T15:47:24Z</time></trkpt><trkpt lat="44.80916693000282" lon="9.874884881519948"><ele>382.0</ele><time>2026-05-01T15:47:25Z</time></trkpt><trkpt lat="44.80920145100626" lon="9.875071101384705"><ele>381.75</ele><time>2026-05-01T15:47:26Z</time></trkpt><trkpt lat="44.809238610620625" lon="9.875295551682742"><ele>381.5</ele><time>2026-05-01T15:47:27Z</time></trkpt><trkpt lat="44.80928004277562" lon="9.875470225129655"><ele>381.25</ele><time>2026-05-01T15:47:28Z</time></trkpt><trkpt lat="44.80932007514157" lon="9.875616257146579"><ele>381.0</ele><time>2026-05-01T15:47:29Z</time></trkpt><trkpt lat="44.80936110243921" lon="9.875774273665247"><ele>380.6666666666667</ele><time>2026-05-01T15:47:30Z</time></trkpt><trkpt lat="44.80940328186499" lon="9.87585540533887"><ele>380.3333333333333</ele><time>2026-05-01T15:47:31Z</time></trkpt><trkpt lat="44.80943933446664" lon="9.875981940496198"><ele>380.0</ele><time>2026-05-01T15:47:32Z</time></trkpt><trkpt lat="44.80949253820423" lon="9.876066297212855"><ele>379.66666666666663</ele><time>2026-05-01T15:47:33Z</time></trkpt><trkpt lat="44.80956257205437" lon="9.876140696943777"><ele>379.3333333333333</ele><time>2026-05-01T15:47:34Z</time></trkpt><trkpt lat="44.80964463396526" lon="9.876187096241399"><ele>379.0</ele><time>2026-05-01T15:47:35Z</time></trkpt><trkpt lat="44.80972291303602" lon="9.876195312996616"><ele>379.0</ele><time>2026-05-01T15:47:36Z</time></trkpt><trkpt lat="44.809821616431066" lon="9.876195188559787"><ele>379.0</ele><time>2026-05-01T15:47:37Z</time></trkpt><trkpt lat="44.809897058840605" lon="9.876262752969296"><ele>379.0</ele><time>2026-05-01T15:47:39Z</time></trkpt><trkpt lat="44.8099666829874" lon="9.876377927785633"><ele>379.0</ele><time>2026-05-01T15:47:41Z</time></trkpt><trkpt lat="44.80999428941561" lon="9.87646243680626"><ele>379.0</ele><time>2026-05-01T15:47:42Z</time></trkpt><trkpt lat="44.81000824008518" lon="9.876561794598413"><ele>379.0</ele><time>2026-05-01T15:47:43Z</time></trkpt><trkpt lat="44.810014544647565" lon="9.87673319069072"><ele>377.3333333333333</ele><time>2026-05-01T15:47:45Z</time></trkpt><trkpt lat="44.810062392919" lon="9.876872034764919"><ele>375.66666666666663</ele><time>2026-05-01T15:47:47Z</time></trkpt><trkpt lat="44.810105058945226" lon="9.876962604639413"><ele>374.0</ele><time>2026-05-01T15:47:48Z</time></trkpt><trkpt lat="44.81014973393153" lon="9.87705308077525"><ele>372.3333333333333</ele><time>2026-05-01T15:47:49Z</time></trkpt><trkpt lat="44.81020122105521" lon="9.87714439283921"><ele>370.6666666666667</ele><time>2026-05-01T15:47:50Z</time></trkpt><trkpt lat="44.810265496553264" lon="9.877220321424756"><ele>369.0</ele><time>2026-05-01T15:47:51Z</time></trkpt><trkpt lat="44.810324213055026" lon="9.877306567945405"><ele>367.8333333333333</ele><time>2026-05-01T15:47:52Z</time></trkpt><trkpt lat="44.8103738518324" lon="9.877405939047426"><ele>366.6666666666667</ele><time>2026-05-01T15:47:53Z</time></trkpt><trkpt lat="44.810407369445585" lon="9.877503870875623"><ele>365.5</ele><time>2026-05-01T15:47:54Z</time></trkpt><trkpt lat="44.81042214861292" lon="9.877610019447404"><ele>364.33333333333337</ele><time>2026-05-01T15:47:55Z</time></trkpt><trkpt lat="44.8104375141265" lon="9.877698670980326"><ele>363.1666666666667</ele><time>2026-05-01T15:47:56Z</time></trkpt><trkpt lat="44.81045579004495" lon="9.877785761887834"><ele>362.0</ele><time>2026-05-01T15:47:57Z</time></trkpt><trkpt lat="44.81049713602389" lon="9.877899150707405"><ele>360.8</ele><time>2026-05-01T15:47:59Z</time></trkpt><trkpt lat="44.81056963750431" lon="9.877991672184356"><ele>359.6</ele><time>2026-05-01T15:48:01Z</time></trkpt><trkpt lat="44.81064826981393" lon="9.878061095072493"><ele>358.40000000000003</ele><time>2026-05-01T15:48:03Z</time></trkpt><trkpt lat="44.810747658799784" lon="9.878133091364884"><ele>357.20000000000005</ele><time>2026-05-01T15:48:05Z</time></trkpt><trkpt lat="44.81084729960781" lon="9.878242189348937"><ele>356.0</ele><time>2026-05-01T15:48:07Z</time></trkpt><trkpt lat="44.81089745387248" lon="9.878318897920517"><ele>354.8</ele><time>2026-05-01T15:48:08Z</time></trkpt><trkpt lat="44.81095566730591" lon="9.878437793444899"><ele>353.6</ele><time>2026-05-01T15:48:09Z</time></trkpt><trkpt lat="44.81101065174188" lon="9.878541315498493"><ele>352.4</ele><time>2026-05-01T15:48:10Z</time></trkpt><trkpt lat="44.81107625787249" lon="9.878652738707558"><ele>351.2</ele><time>2026-05-01T15:48:11Z</time></trkpt><trkpt lat="44.8111472912474" lon="9.878751856279152"><ele>350.0</ele><time>2026-05-01T15:48:12Z</time></trkpt><trkpt lat="44.81124955692851" lon="9.87886459337389"><ele>350.0</ele><time>2026-05-01T15:48:13Z</time></trkpt><trkpt lat="44.8113590972027" lon="9.8790095124782"><ele>350.0</ele><time>2026-05-01T15:48:14Z</time></trkpt><trkpt lat="44.8114329741525" lon="9.879119622178022"><ele>350.0</ele><time>2026-05-01T15:48:15Z</time></trkpt><trkpt lat="44.81152061520779" lon="9.879249824448511"><ele>350.0</ele><time>2026-05-01T15:48:16Z</time></trkpt><trkpt lat="44.81158563091715" lon="9.879358953744172"><ele>349.25</ele><time>2026-05-01T15:48:17Z</time></trkpt><trkpt lat="44.81165783048654" lon="9.879443153897634"><ele>348.5</ele><time>2026-05-01T15:48:18Z</time></trkpt><trkpt lat="44.81175891484899" lon="9.87952357528454"><ele>347.75</ele><time>2026-05-01T15:48:19Z</time></trkpt><trkpt lat="44.811874833929814" lon="9.879652259055877"><ele>347.0</ele><time>2026-05-01T15:48:20Z</time></trkpt><trkpt lat="44.81196923257351" lon="9.879757884225551"><ele>347.0</ele><time>2026-05-01T15:48:21Z</time></trkpt><trkpt lat="44.81205067941667" lon="9.879841823543119"><ele>347.0</ele><time>2026-05-01T15:48:22Z</time></trkpt><trkpt lat="44.81212505200046" lon="9.879905102524171"><ele>347.0</ele><time>2026-05-01T15:48:23Z</time></trkpt><trkpt lat="44.81219016599385" lon="9.879958348482381"><ele>347.0</ele><time>2026-05-01T15:48:24Z</time></trkpt><trkpt lat="44.812290165729344" lon="9.880045275628508"><ele>347.0</ele><time>2026-05-01T15:48:26Z</time></trkpt><trkpt lat="44.81234106171804" lon="9.880135808827234"><ele>347.40000000000003</ele><time>2026-05-01T15:48:28Z</time></trkpt><trkpt lat="44.8123909998644" lon="9.880320500586826"><ele>347.8</ele><time>2026-05-01T15:48:30Z</time></trkpt><trkpt lat="44.81243423131719" lon="9.880424906816527"><ele>348.2</ele><time>2026-05-01T15:48:31Z</time></trkpt><trkpt lat="44.8124817435046" lon="9.880522556178335"><ele>348.6</ele><time>2026-05-01T15:48:32Z</time></trkpt><trkpt lat="44.81252282973967" lon="9.880617138968793"><ele>349.0</ele><time>2026-05-01T15:48:33Z</time></trkpt><trkpt lat="44.81255625737687" lon="9.880727760953178"><ele>349.0</ele><time>2026-05-01T15:48:34Z</time></trkpt><trkpt lat="44.812574566647115" lon="9.880870392204864"><ele>349.0</ele><time>2026-05-01T15:48:35Z</time></trkpt><trkpt lat="44.81260432528174" lon="9.88100808455907"><ele>349.0</ele><time>2026-05-01T15:48:36Z</time></trkpt><trkpt lat="44.812645373259556" lon="9.88114036668559"><ele>349.0</ele><time>2026-05-01T15:48:37Z</time></trkpt><trkpt lat="44.81272171531043" lon="9.881231766266003"><ele>349.0</ele><time>2026-05-01T15:48:38Z</time></trkpt><trkpt lat="44.81278215562017" lon="9.881319649914886"><ele>349.8333333333333</ele><time>2026-05-01T15:48:39Z</time></trkpt><trkpt lat="44.81282119634886" lon="9.88141861750017"><ele>350.66666666666663</ele><time>2026-05-01T15:48:40Z</time></trkpt><trkpt lat="44.812862871476824" lon="9.881485340228139"><ele>351.5</ele><time>2026-05-01T15:48:41Z</time></trkpt><trkpt lat="44.812907373923274" lon="9.88155658955061"><ele>352.3333333333333</ele><time>2026-05-01T15:48:44Z</time></trkpt><trkpt lat="44.81296030161303" lon="9.881635262978"><ele>353.1666666666667</ele><time>2026-05-01T15:48:46Z</time></trkpt><trkpt lat="44.81286407882762" lon="9.881717652939075"><ele>354.0</ele><time>2026-05-01T15:48:50Z</time></trkpt><trkpt lat="44.81276954200944" lon="9.881730417686867"><ele>354.2</ele><time>2026-05-01T15:48:52Z</time></trkpt><trkpt lat="44.81267481111195" lon="9.881777526637366"><ele>354.4</ele><time>2026-05-01T15:48:54Z</time></trkpt><trkpt lat="44.81256640009465" lon="9.881852257046136"><ele>354.6</ele><time>2026-05-01T15:48:56Z</time></trkpt><trkpt lat="44.81245531195694" lon="9.881918572346384"><ele>354.8</ele><time>2026-05-01T15:48:58Z</time></trkpt><trkpt lat="44.812397956478655" lon="9.881962342286279"><ele>355.0</ele><time>2026-05-01T15:48:59Z</time></trkpt><trkpt lat="44.81227543567589" lon="9.882012676387166"><ele>353.66666666666663</ele><time>2026-05-01T15:49:01Z</time></trkpt><trkpt lat="44.812210395686165" lon="9.882042430396924"><ele>352.3333333333333</ele><time>2026-05-01T15:49:02Z</time></trkpt><trkpt lat="44.81213472971495" lon="9.88207878565345"><ele>351.0</ele><time>2026-05-01T15:49:03Z</time></trkpt><trkpt lat="44.81205759992166" lon="9.882105330047029"><ele>349.6666666666667</ele><time>2026-05-01T15:49:04Z</time></trkpt><trkpt lat="44.811986295404225" lon="9.882126984319658"><ele>348.33333333333337</ele><time>2026-05-01T15:49:05Z</time></trkpt><trkpt lat="44.81190491357241" lon="9.882171552187426"><ele>347.0</ele><time>2026-05-01T15:49:06Z</time></trkpt><trkpt lat="44.811821722414685" lon="9.88222933004551"><ele>344.33333333333337</ele><time>2026-05-01T15:49:07Z</time></trkpt><trkpt lat="44.811749380686464" lon="9.882286855532"><ele>341.6666666666667</ele><time>2026-05-01T15:49:08Z</time></trkpt><trkpt lat="44.81169220114496" lon="9.882348186685691"><ele>339.0</ele><time>2026-05-01T15:49:09Z</time></trkpt><trkpt lat="44.811625549614135" lon="9.882430321087918"><ele>336.3333333333333</ele><time>2026-05-01T15:49:10Z</time></trkpt><trkpt lat="44.811553292116336" lon="9.8824999744109"><ele>333.66666666666663</ele><time>2026-05-01T15:49:11Z</time></trkpt><trkpt lat="44.811482643001945" lon="9.882553664751097"><ele>331.0</ele><time>2026-05-01T15:49:12Z</time></trkpt><trkpt lat="44.81142031265374" lon="9.88259601876139"><ele>330.16666666666663</ele><time>2026-05-01T15:49:13Z</time></trkpt><trkpt lat="44.81136484232906" lon="9.882641544984645"><ele>329.3333333333333</ele><time>2026-05-01T15:49:14Z</time></trkpt><trkpt lat="44.81130264298888" lon="9.88271062207496"><ele>328.5</ele><time>2026-05-01T15:49:15Z</time></trkpt><trkpt lat="44.81125219126469" lon="9.882785259081627"><ele>327.6666666666667</ele><time>2026-05-01T15:49:16Z</time></trkpt><trkpt lat="44.811196355839954" lon="9.882861967495153"><ele>326.83333333333337</ele><time>2026-05-01T15:49:17Z</time></trkpt><trkpt lat="44.81113985549556" lon="9.88294153208707"><ele>326.0</ele><time>2026-05-01T15:49:18Z</time></trkpt><trkpt lat="44.81108008619597" lon="9.883013254875177"><ele>326.0</ele><time>2026-05-01T15:49:19Z</time></trkpt><trkpt lat="44.81103319275204" lon="9.883075719673235"><ele>326.0</ele><time>2026-05-01T15:49:20Z</time></trkpt><trkpt lat="44.810958153052745" lon="9.883185006458973"><ele>326.0</ele><time>2026-05-01T15:49:22Z</time></trkpt><trkpt lat="44.81088455765671" lon="9.88323352890383"><ele>326.0</ele><time>2026-05-01T15:49:23Z</time></trkpt><trkpt lat="44.81080729387277" lon="9.883261717728956"><ele>326.0</ele><time>2026-05-01T15:49:24Z</time></trkpt><trkpt lat="44.81073057340343" lon="9.88329948167546"><ele>326.0</ele><time>2026-05-01T15:49:25Z</time></trkpt><trkpt lat="44.81065198607967" lon="9.883315038631327"><ele>325.33333333333337</ele><time>2026-05-01T15:49:26Z</time></trkpt><trkpt lat="44.81057501968378" lon="9.883311922929263"><ele>324.6666666666667</ele><time>2026-05-01T15:49:27Z</time></trkpt><trkpt lat="44.810503691084485" lon="9.883310739165928"><ele>324.0</ele><time>2026-05-01T15:49:28Z</time></trkpt><trkpt lat="44.81043024054514" lon="9.88330104358446"><ele>323.3333333333333</ele><time>2026-05-01T15:49:29Z</time></trkpt><trkpt lat="44.81036250175438" lon="9.883293121092194"><ele>322.66666666666663</ele><time>2026-05-01T15:49:30Z</time></trkpt><trkpt lat="44.81029868103064" lon="9.883282755479934"><ele>322.0</ele><time>2026-05-01T15:49:31Z</time></trkpt><trkpt lat="44.810198517072955" lon="9.883265834934315"><ele>319.8333333333333</ele><time>2026-05-01T15:49:33Z</time></trkpt><trkpt lat="44.81013668731939" lon="9.883248205758758"><ele>317.66666666666663</ele><time>2026-05-01T15:49:34Z</time></trkpt><trkpt lat="44.81006069297293" lon="9.883220142980148"><ele>315.5</ele><time>2026-05-01T15:49:35Z</time></trkpt><trkpt lat="44.80997957632695" lon="9.883190260900188"><ele>313.3333333333333</ele><time>2026-05-01T15:49:36Z</time></trkpt><trkpt lat="44.80989613796198" lon="9.88315743941658"><ele>311.1666666666667</ele><time>2026-05-01T15:49:37Z</time></trkpt><trkpt lat="44.80980774707036" lon="9.883131596832824"><ele>309.0</ele><time>2026-05-01T15:49:38Z</time></trkpt><trkpt lat="44.80971007247742" lon="9.883117103884356"><ele>309.0</ele><time>2026-05-01T15:49:39Z</time></trkpt><trkpt lat="44.80961439830908" lon="9.883106153751246"><ele>309.0</ele><time>2026-05-01T15:49:40Z</time></trkpt><trkpt lat="44.80952238703479" lon="9.883091153298537"><ele>309.0</ele><time>2026-05-01T15:49:41Z</time></trkpt><trkpt lat="44.80943263389629" lon="9.883087824803765"><ele>309.0</ele><time>2026-05-01T15:49:42Z</time></trkpt><trkpt lat="44.809357705492936" lon="9.883111064431962"><ele>309.0</ele><time>2026-05-01T15:49:43Z</time></trkpt><trkpt lat="44.80928692301535" lon="9.883136599622906"><ele>309.0</ele><time>2026-05-01T15:49:44Z</time></trkpt><trkpt lat="44.80921534441421" lon="9.883155474785688"><ele>306.5714285714286</ele><time>2026-05-01T15:49:45Z</time></trkpt><trkpt lat="44.80914711070864" lon="9.88318238190396"><ele>304.14285714285717</ele><time>2026-05-01T15:49:46Z</time></trkpt><trkpt lat="44.809077949827355" lon="9.883207750946825"><ele>301.7142857142857</ele><time>2026-05-01T15:49:47Z</time></trkpt><trkpt lat="44.80900558857542" lon="9.88321995908705"><ele>299.28571428571433</ele><time>2026-05-01T15:49:48Z</time></trkpt><trkpt lat="44.80894147603051" lon="9.883219552525295"><ele>296.8571428571429</ele><time>2026-05-01T15:49:49Z</time></trkpt><trkpt lat="44.80886344931177" lon="9.883235188748596"><ele>294.42857142857144</ele><time>2026-05-01T15:49:50Z</time></trkpt><trkpt lat="44.808790025554565" lon="9.883270675090689"><ele>292.0</ele><time>2026-05-01T15:49:51Z</time></trkpt><trkpt lat="44.80871063926142" lon="9.883309603419535"><ele>292.0</ele><time>2026-05-01T15:49:52Z</time></trkpt><trkpt lat="44.80863447459775" lon="9.883340570339763"><ele>292.0</ele><time>2026-05-01T15:49:53Z</time></trkpt><trkpt lat="44.80856151979604" lon="9.883372540847226"><ele>292.0</ele><time>2026-05-01T15:49:54Z</time></trkpt><trkpt lat="44.80848207419782" lon="9.883407959627064"><ele>292.0</ele><time>2026-05-01T15:49:55Z</time></trkpt><trkpt lat="44.80841095907214" lon="9.883439963805243"><ele>292.0</ele><time>2026-05-01T15:49:56Z</time></trkpt><trkpt lat="44.80829221317198" lon="9.883504602593938"><ele>292.0</ele><time>2026-05-01T15:49:58Z</time></trkpt><trkpt lat="44.80822671735799" lon="9.883557236568079"><ele>288.8333333333333</ele><time>2026-05-01T15:49:59Z</time></trkpt><trkpt lat="44.80816504247902" lon="9.883600689853584"><ele>285.66666666666663</ele><time>2026-05-01T15:50:00Z</time></trkpt><trkpt lat="44.80809883571694" lon="9.883656410802448"><ele>282.5</ele><time>2026-05-01T15:50:01Z</time></trkpt><trkpt lat="44.8080260625236" lon="9.883700514283646"><ele>279.3333333333333</ele><time>2026-05-01T15:50:02Z</time></trkpt><trkpt lat="44.807954957283194" lon="9.883696905304726"><ele>276.1666666666667</ele><time>2026-05-01T15:50:03Z</time></trkpt><trkpt lat="44.80785818791854" lon="9.883713873749217"><ele>273.0</ele><time>2026-05-01T15:50:04Z</time></trkpt><trkpt lat="44.80778983109632" lon="9.883740827599533"><ele>273.0</ele><time>2026-05-01T15:50:05Z</time></trkpt><trkpt lat="44.807727580464096" lon="9.883784346161859"><ele>273.0</ele><time>2026-05-01T15:50:06Z</time></trkpt><trkpt lat="44.80766619905846" lon="9.883839288993927"><ele>273.0</ele><time>2026-05-01T15:50:07Z</time></trkpt><trkpt lat="44.80757774396309" lon="9.883898769019888"><ele>273.0</ele><time>2026-05-01T15:50:09Z</time></trkpt><trkpt lat="44.807530936305795" lon="9.883974618007079"><ele>273.0</ele><time>2026-05-01T15:50:10Z</time></trkpt><trkpt lat="44.80742673031426" lon="9.883938222547082"><ele>273.0</ele><time>2026-05-01T15:50:11Z</time></trkpt><trkpt lat="44.80737803319472" lon="9.884000928449783"><ele>272.2</ele><time>2026-05-01T15:50:13Z</time></trkpt><trkpt lat="44.807315879517326" lon="9.88408311560844"><ele>271.4</ele><time>2026-05-01T15:50:15Z</time></trkpt><trkpt lat="44.80722802189656" lon="9.884147857740718"><ele>270.59999999999997</ele><time>2026-05-01T15:50:17Z</time></trkpt><trkpt lat="44.807149648041474" lon="9.884199539695508"><ele>269.8</ele><time>2026-05-01T15:50:18Z</time></trkpt><trkpt lat="44.80703171476843" lon="9.88426390912328"><ele>269.0</ele><time>2026-05-01T15:50:19Z</time></trkpt><trkpt lat="44.806941585861324" lon="9.884317797571022"><ele>268.0</ele><time>2026-05-01T15:50:20Z</time></trkpt><trkpt lat="44.806864088233354" lon="9.884378029338746"><ele>267.0</ele><time>2026-05-01T15:50:21Z</time></trkpt><trkpt lat="44.8067992191767" lon="9.884437791674111"><ele>266.0</ele><time>2026-05-01T15:50:22Z</time></trkpt><trkpt lat="44.806714783794035" lon="9.884511385777772"><ele>265.0</ele><time>2026-05-01T15:50:23Z</time></trkpt><trkpt lat="44.80665283773787" lon="9.88456537380035"><ele>264.0</ele><time>2026-05-01T15:50:24Z</time></trkpt><trkpt lat="44.8065948820433" lon="9.884610489675454"><ele>263.0</ele><time>2026-05-01T15:50:25Z</time></trkpt><trkpt lat="44.80653116367465" lon="9.884648679429905"><ele>262.8</ele><time>2026-05-01T15:50:26Z</time></trkpt><trkpt lat="44.806443038041124" lon="9.884757080576044"><ele>262.6</ele><time>2026-05-01T15:50:28Z</time></trkpt><trkpt lat="44.80644042149715" lon="9.884854992597099"><ele>262.4</ele><time>2026-05-01T15:50:29Z</time></trkpt><trkpt lat="44.80643833555862" lon="9.885016811497772"><ele>262.2</ele><time>2026-05-01T15:50:31Z</time></trkpt><trkpt lat="44.806491717102496" lon="9.885119002338486"><ele>262.0</ele><time>2026-05-01T15:50:33Z</time></trkpt><trkpt lat="44.80654370724346" lon="9.885175276830585"><ele>261.3333333333333</ele><time>2026-05-01T15:50:35Z</time></trkpt><trkpt lat="44.80661737526803" lon="9.885251073502928"><ele>260.66666666666663</ele><time>2026-05-01T15:50:38Z</time></trkpt><trkpt lat="44.806691657107486" lon="9.885263139443579"><ele>260.0</ele><time>2026-05-01T15:51:18Z</time></trkpt><trkpt lat="44.806636919529865" lon="9.885201785446842"><ele>259.3333333333333</ele><time>2026-05-01T15:51:22Z</time></trkpt><trkpt lat="44.80654093666216" lon="9.885243772894977"><ele>258.6666666666667</ele><time>2026-05-01T15:51:27Z</time></trkpt><trkpt lat="44.80644787675503" lon="9.885325519407182"><ele>258.0</ele><time>2026-05-01T15:51:29Z</time></trkpt><trkpt lat="44.80637674547908" lon="9.88543759298644"><ele>258.0</ele><time>2026-05-01T15:51:31Z</time></trkpt><trkpt lat="44.8062770085591" lon="9.885514276996739"><ele>258.0</ele><time>2026-05-01T15:51:33Z</time></trkpt><trkpt lat="44.80620016599227" lon="9.885624071169444"><ele>258.0</ele><time>2026-05-01T15:51:35Z</time></trkpt><trkpt lat="44.806139496998036" lon="9.885711323117315"><ele>258.0</ele><time>2026-05-01T15:51:36Z</time></trkpt><trkpt lat="44.80606601507507" lon="9.885817002136092"><ele>258.0</ele><time>2026-05-01T15:51:37Z</time></trkpt><trkpt lat="44.80600327752342" lon="9.885907229013574"><ele>254.83333333333334</ele><time>2026-05-01T15:51:38Z</time></trkpt><trkpt lat="44.805951188018334" lon="9.885982142194932"><ele>251.66666666666669</ele><time>2026-05-01T15:51:39Z</time></trkpt><trkpt lat="44.80589654499056" lon="9.886060727789143"><ele>248.5</ele><time>2026-05-01T15:51:40Z</time></trkpt><trkpt lat="44.80584243558829" lon="9.88613599293103"><ele>245.33333333333334</ele><time>2026-05-01T15:51:41Z</time></trkpt><trkpt lat="44.80578313999903" lon="9.886219073479648"><ele>242.16666666666669</ele><time>2026-05-01T15:51:42Z</time></trkpt><trkpt lat="44.805726241146054" lon="9.886314696690587"><ele>239.0</ele><time>2026-05-01T15:51:43Z</time></trkpt><trkpt lat="44.80569413273984" lon="9.886418315124637"><ele>239.0</ele><time>2026-05-01T15:51:44Z</time></trkpt><trkpt lat="44.80566420850398" lon="9.886561624266957"><ele>238.99999999999997</ele><time>2026-05-01T15:51:46Z</time></trkpt><trkpt lat="44.805674173876135" lon="9.886672337935737"><ele>238.99999999999997</ele><time>2026-05-01T15:51:47Z</time></trkpt><trkpt lat="44.80570249382561" lon="9.886803928566087"><ele>239.0</ele><time>2026-05-01T15:51:48Z</time></trkpt><trkpt lat="44.80572994889022" lon="9.88695773770444"><ele>239.0</ele><time>2026-05-01T15:51:49Z</time></trkpt><trkpt lat="44.80571723766003" lon="9.88708090102659"><ele>237.66666666666669</ele><time>2026-05-01T15:51:50Z</time></trkpt><trkpt lat="44.805707335195535" lon="9.887188926983603"><ele>236.33333333333334</ele><time>2026-05-01T15:51:51Z</time></trkpt><trkpt lat="44.8056955952135" lon="9.887306437333862"><ele>235.0</ele><time>2026-05-01T15:51:52Z</time></trkpt><trkpt lat="44.80569165315176" lon="9.887429528770003"><ele>233.66666666666669</ele><time>2026-05-01T15:51:53Z</time></trkpt><trkpt lat="44.80572107259206" lon="9.887539873910898"><ele>232.33333333333334</ele><time>2026-05-01T15:51:54Z</time></trkpt><trkpt lat="44.8057573426217" lon="9.8876835677498"><ele>231.0</ele><time>2026-05-01T15:51:55Z</time></trkpt><trkpt lat="44.805775497095965" lon="9.887832337207236"><ele>229.83333333333334</ele><time>2026-05-01T15:51:56Z</time></trkpt><trkpt lat="44.8058023613492" lon="9.887953295722847"><ele>228.66666666666669</ele><time>2026-05-01T15:51:57Z</time></trkpt><trkpt lat="44.80583063723921" lon="9.88806762294611"><ele>227.5</ele><time>2026-05-01T15:51:58Z</time></trkpt><trkpt lat="44.805850114798616" lon="9.888177571018444"><ele>226.33333333333334</ele><time>2026-05-01T15:51:59Z</time></trkpt><trkpt lat="44.80584485313444" lon="9.888291108843898"><ele>225.16666666666669</ele><time>2026-05-01T15:52:00Z</time></trkpt><trkpt lat="44.805831607312726" lon="9.888407094849201"><ele>224.0</ele><time>2026-05-01T15:52:01Z</time></trkpt><trkpt lat="44.805822199391805" lon="9.888523830541336"><ele>223.85714285714286</ele><time>2026-05-01T15:52:02Z</time></trkpt><trkpt lat="44.80581455196946" lon="9.88861872164947"><ele>223.71428571428572</ele><time>2026-05-01T15:52:03Z</time></trkpt><trkpt lat="44.80579919380847" lon="9.888710292068488"><ele>223.57142857142856</ele><time>2026-05-01T15:52:04Z</time></trkpt><trkpt lat="44.805774813689546" lon="9.888795971695915"><ele>223.42857142857144</ele><time>2026-05-01T15:52:05Z</time></trkpt><trkpt lat="44.805724281199964" lon="9.888879602641907"><ele>223.28571428571428</ele><time>2026-05-01T15:52:06Z</time></trkpt><trkpt lat="44.805671142542764" lon="9.888973216102057"><ele>223.14285714285714</ele><time>2026-05-01T15:52:07Z</time></trkpt><trkpt lat="44.8056126812869" lon="9.889047258480096"><ele>223.0</ele><time>2026-05-01T15:52:08Z</time></trkpt><trkpt lat="44.80547874544288" lon="9.88913859764988"><ele>223.0</ele><time>2026-05-01T15:52:10Z</time></trkpt><trkpt lat="44.8054122111782" lon="9.889180728741378"><ele>223.0</ele><time>2026-05-01T15:52:11Z</time></trkpt><trkpt lat="44.80534926657144" lon="9.889218576064101"><ele>223.0</ele><time>2026-05-01T15:52:12Z</time></trkpt><trkpt lat="44.80527166306245" lon="9.88926199637416"><ele>223.0</ele><time>2026-05-01T15:52:13Z</time></trkpt><trkpt lat="44.8051954228365" lon="9.889296548404548"><ele>223.0</ele><time>2026-05-01T15:52:15Z</time></trkpt><trkpt lat="44.80517489774301" lon="9.889549733701086"><ele>222.5</ele><time>2026-05-01T15:52:19Z</time></trkpt><trkpt lat="44.80519675026316" lon="9.889686511684491"><ele>222.0</ele><time>2026-05-01T15:52:20Z</time></trkpt><trkpt lat="44.80523938408074" lon="9.88986022735803"><ele>221.5</ele><time>2026-05-01T15:52:21Z</time></trkpt><trkpt lat="44.80530063530519" lon="9.890064485001568"><ele>221.0</ele><time>2026-05-01T15:52:22Z</time></trkpt><trkpt lat="44.80538747241849" lon="9.890269501928945"><ele>220.33333333333334</ele><time>2026-05-01T15:52:23Z</time></trkpt><trkpt lat="44.805487502548" lon="9.890476104411583"><ele>219.66666666666669</ele><time>2026-05-01T15:52:24Z</time></trkpt><trkpt lat="44.805571139873045" lon="9.89065263317873"><ele>219.0</ele><time>2026-05-01T15:52:25Z</time></trkpt><trkpt lat="44.80563890009" lon="9.890801268861292"><ele>218.83333333333334</ele><time>2026-05-01T15:52:26Z</time></trkpt><trkpt lat="44.80568279093001" lon="9.890925572287589"><ele>218.66666666666669</ele><time>2026-05-01T15:52:27Z</time></trkpt><trkpt lat="44.805698008451614" lon="9.891044595380325"><ele>218.5</ele><time>2026-05-01T15:52:28Z</time></trkpt><trkpt lat="44.80570785851597" lon="9.891144469624814"><ele>218.33333333333334</ele><time>2026-05-01T15:52:29Z</time></trkpt><trkpt lat="44.80570997675555" lon="9.89123967952579"><ele>218.16666666666669</ele><time>2026-05-01T15:52:30Z</time></trkpt><trkpt lat="44.80570875310986" lon="9.891336485654955"><ele>218.0</ele><time>2026-05-01T15:52:31Z</time></trkpt><trkpt lat="44.8056998174495" lon="9.891451325231191"><ele>218.0</ele><time>2026-05-01T15:52:32Z</time></trkpt><trkpt lat="44.805701621711606" lon="9.891566998969001"><ele>218.0</ele><time>2026-05-01T15:52:33Z</time></trkpt><trkpt lat="44.80570987772478" lon="9.891693882003464"><ele>218.0</ele><time>2026-05-01T15:52:34Z</time></trkpt><trkpt lat="44.8057322033172" lon="9.891827302399538"><ele>218.0</ele><time>2026-05-01T15:52:35Z</time></trkpt><trkpt lat="44.80577435057877" lon="9.891948296237745"><ele>218.0</ele><time>2026-05-01T15:52:36Z</time></trkpt><trkpt lat="44.80584160495363" lon="9.89204751623492"><ele>218.2</ele><time>2026-05-01T15:52:37Z</time></trkpt><trkpt lat="44.805894291672985" lon="9.892152453622307"><ele>218.4</ele><time>2026-05-01T15:52:38Z</time></trkpt><trkpt lat="44.80594359471252" lon="9.892269578368769"><ele>218.59999999999997</ele><time>2026-05-01T15:52:39Z</time></trkpt><trkpt lat="44.80600618324929" lon="9.892368230583298"><ele>218.79999999999998</ele><time>2026-05-01T15:52:40Z</time></trkpt><trkpt lat="44.80606521064568" lon="9.892449638411389"><ele>219.0</ele><time>2026-05-01T15:52:41Z</time></trkpt><trkpt lat="44.806136025159944" lon="9.89254769936791"><ele>219.0</ele><time>2026-05-01T15:52:43Z</time></trkpt><trkpt lat="44.80626779399798" lon="9.892398772399101"><ele>219.0</ele><time>2026-05-01T15:52:47Z</time></trkpt><trkpt lat="44.80620971070893" lon="9.892455812427261"><ele>219.0</ele><time>2026-05-01T15:52:48Z</time></trkpt><trkpt lat="44.80630520043171" lon="9.892325689841527"><ele>219.0</ele><time>2026-05-01T15:53:45Z</time></trkpt><trkpt lat="44.80637753138345" lon="9.892272644504743"><ele>219.0</ele><time>2026-05-01T15:53:46Z</time></trkpt><trkpt lat="44.806475167901944" lon="9.892243250072713"><ele>219.0</ele><time>2026-05-01T15:53:47Z</time></trkpt><trkpt lat="44.80657511816193" lon="9.892152616271206"><ele>219.0</ele><time>2026-05-01T15:53:48Z</time></trkpt><trkpt lat="44.806710431558656" lon="9.892052123240754"><ele>219.0</ele><time>2026-05-01T15:53:49Z</time></trkpt><trkpt lat="44.80685623012708" lon="9.891942051928357"><ele>219.33333333333331</ele><time>2026-05-01T15:53:50Z</time></trkpt><trkpt lat="44.807037889513005" lon="9.891841073383262"><ele>219.66666666666666</ele><time>2026-05-01T15:53:51Z</time></trkpt><trkpt lat="44.80719103202865" lon="9.891739469115349"><ele>220.0</ele><time>2026-05-01T15:53:52Z</time></trkpt><trkpt lat="44.80727685034419" lon="9.8916628851266"><ele>220.8</ele><time>2026-05-01T15:53:53Z</time></trkpt><trkpt lat="44.807354690357776" lon="9.891610355337617"><ele>221.6</ele><time>2026-05-01T15:53:54Z</time></trkpt><trkpt lat="44.80745983792577" lon="9.891490298990757"><ele>222.39999999999998</ele><time>2026-05-01T15:53:56Z</time></trkpt><trkpt lat="44.8075059308647" lon="9.891417800692864"><ele>223.2</ele><time>2026-05-01T15:53:57Z</time></trkpt><trkpt lat="44.80746890099215" lon="9.891243290014211"><ele>224.0</ele><time>2026-05-01T15:53:59Z</time></trkpt><trkpt lat="44.807428374048456" lon="9.8911138039494"><ele>224.00000000000003</ele><time>2026-05-01T15:54:00Z</time></trkpt><trkpt lat="44.8074206794232" lon="9.891011101081416"><ele>224.0</ele><time>2026-05-01T15:54:01Z</time></trkpt><trkpt lat="44.8074323407365" lon="9.890921825804675"><ele>224.0</ele><time>2026-05-01T15:54:02Z</time></trkpt><trkpt lat="44.80747489482621" lon="9.89084775460573"><ele>224.0</ele><time>2026-05-01T15:54:03Z</time></trkpt><trkpt lat="44.80758354377333" lon="9.890757120465754"><ele>224.00000000000003</ele><time>2026-05-01T15:54:05Z</time></trkpt><trkpt lat="44.80766393717702" lon="9.89069562471777"><ele>224.0</ele><time>2026-05-01T15:54:06Z</time></trkpt><trkpt lat="44.80776168105075" lon="9.890626148114395"><ele>228.0</ele><time>2026-05-01T15:54:07Z</time></trkpt><trkpt lat="44.80785674056367" lon="9.89054315196795"><ele>232.0</ele><time>2026-05-01T15:54:08Z</time></trkpt><trkpt lat="44.80796302389971" lon="9.890473581564642"><ele>236.0</ele><time>2026-05-01T15:54:09Z</time></trkpt><trkpt lat="44.80807303169525" lon="9.89039451104213"><ele>240.0</ele><time>2026-05-01T15:54:10Z</time></trkpt><trkpt lat="44.808180060747354" lon="9.89030641897856"><ele>240.0</ele><time>2026-05-01T15:54:11Z</time></trkpt><trkpt lat="44.80825836602631" lon="9.890269839700753"><ele>240.0</ele><time>2026-05-01T15:54:12Z</time></trkpt><trkpt lat="44.80835527889785" lon="9.890242928553747"><ele>240.0</ele><time>2026-05-01T15:54:14Z</time></trkpt><trkpt lat="44.80842049229411" lon="9.890261029126712"><ele>240.0</ele><time>2026-05-01T15:54:16Z</time></trkpt><trkpt lat="44.808496445646234" lon="9.890315394882027"><ele>240.0</ele><time>2026-05-01T15:54:42Z</time></trkpt><trkpt lat="44.8085651506115" lon="9.890382368672968"><ele>240.0</ele><time>2026-05-01T15:54:44Z</time></trkpt><trkpt lat="44.80862725369102" lon="9.89042151671798"><ele>240.83333333333334</ele><time>2026-05-01T15:54:46Z</time></trkpt><trkpt lat="44.808690068817" lon="9.890400168974542"><ele>241.66666666666669</ele><time>2026-05-01T15:54:48Z</time></trkpt><trkpt lat="44.808743773074816" lon="9.890313299983973"><ele>242.5</ele><time>2026-05-01T15:54:50Z</time></trkpt><trkpt lat="44.80880245513059" lon="9.890249144550118"><ele>243.33333333333334</ele><time>2026-05-01T15:54:52Z</time></trkpt><trkpt lat="44.80888243949977" lon="9.890223244099175"><ele>244.16666666666669</ele><time>2026-05-01T15:54:54Z</time></trkpt><trkpt lat="44.80897039927287" lon="9.890237613164548"><ele>245.0</ele><time>2026-05-01T15:54:56Z</time></trkpt><trkpt lat="44.80905687031348" lon="9.89022914224713"><ele>245.00000000000003</ele><time>2026-05-01T15:54:58Z</time></trkpt><trkpt lat="44.809146629378176" lon="9.890189411311798"><ele>245.0</ele><time>2026-05-01T15:55:00Z</time></trkpt><trkpt lat="44.80922232746642" lon="9.890152571633912"><ele>245.0</ele><time>2026-05-01T15:55:02Z</time></trkpt><trkpt lat="44.80931298546374" lon="9.890160561373802"><ele>245.0</ele><time>2026-05-01T15:55:05Z</time></trkpt><trkpt lat="44.809402675693555" lon="9.890181148686493"><ele>245.00000000000003</ele><time>2026-05-01T15:55:08Z</time></trkpt><trkpt lat="44.80946663056009" lon="9.890258242465274"><ele>245.0</ele><time>2026-05-01T15:55:10Z</time></trkpt><trkpt lat="44.80954056957143" lon="9.890351571087837"><ele>246.00000000000003</ele><time>2026-05-01T15:55:12Z</time></trkpt><trkpt lat="44.80962542188369" lon="9.890477629004911"><ele>247.0</ele><time>2026-05-01T15:55:14Z</time></trkpt><trkpt lat="44.80967034655056" lon="9.890556019563231"><ele>248.0</ele><time>2026-05-01T15:55:15Z</time></trkpt><trkpt lat="44.80971017598941" lon="9.890638950792344"><ele>249.0</ele><time>2026-05-01T15:55:16Z</time></trkpt><trkpt lat="44.809745723285594" lon="9.890713967274701"><ele>250.00000000000003</ele><time>2026-05-01T15:55:17Z</time></trkpt><trkpt lat="44.809771781247925" lon="9.89085641717161"><ele>251.0</ele><time>2026-05-01T15:55:19Z</time></trkpt><trkpt lat="44.80982501741042" lon="9.890919216831328"><ele>250.0</ele><time>2026-05-01T15:55:20Z</time></trkpt><trkpt lat="44.80988078267882" lon="9.891026591882635"><ele>249.00000000000003</ele><time>2026-05-01T15:55:22Z</time></trkpt><trkpt lat="44.80992251464813" lon="9.891161421411473"><ele>248.00000000000003</ele><time>2026-05-01T15:55:33Z</time></trkpt><trkpt lat="44.80994455530377" lon="9.891273498876021"><ele>247.0</ele><time>2026-05-01T15:55:36Z</time></trkpt><trkpt lat="44.80994548831927" lon="9.891425984788988"><ele>246.0</ele><time>2026-05-01T15:55:38Z</time></trkpt><trkpt lat="44.80994677309253" lon="9.891570197772278"><ele>246.0</ele><time>2026-05-01T15:55:40Z</time></trkpt><trkpt lat="44.80993600450033" lon="9.891710592404987"><ele>246.00000000000003</ele><time>2026-05-01T15:55:42Z</time></trkpt><trkpt lat="44.809935839639486" lon="9.891839079619624"><ele>246.00000000000003</ele><time>2026-05-01T15:55:44Z</time></trkpt><trkpt lat="44.80996393391611" lon="9.891960957285422"><ele>246.0</ele><time>2026-05-01T15:55:46Z</time></trkpt><trkpt lat="44.810008550330885" lon="9.892078334907959"><ele>246.0</ele><time>2026-05-01T15:55:48Z</time></trkpt><trkpt lat="44.81006471263664" lon="9.89220143775044"><ele>246.33333333333334</ele><time>2026-05-01T15:55:50Z</time></trkpt><trkpt lat="44.810113223350996" lon="9.89230131701603"><ele>246.66666666666669</ele><time>2026-05-01T15:55:52Z</time></trkpt><trkpt lat="44.810213729877866" lon="9.892392531822289"><ele>247.0</ele><time>2026-05-01T15:55:54Z</time></trkpt><trkpt lat="44.81026279661644" lon="9.892459428216922"><ele>247.33333333333334</ele><time>2026-05-01T15:55:55Z</time></trkpt><trkpt lat="44.81030862000441" lon="9.892521457868025"><ele>247.66666666666669</ele><time>2026-05-01T15:55:56Z</time></trkpt><trkpt lat="44.81034914198737" lon="9.892640372074185"><ele>248.0</ele><time>2026-05-01T15:55:58Z</time></trkpt><trkpt lat="44.81040052171678" lon="9.892797872488194"><ele>248.00000000000003</ele><time>2026-05-01T15:56:00Z</time></trkpt><trkpt lat="44.810404596723764" lon="9.892911445531496"><ele>248.0</ele><time>2026-05-01T15:56:01Z</time></trkpt><trkpt lat="44.81044191446507" lon="9.893046555653246"><ele>248.0</ele><time>2026-05-01T15:56:04Z</time></trkpt><trkpt lat="44.8105068662899" lon="9.893156916522962"><ele>248.0</ele><time>2026-05-01T15:56:06Z</time></trkpt><trkpt lat="44.8105428697525" lon="9.893254093939753"><ele>248.00000000000003</ele><time>2026-05-01T15:56:16Z</time></trkpt><trkpt lat="44.81059284766969" lon="9.893325032369349"><ele>248.0</ele><time>2026-05-01T15:56:19Z</time></trkpt><trkpt lat="44.81064026546622" lon="9.89339690111502"><ele>247.60000000000002</ele><time>2026-05-01T15:56:22Z</time></trkpt><trkpt lat="44.810689121574825" lon="9.893512430890077"><ele>247.20000000000002</ele><time>2026-05-01T15:56:32Z</time></trkpt><trkpt lat="44.81074298409157" lon="9.89363081923095"><ele>246.8</ele><time>2026-05-01T15:56:34Z</time></trkpt><trkpt lat="44.810804989695065" lon="9.893676386757045"><ele>246.4</ele><time>2026-05-01T15:56:42Z</time></trkpt><trkpt lat="44.81087452713538" lon="9.893646633757104"><ele>246.0</ele><time>2026-05-01T15:56:44Z</time></trkpt><trkpt lat="44.81099589780344" lon="9.89358640616027"><ele>248.83333333333334</ele><time>2026-05-01T15:56:46Z</time></trkpt><trkpt lat="44.81106977189214" lon="9.893555893460073"><ele>251.66666666666669</ele><time>2026-05-01T15:56:47Z</time></trkpt><trkpt lat="44.8111343928001" lon="9.893532896113614"><ele>254.5</ele><time>2026-05-01T15:56:48Z</time></trkpt><trkpt lat="44.81118909892011" lon="9.893488257164144"><ele>257.33333333333337</ele><time>2026-05-01T15:56:49Z</time></trkpt><trkpt lat="44.811339479515766" lon="9.893499454126033"><ele>260.1666666666667</ele><time>2026-05-01T15:56:51Z</time></trkpt><trkpt lat="44.811407872406214" lon="9.893552505958203"><ele>263.0</ele><time>2026-05-01T15:57:17Z</time></trkpt><trkpt lat="44.811412355343755" lon="9.893659087280513"><ele>263.0</ele><time>2026-05-01T15:57:26Z</time></trkpt><trkpt lat="44.81136187250955" lon="9.893816739331365"><ele>263.0</ele><time>2026-05-01T15:57:28Z</time></trkpt><trkpt lat="44.81136525307383" lon="9.893926573509917"><ele>263.0</ele><time>2026-05-01T15:57:29Z</time></trkpt><trkpt lat="44.81137839632159" lon="9.894033231819686"><ele>263.0</ele><time>2026-05-01T15:57:30Z</time></trkpt><trkpt lat="44.811388943472856" lon="9.894159679671752"><ele>263.0</ele><time>2026-05-01T15:57:31Z</time></trkpt><trkpt lat="44.8114027592515" lon="9.894272786705487"><ele>263.0</ele><time>2026-05-01T15:57:32Z</time></trkpt><trkpt lat="44.811408150850426" lon="9.894373270577173"><ele>262.4</ele><time>2026-05-01T15:57:33Z</time></trkpt><trkpt lat="44.8113925532422" lon="9.894516231241358"><ele>261.8</ele><time>2026-05-01T15:57:35Z</time></trkpt><trkpt lat="44.81139255323813" lon="9.894652858118082"><ele>261.2</ele><time>2026-05-01T15:57:37Z</time></trkpt><trkpt lat="44.811393627312135" lon="9.894747458184312"><ele>260.6</ele><time>2026-05-01T15:57:38Z</time></trkpt><trkpt lat="44.81140569636185" lon="9.89490159449836"><ele>260.0</ele><time>2026-05-01T15:57:40Z</time></trkpt><trkpt lat="44.811393553062636" lon="9.895040184795377"><ele>258.5</ele><time>2026-05-01T15:57:42Z</time></trkpt><trkpt lat="44.81135816613053" lon="9.895123524953755"><ele>257.0</ele><time>2026-05-01T15:57:43Z</time></trkpt><trkpt lat="44.81128744340323" lon="9.895173817898728"><ele>255.5</ele><time>2026-05-01T15:57:44Z</time></trkpt><trkpt lat="44.81121607371356" lon="9.895207434342721"><ele>254.0</ele><time>2026-05-01T15:57:45Z</time></trkpt><trkpt lat="44.81113438881934" lon="9.895257984883948"><ele>252.50000000000003</ele><time>2026-05-01T15:57:46Z</time></trkpt><trkpt lat="44.81101933167966" lon="9.895329280433701"><ele>251.0</ele><time>2026-05-01T15:57:47Z</time></trkpt><trkpt lat="44.8109413265553" lon="9.895408608253767"><ele>249.0</ele><time>2026-05-01T15:57:48Z</time></trkpt><trkpt lat="44.81089348215775" lon="9.895529631931419"><ele>247.00000000000003</ele><time>2026-05-01T15:57:49Z</time></trkpt><trkpt lat="44.810850891803206" lon="9.895655679630522"><ele>245.00000000000003</ele><time>2026-05-01T15:57:50Z</time></trkpt><trkpt lat="44.810824372691165" lon="9.895788609156408"><ele>243.0</ele><time>2026-05-01T15:57:51Z</time></trkpt><trkpt lat="44.81080430408145" lon="9.895878220682448"><ele>241.0</ele><time>2026-05-01T15:57:52Z</time></trkpt><trkpt lat="44.810793585701305" lon="9.896045959827356"><ele>239.60000000000002</ele><time>2026-05-01T15:57:54Z</time></trkpt><trkpt lat="44.810763984908306" lon="9.896186000620549"><ele>238.20000000000002</ele><time>2026-05-01T15:57:55Z</time></trkpt><trkpt lat="44.81072405294677" lon="9.896307566284602"><ele>236.79999999999998</ele><time>2026-05-01T15:57:56Z</time></trkpt><trkpt lat="44.81065504151466" lon="9.896421413663308"><ele>235.39999999999998</ele><time>2026-05-01T15:57:57Z</time></trkpt><trkpt lat="44.81059617765347" lon="9.89645449495683"><ele>234.0</ele><time>2026-05-01T15:57:58Z</time></trkpt><trkpt lat="44.810514369490384" lon="9.896523920858654"><ele>234.0</ele><time>2026-05-01T15:57:59Z</time></trkpt><trkpt lat="44.81040960269619" lon="9.89661154157386"><ele>234.0</ele><time>2026-05-01T15:58:00Z</time></trkpt><trkpt lat="44.8103185597682" lon="9.896674310511948"><ele>234.0</ele><time>2026-05-01T15:58:01Z</time></trkpt><trkpt lat="44.81023779427094" lon="9.896749885516206"><ele>234.0</ele><time>2026-05-01T15:58:02Z</time></trkpt><trkpt lat="44.810200491917094" lon="9.896821813535972"><ele>234.0</ele><time>2026-05-01T15:58:03Z</time></trkpt><trkpt lat="44.81016776542295" lon="9.89689853553642"><ele>234.0</ele><time>2026-05-01T15:58:04Z</time></trkpt><trkpt lat="44.81014903621773" lon="9.897032092260996"><ele>230.79999999999998</ele><time>2026-05-01T15:58:05Z</time></trkpt><trkpt lat="44.81012178973538" lon="9.897186569494254"><ele>227.59999999999997</ele><time>2026-05-01T15:58:06Z</time></trkpt><trkpt lat="44.8100881446716" lon="9.897288237193914"><ele>224.4</ele><time>2026-05-01T15:58:07Z</time></trkpt><trkpt lat="44.80998372409454" lon="9.897337942318961"><ele>221.2</ele><time>2026-05-01T15:58:09Z</time></trkpt><trkpt lat="44.809895243059316" lon="9.89735922750274"><ele>218.0</ele><time>2026-05-01T15:58:10Z</time></trkpt><trkpt lat="44.809766616632295" lon="9.897400358443768"><ele>218.0</ele><time>2026-05-01T15:58:11Z</time></trkpt><trkpt lat="44.80962372969175" lon="9.89747946213063"><ele>218.0</ele><time>2026-05-01T15:58:12Z</time></trkpt><trkpt lat="44.8094659552261" lon="9.897636635507997"><ele>218.0</ele><time>2026-05-01T15:58:13Z</time></trkpt><trkpt lat="44.809330617345736" lon="9.897757603936913"><ele>216.0</ele><time>2026-05-01T15:58:14Z</time></trkpt><trkpt lat="44.809235171947165" lon="9.897785817980704"><ele>214.0</ele><time>2026-05-01T15:58:15Z</time></trkpt><trkpt lat="44.809128888591005" lon="9.897830003120326"><ele>212.0</ele><time>2026-05-01T15:58:16Z</time></trkpt><trkpt lat="44.809021199403944" lon="9.89785535852552"><ele>210.0</ele><time>2026-05-01T15:58:17Z</time></trkpt><trkpt lat="44.80892244453897" lon="9.897856214141678"><ele>208.0</ele><time>2026-05-01T15:58:18Z</time></trkpt><trkpt lat="44.808803427433475" lon="9.897850565269259"><ele>208.0</ele><time>2026-05-01T15:58:19Z</time></trkpt><trkpt lat="44.808663413878804" lon="9.897835870830336"><ele>208.0</ele><time>2026-05-01T15:58:20Z</time></trkpt><trkpt lat="44.80853579275197" lon="9.897796464880017"><ele>208.0</ele><time>2026-05-01T15:58:21Z</time></trkpt><trkpt lat="44.80842569129924" lon="9.89772858978627"><ele>208.0</ele><time>2026-05-01T15:58:22Z</time></trkpt><trkpt lat="44.80831269929129" lon="9.897656381722793"><ele>209.25</ele><time>2026-05-01T15:58:23Z</time></trkpt><trkpt lat="44.80819109412572" lon="9.897571710486728"><ele>210.5</ele><time>2026-05-01T15:58:24Z</time></trkpt><trkpt lat="44.80806424757332" lon="9.89748298866836"><ele>211.75</ele><time>2026-05-01T15:58:25Z</time></trkpt><trkpt lat="44.807923066303" lon="9.897419873367623"><ele>213.0</ele><time>2026-05-01T15:58:26Z</time></trkpt><trkpt lat="44.807823672380074" lon="9.897373337691834"><ele>213.0</ele><time>2026-05-01T15:58:27Z</time></trkpt><trkpt lat="44.80772320121602" lon="9.897358571885482"><ele>213.0</ele><time>2026-05-01T15:58:28Z</time></trkpt><trkpt lat="44.80759047710873" lon="9.897340712703873"><ele>213.0</ele><time>2026-05-01T15:58:29Z</time></trkpt><trkpt lat="44.80746098172556" lon="9.897334463328654"><ele>213.0</ele><time>2026-05-01T15:58:30Z</time></trkpt><trkpt lat="44.80736859276434" lon="9.89735400473257"><ele>212.4</ele><time>2026-05-01T15:58:31Z</time></trkpt><trkpt lat="44.80727716583115" lon="9.897393240124005"><ele>211.8</ele><time>2026-05-01T15:58:33.001Z</time></trkpt><trkpt lat="44.80721965848127" lon="9.897450801245506"><ele>211.2</ele><time>2026-05-01T15:58:43.001Z</time></trkpt><trkpt lat="44.807145010114766" lon="9.897506562385244"><ele>210.6</ele><time>2026-05-01T15:58:44.001Z</time></trkpt><trkpt lat="44.807064517121724" lon="9.897585958536498"><ele>210.0</ele><time>2026-05-01T15:58:45.001Z</time></trkpt><trkpt lat="44.806963993284064" lon="9.897619908815042"><ele>209.83333333333334</ele><time>2026-05-01T15:58:47Z</time></trkpt><trkpt lat="44.80687672866677" lon="9.897616460913687"><ele>209.66666666666669</ele><time>2026-05-01T15:58:49Z</time></trkpt><trkpt lat="44.80680256793048" lon="9.897645195180026"><ele>209.5</ele><time>2026-05-01T15:58:51Z</time></trkpt><trkpt lat="44.80674767746746" lon="9.897688778661873"><ele>209.33333333333334</ele><time>2026-05-01T15:58:53Z</time></trkpt><trkpt lat="44.8066544870574" lon="9.897708898492715"><ele>209.16666666666669</ele><time>2026-05-01T15:59:06Z</time></trkpt><trkpt lat="44.806581448671956" lon="9.897723950813178"><ele>209.0</ele><time>2026-05-01T15:59:08Z</time></trkpt><trkpt lat="44.806518350002094" lon="9.897749761558416"><ele>208.0</ele><time>2026-05-01T15:59:10Z</time></trkpt><trkpt lat="44.806440589429286" lon="9.897734698004951"><ele>207.0</ele><time>2026-05-01T15:59:12Z</time></trkpt><trkpt lat="44.806380107795746" lon="9.897760304059403"><ele>206.0</ele><time>2026-05-01T15:59:13Z</time></trkpt><trkpt lat="44.80624940820986" lon="9.89779060735138"><ele>205.0</ele><time>2026-05-01T15:59:15Z</time></trkpt><trkpt lat="44.8061767314896" lon="9.89783059952768"><ele>204.0</ele><time>2026-05-01T15:59:17Z</time></trkpt><trkpt lat="44.80616986353522" lon="9.89797867359527"><ele>204.0</ele><time>2026-05-01T15:59:19Z</time></trkpt><trkpt lat="44.80615364058998" lon="9.898085480247287"><ele>204.0</ele><time>2026-05-01T15:59:20Z</time></trkpt><trkpt lat="44.80612475177381" lon="9.898204332239771"><ele>204.0</ele><time>2026-05-01T15:59:21Z</time></trkpt><trkpt lat="44.806125743301536" lon="9.898328379926092"><ele>204.0</ele><time>2026-05-01T15:59:23Z</time></trkpt><trkpt lat="44.806145300236025" lon="9.898413814076346"><ele>204.0</ele><time>2026-05-01T15:59:25Z</time></trkpt><trkpt lat="44.8061635048783" lon="9.898542168829353"><ele>204.0</ele><time>2026-05-01T15:59:28Z</time></trkpt><trkpt lat="44.8061752214745" lon="9.898641348139725"><ele>204.0</ele><time>2026-05-01T15:59:29Z</time></trkpt><trkpt lat="44.80619471735438" lon="9.898740817721993"><ele>204.0</ele><time>2026-05-01T15:59:30Z</time></trkpt><trkpt lat="44.806231189292916" lon="9.8988909028421"><ele>204.0</ele><time>2026-05-01T15:59:32Z</time></trkpt><trkpt lat="44.80627908300413" lon="9.899018636027314"><ele>204.0</ele><time>2026-05-01T15:59:34Z</time></trkpt><trkpt lat="44.806307860452556" lon="9.89909763798277"><ele>204.0</ele><time>2026-05-01T15:59:35Z</time></trkpt><trkpt lat="44.80635733788882" lon="9.899217899674367"><ele>204.33333333333334</ele><time>2026-05-01T15:59:36Z</time></trkpt><trkpt lat="44.80641063718082" lon="9.899331082962929"><ele>204.66666666666669</ele><time>2026-05-01T15:59:37Z</time></trkpt><trkpt lat="44.80644913374965" lon="9.899429611178011"><ele>205.0</ele><time>2026-05-01T15:59:38Z</time></trkpt><trkpt lat="44.80647614651481" lon="9.899536976712758"><ele>205.33333333333334</ele><time>2026-05-01T15:59:39Z</time></trkpt><trkpt lat="44.806499329526865" lon="9.899619529974576"><ele>205.66666666666669</ele><time>2026-05-01T15:59:40Z</time></trkpt><trkpt lat="44.80653035625648" lon="9.899699012169759"><ele>206.0</ele><time>2026-05-01T15:59:41Z</time></trkpt><trkpt lat="44.8066225371003" lon="9.899875613661385"><ele>206.0</ele><time>2026-05-01T15:59:43Z</time></trkpt><trkpt lat="44.80664063533963" lon="9.899977706668514"><ele>206.0</ele><time>2026-05-01T15:59:44Z</time></trkpt><trkpt lat="44.806651776089296" lon="9.900091234545762"><ele>206.0</ele><time>2026-05-01T15:59:46Z</time></trkpt><trkpt lat="44.80670552348074" lon="9.900232016019428"><ele>206.0</ele><time>2026-05-01T15:59:49Z</time></trkpt><trkpt lat="44.80675174469703" lon="9.900396662676856"><ele>206.0</ele><time>2026-05-01T15:59:51Z</time></trkpt><trkpt lat="44.80675773595436" lon="9.900518501286818"><ele>206.16666666666669</ele><time>2026-05-01T15:59:52Z</time></trkpt><trkpt lat="44.80680903043479" lon="9.900633104576473"><ele>206.33333333333334</ele><time>2026-05-01T15:59:54Z</time></trkpt><trkpt lat="44.80675312233059" lon="9.900572068471233"><ele>206.5</ele><time>2026-05-01T15:59:59Z</time></trkpt><trkpt lat="44.806818262983406" lon="9.900633828134227"><ele>206.66666666666669</ele><time>2026-05-01T16:00:10Z</time></trkpt><trkpt lat="44.80682082738355" lon="9.90072703860004"><ele>206.83333333333334</ele><time>2026-05-01T16:00:11Z</time></trkpt><trkpt lat="44.80686879525234" lon="9.90082052651071"><ele>207.0</ele><time>2026-05-01T16:00:12Z</time></trkpt><trkpt lat="44.80691424443437" lon="9.900969317989432"><ele>206.0</ele><time>2026-05-01T16:00:13Z</time></trkpt><trkpt lat="44.8069745128402" lon="9.901143786166633"><ele>205.0</ele><time>2026-05-01T16:00:14Z</time></trkpt><trkpt lat="44.807041458723226" lon="9.901342866460363"><ele>204.0</ele><time>2026-05-01T16:00:15Z</time></trkpt><trkpt lat="44.80711106448219" lon="9.901557461685199"><ele>204.0</ele><time>2026-05-01T16:00:16Z</time></trkpt><trkpt lat="44.80717335137179" lon="9.901736294096748"><ele>204.0</ele><time>2026-05-01T16:00:17Z</time></trkpt><trkpt lat="44.8072075770317" lon="9.901876853050844"><ele>204.0</ele><time>2026-05-01T16:00:18Z</time></trkpt><trkpt lat="44.80723128388409" lon="9.902046604509437"><ele>204.0</ele><time>2026-05-01T16:00:19Z</time></trkpt><trkpt lat="44.80731275169189" lon="9.902190489798041"><ele>204.5</ele><time>2026-05-01T16:00:22Z</time></trkpt><trkpt lat="44.80737565760751" lon="9.902294529256471"><ele>205.0</ele><time>2026-05-01T16:00:23Z</time></trkpt><trkpt lat="44.8074579270987" lon="9.90240515161699"><ele>205.5</ele><time>2026-05-01T16:00:24Z</time></trkpt><trkpt lat="44.80755534876299" lon="9.902531691363682"><ele>206.0</ele><time>2026-05-01T16:00:25Z</time></trkpt><trkpt lat="44.80765864058883" lon="9.902685937280111"><ele>205.8</ele><time>2026-05-01T16:00:26Z</time></trkpt><trkpt lat="44.807748288839484" lon="9.902808096497976"><ele>205.60000000000002</ele><time>2026-05-01T16:00:27Z</time></trkpt><trkpt lat="44.80782829611172" lon="9.902911013244436"><ele>205.4</ele><time>2026-05-01T16:00:28Z</time></trkpt><trkpt lat="44.80790111260217" lon="9.903006163949982"><ele>205.2</ele><time>2026-05-01T16:00:29Z</time></trkpt><trkpt lat="44.80795112965187" lon="9.903100144074248"><ele>205.0</ele><time>2026-05-01T16:00:30Z</time></trkpt><trkpt lat="44.80802621448437" lon="9.903201754150302"><ele>205.0</ele><time>2026-05-01T16:00:32Z</time></trkpt><trkpt lat="44.80811517108717" lon="9.903322136436618"><ele>205.0</ele><time>2026-05-01T16:00:34Z</time></trkpt><trkpt lat="44.80817771828344" lon="9.90340353390859"><ele>205.0</ele><time>2026-05-01T16:00:35Z</time></trkpt><trkpt lat="44.80824547347957" lon="9.90347745907986"><ele>205.0</ele><time>2026-05-01T16:00:36Z</time></trkpt><trkpt lat="44.80833983766189" lon="9.90356022113294"><ele>205.0</ele><time>2026-05-01T16:00:37Z</time></trkpt><trkpt lat="44.80845411593421" lon="9.903662825509727"><ele>204.0</ele><time>2026-05-01T16:00:38.001Z</time></trkpt><trkpt lat="44.808571562851455" lon="9.903761747577665"><ele>203.0</ele><time>2026-05-01T16:00:39.001Z</time></trkpt><trkpt lat="44.80866078649164" lon="9.90387219951844"><ele>202.0</ele><time>2026-05-01T16:00:40.001Z</time></trkpt><trkpt lat="44.80876093513295" lon="9.903988614396958"><ele>201.0</ele><time>2026-05-01T16:00:41.001Z</time></trkpt><trkpt lat="44.808832759527405" lon="9.90409299868036"><ele>201.0</ele><time>2026-05-01T16:00:42.001Z</time></trkpt><trkpt lat="44.80888886730528" lon="9.904203138527759"><ele>201.0</ele><time>2026-05-01T16:00:43.001Z</time></trkpt><trkpt lat="44.80895638407159" lon="9.904383551063097"><ele>201.0</ele><time>2026-05-01T16:00:44.001Z</time></trkpt><trkpt lat="44.80903833287462" lon="9.904580056345349"><ele>201.0</ele><time>2026-05-01T16:00:45.001Z</time></trkpt><trkpt lat="44.809151114443104" lon="9.904706022422808"><ele>202.33333333333331</ele><time>2026-05-01T16:00:46.001Z</time></trkpt><trkpt lat="44.80926366907687" lon="9.904881211955548"><ele>203.66666666666666</ele><time>2026-05-01T16:00:47.001Z</time></trkpt><trkpt lat="44.809342613374106" lon="9.905087502663026"><ele>205.0</ele><time>2026-05-01T16:00:48.001Z</time></trkpt><trkpt lat="44.80942842978603" lon="9.90527966445775"><ele>205.0</ele><time>2026-05-01T16:00:49.001Z</time></trkpt><trkpt lat="44.80950347433118" lon="9.905409487972804"><ele>205.0</ele><time>2026-05-01T16:00:50.001Z</time></trkpt><trkpt lat="44.80957386934542" lon="9.905512667983995"><ele>205.0</ele><time>2026-05-01T16:00:51.001Z</time></trkpt><trkpt lat="44.80967060360227" lon="9.905612485274347"><ele>205.0</ele><time>2026-05-01T16:00:52.001Z</time></trkpt><trkpt lat="44.80978744786632" lon="9.905695897345577"><ele>205.0</ele><time>2026-05-01T16:00:53Z</time></trkpt><trkpt lat="44.809923169738866" lon="9.90580814380354"><ele>205.0</ele><time>2026-05-01T16:00:54Z</time></trkpt><trkpt lat="44.81002497467311" lon="9.905916863451571"><ele>205.0</ele><time>2026-05-01T16:00:55Z</time></trkpt><trkpt lat="44.81011398980735" lon="9.90602472191968"><ele>205.0</ele><time>2026-05-01T16:00:56Z</time></trkpt><trkpt lat="44.810203835076436" lon="9.906106115655826"><ele>204.0</ele><time>2026-05-01T16:00:57Z</time></trkpt><trkpt lat="44.81028861797638" lon="9.906179201124461"><ele>203.0</ele><time>2026-05-01T16:00:58Z</time></trkpt><trkpt lat="44.81041190118563" lon="9.906206713593633"><ele>202.0</ele><time>2026-05-01T16:00:59Z</time></trkpt><trkpt lat="44.81051818363895" lon="9.906247421121998"><ele>201.0</ele><time>2026-05-01T16:01:00Z</time></trkpt><trkpt lat="44.810604190354866" lon="9.906246366151322"><ele>200.0</ele><time>2026-05-01T16:01:01Z</time></trkpt><trkpt lat="44.81066041571613" lon="9.906323044404802"><ele>200.0</ele><time>2026-05-01T16:01:02Z</time></trkpt><trkpt lat="44.81072223893537" lon="9.906390352158061"><ele>200.0</ele><time>2026-05-01T16:01:03Z</time></trkpt><trkpt lat="44.810783590419305" lon="9.90647913710368"><ele>200.0</ele><time>2026-05-01T16:01:04Z</time></trkpt><trkpt lat="44.81087514961558" lon="9.906622282861942"><ele>200.0</ele><time>2026-05-01T16:01:05Z</time></trkpt><trkpt lat="44.81098992558899" lon="9.906783276967051"><ele>198.66666666666669</ele><time>2026-05-01T16:01:06Z</time></trkpt><trkpt lat="44.811098094310466" lon="9.906911758366682"><ele>197.33333333333331</ele><time>2026-05-01T16:01:07Z</time></trkpt><trkpt lat="44.81121099457708" lon="9.907064926255405"><ele>196.0</ele><time>2026-05-01T16:01:08Z</time></trkpt><trkpt lat="44.811346909137754" lon="9.907238717895524"><ele>196.0</ele><time>2026-05-01T16:01:09Z</time></trkpt><trkpt lat="44.81149441532504" lon="9.907435763755327"><ele>196.0</ele><time>2026-05-01T16:01:10Z</time></trkpt><trkpt lat="44.81161207927399" lon="9.907597064236342"><ele>196.0</ele><time>2026-05-01T16:01:11Z</time></trkpt><trkpt lat="44.811702012568325" lon="9.907748358789211"><ele>195.75</ele><time>2026-05-01T16:01:12Z</time></trkpt><trkpt lat="44.811794623096766" lon="9.907879850535258"><ele>195.5</ele><time>2026-05-01T16:01:13Z</time></trkpt><trkpt lat="44.81189192304931" lon="9.90800899279518"><ele>195.25</ele><time>2026-05-01T16:01:14Z</time></trkpt><trkpt lat="44.811983467489355" lon="9.908121911535078"><ele>195.0</ele><time>2026-05-01T16:01:15Z</time></trkpt><trkpt lat="44.812024696376525" lon="9.908236149766505"><ele>194.75</ele><time>2026-05-01T16:01:16Z</time></trkpt><trkpt lat="44.8120590168676" lon="9.908322372674196"><ele>194.5</ele><time>2026-05-01T16:01:17Z</time></trkpt><trkpt lat="44.81211368800063" lon="9.908457402333392"><ele>194.25</ele><time>2026-05-01T16:01:18Z</time></trkpt><trkpt lat="44.81219233181331" lon="9.90863621752849"><ele>194.0</ele><time>2026-05-01T16:01:19Z</time></trkpt><trkpt lat="44.81228055611315" lon="9.908830647953256"><ele>194.66666666666669</ele><time>2026-05-01T16:01:20Z</time></trkpt><trkpt lat="44.81239491807016" lon="9.909054705389716"><ele>195.33333333333331</ele><time>2026-05-01T16:01:21Z</time></trkpt><trkpt lat="44.812526904654106" lon="9.909234047570083"><ele>196.0</ele><time>2026-05-01T16:01:22Z</time></trkpt><trkpt lat="44.81262377177399" lon="9.909395547814373"><ele>194.66666666666666</ele><time>2026-05-01T16:01:23Z</time></trkpt><trkpt lat="44.812705604016564" lon="9.90956022942545"><ele>193.33333333333331</ele><time>2026-05-01T16:01:24Z</time></trkpt><trkpt lat="44.812821693754685" lon="9.909689293524169"><ele>192.0</ele><time>2026-05-01T16:01:25Z</time></trkpt><trkpt lat="44.81294549458443" lon="9.909840293712312"><ele>192.0</ele><time>2026-05-01T16:01:26Z</time></trkpt><trkpt lat="44.8130813638478" lon="9.90998729158252"><ele>192.0</ele><time>2026-05-01T16:01:27Z</time></trkpt><trkpt lat="44.81322609644162" lon="9.910148261076575"><ele>192.0</ele><time>2026-05-01T16:01:28Z</time></trkpt><trkpt lat="44.813355755288065" lon="9.910313520255112"><ele>192.0</ele><time>2026-05-01T16:01:29Z</time></trkpt><trkpt lat="44.81347849003514" lon="9.910453621835853"><ele>192.0</ele><time>2026-05-01T16:01:30Z</time></trkpt><trkpt lat="44.81361049074761" lon="9.910570583044823"><ele>192.0</ele><time>2026-05-01T16:01:31Z</time></trkpt><trkpt lat="44.8137238276665" lon="9.91070024515217"><ele>192.0</ele><time>2026-05-01T16:01:32Z</time></trkpt><trkpt lat="44.81384633300677" lon="9.910816350993734"><ele>192.0</ele><time>2026-05-01T16:01:33Z</time></trkpt><trkpt lat="44.81392627925962" lon="9.910939609915365"><ele>192.0</ele><time>2026-05-01T16:01:34Z</time></trkpt><trkpt lat="44.81399577378238" lon="9.91104010089013"><ele>192.0</ele><time>2026-05-01T16:01:35Z</time></trkpt><trkpt lat="44.814078028835056" lon="9.911174912592461"><ele>191.66666666666666</ele><time>2026-05-01T16:01:36Z</time></trkpt><trkpt lat="44.81416278126752" lon="9.911336973748261"><ele>191.33333333333331</ele><time>2026-05-01T16:01:37Z</time></trkpt><trkpt lat="44.81427609539327" lon="9.911526155120212"><ele>191.0</ele><time>2026-05-01T16:01:38Z</time></trkpt><trkpt lat="44.81437603168902" lon="9.911681157306473"><ele>190.5</ele><time>2026-05-01T16:01:39Z</time></trkpt><trkpt lat="44.814470229739" lon="9.911799088173437"><ele>190.0</ele><time>2026-05-01T16:01:40Z</time></trkpt><trkpt lat="44.81452240174855" lon="9.911922819843591"><ele>189.5</ele><time>2026-05-01T16:01:41Z</time></trkpt><trkpt lat="44.814562075034864" lon="9.912047264817856"><ele>189.0</ele><time>2026-05-01T16:01:42Z</time></trkpt><trkpt lat="44.814590242195074" lon="9.91221906086923"><ele>189.0</ele><time>2026-05-01T16:01:43Z</time></trkpt><trkpt lat="44.81460006739799" lon="9.912382380623963"><ele>189.0</ele><time>2026-05-01T16:01:44Z</time></trkpt><trkpt lat="44.814619223071915" lon="9.912477148661276"><ele>189.0</ele><time>2026-05-01T16:01:45Z</time></trkpt><trkpt lat="44.81466658531144" lon="9.912584893061096"><ele>189.0</ele><time>2026-05-01T16:01:47Z</time></trkpt><trkpt lat="44.81476796599597" lon="9.912687339869484"><ele>189.0</ele><time>2026-05-01T16:01:49Z</time></trkpt><trkpt lat="44.814856768026075" lon="9.912805866903511"><ele>189.66666666666666</ele><time>2026-05-01T16:01:50Z</time></trkpt><trkpt lat="44.81498651754129" lon="9.912963397952227"><ele>190.33333333333331</ele><time>2026-05-01T16:01:51Z</time></trkpt><trkpt lat="44.81512172209367" lon="9.913183029514427"><ele>191.0</ele><time>2026-05-01T16:01:52Z</time></trkpt><trkpt lat="44.815254273490794" lon="9.913326369358629"><ele>192.5</ele><time>2026-05-01T16:01:53Z</time></trkpt><trkpt lat="44.81535828465043" lon="9.913455333532825"><ele>194.0</ele><time>2026-05-01T16:01:54Z</time></trkpt><trkpt lat="44.815460003173534" lon="9.913555639435948"><ele>195.5</ele><time>2026-05-01T16:01:55Z</time></trkpt><trkpt lat="44.81557130382217" lon="9.91361625256331"><ele>197.0</ele><time>2026-05-01T16:01:56Z</time></trkpt><trkpt lat="44.815704014378205" lon="9.913649845060238"><ele>197.0</ele><time>2026-05-01T16:01:57Z</time></trkpt><trkpt lat="44.81582213346431" lon="9.913608087222377"><ele>197.0</ele><time>2026-05-01T16:01:58Z</time></trkpt><trkpt lat="44.81592370798225" lon="9.913519657323912"><ele>197.0</ele><time>2026-05-01T16:01:59Z</time></trkpt><trkpt lat="44.81603339834538" lon="9.913456304095666"><ele>197.0</ele><time>2026-05-01T16:02:00Z</time></trkpt><trkpt lat="44.81613812020203" lon="9.913443036746827"><ele>196.0</ele><time>2026-05-01T16:02:01Z</time></trkpt><trkpt lat="44.816226387018105" lon="9.91349188429504"><ele>195.0</ele><time>2026-05-01T16:02:02Z</time></trkpt><trkpt lat="44.8163178974051" lon="9.91358338206112"><ele>194.0</ele><time>2026-05-01T16:02:03Z</time></trkpt><trkpt lat="44.816432225967816" lon="9.913712319956794"><ele>193.0</ele><time>2026-05-01T16:02:04Z</time></trkpt><trkpt lat="44.81657266974998" lon="9.913870376949678"><ele>193.0</ele><time>2026-05-01T16:02:05Z</time></trkpt><trkpt lat="44.81673543137714" lon="9.914046707804175"><ele>193.0</ele><time>2026-05-01T16:02:06Z</time></trkpt><trkpt lat="44.81685361724016" lon="9.9141977910148"><ele>193.0</ele><time>2026-05-01T16:02:07Z</time></trkpt><trkpt lat="44.81693840981076" lon="9.914329591654958"><ele>192.2</ele><time>2026-05-01T16:02:08Z</time></trkpt><trkpt lat="44.8169938505284" lon="9.91446796789"><ele>191.4</ele><time>2026-05-01T16:02:09Z</time></trkpt><trkpt lat="44.81705136072247" lon="9.914620130458763"><ele>190.6</ele><time>2026-05-01T16:02:10Z</time></trkpt><trkpt lat="44.81710802650916" lon="9.914759221011224"><ele>189.79999999999998</ele><time>2026-05-01T16:02:11Z</time></trkpt><trkpt lat="44.81715734234948" lon="9.914877040281931"><ele>189.0</ele><time>2026-05-01T16:02:12Z</time></trkpt><trkpt lat="44.8172098666926" lon="9.915005395692086"><ele>189.5</ele><time>2026-05-01T16:02:13Z</time></trkpt><trkpt lat="44.817267259209224" lon="9.915154392873452"><ele>190.0</ele><time>2026-05-01T16:02:14Z</time></trkpt><trkpt lat="44.817302465923326" lon="9.915253495757907"><ele>190.5</ele><time>2026-05-01T16:02:15Z</time></trkpt><trkpt lat="44.817330255526244" lon="9.915338593469984"><ele>191.0</ele><time>2026-05-01T16:02:17Z</time></trkpt><trkpt lat="44.8172226101469" lon="9.91533912207092"><ele>191.5</ele><time>2026-05-01T16:02:21.001Z</time></trkpt><trkpt lat="44.8171534645017" lon="9.915367613644008"><ele>192.0</ele><time>2026-05-01T16:02:22.001Z</time></trkpt><trkpt lat="44.81708377556085" lon="9.91539675182116"><ele>192.0</ele><time>2026-05-01T16:02:23.001Z</time></trkpt><trkpt lat="44.81695437163476" lon="9.915452044951946"><ele>192.0</ele><time>2026-05-01T16:02:25.001Z</time></trkpt><trkpt lat="44.8168854887122" lon="9.915480846716408"><ele>192.0</ele><time>2026-05-01T16:02:26.001Z</time></trkpt><trkpt lat="44.81679748070473" lon="9.915524806630003"><ele>192.0</ele><time>2026-05-01T16:02:27.001Z</time></trkpt><trkpt lat="44.81672541100551" lon="9.91555196234744"><ele>192.0</ele><time>2026-05-01T16:02:28.001Z</time></trkpt><trkpt lat="44.81665951748684" lon="9.915573392373986"><ele>192.0</ele><time>2026-05-01T16:02:30.001Z</time></trkpt><trkpt lat="44.8165990805096" lon="9.915656177209165"><ele>194.25</ele><time>2026-05-01T16:02:33.001Z</time></trkpt><trkpt lat="44.816625787953924" lon="9.916004896032419"><ele>196.5</ele><time>2026-05-01T16:02:36.001Z</time></trkpt><trkpt lat="44.816570696850455" lon="9.916112340414466"><ele>198.75</ele><time>2026-05-01T16:02:37.001Z</time></trkpt><trkpt lat="44.81651770050047" lon="9.916209741353699"><ele>201.0</ele><time>2026-05-01T16:02:38.001Z</time></trkpt><trkpt lat="44.8164842248147" lon="9.91629340845179"><ele>201.0</ele><time>2026-05-01T16:02:39.001Z</time></trkpt><trkpt lat="44.81641413156357" lon="9.916391587700035"><ele>201.0</ele><time>2026-05-01T16:02:41.001Z</time></trkpt><trkpt lat="44.8163702879437" lon="9.916455481564515"><ele>201.0</ele><time>2026-05-01T16:02:42.001Z</time></trkpt><trkpt lat="44.81628306613087" lon="9.916514229877931"><ele>201.0</ele><time>2026-05-01T16:02:44.001Z</time></trkpt><trkpt lat="44.816167596615365" lon="9.916581663882006"><ele>201.0</ele><time>2026-05-01T16:02:46.001Z</time></trkpt><trkpt lat="44.81610012285236" lon="9.916631476478374"><ele>201.5</ele><time>2026-05-01T16:02:47.001Z</time></trkpt><trkpt lat="44.815983525734914" lon="9.916704965657091"><ele>202.0</ele><time>2026-05-01T16:02:49.001Z</time></trkpt><trkpt lat="44.81592085626871" lon="9.916726221379545"><ele>202.5</ele><time>2026-05-01T16:02:50.001Z</time></trkpt><trkpt lat="44.81585166277441" lon="9.916748045732032"><ele>203.0</ele><time>2026-05-01T16:02:51.001Z</time></trkpt><trkpt lat="44.81578446312123" lon="9.916694633621987"><ele>203.5</ele><time>2026-05-01T16:02:53.001Z</time></trkpt><trkpt lat="44.81575566135947" lon="9.916566344938401"><ele>204.0</ele><time>2026-05-01T16:02:55.001Z</time></trkpt><trkpt lat="44.815773589266534" lon="9.916413058315587"><ele>206.5</ele><time>2026-05-01T16:02:57.001Z</time></trkpt><trkpt lat="44.81575689594356" lon="9.916277414955772"><ele>209.0</ele><time>2026-05-01T16:02:59Z</time></trkpt><trkpt lat="44.815680040124356" lon="9.91624034644738"><ele>211.5</ele><time>2026-05-01T16:03:01Z</time></trkpt><trkpt lat="44.81561692891989" lon="9.91627269091148"><ele>214.0</ele><time>2026-05-01T16:03:02Z</time></trkpt><trkpt lat="44.815535569439675" lon="9.916322177076607"><ele>216.5</ele><time>2026-05-01T16:03:03Z</time></trkpt><trkpt lat="44.8154497373287" lon="9.916387456137365"><ele>219.0</ele><time>2026-05-01T16:03:04Z</time></trkpt><trkpt lat="44.81533578614884" lon="9.916430705150148"><ele>219.0</ele><time>2026-05-01T16:03:06Z</time></trkpt><trkpt lat="44.8152703750037" lon="9.916442180852735"><ele>218.99999999999997</ele><time>2026-05-01T16:03:08Z</time></trkpt><trkpt lat="44.81517662986866" lon="9.916432557100647"><ele>218.99999999999997</ele><time>2026-05-01T16:03:49.001Z</time></trkpt><trkpt lat="44.81505866426063" lon="9.916385930632517"><ele>219.0</ele><time>2026-05-01T16:03:51.001Z</time></trkpt><trkpt lat="44.81495981456728" lon="9.916314831722804"><ele>219.0</ele><time>2026-05-01T16:03:53.001Z</time></trkpt><trkpt lat="44.814884830918075" lon="9.916263156877523"><ele>219.39999999999998</ele><time>2026-05-01T16:03:54.001Z</time></trkpt><trkpt lat="44.81479089030311" lon="9.916217850199239"><ele>219.79999999999998</ele><time>2026-05-01T16:03:55.001Z</time></trkpt><trkpt lat="44.81471121971309" lon="9.91617896785236"><ele>220.20000000000002</ele><time>2026-05-01T16:03:56.001Z</time></trkpt><trkpt lat="44.814624718045444" lon="9.916132667492446"><ele>220.60000000000002</ele><time>2026-05-01T16:03:57.001Z</time></trkpt><trkpt lat="44.814551370878036" lon="9.916116939295893"><ele>221.0</ele><time>2026-05-01T16:03:58.001Z</time></trkpt><trkpt lat="44.81443890728612" lon="9.916104594465656"><ele>221.00000000000003</ele><time>2026-05-01T16:04:00.001Z</time></trkpt><trkpt lat="44.81436739080823" lon="9.916072255241408"><ele>221.0</ele><time>2026-05-01T16:04:02.001Z</time></trkpt><trkpt lat="44.81430005665144" lon="9.916018322044573"><ele>221.0</ele><time>2026-05-01T16:06:27Z</time></trkpt><trkpt lat="44.814232689287074" lon="9.915955810069027"><ele>221.0</ele><time>2026-05-01T16:06:30Z</time></trkpt><trkpt lat="44.8141832733228" lon="9.915887853401992"><ele>221.00000000000003</ele><time>2026-05-01T16:06:32Z</time></trkpt><trkpt lat="44.81409842465408" lon="9.915837310167358"><ele>221.0</ele><time>2026-05-01T16:10:34Z</time></trkpt><trkpt lat="44.81403203461026" lon="9.91584816343713"><ele>224.60000000000002</ele><time>2026-05-01T16:10:36Z</time></trkpt><trkpt lat="44.81390923252584" lon="9.915882724570576"><ele>228.20000000000002</ele><time>2026-05-01T16:10:38Z</time></trkpt><trkpt lat="44.813799337203754" lon="9.915894109441272"><ele>231.79999999999998</ele><time>2026-05-01T16:10:40Z</time></trkpt><trkpt lat="44.813734887390034" lon="9.91588324938646"><ele>235.39999999999998</ele><time>2026-05-01T16:10:41Z</time></trkpt><trkpt lat="44.81366708192165" lon="9.915855749994233"><ele>239.0</ele><time>2026-05-01T16:10:42Z</time></trkpt><trkpt lat="44.81358753036373" lon="9.915830077281306"><ele>239.00000000000003</ele><time>2026-05-01T16:10:43Z</time></trkpt><trkpt lat="44.813518215943006" lon="9.915795010705176"><ele>239.0</ele><time>2026-05-01T16:10:44Z</time></trkpt><trkpt lat="44.81346091254093" lon="9.915757475162485"><ele>239.0</ele><time>2026-05-01T16:10:45Z</time></trkpt><trkpt lat="44.813348958434" lon="9.915712353413477"><ele>239.0</ele><time>2026-05-01T16:10:47Z</time></trkpt><trkpt lat="44.813276607765886" lon="9.915690620996028"><ele>239.00000000000003</ele><time>2026-05-01T16:10:48Z</time></trkpt><trkpt lat="44.813174180630966" lon="9.915670374103293"><ele>239.0</ele><time>2026-05-01T16:10:49Z</time></trkpt><trkpt lat="44.81309563057443" lon="9.915668262672359"><ele>241.66666666666669</ele><time>2026-05-01T16:10:50Z</time></trkpt><trkpt lat="44.81298337812325" lon="9.915640813989155"><ele>244.33333333333334</ele><time>2026-05-01T16:10:52Z</time></trkpt><trkpt lat="44.81290794471946" lon="9.915619478127255"><ele>247.0</ele><time>2026-05-01T16:10:53Z</time></trkpt><trkpt lat="44.812825858664006" lon="9.915600296344167"><ele>249.66666666666669</ele><time>2026-05-01T16:10:54Z</time></trkpt><trkpt lat="44.81274809734675" lon="9.915591572491063"><ele>252.33333333333334</ele><time>2026-05-01T16:10:55Z</time></trkpt><trkpt lat="44.81267377941139" lon="9.915586262075829"><ele>255.0</ele><time>2026-05-01T16:10:56Z</time></trkpt><trkpt lat="44.81259585252327" lon="9.915591386724966"><ele>256.5</ele><time>2026-05-01T16:10:57Z</time></trkpt><trkpt lat="44.812509654727585" lon="9.915608292205402"><ele>258.0</ele><time>2026-05-01T16:10:58Z</time></trkpt><trkpt lat="44.81241729837823" lon="9.915622094376833"><ele>259.5</ele><time>2026-05-01T16:10:59Z</time></trkpt><trkpt lat="44.81232301250526" lon="9.915631333921251"><ele>261.0</ele><time>2026-05-01T16:11:00Z</time></trkpt><trkpt lat="44.81223396416609" lon="9.915636611108772"><ele>262.5</ele><time>2026-05-01T16:11:01Z</time></trkpt><trkpt lat="44.81215107267016" lon="9.915650801255204"><ele>264.0</ele><time>2026-05-01T16:11:02Z</time></trkpt><trkpt lat="44.81206554156014" lon="9.915658758304449"><ele>264.0</ele><time>2026-05-01T16:11:03Z</time></trkpt><trkpt lat="44.81198552721383" lon="9.915675068702686"><ele>264.0</ele><time>2026-05-01T16:11:04Z</time></trkpt><trkpt lat="44.811920907515415" lon="9.915682923547413"><ele>264.0</ele><time>2026-05-01T16:11:05Z</time></trkpt><trkpt lat="44.811806448652355" lon="9.915680321000107"><ele>264.0</ele><time>2026-05-01T16:11:07Z</time></trkpt><trkpt lat="44.81167523583264" lon="9.915776100699327"><ele>264.0</ele><time>2026-05-01T16:11:09Z</time></trkpt><trkpt lat="44.81157479927471" lon="9.915868143340614"><ele>264.8</ele><time>2026-05-01T16:11:10Z</time></trkpt><trkpt lat="44.81147508825624" lon="9.91594744359295"><ele>265.59999999999997</ele><time>2026-05-01T16:11:11Z</time></trkpt><trkpt lat="44.811393394151956" lon="9.915991389825155"><ele>266.4</ele><time>2026-05-01T16:11:12Z</time></trkpt><trkpt lat="44.81132512413907" lon="9.916009692734246"><ele>267.2</ele><time>2026-05-01T16:11:13Z</time></trkpt><trkpt lat="44.81124023802105" lon="9.916010387061789"><ele>268.0</ele><time>2026-05-01T16:11:14Z</time></trkpt><trkpt lat="44.811145638406614" lon="9.915988730088396"><ele>268.0</ele><time>2026-05-01T16:11:15Z</time></trkpt><trkpt lat="44.811032271034364" lon="9.915956162426074"><ele>268.0</ele><time>2026-05-01T16:11:16Z</time></trkpt><trkpt lat="44.810924490955486" lon="9.915926164847301"><ele>268.0</ele><time>2026-05-01T16:11:17Z</time></trkpt><trkpt lat="44.81081551539361" lon="9.915911001042973"><ele>268.0</ele><time>2026-05-01T16:11:18Z</time></trkpt><trkpt lat="44.810709264544606" lon="9.915892584360682"><ele>268.0</ele><time>2026-05-01T16:11:19Z</time></trkpt><trkpt lat="44.810623873723394" lon="9.91588094380673"><ele>272.5</ele><time>2026-05-01T16:11:20Z</time></trkpt><trkpt lat="44.81053715851558" lon="9.915872014626284"><ele>277.0</ele><time>2026-05-01T16:11:21Z</time></trkpt><trkpt lat="44.81044733222559" lon="9.91585920643999"><ele>281.5</ele><time>2026-05-01T16:11:22Z</time></trkpt><trkpt lat="44.81035963371362" lon="9.9158380661452"><ele>286.0</ele><time>2026-05-01T16:11:23Z</time></trkpt><trkpt lat="44.81029823512663" lon="9.915811928393163"><ele>290.5</ele><time>2026-05-01T16:11:24Z</time></trkpt><trkpt lat="44.81021511194345" lon="9.915769822641273"><ele>295.0</ele><time>2026-05-01T16:11:26Z</time></trkpt><trkpt lat="44.81013533149453" lon="9.915762277722362"><ele>297.8</ele><time>2026-05-01T16:11:28Z</time></trkpt><trkpt lat="44.81001772076988" lon="9.915763434456755"><ele>300.6</ele><time>2026-05-01T16:11:30Z</time></trkpt><trkpt lat="44.809911478571486" lon="9.915778181240958"><ele>303.4</ele><time>2026-05-01T16:11:32Z</time></trkpt><trkpt lat="44.80983859638564" lon="9.91577886409405"><ele>306.2</ele><time>2026-05-01T16:11:34Z</time></trkpt><trkpt lat="44.80977145202011" lon="9.915686727514633"><ele>309.0</ele><time>2026-05-01T16:11:36Z</time></trkpt><trkpt lat="44.8096952816025" lon="9.915587708952438"><ele>309.0</ele><time>2026-05-01T16:11:38Z</time></trkpt><trkpt lat="44.80959650938777" lon="9.915574660669751"><ele>309.0</ele><time>2026-05-01T16:11:40Z</time></trkpt><trkpt lat="44.809493283217016" lon="9.915583678462784"><ele>309.0</ele><time>2026-05-01T16:11:42Z</time></trkpt><trkpt lat="44.809418532284134" lon="9.915621239056511"><ele>309.0</ele><time>2026-05-01T16:13:45Z</time></trkpt><trkpt lat="44.809347338927836" lon="9.915659784859402"><ele>309.0</ele><time>2026-05-01T16:13:48Z</time></trkpt><trkpt lat="44.809250805217154" lon="9.915648410338878"><ele>312.0</ele><time>2026-05-01T16:13:51Z</time></trkpt><trkpt lat="44.80914465327134" lon="9.915633192736253"><ele>315.0</ele><time>2026-05-01T16:13:53Z</time></trkpt><trkpt lat="44.80904002361822" lon="9.915597433921148"><ele>318.0</ele><time>2026-05-01T16:13:55Z</time></trkpt><trkpt lat="44.80896228431797" lon="9.91556614182054"><ele>321.0</ele><time>2026-05-01T16:13:57Z</time></trkpt><trkpt lat="44.808877332881124" lon="9.915544111149789"><ele>324.0</ele><time>2026-05-01T16:13:59Z</time></trkpt><trkpt lat="44.80877354857555" lon="9.915534167111261"><ele>324.0</ele><time>2026-05-01T16:14:01Z</time></trkpt><trkpt lat="44.80868454380927" lon="9.915584610978499"><ele>324.0</ele><time>2026-05-01T16:14:03Z</time></trkpt><trkpt lat="44.808611688949014" lon="9.915644023354961"><ele>324.0</ele><time>2026-05-01T16:14:05Z</time></trkpt><trkpt lat="44.808529555816456" lon="9.915696696640023"><ele>324.0</ele><time>2026-05-01T16:14:07Z</time></trkpt><trkpt lat="44.8084416678873" lon="9.915686971192901"><ele>324.0</ele><time>2026-05-01T16:14:09Z</time></trkpt><trkpt lat="44.80837429845699" lon="9.91568271581111"><ele>324.0</ele><time>2026-05-01T16:14:10Z</time></trkpt><trkpt lat="44.808300195538536" lon="9.915680659659449"><ele>325.79999999999995</ele><time>2026-05-01T16:14:11Z</time></trkpt><trkpt lat="44.80822944323409" lon="9.915686641939363"><ele>327.59999999999997</ele><time>2026-05-01T16:14:12Z</time></trkpt><trkpt lat="44.80811680478907" lon="9.915691095216623"><ele>329.4</ele><time>2026-05-01T16:14:14Z</time></trkpt><trkpt lat="44.80805242930559" lon="9.91569924211766"><ele>331.2</ele><time>2026-05-01T16:14:15Z</time></trkpt><trkpt lat="44.80795542226441" lon="9.915670433924696"><ele>333.0</ele><time>2026-05-01T16:14:17Z</time></trkpt><trkpt lat="44.80785762819987" lon="9.915615213459857"><ele>333.0</ele><time>2026-05-01T16:14:19Z</time></trkpt><trkpt lat="44.80779193098824" lon="9.915562869523791"><ele>333.0</ele><time>2026-05-01T16:17:11Z</time></trkpt><trkpt lat="44.80771548062791" lon="9.915557454664766"><ele>333.0</ele><time>2026-05-01T16:17:14Z</time></trkpt><trkpt lat="44.80765577344659" lon="9.915592951134219"><ele>333.0</ele><time>2026-05-01T16:17:16Z</time></trkpt><trkpt lat="44.80759190504317" lon="9.915661864058695"><ele>333.0</ele><time>2026-05-01T16:17:18Z</time></trkpt><trkpt lat="44.80753022826512" lon="9.91571842681561"><ele>333.0</ele><time>2026-05-01T16:17:20Z</time></trkpt><trkpt lat="44.80744360984392" lon="9.915780824188202"><ele>332.6666666666667</ele><time>2026-05-01T16:17:23Z</time></trkpt><trkpt lat="44.80737853177167" lon="9.915825511908716"><ele>332.3333333333333</ele><time>2026-05-01T16:17:25Z</time></trkpt><trkpt lat="44.80730670214826" lon="9.915867144195673"><ele>332.0</ele><time>2026-05-01T16:17:27Z</time></trkpt><trkpt lat="44.80722725860268" lon="9.915894682202827"><ele>331.66666666666663</ele><time>2026-05-01T16:17:29Z</time></trkpt><trkpt lat="44.8071408443818" lon="9.915900420447715"><ele>331.3333333333333</ele><time>2026-05-01T16:17:32Z</time></trkpt><trkpt lat="44.80706963674689" lon="9.91591759813561"><ele>331.0</ele><time>2026-05-01T16:17:34Z</time></trkpt><trkpt lat="44.80701253650235" lon="9.915959784996808"><ele>328.5</ele><time>2026-05-01T16:17:36Z</time></trkpt><trkpt lat="44.806962795326704" lon="9.916038165518096"><ele>326.0</ele><time>2026-05-01T16:17:38Z</time></trkpt><trkpt lat="44.80690297791061" lon="9.91611760866468"><ele>323.5</ele><time>2026-05-01T16:17:40Z</time></trkpt><trkpt lat="44.8068413693843" lon="9.916191590065182"><ele>321.0</ele><time>2026-05-01T16:17:42.001Z</time></trkpt><trkpt lat="44.80678287142991" lon="9.91627629673087"><ele>318.5</ele><time>2026-05-01T16:17:44.001Z</time></trkpt><trkpt lat="44.80672545433787" lon="9.91637049464729"><ele>316.0</ele><time>2026-05-01T16:17:46.001Z</time></trkpt><trkpt lat="44.80666825634988" lon="9.916467617647495"><ele>314.8</ele><time>2026-05-01T16:17:48.001Z</time></trkpt><trkpt lat="44.80660625500829" lon="9.916580122571673"><ele>313.6</ele><time>2026-05-01T16:17:50.001Z</time></trkpt><trkpt lat="44.80654704105548" lon="9.916695859362044"><ele>312.4</ele><time>2026-05-01T16:17:52.001Z</time></trkpt><trkpt lat="44.80649312543801" lon="9.916808317675336"><ele>311.2</ele><time>2026-05-01T16:17:54.001Z</time></trkpt><trkpt lat="44.80641771482112" lon="9.916936595290178"><ele>310.0</ele><time>2026-05-01T16:17:56.001Z</time></trkpt><trkpt lat="44.80636003119223" lon="9.917008240453887"><ele>308.5</ele><time>2026-05-01T16:17:57Z</time></trkpt><trkpt lat="44.80630869200014" lon="9.917085539257648"><ele>307.0</ele><time>2026-05-01T16:17:58Z</time></trkpt><trkpt lat="44.80625667694007" lon="9.917156118969643"><ele>305.5</ele><time>2026-05-01T16:17:59Z</time></trkpt><trkpt lat="44.80620399702382" lon="9.9172210973084"><ele>304.0</ele><time>2026-05-01T16:18:00Z</time></trkpt><trkpt lat="44.80615839836003" lon="9.91728786677452"><ele>302.5</ele><time>2026-05-01T16:18:01Z</time></trkpt><trkpt lat="44.80608491098006" lon="9.9174017117471"><ele>301.0</ele><time>2026-05-01T16:18:03Z</time></trkpt><trkpt lat="44.80604004081044" lon="9.917502453561397"><ele>301.14285714285717</ele><time>2026-05-01T16:20:10Z</time></trkpt><trkpt lat="44.80599751267958" lon="9.917583842497717"><ele>301.2857142857143</ele><time>2026-05-01T16:20:15Z</time></trkpt><trkpt lat="44.8059622165876" lon="9.917658378027332"><ele>301.42857142857144</ele><time>2026-05-01T16:20:17Z</time></trkpt><trkpt lat="44.805944476913396" lon="9.91775084317368"><ele>301.57142857142856</ele><time>2026-05-01T16:20:36Z</time></trkpt><trkpt lat="44.80591188785069" lon="9.917837972709"><ele>301.7142857142857</ele><time>2026-05-01T16:20:39Z</time></trkpt><trkpt lat="44.805866677048336" lon="9.91792722919254"><ele>301.8571428571429</ele><time>2026-05-01T16:20:41Z</time></trkpt><trkpt lat="44.805855095626555" lon="9.918014480702958"><ele>302.0</ele><time>2026-05-01T16:21:24Z</time></trkpt><trkpt lat="44.805867188748635" lon="9.918135187575682"><ele>303.2</ele><time>2026-05-01T16:21:26Z</time></trkpt><trkpt lat="44.80589561785114" lon="9.918305010459207"><ele>304.4</ele><time>2026-05-01T16:21:28Z</time></trkpt><trkpt lat="44.805925481515246" lon="9.918454858165811"><ele>305.6</ele><time>2026-05-01T16:21:30Z</time></trkpt><trkpt lat="44.8059670059618" lon="9.91862206974684"><ele>306.8</ele><time>2026-05-01T16:21:32Z</time></trkpt><trkpt lat="44.805994408338364" lon="9.918711071770376"><ele>308.0</ele><time>2026-05-01T16:21:33Z</time></trkpt><trkpt lat="44.80601084809611" lon="9.918796737879903"><ele>308.0</ele><time>2026-05-01T16:21:34Z</time></trkpt><trkpt lat="44.8060270957258" lon="9.918931963452854"><ele>308.0</ele><time>2026-05-01T16:21:36Z</time></trkpt><trkpt lat="44.80604550753133" lon="9.919074636860795"><ele>308.0</ele><time>2026-05-01T16:21:38Z</time></trkpt><trkpt lat="44.806076953223354" lon="9.919238037116017"><ele>308.0</ele><time>2026-05-01T16:21:40Z</time></trkpt><trkpt lat="44.80609821646797" lon="9.919335664469294"><ele>308.0</ele><time>2026-05-01T16:21:41Z</time></trkpt><trkpt lat="44.806126531696194" lon="9.919437568264222"><ele>309.2857142857143</ele><time>2026-05-01T16:21:42Z</time></trkpt><trkpt lat="44.80614898237585" lon="9.91953479479521"><ele>310.57142857142856</ele><time>2026-05-01T16:21:43Z</time></trkpt><trkpt lat="44.80617839078162" lon="9.919632426575832"><ele>311.8571428571429</ele><time>2026-05-01T16:21:44Z</time></trkpt><trkpt lat="44.806217430335316" lon="9.919727080620957"><ele>313.1428571428571</ele><time>2026-05-01T16:21:45Z</time></trkpt><trkpt lat="44.80625624563417" lon="9.919809991063984"><ele>314.42857142857144</ele><time>2026-05-01T16:21:46Z</time></trkpt><trkpt lat="44.8063007667908" lon="9.919889431637808"><ele>315.7142857142857</ele><time>2026-05-01T16:21:47Z</time></trkpt><trkpt lat="44.80634259652994" lon="9.919979181261022"><ele>317.0</ele><time>2026-05-01T16:21:48Z</time></trkpt><trkpt lat="44.806383569022294" lon="9.920061059724462"><ele>317.83333333333337</ele><time>2026-05-01T16:21:49Z</time></trkpt><trkpt lat="44.80642592666587" lon="9.920171322388503"><ele>318.6666666666667</ele><time>2026-05-01T16:21:51Z</time></trkpt><trkpt lat="44.80642512903298" lon="9.920277234601532"><ele>319.5</ele><time>2026-05-01T16:21:53Z</time></trkpt><trkpt lat="44.80642111461127" lon="9.920428161919446"><ele>320.3333333333333</ele><time>2026-05-01T16:21:55Z</time></trkpt><trkpt lat="44.80637539125116" lon="9.92051689243082"><ele>321.16666666666663</ele><time>2026-05-01T16:21:57Z</time></trkpt><trkpt lat="44.80629603242471" lon="9.920570225528582"><ele>322.0</ele><time>2026-05-01T16:21:59Z</time></trkpt><trkpt lat="44.806205967058965" lon="9.920651187367811"><ele>322.0</ele><time>2026-05-01T16:22:01Z</time></trkpt><trkpt lat="44.80614609075844" lon="9.920783772263643"><ele>322.0</ele><time>2026-05-01T16:22:03Z</time></trkpt><trkpt lat="44.806106203684166" lon="9.920853311948134"><ele>322.0</ele><time>2026-05-01T16:22:04Z</time></trkpt><trkpt lat="44.80602826141887" lon="9.920958439908052"><ele>322.0</ele><time>2026-05-01T16:22:06Z</time></trkpt><trkpt lat="44.80596876986095" lon="9.921045547510323"><ele>322.0</ele><time>2026-05-01T16:22:08Z</time></trkpt><trkpt lat="44.80592394864565" lon="9.921123321145512"><ele>322.0</ele><time>2026-05-01T16:22:10Z</time></trkpt><trkpt lat="44.80588021110492" lon="9.921217010218854"><ele>324.6</ele><time>2026-05-01T16:22:12Z</time></trkpt><trkpt lat="44.80582328520017" lon="9.921308930632193"><ele>327.20000000000005</ele><time>2026-05-01T16:22:14Z</time></trkpt><trkpt lat="44.805757532413594" lon="9.921411312609221"><ele>329.8</ele><time>2026-05-01T16:22:16Z</time></trkpt><trkpt lat="44.80566299528648" lon="9.921504076556161"><ele>332.4</ele><time>2026-05-01T16:22:18Z</time></trkpt><trkpt lat="44.80555072420631" lon="9.921584498052834"><ele>335.0</ele><time>2026-05-01T16:22:20Z</time></trkpt><trkpt lat="44.805452269440565" lon="9.921681404566554"><ele>334.0</ele><time>2026-05-01T16:22:22Z</time></trkpt><trkpt lat="44.805398158520994" lon="9.921732374416834"><ele>333.0</ele><time>2026-05-01T16:22:23Z</time></trkpt><trkpt lat="44.80530158036975" lon="9.921851530584263"><ele>332.0</ele><time>2026-05-01T16:22:25Z</time></trkpt><trkpt lat="44.80526422982976" lon="9.921923771805778"><ele>331.0</ele><time>2026-05-01T16:22:26Z</time></trkpt><trkpt lat="44.80518994902392" lon="9.922021828914152"><ele>330.0</ele><time>2026-05-01T16:22:28Z</time></trkpt><trkpt lat="44.80512566859899" lon="9.922081543355173"><ele>329.0</ele><time>2026-05-01T16:22:29Z</time></trkpt><trkpt lat="44.80506548129488" lon="9.922155947805672"><ele>332.0</ele><time>2026-05-01T16:22:30Z</time></trkpt><trkpt lat="44.804998168807565" lon="9.922262180745072"><ele>335.0</ele><time>2026-05-01T16:22:32Z</time></trkpt><trkpt lat="44.80496665555424" lon="9.922367818344743"><ele>338.0</ele><time>2026-05-01T16:22:34Z</time></trkpt><trkpt lat="44.80495154304302" lon="9.922473645282002"><ele>341.0</ele><time>2026-05-01T16:22:36Z</time></trkpt><trkpt lat="44.804926835899984" lon="9.922612507228267"><ele>344.0</ele><time>2026-05-01T16:22:38Z</time></trkpt><trkpt lat="44.80487855356077" lon="9.922794456054252"><ele>344.5</ele><time>2026-05-01T16:22:40Z</time></trkpt><trkpt lat="44.80486066814366" lon="9.922890654968455"><ele>345.0</ele><time>2026-05-01T16:22:41Z</time></trkpt><trkpt lat="44.80480304518791" lon="9.923015972788297"><ele>345.5</ele><time>2026-05-01T16:22:43Z</time></trkpt><trkpt lat="44.804759211737085" lon="9.923095198144646"><ele>346.0</ele><time>2026-05-01T16:22:45Z</time></trkpt><trkpt lat="44.804757094235946" lon="9.923193420146305"><ele>346.5</ele><time>2026-05-01T16:22:53Z</time></trkpt><trkpt lat="44.804796393736396" lon="9.923302507623928"><ele>347.0</ele><time>2026-05-01T16:22:55Z</time></trkpt><trkpt lat="44.80484857267153" lon="9.923420010709368"><ele>348.1666666666667</ele><time>2026-05-01T16:22:58Z</time></trkpt><trkpt lat="44.80490693408961" lon="9.9235138046811"><ele>349.33333333333337</ele><time>2026-05-01T16:23:00Z</time></trkpt><trkpt lat="44.80494704413134" lon="9.923590316532824"><ele>350.5</ele><time>2026-05-01T16:23:01Z</time></trkpt><trkpt lat="44.804992956063934" lon="9.923667413558313"><ele>351.6666666666667</ele><time>2026-05-01T16:23:02Z</time></trkpt><trkpt lat="44.80505829243615" lon="9.923775113430803"><ele>352.8333333333333</ele><time>2026-05-01T16:23:04Z</time></trkpt><trkpt lat="44.805106903817425" lon="9.92386348566497"><ele>354.0</ele><time>2026-05-01T16:23:06Z</time></trkpt><trkpt lat="44.805122334736716" lon="9.92397809738767"><ele>354.0</ele><time>2026-05-01T16:23:08Z</time></trkpt><trkpt lat="44.805102033620784" lon="9.924065475733624"><ele>354.0</ele><time>2026-05-01T16:23:10Z</time></trkpt><trkpt lat="44.8050528455797" lon="9.924169917511806"><ele>354.0</ele><time>2026-05-01T16:23:12Z</time></trkpt><trkpt lat="44.804980366120226" lon="9.924248402954241"><ele>354.0</ele><time>2026-05-01T16:23:14Z</time></trkpt><trkpt lat="44.80498735858914" lon="9.924419420647357"><ele>354.0</ele><time>2026-05-01T16:23:17Z</time></trkpt><trkpt lat="44.805064210700365" lon="9.924472661831306"><ele>353.6</ele><time>2026-05-01T16:23:19Z</time></trkpt><trkpt lat="44.805194674280166" lon="9.92452634005886"><ele>353.2</ele><time>2026-05-01T16:23:21Z</time></trkpt><trkpt lat="44.80526635284057" lon="9.924670965210627"><ele>352.8</ele><time>2026-05-01T16:23:24Z</time></trkpt><trkpt lat="44.8053085351038" lon="9.924738463865108"><ele>352.40000000000003</ele><time>2026-05-01T16:23:25Z</time></trkpt><trkpt lat="44.80535854377626" lon="9.924818521857325"><ele>352.0</ele><time>2026-05-01T16:23:26Z</time></trkpt><trkpt lat="44.805459875705765" lon="9.924894053991071"><ele>352.0</ele><time>2026-05-01T16:23:28Z</time></trkpt><trkpt lat="44.80551981743577" lon="9.924931334526379"><ele>352.0</ele><time>2026-05-01T16:23:29Z</time></trkpt><trkpt lat="44.805586953773634" lon="9.92496790531009"><ele>352.0</ele><time>2026-05-01T16:23:30Z</time></trkpt><trkpt lat="44.805712312575075" lon="9.925069611569972"><ele>352.0</ele><time>2026-05-01T16:23:32Z</time></trkpt><trkpt lat="44.80582377981327" lon="9.925105190476309"><ele>352.0</ele><time>2026-05-01T16:23:34Z</time></trkpt><trkpt lat="44.80594949476999" lon="9.925188450585141"><ele>353.0</ele><time>2026-05-01T16:23:36Z</time></trkpt><trkpt lat="44.8060169591973" lon="9.925223524844846"><ele>354.0</ele><time>2026-05-01T16:23:37Z</time></trkpt><trkpt lat="44.80607819249638" lon="9.92524709045913"><ele>355.0</ele><time>2026-05-01T16:23:38Z</time></trkpt><trkpt lat="44.80621501354056" lon="9.925328437684046"><ele>356.0</ele><time>2026-05-01T16:23:40Z</time></trkpt><trkpt lat="44.80628930596074" lon="9.925368101115685"><ele>357.0</ele><time>2026-05-01T16:23:41Z</time></trkpt><trkpt lat="44.80637561424666" lon="9.9254214088926"><ele>357.0</ele><time>2026-05-01T16:23:42Z</time></trkpt><trkpt lat="44.806466302557794" lon="9.925483573815571"><ele>357.0</ele><time>2026-05-01T16:23:43Z</time></trkpt><trkpt lat="44.8065419297707" lon="9.925538340646302"><ele>357.0</ele><time>2026-05-01T16:23:44Z</time></trkpt><trkpt lat="44.80663420750482" lon="9.925608729445024"><ele>357.0</ele><time>2026-05-01T16:23:46Z</time></trkpt><trkpt lat="44.806725216215895" lon="9.92569591792418"><ele>357.0</ele><time>2026-05-01T16:23:48Z</time></trkpt><trkpt lat="44.806759780358405" lon="9.925776649974479"><ele>357.0</ele><time>2026-05-01T16:23:49Z</time></trkpt><trkpt lat="44.80679942699639" lon="9.92589155911743"><ele>357.0</ele><time>2026-05-01T16:23:50Z</time></trkpt><trkpt lat="44.806835204818746" lon="9.925985787343965"><ele>357.0</ele><time>2026-05-01T16:23:51Z</time></trkpt><trkpt lat="44.80691856252454" lon="9.926130117432777"><ele>357.0</ele><time>2026-05-01T16:23:53Z</time></trkpt><trkpt lat="44.806949331413946" lon="9.92623569314749"><ele>357.0</ele><time>2026-05-01T16:23:54Z</time></trkpt><trkpt lat="44.80703127650109" lon="9.926391092867537"><ele>356.8</ele><time>2026-05-01T16:23:56Z</time></trkpt><trkpt lat="44.80709536627685" lon="9.92648829697859"><ele>356.6</ele><time>2026-05-01T16:23:57Z</time></trkpt><trkpt lat="44.80716490410419" lon="9.926591922988163"><ele>356.40000000000003</ele><time>2026-05-01T16:23:58Z</time></trkpt><trkpt lat="44.80722677891022" lon="9.926697509538656"><ele>356.20000000000005</ele><time>2026-05-01T16:23:59Z</time></trkpt><trkpt lat="44.80728981630101" lon="9.926790635337502"><ele>356.0</ele><time>2026-05-01T16:24:00Z</time></trkpt><trkpt lat="44.80734991005722" lon="9.926867258629409"><ele>356.6</ele><time>2026-05-01T16:24:01Z</time></trkpt><trkpt lat="44.80741345334551" lon="9.926934419097835"><ele>357.20000000000005</ele><time>2026-05-01T16:24:02Z</time></trkpt><trkpt lat="44.807519815090984" lon="9.927014100833677"><ele>357.79999999999995</ele><time>2026-05-01T16:24:04Z</time></trkpt><trkpt lat="44.80760821543022" lon="9.927078453195794"><ele>358.4</ele><time>2026-05-01T16:24:06Z</time></trkpt><trkpt lat="44.807677620005194" lon="9.92709164799571"><ele>359.0</ele><time>2026-05-01T16:24:09Z</time></trkpt><trkpt lat="44.807764796533725" lon="9.927098512169504"><ele>359.0</ele><time>2026-05-01T16:24:11Z</time></trkpt><trkpt lat="44.80783956233501" lon="9.927087215730953"><ele>359.0</ele><time>2026-05-01T16:24:12.999Z</time></trkpt><trkpt lat="44.80792915599679" lon="9.927155545689716"><ele>359.0</ele><time>2026-05-01T16:24:14.999Z</time></trkpt><trkpt lat="44.80803324275531" lon="9.927216947048336"><ele>359.0</ele><time>2026-05-01T16:24:16.999Z</time></trkpt><trkpt lat="44.808073677060584" lon="9.92728697280238"><ele>359.0</ele><time>2026-05-01T16:24:17.999Z</time></trkpt><trkpt lat="44.808174848455124" lon="9.927351258274658"><ele>359.0</ele><time>2026-05-01T16:24:19.999Z</time></trkpt><trkpt lat="44.80828595152105" lon="9.9274165300658"><ele>359.0</ele><time>2026-05-01T16:24:21.999Z</time></trkpt><trkpt lat="44.80835246820391" lon="9.927480700446917"><ele>359.0</ele><time>2026-05-01T16:24:23.999Z</time></trkpt><trkpt lat="44.80842131360328" lon="9.927440311119888"><ele>359.0</ele><time>2026-05-01T16:24:24.999Z</time></trkpt><trkpt lat="44.80848792962288" lon="9.92755244636694"><ele>359.0</ele><time>2026-05-01T16:24:25.999Z</time></trkpt><trkpt lat="44.808455822990936" lon="9.9277089085307"><ele>358.42857142857144</ele><time>2026-05-01T16:24:26.999Z</time></trkpt><trkpt lat="44.808481274672666" lon="9.927805024434589"><ele>357.8571428571429</ele><time>2026-05-01T16:24:27.999Z</time></trkpt><trkpt lat="44.80849809610022" lon="9.927910214365387"><ele>357.2857142857143</ele><time>2026-05-01T16:24:28.999Z</time></trkpt><trkpt lat="44.80850646836257" lon="9.92801399916567"><ele>356.7142857142857</ele><time>2026-05-01T16:24:29.999Z</time></trkpt><trkpt lat="44.80847982220616" lon="9.928109891528694"><ele>356.14285714285717</ele><time>2026-05-01T16:24:30.999Z</time></trkpt><trkpt lat="44.80843048386012" lon="9.928181372538539"><ele>355.57142857142856</ele><time>2026-05-01T16:24:33.999Z</time></trkpt><trkpt lat="44.80837956617501" lon="9.928109997344553"><ele>355.0</ele><time>2026-05-01T16:24:35.999Z</time></trkpt><trkpt lat="44.808334400549256" lon="9.92795713194002"><ele>356.8</ele><time>2026-05-01T16:24:37.999Z</time></trkpt><trkpt lat="44.80825294681884" lon="9.927844716497365"><ele>358.6</ele><time>2026-05-01T16:24:39.999Z</time></trkpt><trkpt lat="44.80819071184214" lon="9.927776926684844"><ele>360.4</ele><time>2026-05-01T16:24:40.999Z</time></trkpt><trkpt lat="44.808117009492044" lon="9.927722103681871"><ele>362.2</ele><time>2026-05-01T16:24:41.999Z</time></trkpt><trkpt lat="44.80801053169621" lon="9.927672994837268"><ele>364.0</ele><time>2026-05-01T16:24:42.999Z</time></trkpt><trkpt lat="44.80791566702463" lon="9.92762601398024"><ele>364.0</ele><time>2026-05-01T16:24:43.999Z</time></trkpt><trkpt lat="44.807832457415735" lon="9.927563892355865"><ele>364.0</ele><time>2026-05-01T16:24:44.999Z</time></trkpt><trkpt lat="44.80773358245784" lon="9.927505259125336"><ele>364.0</ele><time>2026-05-01T16:24:45.999Z</time></trkpt><trkpt lat="44.80762923069296" lon="9.927469239941761"><ele>364.0</ele><time>2026-05-01T16:24:46.999Z</time></trkpt><trkpt lat="44.80752546665222" lon="9.927453898635596"><ele>364.0</ele><time>2026-05-01T16:24:47.999Z</time></trkpt><trkpt lat="44.80744633746064" lon="9.927458544771918"><ele>364.16666666666663</ele><time>2026-05-01T16:24:48.999Z</time></trkpt><trkpt lat="44.807362622161826" lon="9.927509350852594"><ele>364.3333333333333</ele><time>2026-05-01T16:24:49.999Z</time></trkpt><trkpt lat="44.80727435590711" lon="9.927561208988244"><ele>364.5</ele><time>2026-05-01T16:24:50.999Z</time></trkpt><trkpt lat="44.80719296836483" lon="9.927574116670959"><ele>364.6666666666667</ele><time>2026-05-01T16:24:51.999Z</time></trkpt><trkpt lat="44.80712848337703" lon="9.92759710789608"><ele>364.83333333333337</ele><time>2026-05-01T16:24:52.999Z</time></trkpt><trkpt lat="44.807068295069335" lon="9.927518888275753"><ele>365.0</ele><time>2026-05-01T16:24:53.999Z</time></trkpt><trkpt lat="44.80701672409789" lon="9.92742089777671"><ele>365.6</ele><time>2026-05-01T16:24:54.999Z</time></trkpt><trkpt lat="44.80695440158522" lon="9.927290775491004"><ele>366.2</ele><time>2026-05-01T16:24:55.999Z</time></trkpt><trkpt lat="44.80689352654927" lon="9.92715430419637"><ele>366.79999999999995</ele><time>2026-05-01T16:24:56.999Z</time></trkpt><trkpt lat="44.80683816384026" lon="9.927022067111178"><ele>367.4</ele><time>2026-05-01T16:24:57.999Z</time></trkpt><trkpt lat="44.80676367728014" lon="9.92691617300181"><ele>368.0</ele><time>2026-05-01T16:24:58.999Z</time></trkpt><trkpt lat="44.806699973437134" lon="9.926815261143199"><ele>368.0</ele><time>2026-05-01T16:24:59.999Z</time></trkpt><trkpt lat="44.80662406999293" lon="9.926738640312738"><ele>368.0</ele><time>2026-05-01T16:25:00.999Z</time></trkpt><trkpt lat="44.80655025524569" lon="9.926657631091029"><ele>368.0</ele><time>2026-05-01T16:25:01.999Z</time></trkpt><trkpt lat="44.80648017592996" lon="9.92658687958405"><ele>368.0</ele><time>2026-05-01T16:25:02.999Z</time></trkpt><trkpt lat="44.80641957101863" lon="9.926520769552628"><ele>368.0</ele><time>2026-05-01T16:25:03.999Z</time></trkpt><trkpt lat="44.80634262343273" lon="9.926441436649412"><ele>368.0</ele><time>2026-05-01T16:25:05.999Z</time></trkpt></trkseg></trk></gpx>